| Idx |
Date & Time |
Min
|
Avg
|
Max
|
Dir
|
Press
|
QNH
|
Temp
|
Hum
|
Dew
|
Cloudbase
AMSL |
Batt
|
CSQ
|
| 5332 | 15 Apr 11:40:02 | 8 | 9.4 mph | 11 | SSE (159°) | 99823 | 101976 | 24.8°C | 86.8% | 22.4°C | 1554ft (474m) | 14.19v | 18 |
| 5331 | 15 Apr 11:39:50 | 6 | 7.5 mph | 8 | SSE (165°) | 99826 | 101979 | 24.8°C | 86.9% | 22.5°C | 1546ft (471m) | 14.2v | 18 |
| 5330 | 15 Apr 11:39:39 | 5 | 5.9 mph | 7 | S (169°) | 99827 | 101980 | 24.8°C | 86.8% | 22.4°C | 1554ft (474m) | 14.24v | 15 |
| 5329 | 15 Apr 11:39:28 | 5 | 6.7 mph | 9 | SSE (159°) | 99827 | 101980 | 24.8°C | 86.8% | 22.4°C | 1554ft (474m) | 14.22v | 15 |
| 5328 | 15 Apr 11:39:17 | 8 | 10.4 mph | 12 | SSE (165°) | 99826 | 101979 | 24.8°C | 86.9% | 22.5°C | 1546ft (471m) | 14.2v | 15 |
| 5327 | 15 Apr 11:39:05 | 7 | 8.3 mph | 10 | SSE (166°) | 99822 | 101975 | 24.8°C | 86.9% | 22.5°C | 1546ft (471m) | 14.21v | 15 |
| 5326 | 15 Apr 11:38:54 | 5 | 6 mph | 7 | SSE (165°) | 99830 | 101983 | 24.8°C | 86.9% | 22.5°C | 1546ft (471m) | 14.18v | 16 |
| 5325 | 15 Apr 11:38:43 | 3 | 4.1 mph | 6 | S (172°) | 99828 | 101981 | 24.8°C | 86.8% | 22.4°C | 1554ft (474m) | 14.19v | 16 |
| 5324 | 15 Apr 11:38:32 | 5 | 5.7 mph | 7 | SSE (158°) | 99828 | 101981 | 24.8°C | 86.8% | 22.4°C | 1554ft (474m) | 14.19v | 14 |
| 5323 | 15 Apr 11:38:20 | 5 | 5.8 mph | 7 | S (172°) | 99830 | 101983 | 24.9°C | 86.8% | 22.5°C | 1555ft (474m) | 14.21v | 14 |
| 5322 | 15 Apr 11:38:09 | 7 | 7.7 mph | 8 | S (171°) | 99827 | 101980 | 24.9°C | 86.8% | 22.5°C | 1555ft (474m) | 14.2v | 15 |
| 5321 | 15 Apr 11:37:58 | 8 | 8.3 mph | 10 | SSE (165°) | 99828 | 101981 | 24.8°C | 86.8% | 22.4°C | 1554ft (474m) | 14.23v | 14 |
| 5320 | 15 Apr 11:37:47 | 8 | 9.3 mph | 10 | S (170°) | 99826 | 101979 | 24.9°C | 86.9% | 22.6°C | 1547ft (472m) | 14.19v | 17 |
| 5319 | 15 Apr 11:37:35 | 8 | 8.5 mph | 10 | SSE (164°) | 99826 | 101979 | 24.9°C | 86.9% | 22.6°C | 1547ft (472m) | 14.21v | 17 |
| 5318 | 15 Apr 11:37:24 | 9 | 9.7 mph | 11 | SSE (164°) | 99829 | 101982 | 24.9°C | 86.8% | 22.5°C | 1555ft (474m) | 14.21v | 13 |
| 5317 | 15 Apr 11:37:13 | 6 | 8.7 mph | 12 | S (174°) | 99825 | 101978 | 24.9°C | 86.9% | 22.6°C | 1547ft (472m) | 14.21v | 17 |
| 5316 | 15 Apr 11:37:02 | 6 | 5.8 mph | 6 | SSE (160°) | 99831 | 101984 | 24.9°C | 86.8% | 22.5°C | 1555ft (474m) | 14.2v | 15 |
| 5315 | 15 Apr 11:36:50 | 8 | 9.6 mph | 11 | SSE (150°) | 99834 | 101987 | 24.9°C | 86.8% | 22.5°C | 1555ft (474m) | 14.19v | 16 |
| 5314 | 15 Apr 11:36:39 | 6 | 8.4 mph | 11 | SSE (161°) | 99828 | 101981 | 24.9°C | 86.8% | 22.5°C | 1555ft (474m) | 14.2v | 16 |
| 5313 | 15 Apr 11:36:28 | 9 | 9.5 mph | 10 | S (176°) | 99834 | 101987 | 24.9°C | 86.8% | 22.5°C | 1555ft (474m) | 14.19v | 15 |
| 5312 | 15 Apr 11:36:17 | 7 | 7.9 mph | 9 | S (172°) | 99832 | 101985 | 24.9°C | 86.9% | 22.6°C | 1547ft (472m) | 14.21v | 15 |
| 5311 | 15 Apr 11:36:05 | 8 | 9.7 mph | 12 | SE (141°) | 99829 | 101982 | 24.9°C | 86.9% | 22.6°C | 1547ft (472m) | 14.2v | 17 |
| 5310 | 15 Apr 11:35:54 | 10 | 10.7 mph | 11 | SSE (160°) | 99828 | 101981 | 24.9°C | 87% | 22.6°C | 1539ft (469m) | 14.24v | 17 |
| 5309 | 15 Apr 11:35:43 | 8 | 9.2 mph | 11 | SSE (158°) | 99824 | 101977 | 24.9°C | 87.1% | 22.6°C | 1532ft (467m) | 14.19v | 15 |
| 5308 | 15 Apr 11:35:32 | 5 | 6.8 mph | 8 | SSE (165°) | 99838 | 101992 | 24.9°C | 87% | 22.6°C | 1539ft (469m) | 14.19v | 15 |
| 5307 | 15 Apr 11:35:20 | 5 | 6 mph | 7 | SSE (162°) | 99837 | 101990 | 24.9°C | 87% | 22.6°C | 1539ft (469m) | 14.2v | 17 |
| 5306 | 15 Apr 11:35:09 | 5 | 5.8 mph | 7 | SE (142°) | 99834 | 101987 | 24.9°C | 87.1% | 22.6°C | 1532ft (467m) | 14.19v | 17 |
| 5305 | 15 Apr 11:34:58 | 5 | 5.5 mph | 6 | S (177°) | 99840 | 101994 | 24.9°C | 87.1% | 22.6°C | 1532ft (467m) | 14.2v | 16 |
| 5304 | 15 Apr 11:34:47 | 5 | 5.6 mph | 6 | SSE (159°) | 99838 | 101992 | 24.9°C | 87.1% | 22.6°C | 1532ft (467m) | 14.19v | 15 |
| 5303 | 15 Apr 11:34:35 | 3 | 4 mph | 5 | SSE (163°) | 99839 | 101993 | 24.9°C | 87% | 22.6°C | 1539ft (469m) | 14.22v | 14 |
| 5302 | 15 Apr 11:34:24 | 5 | 6.1 mph | 8 | SSE (167°) | 99840 | 101994 | 24.9°C | 87% | 22.6°C | 1539ft (469m) | 14.21v | 17 |
| 5301 | 15 Apr 11:34:13 | 5 | 5.3 mph | 6 | S (169°) | 99839 | 101993 | 24.9°C | 87% | 22.6°C | 1539ft (469m) | 14.24v | 16 |
| 5300 | 15 Apr 11:34:02 | 7 | 8.7 mph | 11 | SSE (156°) | 99839 | 101993 | 24.9°C | 87% | 22.6°C | 1539ft (469m) | 14.2v | 17 |
| 5299 | 15 Apr 11:33:50 | 6 | 7.8 mph | 10 | SSE (163°) | 99830 | 101983 | 24.9°C | 87.2% | 22.6°C | 1524ft (465m) | 14.2v | 14 |
| 5298 | 15 Apr 11:33:39 | 6 | 6.1 mph | 7 | SSE (160°) | 99838 | 101992 | 24.9°C | 87.2% | 22.6°C | 1524ft (465m) | 14.21v | 15 |
| 5297 | 15 Apr 11:33:28 | 5 | 5.9 mph | 8 | S (180°) | 99840 | 101994 | 24.9°C | 87.1% | 22.6°C | 1532ft (467m) | 14.21v | 14 |
| 5296 | 15 Apr 11:33:17 | 6 | 6.9 mph | 9 | S (172°) | 99838 | 101992 | 24.9°C | 87.1% | 22.6°C | 1532ft (467m) | 14.19v | 14 |
| 5295 | 15 Apr 11:33:05 | 7 | 9 mph | 12 | SSE (159°) | 99836 | 101989 | 24.9°C | 87.2% | 22.6°C | 1524ft (465m) | 14.21v | 15 |
| 5294 | 15 Apr 11:32:54 | 5 | 6.1 mph | 7 | S (178°) | 99841 | 101995 | 24.9°C | 87.2% | 22.6°C | 1524ft (465m) | 14.17v | 15 |
| 5293 | 15 Apr 11:32:43 | 5 | 5.9 mph | 7 | SSE (163°) | 99838 | 101992 | 24.9°C | 87.1% | 22.6°C | 1532ft (467m) | 14.2v | 14 |
| 5292 | 15 Apr 11:32:32 | 6 | 7.5 mph | 8 | SSE (167°) | 99844 | 101998 | 24.9°C | 87.1% | 22.6°C | 1532ft (467m) | 14.17v | 14 |
| 5291 | 15 Apr 11:32:20 | 8 | 9.1 mph | 10 | S (174°) | 99839 | 101993 | 24.9°C | 87.2% | 22.6°C | 1524ft (465m) | 14.25v | 14 |
| 5290 | 15 Apr 11:32:09 | 10 | 10.8 mph | 12 | S (172°) | 99840 | 101994 | 24.9°C | 87.2% | 22.6°C | 1524ft (465m) | 14.2v | 15 |
| 5289 | 15 Apr 11:31:58 | 6 | 7.3 mph | 9 | S (170°) | 99837 | 101990 | 24.9°C | 87.2% | 22.6°C | 1524ft (465m) | 14.2v | 16 |
| 5288 | 15 Apr 11:31:47 | 8 | 9 mph | 10 | SSE (163°) | 99840 | 101994 | 24.9°C | 87.2% | 22.6°C | 1524ft (465m) | 14.19v | 14 |
| 5287 | 15 Apr 11:31:35 | 5 | 7.9 mph | 11 | SSE (168°) | 99833 | 101986 | 24.9°C | 87.2% | 22.6°C | 1524ft (465m) | 14.2v | 17 |
| 5286 | 15 Apr 11:31:24 | 6 | 6.6 mph | 8 | SSE (162°) | 99844 | 101998 | 24.9°C | 87.2% | 22.6°C | 1524ft (465m) | 14.19v | 15 |
| 5285 | 15 Apr 11:31:13 | 8 | 8.6 mph | 9 | S (174°) | 99842 | 101996 | 24.9°C | 87.3% | 22.6°C | 1516ft (462m) | 14.23v | 15 |
| 5284 | 15 Apr 11:31:02 | 5 | 6.8 mph | 9 | S (175°) | 99844 | 101998 | 24.9°C | 87.3% | 22.6°C | 1516ft (462m) | 14.2v | 15 |
| 5283 | 15 Apr 11:30:50 | 5 | 7 mph | 10 | S (170°) | 99845 | 101999 | 24.9°C | 87.3% | 22.6°C | 1516ft (462m) | 14.18v | 14 |
| 5282 | 15 Apr 11:30:39 | 8 | 8.7 mph | 10 | S (172°) | 99842 | 101996 | 24.9°C | 87.3% | 22.6°C | 1516ft (462m) | 14.23v | 16 |
| 5281 | 15 Apr 11:30:28 | 7 | 8.2 mph | 11 | S (184°) | 99842 | 101996 | 24.9°C | 87.2% | 22.6°C | 1524ft (465m) | 14.2v | 14 |
| 5280 | 15 Apr 11:30:17 | 9 | 10.5 mph | 12 | SSE (162°) | 99842 | 101996 | 24.9°C | 87.3% | 22.6°C | 1516ft (462m) | 14.18v | 15 |
| 5279 | 15 Apr 11:30:05 | 8 | 10.2 mph | 14 | SSE (162°) | 99835 | 101988 | 24.9°C | 87.2% | 22.6°C | 1524ft (465m) | 14.21v | 16 |
| 5278 | 15 Apr 11:29:54 | 5 | 7 mph | 9 | SSW (194°) | 99850 | 102004 | 24.9°C | 87.3% | 22.6°C | 1516ft (462m) | 14.2v | 17 |
| 5277 | 15 Apr 11:29:43 | 4 | 5.4 mph | 7 | SSE (164°) | 99849 | 102003 | 24.9°C | 87.2% | 22.6°C | 1524ft (465m) | 14.22v | 14 |
| 5276 | 15 Apr 11:29:32 | 6 | 6.7 mph | 8 | SSW (193°) | 99848 | 102002 | 24.9°C | 87.2% | 22.6°C | 1524ft (465m) | 14.2v | 16 |
| 5275 | 15 Apr 11:29:20 | 6 | 7 mph | 8 | S (189°) | 99846 | 102000 | 24.9°C | 87.3% | 22.6°C | 1516ft (462m) | 14.17v | 16 |
| 5274 | 15 Apr 11:29:09 | 8 | 8.5 mph | 9 | SSE (157°) | 99848 | 102002 | 24.9°C | 87.2% | 22.6°C | 1524ft (465m) | 14.21v | 18 |
| 5273 | 15 Apr 11:28:58 | 8 | 9.2 mph | 12 | SSE (162°) | 99846 | 102000 | 24.9°C | 87.2% | 22.6°C | 1524ft (465m) | 14.17v | 14 |
| 5272 | 15 Apr 11:28:47 | 8 | 9.5 mph | 11 | SSE (165°) | 99844 | 101998 | 24.9°C | 87.3% | 22.6°C | 1516ft (462m) | 14.2v | 15 |
| 5271 | 15 Apr 11:28:35 | 9 | 9.4 mph | 10 | SSE (161°) | 99846 | 102000 | 24.9°C | 87.3% | 22.6°C | 1516ft (462m) | 14.19v | 16 |
| 5270 | 15 Apr 11:28:24 | 8 | 8.7 mph | 10 | SSE (164°) | 99849 | 102003 | 24.9°C | 87.3% | 22.6°C | 1516ft (462m) | 14.22v | 14 |
| 5269 | 15 Apr 11:28:13 | 9 | 10 mph | 11 | S (170°) | 99845 | 101999 | 24.9°C | 87.2% | 22.6°C | 1524ft (465m) | 14.17v | 17 |
| 5268 | 15 Apr 11:28:02 | 6 | 8.2 mph | 11 | S (182°) | 99840 | 101994 | 24.9°C | 87.2% | 22.6°C | 1524ft (465m) | 14.24v | 16 |
| 5267 | 15 Apr 11:27:50 | 5 | 7.4 mph | 9 | SSE (164°) | 99854 | 102008 | 24.9°C | 87.2% | 22.6°C | 1524ft (465m) | 14.2v | 17 |
| 5266 | 15 Apr 11:27:39 | 5 | 6.2 mph | 9 | S (172°) | 99845 | 101999 | 24.9°C | 87.3% | 22.6°C | 1516ft (462m) | 14.25v | 14 |
| 5265 | 15 Apr 11:27:28 | 9 | 9.7 mph | 11 | S (182°) | 99853 | 102007 | 24.9°C | 87.3% | 22.6°C | 1516ft (462m) | 14.19v | 14 |
| 5264 | 15 Apr 11:27:17 | 6 | 8 mph | 9 | S (179°) | 99849 | 102003 | 24.9°C | 87.3% | 22.6°C | 1516ft (462m) | 14.19v | 14 |
| 5263 | 15 Apr 11:27:05 | 8 | 7.9 mph | 8 | S (177°) | 99849 | 102003 | 24.9°C | 87.3% | 22.6°C | 1516ft (462m) | 14.2v | 14 |
| 5262 | 15 Apr 11:26:54 | 8 | 8.6 mph | 9 | SSE (160°) | 99849 | 102003 | 24.9°C | 87.4% | 22.7°C | 1508ft (460m) | 14.2v | 14 |
| 5261 | 15 Apr 11:26:43 | 7 | 8.4 mph | 11 | SSE (164°) | 99852 | 102006 | 24.9°C | 87.4% | 22.7°C | 1508ft (460m) | 14.18v | 15 |
| 5260 | 15 Apr 11:26:32 | 9 | 9.7 mph | 12 | S (170°) | 99853 | 102007 | 24.9°C | 87.5% | 22.7°C | 1501ft (458m) | 14.2v | 14 |
| 5259 | 15 Apr 11:26:20 | 6 | 7.1 mph | 9 | S (170°) | 99858 | 102012 | 24.9°C | 87.4% | 22.7°C | 1508ft (460m) | 14.19v | 14 |
| 5258 | 15 Apr 11:26:09 | 6 | 7.6 mph | 9 | S (170°) | 99853 | 102007 | 24.9°C | 87.4% | 22.7°C | 1508ft (460m) | 14.21v | 17 |
| 5257 | 15 Apr 11:25:58 | 5 | 6.8 mph | 8 | SSE (155°) | 99852 | 102006 | 24.9°C | 87.3% | 22.6°C | 1516ft (462m) | 14.18v | 14 |
| 5256 | 15 Apr 11:25:47 | 7 | 6.9 mph | 8 | SSE (161°) | 99858 | 102012 | 24.9°C | 87.2% | 22.6°C | 1524ft (465m) | 14.21v | 15 |
| 5255 | 15 Apr 11:25:35 | 5 | 6.2 mph | 8 | S (183°) | 99856 | 102010 | 24.9°C | 87.2% | 22.6°C | 1524ft (465m) | 14.23v | 15 |
| 5254 | 15 Apr 11:25:24 | 7 | 7.5 mph | 9 | S (173°) | 99855 | 102009 | 24.9°C | 87.1% | 22.6°C | 1532ft (467m) | 14.18v | 15 |
| 5253 | 15 Apr 11:25:13 | 6 | 7.3 mph | 9 | S (175°) | 99856 | 102010 | 24.9°C | 87.2% | 22.6°C | 1524ft (465m) | 14.19v | 14 |
| 5252 | 15 Apr 11:25:02 | 8 | 8.3 mph | 9 | S (186°) | 99856 | 102010 | 24.9°C | 87.1% | 22.6°C | 1532ft (467m) | 14.19v | 14 |
| 5251 | 15 Apr 11:24:50 | 7 | 8.3 mph | 10 | S (175°) | 99856 | 102010 | 24.9°C | 87% | 22.6°C | 1539ft (469m) | 14.24v | 14 |
| 5250 | 15 Apr 11:24:39 | 12 | 12.7 mph | 13 | S (178°) | 99852 | 102006 | 25°C | 87% | 22.7°C | 1540ft (469m) | 14.19v | 16 |
| 5249 | 15 Apr 11:24:28 | 11 | 11.6 mph | 13 | SSE (154°) | 99857 | 102011 | 24.9°C | 87.1% | 22.6°C | 1532ft (467m) | 14.19v | 14 |
| 5248 | 15 Apr 11:24:17 | 8 | 10 mph | 14 | SSE (150°) | 99852 | 102006 | 24.9°C | 87.1% | 22.6°C | 1532ft (467m) | 14.18v | 16 |
| 5247 | 15 Apr 11:24:05 | 7 | 8.1 mph | 10 | SSE (167°) | 99859 | 102013 | 24.9°C | 87.1% | 22.6°C | 1532ft (467m) | 14.23v | 17 |
| 5246 | 15 Apr 11:23:54 | 7 | 7.7 mph | 10 | S (171°) | 99863 | 102017 | 24.9°C | 87.2% | 22.6°C | 1524ft (465m) | 14.21v | 17 |
| 5245 | 15 Apr 11:23:43 | 10 | 11.1 mph | 13 | SE (144°) | 99855 | 102009 | 24.9°C | 87.1% | 22.6°C | 1532ft (467m) | 14.22v | 17 |
| 5244 | 15 Apr 11:23:32 | 8 | 9.9 mph | 13 | SSE (159°) | 99848 | 102002 | 24.9°C | 87.2% | 22.6°C | 1524ft (465m) | 14.21v | 15 |
| 5243 | 15 Apr 11:23:20 | 7 | 8.5 mph | 12 | SSE (158°) | 99859 | 102013 | 24.9°C | 87.1% | 22.6°C | 1532ft (467m) | 14.18v | 17 |
| 5242 | 15 Apr 11:23:09 | 11 | 11.2 mph | 14 | SE (136°) | 99859 | 102013 | 24.9°C | 87.1% | 22.6°C | 1532ft (467m) | 14.21v | 14 |
| 5241 | 15 Apr 11:22:58 | 9 | 9.6 mph | 11 | SSE (147°) | 99856 | 102010 | 24.9°C | 87.3% | 22.6°C | 1516ft (462m) | 14.17v | 14 |
| 5240 | 15 Apr 11:22:47 | 7 | 8.7 mph | 10 | SSE (156°) | 99864 | 102018 | 24.9°C | 87.2% | 22.6°C | 1524ft (465m) | 14.22v | 17 |
| 5239 | 15 Apr 11:22:35 | 5 | 7.1 mph | 9 | SSE (152°) | 99863 | 102017 | 24.9°C | 87.1% | 22.6°C | 1532ft (467m) | 14.2v | 17 |
| 5238 | 15 Apr 11:22:24 | 7 | 7.5 mph | 8 | SE (141°) | 99863 | 102017 | 24.9°C | 87.3% | 22.6°C | 1516ft (462m) | 14.19v | 16 |
| 5237 | 15 Apr 11:22:13 | 3 | 5.8 mph | 7 | SSE (159°) | 99862 | 102016 | 24.9°C | 87.2% | 22.6°C | 1524ft (465m) | 14.24v | 17 |
| 5236 | 15 Apr 11:22:02 | 4 | 6.1 mph | 8 | S (175°) | 99864 | 102018 | 24.9°C | 87.2% | 22.6°C | 1524ft (465m) | 14.23v | 14 |
| 5235 | 15 Apr 11:21:50 | 6 | 7.1 mph | 10 | S (174°) | 99866 | 102020 | 24.9°C | 87.1% | 22.6°C | 1532ft (467m) | 14.23v | 18 |
| 5234 | 15 Apr 11:21:39 | 9 | 10.6 mph | 12 | SSE (163°) | 99860 | 102014 | 24.9°C | 87% | 22.6°C | 1539ft (469m) | 14.2v | 15 |
| 5233 | 15 Apr 11:21:28 | 7 | 8.7 mph | 11 | SSE (164°) | 99862 | 102016 | 24.9°C | 87% | 22.6°C | 1539ft (469m) | 14.15v | 16 |
| 5232 | 15 Apr 11:21:17 | 6 | 7.7 mph | 9 | S (172°) | 99867 | 102021 | 24.9°C | 87.1% | 22.6°C | 1532ft (467m) | 14.22v | 14 |
| 5231 | 15 Apr 11:21:06 | 6 | 6.8 mph | 8 | S (183°) | 99861 | 102015 | 24.9°C | 87.1% | 22.6°C | 1532ft (467m) | 14.19v | 14 |
| 5230 | 15 Apr 11:20:55 | 8 | 7.8 mph | 10 | S (186°) | 99863 | 102017 | 24.9°C | 87.1% | 22.6°C | 1532ft (467m) | 14.24v | 15 |
| 5229 | 15 Apr 11:20:44 | 10 | 11.3 mph | 12 | SSE (158°) | 99861 | 102015 | 24.9°C | 87% | 22.6°C | 1539ft (469m) | 14.22v | 14 |
| 5228 | 15 Apr 11:20:32 | 8 | 10.2 mph | 13 | SSE (158°) | 99858 | 102012 | 24.9°C | 87.1% | 22.6°C | 1532ft (467m) | 14.24v | 15 |
| 5227 | 15 Apr 11:20:21 | 10 | 11.1 mph | 13 | SSE (168°) | 99862 | 102016 | 24.9°C | 87.1% | 22.6°C | 1532ft (467m) | 14.21v | 17 |
| 5226 | 15 Apr 11:20:10 | 10 | 11 mph | 12 | SSE (158°) | 99866 | 102020 | 24.9°C | 87.1% | 22.6°C | 1532ft (467m) | 14.17v | 15 |
| 5225 | 15 Apr 11:19:59 | 7 | 8 mph | 10 | SSE (165°) | 99850 | 102004 | 24.9°C | 87.1% | 22.6°C | 1532ft (467m) | 14.21v | 15 |
| 5224 | 15 Apr 11:19:47 | 6 | 6.8 mph | 8 | SSE (160°) | 99868 | 102022 | 24.9°C | 87% | 22.6°C | 1539ft (469m) | 14.21v | 14 |
| 5223 | 15 Apr 11:19:36 | 6 | 7.7 mph | 11 | SSE (153°) | 99871 | 102025 | 24.9°C | 87% | 22.6°C | 1539ft (469m) | 14.2v | 15 |
| 5222 | 15 Apr 11:19:25 | 7 | 9.2 mph | 12 | SE (146°) | 99855 | 102009 | 24.9°C | 87% | 22.6°C | 1539ft (469m) | 14.19v | 14 |
| 5221 | 15 Apr 11:19:14 | 7 | 8.8 mph | 12 | SSE (152°) | 99874 | 102028 | 24.9°C | 86.9% | 22.6°C | 1547ft (472m) | 14.25v | 14 |
| 5220 | 15 Apr 11:19:02 | 9 | 9.7 mph | 11 | SE (146°) | 99867 | 102021 | 24.9°C | 86.9% | 22.6°C | 1547ft (472m) | 14.2v | 14 |
| 5219 | 15 Apr 11:18:51 | 9 | 10 mph | 13 | SSE (158°) | 99871 | 102025 | 24.9°C | 86.9% | 22.6°C | 1547ft (472m) | 14.17v | 14 |
| 5218 | 15 Apr 11:18:40 | 6 | 9.2 mph | 12 | S (185°) | 99869 | 102023 | 24.9°C | 86.9% | 22.6°C | 1547ft (472m) | 14.18v | 16 |
| 5217 | 15 Apr 11:18:29 | 7 | 8.2 mph | 11 | S (171°) | 99862 | 102016 | 24.9°C | 86.9% | 22.6°C | 1547ft (472m) | 14.18v | 14 |
| 5216 | 15 Apr 11:18:17 | 6 | 7 mph | 10 | S (175°) | 99868 | 102022 | 24.9°C | 86.8% | 22.5°C | 1555ft (474m) | 14.2v | 15 |
| 5215 | 15 Apr 11:18:05 | 7 | 9.5 mph | 13 | SSE (153°) | 99867 | 102021 | 24.9°C | 86.9% | 22.6°C | 1547ft (472m) | 14.19v | 18 |
| 5214 | 15 Apr 11:17:54 | 11 | 12.9 mph | 15 | SE (145°) | 99865 | 102019 | 24.9°C | 86.9% | 22.6°C | 1547ft (472m) | 14.23v | 15 |
| 5213 | 15 Apr 11:17:43 | 8 | 8.4 mph | 10 | SSE (163°) | 99856 | 102010 | 24.9°C | 87% | 22.6°C | 1539ft (469m) | 14.25v | 15 |
| 5212 | 15 Apr 11:17:32 | 7 | 8 mph | 9 | SSE (166°) | 99872 | 102026 | 24.9°C | 87% | 22.6°C | 1539ft (469m) | 14.21v | 15 |
| 5211 | 15 Apr 11:17:20 | 7 | 7.6 mph | 11 | SSE (164°) | 99876 | 102030 | 24.9°C | 86.9% | 22.6°C | 1547ft (472m) | 14.2v | 14 |
| 5210 | 15 Apr 11:17:09 | 8 | 8.6 mph | 9 | SSE (157°) | 99873 | 102027 | 24.9°C | 86.9% | 22.6°C | 1547ft (472m) | 14.21v | 14 |
| 5209 | 15 Apr 11:16:58 | 4 | 5.7 mph | 10 | SSE (168°) | 99878 | 102032 | 24.9°C | 86.8% | 22.5°C | 1555ft (474m) | 14.17v | 16 |
| 5208 | 15 Apr 11:16:47 | 7 | 9.2 mph | 11 | SSE (162°) | 99873 | 102027 | 24.9°C | 86.8% | 22.5°C | 1555ft (474m) | 14.21v | 16 |
| 5207 | 15 Apr 11:16:35 | 5 | 5.9 mph | 7 | SSE (159°) | 99869 | 102023 | 24.9°C | 86.8% | 22.5°C | 1555ft (474m) | 14.18v | 14 |
| 5206 | 15 Apr 11:16:24 | 8 | 10.1 mph | 14 | SSE (156°) | 99874 | 102028 | 24.9°C | 86.7% | 22.5°C | 1563ft (476m) | 14.22v | 13 |
| 5205 | 15 Apr 11:16:13 | 13 | 13.9 mph | 16 | SE (141°) | 99871 | 102025 | 24.9°C | 86.8% | 22.5°C | 1555ft (474m) | 14.2v | 14 |
| 5204 | 15 Apr 11:16:02 | 10 | 11.8 mph | 14 | SE (146°) | 99866 | 102020 | 24.9°C | 86.8% | 22.5°C | 1555ft (474m) | 14.2v | 14 |
| 5203 | 15 Apr 11:15:50 | 11 | 12.5 mph | 15 | SE (140°) | 99870 | 102024 | 24.9°C | 87% | 22.6°C | 1539ft (469m) | 14.17v | 15 |
| 5202 | 15 Apr 11:15:39 | 5 | 7.7 mph | 11 | SSE (161°) | 99873 | 102027 | 24.9°C | 87% | 22.6°C | 1539ft (469m) | 14.19v | 15 |
| 5201 | 15 Apr 11:15:28 | 6 | 8.4 mph | 11 | SE (142°) | 99879 | 102033 | 24.9°C | 87% | 22.6°C | 1539ft (469m) | 14.16v | 17 |
| 5200 | 15 Apr 11:15:17 | 7 | 7.6 mph | 11 | SSE (151°) | 99879 | 102033 | 24.9°C | 86.9% | 22.6°C | 1547ft (472m) | 14.24v | 15 |
| 5199 | 15 Apr 11:15:05 | 7 | 10.2 mph | 13 | SE (146°) | 99876 | 102030 | 24.9°C | 86.8% | 22.5°C | 1555ft (474m) | 14.2v | 15 |
| 5198 | 15 Apr 11:14:54 | 6 | 7.2 mph | 8 | SSE (167°) | 99883 | 102037 | 24.9°C | 87% | 22.6°C | 1539ft (469m) | 14.19v | 15 |
| 5197 | 15 Apr 11:14:43 | 9 | 10.3 mph | 12 | S (171°) | 99874 | 102028 | 24.9°C | 86.9% | 22.6°C | 1547ft (472m) | 14.25v | 14 |
| 5196 | 15 Apr 11:14:32 | 7 | 9.2 mph | 12 | SE (141°) | 99871 | 102025 | 24.9°C | 86.8% | 22.5°C | 1555ft (474m) | 14.21v | 14 |
| 5195 | 15 Apr 11:14:20 | 6 | 6.9 mph | 10 | SSE (167°) | 99875 | 102029 | 24.9°C | 86.9% | 22.6°C | 1547ft (472m) | 14.21v | 15 |
| 5194 | 15 Apr 11:14:09 | 9 | 11.4 mph | 14 | SE (142°) | 99873 | 102027 | 24.9°C | 86.8% | 22.5°C | 1555ft (474m) | 14.21v | 16 |
| 5193 | 15 Apr 11:13:58 | 6 | 8.9 mph | 13 | SSE (149°) | 99864 | 102018 | 24.9°C | 86.8% | 22.5°C | 1555ft (474m) | 14.18v | 15 |
| 5192 | 15 Apr 11:13:47 | 9 | 10.2 mph | 12 | S (169°) | 99877 | 102031 | 24.9°C | 86.8% | 22.5°C | 1555ft (474m) | 14.23v | 16 |
| 5191 | 15 Apr 11:13:35 | 7 | 8.5 mph | 11 | SSE (150°) | 99870 | 102024 | 24.9°C | 86.9% | 22.6°C | 1547ft (472m) | 14.21v | 17 |
| 5190 | 15 Apr 11:13:24 | 6 | 6.6 mph | 9 | SSE (150°) | 99877 | 102031 | 24.9°C | 87% | 22.6°C | 1539ft (469m) | 14.19v | 14 |
| 5189 | 15 Apr 11:13:13 | 7 | 7.8 mph | 9 | SSE (151°) | 99880 | 102034 | 24.9°C | 86.9% | 22.6°C | 1547ft (472m) | 14.22v | 14 |
| 5188 | 15 Apr 11:13:02 | 7 | 8.7 mph | 11 | SE (140°) | 99880 | 102034 | 24.9°C | 86.9% | 22.6°C | 1547ft (472m) | 14.18v | 14 |
| 5187 | 15 Apr 11:12:50 | 10 | 10.4 mph | 12 | SE (138°) | 99878 | 102032 | 24.9°C | 87.1% | 22.6°C | 1532ft (467m) | 14.23v | 14 |
| 5186 | 15 Apr 11:12:39 | 9 | 9.9 mph | 12 | SE (143°) | 99869 | 102023 | 24.9°C | 87.1% | 22.6°C | 1532ft (467m) | 14.18v | 16 |
| 5185 | 15 Apr 11:12:28 | 5 | 7.2 mph | 9 | SE (129°) | 99880 | 102034 | 24.9°C | 87.2% | 22.6°C | 1524ft (465m) | 14.16v | 14 |
| 5184 | 15 Apr 11:12:17 | 9 | 10.3 mph | 12 | SE (142°) | 99878 | 102032 | 24.9°C | 87.2% | 22.6°C | 1524ft (465m) | 14.2v | 16 |
| 5183 | 15 Apr 11:12:06 | 10 | 11.1 mph | 12 | SSE (155°) | 99882 | 102036 | 24.9°C | 87.2% | 22.6°C | 1524ft (465m) | 14.2v | 15 |
| 5182 | 15 Apr 11:11:54 | 6 | 8 mph | 10 | S (172°) | 99882 | 102036 | 24.9°C | 87.2% | 22.6°C | 1524ft (465m) | 14.17v | 16 |
| 5181 | 15 Apr 11:11:43 | 8 | 8.8 mph | 10 | S (169°) | 99882 | 102036 | 24.9°C | 87.3% | 22.6°C | 1516ft (462m) | 14.23v | 14 |
| 5180 | 15 Apr 11:11:32 | 5 | 6.4 mph | 8 | SSE (148°) | 99880 | 102034 | 24.9°C | 87.3% | 22.6°C | 1516ft (462m) | 14.22v | 15 |
| 5179 | 15 Apr 11:11:21 | 8 | 10.1 mph | 12 | SSE (160°) | 99876 | 102030 | 24.9°C | 87.3% | 22.6°C | 1516ft (462m) | 14.06v | 16 |
| 5178 | 15 Apr 11:11:09 | 8 | 8.4 mph | 10 | SSE (165°) | 99880 | 102034 | 24.9°C | 87.3% | 22.6°C | 1516ft (462m) | 13.9v | 16 |
| 5177 | 15 Apr 11:10:58 | 11 | 12.6 mph | 15 | SE (141°) | 99884 | 102039 | 24.9°C | 87.4% | 22.7°C | 1508ft (460m) | 13.74v | 15 |
| 5176 | 15 Apr 11:10:47 | 10 | 10.7 mph | 14 | S (178°) | 99882 | 102036 | 24.9°C | 87.4% | 22.7°C | 1508ft (460m) | 13.63v | 14 |
| 5175 | 15 Apr 11:10:36 | 8 | 9.7 mph | 13 | SSE (166°) | 99880 | 102034 | 24.9°C | 87.5% | 22.7°C | 1501ft (458m) | 13.54v | 14 |
| 5174 | 15 Apr 11:10:24 | 8 | 9.7 mph | 11 | SE (145°) | 99879 | 102033 | 24.9°C | 87.6% | 22.7°C | 1493ft (455m) | 13.63v | 16 |
| 5173 | 15 Apr 11:10:13 | 8 | 7.9 mph | 10 | SSE (167°) | 99882 | 102036 | 24.9°C | 87.6% | 22.7°C | 1493ft (455m) | 13.91v | 15 |
| 5172 | 15 Apr 11:10:02 | 5 | 6.2 mph | 9 | SSE (158°) | 99877 | 102031 | 24.9°C | 87.6% | 22.7°C | 1493ft (455m) | 14.01v | 14 |
| 5171 | 15 Apr 11:09:50 | 6 | 7.8 mph | 10 | SSE (160°) | 99876 | 102030 | 24.9°C | 87.7% | 22.7°C | 1485ft (453m) | 14.13v | 15 |
| 5170 | 15 Apr 11:09:39 | 5 | 6 mph | 7 | SSE (162°) | 99879 | 102033 | 24.9°C | 87.7% | 22.7°C | 1485ft (453m) | 14.2v | 14 |
| 5169 | 15 Apr 11:09:28 | 5 | 6.6 mph | 8 | S (179°) | 99880 | 102034 | 24.9°C | 87.8% | 22.7°C | 1478ft (450m) | 14.19v | 14 |
| 5168 | 15 Apr 11:09:17 | 6 | 7.1 mph | 9 | SSE (165°) | 99877 | 102031 | 24.9°C | 87.8% | 22.7°C | 1478ft (450m) | 14.19v | 14 |
| 5167 | 15 Apr 11:09:06 | 4 | 5.1 mph | 7 | SSE (166°) | 99878 | 102032 | 24.9°C | 87.7% | 22.7°C | 1485ft (453m) | 14.21v | 14 |
| 5166 | 15 Apr 11:08:54 | 7 | 7.2 mph | 8 | SSE (166°) | 99879 | 102033 | 24.9°C | 87.7% | 22.7°C | 1485ft (453m) | 14.18v | 14 |
| 5165 | 15 Apr 11:08:43 | 5 | 6.7 mph | 8 | S (177°) | 99880 | 102034 | 24.9°C | 87.6% | 22.7°C | 1493ft (455m) | 14.23v | 17 |
| 5164 | 15 Apr 11:08:32 | 4 | 5.6 mph | 8 | SSE (152°) | 99875 | 102029 | 24.9°C | 87.7% | 22.7°C | 1485ft (453m) | 14.16v | 14 |
| 5163 | 15 Apr 11:08:21 | 8 | 9.5 mph | 12 | S (173°) | 99878 | 102032 | 24.9°C | 87.7% | 22.7°C | 1485ft (453m) | 14.22v | 16 |
| 5162 | 15 Apr 11:08:09 | 8 | 8.5 mph | 9 | S (172°) | 99871 | 102025 | 24.9°C | 87.6% | 22.7°C | 1493ft (455m) | 14.2v | 16 |
| 5161 | 15 Apr 11:07:58 | 6 | 8.3 mph | 11 | S (175°) | 99877 | 102031 | 24.9°C | 87.6% | 22.7°C | 1493ft (455m) | 14.19v | 14 |
| 5160 | 15 Apr 11:07:47 | 9 | 9.5 mph | 11 | S (183°) | 99871 | 102025 | 24.9°C | 87.4% | 22.7°C | 1508ft (460m) | 14.19v | 14 |
| 5159 | 15 Apr 11:07:36 | 8 | 9.5 mph | 10 | S (178°) | 99876 | 102030 | 24.9°C | 87.7% | 22.7°C | 1485ft (453m) | 14.22v | 15 |
| 5158 | 15 Apr 11:07:24 | 7 | 8.1 mph | 10 | S (171°) | 99867 | 102021 | 24.9°C | 87.6% | 22.7°C | 1493ft (455m) | 14.23v | 14 |
| 5157 | 15 Apr 11:07:13 | 8 | 8.8 mph | 10 | S (174°) | 99875 | 102029 | 24.9°C | 87.6% | 22.7°C | 1493ft (455m) | 14.18v | 16 |
| 5156 | 15 Apr 11:07:02 | 7 | 8.8 mph | 11 | S (175°) | 99875 | 102029 | 24.9°C | 87.6% | 22.7°C | 1493ft (455m) | 14.19v | 15 |
| 5155 | 15 Apr 11:06:51 | 7 | 8.6 mph | 11 | S (186°) | 99871 | 102025 | 24.9°C | 87.6% | 22.7°C | 1493ft (455m) | 14.15v | 16 |
| 5154 | 15 Apr 11:06:39 | 9 | 11.5 mph | 15 | S (176°) | 99867 | 102021 | 24.9°C | 87.5% | 22.7°C | 1501ft (458m) | 14.21v | 15 |
| 5153 | 15 Apr 11:06:28 | 9 | 9.7 mph | 11 | SSW (196°) | 99871 | 102025 | 24.9°C | 87.5% | 22.7°C | 1501ft (458m) | 14.16v | 16 |
| 5152 | 15 Apr 11:06:18 | 9 | 10 mph | 11 | SSW (192°) | 99874 | 102028 | 24.9°C | 87.6% | 22.7°C | 1493ft (455m) | 14.24v | 15 |
| 5151 | 15 Apr 11:06:06 | 7 | 8.7 mph | 11 | S (180°) | 99869 | 102023 | 24.9°C | 87.6% | 22.7°C | 1493ft (455m) | 14.21v | 14 |
| 5150 | 15 Apr 11:05:55 | 8 | 10.1 mph | 13 | S (174°) | 99870 | 102024 | 24.9°C | 87.6% | 22.7°C | 1493ft (455m) | 14.21v | 14 |
| 5149 | 15 Apr 11:05:44 | 13 | 13.5 mph | 16 | SSE (167°) | 99866 | 102020 | 24.9°C | 87.6% | 22.7°C | 1493ft (455m) | 14.24v | 13 |
| 5148 | 15 Apr 11:05:33 | 7 | 10.1 mph | 14 | S (171°) | 99874 | 102028 | 24.9°C | 87.6% | 22.7°C | 1493ft (455m) | 14.18v | 13 |
| 5147 | 15 Apr 11:05:21 | 8 | 9.5 mph | 13 | S (171°) | 99878 | 102032 | 24.9°C | 87.5% | 22.7°C | 1501ft (458m) | 14.25v | 16 |
| 5146 | 15 Apr 11:05:10 | 8 | 9.5 mph | 11 | SSW (195°) | 99877 | 102031 | 24.9°C | 87.5% | 22.7°C | 1501ft (458m) | 14.19v | 16 |
| 5145 | 15 Apr 11:04:59 | 8 | 10.4 mph | 14 | S (182°) | 99877 | 102031 | 24.9°C | 87.6% | 22.7°C | 1493ft (455m) | 14.19v | 12 |
| 5144 | 15 Apr 11:04:48 | 10 | 10.5 mph | 12 | S (180°) | 99870 | 102024 | 24.9°C | 87.6% | 22.7°C | 1493ft (455m) | 14.21v | 16 |
| 5143 | 15 Apr 11:04:36 | 10 | 10.8 mph | 13 | S (178°) | 99874 | 102028 | 24.9°C | 87.4% | 22.7°C | 1508ft (460m) | 14.18v | 16 |
| 5142 | 15 Apr 11:04:25 | 10 | 12.3 mph | 15 | S (182°) | 99875 | 102029 | 24.9°C | 87.6% | 22.7°C | 1493ft (455m) | 14.21v | 14 |
| 5141 | 15 Apr 11:04:14 | 11 | 11.3 mph | 12 | SSE (165°) | 99874 | 102028 | 24.9°C | 87.7% | 22.7°C | 1485ft (453m) | 14.22v | 14 |
| 5140 | 15 Apr 11:04:03 | 11 | 12.3 mph | 16 | SSE (160°) | 99874 | 102028 | 24.9°C | 87.8% | 22.7°C | 1478ft (450m) | 14.22v | 13 |
| 5139 | 15 Apr 11:03:51 | 12 | 14.5 mph | 17 | S (174°) | 99870 | 102024 | 24.9°C | 87.7% | 22.7°C | 1485ft (453m) | 14.19v | 16 |
| 5138 | 15 Apr 11:03:40 | 9 | 10.2 mph | 12 | S (178°) | 99878 | 102032 | 24.9°C | 87.8% | 22.7°C | 1478ft (450m) | 14.23v | 16 |
| 5137 | 15 Apr 11:03:29 | 10 | 10.6 mph | 13 | SSW (196°) | 99876 | 102030 | 24.9°C | 87.5% | 22.7°C | 1501ft (458m) | 14.19v | 15 |
| 5136 | 15 Apr 11:03:17 | 13 | 14.7 mph | 16 | S (178°) | 99868 | 102022 | 24.9°C | 87.6% | 22.7°C | 1493ft (455m) | 14.22v | 15 |
| 5135 | 15 Apr 11:03:05 | 15 | 15.2 mph | 17 | SSW (196°) | 99877 | 102031 | 24.9°C | 87.4% | 22.7°C | 1508ft (460m) | 14.16v | 16 |
| 5134 | 15 Apr 11:02:54 | 6 | 8 mph | 10 | SSW (201°) | 99866 | 102020 | 24.9°C | 87.7% | 22.7°C | 1485ft (453m) | 14.22v | 16 |
| 5133 | 15 Apr 11:02:43 | 11 | 12.1 mph | 17 | S (185°) | 99872 | 102026 | 24.9°C | 87.7% | 22.7°C | 1485ft (453m) | 14.19v | 15 |
| 5132 | 15 Apr 11:02:32 | 13 | 15.4 mph | 19 | S (179°) | 99866 | 102020 | 24.9°C | 87.5% | 22.7°C | 1501ft (458m) | 14.24v | 16 |
| 5131 | 15 Apr 11:02:20 | 13 | 13.9 mph | 16 | S (179°) | 99867 | 102021 | 24.9°C | 87.8% | 22.7°C | 1478ft (450m) | 14.19v | 14 |
| 5130 | 15 Apr 11:02:09 | 10 | 13.4 mph | 15 | SSE (167°) | 99860 | 102014 | 24.9°C | 87.9% | 22.8°C | 1470ft (448m) | 14.2v | 16 |
| 5129 | 15 Apr 11:01:58 | 8 | 9.5 mph | 12 | SSW (192°) | 99871 | 102025 | 24.9°C | 87.8% | 22.7°C | 1478ft (450m) | 14.22v | 17 |
| 5128 | 15 Apr 11:01:47 | 11 | 14.8 mph | 17 | S (171°) | 99873 | 102027 | 24.9°C | 87.8% | 22.7°C | 1478ft (450m) | 14.19v | 14 |
| 5127 | 15 Apr 11:01:35 | 9 | 10.8 mph | 13 | S (189°) | 99875 | 102029 | 24.9°C | 88% | 22.8°C | 1462ft (446m) | 14.14v | 15 |
| 5126 | 15 Apr 11:01:24 | 9 | 11 mph | 14 | S (179°) | 99879 | 102033 | 24.9°C | 88.1% | 22.8°C | 1454ft (443m) | 14.19v | 16 |
| 5125 | 15 Apr 11:01:13 | 10 | 10.5 mph | 13 | S (185°) | 99873 | 102027 | 24.9°C | 87.9% | 22.8°C | 1470ft (448m) | 14.18v | 14 |
| 5124 | 15 Apr 11:01:02 | 8 | 10.1 mph | 12 | S (181°) | 99880 | 102034 | 24.9°C | 88.2% | 22.8°C | 1447ft (441m) | 14.18v | 16 |
| 5123 | 15 Apr 11:00:50 | 13 | 14.6 mph | 17 | S (175°) | 99875 | 102029 | 24.9°C | 88.1% | 22.8°C | 1454ft (443m) | 14.22v | 15 |
| 5122 | 15 Apr 11:00:39 | 9 | 11.5 mph | 14 | S (175°) | 99862 | 102016 | 24.9°C | 88.3% | 22.8°C | 1439ft (439m) | 14.22v | 14 |
| 5121 | 15 Apr 11:00:28 | 12 | 13.5 mph | 15 | SSE (164°) | 99877 | 102031 | 24.9°C | 88.3% | 22.8°C | 1439ft (439m) | 14.2v | 16 |
| 5120 | 15 Apr 11:00:17 | 10 | 11.1 mph | 14 | S (186°) | 99873 | 102027 | 24.9°C | 88% | 22.8°C | 1462ft (446m) | 14.19v | 16 |
| 5119 | 15 Apr 11:00:05 | 11 | 12 mph | 14 | S (169°) | 99872 | 102026 | 24.9°C | 88.4% | 22.8°C | 1431ft (436m) | 14.17v | 15 |
| 5118 | 15 Apr 10:59:54 | 11 | 12.3 mph | 16 | S (179°) | 99879 | 102033 | 24.9°C | 88.2% | 22.8°C | 1447ft (441m) | 14.23v | 13 |
| 5117 | 15 Apr 10:59:43 | 11 | 12.2 mph | 15 | S (186°) | 99871 | 102025 | 24.9°C | 88.3% | 22.8°C | 1439ft (439m) | 14.22v | 15 |
| 5116 | 15 Apr 10:59:32 | 12 | 12.6 mph | 14 | S (177°) | 99871 | 102025 | 24.9°C | 88.4% | 22.8°C | 1431ft (436m) | 14.22v | 14 |
| 5115 | 15 Apr 10:59:20 | 14 | 15.9 mph | 18 | S (184°) | 99877 | 102031 | 24.9°C | 88.3% | 22.8°C | 1439ft (439m) | 14.23v | 14 |
| 5114 | 15 Apr 10:59:09 | 10 | 12.9 mph | 16 | SSW (206°) | 99877 | 102031 | 24.9°C | 88.2% | 22.8°C | 1447ft (441m) | 14.19v | 14 |
| 5113 | 15 Apr 10:58:58 | 13 | 14.3 mph | 16 | SSW (197°) | 99857 | 102011 | 24.9°C | 88.2% | 22.8°C | 1447ft (441m) | 14.21v | 14 |
| 5112 | 15 Apr 10:58:47 | 12 | 12.7 mph | 15 | SSW (195°) | 99877 | 102031 | 24.9°C | 88.2% | 22.8°C | 1447ft (441m) | 14.23v | 13 |
| 5111 | 15 Apr 10:58:35 | 15 | 15.5 mph | 17 | S (185°) | 99878 | 102032 | 24.9°C | 88% | 22.8°C | 1462ft (446m) | 14.2v | 13 |
| 5110 | 15 Apr 10:58:24 | 11 | 13.7 mph | 16 | SSW (201°) | 99868 | 102022 | 24.9°C | 87.9% | 22.8°C | 1470ft (448m) | 14.17v | 13 |
| 5109 | 15 Apr 10:58:13 | 13 | 13.8 mph | 15 | SSW (197°) | 99875 | 102029 | 24.9°C | 87.7% | 22.7°C | 1485ft (453m) | 14.18v | 13 |
| 5108 | 15 Apr 10:58:02 | 10 | 12 mph | 14 | SSW (192°) | 99876 | 102030 | 24.9°C | 87.9% | 22.8°C | 1470ft (448m) | 14.01v | 15 |
| 5107 | 15 Apr 10:57:50 | 14 | 14.9 mph | 17 | SSW (194°) | 99872 | 102026 | 24.9°C | 87.6% | 22.7°C | 1493ft (455m) | 13.83v | 15 |
| 5106 | 15 Apr 10:57:39 | 12 | 15.1 mph | 19 | SSW (198°) | 99875 | 102029 | 24.9°C | 87.6% | 22.7°C | 1493ft (455m) | 13.53v | 13 |
| 5105 | 15 Apr 10:57:28 | 13 | 13.1 mph | 14 | SSW (200°) | 99873 | 102027 | 24.9°C | 87.5% | 22.7°C | 1501ft (458m) | 13.46v | 15 |
| 5104 | 15 Apr 10:57:17 | 12 | 13.9 mph | 16 | SSW (193°) | 99870 | 102024 | 24.9°C | 87.5% | 22.7°C | 1501ft (458m) | 13.46v | 16 |
| 5103 | 15 Apr 10:57:05 | 12 | 12.4 mph | 14 | SSW (198°) | 99870 | 102024 | 24.9°C | 87.4% | 22.7°C | 1508ft (460m) | 13.46v | 15 |
| 5102 | 15 Apr 10:56:54 | 9 | 9.3 mph | 11 | SSW (195°) | 99880 | 102034 | 24.9°C | 87.8% | 22.7°C | 1478ft (450m) | 13.64v | 14 |
| 5101 | 15 Apr 10:56:43 | 9 | 10.5 mph | 12 | S (191°) | 99873 | 102027 | 24.9°C | 87.8% | 22.7°C | 1478ft (450m) | 13.96v | 14 |
| 5100 | 15 Apr 10:56:32 | 11 | 12.8 mph | 15 | S (185°) | 99875 | 102029 | 24.9°C | 87.8% | 22.7°C | 1478ft (450m) | 14.12v | 15 |
| 5099 | 15 Apr 10:56:20 | 10 | 12.2 mph | 15 | S (172°) | 99873 | 102027 | 24.9°C | 87.9% | 22.8°C | 1470ft (448m) | 14.11v | 15 |
| 5098 | 15 Apr 10:56:09 | 12 | 13.2 mph | 15 | SSW (200°) | 99881 | 102035 | 24.9°C | 87.5% | 22.7°C | 1501ft (458m) | 14.01v | 16 |
| 5097 | 15 Apr 10:55:58 | 7 | 10.1 mph | 14 | S (183°) | 99876 | 102030 | 24.9°C | 87.6% | 22.7°C | 1493ft (455m) | 13.94v | 14 |
| 5096 | 15 Apr 10:55:47 | 9 | 9.4 mph | 11 | S (182°) | 99885 | 102040 | 24.9°C | 87.6% | 22.7°C | 1493ft (455m) | 13.81v | 14 |
| 5095 | 15 Apr 10:55:35 | 11 | 12.1 mph | 13 | SSW (206°) | 99882 | 102036 | 24.9°C | 87.3% | 22.6°C | 1516ft (462m) | 13.65v | 17 |
| 5094 | 15 Apr 10:55:24 | 10 | 11 mph | 14 | S (185°) | 99886 | 102041 | 24.9°C | 87.5% | 22.7°C | 1501ft (458m) | 13.49v | 13 |
| 5093 | 15 Apr 10:55:13 | 9 | 10.7 mph | 13 | S (187°) | 99882 | 102036 | 25°C | 87.2% | 22.7°C | 1525ft (465m) | 13.43v | 14 |
| 5092 | 15 Apr 10:55:02 | 9 | 11.6 mph | 15 | SSW (196°) | 99880 | 102034 | 25°C | 87.3% | 22.7°C | 1517ft (462m) | 13.38v | 13 |
| 5091 | 15 Apr 10:54:50 | 8 | 11.6 mph | 14 | SSW (193°) | 99885 | 102040 | 25°C | 87.4% | 22.8°C | 1509ft (460m) | 13.39v | 15 |
| 5090 | 15 Apr 10:54:39 | 10 | 11.7 mph | 14 | SSW (193°) | 99882 | 102036 | 25°C | 87% | 22.7°C | 1540ft (469m) | 13.4v | 16 |
| 5089 | 15 Apr 10:54:28 | 12 | 12.9 mph | 14 | SSW (193°) | 99879 | 102033 | 25°C | 87.1% | 22.7°C | 1532ft (467m) | 13.4v | 16 |
| 5088 | 15 Apr 10:54:17 | 12 | 13.2 mph | 15 | S (188°) | 99883 | 102037 | 25°C | 87.3% | 22.7°C | 1517ft (462m) | 13.39v | 14 |
| 5087 | 15 Apr 10:54:05 | 12 | 12.9 mph | 15 | SSW (196°) | 99879 | 102033 | 25°C | 87% | 22.7°C | 1540ft (469m) | 13.36v | 14 |
| 5086 | 15 Apr 10:53:54 | 12 | 13.1 mph | 14 | S (189°) | 99885 | 102040 | 25°C | 87.1% | 22.7°C | 1532ft (467m) | 13.33v | 15 |
| 5085 | 15 Apr 10:53:43 | 7 | 10.1 mph | 13 | S (190°) | 99882 | 102036 | 25°C | 86.9% | 22.7°C | 1548ft (472m) | 13.34v | 16 |
| 5084 | 15 Apr 10:53:32 | 5 | 6 mph | 8 | S (181°) | 99884 | 102039 | 25°C | 86.9% | 22.7°C | 1548ft (472m) | 13.37v | 14 |
| 5083 | 15 Apr 10:53:20 | 8 | 9.1 mph | 10 | SSW (197°) | 99882 | 102036 | 25°C | 86.7% | 22.6°C | 1563ft (476m) | 13.39v | 15 |
| 5082 | 15 Apr 10:53:09 | 9 | 10.3 mph | 14 | S (178°) | 99880 | 102034 | 25°C | 86.6% | 22.6°C | 1571ft (479m) | 13.42v | 15 |
| 5081 | 15 Apr 10:52:58 | 12 | 13.6 mph | 15 | S (187°) | 99873 | 102027 | 25°C | 86.8% | 22.6°C | 1556ft (474m) | 13.47v | 16 |
| 5080 | 15 Apr 10:52:47 | 12 | 14.7 mph | 17 | S (182°) | 99868 | 102022 | 25°C | 86.6% | 22.6°C | 1571ft (479m) | 13.58v | 14 |
| 5079 | 15 Apr 10:52:35 | 11 | 13.2 mph | 16 | S (191°) | 99873 | 102027 | 25°C | 86.6% | 22.6°C | 1571ft (479m) | 13.57v | 16 |
| 5078 | 15 Apr 10:52:24 | 8 | 9.4 mph | 12 | SSW (197°) | 99883 | 102037 | 25°C | 86.6% | 22.6°C | 1571ft (479m) | 13.5v | 17 |
| 5077 | 15 Apr 10:52:13 | 7 | 8.3 mph | 10 | S (188°) | 99880 | 102034 | 25°C | 86.6% | 22.6°C | 1571ft (479m) | 13.46v | 16 |
| 5076 | 15 Apr 10:52:02 | 8 | 9.4 mph | 11 | SSW (197°) | 99890 | 102045 | 25°C | 86.8% | 22.6°C | 1556ft (474m) | 13.45v | 16 |
| 5075 | 15 Apr 10:51:50 | 7 | 9 mph | 11 | S (185°) | 99883 | 102037 | 25°C | 86.7% | 22.6°C | 1563ft (476m) | 13.48v | 16 |
| 5074 | 15 Apr 10:51:39 | 6 | 6.3 mph | 8 | S (184°) | 99886 | 102041 | 25°C | 86.7% | 22.6°C | 1563ft (476m) | 13.87v | 16 |
| 5073 | 15 Apr 10:51:28 | 6 | 6.8 mph | 9 | S (178°) | 99887 | 102042 | 25.1°C | 86.7% | 22.7°C | 1564ft (477m) | 14.09v | 16 |
| 5072 | 15 Apr 10:51:18 | 6 | 6.9 mph | 8 | SSW (199°) | 99889 | 102044 | 25.1°C | 86.5% | 22.7°C | 1580ft (482m) | 14.16v | 16 |
| 5071 | 15 Apr 10:51:06 | 9 | 9.2 mph | 10 | S (189°) | 99886 | 102041 | 25.1°C | 86.6% | 22.7°C | 1572ft (479m) | 14.2v | 17 |
| 5070 | 15 Apr 10:50:55 | 7 | 7.9 mph | 10 | S (181°) | 99885 | 102040 | 25.1°C | 86.6% | 22.7°C | 1572ft (479m) | 14.19v | 13 |
| 5069 | 15 Apr 10:50:44 | 7 | 7.9 mph | 10 | S (179°) | 99882 | 102036 | 25°C | 86.6% | 22.6°C | 1571ft (479m) | 14.19v | 13 |
| 5068 | 15 Apr 10:50:33 | 7 | 9.1 mph | 11 | SSW (198°) | 99885 | 102040 | 25°C | 86.6% | 22.6°C | 1571ft (479m) | 14.22v | 16 |
| 5067 | 15 Apr 10:50:21 | 7 | 8 mph | 10 | S (173°) | 99889 | 102044 | 25°C | 86.6% | 22.6°C | 1571ft (479m) | 14.19v | 16 |
| 5066 | 15 Apr 10:50:10 | 9 | 9.3 mph | 10 | S (175°) | 99881 | 102035 | 25°C | 86.7% | 22.6°C | 1563ft (476m) | 14.17v | 16 |
| 5065 | 15 Apr 10:49:59 | 6 | 7 mph | 9 | SSW (196°) | 99886 | 102041 | 25°C | 86.4% | 22.6°C | 1587ft (484m) | 14.18v | 16 |
| 5064 | 15 Apr 10:49:48 | 8 | 8.9 mph | 11 | S (175°) | 99890 | 102045 | 25°C | 86.4% | 22.6°C | 1587ft (484m) | 14.18v | 16 |
| 5063 | 15 Apr 10:49:36 | 8 | 8.9 mph | 12 | S (177°) | 99882 | 102036 | 25°C | 86.5% | 22.6°C | 1579ft (481m) | 14.23v | 15 |
| 5062 | 15 Apr 10:49:25 | 12 | 13 mph | 16 | S (186°) | 99889 | 102044 | 25°C | 86.3% | 22.5°C | 1595ft (486m) | 14.2v | 16 |
| 5061 | 15 Apr 10:49:14 | 8 | 10.2 mph | 12 | S (184°) | 99887 | 102042 | 25°C | 86.3% | 22.5°C | 1595ft (486m) | 14.18v | 15 |
| 5060 | 15 Apr 10:49:03 | 13 | 13.3 mph | 14 | SSW (196°) | 99876 | 102030 | 25°C | 86.2% | 22.5°C | 1603ft (489m) | 14.19v | 16 |
| 5059 | 15 Apr 10:48:51 | 9 | 13.1 mph | 15 | SSW (199°) | 99885 | 102040 | 25.1°C | 86.3% | 22.6°C | 1595ft (486m) | 14.22v | 16 |
| 5058 | 15 Apr 10:48:40 | 8 | 8.9 mph | 10 | S (174°) | 99887 | 102042 | 25.1°C | 86.5% | 22.7°C | 1580ft (482m) | 14.18v | 14 |
| 5057 | 15 Apr 10:48:29 | 8 | 8.7 mph | 9 | S (185°) | 99891 | 102046 | 25.1°C | 86.4% | 22.7°C | 1588ft (484m) | 14.19v | 16 |
| 5056 | 15 Apr 10:48:17 | 8 | 8.5 mph | 10 | SSW (196°) | 99892 | 102047 | 25.1°C | 86.3% | 22.6°C | 1595ft (486m) | 14.23v | 17 |
| 5055 | 15 Apr 10:48:05 | 9 | 9.6 mph | 11 | S (180°) | 99890 | 102045 | 25.1°C | 86.4% | 22.7°C | 1588ft (484m) | 14.17v | 14 |
| 5054 | 15 Apr 10:47:54 | 6 | 8.3 mph | 10 | S (188°) | 99892 | 102047 | 25.1°C | 86.3% | 22.6°C | 1595ft (486m) | 13.98v | 15 |
| 5053 | 15 Apr 10:47:43 | 7 | 7.8 mph | 9 | SSW (192°) | 99890 | 102045 | 25.1°C | 86% | 22.6°C | 1619ft (493m) | 13.91v | 15 |
| 5052 | 15 Apr 10:47:32 | 6 | 7.5 mph | 9 | S (179°) | 99890 | 102045 | 25.1°C | 86.2% | 22.6°C | 1603ft (489m) | 13.78v | 17 |
| 5051 | 15 Apr 10:47:20 | 8 | 10.6 mph | 13 | S (183°) | 99892 | 102047 | 25.1°C | 86% | 22.6°C | 1619ft (493m) | 13.67v | 15 |
| 5050 | 15 Apr 10:47:09 | 6 | 8.3 mph | 11 | S (191°) | 99886 | 102041 | 25.1°C | 86% | 22.6°C | 1619ft (493m) | 13.59v | 14 |
| 5049 | 15 Apr 10:46:58 | 7 | 8.2 mph | 9 | S (177°) | 99893 | 102048 | 25.1°C | 86.3% | 22.6°C | 1595ft (486m) | 13.48v | 17 |
| 5048 | 15 Apr 10:46:47 | 7 | 8.6 mph | 10 | S (187°) | 99886 | 102041 | 25.1°C | 86.2% | 22.6°C | 1603ft (489m) | 13.65v | 14 |
| 5047 | 15 Apr 10:46:35 | 6 | 6.5 mph | 7 | S (180°) | 99895 | 102050 | 25.1°C | 86.2% | 22.6°C | 1603ft (489m) | 13.65v | 14 |
| 5046 | 15 Apr 10:46:24 | 3 | 4.2 mph | 6 | S (174°) | 99894 | 102049 | 25.1°C | 86.2% | 22.6°C | 1603ft (489m) | 13.54v | 13 |
| 5045 | 15 Apr 10:46:13 | 3 | 3.5 mph | 5 | SSE (165°) | 99898 | 102053 | 25.1°C | 86.1% | 22.6°C | 1611ft (491m) | 13.48v | 17 |
| 5044 | 15 Apr 10:46:02 | 4 | 5.9 mph | 12 | SE (140°) | 99896 | 102051 | 25.1°C | 85.9% | 22.6°C | 1627ft (496m) | 13.63v | 14 |
| 5043 | 15 Apr 10:45:50 | 10 | 10.4 mph | 12 | SSW (212°) | 99887 | 102042 | 25.1°C | 85.8% | 22.6°C | 1635ft (498m) | 13.92v | 16 |
| 5042 | 15 Apr 10:45:39 | 6 | 7.7 mph | 10 | SSW (193°) | 99885 | 102040 | 25.1°C | 85.8% | 22.6°C | 1635ft (498m) | 14.05v | 13 |
| 5041 | 15 Apr 10:45:28 | 9 | 11 mph | 12 | SSW (210°) | 99885 | 102040 | 25.1°C | 85.6% | 22.5°C | 1651ft (503m) | 14.14v | 16 |
| 5040 | 15 Apr 10:45:18 | 6 | 6.6 mph | 8 | SSW (199°) | 99890 | 102045 | 25.2°C | 85.7% | 22.6°C | 1643ft (501m) | 14.16v | 16 |
| 5039 | 15 Apr 10:45:06 | 5 | 6.6 mph | 8 | SSW (208°) | 99890 | 102045 | 25.2°C | 85.6% | 22.6°C | 1651ft (503m) | 14.2v | 15 |
| 5038 | 15 Apr 10:44:55 | 8 | 9 mph | 11 | SSW (208°) | 99884 | 102039 | 25.2°C | 85.4% | 22.6°C | 1667ft (508m) | 14.17v | 15 |
| 5037 | 15 Apr 10:44:44 | 9 | 9.7 mph | 11 | SSW (200°) | 99892 | 102047 | 25.2°C | 85.3% | 22.6°C | 1675ft (511m) | 14.19v | 16 |
| 5036 | 15 Apr 10:44:33 | 11 | 11.8 mph | 13 | SSW (201°) | 99888 | 102043 | 25.2°C | 85.1% | 22.5°C | 1691ft (515m) | 14.23v | 16 |
| 5035 | 15 Apr 10:44:21 | 13 | 13.3 mph | 15 | SSW (200°) | 99885 | 102040 | 25.2°C | 84.9% | 22.5°C | 1707ft (520m) | 14.22v | 13 |
| 5034 | 15 Apr 10:44:10 | 9 | 12.8 mph | 16 | S (187°) | 99884 | 102039 | 25.2°C | 85% | 22.5°C | 1699ft (518m) | 14.23v | 14 |
| 5033 | 15 Apr 10:43:59 | 11 | 12.9 mph | 16 | S (190°) | 99889 | 102044 | 25.2°C | 84.9% | 22.5°C | 1707ft (520m) | 14.18v | 13 |
| 5032 | 15 Apr 10:43:48 | 12 | 13 mph | 14 | S (190°) | 99878 | 102032 | 25.2°C | 84.9% | 22.5°C | 1707ft (520m) | 14.05v | 13 |
| 5031 | 15 Apr 10:43:36 | 7 | 8.1 mph | 9 | S (183°) | 99884 | 102039 | 25.2°C | 85.1% | 22.5°C | 1691ft (515m) | 14.02v | 14 |
| 5030 | 15 Apr 10:43:25 | 8 | 10.5 mph | 13 | S (190°) | 99880 | 102034 | 25.2°C | 84.8% | 22.5°C | 1715ft (523m) | 14.04v | 15 |
| 5029 | 15 Apr 10:43:14 | 10 | 11.9 mph | 15 | SSW (194°) | 99886 | 102041 | 25.3°C | 84.6% | 22.5°C | 1732ft (528m) | 14.11v | 15 |
| 5028 | 15 Apr 10:43:03 | 10 | 10.5 mph | 11 | SSW (194°) | 99892 | 102047 | 25.3°C | 84.7% | 22.5°C | 1724ft (525m) | 14.2v | 17 |
| 5027 | 15 Apr 10:42:51 | 8 | 8.9 mph | 10 | SSW (194°) | 99887 | 102042 | 25.3°C | 85% | 22.6°C | 1700ft (518m) | 14.11v | 15 |
| 5026 | 15 Apr 10:42:40 | 9 | 10.5 mph | 12 | S (189°) | 99891 | 102046 | 25.3°C | 85% | 22.6°C | 1700ft (518m) | 13.95v | 15 |
| 5025 | 15 Apr 10:42:29 | 8 | 9.4 mph | 11 | S (188°) | 99890 | 102045 | 25.3°C | 85% | 22.6°C | 1700ft (518m) | 13.79v | 17 |
| 5024 | 15 Apr 10:42:18 | 6 | 6.7 mph | 8 | SSW (194°) | 99895 | 102050 | 25.3°C | 85% | 22.6°C | 1700ft (518m) | 13.52v | 17 |
| 5023 | 15 Apr 10:42:06 | 4 | 4.9 mph | 6 | S (180°) | 99894 | 102049 | 25.3°C | 85% | 22.6°C | 1700ft (518m) | 13.38v | 17 |
| 5022 | 15 Apr 10:41:55 | 5 | 6.3 mph | 8 | SSE (154°) | 99898 | 102053 | 25.3°C | 84.9% | 22.6°C | 1708ft (521m) | 13.33v | 17 |
| 5021 | 15 Apr 10:41:44 | 5 | 5.3 mph | 6 | S (171°) | 99901 | 102056 | 25.3°C | 85% | 22.6°C | 1700ft (518m) | 13.3v | 16 |
| 5020 | 15 Apr 10:41:33 | 4 | 5.3 mph | 7 | S (176°) | 99897 | 102052 | 25.3°C | 84.9% | 22.6°C | 1708ft (521m) | 13.28v | 16 |
| 5019 | 15 Apr 10:41:21 | 5 | 6.2 mph | 8 | SSE (164°) | 99899 | 102054 | 25.3°C | 84.8% | 22.6°C | 1716ft (523m) | 13.27v | 18 |
| 5018 | 15 Apr 10:41:10 | 6 | 6.2 mph | 8 | S (176°) | 99902 | 102057 | 25.3°C | 84.9% | 22.6°C | 1708ft (521m) | 13.26v | 17 |
| 5017 | 15 Apr 10:40:59 | 5 | 6.1 mph | 7 | SSE (167°) | 99901 | 102056 | 25.3°C | 84.9% | 22.6°C | 1708ft (521m) | 13.25v | 15 |
| 5016 | 15 Apr 10:40:48 | 6 | 6.8 mph | 8 | SSE (164°) | 99897 | 102052 | 25.3°C | 84.9% | 22.6°C | 1708ft (521m) | 13.26v | 16 |
| 5015 | 15 Apr 10:40:36 | 6 | 7.2 mph | 9 | S (174°) | 99897 | 102052 | 25.3°C | 85% | 22.6°C | 1700ft (518m) | 13.26v | 16 |
| 5014 | 15 Apr 10:40:25 | 5 | 6.2 mph | 8 | SSE (164°) | 99897 | 102052 | 25.3°C | 84.9% | 22.6°C | 1708ft (521m) | 13.27v | 17 |
| 5013 | 15 Apr 10:40:14 | 5 | 5.3 mph | 6 | S (169°) | 99897 | 102052 | 25.4°C | 85% | 22.7°C | 1701ft (518m) | 13.27v | 15 |
| 5012 | 15 Apr 10:40:03 | 5 | 6 mph | 7 | S (171°) | 99897 | 102052 | 25.4°C | 85% | 22.7°C | 1701ft (518m) | 13.24v | 13 |
| 5011 | 15 Apr 10:39:51 | 5 | 6.8 mph | 8 | S (174°) | 99896 | 102051 | 25.4°C | 84.9% | 22.7°C | 1708ft (521m) | 13.23v | 18 |
| 5010 | 15 Apr 10:39:40 | 3 | 3.2 mph | 4 | SSW (196°) | 99900 | 102055 | 25.4°C | 85% | 22.7°C | 1701ft (518m) | 13.24v | 16 |
| 5009 | 15 Apr 10:39:29 | 2 | 4.1 mph | 5 | S (182°) | 99897 | 102052 | 25.4°C | 84.9% | 22.7°C | 1708ft (521m) | 13.22v | 18 |
| 5008 | 15 Apr 10:39:18 | 2 | 2.9 mph | 4 | SSE (168°) | 99897 | 102052 | 25.4°C | 84.8% | 22.7°C | 1716ft (523m) | 13.23v | 16 |
| 5007 | 15 Apr 10:39:06 | 4 | 4.8 mph | 6 | S (189°) | 99896 | 102051 | 25.4°C | 84.9% | 22.7°C | 1708ft (521m) | 13.22v | 15 |
| 5006 | 15 Apr 10:38:55 | 6 | 7.6 mph | 8 | S (173°) | 99894 | 102049 | 25.4°C | 84.7% | 22.6°C | 1724ft (525m) | 13.22v | 18 |
| 5005 | 15 Apr 10:38:44 | 5 | 7.3 mph | 9 | S (172°) | 99893 | 102048 | 25.4°C | 84.7% | 22.6°C | 1724ft (525m) | 13.21v | 19 |
| 5004 | 15 Apr 10:38:33 | 6 | 7.5 mph | 9 | S (174°) | 99893 | 102048 | 25.4°C | 84.7% | 22.6°C | 1724ft (525m) | 13.2v | 17 |
| 5003 | 15 Apr 10:38:21 | 8 | 9.2 mph | 12 | S (175°) | 99889 | 102044 | 25.5°C | 84.6% | 22.7°C | 1733ft (528m) | 13.21v | 15 |
| 5002 | 15 Apr 10:38:10 | 6 | 7.4 mph | 9 | SSW (193°) | 99888 | 102043 | 25.4°C | 84.7% | 22.6°C | 1724ft (525m) | 13.22v | 17 |
| 5001 | 15 Apr 10:37:59 | 7 | 7.7 mph | 9 | SSW (201°) | 99883 | 102037 | 25.4°C | 84.7% | 22.6°C | 1724ft (525m) | 13.23v | 20 |
| 5000 | 15 Apr 10:37:48 | 5 | 6 mph | 8 | SSW (194°) | 99882 | 102036 | 25.4°C | 84.7% | 22.6°C | 1724ft (525m) | 13.22v | 18 |
| 4999 | 15 Apr 10:37:36 | 5 | 6 mph | 8 | S (190°) | 99885 | 102040 | 25.5°C | 84.7% | 22.7°C | 1725ft (526m) | 13.21v | 17 |
| 4998 | 15 Apr 10:37:25 | 6 | 7.7 mph | 10 | S (185°) | 99883 | 102037 | 25.5°C | 84.4% | 22.7°C | 1749ft (533m) | 13.22v | 17 |
| 4997 | 15 Apr 10:37:14 | 8 | 9 mph | 10 | SSW (199°) | 99886 | 102041 | 25.5°C | 84.5% | 22.7°C | 1741ft (531m) | 13.21v | 20 |
| 4996 | 15 Apr 10:37:03 | 8 | 9.9 mph | 11 | SSW (205°) | 99886 | 102041 | 25.5°C | 84.3% | 22.7°C | 1757ft (536m) | 13.19v | 18 |
| 4995 | 15 Apr 10:36:51 | 6 | 7.8 mph | 9 | SW (214°) | 99885 | 102040 | 25.5°C | 84.5% | 22.7°C | 1741ft (531m) | 13.18v | 18 |
| 4994 | 15 Apr 10:36:40 | 6 | 8.5 mph | 11 | SSW (197°) | 99882 | 102036 | 25.5°C | 84.1% | 22.6°C | 1773ft (540m) | 13.16v | 20 |
| 4993 | 15 Apr 10:36:29 | 5 | 5.5 mph | 6 | SSW (210°) | 99886 | 102041 | 25.5°C | 84.3% | 22.7°C | 1757ft (536m) | 13.17v | 18 |
| 4992 | 15 Apr 10:36:18 | 6 | 6.5 mph | 7 | SSW (213°) | 99882 | 102036 | 25.5°C | 84.3% | 22.7°C | 1757ft (536m) | 13.18v | 18 |
| 4991 | 15 Apr 10:36:07 | 5 | 6 mph | 7 | SW (217°) | 99882 | 102036 | 25.5°C | 84.2% | 22.6°C | 1765ft (538m) | 13.17v | 18 |
| 4990 | 15 Apr 10:35:55 | 7 | 7.9 mph | 9 | SSW (199°) | 99880 | 102034 | 25.5°C | 84% | 22.6°C | 1781ft (543m) | 13.18v | 19 |
| 4989 | 15 Apr 10:35:44 | 9 | 9.2 mph | 10 | SW (215°) | 99880 | 102034 | 25.5°C | 84% | 22.6°C | 1781ft (543m) | 13.17v | 17 |
| 4988 | 15 Apr 10:35:33 | 8 | 9.3 mph | 11 | SSW (202°) | 99881 | 102035 | 25.5°C | 83.8% | 22.6°C | 1798ft (548m) | 13.16v | 18 |
| 4987 | 15 Apr 10:35:22 | 6 | 7.4 mph | 9 | SSW (207°) | 99883 | 102037 | 25.5°C | 84% | 22.6°C | 1781ft (543m) | 13.17v | 17 |
| 4986 | 15 Apr 10:35:10 | 5 | 6.4 mph | 8 | SSW (212°) | 99885 | 102040 | 25.5°C | 84% | 22.6°C | 1781ft (543m) | 13.17v | 17 |
| 4985 | 15 Apr 10:34:59 | 7 | 7.7 mph | 9 | SSW (200°) | 99886 | 102041 | 25.5°C | 83.9% | 22.6°C | 1789ft (545m) | 13.18v | 17 |
| 4984 | 15 Apr 10:34:48 | 7 | 7.7 mph | 9 | SSW (209°) | 99886 | 102041 | 25.5°C | 83.9% | 22.6°C | 1789ft (545m) | 13.16v | 19 |
| 4983 | 15 Apr 10:34:37 | 6 | 7.2 mph | 9 | SSW (204°) | 99890 | 102045 | 25.5°C | 83.9% | 22.6°C | 1789ft (545m) | 13.17v | 18 |
| 4982 | 15 Apr 10:34:25 | 4 | 4.6 mph | 6 | S (187°) | 99892 | 102047 | 25.5°C | 83.8% | 22.6°C | 1798ft (548m) | 13.17v | 17 |
| 4981 | 15 Apr 10:34:14 | 4 | 4.4 mph | 7 | S (188°) | 99892 | 102047 | 25.5°C | 83.8% | 22.6°C | 1798ft (548m) | 13.16v | 18 |
| 4980 | 15 Apr 10:34:03 | 7 | 9.1 mph | 10 | SSW (192°) | 99892 | 102047 | 25.5°C | 83.9% | 22.6°C | 1789ft (545m) | 13.15v | 18 |
| 4979 | 15 Apr 10:33:51 | 5 | 6.4 mph | 9 | S (185°) | 99887 | 102042 | 25.6°C | 83.8% | 22.7°C | 1798ft (548m) | 13.14v | 18 |
| 4978 | 15 Apr 10:33:40 | 4 | 5.4 mph | 7 | S (190°) | 99893 | 102048 | 25.5°C | 83.9% | 22.6°C | 1789ft (545m) | 13.14v | 18 |
| 4977 | 15 Apr 10:33:29 | 3 | 4 mph | 5 | S (173°) | 99892 | 102047 | 25.5°C | 83.8% | 22.6°C | 1798ft (548m) | 13.15v | 15 |
| 4976 | 15 Apr 10:33:18 | 3 | 3.5 mph | 4 | S (189°) | 99890 | 102045 | 25.5°C | 83.8% | 22.6°C | 1798ft (548m) | 13.14v | 18 |
| 4975 | 15 Apr 10:33:07 | 4 | 4.9 mph | 6 | SSW (195°) | 99889 | 102044 | 25.5°C | 83.8% | 22.6°C | 1798ft (548m) | 13.15v | 19 |
| 4974 | 15 Apr 10:32:55 | 5 | 5.1 mph | 6 | SSW (192°) | 99887 | 102042 | 25.6°C | 83.7% | 22.6°C | 1807ft (551m) | 13.15v | 18 |
| 4973 | 15 Apr 10:32:44 | 4 | 5.2 mph | 6 | SSW (205°) | 99886 | 102041 | 25.6°C | 83.7% | 22.6°C | 1807ft (551m) | 13.15v | 18 |
| 4972 | 15 Apr 10:32:33 | 6 | 6.9 mph | 9 | SSW (197°) | 99883 | 102037 | 25.6°C | 83.6% | 22.6°C | 1815ft (553m) | 13.17v | 16 |
| 4971 | 15 Apr 10:32:21 | 9 | 9.6 mph | 10 | SSW (199°) | 99878 | 102032 | 25.6°C | 83.6% | 22.6°C | 1815ft (553m) | 13.15v | 15 |
| 4970 | 15 Apr 10:32:10 | 6 | 7.5 mph | 9 | SSW (194°) | 99879 | 102033 | 25.6°C | 83.8% | 22.7°C | 1798ft (548m) | 13.18v | 16 |
| 4969 | 15 Apr 10:31:59 | 6 | 7.5 mph | 9 | SSW (211°) | 99882 | 102036 | 25.6°C | 83.8% | 22.7°C | 1798ft (548m) | 13.2v | 19 |
| 4968 | 15 Apr 10:31:48 | 4 | 4.8 mph | 6 | SW (233°) | 99885 | 102040 | 25.6°C | 83.8% | 22.7°C | 1798ft (548m) | 13.22v | 18 |
| 4967 | 15 Apr 10:31:36 | 4 | 5.4 mph | 6 | SSW (204°) | 99885 | 102040 | 25.6°C | 83.8% | 22.7°C | 1798ft (548m) | 13.21v | 18 |
| 4966 | 15 Apr 10:31:25 | 7 | 8.6 mph | 11 | SSW (202°) | 99887 | 102042 | 25.6°C | 83.7% | 22.6°C | 1807ft (551m) | 13.21v | 18 |
| 4965 | 15 Apr 10:31:14 | 6 | 8.5 mph | 10 | SSW (203°) | 99891 | 102046 | 25.6°C | 83.9% | 22.7°C | 1790ft (546m) | 13.22v | 19 |
| 4964 | 15 Apr 10:31:03 | 4 | 4.9 mph | 6 | SSW (208°) | 99887 | 102042 | 25.6°C | 83.9% | 22.7°C | 1790ft (546m) | 13.22v | 17 |
| 4963 | 15 Apr 10:30:51 | 4 | 4.7 mph | 6 | S (180°) | 99889 | 102044 | 25.6°C | 83.8% | 22.7°C | 1798ft (548m) | 13.2v | 18 |
| 4962 | 15 Apr 10:30:40 | 5 | 5.5 mph | 6 | SSW (198°) | 99886 | 102041 | 25.6°C | 83.8% | 22.7°C | 1798ft (548m) | 13.18v | 15 |
| 4961 | 15 Apr 10:30:29 | 7 | 7.4 mph | 8 | SSW (198°) | 99887 | 102042 | 25.7°C | 83.7% | 22.7°C | 1807ft (551m) | 13.19v | 16 |
| 4960 | 15 Apr 10:30:18 | 7 | 8.4 mph | 11 | SSW (206°) | 99890 | 102045 | 25.7°C | 83.7% | 22.7°C | 1807ft (551m) | 13.19v | 16 |
| 4959 | 15 Apr 10:30:06 | 4 | 4.3 mph | 6 | SSW (192°) | 99889 | 102044 | 25.7°C | 83.6% | 22.7°C | 1816ft (554m) | 13.18v | 16 |
| 4958 | 15 Apr 10:29:55 | 5 | 5.4 mph | 6 | S (183°) | 99889 | 102044 | 25.7°C | 83.6% | 22.7°C | 1816ft (554m) | 13.17v | 16 |
| 4957 | 15 Apr 10:29:44 | 6 | 7.2 mph | 8 | S (191°) | 99888 | 102043 | 25.7°C | 83.6% | 22.7°C | 1816ft (554m) | 13.19v | 16 |
| 4956 | 15 Apr 10:29:33 | 4 | 5.2 mph | 7 | SSW (197°) | 99884 | 102039 | 25.7°C | 83.6% | 22.7°C | 1816ft (554m) | 13.18v | 15 |
| 4955 | 15 Apr 10:29:21 | 5 | 5.5 mph | 7 | SSW (205°) | 99883 | 102037 | 25.7°C | 83.5% | 22.7°C | 1824ft (556m) | 13.16v | 15 |
| 4954 | 15 Apr 10:29:10 | 5 | 6.1 mph | 8 | SSW (207°) | 99885 | 102040 | 25.7°C | 83.5% | 22.7°C | 1824ft (556m) | 13.19v | 14 |
| 4953 | 15 Apr 10:28:59 | 4 | 5.3 mph | 7 | S (190°) | 99882 | 102036 | 25.7°C | 83.5% | 22.7°C | 1824ft (556m) | 13.21v | 15 |
| 4952 | 15 Apr 10:28:48 | 5 | 5.4 mph | 7 | SSW (210°) | 99878 | 102032 | 25.7°C | 83.5% | 22.7°C | 1824ft (556m) | 13.2v | 13 |
| 4951 | 15 Apr 10:28:36 | 5 | 5.6 mph | 7 | SSW (200°) | 99879 | 102033 | 25.7°C | 83.4% | 22.7°C | 1832ft (558m) | 13.21v | 14 |
| 4950 | 15 Apr 10:28:25 | 7 | 8.1 mph | 9 | SSW (193°) | 99881 | 102035 | 25.7°C | 83.4% | 22.7°C | 1832ft (558m) | 13.22v | 14 |
| 4949 | 15 Apr 10:28:14 | 6 | 6.5 mph | 8 | SSW (200°) | 99876 | 102030 | 25.7°C | 83.4% | 22.7°C | 1832ft (558m) | 13.23v | 13 |
| 4948 | 15 Apr 10:28:03 | 4 | 5.6 mph | 8 | SSW (202°) | 99877 | 102031 | 25.7°C | 83.4% | 22.7°C | 1832ft (558m) | 13.24v | 13 |
| 4947 | 15 Apr 10:27:51 | 5 | 6.5 mph | 9 | SW (217°) | 99877 | 102031 | 25.8°C | 83.4% | 22.8°C | 1833ft (559m) | 13.26v | 14 |
| 4946 | 15 Apr 10:27:40 | 5 | 5.5 mph | 6 | SSW (195°) | 99874 | 102028 | 25.8°C | 83.4% | 22.8°C | 1833ft (559m) | 13.28v | 13 |
| 4945 | 15 Apr 10:27:29 | 4 | 4.8 mph | 6 | SSW (213°) | 99875 | 102029 | 25.8°C | 83.4% | 22.8°C | 1833ft (559m) | 13.29v | 16 |
| 4944 | 15 Apr 10:27:18 | 5 | 5.9 mph | 7 | SW (216°) | 99872 | 102026 | 25.8°C | 83.3% | 22.7°C | 1841ft (561m) | 13.33v | 15 |
| 4943 | 15 Apr 10:27:06 | 6 | 6.3 mph | 7 | SSW (213°) | 99873 | 102027 | 25.8°C | 83.3% | 22.7°C | 1841ft (561m) | 13.33v | 14 |
| 4942 | 15 Apr 10:26:55 | 5 | 5.7 mph | 7 | SW (232°) | 99874 | 102028 | 25.8°C | 83.2% | 22.7°C | 1849ft (564m) | 13.36v | 16 |
| 4941 | 15 Apr 10:26:44 | 4 | 5 mph | 6 | SSW (210°) | 99875 | 102029 | 25.8°C | 83.2% | 22.7°C | 1849ft (564m) | 13.36v | 14 |
| 4940 | 15 Apr 10:26:33 | 5 | 5.5 mph | 6 | SW (222°) | 99873 | 102027 | 25.8°C | 83.2% | 22.7°C | 1849ft (564m) | 13.38v | 15 |
| 4939 | 15 Apr 10:26:21 | 6 | 6.4 mph | 7 | SW (226°) | 99872 | 102026 | 25.8°C | 83.1% | 22.7°C | 1857ft (566m) | 13.39v | 13 |
| 4938 | 15 Apr 10:26:10 | 5 | 5.9 mph | 7 | SW (226°) | 99878 | 102032 | 25.8°C | 83.1% | 22.7°C | 1857ft (566m) | 13.4v | 13 |
| 4937 | 15 Apr 10:25:59 | 7 | 7.8 mph | 10 | SSW (209°) | 99878 | 102032 | 25.8°C | 83% | 22.7°C | 1865ft (568m) | 13.41v | 14 |
| 4936 | 15 Apr 10:25:48 | 5 | 5.7 mph | 7 | SSW (201°) | 99878 | 102032 | 25.9°C | 83% | 22.8°C | 1866ft (569m) | 13.4v | 15 |
| 4935 | 15 Apr 10:25:36 | 6 | 7.4 mph | 9 | SSW (209°) | 99880 | 102034 | 25.9°C | 83% | 22.8°C | 1866ft (569m) | 13.4v | 14 |
| 4934 | 15 Apr 10:25:25 | 5 | 6.4 mph | 9 | SW (215°) | 99877 | 102031 | 25.9°C | 83% | 22.8°C | 1866ft (569m) | 13.41v | 15 |
| 4933 | 15 Apr 10:25:14 | 5 | 6.7 mph | 8 | SW (215°) | 99875 | 102029 | 25.9°C | 83% | 22.8°C | 1866ft (569m) | 13.41v | 15 |
| 4932 | 15 Apr 10:25:03 | 3 | 4.5 mph | 7 | SSW (204°) | 99874 | 102028 | 25.9°C | 83% | 22.8°C | 1866ft (569m) | 13.45v | 15 |
| 4931 | 15 Apr 10:24:51 | 4 | 4.9 mph | 6 | SW (230°) | 99875 | 102029 | 25.9°C | 83% | 22.8°C | 1866ft (569m) | 13.47v | 15 |
| 4930 | 15 Apr 10:24:40 | 5 | 6.1 mph | 8 | SW (221°) | 99876 | 102030 | 25.9°C | 82.9% | 22.8°C | 1874ft (571m) | 13.47v | 13 |
| 4929 | 15 Apr 10:24:29 | 6 | 5.8 mph | 7 | SW (215°) | 99877 | 102031 | 25.9°C | 82.8% | 22.7°C | 1882ft (574m) | 13.47v | 15 |
| 4928 | 15 Apr 10:24:18 | 8 | 9.1 mph | 10 | SW (222°) | 99873 | 102027 | 25.9°C | 82.9% | 22.8°C | 1874ft (571m) | 13.58v | 15 |
| 4927 | 15 Apr 10:24:06 | 4 | 5.1 mph | 6 | SW (226°) | 99876 | 102030 | 25.9°C | 83% | 22.8°C | 1866ft (569m) | 13.65v | 13 |
| 4926 | 15 Apr 10:23:55 | 3 | 4 mph | 5 | SW (230°) | 99878 | 102032 | 25.9°C | 82.7% | 22.7°C | 1891ft (576m) | 13.61v | 16 |
| 4925 | 15 Apr 10:23:44 | 4 | 6.6 mph | 9 | SSW (211°) | 99877 | 102031 | 25.9°C | 82.7% | 22.7°C | 1891ft (576m) | 13.54v | 13 |
| 4924 | 15 Apr 10:23:33 | 5 | 6.9 mph | 9 | SW (216°) | 99876 | 102030 | 25.9°C | 82.7% | 22.7°C | 1891ft (576m) | 13.55v | 13 |
| 4923 | 15 Apr 10:23:21 | 4 | 5.3 mph | 6 | SW (224°) | 99878 | 102032 | 25.9°C | 82.6% | 22.7°C | 1899ft (579m) | 13.51v | 16 |
| 4922 | 15 Apr 10:23:10 | 6 | 7.5 mph | 9 | SW (219°) | 99875 | 102029 | 26°C | 82.6% | 22.8°C | 1900ft (579m) | 13.49v | 13 |
| 4921 | 15 Apr 10:22:59 | 6 | 7 mph | 8 | SSW (212°) | 99877 | 102031 | 26°C | 82.5% | 22.8°C | 1908ft (582m) | 13.45v | 15 |
| 4920 | 15 Apr 10:22:48 | 7 | 8.3 mph | 9 | SW (229°) | 99882 | 102036 | 26°C | 82.5% | 22.8°C | 1908ft (582m) | 13.43v | 16 |
| 4919 | 15 Apr 10:22:36 | 5 | 6.7 mph | 9 | SW (225°) | 99876 | 102030 | 26°C | 82.5% | 22.8°C | 1908ft (582m) | 13.41v | 15 |
| 4918 | 15 Apr 10:22:25 | 4 | 4.9 mph | 8 | SW (220°) | 99882 | 102036 | 26°C | 82.5% | 22.8°C | 1908ft (582m) | 13.4v | 15 |
| 4917 | 15 Apr 10:22:14 | 3 | 4.6 mph | 6 | SW (227°) | 99880 | 102034 | 26°C | 82.4% | 22.8°C | 1916ft (584m) | 13.4v | 13 |
| 4916 | 15 Apr 10:22:03 | 3 | 3.6 mph | 4 | SW (217°) | 99881 | 102035 | 26°C | 82.3% | 22.7°C | 1924ft (586m) | 13.4v | 14 |
| 4915 | 15 Apr 10:21:51 | 4 | 4.5 mph | 5 | SW (227°) | 99880 | 102034 | 26°C | 82.2% | 22.7°C | 1933ft (589m) | 13.39v | 14 |
| 4914 | 15 Apr 10:21:40 | 5 | 5.6 mph | 6 | SW (223°) | 99883 | 102037 | 26°C | 82.2% | 22.7°C | 1933ft (589m) | 13.37v | 16 |
| 4913 | 15 Apr 10:21:29 | 5 | 6.6 mph | 7 | SW (216°) | 99884 | 102039 | 26°C | 82.1% | 22.7°C | 1941ft (592m) | 13.36v | 14 |
| 4912 | 15 Apr 10:21:18 | 5 | 5.4 mph | 7 | SSW (210°) | 99886 | 102041 | 26°C | 82.1% | 22.7°C | 1941ft (592m) | 13.38v | 15 |
| 4911 | 15 Apr 10:21:07 | 6 | 6 mph | 7 | SSW (213°) | 99884 | 102039 | 26°C | 82% | 22.7°C | 1949ft (594m) | 13.37v | 15 |
| 4910 | 15 Apr 10:20:55 | 6 | 6.5 mph | 9 | S (188°) | 99882 | 102036 | 26.1°C | 81.8% | 22.7°C | 1967ft (600m) | 13.36v | 15 |
| 4909 | 15 Apr 10:20:44 | 6 | 5.8 mph | 7 | SSW (209°) | 99882 | 102036 | 26.1°C | 81.7% | 22.7°C | 1975ft (602m) | 13.35v | 15 |
| 4908 | 15 Apr 10:20:33 | 4 | 4.6 mph | 6 | SW (216°) | 99887 | 102042 | 26.1°C | 81.6% | 22.7°C | 1983ft (604m) | 13.36v | 14 |
| 4907 | 15 Apr 10:20:21 | 8 | 8.4 mph | 9 | SSW (207°) | 99885 | 102040 | 26.1°C | 81.6% | 22.7°C | 1983ft (604m) | 13.35v | 15 |
| 4906 | 15 Apr 10:20:10 | 7 | 6.9 mph | 8 | SSW (211°) | 99888 | 102043 | 26.2°C | 81.6% | 22.8°C | 1984ft (605m) | 13.36v | 16 |
| 4905 | 15 Apr 10:19:59 | 5 | 6.8 mph | 9 | SSW (205°) | 99886 | 102041 | 26.1°C | 81.5% | 22.7°C | 1992ft (607m) | 13.37v | 15 |
| 4904 | 15 Apr 10:19:48 | 7 | 8 mph | 9 | SSW (201°) | 99885 | 102040 | 26.2°C | 81.5% | 22.8°C | 1993ft (607m) | 13.37v | 13 |
| 4903 | 15 Apr 10:19:36 | 5 | 5.5 mph | 7 | SSW (209°) | 99886 | 102041 | 26.1°C | 81.6% | 22.7°C | 1983ft (604m) | 13.39v | 14 |
| 4902 | 15 Apr 10:19:25 | 4 | 4.4 mph | 5 | SW (217°) | 99886 | 102041 | 26.1°C | 81.6% | 22.7°C | 1983ft (604m) | 13.4v | 13 |
| 4901 | 15 Apr 10:19:14 | 6 | 6.2 mph | 7 | SW (223°) | 99888 | 102043 | 26.1°C | 81.5% | 22.7°C | 1992ft (607m) | 13.4v | 14 |
| 4900 | 15 Apr 10:19:03 | 5 | 5.3 mph | 6 | SW (221°) | 99885 | 102040 | 26.1°C | 81.6% | 22.7°C | 1983ft (604m) | 13.42v | 15 |
| 4899 | 15 Apr 10:18:51 | 4 | 4.9 mph | 6 | SW (221°) | 99887 | 102042 | 26.1°C | 81.6% | 22.7°C | 1983ft (604m) | 13.42v | 15 |
| 4898 | 15 Apr 10:18:40 | 4 | 4.9 mph | 6 | SW (216°) | 99889 | 102044 | 26.1°C | 81.7% | 22.7°C | 1975ft (602m) | 13.41v | 14 |
| 4897 | 15 Apr 10:18:29 | 5 | 5 mph | 5 | SW (217°) | 99887 | 102042 | 26°C | 81.8% | 22.6°C | 1966ft (599m) | 13.4v | 16 |
| 4896 | 15 Apr 10:18:18 | 5 | 5.4 mph | 7 | SW (216°) | 99885 | 102040 | 26°C | 81.8% | 22.6°C | 1966ft (599m) | 13.39v | 15 |
| 4895 | 15 Apr 10:18:06 | 6 | 6.7 mph | 8 | SSW (206°) | 99888 | 102043 | 26°C | 81.9% | 22.7°C | 1957ft (596m) | 13.4v | 14 |
| 4894 | 15 Apr 10:17:55 | 6 | 7.5 mph | 9 | SSW (199°) | 99887 | 102042 | 26°C | 82% | 22.7°C | 1949ft (594m) | 13.41v | 14 |
| 4893 | 15 Apr 10:17:44 | 5 | 6.8 mph | 9 | SSW (207°) | 99885 | 102040 | 26°C | 82.1% | 22.7°C | 1941ft (592m) | 13.42v | 17 |
| 4892 | 15 Apr 10:17:33 | 8 | 8.8 mph | 9 | SSW (204°) | 99884 | 102039 | 25.9°C | 82.2% | 22.6°C | 1932ft (589m) | 13.45v | 15 |
| 4891 | 15 Apr 10:17:21 | 6 | 7.4 mph | 9 | SSW (193°) | 99885 | 102040 | 25.9°C | 82.4% | 22.7°C | 1915ft (584m) | 13.49v | 14 |
| 4890 | 15 Apr 10:17:10 | 8 | 9.2 mph | 10 | SSW (195°) | 99882 | 102036 | 25.9°C | 82.5% | 22.7°C | 1907ft (581m) | 13.5v | 17 |
| 4889 | 15 Apr 10:16:59 | 8 | 8.7 mph | 10 | SSW (202°) | 99887 | 102042 | 25.8°C | 82.8% | 22.7°C | 1881ft (573m) | 13.51v | 15 |
| 4888 | 15 Apr 10:16:48 | 5 | 5.9 mph | 9 | SSW (201°) | 99884 | 102039 | 25.8°C | 83% | 22.7°C | 1865ft (568m) | 13.55v | 14 |
| 4887 | 15 Apr 10:16:36 | 6 | 6.4 mph | 7 | SW (214°) | 99888 | 102043 | 25.8°C | 83.1% | 22.7°C | 1857ft (566m) | 13.51v | 16 |
| 4886 | 15 Apr 10:16:25 | 6 | 6.7 mph | 8 | SSW (213°) | 99887 | 102042 | 25.8°C | 83.3% | 22.7°C | 1841ft (561m) | 13.51v | 16 |
| 4885 | 15 Apr 10:16:14 | 4 | 5 mph | 6 | SSW (208°) | 99890 | 102045 | 25.7°C | 83.3% | 22.7°C | 1840ft (561m) | 13.55v | 14 |
| 4884 | 15 Apr 10:16:03 | 4 | 4.4 mph | 5 | SSW (211°) | 99888 | 102043 | 25.7°C | 83.3% | 22.7°C | 1840ft (561m) | 13.53v | 14 |
| 4883 | 15 Apr 10:15:51 | 5 | 6.2 mph | 7 | SW (221°) | 99887 | 102042 | 25.7°C | 83.5% | 22.7°C | 1824ft (556m) | 13.53v | 15 |
| 4882 | 15 Apr 10:15:40 | 5 | 5.9 mph | 7 | SSW (204°) | 99888 | 102043 | 25.7°C | 83.6% | 22.7°C | 1816ft (554m) | 13.57v | 15 |
| 4881 | 15 Apr 10:15:29 | 5 | 5.4 mph | 6 | SSW (211°) | 99891 | 102046 | 25.7°C | 83.6% | 22.7°C | 1816ft (554m) | 13.55v | 16 |
| 4880 | 15 Apr 10:15:17 | 6 | 6.3 mph | 7 | SSW (207°) | 99892 | 102047 | 25.6°C | 83.7% | 22.6°C | 1807ft (551m) | 13.52v | 14 |
| 4879 | 15 Apr 10:15:06 | 5 | 5.4 mph | 6 | SSW (204°) | 99890 | 102045 | 25.6°C | 83.8% | 22.7°C | 1798ft (548m) | 13.52v | 16 |
| 4878 | 15 Apr 10:14:54 | 5 | 6 mph | 7 | SSW (209°) | 99891 | 102046 | 25.6°C | 83.7% | 22.6°C | 1807ft (551m) | 13.5v | 16 |
| 4877 | 15 Apr 10:14:43 | 5 | 6.4 mph | 8 | SSW (213°) | 99888 | 102043 | 25.6°C | 83.8% | 22.7°C | 1798ft (548m) | 13.5v | 18 |
| 4876 | 15 Apr 10:14:32 | 5 | 5.7 mph | 7 | SW (214°) | 99889 | 102044 | 25.6°C | 83.8% | 22.7°C | 1798ft (548m) | 13.9v | 18 |
| 4875 | 15 Apr 10:14:21 | 5 | 5.4 mph | 6 | SW (216°) | 99888 | 102043 | 25.6°C | 83.8% | 22.7°C | 1798ft (548m) | 13.88v | 18 |
| 4874 | 15 Apr 10:14:09 | 6 | 7.5 mph | 9 | SSW (205°) | 99891 | 102046 | 25.6°C | 83.9% | 22.7°C | 1790ft (546m) | 13.88v | 18 |
| 4873 | 15 Apr 10:13:58 | 4 | 5 mph | 6 | SW (225°) | 99890 | 102045 | 25.6°C | 83.9% | 22.7°C | 1790ft (546m) | 13.85v | 16 |
| 4872 | 15 Apr 10:13:47 | 6 | 6.6 mph | 8 | SSW (205°) | 99891 | 102046 | 25.6°C | 83.9% | 22.7°C | 1790ft (546m) | 13.68v | 17 |
| 4871 | 15 Apr 10:13:36 | 6 | 7.2 mph | 8 | SSW (208°) | 99890 | 102045 | 25.6°C | 84% | 22.7°C | 1782ft (543m) | 13.5v | 18 |
| 4870 | 15 Apr 10:13:24 | 9 | 9.5 mph | 10 | SSW (204°) | 99886 | 102041 | 25.6°C | 84% | 22.7°C | 1782ft (543m) | 13.93v | 18 |
| 4869 | 15 Apr 10:13:13 | 4 | 5.2 mph | 6 | SSW (199°) | 99888 | 102043 | 25.6°C | 84.2% | 22.7°C | 1766ft (538m) | 13.91v | 17 |
| 4868 | 15 Apr 10:13:02 | 4 | 4.8 mph | 5 | SW (215°) | 99890 | 102045 | 25.6°C | 84% | 22.7°C | 1782ft (543m) | 13.77v | 19 |
| 4867 | 15 Apr 10:12:51 | 6 | 6.5 mph | 7 | SW (214°) | 99892 | 102047 | 25.6°C | 84% | 22.7°C | 1782ft (543m) | 13.59v | 17 |
| 4866 | 15 Apr 10:12:39 | 7 | 7.1 mph | 8 | SW (218°) | 99890 | 102045 | 25.5°C | 84% | 22.6°C | 1781ft (543m) | 13.6v | 18 |
| 4865 | 15 Apr 10:12:28 | 4 | 6.7 mph | 9 | SSW (209°) | 99886 | 102041 | 25.5°C | 84.1% | 22.6°C | 1773ft (540m) | 13.84v | 17 |
| 4864 | 15 Apr 10:12:17 | 5 | 5.7 mph | 6 | SSW (208°) | 99891 | 102046 | 25.5°C | 84.1% | 22.6°C | 1773ft (540m) | 13.72v | 18 |
| 4863 | 15 Apr 10:12:06 | 4 | 5.1 mph | 6 | SSW (212°) | 99890 | 102045 | 25.5°C | 84.2% | 22.6°C | 1765ft (538m) | 13.58v | 17 |
| 4862 | 15 Apr 10:11:54 | 4 | 5 mph | 6 | SSW (212°) | 99890 | 102045 | 25.5°C | 84.2% | 22.6°C | 1765ft (538m) | 13.55v | 17 |
| 4861 | 15 Apr 10:11:43 | 6 | 7.3 mph | 9 | SSW (211°) | 99891 | 102046 | 25.5°C | 84.2% | 22.6°C | 1765ft (538m) | 13.92v | 19 |
| 4860 | 15 Apr 10:11:32 | 5 | 5 mph | 5 | SW (221°) | 99889 | 102044 | 25.5°C | 84.2% | 22.6°C | 1765ft (538m) | 13.84v | 17 |
| 4859 | 15 Apr 10:11:21 | 6 | 6 mph | 6 | SW (218°) | 99892 | 102047 | 25.5°C | 84.3% | 22.7°C | 1757ft (536m) | 13.65v | 17 |
| 4858 | 15 Apr 10:11:09 | 5 | 5.6 mph | 6 | SW (218°) | 99891 | 102046 | 25.5°C | 84.4% | 22.7°C | 1749ft (533m) | 13.53v | 19 |
| 4857 | 15 Apr 10:10:58 | 3 | 4.2 mph | 5 | SSW (210°) | 99892 | 102047 | 25.5°C | 84.4% | 22.7°C | 1749ft (533m) | 13.91v | 18 |
| 4856 | 15 Apr 10:10:47 | 6 | 6.4 mph | 8 | SW (216°) | 99890 | 102045 | 25.5°C | 84.3% | 22.7°C | 1757ft (536m) | 13.88v | 18 |
| 4855 | 15 Apr 10:10:36 | 5 | 5.9 mph | 7 | SSW (210°) | 99891 | 102046 | 25.5°C | 84.5% | 22.7°C | 1741ft (531m) | 13.82v | 16 |
| 4854 | 15 Apr 10:10:24 | 3 | 3.4 mph | 4 | SW (218°) | 99890 | 102045 | 25.5°C | 84.6% | 22.7°C | 1733ft (528m) | 13.73v | 16 |
| 4853 | 15 Apr 10:10:13 | 3 | 4.7 mph | 6 | SW (220°) | 99894 | 102049 | 25.5°C | 84.3% | 22.7°C | 1757ft (536m) | 13.65v | 19 |
| 4852 | 15 Apr 10:10:02 | 4 | 5.2 mph | 6 | SW (225°) | 99893 | 102048 | 25.5°C | 84.4% | 22.7°C | 1749ft (533m) | 13.51v | 17 |
| 4851 | 15 Apr 10:09:51 | 4 | 4.4 mph | 5 | SW (216°) | 99891 | 102046 | 25.4°C | 84.5% | 22.6°C | 1740ft (530m) | 13.62v | 17 |
| 4850 | 15 Apr 10:09:39 | 5 | 5.8 mph | 7 | SSW (209°) | 99894 | 102049 | 25.4°C | 84.5% | 22.6°C | 1740ft (530m) | 13.64v | 17 |
| 4849 | 15 Apr 10:09:28 | 5 | 4.8 mph | 5 | SSW (213°) | 99890 | 102045 | 25.4°C | 84.5% | 22.6°C | 1740ft (530m) | 13.6v | 16 |
| 4848 | 15 Apr 10:09:18 | 4 | 4.8 mph | 6 | SW (224°) | 99890 | 102045 | 25.4°C | 84.5% | 22.6°C | 1740ft (530m) | 13.51v | 18 |
| 4847 | 15 Apr 10:09:06 | 5 | 6 mph | 8 | SSW (209°) | 99890 | 102045 | 25.4°C | 84.4% | 22.6°C | 1748ft (533m) | 13.6v | 17 |
| 4846 | 15 Apr 10:08:55 | 4 | 5.3 mph | 8 | SW (218°) | 99891 | 102046 | 25.4°C | 84.6% | 22.6°C | 1732ft (528m) | 13.67v | 19 |
| 4845 | 15 Apr 10:08:44 | 5 | 5.8 mph | 6 | SW (220°) | 99895 | 102050 | 25.4°C | 84.6% | 22.6°C | 1732ft (528m) | 13.62v | 18 |
| 4844 | 15 Apr 10:08:33 | 3 | 4.1 mph | 5 | SW (217°) | 99896 | 102051 | 25.4°C | 84.6% | 22.6°C | 1732ft (528m) | 13.53v | 19 |
| 4843 | 15 Apr 10:08:21 | 5 | 5.3 mph | 7 | SW (216°) | 99894 | 102049 | 25.4°C | 84.7% | 22.6°C | 1724ft (525m) | 13.57v | 19 |
| 4842 | 15 Apr 10:08:10 | 8 | 8.4 mph | 9 | SSW (201°) | 99891 | 102046 | 25.4°C | 84.6% | 22.6°C | 1732ft (528m) | 13.57v | 14 |
| 4841 | 15 Apr 10:07:59 | 6 | 6.9 mph | 8 | SSW (210°) | 99894 | 102049 | 25.4°C | 84.7% | 22.6°C | 1724ft (525m) | 13.53v | 14 |
| 4840 | 15 Apr 10:07:48 | 6 | 7.1 mph | 8 | SSW (208°) | 99893 | 102048 | 25.4°C | 84.7% | 22.6°C | 1724ft (525m) | 13.52v | 13 |
| 4839 | 15 Apr 10:07:36 | 5 | 5.7 mph | 7 | SW (216°) | 99896 | 102051 | 25.4°C | 84.8% | 22.7°C | 1716ft (523m) | 13.48v | 13 |
| 4838 | 15 Apr 10:07:25 | 4 | 4.7 mph | 6 | SW (215°) | 99897 | 102052 | 25.4°C | 84.9% | 22.7°C | 1708ft (521m) | 13.48v | 15 |
| 4837 | 15 Apr 10:07:14 | 4 | 4.6 mph | 6 | SSW (204°) | 99895 | 102050 | 25.4°C | 84.7% | 22.6°C | 1724ft (525m) | 13.46v | 14 |
| 4836 | 15 Apr 10:07:03 | 5 | 5.3 mph | 6 | SW (224°) | 99897 | 102052 | 25.4°C | 84.7% | 22.6°C | 1724ft (525m) | 13.44v | 15 |
| 4835 | 15 Apr 10:06:51 | 5 | 5.7 mph | 6 | SW (221°) | 99897 | 102052 | 25.4°C | 84.7% | 22.6°C | 1724ft (525m) | 13.43v | 15 |
| 4834 | 15 Apr 10:06:40 | 3 | 4 mph | 5 | SW (219°) | 99899 | 102054 | 25.4°C | 84.6% | 22.6°C | 1732ft (528m) | 13.42v | 13 |
| 4833 | 15 Apr 10:06:29 | 3 | 3.8 mph | 4 | SW (218°) | 99898 | 102053 | 25.4°C | 84.5% | 22.6°C | 1740ft (530m) | 13.42v | 14 |
| 4832 | 15 Apr 10:06:18 | 4 | 4.9 mph | 6 | SW (220°) | 99896 | 102051 | 25.4°C | 84.5% | 22.6°C | 1740ft (530m) | 13.39v | 14 |
| 4831 | 15 Apr 10:06:06 | 5 | 5.7 mph | 6 | SSW (211°) | 99895 | 102050 | 25.4°C | 84.4% | 22.6°C | 1748ft (533m) | 13.4v | 16 |
| 4830 | 15 Apr 10:05:55 | 5 | 5.5 mph | 6 | SSW (211°) | 99895 | 102050 | 25.4°C | 84.3% | 22.6°C | 1756ft (535m) | 13.41v | 15 |
| 4829 | 15 Apr 10:05:44 | 7 | 7.4 mph | 8 | SW (215°) | 99896 | 102051 | 25.4°C | 84.4% | 22.6°C | 1748ft (533m) | 13.41v | 15 |
| 4828 | 15 Apr 10:05:33 | 4 | 5.5 mph | 7 | SSW (198°) | 99893 | 102048 | 25.4°C | 84.5% | 22.6°C | 1740ft (530m) | 13.39v | 15 |
| 4827 | 15 Apr 10:05:21 | 6 | 6.3 mph | 7 | SSW (206°) | 99897 | 102052 | 25.4°C | 84.5% | 22.6°C | 1740ft (530m) | 13.4v | 14 |
| 4826 | 15 Apr 10:05:10 | 6 | 6.3 mph | 7 | SSW (209°) | 99896 | 102051 | 25.4°C | 84.5% | 22.6°C | 1740ft (530m) | 13.41v | 14 |
| 4825 | 15 Apr 10:04:59 | 5 | 6.3 mph | 7 | SW (219°) | 99895 | 102050 | 25.4°C | 84.5% | 22.6°C | 1740ft (530m) | 13.4v | 13 |
| 4824 | 15 Apr 10:04:48 | 6 | 7 mph | 8 | SSW (211°) | 99897 | 102052 | 25.4°C | 84.5% | 22.6°C | 1740ft (530m) | 13.4v | 16 |
| 4823 | 15 Apr 10:04:36 | 6 | 6.1 mph | 7 | SSW (213°) | 99897 | 102052 | 25.4°C | 84.6% | 22.6°C | 1732ft (528m) | 13.4v | 16 |
| 4822 | 15 Apr 10:04:25 | 5 | 5.7 mph | 6 | SSW (209°) | 99892 | 102047 | 25.4°C | 84.6% | 22.6°C | 1732ft (528m) | 13.39v | 15 |
| 4821 | 15 Apr 10:04:14 | 5 | 6.2 mph | 7 | SW (216°) | 99899 | 102054 | 25.4°C | 84.5% | 22.6°C | 1740ft (530m) | 13.42v | 14 |
| 4820 | 15 Apr 10:04:03 | 5 | 6.2 mph | 7 | SSW (213°) | 99895 | 102050 | 25.3°C | 84.6% | 22.5°C | 1732ft (528m) | 13.44v | 13 |
| 4819 | 15 Apr 10:03:51 | 3 | 3.8 mph | 5 | SW (223°) | 99898 | 102053 | 25.3°C | 84.6% | 22.5°C | 1732ft (528m) | 13.43v | 13 |
| 4818 | 15 Apr 10:03:40 | 4 | 4.8 mph | 5 | SSW (213°) | 99893 | 102048 | 25.3°C | 84.6% | 22.5°C | 1732ft (528m) | 13.43v | 16 |
| 4817 | 15 Apr 10:03:29 | 5 | 5.5 mph | 6 | SW (215°) | 99897 | 102052 | 25.3°C | 84.6% | 22.5°C | 1732ft (528m) | 13.41v | 14 |
| 4816 | 15 Apr 10:03:18 | 4 | 4 mph | 5 | SSW (210°) | 99894 | 102049 | 25.3°C | 84.6% | 22.5°C | 1732ft (528m) | 13.42v | 13 |
| 4815 | 15 Apr 10:03:06 | 4 | 4.4 mph | 5 | SW (221°) | 99896 | 102051 | 25.3°C | 84.5% | 22.5°C | 1740ft (530m) | 13.45v | 16 |
| 4814 | 15 Apr 10:02:55 | 4 | 4.8 mph | 5 | SSW (208°) | 99895 | 102050 | 25.3°C | 84.5% | 22.5°C | 1740ft (530m) | 13.43v | 13 |
| 4813 | 15 Apr 10:02:44 | 5 | 5.5 mph | 6 | SW (219°) | 99898 | 102053 | 25.3°C | 84.5% | 22.5°C | 1740ft (530m) | 13.43v | 13 |
| 4812 | 15 Apr 10:02:33 | 5 | 6.6 mph | 9 | SSW (213°) | 99895 | 102050 | 25.3°C | 84.5% | 22.5°C | 1740ft (530m) | 13.43v | 13 |
| 4811 | 15 Apr 10:02:21 | 6 | 6.2 mph | 7 | SSW (211°) | 99893 | 102048 | 25.3°C | 84.5% | 22.5°C | 1740ft (530m) | 13.43v | 15 |
| 4810 | 15 Apr 10:02:10 | 5 | 6 mph | 8 | SSW (209°) | 99895 | 102050 | 25.4°C | 84.4% | 22.6°C | 1748ft (533m) | 13.43v | 14 |
| 4809 | 15 Apr 10:01:59 | 5 | 5.5 mph | 6 | SSW (207°) | 99896 | 102051 | 25.4°C | 84.4% | 22.6°C | 1748ft (533m) | 13.43v | 14 |
| 4808 | 15 Apr 10:01:48 | 7 | 7.1 mph | 8 | SSW (204°) | 99894 | 102049 | 25.4°C | 84.3% | 22.6°C | 1756ft (535m) | 13.41v | 13 |
| 4807 | 15 Apr 10:01:36 | 5 | 5.3 mph | 6 | SSW (198°) | 99897 | 102052 | 25.4°C | 84.4% | 22.6°C | 1748ft (533m) | 13.42v | 13 |
| 4806 | 15 Apr 10:01:25 | 5 | 6.1 mph | 8 | SSW (206°) | 99895 | 102050 | 25.3°C | 84.4% | 22.5°C | 1748ft (533m) | 13.43v | 16 |
| 4805 | 15 Apr 10:01:14 | 5 | 7 mph | 8 | SSW (205°) | 99892 | 102047 | 25.3°C | 84.4% | 22.5°C | 1748ft (533m) | 13.42v | 14 |
| 4804 | 15 Apr 10:01:03 | 6 | 7.4 mph | 9 | SSW (196°) | 99899 | 102054 | 25.3°C | 84.4% | 22.5°C | 1748ft (533m) | 13.43v | 16 |
| 4803 | 15 Apr 10:00:51 | 6 | 7.5 mph | 9 | SSW (198°) | 99895 | 102050 | 25.3°C | 84.5% | 22.5°C | 1740ft (530m) | 13.43v | 15 |
| 4802 | 15 Apr 10:00:40 | 7 | 7.1 mph | 8 | SSW (207°) | 99897 | 102052 | 25.3°C | 84.6% | 22.5°C | 1732ft (528m) | 13.43v | 14 |
| 4801 | 15 Apr 10:00:29 | 6 | 6.7 mph | 8 | SSW (206°) | 99894 | 102049 | 25.3°C | 84.6% | 22.5°C | 1732ft (528m) | 13.44v | 16 |
| 4800 | 15 Apr 10:00:18 | 7 | 7.6 mph | 8 | SSW (210°) | 99895 | 102050 | 25.3°C | 84.6% | 22.5°C | 1732ft (528m) | 13.43v | 16 |
| 4799 | 15 Apr 10:00:06 | 8 | 8.8 mph | 10 | SSW (202°) | 99893 | 102048 | 25.3°C | 84.6% | 22.5°C | 1732ft (528m) | 13.42v | 15 |
| 4798 | 15 Apr 09:59:55 | 6 | 6.5 mph | 7 | SSW (198°) | 99895 | 102050 | 25.3°C | 84.6% | 22.5°C | 1732ft (528m) | 13.42v | 16 |
| 4797 | 15 Apr 09:59:44 | 5 | 6.9 mph | 9 | SSW (206°) | 99895 | 102050 | 25.3°C | 84.6% | 22.5°C | 1732ft (528m) | 13.42v | 15 |
| 4796 | 15 Apr 09:59:33 | 4 | 5.3 mph | 6 | SSW (210°) | 99895 | 102050 | 25.3°C | 84.6% | 22.5°C | 1732ft (528m) | 13.42v | 16 |
| 4795 | 15 Apr 09:59:21 | 5 | 5.4 mph | 6 | SSW (211°) | 99897 | 102052 | 25.3°C | 84.5% | 22.5°C | 1740ft (530m) | 13.43v | 13 |
| 4794 | 15 Apr 09:59:10 | 5 | 5.8 mph | 7 | SW (215°) | 99895 | 102050 | 25.3°C | 84.5% | 22.5°C | 1740ft (530m) | 13.43v | 16 |
| 4793 | 15 Apr 09:58:59 | 4 | 5.3 mph | 8 | S (191°) | 99896 | 102051 | 25.3°C | 84.5% | 22.5°C | 1740ft (530m) | 13.44v | 16 |
| 4792 | 15 Apr 09:58:48 | 7 | 7.6 mph | 9 | SSW (209°) | 99891 | 102046 | 25.3°C | 84.6% | 22.5°C | 1732ft (528m) | 13.45v | 14 |
| 4791 | 15 Apr 09:58:36 | 6 | 6.6 mph | 8 | SSW (205°) | 99897 | 102052 | 25.3°C | 84.6% | 22.5°C | 1732ft (528m) | 13.42v | 16 |
| 4790 | 15 Apr 09:58:25 | 5 | 6.3 mph | 7 | SW (224°) | 99895 | 102050 | 25.3°C | 84.6% | 22.5°C | 1732ft (528m) | 13.45v | 14 |
| 4789 | 15 Apr 09:58:14 | 5 | 6.4 mph | 7 | SSW (213°) | 99895 | 102050 | 25.3°C | 84.6% | 22.5°C | 1732ft (528m) | 13.45v | 14 |
| 4788 | 15 Apr 09:58:03 | 6 | 6.9 mph | 8 | SW (221°) | 99896 | 102051 | 25.3°C | 84.6% | 22.5°C | 1732ft (528m) | 13.45v | 13 |
| 4787 | 15 Apr 09:57:51 | 7 | 7.6 mph | 8 | SSW (213°) | 99895 | 102050 | 25.3°C | 84.6% | 22.5°C | 1732ft (528m) | 13.46v | 14 |
| 4786 | 15 Apr 09:57:40 | 7 | 7.2 mph | 8 | SSW (208°) | 99894 | 102049 | 25.3°C | 84.7% | 22.5°C | 1724ft (525m) | 13.46v | 15 |
| 4785 | 15 Apr 09:57:29 | 5 | 7.2 mph | 9 | SSW (211°) | 99896 | 102051 | 25.3°C | 84.8% | 22.6°C | 1716ft (523m) | 13.45v | 14 |
| 4784 | 15 Apr 09:57:18 | 5 | 6 mph | 7 | SSW (209°) | 99894 | 102049 | 25.3°C | 84.8% | 22.6°C | 1716ft (523m) | 13.46v | 13 |
| 4783 | 15 Apr 09:57:06 | 6 | 6.1 mph | 7 | SSW (213°) | 99893 | 102048 | 25.3°C | 84.8% | 22.6°C | 1716ft (523m) | 13.44v | 14 |
| 4782 | 15 Apr 09:56:55 | 7 | 8.5 mph | 10 | SSW (207°) | 99892 | 102047 | 25.3°C | 84.7% | 22.5°C | 1724ft (525m) | 13.43v | 14 |
| 4781 | 15 Apr 09:56:44 | 6 | 8.2 mph | 10 | SSW (203°) | 99892 | 102047 | 25.3°C | 84.7% | 22.5°C | 1724ft (525m) | 13.45v | 14 |
| 4780 | 15 Apr 09:56:33 | 5 | 5.3 mph | 6 | SSW (212°) | 99896 | 102051 | 25.3°C | 84.7% | 22.5°C | 1724ft (525m) | 13.46v | 13 |
| 4779 | 15 Apr 09:56:21 | 7 | 8.7 mph | 10 | SW (220°) | 99896 | 102051 | 25.3°C | 84.7% | 22.5°C | 1724ft (525m) | 13.45v | 13 |
| 4778 | 15 Apr 09:56:10 | 7 | 7.9 mph | 9 | SW (222°) | 99895 | 102050 | 25.3°C | 84.7% | 22.5°C | 1724ft (525m) | 13.43v | 16 |
| 4777 | 15 Apr 09:55:59 | 5 | 5.6 mph | 6 | SSW (213°) | 99897 | 102052 | 25.3°C | 84.8% | 22.6°C | 1716ft (523m) | 13.45v | 13 |
| 4776 | 15 Apr 09:55:48 | 5 | 5.4 mph | 6 | SW (216°) | 99895 | 102050 | 25.3°C | 84.7% | 22.5°C | 1724ft (525m) | 13.45v | 13 |
| 4775 | 15 Apr 09:55:36 | 6 | 6.8 mph | 8 | SW (229°) | 99897 | 102052 | 25.3°C | 84.6% | 22.5°C | 1732ft (528m) | 13.45v | 16 |
| 4774 | 15 Apr 09:55:25 | 7 | 8.6 mph | 10 | SSW (212°) | 99894 | 102049 | 25.3°C | 84.6% | 22.5°C | 1732ft (528m) | 13.46v | 14 |
| 4773 | 15 Apr 09:55:14 | 6 | 6.8 mph | 8 | SW (216°) | 99893 | 102048 | 25.3°C | 84.7% | 22.5°C | 1724ft (525m) | 13.47v | 17 |
| 4772 | 15 Apr 09:55:03 | 6 | 7.1 mph | 8 | SSW (206°) | 99896 | 102051 | 25.3°C | 84.6% | 22.5°C | 1732ft (528m) | 13.47v | 13 |
| 4771 | 15 Apr 09:54:51 | 6 | 7 mph | 8 | SSW (198°) | 99894 | 102049 | 25.3°C | 84.8% | 22.6°C | 1716ft (523m) | 13.47v | 13 |
| 4770 | 15 Apr 09:54:40 | 8 | 9 mph | 10 | SSW (204°) | 99895 | 102050 | 25.3°C | 84.8% | 22.6°C | 1716ft (523m) | 13.47v | 14 |
| 4769 | 15 Apr 09:54:29 | 7 | 7.9 mph | 9 | SW (214°) | 99898 | 102053 | 25.3°C | 84.8% | 22.6°C | 1716ft (523m) | 13.46v | 16 |
| 4768 | 15 Apr 09:54:18 | 7 | 7.1 mph | 8 | SSW (207°) | 99897 | 102052 | 25.3°C | 84.9% | 22.6°C | 1708ft (521m) | 13.47v | 13 |
| 4767 | 15 Apr 09:54:06 | 7 | 7.2 mph | 8 | SSW (209°) | 99895 | 102050 | 25.3°C | 84.9% | 22.6°C | 1708ft (521m) | 13.46v | 14 |
| 4766 | 15 Apr 09:53:55 | 6 | 7.1 mph | 8 | SSW (202°) | 99896 | 102051 | 25.3°C | 85% | 22.6°C | 1700ft (518m) | 13.45v | 13 |
| 4765 | 15 Apr 09:53:44 | 5 | 6.9 mph | 8 | SSW (205°) | 99897 | 102052 | 25.2°C | 85.1% | 22.5°C | 1691ft (515m) | 13.45v | 13 |
| 4764 | 15 Apr 09:53:33 | 4 | 4.9 mph | 6 | SSW (207°) | 99894 | 102049 | 25.2°C | 85.1% | 22.5°C | 1691ft (515m) | 13.47v | 16 |
| 4763 | 15 Apr 09:53:21 | 4 | 5.5 mph | 7 | SW (214°) | 99895 | 102050 | 25.2°C | 85.1% | 22.5°C | 1691ft (515m) | 13.46v | 15 |
| 4762 | 15 Apr 09:53:10 | 6 | 7 mph | 8 | SW (220°) | 99895 | 102050 | 25.2°C | 85.1% | 22.5°C | 1691ft (515m) | 13.47v | 13 |
| 4761 | 15 Apr 09:52:59 | 7 | 7.3 mph | 8 | SSW (213°) | 99895 | 102050 | 25.2°C | 85.2% | 22.5°C | 1683ft (513m) | 13.46v | 13 |
| 4760 | 15 Apr 09:52:48 | 6 | 7.2 mph | 8 | SW (216°) | 99896 | 102051 | 25.2°C | 85.3% | 22.6°C | 1675ft (511m) | 13.49v | 16 |
| 4759 | 15 Apr 09:52:36 | 5 | 6.6 mph | 8 | SW (220°) | 99899 | 102054 | 25.2°C | 85.2% | 22.5°C | 1683ft (513m) | 13.46v | 13 |
| 4758 | 15 Apr 09:52:25 | 5 | 5.6 mph | 6 | SW (215°) | 99897 | 102052 | 25.2°C | 85.2% | 22.5°C | 1683ft (513m) | 13.47v | 13 |
| 4757 | 15 Apr 09:52:14 | 4 | 4.6 mph | 6 | SW (222°) | 99895 | 102050 | 25.2°C | 85.2% | 22.5°C | 1683ft (513m) | 13.45v | 14 |
| 4756 | 15 Apr 09:52:03 | 4 | 4.8 mph | 6 | SW (216°) | 99899 | 102054 | 25.2°C | 85.1% | 22.5°C | 1691ft (515m) | 13.45v | 14 |
| 4755 | 15 Apr 09:51:51 | 4 | 4.4 mph | 5 | SW (222°) | 99895 | 102050 | 25.2°C | 85.1% | 22.5°C | 1691ft (515m) | 13.45v | 14 |
| 4754 | 15 Apr 09:51:40 | 5 | 5.9 mph | 7 | SSW (212°) | 99898 | 102053 | 25.2°C | 85.1% | 22.5°C | 1691ft (515m) | 13.46v | 13 |
| 4753 | 15 Apr 09:51:29 | 5 | 5.1 mph | 6 | SSW (205°) | 99894 | 102049 | 25.2°C | 85.1% | 22.5°C | 1691ft (515m) | 13.47v | 13 |
| 4752 | 15 Apr 09:51:18 | 7 | 7.6 mph | 8 | SW (215°) | 99896 | 102051 | 25.2°C | 85.1% | 22.5°C | 1691ft (515m) | 13.46v | 13 |
| 4751 | 15 Apr 09:51:06 | 5 | 6.4 mph | 8 | SSW (211°) | 99894 | 102049 | 25.2°C | 85.1% | 22.5°C | 1691ft (515m) | 13.46v | 14 |
| 4750 | 15 Apr 09:50:55 | 5 | 5.7 mph | 6 | SSW (209°) | 99895 | 102050 | 25.2°C | 85.1% | 22.5°C | 1691ft (515m) | 13.44v | 14 |
| 4749 | 15 Apr 09:50:44 | 6 | 6.2 mph | 7 | SSW (212°) | 99898 | 102053 | 25.2°C | 85.1% | 22.5°C | 1691ft (515m) | 13.47v | 15 |
| 4748 | 15 Apr 09:50:33 | 7 | 7.1 mph | 8 | SSW (199°) | 99899 | 102054 | 25.2°C | 85.2% | 22.5°C | 1683ft (513m) | 13.46v | 14 |
| 4747 | 15 Apr 09:50:21 | 6 | 6.2 mph | 7 | SSW (211°) | 99898 | 102053 | 25.2°C | 85.3% | 22.6°C | 1675ft (511m) | 13.47v | 13 |
| 4746 | 15 Apr 09:50:10 | 6 | 6.5 mph | 8 | SW (215°) | 99900 | 102055 | 25.2°C | 85.3% | 22.6°C | 1675ft (511m) | 13.44v | 15 |
| 4745 | 15 Apr 09:49:59 | 4 | 4.2 mph | 5 | SSW (213°) | 99898 | 102053 | 25.2°C | 85.3% | 22.6°C | 1675ft (511m) | 13.43v | 13 |
| 4744 | 15 Apr 09:49:48 | 5 | 5.8 mph | 7 | SSW (213°) | 99896 | 102051 | 25.2°C | 85.2% | 22.5°C | 1683ft (513m) | 13.44v | 14 |
| 4743 | 15 Apr 09:49:36 | 5 | 6.3 mph | 8 | SSW (209°) | 99899 | 102054 | 25.2°C | 85.2% | 22.5°C | 1683ft (513m) | 13.41v | 14 |
| 4742 | 15 Apr 09:49:25 | 7 | 7.5 mph | 8 | SSW (206°) | 99899 | 102054 | 25.2°C | 85.2% | 22.5°C | 1683ft (513m) | 13.42v | 13 |
| 4741 | 15 Apr 09:49:14 | 5 | 6.4 mph | 8 | SSW (200°) | 99897 | 102052 | 25.2°C | 85.3% | 22.6°C | 1675ft (511m) | 13.41v | 14 |
| 4740 | 15 Apr 09:49:03 | 5 | 6.1 mph | 8 | SSW (212°) | 99897 | 102052 | 25.1°C | 85.4% | 22.5°C | 1666ft (508m) | 13.41v | 14 |
| 4739 | 15 Apr 09:48:51 | 7 | 7.7 mph | 9 | SSW (211°) | 99900 | 102055 | 25.1°C | 85.4% | 22.5°C | 1666ft (508m) | 13.43v | 15 |
| 4738 | 15 Apr 09:48:40 | 5 | 5.7 mph | 6 | SSW (211°) | 99903 | 102058 | 25.1°C | 85.3% | 22.5°C | 1674ft (510m) | 13.44v | 14 |
| 4737 | 15 Apr 09:48:29 | 5 | 6.7 mph | 9 | SSW (199°) | 99901 | 102056 | 25.1°C | 85.4% | 22.5°C | 1666ft (508m) | 13.43v | 13 |
| 4736 | 15 Apr 09:48:18 | 7 | 7.6 mph | 9 | SSW (192°) | 99902 | 102057 | 25.1°C | 85.4% | 22.5°C | 1666ft (508m) | 13.42v | 14 |
| 4735 | 15 Apr 09:48:06 | 7 | 7.9 mph | 9 | SSW (207°) | 99903 | 102058 | 25.1°C | 85.6% | 22.5°C | 1651ft (503m) | 13.43v | 14 |
| 4734 | 15 Apr 09:47:55 | 7 | 7 mph | 8 | SSW (200°) | 99899 | 102054 | 25.1°C | 85.6% | 22.5°C | 1651ft (503m) | 13.41v | 13 |
| 4733 | 15 Apr 09:47:44 | 5 | 5.7 mph | 6 | SSW (207°) | 99900 | 102055 | 25.1°C | 85.6% | 22.5°C | 1651ft (503m) | 13.4v | 15 |
| 4732 | 15 Apr 09:47:33 | 5 | 5.7 mph | 6 | SSW (211°) | 99899 | 102054 | 25.1°C | 85.6% | 22.5°C | 1651ft (503m) | 13.4v | 13 |
| 4731 | 15 Apr 09:47:21 | 5 | 6.7 mph | 8 | SSW (204°) | 99900 | 102055 | 25.1°C | 85.6% | 22.5°C | 1651ft (503m) | 13.41v | 15 |
| 4730 | 15 Apr 09:47:10 | 5 | 5.9 mph | 8 | SSW (206°) | 99899 | 102054 | 25.1°C | 85.7% | 22.5°C | 1643ft (501m) | 13.41v | 13 |
| 4729 | 15 Apr 09:46:59 | 3 | 4.4 mph | 6 | SSW (207°) | 99902 | 102057 | 25.1°C | 85.7% | 22.5°C | 1643ft (501m) | 13.42v | 14 |
| 4728 | 15 Apr 09:46:48 | 5 | 5.3 mph | 6 | SSW (202°) | 99898 | 102053 | 25.1°C | 85.7% | 22.5°C | 1643ft (501m) | 13.42v | 15 |
| 4727 | 15 Apr 09:46:36 | 5 | 5.5 mph | 6 | SSW (213°) | 99899 | 102054 | 25.1°C | 85.6% | 22.5°C | 1651ft (503m) | 13.42v | 13 |
| 4726 | 15 Apr 09:46:25 | 5 | 5.9 mph | 7 | SSW (207°) | 99899 | 102054 | 25.1°C | 85.7% | 22.5°C | 1643ft (501m) | 13.4v | 13 |
| 4725 | 15 Apr 09:46:14 | 5 | 6.7 mph | 8 | SSW (199°) | 99897 | 102052 | 25°C | 85.7% | 22.4°C | 1642ft (500m) | 13.39v | 16 |
| 4724 | 15 Apr 09:46:03 | 4 | 5.2 mph | 6 | SSW (209°) | 99896 | 102051 | 25°C | 85.8% | 22.5°C | 1634ft (498m) | 13.4v | 15 |
| 4723 | 15 Apr 09:45:51 | 4 | 4.2 mph | 5 | SSW (211°) | 99898 | 102053 | 25°C | 85.7% | 22.4°C | 1642ft (500m) | 13.41v | 13 |
| 4722 | 15 Apr 09:45:40 | 4 | 5.2 mph | 7 | SSW (211°) | 99897 | 102052 | 25°C | 85.7% | 22.4°C | 1642ft (500m) | 13.41v | 13 |
| 4721 | 15 Apr 09:45:29 | 6 | 6.5 mph | 7 | SSW (208°) | 99899 | 102054 | 25°C | 85.8% | 22.5°C | 1634ft (498m) | 13.42v | 13 |
| 4720 | 15 Apr 09:45:18 | 5 | 5.7 mph | 7 | SSW (204°) | 99899 | 102054 | 25°C | 85.8% | 22.5°C | 1634ft (498m) | 13.4v | 13 |
| 4719 | 15 Apr 09:45:06 | 7 | 7.7 mph | 9 | SSW (194°) | 99898 | 102053 | 25°C | 85.8% | 22.5°C | 1634ft (498m) | 13.43v | 13 |
| 4718 | 15 Apr 09:44:55 | 5 | 6.3 mph | 8 | SSW (208°) | 99897 | 102052 | 25°C | 85.9% | 22.5°C | 1626ft (496m) | 13.41v | 16 |
| 4717 | 15 Apr 09:44:44 | 5 | 6.3 mph | 8 | SSW (195°) | 99897 | 102052 | 25°C | 85.9% | 22.5°C | 1626ft (496m) | 13.4v | 13 |
| 4716 | 15 Apr 09:44:33 | 7 | 7.2 mph | 8 | SSW (211°) | 99896 | 102051 | 25°C | 85.9% | 22.5°C | 1626ft (496m) | 13.42v | 13 |
| 4715 | 15 Apr 09:44:21 | 5 | 5.5 mph | 7 | SSW (213°) | 99896 | 102051 | 25°C | 86% | 22.5°C | 1618ft (493m) | 13.41v | 13 |
| 4714 | 15 Apr 09:44:10 | 4 | 4.8 mph | 6 | SW (220°) | 99896 | 102051 | 24.9°C | 86% | 22.4°C | 1617ft (493m) | 13.42v | 14 |
| 4713 | 15 Apr 09:43:59 | 5 | 5.5 mph | 6 | SW (233°) | 99896 | 102051 | 25°C | 85.9% | 22.5°C | 1626ft (496m) | 13.43v | 13 |
| 4712 | 15 Apr 09:43:48 | 6 | 6.5 mph | 7 | SW (217°) | 99897 | 102052 | 25°C | 85.8% | 22.5°C | 1634ft (498m) | 13.42v | 13 |
| 4711 | 15 Apr 09:43:36 | 5 | 7.2 mph | 8 | SW (217°) | 99895 | 102050 | 24.9°C | 85.8% | 22.4°C | 1633ft (498m) | 13.42v | 16 |
| 4710 | 15 Apr 09:43:25 | 4 | 5.5 mph | 8 | SSW (209°) | 99897 | 102052 | 25°C | 85.8% | 22.5°C | 1634ft (498m) | 13.4v | 15 |
| 4709 | 15 Apr 09:43:14 | 5 | 6.5 mph | 9 | SW (222°) | 99895 | 102050 | 25°C | 85.8% | 22.5°C | 1634ft (498m) | 13.42v | 13 |
| 4708 | 15 Apr 09:43:03 | 5 | 5.4 mph | 7 | SW (215°) | 99897 | 102052 | 25°C | 85.8% | 22.5°C | 1634ft (498m) | 13.43v | 13 |
| 4707 | 15 Apr 09:42:51 | 6 | 7.1 mph | 8 | SSW (207°) | 99895 | 102050 | 24.9°C | 85.8% | 22.4°C | 1633ft (498m) | 13.42v | 14 |
| 4706 | 15 Apr 09:42:40 | 6 | 7.6 mph | 9 | SSW (204°) | 99898 | 102053 | 24.9°C | 85.9% | 22.4°C | 1625ft (495m) | 13.41v | 13 |
| 4705 | 15 Apr 09:42:29 | 8 | 8.2 mph | 9 | SSW (206°) | 99892 | 102047 | 24.9°C | 86% | 22.4°C | 1617ft (493m) | 13.41v | 13 |
| 4704 | 15 Apr 09:42:18 | 9 | 9.9 mph | 11 | SSW (202°) | 99896 | 102051 | 24.9°C | 86.2% | 22.4°C | 1602ft (488m) | 13.42v | 13 |
| 4703 | 15 Apr 09:42:06 | 6 | 6.6 mph | 7 | SW (214°) | 99897 | 102052 | 24.9°C | 86.3% | 22.5°C | 1594ft (486m) | 13.41v | 13 |
| 4702 | 15 Apr 09:41:55 | 4 | 4.8 mph | 5 | SW (214°) | 99894 | 102049 | 24.9°C | 86.2% | 22.4°C | 1602ft (488m) | 13.41v | 14 |
| 4701 | 15 Apr 09:41:44 | 5 | 5.7 mph | 6 | SW (215°) | 99897 | 102052 | 24.9°C | 86.1% | 22.4°C | 1610ft (491m) | 13.42v | 14 |
| 4700 | 15 Apr 09:41:33 | 5 | 6.7 mph | 8 | SW (224°) | 99894 | 102049 | 24.9°C | 86.1% | 22.4°C | 1610ft (491m) | 13.4v | 14 |
| 4699 | 15 Apr 09:41:21 | 5 | 6.2 mph | 8 | SW (221°) | 99896 | 102051 | 24.9°C | 86.1% | 22.4°C | 1610ft (491m) | 13.41v | 16 |
| 4698 | 15 Apr 09:41:10 | 6 | 6.1 mph | 7 | SW (219°) | 99897 | 102052 | 24.9°C | 86.1% | 22.4°C | 1610ft (491m) | 13.4v | 14 |
| 4697 | 15 Apr 09:40:59 | 5 | 5.4 mph | 6 | SW (223°) | 99895 | 102050 | 24.9°C | 86% | 22.4°C | 1617ft (493m) | 13.41v | 13 |
| 4696 | 15 Apr 09:40:48 | 5 | 5.6 mph | 7 | SW (217°) | 99895 | 102050 | 24.9°C | 86% | 22.4°C | 1617ft (493m) | 13.39v | 13 |
| 4695 | 15 Apr 09:40:36 | 6 | 5.9 mph | 6 | SW (220°) | 99897 | 102052 | 24.9°C | 85.9% | 22.4°C | 1625ft (495m) | 13.38v | 13 |
| 4694 | 15 Apr 09:40:25 | 6 | 7.4 mph | 8 | SW (218°) | 99896 | 102051 | 24.9°C | 85.9% | 22.4°C | 1625ft (495m) | 13.4v | 14 |
| 4693 | 15 Apr 09:40:14 | 6 | 7 mph | 8 | SSW (208°) | 99895 | 102050 | 24.9°C | 86% | 22.4°C | 1617ft (493m) | 13.4v | 13 |
| 4692 | 15 Apr 09:40:03 | 5 | 6.8 mph | 9 | SSW (212°) | 99896 | 102051 | 24.9°C | 86.1% | 22.4°C | 1610ft (491m) | 13.38v | 13 |
| 4691 | 15 Apr 09:39:51 | 5 | 6.6 mph | 8 | SSW (210°) | 99894 | 102049 | 24.9°C | 86.2% | 22.4°C | 1602ft (488m) | 13.38v | 13 |
| 4690 | 15 Apr 09:39:40 | 5 | 5.1 mph | 6 | SW (221°) | 99895 | 102050 | 24.9°C | 86.1% | 22.4°C | 1610ft (491m) | 13.39v | 16 |
| 4689 | 15 Apr 09:39:29 | 6 | 7.2 mph | 8 | SSW (210°) | 99894 | 102049 | 24.9°C | 86% | 22.4°C | 1617ft (493m) | 13.37v | 14 |
| 4688 | 15 Apr 09:39:18 | 5 | 5.1 mph | 6 | SSW (213°) | 99894 | 102049 | 24.9°C | 86.1% | 22.4°C | 1610ft (491m) | 13.38v | 14 |
| 4687 | 15 Apr 09:39:06 | 5 | 6.6 mph | 8 | SW (214°) | 99894 | 102049 | 24.8°C | 86% | 22.3°C | 1617ft (493m) | 13.38v | 14 |
| 4686 | 15 Apr 09:38:55 | 6 | 6.5 mph | 7 | SSW (213°) | 99890 | 102045 | 24.8°C | 86.1% | 22.3°C | 1609ft (490m) | 13.37v | 14 |
| 4685 | 15 Apr 09:38:44 | 7 | 7.3 mph | 8 | SSW (203°) | 99894 | 102049 | 24.8°C | 86% | 22.3°C | 1617ft (493m) | 13.35v | 16 |
| 4684 | 15 Apr 09:38:33 | 5 | 6.1 mph | 7 | SSW (202°) | 99890 | 102045 | 24.8°C | 86% | 22.3°C | 1617ft (493m) | 13.35v | 13 |
| 4683 | 15 Apr 09:38:21 | 7 | 8 mph | 9 | SSW (204°) | 99893 | 102048 | 24.8°C | 86% | 22.3°C | 1617ft (493m) | 13.35v | 13 |
| 4682 | 15 Apr 09:38:10 | 7 | 7.3 mph | 8 | SSW (208°) | 99893 | 102048 | 24.8°C | 86% | 22.3°C | 1617ft (493m) | 13.36v | 14 |
| 4681 | 15 Apr 09:37:59 | 7 | 8.5 mph | 10 | SSW (208°) | 99893 | 102048 | 24.8°C | 86% | 22.3°C | 1617ft (493m) | 13.35v | 14 |
| 4680 | 15 Apr 09:37:48 | 8 | 8.8 mph | 10 | SSW (202°) | 99889 | 102044 | 24.8°C | 86.1% | 22.3°C | 1609ft (490m) | 13.35v | 14 |
| 4679 | 15 Apr 09:37:36 | 5 | 6.3 mph | 8 | SSW (205°) | 99893 | 102048 | 24.8°C | 86.1% | 22.3°C | 1609ft (490m) | 13.34v | 15 |
| 4678 | 15 Apr 09:37:25 | 5 | 6 mph | 7 | SSW (211°) | 99891 | 102046 | 24.8°C | 86.1% | 22.3°C | 1609ft (490m) | 13.33v | 15 |
| 4677 | 15 Apr 09:37:14 | 6 | 6.7 mph | 7 | SSW (212°) | 99890 | 102045 | 24.8°C | 86.1% | 22.3°C | 1609ft (490m) | 13.34v | 14 |
| 4676 | 15 Apr 09:37:03 | 7 | 8.4 mph | 10 | SSW (204°) | 99890 | 102045 | 24.8°C | 86% | 22.3°C | 1617ft (493m) | 13.33v | 14 |
| 4675 | 15 Apr 09:36:51 | 6 | 8.3 mph | 10 | SSW (201°) | 99887 | 102042 | 24.8°C | 85.9% | 22.3°C | 1625ft (495m) | 13.33v | 13 |
| 4674 | 15 Apr 09:36:40 | 7 | 7.8 mph | 9 | SSW (204°) | 99887 | 102042 | 24.8°C | 86% | 22.3°C | 1617ft (493m) | 13.32v | 14 |
| 4673 | 15 Apr 09:36:29 | 5 | 5.6 mph | 7 | SSW (205°) | 99887 | 102042 | 24.8°C | 85.8% | 22.3°C | 1632ft (497m) | 13.32v | 14 |
| 4672 | 15 Apr 09:36:18 | 6 | 8.5 mph | 10 | SSW (195°) | 99889 | 102044 | 24.8°C | 85.5% | 22.2°C | 1656ft (505m) | 13.32v | 13 |
| 4671 | 15 Apr 09:36:06 | 6 | 6.5 mph | 7 | SSW (207°) | 99888 | 102043 | 24.8°C | 85.8% | 22.3°C | 1632ft (497m) | 13.32v | 14 |
| 4670 | 15 Apr 09:35:55 | 7 | 7.2 mph | 8 | SSW (212°) | 99890 | 102045 | 24.8°C | 85.8% | 22.3°C | 1632ft (497m) | 13.32v | 14 |
| 4669 | 15 Apr 09:35:44 | 7 | 8.2 mph | 9 | SSW (206°) | 99887 | 102042 | 24.8°C | 85.8% | 22.3°C | 1632ft (497m) | 13.3v | 16 |
| 4668 | 15 Apr 09:35:33 | 6 | 7.4 mph | 8 | SSW (212°) | 99888 | 102043 | 24.8°C | 85.7% | 22.2°C | 1640ft (500m) | 13.28v | 13 |
| 4667 | 15 Apr 09:35:21 | 5 | 6.4 mph | 7 | SSW (211°) | 99888 | 102043 | 24.8°C | 85.7% | 22.2°C | 1640ft (500m) | 13.3v | 14 |
| 4666 | 15 Apr 09:35:10 | 7 | 8.2 mph | 9 | SSW (210°) | 99884 | 102039 | 24.8°C | 85.6% | 22.2°C | 1648ft (502m) | 13.29v | 14 |
| 4665 | 15 Apr 09:34:59 | 5 | 6.1 mph | 7 | SSW (206°) | 99885 | 102040 | 24.8°C | 85.7% | 22.2°C | 1640ft (500m) | 13.31v | 15 |
| 4664 | 15 Apr 09:34:48 | 6 | 7.6 mph | 9 | SSW (208°) | 99887 | 102042 | 24.8°C | 85.5% | 22.2°C | 1656ft (505m) | 13.28v | 13 |
| 4663 | 15 Apr 09:34:36 | 9 | 9.4 mph | 10 | SSW (207°) | 99883 | 102037 | 24.8°C | 85.5% | 22.2°C | 1656ft (505m) | 13.29v | 13 |
| 4662 | 15 Apr 09:34:25 | 8 | 8.8 mph | 9 | SSW (202°) | 99886 | 102041 | 24.8°C | 85.6% | 22.2°C | 1648ft (502m) | 13.29v | 14 |
| 4661 | 15 Apr 09:34:14 | 8 | 8.5 mph | 9 | SSW (201°) | 99885 | 102040 | 24.8°C | 85.7% | 22.2°C | 1640ft (500m) | 13.27v | 14 |
| 4660 | 15 Apr 09:34:03 | 6 | 7.5 mph | 8 | SSW (200°) | 99882 | 102036 | 24.8°C | 85.7% | 22.2°C | 1640ft (500m) | 13.27v | 14 |
| 4659 | 15 Apr 09:33:51 | 7 | 8.5 mph | 11 | SSW (206°) | 99886 | 102041 | 24.8°C | 85.6% | 22.2°C | 1648ft (502m) | 13.28v | 15 |
| 4658 | 15 Apr 09:33:40 | 6 | 8.1 mph | 10 | SSW (193°) | 99885 | 102040 | 24.8°C | 85.7% | 22.2°C | 1640ft (500m) | 13.27v | 14 |
| 4657 | 15 Apr 09:33:29 | 8 | 8.9 mph | 10 | SSW (203°) | 99884 | 102039 | 24.8°C | 85.8% | 22.3°C | 1632ft (497m) | 13.28v | 13 |
| 4656 | 15 Apr 09:33:17 | 7 | 8.2 mph | 10 | SSW (205°) | 99880 | 102034 | 24.8°C | 85.8% | 22.3°C | 1632ft (497m) | 13.28v | 13 |
| 4655 | 15 Apr 09:33:06 | 8 | 7.9 mph | 9 | SSW (200°) | 99883 | 102037 | 24.8°C | 85.8% | 22.3°C | 1632ft (497m) | 13.27v | 14 |
| 4654 | 15 Apr 09:32:55 | 5 | 6.5 mph | 8 | SSW (204°) | 99881 | 102035 | 24.8°C | 85.9% | 22.3°C | 1625ft (495m) | 13.26v | 13 |
| 4653 | 15 Apr 09:32:44 | 6 | 7 mph | 8 | SSW (201°) | 99885 | 102040 | 24.8°C | 85.9% | 22.3°C | 1625ft (495m) | 13.27v | 14 |
| 4652 | 15 Apr 09:32:32 | 6 | 7.2 mph | 8 | SSW (209°) | 99881 | 102035 | 24.8°C | 86% | 22.3°C | 1617ft (493m) | 13.25v | 14 |
| 4651 | 15 Apr 09:32:21 | 6 | 6.1 mph | 7 | SW (221°) | 99881 | 102035 | 24.8°C | 86% | 22.3°C | 1617ft (493m) | 13.26v | 13 |
| 4650 | 15 Apr 09:32:10 | 5 | 6.8 mph | 9 | SSW (209°) | 99881 | 102035 | 24.8°C | 85.9% | 22.3°C | 1625ft (495m) | 13.24v | 14 |
| 4649 | 15 Apr 09:31:59 | 7 | 7.9 mph | 9 | SSW (205°) | 99880 | 102034 | 24.8°C | 86% | 22.3°C | 1617ft (493m) | 13.28v | 14 |
| 4648 | 15 Apr 09:31:47 | 6 | 6.4 mph | 8 | SSW (207°) | 99881 | 102035 | 24.8°C | 86% | 22.3°C | 1617ft (493m) | 13.27v | 16 |
| 4647 | 15 Apr 09:31:36 | 5 | 5.8 mph | 7 | SSW (208°) | 99883 | 102037 | 24.8°C | 86% | 22.3°C | 1617ft (493m) | 13.25v | 13 |
| 4646 | 15 Apr 09:31:25 | 6 | 7.9 mph | 9 | SSW (205°) | 99878 | 102032 | 24.7°C | 86% | 22.2°C | 1616ft (493m) | 13.25v | 14 |
| 4645 | 15 Apr 09:31:14 | 6 | 7.4 mph | 8 | SSW (205°) | 99879 | 102033 | 24.8°C | 86% | 22.3°C | 1617ft (493m) | 13.25v | 13 |
| 4644 | 15 Apr 09:31:02 | 9 | 10.8 mph | 12 | SSW (209°) | 99878 | 102032 | 24.8°C | 86% | 22.3°C | 1617ft (493m) | 13.26v | 14 |
| 4643 | 15 Apr 09:30:51 | 6 | 8.4 mph | 10 | SW (214°) | 99878 | 102032 | 24.8°C | 86.2% | 22.3°C | 1601ft (488m) | 13.24v | 13 |
| 4642 | 15 Apr 09:30:40 | 6 | 6.9 mph | 9 | SW (217°) | 99880 | 102034 | 24.7°C | 86.3% | 22.3°C | 1592ft (485m) | 13.24v | 13 |
| 4641 | 15 Apr 09:30:29 | 6 | 7.7 mph | 9 | SSW (209°) | 99875 | 102029 | 24.7°C | 86.1% | 22.2°C | 1608ft (490m) | 13.26v | 13 |
| 4640 | 15 Apr 09:30:18 | 5 | 6.1 mph | 7 | SSW (213°) | 99877 | 102031 | 24.7°C | 86.2% | 22.2°C | 1600ft (488m) | 13.26v | 13 |
| 4639 | 15 Apr 09:30:06 | 5 | 5.5 mph | 6 | SSW (203°) | 99877 | 102031 | 24.7°C | 86.1% | 22.2°C | 1608ft (490m) | 13.27v | 15 |
| 4638 | 15 Apr 09:29:55 | 6 | 7.2 mph | 8 | SW (225°) | 99878 | 102032 | 24.7°C | 86.1% | 22.2°C | 1608ft (490m) | 13.25v | 14 |
| 4637 | 15 Apr 09:29:44 | 5 | 5.7 mph | 6 | SSW (213°) | 99877 | 102031 | 24.7°C | 86.1% | 22.2°C | 1608ft (490m) | 13.27v | 13 |
| 4636 | 15 Apr 09:29:33 | 7 | 7.8 mph | 9 | SSW (198°) | 99875 | 102029 | 24.7°C | 86% | 22.2°C | 1616ft (493m) | 13.26v | 13 |
| 4635 | 15 Apr 09:29:21 | 6 | 7.8 mph | 9 | SSW (208°) | 99874 | 102028 | 24.7°C | 85.9% | 22.2°C | 1624ft (495m) | 13.26v | 13 |
| 4634 | 15 Apr 09:29:10 | 7 | 10 mph | 12 | SSW (205°) | 99875 | 102029 | 24.7°C | 85.8% | 22.2°C | 1632ft (497m) | 13.25v | 16 |
| 4633 | 15 Apr 09:28:59 | 7 | 8.9 mph | 11 | SSW (211°) | 99874 | 102028 | 24.7°C | 85.9% | 22.2°C | 1624ft (495m) | 13.27v | 13 |
| 4632 | 15 Apr 09:28:48 | 6 | 6.4 mph | 7 | SSW (207°) | 99867 | 102021 | 24.7°C | 86.1% | 22.2°C | 1608ft (490m) | 13.26v | 14 |
| 4631 | 15 Apr 09:28:36 | 5 | 6.9 mph | 9 | SSW (210°) | 99876 | 102030 | 24.7°C | 85.9% | 22.2°C | 1624ft (495m) | 13.26v | 14 |
| 4630 | 15 Apr 09:28:25 | 6 | 7.3 mph | 8 | SSW (213°) | 99872 | 102026 | 24.8°C | 85.8% | 22.3°C | 1632ft (497m) | 13.27v | 15 |
| 4629 | 15 Apr 09:28:14 | 7 | 8.3 mph | 10 | SW (215°) | 99872 | 102026 | 24.8°C | 85.7% | 22.2°C | 1640ft (500m) | 13.25v | 15 |
| 4628 | 15 Apr 09:28:03 | 8 | 9.8 mph | 11 | SSW (206°) | 99872 | 102026 | 24.7°C | 85.7% | 22.1°C | 1639ft (500m) | 13.27v | 15 |
| 4627 | 15 Apr 09:27:51 | 9 | 10.7 mph | 13 | SSW (197°) | 99874 | 102028 | 24.8°C | 85.5% | 22.2°C | 1656ft (505m) | 13.24v | 14 |
| 4626 | 15 Apr 09:27:40 | 8 | 9.8 mph | 11 | SSW (202°) | 99866 | 102020 | 24.8°C | 85.5% | 22.2°C | 1656ft (505m) | 13.27v | 14 |
| 4625 | 15 Apr 09:27:29 | 8 | 9.8 mph | 11 | SSW (202°) | 99871 | 102025 | 24.8°C | 85.6% | 22.2°C | 1648ft (502m) | 13.25v | 14 |
| 4624 | 15 Apr 09:27:18 | 6 | 7.7 mph | 9 | SSW (204°) | 99872 | 102026 | 24.8°C | 85.8% | 22.3°C | 1632ft (497m) | 13.26v | 13 |
| 4623 | 15 Apr 09:27:06 | 8 | 8.3 mph | 10 | SSW (213°) | 99872 | 102026 | 24.8°C | 85.6% | 22.2°C | 1648ft (502m) | 13.26v | 13 |
| 4622 | 15 Apr 09:26:55 | 6 | 7.1 mph | 8 | SSW (196°) | 99870 | 102024 | 24.8°C | 85.9% | 22.3°C | 1625ft (495m) | 13.27v | 14 |
| 4621 | 15 Apr 09:26:44 | 6 | 7.9 mph | 11 | SSW (202°) | 99873 | 102027 | 24.8°C | 85.9% | 22.3°C | 1625ft (495m) | 13.26v | 14 |
| 4620 | 15 Apr 09:26:33 | 5 | 5.9 mph | 7 | SW (216°) | 99872 | 102026 | 24.8°C | 85.9% | 22.3°C | 1625ft (495m) | 13.26v | 14 |
| 4619 | 15 Apr 09:26:21 | 5 | 6.1 mph | 7 | SW (219°) | 99871 | 102025 | 24.8°C | 85.8% | 22.3°C | 1632ft (497m) | 13.28v | 14 |
| 4618 | 15 Apr 09:26:10 | 5 | 5.2 mph | 6 | SW (217°) | 99872 | 102026 | 24.8°C | 85.8% | 22.3°C | 1632ft (497m) | 13.26v | 15 |
| 4617 | 15 Apr 09:25:59 | 8 | 9.2 mph | 10 | SSW (211°) | 99870 | 102024 | 24.8°C | 85.5% | 22.2°C | 1656ft (505m) | 13.26v | 14 |
| 4616 | 15 Apr 09:25:48 | 8 | 8.3 mph | 9 | SW (214°) | 99869 | 102023 | 24.8°C | 85.7% | 22.2°C | 1640ft (500m) | 13.28v | 16 |
| 4615 | 15 Apr 09:25:36 | 6 | 6.6 mph | 8 | SSW (211°) | 99868 | 102022 | 24.8°C | 85.9% | 22.3°C | 1625ft (495m) | 13.28v | 14 |
| 4614 | 15 Apr 09:25:25 | 7 | 8.1 mph | 9 | SW (214°) | 99868 | 102022 | 24.8°C | 85.9% | 22.3°C | 1625ft (495m) | 13.27v | 14 |
| 4613 | 15 Apr 09:25:14 | 6 | 7 mph | 9 | SSW (206°) | 99863 | 102017 | 24.8°C | 85.9% | 22.3°C | 1625ft (495m) | 13.28v | 13 |
| 4612 | 15 Apr 09:25:03 | 6 | 7 mph | 9 | SSW (209°) | 99866 | 102020 | 24.7°C | 86% | 22.2°C | 1616ft (493m) | 13.28v | 13 |
| 4611 | 15 Apr 09:24:51 | 6 | 6.6 mph | 9 | SSW (209°) | 99866 | 102020 | 24.7°C | 86% | 22.2°C | 1616ft (493m) | 13.28v | 13 |
| 4610 | 15 Apr 09:24:40 | 5 | 6.3 mph | 7 | SSW (208°) | 99868 | 102022 | 24.8°C | 86% | 22.3°C | 1617ft (493m) | 13.28v | 14 |
| 4609 | 15 Apr 09:24:29 | 6 | 7 mph | 8 | SSW (205°) | 99868 | 102022 | 24.8°C | 85.9% | 22.3°C | 1625ft (495m) | 13.28v | 13 |
| 4608 | 15 Apr 09:24:18 | 5 | 5.9 mph | 8 | SSW (206°) | 99870 | 102024 | 24.8°C | 85.9% | 22.3°C | 1625ft (495m) | 13.29v | 14 |
| 4607 | 15 Apr 09:24:06 | 6 | 7 mph | 8 | SW (216°) | 99868 | 102022 | 24.8°C | 85.9% | 22.3°C | 1625ft (495m) | 13.28v | 14 |
| 4606 | 15 Apr 09:23:55 | 5 | 7.1 mph | 9 | SSW (205°) | 99864 | 102018 | 24.8°C | 85.8% | 22.3°C | 1632ft (497m) | 13.27v | 17 |
| 4605 | 15 Apr 09:23:44 | 7 | 8.3 mph | 10 | SSW (195°) | 99866 | 102020 | 24.8°C | 85.7% | 22.2°C | 1640ft (500m) | 13.29v | 14 |
| 4604 | 15 Apr 09:23:33 | 6 | 7.1 mph | 8 | SSW (213°) | 99863 | 102017 | 24.8°C | 85.8% | 22.3°C | 1632ft (497m) | 13.28v | 15 |
| 4603 | 15 Apr 09:23:21 | 8 | 8.9 mph | 11 | SSW (199°) | 99859 | 102013 | 24.7°C | 85.8% | 22.2°C | 1632ft (497m) | 13.29v | 13 |
| 4602 | 15 Apr 09:23:10 | 8 | 8.7 mph | 9 | SSW (201°) | 99865 | 102019 | 24.7°C | 85.8% | 22.2°C | 1632ft (497m) | 13.29v | 14 |
| 4601 | 15 Apr 09:22:59 | 10 | 10.3 mph | 11 | SSW (201°) | 99857 | 102011 | 24.7°C | 85.7% | 22.1°C | 1639ft (500m) | 13.29v | 14 |
| 4600 | 15 Apr 09:22:48 | 7 | 10.4 mph | 12 | SSW (212°) | 99855 | 102009 | 24.7°C | 85.7% | 22.1°C | 1639ft (500m) | 13.31v | 15 |
| 4599 | 15 Apr 09:22:36 | 5 | 5.3 mph | 6 | SSW (213°) | 99863 | 102017 | 24.7°C | 85.8% | 22.2°C | 1632ft (497m) | 13.32v | 16 |
| 4598 | 15 Apr 09:22:25 | 7 | 7.1 mph | 8 | SSW (212°) | 99861 | 102015 | 24.8°C | 85.8% | 22.3°C | 1632ft (497m) | 13.3v | 13 |
| 4597 | 15 Apr 09:22:14 | 6 | 6 mph | 6 | SSW (206°) | 99862 | 102016 | 24.8°C | 85.8% | 22.3°C | 1632ft (497m) | 13.31v | 13 |
| 4596 | 15 Apr 09:22:03 | 6 | 7.2 mph | 9 | SSW (204°) | 99862 | 102016 | 24.7°C | 85.8% | 22.2°C | 1632ft (497m) | 13.31v | 14 |
| 4595 | 15 Apr 09:21:51 | 9 | 9.3 mph | 10 | SSW (201°) | 99859 | 102013 | 24.7°C | 85.5% | 22.1°C | 1655ft (504m) | 13.31v | 14 |
| 4594 | 15 Apr 09:21:40 | 6 | 7.7 mph | 10 | S (190°) | 99857 | 102011 | 24.8°C | 85.7% | 22.2°C | 1640ft (500m) | 13.3v | 17 |
| 4593 | 15 Apr 09:21:29 | 7 | 7.7 mph | 9 | SW (217°) | 99857 | 102011 | 24.8°C | 85.6% | 22.2°C | 1648ft (502m) | 13.32v | 13 |
| 4592 | 15 Apr 09:21:18 | 8 | 9.3 mph | 11 | SSW (205°) | 99857 | 102011 | 24.8°C | 85.6% | 22.2°C | 1648ft (502m) | 13.32v | 15 |
| 4591 | 15 Apr 09:21:06 | 7 | 8.4 mph | 11 | SSW (196°) | 99857 | 102011 | 24.7°C | 85.6% | 22.1°C | 1647ft (502m) | 13.34v | 15 |
| 4590 | 15 Apr 09:20:55 | 8 | 10.2 mph | 12 | SSW (213°) | 99855 | 102009 | 24.8°C | 85.4% | 22.2°C | 1664ft (507m) | 13.33v | 14 |
| 4589 | 15 Apr 09:20:44 | 8 | 10.7 mph | 13 | SSW (204°) | 99848 | 102002 | 24.8°C | 85.5% | 22.2°C | 1656ft (505m) | 13.35v | 15 |
| 4588 | 15 Apr 09:20:33 | 8 | 10.1 mph | 13 | SSW (201°) | 99858 | 102012 | 24.8°C | 85.4% | 22.2°C | 1664ft (507m) | 13.35v | 17 |
| 4587 | 15 Apr 09:20:21 | 6 | 7.9 mph | 12 | SSW (212°) | 99851 | 102005 | 24.8°C | 85.7% | 22.2°C | 1640ft (500m) | 13.35v | 14 |
| 4586 | 15 Apr 09:20:10 | 7 | 7.2 mph | 8 | SSW (211°) | 99856 | 102010 | 24.8°C | 85.6% | 22.2°C | 1648ft (502m) | 13.32v | 13 |
| 4585 | 15 Apr 09:19:59 | 7 | 8.6 mph | 10 | SW (214°) | 99857 | 102011 | 24.8°C | 85.6% | 22.2°C | 1648ft (502m) | 13.35v | 14 |
| 4584 | 15 Apr 09:19:48 | 9 | 10 mph | 12 | SSW (203°) | 99851 | 102005 | 24.8°C | 85.6% | 22.2°C | 1648ft (502m) | 13.33v | 17 |
| 4583 | 15 Apr 09:19:36 | 6 | 8.1 mph | 11 | SSW (208°) | 99854 | 102008 | 24.8°C | 85.6% | 22.2°C | 1648ft (502m) | 13.36v | 14 |
| 4582 | 15 Apr 09:19:25 | 7 | 7.9 mph | 9 | SW (218°) | 99857 | 102011 | 24.8°C | 85.7% | 22.2°C | 1640ft (500m) | 13.36v | 13 |
| 4581 | 15 Apr 09:19:14 | 8 | 8.3 mph | 9 | SW (220°) | 99854 | 102008 | 24.8°C | 85.7% | 22.2°C | 1640ft (500m) | 13.35v | 14 |
| 4580 | 15 Apr 09:19:03 | 9 | 10.1 mph | 12 | SSW (212°) | 99851 | 102005 | 24.7°C | 85.6% | 22.1°C | 1647ft (502m) | 13.34v | 14 |
| 4579 | 15 Apr 09:18:51 | 8 | 9.4 mph | 11 | SSW (207°) | 99854 | 102008 | 24.8°C | 85.7% | 22.2°C | 1640ft (500m) | 13.36v | 15 |
| 4578 | 15 Apr 09:18:40 | 7 | 7.7 mph | 9 | SW (217°) | 99856 | 102010 | 24.7°C | 85.9% | 22.2°C | 1624ft (495m) | 13.35v | 14 |
| 4577 | 15 Apr 09:18:29 | 8 | 8.6 mph | 10 | SSW (212°) | 99857 | 102011 | 24.7°C | 85.9% | 22.2°C | 1624ft (495m) | 13.36v | 14 |
| 4576 | 15 Apr 09:18:18 | 7 | 7.5 mph | 8 | SSW (212°) | 99857 | 102011 | 24.7°C | 85.9% | 22.2°C | 1624ft (495m) | 13.35v | 15 |
| 4575 | 15 Apr 09:18:06 | 8 | 9.6 mph | 11 | SSW (206°) | 99853 | 102007 | 24.8°C | 85.8% | 22.3°C | 1632ft (497m) | 13.37v | 15 |
| 4574 | 15 Apr 09:17:55 | 6 | 6.4 mph | 8 | SW (215°) | 99852 | 102006 | 24.8°C | 85.9% | 22.3°C | 1625ft (495m) | 13.37v | 16 |
| 4573 | 15 Apr 09:17:44 | 6 | 6.7 mph | 9 | SSW (207°) | 99852 | 102006 | 24.7°C | 85.8% | 22.2°C | 1632ft (497m) | 13.36v | 15 |
| 4572 | 15 Apr 09:17:33 | 8 | 8.9 mph | 10 | SSW (204°) | 99850 | 102004 | 24.7°C | 85.8% | 22.2°C | 1632ft (497m) | 13.36v | 15 |
| 4571 | 15 Apr 09:17:21 | 6 | 7.4 mph | 10 | SW (216°) | 99856 | 102010 | 24.7°C | 85.9% | 22.2°C | 1624ft (495m) | 13.37v | 15 |
| 4570 | 15 Apr 09:17:10 | 6 | 6.5 mph | 7 | SSW (208°) | 99852 | 102006 | 24.7°C | 85.8% | 22.2°C | 1632ft (497m) | 13.36v | 14 |
| 4569 | 15 Apr 09:16:59 | 5 | 6.6 mph | 8 | SW (216°) | 99855 | 102009 | 24.7°C | 85.8% | 22.2°C | 1632ft (497m) | 13.38v | 14 |
| 4568 | 15 Apr 09:16:48 | 5 | 6 mph | 7 | SSW (213°) | 99853 | 102007 | 24.7°C | 85.8% | 22.2°C | 1632ft (497m) | 13.37v | 16 |
| 4567 | 15 Apr 09:16:36 | 7 | 7.9 mph | 9 | SSW (204°) | 99857 | 102011 | 24.7°C | 85.7% | 22.1°C | 1639ft (500m) | 13.39v | 16 |
| 4566 | 15 Apr 09:16:25 | 7 | 8.7 mph | 10 | SSW (207°) | 99851 | 102005 | 24.7°C | 85.6% | 22.1°C | 1647ft (502m) | 13.38v | 15 |
| 4565 | 15 Apr 09:16:14 | 9 | 9.9 mph | 11 | SSW (210°) | 99852 | 102006 | 24.7°C | 85.6% | 22.1°C | 1647ft (502m) | 13.39v | 16 |
| 4564 | 15 Apr 09:16:03 | 9 | 10.3 mph | 13 | SSW (205°) | 99852 | 102006 | 24.7°C | 85.6% | 22.1°C | 1647ft (502m) | 13.38v | 14 |
| 4563 | 15 Apr 09:15:51 | 8 | 8.6 mph | 10 | SSW (203°) | 99850 | 102004 | 24.7°C | 85.8% | 22.2°C | 1632ft (497m) | 13.38v | 16 |
| 4562 | 15 Apr 09:15:40 | 7 | 8.3 mph | 11 | SSW (207°) | 99852 | 102006 | 24.7°C | 85.7% | 22.1°C | 1639ft (500m) | 13.39v | 14 |
| 4561 | 15 Apr 09:15:29 | 8 | 8.9 mph | 10 | SSW (195°) | 99848 | 102002 | 24.7°C | 85.8% | 22.2°C | 1632ft (497m) | 13.38v | 14 |
| 4560 | 15 Apr 09:15:18 | 9 | 9.7 mph | 11 | SSW (202°) | 99855 | 102009 | 24.7°C | 85.7% | 22.1°C | 1639ft (500m) | 13.39v | 15 |
| 4559 | 15 Apr 09:15:06 | 7 | 7.4 mph | 9 | SSW (203°) | 99853 | 102007 | 24.7°C | 85.7% | 22.1°C | 1639ft (500m) | 13.39v | 15 |
| 4558 | 15 Apr 09:14:55 | 9 | 10 mph | 11 | SSW (208°) | 99856 | 102010 | 24.7°C | 85.7% | 22.1°C | 1639ft (500m) | 13.39v | 16 |
| 4557 | 15 Apr 09:14:44 | 8 | 9.2 mph | 11 | SSW (209°) | 99855 | 102009 | 24.7°C | 85.7% | 22.1°C | 1639ft (500m) | 13.39v | 15 |
| 4556 | 15 Apr 09:14:33 | 6 | 6.8 mph | 8 | SW (214°) | 99855 | 102009 | 24.7°C | 86% | 22.2°C | 1616ft (493m) | 13.39v | 17 |
| 4555 | 15 Apr 09:14:21 | 6 | 7 mph | 8 | SSW (208°) | 99854 | 102008 | 24.7°C | 86% | 22.2°C | 1616ft (493m) | 13.39v | 15 |
| 4554 | 15 Apr 09:14:10 | 5 | 6.6 mph | 7 | SW (219°) | 99857 | 102011 | 24.7°C | 85.9% | 22.2°C | 1624ft (495m) | 13.38v | 15 |
| 4553 | 15 Apr 09:13:59 | 5 | 5.9 mph | 7 | SW (217°) | 99855 | 102009 | 24.7°C | 85.8% | 22.2°C | 1632ft (497m) | 13.38v | 16 |
| 4552 | 15 Apr 09:13:48 | 6 | 7 mph | 8 | SW (221°) | 99856 | 102010 | 24.7°C | 85.7% | 22.1°C | 1639ft (500m) | 13.37v | 15 |
| 4551 | 15 Apr 09:13:36 | 6 | 7.9 mph | 9 | SSW (209°) | 99853 | 102007 | 24.7°C | 85.8% | 22.2°C | 1632ft (497m) | 13.39v | 13 |
| 4550 | 15 Apr 09:13:25 | 7 | 8 mph | 11 | SSW (213°) | 99852 | 102006 | 24.7°C | 85.5% | 22.1°C | 1655ft (504m) | 13.39v | 15 |
| 4549 | 15 Apr 09:13:14 | 9 | 9.7 mph | 11 | SSW (200°) | 99850 | 102004 | 24.7°C | 85.4% | 22.1°C | 1663ft (507m) | 13.39v | 16 |
| 4548 | 15 Apr 09:13:03 | 9 | 9.5 mph | 11 | SSW (205°) | 99857 | 102011 | 24.7°C | 85.3% | 22.1°C | 1671ft (509m) | 13.4v | 13 |
| 4547 | 15 Apr 09:12:51 | 8 | 9.1 mph | 11 | SW (214°) | 99853 | 102007 | 24.7°C | 85.3% | 22.1°C | 1671ft (509m) | 13.39v | 14 |
| 4546 | 15 Apr 09:12:40 | 6 | 8.3 mph | 10 | SSW (206°) | 99852 | 102006 | 24.7°C | 85.3% | 22.1°C | 1671ft (509m) | 13.38v | 15 |
| 4545 | 15 Apr 09:12:29 | 8 | 9 mph | 10 | SSW (210°) | 99851 | 102005 | 24.7°C | 85.4% | 22.1°C | 1663ft (507m) | 13.37v | 15 |
| 4544 | 15 Apr 09:12:18 | 6 | 7.9 mph | 10 | SW (214°) | 99852 | 102006 | 24.7°C | 85.4% | 22.1°C | 1663ft (507m) | 13.39v | 17 |
| 4543 | 15 Apr 09:12:06 | 8 | 9.3 mph | 11 | SW (216°) | 99854 | 102008 | 24.7°C | 85.4% | 22.1°C | 1663ft (507m) | 13.38v | 15 |
| 4542 | 15 Apr 09:11:55 | 6 | 6.7 mph | 9 | SW (222°) | 99855 | 102009 | 24.7°C | 85.5% | 22.1°C | 1655ft (504m) | 13.38v | 16 |
| 4541 | 15 Apr 09:11:44 | 7 | 7.4 mph | 8 | SSW (204°) | 99856 | 102010 | 24.7°C | 85.5% | 22.1°C | 1655ft (504m) | 13.38v | 15 |
| 4540 | 15 Apr 09:11:33 | 6 | 7.2 mph | 9 | SSW (208°) | 99856 | 102010 | 24.7°C | 85.6% | 22.1°C | 1647ft (502m) | 13.37v | 14 |
| 4539 | 15 Apr 09:11:21 | 9 | 9.7 mph | 11 | SSW (208°) | 99858 | 102012 | 24.7°C | 85.5% | 22.1°C | 1655ft (504m) | 13.38v | 15 |
| 4538 | 15 Apr 09:11:10 | 8 | 8.7 mph | 11 | SW (214°) | 99858 | 102012 | 24.7°C | 85.6% | 22.1°C | 1647ft (502m) | 13.36v | 15 |
| 4537 | 15 Apr 09:10:59 | 6 | 6.7 mph | 8 | SSW (213°) | 99855 | 102009 | 24.7°C | 85.6% | 22.1°C | 1647ft (502m) | 13.36v | 17 |
| 4536 | 15 Apr 09:10:48 | 7 | 8.3 mph | 9 | SW (215°) | 99856 | 102010 | 24.7°C | 85.5% | 22.1°C | 1655ft (504m) | 13.35v | 16 |
| 4535 | 15 Apr 09:10:36 | 6 | 7.7 mph | 9 | SW (215°) | 99853 | 102007 | 24.7°C | 85.5% | 22.1°C | 1655ft (504m) | 13.37v | 16 |
| 4534 | 15 Apr 09:10:25 | 6 | 7.3 mph | 9 | SSW (212°) | 99855 | 102009 | 24.7°C | 85.5% | 22.1°C | 1655ft (504m) | 13.37v | 14 |
| 4533 | 15 Apr 09:10:14 | 8 | 9.2 mph | 10 | SSW (205°) | 99854 | 102008 | 24.7°C | 85.4% | 22.1°C | 1663ft (507m) | 13.38v | 14 |
| 4532 | 15 Apr 09:10:03 | 8 | 8.8 mph | 9 | SSW (210°) | 99856 | 102010 | 24.7°C | 85.3% | 22.1°C | 1671ft (509m) | 13.36v | 16 |
| 4531 | 15 Apr 09:09:51 | 8 | 9.3 mph | 11 | S (191°) | 99852 | 102006 | 24.7°C | 85.4% | 22.1°C | 1663ft (507m) | 13.35v | 16 |
| 4530 | 15 Apr 09:09:40 | 9 | 9.9 mph | 11 | SSW (197°) | 99856 | 102010 | 24.7°C | 85.3% | 22.1°C | 1671ft (509m) | 13.36v | 14 |
| 4529 | 15 Apr 09:09:29 | 8 | 9.8 mph | 12 | SSW (202°) | 99853 | 102007 | 24.7°C | 85.4% | 22.1°C | 1663ft (507m) | 13.34v | 15 |
| 4528 | 15 Apr 09:09:18 | 7 | 9.2 mph | 12 | SSW (209°) | 99849 | 102003 | 24.7°C | 85.4% | 22.1°C | 1663ft (507m) | 13.33v | 16 |
| 4527 | 15 Apr 09:09:06 | 6 | 6.9 mph | 8 | SSW (200°) | 99855 | 102009 | 24.7°C | 85.6% | 22.1°C | 1647ft (502m) | 13.34v | 15 |
| 4526 | 15 Apr 09:08:55 | 6 | 7.1 mph | 8 | SSW (203°) | 99850 | 102004 | 24.7°C | 85.5% | 22.1°C | 1655ft (504m) | 13.36v | 13 |
| 4525 | 15 Apr 09:08:44 | 8 | 9.8 mph | 11 | SSW (210°) | 99855 | 102009 | 24.7°C | 85.4% | 22.1°C | 1663ft (507m) | 13.35v | 13 |
| 4524 | 15 Apr 09:08:33 | 8 | 10.2 mph | 11 | SSW (209°) | 99853 | 102007 | 24.7°C | 85.3% | 22.1°C | 1671ft (509m) | 13.36v | 13 |
| 4523 | 15 Apr 09:08:21 | 6 | 7.1 mph | 8 | SW (218°) | 99852 | 102006 | 24.7°C | 85.5% | 22.1°C | 1655ft (504m) | 13.34v | 13 |
| 4522 | 15 Apr 09:08:10 | 6 | 8.5 mph | 10 | SSW (210°) | 99852 | 102006 | 24.7°C | 85.4% | 22.1°C | 1663ft (507m) | 13.33v | 13 |
| 4521 | 15 Apr 09:07:59 | 9 | 10.1 mph | 11 | SSW (207°) | 99852 | 102006 | 24.7°C | 85.4% | 22.1°C | 1663ft (507m) | 13.33v | 17 |
| 4520 | 15 Apr 09:07:48 | 9 | 9.7 mph | 11 | SSW (211°) | 99848 | 102002 | 24.7°C | 85.5% | 22.1°C | 1655ft (504m) | 13.33v | 13 |
| 4519 | 15 Apr 09:07:36 | 7 | 7.9 mph | 9 | SSW (213°) | 99853 | 102007 | 24.7°C | 85.7% | 22.1°C | 1639ft (500m) | 13.33v | 14 |
| 4518 | 15 Apr 09:07:25 | 7 | 7.8 mph | 9 | SW (216°) | 99853 | 102007 | 24.7°C | 85.7% | 22.1°C | 1639ft (500m) | 13.33v | 14 |
| 4517 | 15 Apr 09:07:14 | 6 | 6.9 mph | 8 | SSW (206°) | 99852 | 102006 | 24.7°C | 85.7% | 22.1°C | 1639ft (500m) | 13.34v | 13 |
| 4516 | 15 Apr 09:07:03 | 5 | 6.4 mph | 8 | SSW (208°) | 99849 | 102003 | 24.6°C | 85.7% | 22°C | 1639ft (500m) | 13.33v | 13 |
| 4515 | 15 Apr 09:06:51 | 5 | 5.5 mph | 6 | SSW (210°) | 99853 | 102007 | 24.6°C | 85.7% | 22°C | 1639ft (500m) | 13.31v | 13 |
| 4514 | 15 Apr 09:06:40 | 5 | 6.3 mph | 8 | SSW (202°) | 99852 | 102006 | 24.6°C | 85.6% | 22°C | 1647ft (502m) | 13.31v | 16 |
| 4513 | 15 Apr 09:06:29 | 6 | 7.1 mph | 8 | SW (217°) | 99852 | 102006 | 24.7°C | 85.6% | 22.1°C | 1647ft (502m) | 13.31v | 13 |
| 4512 | 15 Apr 09:06:18 | 4 | 5 mph | 6 | SW (217°) | 99853 | 102007 | 24.6°C | 85.4% | 22°C | 1662ft (507m) | 13.3v | 15 |
| 4511 | 15 Apr 09:06:06 | 7 | 7.8 mph | 8 | SSW (206°) | 99851 | 102005 | 24.6°C | 85.3% | 22°C | 1670ft (509m) | 13.3v | 14 |
| 4510 | 15 Apr 09:05:55 | 7 | 8.1 mph | 9 | SSW (209°) | 99850 | 102004 | 24.6°C | 85.4% | 22°C | 1662ft (507m) | 13.31v | 15 |
| 4509 | 15 Apr 09:05:44 | 7 | 7.8 mph | 9 | SSW (213°) | 99850 | 102004 | 24.6°C | 85.3% | 22°C | 1670ft (509m) | 13.32v | 13 |
| 4508 | 15 Apr 09:05:33 | 7 | 9.2 mph | 10 | SSW (211°) | 99850 | 102004 | 24.6°C | 85.2% | 21.9°C | 1678ft (511m) | 13.33v | 14 |
| 4507 | 15 Apr 09:05:21 | 8 | 8.8 mph | 11 | SSW (212°) | 99852 | 102006 | 24.6°C | 85.4% | 22°C | 1662ft (507m) | 13.32v | 14 |
| 4506 | 15 Apr 09:05:10 | 6 | 6.5 mph | 8 | SSW (208°) | 99845 | 101999 | 24.6°C | 85.4% | 22°C | 1662ft (507m) | 13.33v | 16 |
| 4505 | 15 Apr 09:04:59 | 7 | 8.4 mph | 10 | SW (222°) | 99849 | 102003 | 24.6°C | 85.5% | 22°C | 1654ft (504m) | 13.31v | 13 |
| 4504 | 15 Apr 09:04:48 | 7 | 7.9 mph | 10 | SSW (211°) | 99851 | 102005 | 24.6°C | 85.5% | 22°C | 1654ft (504m) | 13.32v | 14 |
| 4503 | 15 Apr 09:04:36 | 5 | 7.5 mph | 10 | SSW (203°) | 99851 | 102005 | 24.6°C | 85.5% | 22°C | 1654ft (504m) | 13.31v | 12 |
| 4502 | 15 Apr 09:04:25 | 5 | 7 mph | 9 | SW (215°) | 99849 | 102003 | 24.6°C | 85.5% | 22°C | 1654ft (504m) | 13.31v | 15 |
| 4501 | 15 Apr 09:04:14 | 6 | 7.5 mph | 9 | SSW (208°) | 99849 | 102003 | 24.6°C | 85.5% | 22°C | 1654ft (504m) | 13.32v | 13 |
| 4500 | 15 Apr 09:04:03 | 7 | 8.6 mph | 11 | SSW (203°) | 99848 | 102002 | 24.6°C | 85.5% | 22°C | 1654ft (504m) | 13.32v | 13 |
| 4499 | 15 Apr 09:03:51 | 7 | 7.7 mph | 9 | SSW (211°) | 99848 | 102002 | 24.6°C | 85.6% | 22°C | 1647ft (502m) | 13.3v | 15 |
| 4498 | 15 Apr 09:03:40 | 4 | 6.5 mph | 9 | SSW (192°) | 99846 | 102000 | 24.6°C | 85.5% | 22°C | 1654ft (504m) | 13.31v | 16 |
| 4497 | 15 Apr 09:03:29 | 9 | 9.2 mph | 10 | SSW (192°) | 99847 | 102001 | 24.6°C | 85.4% | 22°C | 1662ft (507m) | 13.31v | 16 |
| 4496 | 15 Apr 09:03:17 | 6 | 7.3 mph | 8 | SW (216°) | 99844 | 101998 | 24.6°C | 85.4% | 22°C | 1662ft (507m) | 13.31v | 14 |
| 4495 | 15 Apr 09:03:06 | 9 | 10.3 mph | 12 | SSW (200°) | 99844 | 101998 | 24.6°C | 85.4% | 22°C | 1662ft (507m) | 13.29v | 14 |
| 4494 | 15 Apr 09:02:55 | 6 | 6.3 mph | 7 | SW (215°) | 99849 | 102003 | 24.6°C | 85.4% | 22°C | 1662ft (507m) | 13.29v | 14 |
| 4493 | 15 Apr 09:02:44 | 7 | 8.3 mph | 9 | SW (216°) | 99846 | 102000 | 24.6°C | 85.4% | 22°C | 1662ft (507m) | 13.3v | 15 |
| 4492 | 15 Apr 09:02:32 | 6 | 7.1 mph | 9 | SSW (207°) | 99844 | 101998 | 24.6°C | 85.4% | 22°C | 1662ft (507m) | 13.3v | 14 |
| 4491 | 15 Apr 09:02:21 | 10 | 10.5 mph | 12 | SW (216°) | 99844 | 101998 | 24.6°C | 85.1% | 21.9°C | 1686ft (514m) | 13.29v | 14 |
| 4490 | 15 Apr 09:02:10 | 7 | 7.7 mph | 9 | SW (221°) | 99846 | 102000 | 24.6°C | 85.4% | 22°C | 1662ft (507m) | 13.28v | 13 |
| 4489 | 15 Apr 09:01:59 | 5 | 6 mph | 7 | SW (224°) | 99846 | 102000 | 24.6°C | 85.4% | 22°C | 1662ft (507m) | 13.29v | 16 |
| 4488 | 15 Apr 09:01:47 | 7 | 7.5 mph | 8 | SSW (206°) | 99845 | 101999 | 24.6°C | 85.4% | 22°C | 1662ft (507m) | 13.28v | 15 |
| 4487 | 15 Apr 09:01:36 | 5 | 6.6 mph | 8 | SSW (209°) | 99845 | 101999 | 24.6°C | 85.3% | 22°C | 1670ft (509m) | 13.27v | 14 |
| 4486 | 15 Apr 09:01:25 | 6 | 7.4 mph | 9 | SSW (202°) | 99848 | 102002 | 24.6°C | 85.2% | 21.9°C | 1678ft (511m) | 13.26v | 15 |
| 4485 | 15 Apr 09:01:14 | 9 | 10.6 mph | 13 | SSW (204°) | 99843 | 101997 | 24.6°C | 85.1% | 21.9°C | 1686ft (514m) | 13.3v | 14 |
| 4484 | 15 Apr 09:01:02 | 8 | 9.4 mph | 11 | SSW (206°) | 99842 | 101996 | 24.6°C | 84.9% | 21.9°C | 1702ft (519m) | 13.29v | 15 |
| 4483 | 15 Apr 09:00:51 | 10 | 11.1 mph | 13 | SSW (210°) | 99845 | 101999 | 24.6°C | 85% | 21.9°C | 1694ft (516m) | 13.27v | 13 |
| 4482 | 15 Apr 09:00:40 | 10 | 10.6 mph | 12 | SSW (209°) | 99842 | 101996 | 24.6°C | 85.2% | 21.9°C | 1678ft (511m) | 13.29v | 15 |
| 4481 | 15 Apr 09:00:29 | 7 | 8.1 mph | 10 | SSW (202°) | 99844 | 101998 | 24.6°C | 85.3% | 22°C | 1670ft (509m) | 13.27v | 14 |
| 4480 | 15 Apr 09:00:18 | 6 | 8.8 mph | 12 | SW (219°) | 99844 | 101998 | 24.6°C | 85.1% | 21.9°C | 1686ft (514m) | 13.28v | 14 |
| 4479 | 15 Apr 09:00:06 | 12 | 13.5 mph | 14 | SW (216°) | 99841 | 101995 | 24.7°C | 85% | 22°C | 1695ft (517m) | 13.27v | 16 |
| 4478 | 15 Apr 08:59:55 | 8 | 11 mph | 14 | SSW (197°) | 99844 | 101998 | 24.7°C | 85.2% | 22°C | 1679ft (512m) | 13.28v | 14 |
| 4477 | 15 Apr 08:59:44 | 7 | 8.5 mph | 10 | SSW (213°) | 99843 | 101997 | 24.7°C | 85.2% | 22°C | 1679ft (512m) | 13.28v | 16 |
| 4476 | 15 Apr 08:59:33 | 7 | 8.4 mph | 10 | SSW (208°) | 99842 | 101996 | 24.7°C | 85% | 22°C | 1695ft (517m) | 13.29v | 16 |
| 4475 | 15 Apr 08:59:21 | 7 | 7.7 mph | 9 | SSW (211°) | 99842 | 101996 | 24.7°C | 85.2% | 22°C | 1679ft (512m) | 13.3v | 13 |
| 4474 | 15 Apr 08:59:10 | 5 | 5.7 mph | 6 | SW (218°) | 99845 | 101999 | 24.7°C | 85.3% | 22.1°C | 1671ft (509m) | 13.28v | 16 |
| 4473 | 15 Apr 08:58:59 | 6 | 6.6 mph | 7 | SW (226°) | 99843 | 101997 | 24.7°C | 85.2% | 22°C | 1679ft (512m) | 13.28v | 16 |
| 4472 | 15 Apr 08:58:48 | 7 | 7.6 mph | 9 | SSW (209°) | 99841 | 101995 | 24.7°C | 85.1% | 22°C | 1687ft (514m) | 13.27v | 15 |
| 4471 | 15 Apr 08:58:36 | 6 | 6.1 mph | 7 | SSW (211°) | 99841 | 101995 | 24.7°C | 85.2% | 22°C | 1679ft (512m) | 13.26v | 14 |
| 4470 | 15 Apr 08:58:25 | 7 | 7.8 mph | 9 | SSW (198°) | 99840 | 101994 | 24.7°C | 85.1% | 22°C | 1687ft (514m) | 13.27v | 16 |
| 4469 | 15 Apr 08:58:14 | 9 | 10.8 mph | 13 | SSW (198°) | 99844 | 101998 | 24.7°C | 84.8% | 22°C | 1710ft (521m) | 13.28v | 13 |
| 4468 | 15 Apr 08:58:03 | 9 | 10.8 mph | 12 | SSW (200°) | 99833 | 101986 | 24.7°C | 85% | 22°C | 1695ft (517m) | 13.29v | 13 |
| 4467 | 15 Apr 08:57:51 | 6 | 7 mph | 8 | SSW (211°) | 99842 | 101996 | 24.6°C | 85.1% | 21.9°C | 1686ft (514m) | 13.28v | 13 |
| 4466 | 15 Apr 08:57:40 | 8 | 8.7 mph | 10 | SSW (213°) | 99837 | 101990 | 24.7°C | 85.2% | 22°C | 1679ft (512m) | 13.27v | 16 |
| 4465 | 15 Apr 08:57:29 | 10 | 10.9 mph | 12 | SSW (206°) | 99837 | 101990 | 24.7°C | 85.2% | 22°C | 1679ft (512m) | 13.28v | 15 |
| 4464 | 15 Apr 08:57:18 | 5 | 7.2 mph | 11 | SW (216°) | 99834 | 101987 | 24.7°C | 85.3% | 22.1°C | 1671ft (509m) | 13.28v | 13 |
| 4463 | 15 Apr 08:57:06 | 4 | 5.1 mph | 7 | SW (221°) | 99840 | 101994 | 24.7°C | 85.3% | 22.1°C | 1671ft (509m) | 13.29v | 16 |
| 4462 | 15 Apr 08:56:55 | 7 | 7.2 mph | 8 | SW (215°) | 99841 | 101995 | 24.7°C | 85.3% | 22.1°C | 1671ft (509m) | 13.29v | 14 |
| 4461 | 15 Apr 08:56:44 | 6 | 7.2 mph | 9 | SW (217°) | 99834 | 101987 | 24.7°C | 85.4% | 22.1°C | 1663ft (507m) | 13.28v | 14 |
| 4460 | 15 Apr 08:56:33 | 4 | 7 mph | 10 | SSW (209°) | 99833 | 101986 | 24.6°C | 85.5% | 22°C | 1654ft (504m) | 13.29v | 14 |
| 4459 | 15 Apr 08:56:21 | 5 | 5.6 mph | 7 | SSW (210°) | 99835 | 101988 | 24.7°C | 85.4% | 22.1°C | 1663ft (507m) | 13.3v | 13 |
| 4458 | 15 Apr 08:56:10 | 5 | 5.7 mph | 6 | SW (214°) | 99838 | 101992 | 24.7°C | 85.4% | 22.1°C | 1663ft (507m) | 13.27v | 13 |
| 4457 | 15 Apr 08:55:59 | 6 | 7.1 mph | 9 | SSW (208°) | 99836 | 101989 | 24.7°C | 85.4% | 22.1°C | 1663ft (507m) | 13.28v | 13 |
| 4456 | 15 Apr 08:55:48 | 6 | 7.1 mph | 8 | SSW (206°) | 99834 | 101987 | 24.7°C | 85.4% | 22.1°C | 1663ft (507m) | 13.29v | 14 |
| 4455 | 15 Apr 08:55:36 | 6 | 7.2 mph | 9 | SSW (207°) | 99837 | 101990 | 24.7°C | 85.5% | 22.1°C | 1655ft (504m) | 13.27v | 16 |
| 4454 | 15 Apr 08:55:25 | 5 | 5.6 mph | 7 | SSW (209°) | 99836 | 101989 | 24.7°C | 85.5% | 22.1°C | 1655ft (504m) | 13.28v | 14 |
| 4453 | 15 Apr 08:55:14 | 5 | 5.5 mph | 6 | SSW (209°) | 99837 | 101990 | 24.6°C | 85.6% | 22°C | 1647ft (502m) | 13.28v | 13 |
| 4452 | 15 Apr 08:55:03 | 6 | 6.6 mph | 8 | SW (215°) | 99836 | 101989 | 24.6°C | 85.5% | 22°C | 1654ft (504m) | 13.3v | 15 |
| 4451 | 15 Apr 08:54:51 | 5 | 5.6 mph | 7 | SW (214°) | 99828 | 101981 | 24.6°C | 85.6% | 22°C | 1647ft (502m) | 13.29v | 15 |
| 4450 | 15 Apr 08:54:40 | 6 | 6.7 mph | 8 | SSW (209°) | 99834 | 101987 | 24.6°C | 85.5% | 22°C | 1654ft (504m) | 13.3v | 13 |
| 4449 | 15 Apr 08:54:29 | 6 | 6.5 mph | 7 | SW (222°) | 99834 | 101987 | 24.6°C | 85.5% | 22°C | 1654ft (504m) | 13.28v | 16 |
| 4448 | 15 Apr 08:54:18 | 4 | 4.8 mph | 6 | SW (220°) | 99835 | 101988 | 24.6°C | 85.4% | 22°C | 1662ft (507m) | 13.28v | 16 |
| 4447 | 15 Apr 08:54:06 | 5 | 5.5 mph | 6 | SSW (209°) | 99833 | 101986 | 24.6°C | 85.4% | 22°C | 1662ft (507m) | 13.26v | 15 |
| 4446 | 15 Apr 08:53:55 | 7 | 7.9 mph | 9 | SW (218°) | 99834 | 101987 | 24.6°C | 85.3% | 22°C | 1670ft (509m) | 13.29v | 13 |
| 4445 | 15 Apr 08:53:44 | 7 | 7.6 mph | 9 | SW (214°) | 99833 | 101986 | 24.6°C | 85.2% | 21.9°C | 1678ft (511m) | 13.28v | 16 |
| 4444 | 15 Apr 08:53:33 | 9 | 9.7 mph | 10 | SSW (207°) | 99834 | 101987 | 24.6°C | 85.1% | 21.9°C | 1686ft (514m) | 13.29v | 16 |
| 4443 | 15 Apr 08:53:21 | 6 | 6.5 mph | 7 | SSW (212°) | 99827 | 101980 | 24.6°C | 85.5% | 22°C | 1654ft (504m) | 13.3v | 15 |
| 4442 | 15 Apr 08:53:10 | 6 | 6.6 mph | 7 | SSW (213°) | 99832 | 101985 | 24.6°C | 85.6% | 22°C | 1647ft (502m) | 13.3v | 13 |
| 4441 | 15 Apr 08:52:59 | 7 | 7.7 mph | 9 | SSW (212°) | 99830 | 101983 | 24.6°C | 85.6% | 22°C | 1647ft (502m) | 13.28v | 14 |
| 4440 | 15 Apr 08:52:48 | 5 | 5.9 mph | 8 | SW (219°) | 99832 | 101985 | 24.6°C | 85.6% | 22°C | 1647ft (502m) | 13.29v | 13 |
| 4439 | 15 Apr 08:52:36 | 6 | 6.6 mph | 8 | SW (216°) | 99830 | 101983 | 24.6°C | 85.5% | 22°C | 1654ft (504m) | 13.28v | 13 |
| 4438 | 15 Apr 08:52:25 | 5 | 5.9 mph | 7 | SSW (211°) | 99830 | 101983 | 24.6°C | 85.5% | 22°C | 1654ft (504m) | 13.28v | 13 |
| 4437 | 15 Apr 08:52:14 | 6 | 6.9 mph | 8 | SSW (208°) | 99830 | 101983 | 24.6°C | 85.4% | 22°C | 1662ft (507m) | 13.29v | 15 |
| 4436 | 15 Apr 08:52:03 | 5 | 6.3 mph | 7 | SSW (201°) | 99832 | 101985 | 24.6°C | 85.5% | 22°C | 1654ft (504m) | 13.29v | 13 |
| 4435 | 15 Apr 08:51:51 | 5 | 7.1 mph | 10 | SW (217°) | 99829 | 101982 | 24.6°C | 85.4% | 22°C | 1662ft (507m) | 13.3v | 14 |
| 4434 | 15 Apr 08:51:40 | 5 | 6.3 mph | 8 | SW (220°) | 99832 | 101985 | 24.6°C | 85.4% | 22°C | 1662ft (507m) | 13.3v | 13 |
| 4433 | 15 Apr 08:51:29 | 6 | 6.3 mph | 7 | SW (215°) | 99830 | 101983 | 24.6°C | 85.4% | 22°C | 1662ft (507m) | 13.29v | 17 |
| 4432 | 15 Apr 08:51:18 | 7 | 7.8 mph | 9 | SSW (203°) | 99828 | 101981 | 24.6°C | 85.4% | 22°C | 1662ft (507m) | 13.3v | 14 |
| 4431 | 15 Apr 08:51:06 | 7 | 8.5 mph | 11 | SSW (206°) | 99824 | 101977 | 24.6°C | 85.4% | 22°C | 1662ft (507m) | 13.29v | 14 |
| 4430 | 15 Apr 08:50:55 | 6 | 6.3 mph | 7 | SSW (213°) | 99828 | 101981 | 24.6°C | 85.4% | 22°C | 1662ft (507m) | 13.29v | 14 |
| 4429 | 15 Apr 08:50:44 | 6 | 7.2 mph | 9 | SSW (213°) | 99829 | 101982 | 24.6°C | 85.2% | 21.9°C | 1678ft (511m) | 13.31v | 14 |
| 4428 | 15 Apr 08:50:33 | 7 | 8 mph | 9 | SSW (210°) | 99826 | 101979 | 24.6°C | 85.4% | 22°C | 1662ft (507m) | 13.3v | 13 |
| 4427 | 15 Apr 08:50:21 | 8 | 8.9 mph | 10 | SW (217°) | 99830 | 101983 | 24.6°C | 85.2% | 21.9°C | 1678ft (511m) | 13.32v | 13 |
| 4426 | 15 Apr 08:50:10 | 8 | 8.4 mph | 9 | SSW (208°) | 99828 | 101981 | 24.6°C | 85.4% | 22°C | 1662ft (507m) | 13.32v | 13 |
| 4425 | 15 Apr 08:49:59 | 7 | 7.9 mph | 9 | SSW (211°) | 99826 | 101979 | 24.6°C | 85.3% | 22°C | 1670ft (509m) | 13.31v | 13 |
| 4424 | 15 Apr 08:49:48 | 6 | 7.2 mph | 10 | SSW (208°) | 99826 | 101979 | 24.6°C | 85.4% | 22°C | 1662ft (507m) | 13.32v | 14 |
| 4423 | 15 Apr 08:49:36 | 8 | 9.5 mph | 11 | SSW (200°) | 99826 | 101979 | 24.6°C | 85.5% | 22°C | 1654ft (504m) | 13.32v | 13 |
| 4422 | 15 Apr 08:49:25 | 7 | 8.1 mph | 10 | SSW (201°) | 99829 | 101982 | 24.6°C | 85.4% | 22°C | 1662ft (507m) | 13.31v | 14 |
| 4421 | 15 Apr 08:49:14 | 8 | 9.3 mph | 11 | SSW (212°) | 99831 | 101984 | 24.6°C | 85.2% | 21.9°C | 1678ft (511m) | 13.3v | 14 |
| 4420 | 15 Apr 08:49:03 | 7 | 7.5 mph | 9 | SSW (213°) | 99831 | 101984 | 24.6°C | 85.4% | 22°C | 1662ft (507m) | 13.31v | 14 |
| 4419 | 15 Apr 08:48:51 | 6 | 6.5 mph | 8 | SW (214°) | 99829 | 101982 | 24.6°C | 85.4% | 22°C | 1662ft (507m) | 13.32v | 17 |
| 4418 | 15 Apr 08:48:40 | 6 | 6.8 mph | 8 | SW (217°) | 99829 | 101982 | 24.6°C | 85.4% | 22°C | 1662ft (507m) | 13.32v | 13 |
| 4417 | 15 Apr 08:48:29 | 7 | 7.7 mph | 9 | SW (219°) | 99828 | 101981 | 24.6°C | 85.2% | 21.9°C | 1678ft (511m) | 13.32v | 14 |
| 4416 | 15 Apr 08:48:18 | 9 | 9.9 mph | 12 | SSW (209°) | 99830 | 101983 | 24.6°C | 85.1% | 21.9°C | 1686ft (514m) | 13.33v | 13 |
| 4415 | 15 Apr 08:48:06 | 9 | 10.1 mph | 12 | SSW (212°) | 99830 | 101983 | 24.6°C | 85.2% | 21.9°C | 1678ft (511m) | 13.31v | 13 |
| 4414 | 15 Apr 08:47:55 | 6 | 7.5 mph | 10 | SSW (206°) | 99828 | 101981 | 24.6°C | 85.3% | 22°C | 1670ft (509m) | 13.32v | 13 |
| 4413 | 15 Apr 08:47:44 | 7 | 7.5 mph | 8 | SSW (210°) | 99830 | 101983 | 24.6°C | 85.4% | 22°C | 1662ft (507m) | 13.32v | 16 |
| 4412 | 15 Apr 08:47:33 | 7 | 7.5 mph | 8 | SSW (202°) | 99830 | 101983 | 24.6°C | 85.2% | 21.9°C | 1678ft (511m) | 13.32v | 13 |
| 4411 | 15 Apr 08:47:21 | 8 | 8.8 mph | 10 | SSW (203°) | 99831 | 101984 | 24.6°C | 85% | 21.9°C | 1694ft (516m) | 13.34v | 16 |
| 4410 | 15 Apr 08:47:10 | 7 | 7.6 mph | 9 | SSW (205°) | 99829 | 101982 | 24.6°C | 84.9% | 21.9°C | 1702ft (519m) | 13.33v | 17 |
| 4409 | 15 Apr 08:46:59 | 9 | 11.1 mph | 12 | SSW (206°) | 99828 | 101981 | 24.6°C | 84.8% | 21.9°C | 1710ft (521m) | 13.33v | 13 |
| 4408 | 15 Apr 08:46:48 | 9 | 10.7 mph | 12 | SSW (210°) | 99832 | 101985 | 24.6°C | 84.9% | 21.9°C | 1702ft (519m) | 13.32v | 16 |
| 4407 | 15 Apr 08:46:36 | 7 | 8.2 mph | 9 | SSW (205°) | 99828 | 101981 | 24.6°C | 85.1% | 21.9°C | 1686ft (514m) | 13.31v | 14 |
| 4406 | 15 Apr 08:46:25 | 6 | 7.7 mph | 9 | SW (214°) | 99830 | 101983 | 24.6°C | 85.1% | 21.9°C | 1686ft (514m) | 13.32v | 13 |
| 4405 | 15 Apr 08:46:14 | 7 | 8.5 mph | 10 | SSW (213°) | 99830 | 101983 | 24.6°C | 84.9% | 21.9°C | 1702ft (519m) | 13.33v | 13 |
| 4404 | 15 Apr 08:46:03 | 7 | 7.9 mph | 10 | SSW (211°) | 99826 | 101979 | 24.6°C | 85% | 21.9°C | 1694ft (516m) | 13.3v | 15 |
| 4403 | 15 Apr 08:45:51 | 6 | 8.1 mph | 10 | SSW (209°) | 99827 | 101980 | 24.6°C | 85% | 21.9°C | 1694ft (516m) | 13.32v | 14 |
| 4402 | 15 Apr 08:45:40 | 7 | 6.7 mph | 7 | SSW (213°) | 99830 | 101983 | 24.6°C | 85% | 21.9°C | 1694ft (516m) | 13.32v | 13 |
| 4401 | 15 Apr 08:45:29 | 8 | 8.3 mph | 9 | SSW (205°) | 99830 | 101983 | 24.6°C | 84.9% | 21.9°C | 1702ft (519m) | 13.33v | 16 |
| 4400 | 15 Apr 08:45:18 | 9 | 10 mph | 11 | SW (214°) | 99832 | 101985 | 24.6°C | 85% | 21.9°C | 1694ft (516m) | 13.32v | 13 |
| 4399 | 15 Apr 08:45:07 | 8 | 9.5 mph | 12 | SSW (203°) | 99829 | 101982 | 24.6°C | 85.1% | 21.9°C | 1686ft (514m) | 13.3v | 13 |
| 4398 | 15 Apr 08:44:55 | 8 | 9.6 mph | 11 | SSW (205°) | 99832 | 101985 | 24.6°C | 85% | 21.9°C | 1694ft (516m) | 13.32v | 13 |
| 4397 | 15 Apr 08:44:44 | 9 | 9.5 mph | 10 | SW (214°) | 99828 | 101981 | 24.6°C | 85% | 21.9°C | 1694ft (516m) | 13.29v | 16 |
| 4396 | 15 Apr 08:44:33 | 8 | 8.9 mph | 10 | SSW (213°) | 99828 | 101981 | 24.6°C | 85.1% | 21.9°C | 1686ft (514m) | 13.31v | 13 |
| 4395 | 15 Apr 08:44:22 | 6 | 7.1 mph | 9 | SW (214°) | 99830 | 101983 | 24.6°C | 85.2% | 21.9°C | 1678ft (511m) | 13.31v | 13 |
| 4394 | 15 Apr 08:44:10 | 8 | 9.2 mph | 10 | SW (215°) | 99825 | 101978 | 24.6°C | 85.2% | 21.9°C | 1678ft (511m) | 13.32v | 13 |
| 4393 | 15 Apr 08:43:59 | 5 | 7.3 mph | 9 | SW (222°) | 99829 | 101982 | 24.6°C | 85.3% | 22°C | 1670ft (509m) | 13.32v | 14 |
| 4392 | 15 Apr 08:43:48 | 6 | 7.1 mph | 8 | SW (219°) | 99830 | 101983 | 24.6°C | 85.3% | 22°C | 1670ft (509m) | 13.31v | 14 |
| 4391 | 15 Apr 08:43:37 | 6 | 6.8 mph | 8 | SW (216°) | 99829 | 101982 | 24.6°C | 85.2% | 21.9°C | 1678ft (511m) | 13.3v | 14 |
| 4390 | 15 Apr 08:43:25 | 6 | 7.6 mph | 8 | SW (216°) | 99830 | 101983 | 24.6°C | 85.1% | 21.9°C | 1686ft (514m) | 13.3v | 14 |
| 4389 | 15 Apr 08:43:14 | 5 | 7 mph | 10 | SW (214°) | 99827 | 101980 | 24.6°C | 85.1% | 21.9°C | 1686ft (514m) | 13.31v | 14 |
| 4388 | 15 Apr 08:43:03 | 7 | 7.3 mph | 8 | SW (216°) | 99828 | 101981 | 24.6°C | 85.1% | 21.9°C | 1686ft (514m) | 13.3v | 15 |
| 4387 | 15 Apr 08:42:51 | 7 | 7.4 mph | 9 | SW (216°) | 99830 | 101983 | 24.6°C | 84.9% | 21.9°C | 1702ft (519m) | 13.32v | 13 |
| 4386 | 15 Apr 08:42:40 | 5 | 7.3 mph | 9 | SSW (213°) | 99825 | 101978 | 24.6°C | 85% | 21.9°C | 1694ft (516m) | 13.32v | 13 |
| 4385 | 15 Apr 08:42:29 | 7 | 8.3 mph | 10 | SW (215°) | 99827 | 101980 | 24.6°C | 85% | 21.9°C | 1694ft (516m) | 13.33v | 13 |
| 4384 | 15 Apr 08:42:18 | 7 | 8.1 mph | 10 | SSW (201°) | 99822 | 101975 | 24.6°C | 84.9% | 21.9°C | 1702ft (519m) | 13.31v | 13 |
| 4383 | 15 Apr 08:42:06 | 7 | 8.1 mph | 10 | SSW (210°) | 99824 | 101977 | 24.6°C | 85% | 21.9°C | 1694ft (516m) | 13.31v | 14 |
| 4382 | 15 Apr 08:41:55 | 8 | 8.8 mph | 10 | SSW (210°) | 99824 | 101977 | 24.6°C | 84.9% | 21.9°C | 1702ft (519m) | 13.3v | 13 |
| 4381 | 15 Apr 08:41:44 | 6 | 7.4 mph | 10 | SSW (207°) | 99823 | 101976 | 24.6°C | 84.9% | 21.9°C | 1702ft (519m) | 13.29v | 13 |
| 4380 | 15 Apr 08:41:33 | 8 | 8.6 mph | 10 | SSW (212°) | 99827 | 101980 | 24.6°C | 84.7% | 21.8°C | 1718ft (524m) | 13.3v | 13 |
| 4379 | 15 Apr 08:41:21 | 6 | 8.5 mph | 10 | SSW (209°) | 99828 | 101981 | 24.6°C | 84.9% | 21.9°C | 1702ft (519m) | 13.3v | 13 |
| 4378 | 15 Apr 08:41:10 | 8 | 9.7 mph | 11 | SW (215°) | 99829 | 101982 | 24.6°C | 84.8% | 21.9°C | 1710ft (521m) | 13.31v | 13 |
| 4377 | 15 Apr 08:40:59 | 7 | 8.5 mph | 9 | SW (226°) | 99824 | 101977 | 24.6°C | 84.9% | 21.9°C | 1702ft (519m) | 13.3v | 16 |
| 4376 | 15 Apr 08:40:48 | 9 | 9.9 mph | 12 | SW (224°) | 99825 | 101978 | 24.6°C | 84.9% | 21.9°C | 1702ft (519m) | 13.29v | 14 |
| 4375 | 15 Apr 08:40:36 | 7 | 7.6 mph | 9 | SW (221°) | 99831 | 101984 | 24.6°C | 85% | 21.9°C | 1694ft (516m) | 13.3v | 14 |
| 4374 | 15 Apr 08:40:25 | 7 | 8.5 mph | 10 | SW (217°) | 99829 | 101982 | 24.6°C | 85.1% | 21.9°C | 1686ft (514m) | 13.3v | 13 |
| 4373 | 15 Apr 08:40:14 | 6 | 7.3 mph | 9 | SSW (205°) | 99829 | 101982 | 24.6°C | 85% | 21.9°C | 1694ft (516m) | 13.29v | 13 |
| 4372 | 15 Apr 08:40:03 | 6 | 6.4 mph | 7 | SW (220°) | 99828 | 101981 | 24.6°C | 85% | 21.9°C | 1694ft (516m) | 13.28v | 14 |
| 4371 | 15 Apr 08:39:51 | 6 | 7.5 mph | 8 | SW (216°) | 99829 | 101982 | 24.6°C | 85% | 21.9°C | 1694ft (516m) | 13.3v | 14 |
| 4370 | 15 Apr 08:39:40 | 6 | 7.8 mph | 9 | SW (215°) | 99829 | 101982 | 24.6°C | 85.1% | 21.9°C | 1686ft (514m) | 13.3v | 14 |
| 4369 | 15 Apr 08:39:29 | 5 | 5.6 mph | 7 | SW (220°) | 99829 | 101982 | 24.6°C | 85.1% | 21.9°C | 1686ft (514m) | 13.29v | 13 |
| 4368 | 15 Apr 08:39:18 | 7 | 7.3 mph | 9 | SW (214°) | 99828 | 101981 | 24.6°C | 84.9% | 21.9°C | 1702ft (519m) | 13.28v | 14 |
| 4367 | 15 Apr 08:39:06 | 8 | 9.1 mph | 10 | SW (218°) | 99825 | 101978 | 24.6°C | 84.8% | 21.9°C | 1710ft (521m) | 13.28v | 13 |
| 4366 | 15 Apr 08:38:55 | 6 | 7.2 mph | 9 | SW (221°) | 99827 | 101980 | 24.6°C | 85% | 21.9°C | 1694ft (516m) | 13.28v | 14 |
| 4365 | 15 Apr 08:38:44 | 8 | 9.5 mph | 11 | SSW (199°) | 99827 | 101980 | 24.6°C | 84.7% | 21.8°C | 1718ft (524m) | 13.26v | 13 |
| 4364 | 15 Apr 08:38:33 | 7 | 8 mph | 9 | SW (214°) | 99828 | 101981 | 24.6°C | 84.9% | 21.9°C | 1702ft (519m) | 13.27v | 13 |
| 4363 | 15 Apr 08:38:21 | 6 | 6.9 mph | 8 | SSW (212°) | 99827 | 101980 | 24.6°C | 85% | 21.9°C | 1694ft (516m) | 13.27v | 14 |
| 4362 | 15 Apr 08:38:10 | 5 | 6.8 mph | 9 | SW (217°) | 99828 | 101981 | 24.6°C | 85% | 21.9°C | 1694ft (516m) | 13.28v | 14 |
| 4361 | 15 Apr 08:37:59 | 5 | 7 mph | 8 | SW (224°) | 99828 | 101981 | 24.6°C | 85% | 21.9°C | 1694ft (516m) | 13.27v | 14 |
| 4360 | 15 Apr 08:37:48 | 7 | 7.3 mph | 9 | SW (225°) | 99830 | 101983 | 24.6°C | 85% | 21.9°C | 1694ft (516m) | 13.28v | 13 |
| 4359 | 15 Apr 08:37:36 | 7 | 7.1 mph | 8 | SW (216°) | 99826 | 101979 | 24.5°C | 85.1% | 21.8°C | 1685ft (514m) | 13.27v | 13 |
| 4358 | 15 Apr 08:37:25 | 5 | 6.7 mph | 8 | SW (215°) | 99828 | 101981 | 24.5°C | 85.1% | 21.8°C | 1685ft (514m) | 13.27v | 13 |
| 4357 | 15 Apr 08:37:14 | 6 | 6.3 mph | 7 | SSW (213°) | 99824 | 101977 | 24.5°C | 85% | 21.8°C | 1693ft (516m) | 13.25v | 13 |
| 4356 | 15 Apr 08:37:03 | 8 | 8.4 mph | 10 | SW (219°) | 99829 | 101982 | 24.5°C | 85% | 21.8°C | 1693ft (516m) | 13.26v | 17 |
| 4355 | 15 Apr 08:36:51 | 8 | 8.5 mph | 9 | SSW (207°) | 99825 | 101978 | 24.6°C | 85% | 21.9°C | 1694ft (516m) | 13.25v | 15 |
| 4354 | 15 Apr 08:36:40 | 5 | 8.5 mph | 11 | SSW (201°) | 99818 | 101971 | 24.6°C | 85% | 21.9°C | 1694ft (516m) | 13.25v | 16 |
| 4353 | 15 Apr 08:36:29 | 7 | 8.1 mph | 9 | SW (223°) | 99825 | 101978 | 24.5°C | 84.9% | 21.8°C | 1701ft (518m) | 13.26v | 13 |
| 4352 | 15 Apr 08:36:18 | 7 | 7.9 mph | 10 | SW (217°) | 99829 | 101982 | 24.6°C | 84.8% | 21.9°C | 1710ft (521m) | 13.25v | 15 |
| 4351 | 15 Apr 08:36:06 | 7 | 8.9 mph | 10 | SW (228°) | 99825 | 101978 | 24.5°C | 84.8% | 21.8°C | 1709ft (521m) | 13.25v | 13 |
| 4350 | 15 Apr 08:35:55 | 6 | 8 mph | 9 | SW (226°) | 99825 | 101978 | 24.6°C | 84.7% | 21.8°C | 1718ft (524m) | 13.25v | 14 |
| 4349 | 15 Apr 08:35:44 | 6 | 7.3 mph | 9 | SW (214°) | 99828 | 101981 | 24.6°C | 84.8% | 21.9°C | 1710ft (521m) | 13.25v | 13 |
| 4348 | 15 Apr 08:35:33 | 7 | 7.4 mph | 8 | SSW (208°) | 99823 | 101976 | 24.5°C | 84.6% | 21.7°C | 1725ft (526m) | 13.23v | 13 |
| 4347 | 15 Apr 08:35:21 | 8 | 9.2 mph | 12 | SSW (208°) | 99826 | 101979 | 24.6°C | 84.5% | 21.8°C | 1733ft (528m) | 13.24v | 15 |
| 4346 | 15 Apr 08:35:10 | 6 | 6.9 mph | 8 | SW (225°) | 99826 | 101979 | 24.6°C | 84.8% | 21.9°C | 1710ft (521m) | 13.24v | 13 |
| 4345 | 15 Apr 08:34:59 | 6 | 6.1 mph | 7 | SW (226°) | 99823 | 101976 | 24.6°C | 84.7% | 21.8°C | 1718ft (524m) | 13.25v | 15 |
| 4344 | 15 Apr 08:34:48 | 6 | 7 mph | 9 | SW (217°) | 99825 | 101978 | 24.6°C | 84.7% | 21.8°C | 1718ft (524m) | 13.23v | 14 |
| 4343 | 15 Apr 08:34:36 | 6 | 6.8 mph | 8 | SSW (212°) | 99825 | 101978 | 24.6°C | 84.6% | 21.8°C | 1726ft (526m) | 13.24v | 15 |
| 4342 | 15 Apr 08:34:25 | 8 | 9.1 mph | 10 | SSW (210°) | 99825 | 101978 | 24.6°C | 84.6% | 21.8°C | 1726ft (526m) | 13.23v | 13 |
| 4341 | 15 Apr 08:34:14 | 6 | 7.4 mph | 8 | SW (214°) | 99827 | 101980 | 24.6°C | 84.6% | 21.8°C | 1726ft (526m) | 13.22v | 13 |
| 4340 | 15 Apr 08:34:03 | 7 | 8.1 mph | 10 | SW (219°) | 99825 | 101978 | 24.6°C | 84.5% | 21.8°C | 1733ft (528m) | 13.21v | 13 |
| 4339 | 15 Apr 08:33:51 | 7 | 7.7 mph | 9 | SW (214°) | 99827 | 101980 | 24.6°C | 84.6% | 21.8°C | 1726ft (526m) | 13.22v | 13 |
| 4338 | 15 Apr 08:33:40 | 6 | 7.4 mph | 8 | SW (225°) | 99823 | 101976 | 24.6°C | 84.6% | 21.8°C | 1726ft (526m) | 13.22v | 13 |
| 4337 | 15 Apr 08:33:29 | 6 | 6.9 mph | 8 | SW (219°) | 99825 | 101978 | 24.6°C | 84.5% | 21.8°C | 1733ft (528m) | 13.23v | 16 |
| 4336 | 15 Apr 08:33:18 | 7 | 7.5 mph | 8 | SW (220°) | 99827 | 101980 | 24.6°C | 84.5% | 21.8°C | 1733ft (528m) | 13.22v | 16 |
| 4335 | 15 Apr 08:33:06 | 8 | 8.4 mph | 9 | SW (218°) | 99826 | 101979 | 24.6°C | 84.4% | 21.8°C | 1741ft (531m) | 13.24v | 13 |
| 4334 | 15 Apr 08:32:55 | 8 | 8.7 mph | 11 | SW (226°) | 99828 | 101981 | 24.6°C | 84.4% | 21.8°C | 1741ft (531m) | 13.24v | 15 |
| 4333 | 15 Apr 08:32:44 | 9 | 9.3 mph | 10 | SW (220°) | 99827 | 101980 | 24.6°C | 84.3% | 21.8°C | 1749ft (533m) | 13.21v | 13 |
| 4332 | 15 Apr 08:32:33 | 7 | 7.8 mph | 9 | SW (223°) | 99830 | 101983 | 24.6°C | 84.3% | 21.8°C | 1749ft (533m) | 13.22v | 16 |
| 4331 | 15 Apr 08:32:21 | 6 | 7.1 mph | 9 | SW (216°) | 99827 | 101980 | 24.6°C | 84.5% | 21.8°C | 1733ft (528m) | 13.2v | 14 |
| 4330 | 15 Apr 08:32:10 | 7 | 7.3 mph | 8 | SSW (211°) | 99830 | 101983 | 24.6°C | 84.4% | 21.8°C | 1741ft (531m) | 13.21v | 16 |
| 4329 | 15 Apr 08:31:59 | 7 | 8.1 mph | 9 | SW (221°) | 99828 | 101981 | 24.6°C | 84.4% | 21.8°C | 1741ft (531m) | 13.23v | 13 |
| 4328 | 15 Apr 08:31:48 | 5 | 6.4 mph | 8 | SW (218°) | 99828 | 101981 | 24.6°C | 84.6% | 21.8°C | 1726ft (526m) | 13.23v | 13 |
| 4327 | 15 Apr 08:31:36 | 7 | 7.9 mph | 9 | SW (216°) | 99827 | 101980 | 24.6°C | 84.5% | 21.8°C | 1733ft (528m) | 13.22v | 15 |
| 4326 | 15 Apr 08:31:25 | 6 | 7.1 mph | 8 | SW (219°) | 99826 | 101979 | 24.6°C | 84.4% | 21.8°C | 1741ft (531m) | 13.22v | 13 |
| 4325 | 15 Apr 08:31:14 | 6 | 6.8 mph | 9 | SW (225°) | 99830 | 101983 | 24.6°C | 84.5% | 21.8°C | 1733ft (528m) | 13.22v | 14 |
| 4324 | 15 Apr 08:31:03 | 6 | 6.9 mph | 9 | SW (219°) | 99831 | 101984 | 24.6°C | 84.5% | 21.8°C | 1733ft (528m) | 13.22v | 15 |
| 4323 | 15 Apr 08:30:51 | 5 | 5.8 mph | 6 | SW (217°) | 99831 | 101984 | 24.6°C | 84.4% | 21.8°C | 1741ft (531m) | 13.21v | 14 |
| 4322 | 15 Apr 08:30:40 | 5 | 5.5 mph | 6 | SW (215°) | 99830 | 101983 | 24.6°C | 84.4% | 21.8°C | 1741ft (531m) | 13.21v | 16 |
| 4321 | 15 Apr 08:30:29 | 6 | 7.4 mph | 9 | SW (215°) | 99829 | 101982 | 24.6°C | 84.3% | 21.8°C | 1749ft (533m) | 13.22v | 14 |
| 4320 | 15 Apr 08:30:18 | 6 | 6.2 mph | 7 | SW (222°) | 99827 | 101980 | 24.6°C | 84.3% | 21.8°C | 1749ft (533m) | 13.22v | 13 |
| 4319 | 15 Apr 08:30:06 | 6 | 6.6 mph | 8 | SW (214°) | 99827 | 101980 | 24.6°C | 84.2% | 21.8°C | 1757ft (536m) | 13.22v | 13 |
| 4318 | 15 Apr 08:29:55 | 7 | 7.6 mph | 9 | SSW (205°) | 99828 | 101981 | 24.6°C | 84.2% | 21.8°C | 1757ft (536m) | 13.22v | 17 |
| 4317 | 15 Apr 08:29:44 | 6 | 7.2 mph | 8 | SW (215°) | 99831 | 101984 | 24.6°C | 84.3% | 21.8°C | 1749ft (533m) | 13.22v | 16 |
| 4316 | 15 Apr 08:29:33 | 4 | 5.1 mph | 7 | SSW (211°) | 99830 | 101983 | 24.6°C | 84.2% | 21.8°C | 1757ft (536m) | 13.2v | 14 |
| 4315 | 15 Apr 08:29:21 | 4 | 5.1 mph | 6 | SW (229°) | 99828 | 101981 | 24.6°C | 84% | 21.7°C | 1773ft (540m) | 13.21v | 15 |
| 4314 | 15 Apr 08:29:10 | 6 | 6.8 mph | 7 | SW (229°) | 99827 | 101980 | 24.6°C | 83.9% | 21.7°C | 1781ft (543m) | 13.21v | 14 |
| 4313 | 15 Apr 08:28:59 | 7 | 8.2 mph | 10 | SW (218°) | 99828 | 101981 | 24.6°C | 83.9% | 21.7°C | 1781ft (543m) | 13.21v | 13 |
| 4312 | 15 Apr 08:28:48 | 7 | 7.6 mph | 9 | SSW (210°) | 99822 | 101975 | 24.6°C | 83.9% | 21.7°C | 1781ft (543m) | 13.22v | 13 |
| 4311 | 15 Apr 08:28:36 | 8 | 8.7 mph | 10 | SSW (213°) | 99829 | 101982 | 24.6°C | 83.8% | 21.7°C | 1789ft (545m) | 13.21v | 13 |
| 4310 | 15 Apr 08:28:25 | 8 | 9.3 mph | 11 | SSW (210°) | 99826 | 101979 | 24.6°C | 83.6% | 21.6°C | 1805ft (550m) | 13.2v | 13 |
| 4309 | 15 Apr 08:28:14 | 7 | 7.7 mph | 9 | SSW (208°) | 99827 | 101980 | 24.6°C | 83.9% | 21.7°C | 1781ft (543m) | 13.22v | 13 |
| 4308 | 15 Apr 08:28:03 | 7 | 7.7 mph | 8 | SSW (211°) | 99828 | 101981 | 24.6°C | 84% | 21.7°C | 1773ft (540m) | 13.2v | 14 |
| 4307 | 15 Apr 08:27:51 | 7 | 6.8 mph | 7 | SSW (209°) | 99828 | 101981 | 24.6°C | 83.9% | 21.7°C | 1781ft (543m) | 13.22v | 15 |
| 4306 | 15 Apr 08:27:40 | 6 | 6.5 mph | 7 | SW (216°) | 99827 | 101980 | 24.6°C | 83.8% | 21.7°C | 1789ft (545m) | 13.2v | 16 |
| 4305 | 15 Apr 08:27:29 | 8 | 8.4 mph | 9 | SW (229°) | 99825 | 101978 | 24.6°C | 83.8% | 21.7°C | 1789ft (545m) | 13.21v | 13 |
| 4304 | 15 Apr 08:27:18 | 7 | 7.7 mph | 8 | SW (224°) | 99825 | 101978 | 24.7°C | 83.7% | 21.8°C | 1798ft (548m) | 13.21v | 14 |
| 4303 | 15 Apr 08:27:07 | 6 | 7.1 mph | 9 | SW (222°) | 99826 | 101979 | 24.7°C | 83.7% | 21.8°C | 1798ft (548m) | 13.21v | 16 |
| 4302 | 15 Apr 08:26:55 | 8 | 8.2 mph | 9 | SW (227°) | 99825 | 101978 | 24.7°C | 83.7% | 21.8°C | 1798ft (548m) | 13.22v | 16 |
| 4301 | 15 Apr 08:26:44 | 7 | 8.4 mph | 10 | SW (217°) | 99824 | 101977 | 24.7°C | 83.8% | 21.8°C | 1790ft (546m) | 13.22v | 15 |
| 4300 | 15 Apr 08:26:33 | 7 | 7.2 mph | 8 | SW (220°) | 99826 | 101979 | 24.7°C | 83.9% | 21.8°C | 1782ft (543m) | 13.2v | 15 |
| 4299 | 15 Apr 08:26:22 | 6 | 8.2 mph | 10 | SW (215°) | 99822 | 101975 | 24.7°C | 83.9% | 21.8°C | 1782ft (543m) | 13.2v | 13 |
| 4298 | 15 Apr 08:26:10 | 7 | 8.7 mph | 10 | SSW (212°) | 99823 | 101976 | 24.7°C | 83.9% | 21.8°C | 1782ft (543m) | 13.2v | 16 |
| 4297 | 15 Apr 08:25:59 | 7 | 9 mph | 10 | SW (216°) | 99822 | 101975 | 24.7°C | 84% | 21.8°C | 1774ft (541m) | 13.22v | 13 |
| 4296 | 15 Apr 08:25:48 | 6 | 6.4 mph | 8 | SW (223°) | 99822 | 101975 | 24.7°C | 84.1% | 21.8°C | 1766ft (538m) | 13.22v | 13 |
| 4295 | 15 Apr 08:25:37 | 7 | 7.2 mph | 8 | SW (224°) | 99824 | 101977 | 24.7°C | 84.1% | 21.8°C | 1766ft (538m) | 13.22v | 15 |
| 4294 | 15 Apr 08:25:25 | 8 | 8.5 mph | 9 | SW (220°) | 99824 | 101977 | 24.7°C | 84% | 21.8°C | 1774ft (541m) | 13.22v | 15 |
| 4293 | 15 Apr 08:25:14 | 5 | 6.1 mph | 7 | SW (226°) | 99824 | 101977 | 24.6°C | 84.2% | 21.8°C | 1757ft (536m) | 13.21v | 17 |
| 4292 | 15 Apr 08:25:03 | 5 | 6.8 mph | 8 | SW (219°) | 99824 | 101977 | 24.6°C | 84.2% | 21.8°C | 1757ft (536m) | 13.2v | 14 |
| 4291 | 15 Apr 08:24:52 | 5 | 5.3 mph | 6 | SW (226°) | 99824 | 101977 | 24.7°C | 84.1% | 21.8°C | 1766ft (538m) | 13.19v | 14 |
| 4290 | 15 Apr 08:24:40 | 6 | 6.9 mph | 8 | SSW (213°) | 99821 | 101974 | 24.7°C | 84.1% | 21.8°C | 1766ft (538m) | 13.22v | 18 |
| 4289 | 15 Apr 08:24:29 | 6 | 7.6 mph | 9 | SW (216°) | 99825 | 101978 | 24.7°C | 84.2% | 21.9°C | 1758ft (536m) | 13.2v | 17 |
| 4288 | 15 Apr 08:24:18 | 8 | 9.6 mph | 11 | SW (216°) | 99820 | 101973 | 24.6°C | 84.3% | 21.8°C | 1749ft (533m) | 13.22v | 15 |
| 4287 | 15 Apr 08:24:06 | 5 | 6.6 mph | 8 | SW (228°) | 99827 | 101980 | 24.6°C | 84.3% | 21.8°C | 1749ft (533m) | 13.21v | 15 |
| 4286 | 15 Apr 08:23:55 | 6 | 6.7 mph | 8 | SW (222°) | 99821 | 101974 | 24.6°C | 84.3% | 21.8°C | 1749ft (533m) | 13.22v | 16 |
| 4285 | 15 Apr 08:23:44 | 6 | 7.3 mph | 8 | SW (215°) | 99819 | 101972 | 24.6°C | 84.3% | 21.8°C | 1749ft (533m) | 13.21v | 17 |
| 4284 | 15 Apr 08:23:33 | 7 | 7 mph | 8 | SW (215°) | 99821 | 101974 | 24.6°C | 84.3% | 21.8°C | 1749ft (533m) | 13.2v | 15 |
| 4283 | 15 Apr 08:23:21 | 5 | 6.9 mph | 9 | SSW (206°) | 99820 | 101973 | 24.6°C | 84.3% | 21.8°C | 1749ft (533m) | 13.21v | 14 |
| 4282 | 15 Apr 08:23:10 | 7 | 8.4 mph | 9 | SSW (211°) | 99820 | 101973 | 24.6°C | 84.3% | 21.8°C | 1749ft (533m) | 13.21v | 16 |
| 4281 | 15 Apr 08:22:59 | 7 | 8 mph | 9 | SW (214°) | 99821 | 101974 | 24.6°C | 84.3% | 21.8°C | 1749ft (533m) | 13.21v | 16 |
| 4280 | 15 Apr 08:22:48 | 5 | 5.6 mph | 7 | SW (216°) | 99821 | 101974 | 24.6°C | 84.4% | 21.8°C | 1741ft (531m) | 13.22v | 14 |
| 4279 | 15 Apr 08:22:36 | 5 | 5.8 mph | 6 | SW (217°) | 99819 | 101972 | 24.6°C | 84.3% | 21.8°C | 1749ft (533m) | 13.22v | 14 |
| 4278 | 15 Apr 08:22:25 | 5 | 6.1 mph | 7 | SW (217°) | 99821 | 101974 | 24.6°C | 84.4% | 21.8°C | 1741ft (531m) | 13.22v | 14 |
| 4277 | 15 Apr 08:22:14 | 6 | 6.3 mph | 7 | SW (218°) | 99820 | 101973 | 24.6°C | 84.3% | 21.8°C | 1749ft (533m) | 13.22v | 14 |
| 4276 | 15 Apr 08:22:03 | 8 | 8.4 mph | 9 | SSW (207°) | 99819 | 101972 | 24.6°C | 84.3% | 21.8°C | 1749ft (533m) | 13.22v | 16 |
| 4275 | 15 Apr 08:21:51 | 7 | 7.7 mph | 8 | SSW (213°) | 99818 | 101971 | 24.6°C | 84.5% | 21.8°C | 1733ft (528m) | 13.21v | 15 |
| 4274 | 15 Apr 08:21:40 | 5 | 5.6 mph | 6 | SW (223°) | 99817 | 101970 | 24.6°C | 84.5% | 21.8°C | 1733ft (528m) | 13.23v | 15 |
| 4273 | 15 Apr 08:21:29 | 5 | 5.8 mph | 7 | SW (218°) | 99818 | 101971 | 24.6°C | 84.4% | 21.8°C | 1741ft (531m) | 13.21v | 15 |
| 4272 | 15 Apr 08:21:18 | 5 | 6.3 mph | 7 | SW (217°) | 99818 | 101971 | 24.6°C | 84.4% | 21.8°C | 1741ft (531m) | 13.22v | 16 |
| 4271 | 15 Apr 08:21:06 | 5 | 6.2 mph | 7 | SW (219°) | 99818 | 101971 | 24.6°C | 84.4% | 21.8°C | 1741ft (531m) | 13.24v | 15 |
| 4270 | 15 Apr 08:20:55 | 5 | 6.1 mph | 7 | SW (229°) | 99813 | 101966 | 24.6°C | 84.3% | 21.8°C | 1749ft (533m) | 13.23v | 15 |
| 4269 | 15 Apr 08:20:44 | 7 | 6.9 mph | 7 | SW (219°) | 99818 | 101971 | 24.6°C | 84.3% | 21.8°C | 1749ft (533m) | 13.23v | 14 |
| 4268 | 15 Apr 08:20:33 | 7 | 7.9 mph | 9 | SW (214°) | 99818 | 101971 | 24.6°C | 84.3% | 21.8°C | 1749ft (533m) | 13.24v | 13 |
| 4267 | 15 Apr 08:20:21 | 6 | 7.1 mph | 8 | SSW (211°) | 99815 | 101968 | 24.6°C | 84.4% | 21.8°C | 1741ft (531m) | 13.23v | 16 |
| 4266 | 15 Apr 08:20:10 | 6 | 6.5 mph | 8 | SSW (205°) | 99813 | 101966 | 24.6°C | 84.4% | 21.8°C | 1741ft (531m) | 13.23v | 14 |
| 4265 | 15 Apr 08:19:59 | 5 | 5.9 mph | 7 | SSW (212°) | 99816 | 101969 | 24.6°C | 84.4% | 21.8°C | 1741ft (531m) | 13.21v | 13 |
| 4264 | 15 Apr 08:19:48 | 6 | 6.5 mph | 8 | SW (215°) | 99817 | 101970 | 24.6°C | 84.4% | 21.8°C | 1741ft (531m) | 13.24v | 12 |
| 4263 | 15 Apr 08:19:36 | 4 | 6.2 mph | 8 | SW (216°) | 99815 | 101968 | 24.6°C | 84.5% | 21.8°C | 1733ft (528m) | 13.25v | 13 |
| 4262 | 15 Apr 08:19:25 | 4 | 4.9 mph | 7 | SW (218°) | 99816 | 101969 | 24.6°C | 84.4% | 21.8°C | 1741ft (531m) | 13.24v | 13 |
| 4261 | 15 Apr 08:19:14 | 6 | 7.2 mph | 8 | SW (223°) | 99816 | 101969 | 24.6°C | 84.3% | 21.8°C | 1749ft (533m) | 13.23v | 15 |
| 4260 | 15 Apr 08:19:03 | 6 | 7.4 mph | 9 | SW (218°) | 99815 | 101968 | 24.6°C | 84.2% | 21.8°C | 1757ft (536m) | 13.25v | 13 |
| 4259 | 15 Apr 08:18:51 | 7 | 7.8 mph | 8 | SW (216°) | 99815 | 101968 | 24.5°C | 84.3% | 21.7°C | 1748ft (533m) | 13.24v | 14 |
| 4258 | 15 Apr 08:18:40 | 6 | 7 mph | 9 | SW (221°) | 99813 | 101966 | 24.6°C | 84.4% | 21.8°C | 1741ft (531m) | 13.23v | 13 |
| 4257 | 15 Apr 08:18:29 | 6 | 7.8 mph | 9 | SW (221°) | 99813 | 101966 | 24.5°C | 84.4% | 21.7°C | 1741ft (531m) | 13.24v | 12 |
| 4256 | 15 Apr 08:18:18 | 6 | 7 mph | 9 | SSW (206°) | 99814 | 101967 | 24.5°C | 84.4% | 21.7°C | 1741ft (531m) | 13.24v | 13 |
| 4255 | 15 Apr 08:18:06 | 6 | 6.6 mph | 7 | SSW (213°) | 99813 | 101966 | 24.5°C | 84.4% | 21.7°C | 1741ft (531m) | 13.24v | 13 |
| 4254 | 15 Apr 08:17:55 | 5 | 5.8 mph | 8 | SW (224°) | 99814 | 101967 | 24.5°C | 84.4% | 21.7°C | 1741ft (531m) | 13.25v | 13 |
| 4253 | 15 Apr 08:17:44 | 3 | 4 mph | 5 | SW (225°) | 99818 | 101971 | 24.5°C | 84.3% | 21.7°C | 1748ft (533m) | 13.24v | 13 |
| 4252 | 15 Apr 08:17:33 | 4 | 5.3 mph | 7 | SW (219°) | 99815 | 101968 | 24.5°C | 84.2% | 21.7°C | 1756ft (535m) | 13.26v | 14 |
| 4251 | 15 Apr 08:17:21 | 5 | 6.5 mph | 8 | SW (232°) | 99812 | 101965 | 24.5°C | 84.2% | 21.7°C | 1756ft (535m) | 13.24v | 12 |
| 4250 | 15 Apr 08:17:10 | 5 | 7.1 mph | 9 | SW (220°) | 99814 | 101967 | 24.5°C | 84.1% | 21.6°C | 1764ft (538m) | 13.23v | 13 |
| 4249 | 15 Apr 08:16:59 | 6 | 7.4 mph | 9 | SSW (205°) | 99812 | 101965 | 24.6°C | 84.1% | 21.7°C | 1765ft (538m) | 13.23v | 13 |
| 4248 | 15 Apr 08:16:48 | 6 | 6.4 mph | 7 | SSW (209°) | 99812 | 101965 | 24.6°C | 84% | 21.7°C | 1773ft (540m) | 13.23v | 13 |
| 4247 | 15 Apr 08:16:36 | 8 | 8.2 mph | 9 | SW (216°) | 99812 | 101965 | 24.6°C | 83.8% | 21.7°C | 1789ft (545m) | 13.24v | 13 |
| 4246 | 15 Apr 08:16:25 | 5 | 6.5 mph | 8 | SSW (208°) | 99814 | 101967 | 24.6°C | 83.8% | 21.7°C | 1789ft (545m) | 13.24v | 14 |
| 4245 | 15 Apr 08:16:14 | 7 | 7.8 mph | 9 | SSW (210°) | 99810 | 101963 | 24.6°C | 83.7% | 21.7°C | 1797ft (548m) | 13.24v | 15 |
| 4244 | 15 Apr 08:16:03 | 7 | 7.9 mph | 9 | SW (219°) | 99812 | 101965 | 24.5°C | 83.7% | 21.6°C | 1796ft (547m) | 13.23v | 13 |
| 4243 | 15 Apr 08:15:51 | 7 | 8.1 mph | 10 | SW (217°) | 99811 | 101964 | 24.5°C | 83.5% | 21.5°C | 1812ft (552m) | 13.25v | 13 |
| 4242 | 15 Apr 08:15:40 | 8 | 10.6 mph | 12 | SW (214°) | 99810 | 101963 | 24.5°C | 83.4% | 21.5°C | 1820ft (555m) | 13.24v | 13 |
| 4241 | 15 Apr 08:15:29 | 11 | 11.8 mph | 12 | SW (217°) | 99808 | 101961 | 24.6°C | 83.3% | 21.6°C | 1829ft (557m) | 13.24v | 13 |
| 4240 | 15 Apr 08:15:18 | 9 | 10.4 mph | 12 | SW (214°) | 99808 | 101961 | 24.6°C | 83.4% | 21.6°C | 1821ft (555m) | 13.23v | 13 |
| 4239 | 15 Apr 08:15:06 | 7 | 8.7 mph | 10 | SSW (206°) | 99810 | 101963 | 24.6°C | 83.6% | 21.6°C | 1805ft (550m) | 13.24v | 13 |
| 4238 | 15 Apr 08:14:55 | 9 | 10.3 mph | 12 | SSW (213°) | 99805 | 101958 | 24.6°C | 83.7% | 21.7°C | 1797ft (548m) | 13.25v | 13 |
| 4237 | 15 Apr 08:14:44 | 7 | 10 mph | 13 | SSW (207°) | 99808 | 101961 | 24.6°C | 83.6% | 21.6°C | 1805ft (550m) | 13.24v | 16 |
| 4236 | 15 Apr 08:14:33 | 6 | 6.6 mph | 7 | SW (220°) | 99813 | 101966 | 24.6°C | 83.8% | 21.7°C | 1789ft (545m) | 13.25v | 14 |
| 4235 | 15 Apr 08:14:21 | 5 | 6.9 mph | 8 | SW (221°) | 99812 | 101965 | 24.6°C | 83.9% | 21.7°C | 1781ft (543m) | 13.24v | 16 |
| 4234 | 15 Apr 08:14:10 | 6 | 7.4 mph | 8 | SSW (213°) | 99809 | 101962 | 24.6°C | 83.9% | 21.7°C | 1781ft (543m) | 13.25v | 13 |
| 4233 | 15 Apr 08:13:59 | 5 | 5.4 mph | 6 | SW (225°) | 99807 | 101960 | 24.6°C | 83.9% | 21.7°C | 1781ft (543m) | 13.23v | 13 |
| 4232 | 15 Apr 08:13:48 | 6 | 6.5 mph | 9 | SW (222°) | 99810 | 101963 | 24.6°C | 83.7% | 21.7°C | 1797ft (548m) | 13.25v | 13 |
| 4231 | 15 Apr 08:13:36 | 6 | 7.1 mph | 8 | SSW (213°) | 99809 | 101962 | 24.6°C | 83.8% | 21.7°C | 1789ft (545m) | 13.24v | 12 |
| 4230 | 15 Apr 08:13:25 | 6 | 6 mph | 6 | SW (218°) | 99811 | 101964 | 24.6°C | 83.7% | 21.7°C | 1797ft (548m) | 13.25v | 14 |
| 4229 | 15 Apr 08:13:14 | 6 | 6.6 mph | 7 | SW (228°) | 99807 | 101960 | 24.6°C | 83.6% | 21.6°C | 1805ft (550m) | 13.25v | 15 |
| 4228 | 15 Apr 08:13:03 | 6 | 6.7 mph | 8 | SW (221°) | 99810 | 101963 | 24.6°C | 83.6% | 21.6°C | 1805ft (550m) | 13.25v | 13 |
| 4227 | 15 Apr 08:12:51 | 7 | 7.1 mph | 8 | SSW (208°) | 99809 | 101962 | 24.6°C | 83.5% | 21.6°C | 1813ft (553m) | 13.25v | 15 |
| 4226 | 15 Apr 08:12:40 | 6 | 7.6 mph | 9 | SSW (206°) | 99807 | 101960 | 24.6°C | 83.5% | 21.6°C | 1813ft (553m) | 13.24v | 14 |
| 4225 | 15 Apr 08:12:29 | 8 | 8.5 mph | 10 | SW (215°) | 99806 | 101959 | 24.6°C | 83.6% | 21.6°C | 1805ft (550m) | 13.23v | 12 |
| 4224 | 15 Apr 08:12:18 | 7 | 7.3 mph | 8 | SSW (200°) | 99811 | 101964 | 24.6°C | 83.6% | 21.6°C | 1805ft (550m) | 13.24v | 14 |
| 4223 | 15 Apr 08:12:06 | 8 | 8.5 mph | 9 | SSW (210°) | 99807 | 101960 | 24.6°C | 83.7% | 21.7°C | 1797ft (548m) | 13.26v | 13 |
| 4222 | 15 Apr 08:11:55 | 7 | 8.6 mph | 11 | S (190°) | 99803 | 101956 | 24.6°C | 83.6% | 21.6°C | 1805ft (550m) | 13.24v | 14 |
| 4221 | 15 Apr 08:11:44 | 5 | 5.8 mph | 7 | SW (216°) | 99810 | 101963 | 24.6°C | 83.6% | 21.6°C | 1805ft (550m) | 13.24v | 13 |
| 4220 | 15 Apr 08:11:33 | 4 | 4.4 mph | 5 | SW (226°) | 99809 | 101962 | 24.6°C | 83.4% | 21.6°C | 1821ft (555m) | 13.25v | 13 |
| 4219 | 15 Apr 08:11:21 | 6 | 7.2 mph | 8 | SSW (206°) | 99807 | 101960 | 24.6°C | 83.3% | 21.6°C | 1829ft (557m) | 13.23v | 16 |
| 4218 | 15 Apr 08:11:10 | 6 | 7.6 mph | 9 | SSW (212°) | 99807 | 101960 | 24.6°C | 83.4% | 21.6°C | 1821ft (555m) | 13.25v | 13 |
| 4217 | 15 Apr 08:10:59 | 5 | 5.5 mph | 6 | SSW (210°) | 99809 | 101962 | 24.6°C | 83.3% | 21.6°C | 1829ft (557m) | 13.23v | 13 |
| 4216 | 15 Apr 08:10:48 | 6 | 7.3 mph | 9 | SSW (206°) | 99805 | 101958 | 24.6°C | 83.2% | 21.6°C | 1838ft (560m) | 13.23v | 14 |
| 4215 | 15 Apr 08:10:36 | 8 | 8.8 mph | 10 | SSW (203°) | 99807 | 101960 | 24.6°C | 83% | 21.5°C | 1854ft (565m) | 13.23v | 14 |
| 4214 | 15 Apr 08:10:25 | 6 | 7.6 mph | 9 | SSW (208°) | 99807 | 101960 | 24.6°C | 83.2% | 21.6°C | 1838ft (560m) | 13.24v | 13 |
| 4213 | 15 Apr 08:10:14 | 8 | 9.7 mph | 11 | SSW (203°) | 99810 | 101963 | 24.6°C | 83% | 21.5°C | 1854ft (565m) | 13.24v | 13 |
| 4212 | 15 Apr 08:10:03 | 9 | 10.2 mph | 11 | SSW (207°) | 99804 | 101957 | 24.6°C | 83% | 21.5°C | 1854ft (565m) | 13.23v | 12 |
| 4211 | 15 Apr 08:09:51 | 7 | 8.2 mph | 9 | SSW (209°) | 99803 | 101956 | 24.6°C | 83.2% | 21.6°C | 1838ft (560m) | 13.26v | 13 |
| 4210 | 15 Apr 08:09:40 | 7 | 7.6 mph | 9 | SSW (209°) | 99802 | 101955 | 24.6°C | 83.2% | 21.6°C | 1838ft (560m) | 13.24v | 12 |
| 4209 | 15 Apr 08:09:29 | 6 | 7.8 mph | 10 | SW (216°) | 99805 | 101958 | 24.6°C | 83.2% | 21.6°C | 1838ft (560m) | 13.23v | 13 |
| 4208 | 15 Apr 08:09:18 | 7 | 7.6 mph | 8 | SW (217°) | 99805 | 101958 | 24.6°C | 83.2% | 21.6°C | 1838ft (560m) | 13.23v | 13 |
| 4207 | 15 Apr 08:09:07 | 5 | 6.3 mph | 7 | SSW (201°) | 99803 | 101956 | 24.6°C | 83% | 21.5°C | 1854ft (565m) | 13.23v | 14 |
| 4206 | 15 Apr 08:08:55 | 6 | 7.2 mph | 9 | SSW (208°) | 99803 | 101956 | 24.6°C | 83.3% | 21.6°C | 1829ft (557m) | 13.24v | 14 |
| 4205 | 15 Apr 08:08:44 | 4 | 5.4 mph | 7 | SSW (197°) | 99806 | 101959 | 24.7°C | 83.2% | 21.7°C | 1838ft (560m) | 13.23v | 14 |
| 4204 | 15 Apr 08:08:33 | 7 | 7.7 mph | 9 | SW (215°) | 99803 | 101956 | 24.6°C | 83.2% | 21.6°C | 1838ft (560m) | 13.22v | 13 |
| 4203 | 15 Apr 08:08:22 | 6 | 7 mph | 8 | SSW (210°) | 99803 | 101956 | 24.6°C | 83.3% | 21.6°C | 1829ft (557m) | 13.23v | 16 |
| 4202 | 15 Apr 08:08:10 | 6 | 7.4 mph | 9 | SSW (212°) | 99801 | 101954 | 24.6°C | 83.3% | 21.6°C | 1829ft (557m) | 13.23v | 13 |
| 4201 | 15 Apr 08:07:59 | 5 | 5.8 mph | 7 | SW (227°) | 99803 | 101956 | 24.6°C | 83.3% | 21.6°C | 1829ft (557m) | 13.23v | 16 |
| 4200 | 15 Apr 08:07:48 | 5 | 5.8 mph | 8 | SSW (213°) | 99804 | 101957 | 24.6°C | 83.3% | 21.6°C | 1829ft (557m) | 13.22v | 14 |
| 4199 | 15 Apr 08:07:36 | 6 | 5.5 mph | 6 | SSW (212°) | 99801 | 101954 | 24.7°C | 83.3% | 21.7°C | 1830ft (558m) | 13.22v | 13 |
| 4198 | 15 Apr 08:07:25 | 4 | 5.2 mph | 6 | SW (216°) | 99802 | 101955 | 24.6°C | 83.3% | 21.6°C | 1829ft (557m) | 13.25v | 13 |
| 4197 | 15 Apr 08:07:14 | 4 | 4.4 mph | 5 | SW (219°) | 99802 | 101955 | 24.7°C | 83.1% | 21.6°C | 1847ft (563m) | 13.24v | 14 |
| 4196 | 15 Apr 08:07:03 | 5 | 5.6 mph | 6 | SW (217°) | 99801 | 101954 | 24.7°C | 83% | 21.6°C | 1855ft (565m) | 13.25v | 13 |
| 4195 | 15 Apr 08:06:51 | 6 | 6.6 mph | 8 | SSW (202°) | 99799 | 101952 | 24.7°C | 83% | 21.6°C | 1855ft (565m) | 13.24v | 15 |
| 4194 | 15 Apr 08:06:40 | 6 | 6.8 mph | 8 | SSW (206°) | 99800 | 101953 | 24.7°C | 82.9% | 21.6°C | 1863ft (568m) | 13.23v | 14 |
| 4193 | 15 Apr 08:06:29 | 7 | 8.1 mph | 9 | SW (215°) | 99800 | 101953 | 24.7°C | 82.8% | 21.6°C | 1871ft (570m) | 13.22v | 15 |
| 4192 | 15 Apr 08:06:18 | 6 | 8.2 mph | 11 | SW (214°) | 99802 | 101955 | 24.7°C | 82.8% | 21.6°C | 1871ft (570m) | 13.22v | 14 |
| 4191 | 15 Apr 08:06:07 | 7 | 7.8 mph | 9 | SSW (210°) | 99800 | 101953 | 24.7°C | 82.8% | 21.6°C | 1871ft (570m) | 13.24v | 13 |
| 4190 | 15 Apr 08:05:55 | 8 | 8.3 mph | 9 | SW (214°) | 99802 | 101955 | 24.7°C | 82.8% | 21.6°C | 1871ft (570m) | 13.23v | 17 |
| 4189 | 15 Apr 08:05:44 | 6 | 7.6 mph | 10 | SW (216°) | 99800 | 101953 | 24.7°C | 82.8% | 21.6°C | 1871ft (570m) | 13.22v | 17 |
| 4188 | 15 Apr 08:05:33 | 6 | 7 mph | 8 | SW (218°) | 99804 | 101957 | 24.7°C | 82.8% | 21.6°C | 1871ft (570m) | 13.24v | 15 |
| 4187 | 15 Apr 08:05:22 | 8 | 8.7 mph | 10 | SW (217°) | 99797 | 101950 | 24.7°C | 82.8% | 21.6°C | 1871ft (570m) | 13.24v | 14 |
| 4186 | 15 Apr 08:05:10 | 6 | 7.8 mph | 11 | SSW (208°) | 99794 | 101947 | 24.7°C | 82.9% | 21.6°C | 1863ft (568m) | 13.23v | 13 |
| 4185 | 15 Apr 08:04:59 | 7 | 7.7 mph | 10 | SSW (205°) | 99794 | 101947 | 24.7°C | 83% | 21.6°C | 1855ft (565m) | 13.23v | 13 |
| 4184 | 15 Apr 08:04:48 | 5 | 6 mph | 7 | SSW (209°) | 99796 | 101949 | 24.7°C | 83% | 21.6°C | 1855ft (565m) | 13.21v | 14 |
| 4183 | 15 Apr 08:04:37 | 5 | 5.7 mph | 7 | SW (217°) | 99793 | 101946 | 24.7°C | 83% | 21.6°C | 1855ft (565m) | 13.21v | 13 |
| 4182 | 15 Apr 08:04:25 | 6 | 6.3 mph | 8 | SW (217°) | 99795 | 101948 | 24.7°C | 82.9% | 21.6°C | 1863ft (568m) | 13.24v | 13 |
| 4181 | 15 Apr 08:04:14 | 5 | 6 mph | 7 | SW (223°) | 99798 | 101951 | 24.7°C | 82.8% | 21.6°C | 1871ft (570m) | 13.24v | 13 |
| 4180 | 15 Apr 08:04:03 | 6 | 6.7 mph | 8 | SW (222°) | 99798 | 101951 | 24.7°C | 82.8% | 21.6°C | 1871ft (570m) | 13.22v | 13 |
| 4179 | 15 Apr 08:03:51 | 7 | 8 mph | 9 | SSW (206°) | 99792 | 101945 | 24.7°C | 82.8% | 21.6°C | 1871ft (570m) | 13.22v | 13 |
| 4178 | 15 Apr 08:03:40 | 6 | 6.6 mph | 7 | SW (218°) | 99797 | 101950 | 24.7°C | 82.9% | 21.6°C | 1863ft (568m) | 13.23v | 13 |
| 4177 | 15 Apr 08:03:29 | 6 | 7.3 mph | 8 | SW (219°) | 99794 | 101947 | 24.7°C | 82.8% | 21.6°C | 1871ft (570m) | 13.21v | 14 |
| 4176 | 15 Apr 08:03:18 | 6 | 6.6 mph | 7 | SW (217°) | 99794 | 101947 | 24.7°C | 82.8% | 21.6°C | 1871ft (570m) | 13.21v | 14 |
| 4175 | 15 Apr 08:03:07 | 5 | 6.4 mph | 7 | SW (217°) | 99791 | 101944 | 24.7°C | 82.7% | 21.6°C | 1879ft (573m) | 13.22v | 14 |
| 4174 | 15 Apr 08:02:55 | 6 | 6.8 mph | 7 | SW (216°) | 99793 | 101946 | 24.7°C | 82.7% | 21.6°C | 1879ft (573m) | 13.21v | 14 |
| 4173 | 15 Apr 08:02:44 | 6 | 7.1 mph | 9 | SSW (209°) | 99793 | 101946 | 24.7°C | 82.8% | 21.6°C | 1871ft (570m) | 13.23v | 13 |
| 4172 | 15 Apr 08:02:33 | 6 | 6.5 mph | 8 | SSW (210°) | 99794 | 101947 | 24.7°C | 82.8% | 21.6°C | 1871ft (570m) | 13.22v | 13 |
| 4171 | 15 Apr 08:02:22 | 5 | 6.6 mph | 9 | SSW (210°) | 99791 | 101944 | 24.7°C | 83% | 21.6°C | 1855ft (565m) | 13.22v | 18 |
| 4170 | 15 Apr 08:02:10 | 6 | 6.3 mph | 7 | SW (218°) | 99791 | 101944 | 24.7°C | 82.9% | 21.6°C | 1863ft (568m) | 13.22v | 17 |
| 4169 | 15 Apr 08:01:59 | 5 | 5.6 mph | 6 | SW (217°) | 99794 | 101947 | 24.7°C | 83% | 21.6°C | 1855ft (565m) | 13.21v | 16 |
| 4168 | 15 Apr 08:01:48 | 4 | 5.8 mph | 8 | SW (215°) | 99793 | 101946 | 24.7°C | 82.8% | 21.6°C | 1871ft (570m) | 13.2v | 16 |
| 4167 | 15 Apr 08:01:37 | 4 | 4.6 mph | 5 | SW (219°) | 99791 | 101944 | 24.7°C | 82.8% | 21.6°C | 1871ft (570m) | 13.2v | 15 |
| 4166 | 15 Apr 08:01:25 | 5 | 5.6 mph | 6 | SW (217°) | 99795 | 101948 | 24.7°C | 82.7% | 21.6°C | 1879ft (573m) | 13.2v | 17 |
| 4165 | 15 Apr 08:01:14 | 5 | 5.7 mph | 6 | SSW (209°) | 99792 | 101945 | 24.7°C | 82.7% | 21.6°C | 1879ft (573m) | 13.22v | 16 |
| 4164 | 15 Apr 08:01:03 | 5 | 5.3 mph | 6 | SSW (211°) | 99794 | 101947 | 24.7°C | 82.7% | 21.6°C | 1879ft (573m) | 13.21v | 17 |
| 4163 | 15 Apr 08:00:52 | 5 | 5.1 mph | 6 | SSW (207°) | 99792 | 101945 | 24.7°C | 82.5% | 21.5°C | 1895ft (578m) | 13.21v | 17 |
| 4162 | 15 Apr 08:00:40 | 5 | 6 mph | 7 | SSW (202°) | 99792 | 101945 | 24.7°C | 82.4% | 21.5°C | 1903ft (580m) | 13.2v | 17 |
| 4161 | 15 Apr 08:00:29 | 7 | 8.6 mph | 10 | SSW (210°) | 99791 | 101944 | 24.7°C | 82.3% | 21.5°C | 1911ft (582m) | 13.2v | 18 |
| 4160 | 15 Apr 08:00:18 | 8 | 8.9 mph | 10 | SSW (209°) | 99792 | 101945 | 24.7°C | 82.1% | 21.4°C | 1928ft (588m) | 13.19v | 16 |
| 4159 | 15 Apr 08:00:07 | 7 | 8.4 mph | 10 | SSW (205°) | 99791 | 101944 | 24.7°C | 82.1% | 21.4°C | 1928ft (588m) | 13.19v | 18 |
| 4158 | 15 Apr 07:59:55 | 7 | 7.9 mph | 9 | SSW (205°) | 99788 | 101940 | 24.7°C | 82.2% | 21.5°C | 1920ft (585m) | 13.18v | 17 |
| 4157 | 15 Apr 07:59:44 | 6 | 7.9 mph | 9 | SSW (208°) | 99788 | 101940 | 24.7°C | 82.2% | 21.5°C | 1920ft (585m) | 13.2v | 16 |
| 4156 | 15 Apr 07:59:33 | 6 | 7.5 mph | 10 | SSW (206°) | 99790 | 101942 | 24.7°C | 82.2% | 21.5°C | 1920ft (585m) | 13.2v | 16 |
| 4155 | 15 Apr 07:59:22 | 6 | 7.1 mph | 8 | SSW (201°) | 99788 | 101940 | 24.7°C | 82.2% | 21.5°C | 1920ft (585m) | 13.19v | 17 |
| 4154 | 15 Apr 07:59:10 | 7 | 7.4 mph | 8 | SSW (202°) | 99788 | 101940 | 24.7°C | 82.2% | 21.5°C | 1920ft (585m) | 13.19v | 17 |
| 4153 | 15 Apr 07:58:59 | 8 | 8.7 mph | 9 | SSW (202°) | 99784 | 101936 | 24.7°C | 82% | 21.4°C | 1936ft (590m) | 13.19v | 16 |
| 4152 | 15 Apr 07:58:48 | 6 | 7.6 mph | 10 | SSW (200°) | 99787 | 101939 | 24.7°C | 82.2% | 21.5°C | 1920ft (585m) | 13.18v | 17 |
| 4151 | 15 Apr 07:58:37 | 6 | 6.6 mph | 7 | SSW (210°) | 99789 | 101941 | 24.7°C | 82.2% | 21.5°C | 1920ft (585m) | 13.18v | 16 |
| 4150 | 15 Apr 07:58:25 | 7 | 7.1 mph | 8 | SSW (206°) | 99784 | 101936 | 24.7°C | 82.2% | 21.5°C | 1920ft (585m) | 13.18v | 16 |
| 4149 | 15 Apr 07:58:14 | 7 | 7.7 mph | 8 | SSW (205°) | 99787 | 101939 | 24.7°C | 82.2% | 21.5°C | 1920ft (585m) | 13.2v | 16 |
| 4148 | 15 Apr 07:58:03 | 6 | 6.9 mph | 8 | SSW (207°) | 99786 | 101938 | 24.7°C | 82.3% | 21.5°C | 1911ft (582m) | 13.17v | 16 |
| 4147 | 15 Apr 07:57:52 | 6 | 7.3 mph | 9 | SSW (199°) | 99788 | 101940 | 24.7°C | 82.3% | 21.5°C | 1911ft (582m) | 13.17v | 16 |
| 4146 | 15 Apr 07:57:40 | 5 | 5.5 mph | 7 | SSW (198°) | 99789 | 101941 | 24.7°C | 82.4% | 21.5°C | 1903ft (580m) | 13.17v | 16 |
| 4145 | 15 Apr 07:57:29 | 6 | 7.1 mph | 8 | SSW (207°) | 99789 | 101941 | 24.7°C | 82.3% | 21.5°C | 1911ft (582m) | 13.17v | 17 |
| 4144 | 15 Apr 07:57:18 | 5 | 6 mph | 7 | SSW (208°) | 99786 | 101938 | 24.7°C | 82.2% | 21.5°C | 1920ft (585m) | 13.16v | 18 |
| 4143 | 15 Apr 07:57:07 | 6 | 6.7 mph | 8 | SSW (210°) | 99786 | 101938 | 24.7°C | 82.2% | 21.5°C | 1920ft (585m) | 13.15v | 16 |
| 4142 | 15 Apr 07:56:55 | 6 | 8.1 mph | 10 | SSW (207°) | 99784 | 101936 | 24.7°C | 82.1% | 21.4°C | 1928ft (588m) | 13.15v | 17 |
| 4141 | 15 Apr 07:56:44 | 6 | 7.1 mph | 9 | SSW (213°) | 99787 | 101939 | 24.7°C | 82.2% | 21.5°C | 1920ft (585m) | 13.17v | 16 |
| 4140 | 15 Apr 07:56:33 | 7 | 8.2 mph | 9 | SSW (211°) | 99789 | 101941 | 24.7°C | 82.2% | 21.5°C | 1920ft (585m) | 13.18v | 16 |
| 4139 | 15 Apr 07:56:22 | 7 | 7.3 mph | 8 | SW (221°) | 99786 | 101938 | 24.7°C | 82.2% | 21.5°C | 1920ft (585m) | 13.17v | 16 |
| 4138 | 15 Apr 07:56:10 | 4 | 5.6 mph | 7 | SW (219°) | 99788 | 101940 | 24.6°C | 82.2% | 21.4°C | 1919ft (585m) | 13.17v | 18 |
| 4137 | 15 Apr 07:55:59 | 4 | 4.9 mph | 6 | SSW (207°) | 99788 | 101940 | 24.7°C | 82.1% | 21.4°C | 1928ft (588m) | 13.18v | 17 |
| 4136 | 15 Apr 07:55:48 | 4 | 5.7 mph | 7 | SW (216°) | 99787 | 101939 | 24.7°C | 82.1% | 21.4°C | 1928ft (588m) | 13.15v | 17 |
| 4135 | 15 Apr 07:55:37 | 6 | 6.7 mph | 7 | SSW (208°) | 99786 | 101938 | 24.7°C | 82.2% | 21.5°C | 1920ft (585m) | 13.13v | 17 |
| 4134 | 15 Apr 07:55:25 | 6 | 6.6 mph | 8 | SW (217°) | 99785 | 101937 | 24.7°C | 82.2% | 21.5°C | 1920ft (585m) | 13.15v | 18 |
| 4133 | 15 Apr 07:55:14 | 6 | 7 mph | 8 | SW (225°) | 99786 | 101938 | 24.6°C | 82.2% | 21.4°C | 1919ft (585m) | 13.14v | 17 |
| 4132 | 15 Apr 07:55:03 | 5 | 5.8 mph | 6 | SSW (211°) | 99787 | 101939 | 24.6°C | 82.2% | 21.4°C | 1919ft (585m) | 13.14v | 18 |
| 4131 | 15 Apr 07:54:52 | 6 | 6.2 mph | 7 | SW (218°) | 99786 | 101938 | 24.6°C | 82.2% | 21.4°C | 1919ft (585m) | 13.16v | 16 |
| 4130 | 15 Apr 07:54:40 | 5 | 5.8 mph | 7 | SSW (205°) | 99790 | 101942 | 24.7°C | 82.1% | 21.4°C | 1928ft (588m) | 13.15v | 18 |
| 4129 | 15 Apr 07:54:29 | 4 | 5.4 mph | 6 | SSW (203°) | 99785 | 101937 | 24.6°C | 82.1% | 21.3°C | 1927ft (587m) | 13.13v | 18 |
| 4128 | 15 Apr 07:54:18 | 4 | 5.6 mph | 7 | SSW (207°) | 99788 | 101940 | 24.7°C | 82% | 21.4°C | 1936ft (590m) | 13.13v | 16 |
| 4127 | 15 Apr 07:54:07 | 5 | 6.4 mph | 8 | SSW (211°) | 99786 | 101938 | 24.7°C | 82% | 21.4°C | 1936ft (590m) | 13.12v | 16 |
| 4126 | 15 Apr 07:53:55 | 8 | 9.1 mph | 10 | SW (222°) | 99787 | 101939 | 24.7°C | 82% | 21.4°C | 1936ft (590m) | 13.11v | 18 |
| 4125 | 15 Apr 07:53:44 | 5 | 7.1 mph | 10 | SW (216°) | 99783 | 101935 | 24.7°C | 82.1% | 21.4°C | 1928ft (588m) | 13.12v | 16 |
| 4124 | 15 Apr 07:53:33 | 5 | 7.5 mph | 9 | SW (215°) | 99784 | 101936 | 24.7°C | 82.1% | 21.4°C | 1928ft (588m) | 13.13v | 16 |
| 4123 | 15 Apr 07:53:22 | 5 | 6 mph | 7 | SSW (211°) | 99784 | 101936 | 24.6°C | 82.1% | 21.3°C | 1927ft (587m) | 13.12v | 16 |
| 4122 | 15 Apr 07:53:10 | 6 | 6.4 mph | 7 | SSW (206°) | 99782 | 101934 | 24.6°C | 82% | 21.3°C | 1935ft (590m) | 13.11v | 16 |
| 4121 | 15 Apr 07:52:59 | 5 | 5.1 mph | 6 | SSW (206°) | 99785 | 101937 | 24.7°C | 82.1% | 21.4°C | 1928ft (588m) | 13.12v | 16 |
| 4120 | 15 Apr 07:52:48 | 5 | 5.2 mph | 6 | SSW (201°) | 99785 | 101937 | 24.6°C | 82.1% | 21.3°C | 1927ft (587m) | 13.11v | 17 |
| 4119 | 15 Apr 07:52:37 | 6 | 6.9 mph | 8 | SSW (212°) | 99785 | 101937 | 24.6°C | 82% | 21.3°C | 1935ft (590m) | 13.1v | 16 |
| 4118 | 15 Apr 07:52:25 | 5 | 6.7 mph | 8 | SSW (202°) | 99782 | 101934 | 24.6°C | 82.2% | 21.4°C | 1919ft (585m) | 13.1v | 17 |
| 4117 | 15 Apr 07:52:14 | 5 | 6.3 mph | 8 | SW (219°) | 99787 | 101939 | 24.6°C | 82.2% | 21.4°C | 1919ft (585m) | 13.1v | 17 |
| 4116 | 15 Apr 07:52:03 | 5 | 5.8 mph | 7 | SSW (211°) | 99783 | 101935 | 24.6°C | 82.2% | 21.4°C | 1919ft (585m) | 13.11v | 16 |
| 4115 | 15 Apr 07:51:52 | 5 | 5.4 mph | 6 | SW (215°) | 99783 | 101935 | 24.6°C | 82.2% | 21.4°C | 1919ft (585m) | 13.12v | 16 |
| 4114 | 15 Apr 07:51:40 | 7 | 7.7 mph | 8 | SSW (199°) | 99786 | 101938 | 24.6°C | 82.1% | 21.3°C | 1927ft (587m) | 13.1v | 16 |
| 4113 | 15 Apr 07:51:29 | 4 | 5.9 mph | 8 | SW (222°) | 99781 | 101933 | 24.6°C | 82.2% | 21.4°C | 1919ft (585m) | 13.1v | 17 |
| 4112 | 15 Apr 07:51:18 | 4 | 4.6 mph | 6 | SSW (212°) | 99785 | 101937 | 24.6°C | 82.1% | 21.3°C | 1927ft (587m) | 13.1v | 17 |
| 4111 | 15 Apr 07:51:07 | 5 | 5.6 mph | 7 | SW (225°) | 99784 | 101936 | 24.6°C | 82.1% | 21.3°C | 1927ft (587m) | 13.09v | 16 |
| 4110 | 15 Apr 07:50:55 | 6 | 6.8 mph | 7 | SSW (213°) | 99782 | 101934 | 24.6°C | 82.1% | 21.3°C | 1927ft (587m) | 13.08v | 16 |
| 4109 | 15 Apr 07:50:44 | 6 | 7.5 mph | 8 | SSW (213°) | 99782 | 101934 | 24.6°C | 82.2% | 21.4°C | 1919ft (585m) | 13.08v | 18 |
| 4108 | 15 Apr 07:50:33 | 5 | 5.8 mph | 6 | SW (224°) | 99784 | 101936 | 24.6°C | 82.2% | 21.4°C | 1919ft (585m) | 13.1v | 17 |
| 4107 | 15 Apr 07:50:22 | 4 | 4.4 mph | 5 | SW (229°) | 99784 | 101936 | 24.6°C | 82.2% | 21.4°C | 1919ft (585m) | 13.1v | 19 |
| 4106 | 15 Apr 07:50:10 | 5 | 5.6 mph | 6 | SW (227°) | 99785 | 101937 | 24.6°C | 82.1% | 21.3°C | 1927ft (587m) | 13.09v | 18 |
| 4105 | 15 Apr 07:49:59 | 6 | 6.6 mph | 7 | SW (220°) | 99783 | 101935 | 24.6°C | 82% | 21.3°C | 1935ft (590m) | 13.09v | 17 |
| 4104 | 15 Apr 07:49:48 | 7 | 7.4 mph | 8 | SSW (206°) | 99784 | 101936 | 24.6°C | 81.9% | 21.3°C | 1943ft (592m) | 13.07v | 16 |
| 4103 | 15 Apr 07:49:37 | 5 | 5.6 mph | 7 | SW (220°) | 99783 | 101935 | 24.6°C | 81.9% | 21.3°C | 1943ft (592m) | 13.07v | 16 |
| 4102 | 15 Apr 07:49:25 | 5 | 6.5 mph | 8 | SSW (210°) | 99785 | 101937 | 24.6°C | 81.9% | 21.3°C | 1943ft (592m) | 13.06v | 16 |
| 4101 | 15 Apr 07:49:14 | 5 | 7.3 mph | 9 | SSW (211°) | 99782 | 101934 | 24.6°C | 82% | 21.3°C | 1935ft (590m) | 13.07v | 16 |
| 4100 | 15 Apr 07:49:03 | 6 | 6.7 mph | 7 | SSW (211°) | 99784 | 101936 | 24.6°C | 81.9% | 21.3°C | 1943ft (592m) | 13.07v | 16 |
| 4099 | 15 Apr 07:48:52 | 6 | 6.5 mph | 8 | SW (222°) | 99784 | 101936 | 24.6°C | 81.8% | 21.3°C | 1951ft (595m) | 13.07v | 16 |
| 4098 | 15 Apr 07:48:40 | 6 | 6.9 mph | 8 | SSW (213°) | 99786 | 101938 | 24.7°C | 81.8% | 21.4°C | 1952ft (595m) | 13.08v | 17 |
| 4097 | 15 Apr 07:48:29 | 5 | 6.2 mph | 8 | SSW (212°) | 99783 | 101935 | 24.6°C | 81.8% | 21.3°C | 1951ft (595m) | 13.07v | 16 |
| 4096 | 15 Apr 07:48:18 | 5 | 5.9 mph | 7 | SW (215°) | 99783 | 101935 | 24.7°C | 81.8% | 21.4°C | 1952ft (595m) | 13.06v | 17 |
| 4095 | 15 Apr 07:48:07 | 6 | 7.1 mph | 8 | SSW (210°) | 99782 | 101934 | 24.7°C | 81.7% | 21.4°C | 1960ft (597m) | 13.07v | 16 |
| 4094 | 15 Apr 07:47:55 | 6 | 7.4 mph | 9 | SW (216°) | 99781 | 101933 | 24.7°C | 81.8% | 21.4°C | 1952ft (595m) | 13.05v | 16 |
| 4093 | 15 Apr 07:47:44 | 6 | 8.3 mph | 10 | SSW (207°) | 99772 | 101924 | 24.7°C | 81.6% | 21.3°C | 1969ft (600m) | 13.06v | 18 |
| 4092 | 15 Apr 07:47:33 | 5 | 5.7 mph | 6 | SW (219°) | 99782 | 101934 | 24.7°C | 81.7% | 21.4°C | 1960ft (597m) | 13.06v | 16 |
| 4091 | 15 Apr 07:47:22 | 6 | 6.8 mph | 9 | SW (227°) | 99780 | 101932 | 24.7°C | 81.6% | 21.3°C | 1969ft (600m) | 13.08v | 17 |
| 4090 | 15 Apr 07:47:10 | 7 | 7.7 mph | 8 | SSW (207°) | 99778 | 101930 | 24.7°C | 81.7% | 21.4°C | 1960ft (597m) | 13.07v | 17 |
| 4089 | 15 Apr 07:46:59 | 6 | 6.8 mph | 8 | SSW (212°) | 99781 | 101933 | 24.7°C | 81.8% | 21.4°C | 1952ft (595m) | 13.04v | 16 |
| 4088 | 15 Apr 07:46:48 | 3 | 5.1 mph | 6 | SSW (212°) | 99781 | 101933 | 24.7°C | 81.9% | 21.4°C | 1944ft (593m) | 13.07v | 19 |
| 4087 | 15 Apr 07:46:37 | 3 | 3.4 mph | 4 | SW (216°) | 99779 | 101931 | 24.7°C | 81.8% | 21.4°C | 1952ft (595m) | 13.06v | 17 |
| 4086 | 15 Apr 07:46:25 | 3 | 4.2 mph | 5 | SW (214°) | 99779 | 101931 | 24.7°C | 81.7% | 21.4°C | 1960ft (597m) | 13.05v | 17 |
| 4085 | 15 Apr 07:46:14 | 5 | 5.5 mph | 6 | SW (215°) | 99780 | 101932 | 24.7°C | 81.7% | 21.4°C | 1960ft (597m) | 13.04v | 16 |
| 4084 | 15 Apr 07:46:03 | 5 | 5.4 mph | 6 | SSW (212°) | 99781 | 101933 | 24.7°C | 81.7% | 21.4°C | 1960ft (597m) | 13.05v | 16 |
| 4083 | 15 Apr 07:45:52 | 5 | 6.1 mph | 8 | SW (214°) | 99779 | 101931 | 24.7°C | 81.5% | 21.3°C | 1977ft (603m) | 13.06v | 16 |
| 4082 | 15 Apr 07:45:40 | 8 | 8.7 mph | 9 | SW (215°) | 99777 | 101929 | 24.7°C | 81.6% | 21.3°C | 1969ft (600m) | 13.05v | 16 |
| 4081 | 15 Apr 07:45:29 | 6 | 7.1 mph | 8 | SW (216°) | 99776 | 101928 | 24.7°C | 81.6% | 21.3°C | 1969ft (600m) | 13.04v | 16 |
| 4080 | 15 Apr 07:45:17 | 7 | 7.9 mph | 9 | SSW (205°) | 99777 | 101929 | 24.7°C | 81.5% | 21.3°C | 1977ft (603m) | 13.04v | 16 |
| 4079 | 15 Apr 07:45:06 | 5 | 6.1 mph | 7 | SW (217°) | 99780 | 101932 | 24.7°C | 81.4% | 21.3°C | 1985ft (605m) | 13.03v | 16 |
| 4078 | 15 Apr 07:44:55 | 6 | 7.2 mph | 9 | SW (216°) | 99776 | 101928 | 24.7°C | 81.3% | 21.3°C | 1993ft (607m) | 13.02v | 16 |
| 4077 | 15 Apr 07:44:44 | 6 | 6.6 mph | 7 | SW (214°) | 99778 | 101930 | 24.7°C | 81.4% | 21.3°C | 1985ft (605m) | 13.03v | 17 |
| 4076 | 15 Apr 07:44:32 | 8 | 8.4 mph | 9 | SSW (206°) | 99777 | 101929 | 24.7°C | 81.3% | 21.3°C | 1993ft (607m) | 13.02v | 16 |
| 4075 | 15 Apr 07:44:21 | 7 | 8.3 mph | 10 | SSW (197°) | 99778 | 101930 | 24.7°C | 81.4% | 21.3°C | 1985ft (605m) | 13.03v | 18 |
| 4074 | 15 Apr 07:44:10 | 6 | 6.9 mph | 8 | SSW (208°) | 99778 | 101930 | 24.7°C | 81.3% | 21.3°C | 1993ft (607m) | 13.04v | 16 |
| 4073 | 15 Apr 07:43:59 | 5 | 6.3 mph | 8 | SSW (205°) | 99777 | 101929 | 24.7°C | 81.3% | 21.3°C | 1993ft (607m) | 13.04v | 16 |
| 4072 | 15 Apr 07:43:47 | 5 | 5.9 mph | 7 | SW (214°) | 99777 | 101929 | 24.7°C | 81.3% | 21.3°C | 1993ft (607m) | 13.03v | 16 |
| 4071 | 15 Apr 07:43:36 | 6 | 7.3 mph | 8 | SW (216°) | 99777 | 101929 | 24.7°C | 81.3% | 21.3°C | 1993ft (607m) | 13.02v | 17 |
| 4070 | 15 Apr 07:43:25 | 7 | 7.9 mph | 9 | SSW (212°) | 99778 | 101930 | 24.7°C | 81.5% | 21.3°C | 1977ft (603m) | 13.01v | 16 |
| 4069 | 15 Apr 07:43:14 | 5 | 5.9 mph | 7 | SSW (197°) | 99776 | 101928 | 24.7°C | 81.5% | 21.3°C | 1977ft (603m) | 13.01v | 17 |
| 4068 | 15 Apr 07:43:02 | 6 | 6.6 mph | 7 | SSW (212°) | 99777 | 101929 | 24.7°C | 81.4% | 21.3°C | 1985ft (605m) | 13.02v | 17 |
| 4067 | 15 Apr 07:42:51 | 7 | 7.6 mph | 9 | SSW (208°) | 99775 | 101927 | 24.7°C | 81.4% | 21.3°C | 1985ft (605m) | 13.01v | 17 |
| 4066 | 15 Apr 07:42:40 | 8 | 8.3 mph | 9 | SW (217°) | 99775 | 101927 | 24.7°C | 81.3% | 21.3°C | 1993ft (607m) | 13.02v | 18 |
| 4065 | 15 Apr 07:42:29 | 6 | 6.5 mph | 8 | SW (214°) | 99779 | 101931 | 24.7°C | 81.4% | 21.3°C | 1985ft (605m) | 13.01v | 18 |
| 4064 | 15 Apr 07:42:18 | 6 | 7.5 mph | 9 | SSW (212°) | 99775 | 101927 | 24.7°C | 81.3% | 21.3°C | 1993ft (607m) | 13v | 18 |
| 4063 | 15 Apr 07:42:07 | 7 | 7.1 mph | 8 | SW (214°) | 99777 | 101929 | 24.7°C | 81.3% | 21.3°C | 1993ft (607m) | 13.01v | 20 |
| 4062 | 15 Apr 07:41:55 | 6 | 6.3 mph | 7 | SSW (207°) | 99774 | 101926 | 24.7°C | 81.3% | 21.3°C | 1993ft (607m) | 13v | 19 |
| 4061 | 15 Apr 07:41:44 | 5 | 6 mph | 8 | SSW (208°) | 99775 | 101927 | 24.7°C | 81.3% | 21.3°C | 1993ft (607m) | 13v | 16 |
| 4060 | 15 Apr 07:41:33 | 5 | 6.1 mph | 7 | SW (218°) | 99775 | 101927 | 24.7°C | 81.1% | 21.2°C | 2010ft (613m) | 13v | 16 |
| 4059 | 15 Apr 07:41:22 | 5 | 5.6 mph | 7 | SW (218°) | 99777 | 101929 | 24.7°C | 81.1% | 21.2°C | 2010ft (613m) | 12.98v | 16 |
| 4058 | 15 Apr 07:41:10 | 4 | 5 mph | 6 | SW (220°) | 99771 | 101923 | 24.7°C | 81% | 21.2°C | 2018ft (615m) | 13v | 16 |
| 4057 | 15 Apr 07:40:59 | 5 | 5.9 mph | 7 | SSW (209°) | 99773 | 101925 | 24.7°C | 80.9% | 21.2°C | 2026ft (618m) | 13.01v | 17 |
| 4056 | 15 Apr 07:40:48 | 7 | 8.4 mph | 10 | SW (217°) | 99773 | 101925 | 24.8°C | 80.9% | 21.3°C | 2027ft (618m) | 13v | 19 |
| 4055 | 15 Apr 07:40:37 | 6 | 6.5 mph | 7 | SSW (205°) | 99774 | 101926 | 24.8°C | 81% | 21.3°C | 2019ft (615m) | 13.01v | 18 |
| 4054 | 15 Apr 07:40:25 | 6 | 6.9 mph | 9 | SW (217°) | 99772 | 101924 | 24.7°C | 80.9% | 21.2°C | 2026ft (618m) | 12.99v | 16 |
| 4053 | 15 Apr 07:40:14 | 7 | 7.9 mph | 9 | SW (216°) | 99772 | 101924 | 24.7°C | 80.9% | 21.2°C | 2026ft (618m) | 12.99v | 16 |
| 4052 | 15 Apr 07:40:03 | 7 | 7.9 mph | 9 | SW (216°) | 99772 | 101924 | 24.7°C | 80.9% | 21.2°C | 2026ft (618m) | 12.99v | 16 |
| 4051 | 15 Apr 07:39:52 | 6 | 6.1 mph | 7 | SW (218°) | 99772 | 101924 | 24.8°C | 81% | 21.3°C | 2019ft (615m) | 12.97v | 17 |
| 4050 | 15 Apr 07:39:40 | 7 | 7.1 mph | 8 | SSW (207°) | 99771 | 101923 | 24.7°C | 81% | 21.2°C | 2018ft (615m) | 12.98v | 19 |
| 4049 | 15 Apr 07:39:29 | 5 | 6.3 mph | 8 | SSW (204°) | 99771 | 101923 | 24.7°C | 81% | 21.2°C | 2018ft (615m) | 12.98v | 16 |
| 4048 | 15 Apr 07:39:18 | 6 | 6.5 mph | 8 | SSW (212°) | 99772 | 101924 | 24.7°C | 80.9% | 21.2°C | 2026ft (618m) | 12.98v | 18 |
| 4047 | 15 Apr 07:39:07 | 7 | 7.5 mph | 8 | SSW (213°) | 99771 | 101923 | 24.7°C | 80.8% | 21.2°C | 2034ft (620m) | 12.97v | 17 |
| 4046 | 15 Apr 07:38:55 | 8 | 9.7 mph | 11 | SW (216°) | 99770 | 101922 | 24.8°C | 80.8% | 21.3°C | 2036ft (621m) | 12.98v | 19 |
| 4045 | 15 Apr 07:38:44 | 8 | 9.1 mph | 10 | SSW (209°) | 99768 | 101920 | 24.7°C | 80.9% | 21.2°C | 2026ft (618m) | 12.96v | 19 |
| 4044 | 15 Apr 07:38:33 | 6 | 7.1 mph | 8 | SW (215°) | 99772 | 101924 | 24.7°C | 81% | 21.2°C | 2018ft (615m) | 12.96v | 19 |
| 4043 | 15 Apr 07:38:22 | 5 | 6.4 mph | 8 | SSW (212°) | 99772 | 101924 | 24.7°C | 80.9% | 21.2°C | 2026ft (618m) | 12.98v | 18 |
| 4042 | 15 Apr 07:38:10 | 6 | 6 mph | 7 | SSW (206°) | 99773 | 101925 | 24.7°C | 80.9% | 21.2°C | 2026ft (618m) | 12.97v | 19 |
| 4041 | 15 Apr 07:37:59 | 6 | 8.3 mph | 10 | SSW (210°) | 99773 | 101925 | 24.8°C | 80.7% | 21.3°C | 2044ft (623m) | 12.99v | 18 |
| 4040 | 15 Apr 07:37:48 | 7 | 7.8 mph | 9 | SSW (204°) | 99769 | 101921 | 24.8°C | 80.9% | 21.3°C | 2027ft (618m) | 12.99v | 18 |
| 4039 | 15 Apr 07:37:37 | 7 | 7.9 mph | 9 | SSW (204°) | 99773 | 101925 | 24.8°C | 80.9% | 21.3°C | 2027ft (618m) | 12.98v | 17 |
| 4038 | 15 Apr 07:37:25 | 7 | 7.8 mph | 9 | SSW (208°) | 99771 | 101923 | 24.8°C | 80.9% | 21.3°C | 2027ft (618m) | 12.97v | 18 |
| 4037 | 15 Apr 07:37:14 | 5 | 6.9 mph | 9 | SSW (211°) | 99772 | 101924 | 24.8°C | 80.9% | 21.3°C | 2027ft (618m) | 12.96v | 18 |
| 4036 | 15 Apr 07:37:03 | 6 | 8.1 mph | 10 | SSW (209°) | 99770 | 101922 | 24.8°C | 80.8% | 21.3°C | 2036ft (621m) | 12.96v | 19 |
| 4035 | 15 Apr 07:36:52 | 8 | 8.1 mph | 9 | SSW (203°) | 99767 | 101919 | 24.8°C | 80.8% | 21.3°C | 2036ft (621m) | 12.96v | 18 |
| 4034 | 15 Apr 07:36:40 | 5 | 6.1 mph | 7 | SSW (209°) | 99769 | 101921 | 24.8°C | 80.8% | 21.3°C | 2036ft (621m) | 12.98v | 17 |
| 4033 | 15 Apr 07:36:29 | 8 | 8.5 mph | 9 | SW (220°) | 99771 | 101923 | 24.8°C | 80.8% | 21.3°C | 2036ft (621m) | 12.99v | 18 |
| 4032 | 15 Apr 07:36:18 | 7 | 8 mph | 9 | SSW (211°) | 99767 | 101919 | 24.8°C | 80.7% | 21.3°C | 2044ft (623m) | 12.98v | 17 |
| 4031 | 15 Apr 07:36:06 | 8 | 8.4 mph | 9 | SSW (205°) | 99767 | 101919 | 24.8°C | 80.8% | 21.3°C | 2036ft (621m) | 12.97v | 16 |
| 4030 | 15 Apr 07:35:55 | 5 | 5.8 mph | 7 | SSW (206°) | 99770 | 101922 | 24.8°C | 81.1% | 21.3°C | 2011ft (613m) | 12.98v | 18 |
| 4029 | 15 Apr 07:35:44 | 4 | 4.6 mph | 5 | SSW (209°) | 99771 | 101923 | 24.8°C | 81.1% | 21.3°C | 2011ft (613m) | 12.96v | 16 |
| 4028 | 15 Apr 07:35:33 | 4 | 5.3 mph | 6 | SW (214°) | 99766 | 101918 | 24.8°C | 81% | 21.3°C | 2019ft (615m) | 12.95v | 16 |
| 4027 | 15 Apr 07:35:21 | 5 | 5.8 mph | 7 | SSW (208°) | 99767 | 101919 | 24.8°C | 80.9% | 21.3°C | 2027ft (618m) | 12.97v | 16 |
| 4026 | 15 Apr 07:35:10 | 7 | 7.8 mph | 9 | SW (216°) | 99765 | 101917 | 24.8°C | 80.9% | 21.3°C | 2027ft (618m) | 12.97v | 16 |
| 4025 | 15 Apr 07:34:59 | 7 | 8 mph | 9 | SSW (201°) | 99768 | 101920 | 24.8°C | 80.7% | 21.3°C | 2044ft (623m) | 12.98v | 16 |
| 4024 | 15 Apr 07:34:48 | 5 | 6.4 mph | 8 | SSW (211°) | 99764 | 101916 | 24.8°C | 80.7% | 21.3°C | 2044ft (623m) | 12.97v | 16 |
| 4023 | 15 Apr 07:34:36 | 7 | 7.3 mph | 8 | SSW (200°) | 99767 | 101919 | 24.8°C | 80.7% | 21.3°C | 2044ft (623m) | 12.98v | 16 |
| 4022 | 15 Apr 07:34:25 | 6 | 8.1 mph | 10 | SSW (198°) | 99765 | 101917 | 24.8°C | 80.6% | 21.2°C | 2052ft (625m) | 12.98v | 16 |
| 4021 | 15 Apr 07:34:14 | 7 | 8.2 mph | 9 | SSW (206°) | 99766 | 101918 | 24.8°C | 80.8% | 21.3°C | 2036ft (621m) | 12.97v | 17 |
| 4020 | 15 Apr 07:34:02 | 6 | 6.7 mph | 8 | SSW (207°) | 99766 | 101918 | 24.8°C | 80.8% | 21.3°C | 2036ft (621m) | 12.98v | 16 |
| 4019 | 15 Apr 07:33:51 | 7 | 8 mph | 9 | SSW (204°) | 99767 | 101919 | 24.8°C | 80.8% | 21.3°C | 2036ft (621m) | 12.97v | 18 |
| 4018 | 15 Apr 07:33:40 | 7 | 7 mph | 7 | SSW (208°) | 99763 | 101915 | 24.8°C | 80.8% | 21.3°C | 2036ft (621m) | 12.97v | 19 |
| 4017 | 15 Apr 07:33:29 | 6 | 7.2 mph | 8 | SSW (210°) | 99763 | 101915 | 24.8°C | 80.8% | 21.3°C | 2036ft (621m) | 12.99v | 17 |
| 4016 | 15 Apr 07:33:17 | 5 | 6.1 mph | 8 | SSW (210°) | 99764 | 101916 | 24.8°C | 80.9% | 21.3°C | 2027ft (618m) | 12.99v | 17 |
| 4015 | 15 Apr 07:33:06 | 5 | 4.9 mph | 5 | SSW (210°) | 99764 | 101916 | 24.8°C | 80.8% | 21.3°C | 2036ft (621m) | 12.98v | 18 |
| 4014 | 15 Apr 07:32:55 | 6 | 7.6 mph | 9 | SSW (204°) | 99763 | 101915 | 24.8°C | 80.7% | 21.3°C | 2044ft (623m) | 12.98v | 19 |
| 4013 | 15 Apr 07:32:44 | 9 | 8.9 mph | 9 | SSW (198°) | 99765 | 101917 | 24.8°C | 80.7% | 21.3°C | 2044ft (623m) | 12.98v | 19 |
| 4012 | 15 Apr 07:32:32 | 6 | 7 mph | 9 | SSW (208°) | 99764 | 101916 | 24.8°C | 80.7% | 21.3°C | 2044ft (623m) | 12.98v | 19 |
| 4011 | 15 Apr 07:32:21 | 7 | 8.2 mph | 10 | SSW (210°) | 99762 | 101914 | 24.8°C | 80.7% | 21.3°C | 2044ft (623m) | 13v | 19 |
| 4010 | 15 Apr 07:32:10 | 5 | 6.1 mph | 9 | SSW (211°) | 99762 | 101914 | 24.8°C | 80.8% | 21.3°C | 2036ft (621m) | 12.97v | 19 |
| 4009 | 15 Apr 07:31:59 | 6 | 7.3 mph | 8 | SSW (211°) | 99761 | 101913 | 24.8°C | 80.9% | 21.3°C | 2027ft (618m) | 12.99v | 16 |
| 4008 | 15 Apr 07:31:47 | 5 | 5.7 mph | 7 | SW (225°) | 99760 | 101912 | 24.8°C | 80.9% | 21.3°C | 2027ft (618m) | 12.99v | 16 |
| 4007 | 15 Apr 07:31:36 | 7 | 7.6 mph | 9 | SW (214°) | 99764 | 101916 | 24.7°C | 80.8% | 21.2°C | 2034ft (620m) | 12.99v | 16 |
| 4006 | 15 Apr 07:31:25 | 7 | 8.4 mph | 10 | SSW (206°) | 99763 | 101915 | 24.7°C | 80.8% | 21.2°C | 2034ft (620m) | 12.97v | 19 |
| 4005 | 15 Apr 07:31:14 | 4 | 5 mph | 6 | SSW (211°) | 99763 | 101915 | 24.8°C | 80.9% | 21.3°C | 2027ft (618m) | 12.98v | 17 |
| 4004 | 15 Apr 07:31:02 | 5 | 5.6 mph | 6 | SW (218°) | 99762 | 101914 | 24.8°C | 80.9% | 21.3°C | 2027ft (618m) | 12.97v | 16 |
| 4003 | 15 Apr 07:30:51 | 6 | 7 mph | 8 | SW (218°) | 99762 | 101914 | 24.8°C | 80.9% | 21.3°C | 2027ft (618m) | 12.97v | 18 |
| 4002 | 15 Apr 07:30:40 | 5 | 6.1 mph | 8 | SSW (210°) | 99761 | 101913 | 24.8°C | 81.1% | 21.3°C | 2011ft (613m) | 12.98v | 19 |
| 4001 | 15 Apr 07:30:29 | 4 | 4.5 mph | 6 | SW (220°) | 99760 | 101912 | 24.7°C | 81.1% | 21.2°C | 2010ft (613m) | 12.98v | 17 |
| 4000 | 15 Apr 07:30:17 | 4 | 4.5 mph | 5 | SW (217°) | 99763 | 101915 | 24.7°C | 80.9% | 21.2°C | 2026ft (618m) | 12.99v | 17 |
| 3999 | 15 Apr 07:30:06 | 5 | 5.5 mph | 6 | SSW (205°) | 99761 | 101913 | 24.8°C | 80.9% | 21.3°C | 2027ft (618m) | 12.97v | 19 |
| 3998 | 15 Apr 07:29:55 | 5 | 6.7 mph | 8 | SSW (205°) | 99758 | 101910 | 24.8°C | 80.8% | 21.3°C | 2036ft (621m) | 12.97v | 16 |
| 3997 | 15 Apr 07:29:44 | 7 | 7.4 mph | 8 | SSW (206°) | 99755 | 101907 | 24.7°C | 80.9% | 21.2°C | 2026ft (618m) | 12.97v | 16 |
| 3996 | 15 Apr 07:29:32 | 7 | 8.1 mph | 9 | SSW (207°) | 99759 | 101911 | 24.8°C | 80.8% | 21.3°C | 2036ft (621m) | 12.97v | 18 |
| 3995 | 15 Apr 07:29:21 | 5 | 5.8 mph | 7 | SSW (207°) | 99757 | 101909 | 24.8°C | 80.9% | 21.3°C | 2027ft (618m) | 12.97v | 16 |
| 3994 | 15 Apr 07:29:10 | 7 | 7.8 mph | 9 | SSW (209°) | 99762 | 101914 | 24.8°C | 80.8% | 21.3°C | 2036ft (621m) | 12.98v | 16 |
| 3993 | 15 Apr 07:28:59 | 8 | 8.9 mph | 11 | SSW (199°) | 99755 | 101907 | 24.7°C | 80.8% | 21.2°C | 2034ft (620m) | 12.97v | 17 |
| 3992 | 15 Apr 07:28:47 | 4 | 7.6 mph | 10 | SSW (202°) | 99757 | 101909 | 24.8°C | 80.8% | 21.3°C | 2036ft (621m) | 12.97v | 17 |
| 3991 | 15 Apr 07:28:36 | 5 | 5.3 mph | 6 | SSW (212°) | 99759 | 101911 | 24.7°C | 80.9% | 21.2°C | 2026ft (618m) | 12.97v | 18 |
| 3990 | 15 Apr 07:28:25 | 4 | 5.1 mph | 6 | SW (217°) | 99760 | 101912 | 24.7°C | 81% | 21.2°C | 2018ft (615m) | 12.97v | 17 |
| 3989 | 15 Apr 07:28:14 | 5 | 5.4 mph | 6 | SW (221°) | 99758 | 101910 | 24.7°C | 80.9% | 21.2°C | 2026ft (618m) | 12.98v | 16 |
| 3988 | 15 Apr 07:28:02 | 5 | 5.5 mph | 7 | SSW (212°) | 99757 | 101909 | 24.7°C | 80.9% | 21.2°C | 2026ft (618m) | 12.96v | 16 |
| 3987 | 15 Apr 07:27:51 | 5 | 5.7 mph | 7 | SSW (210°) | 99757 | 101909 | 24.7°C | 80.9% | 21.2°C | 2026ft (618m) | 12.96v | 16 |
| 3986 | 15 Apr 07:27:40 | 4 | 4.8 mph | 5 | SSW (212°) | 99757 | 101909 | 24.7°C | 80.9% | 21.2°C | 2026ft (618m) | 12.95v | 16 |
| 3985 | 15 Apr 07:27:29 | 5 | 5.9 mph | 7 | SSW (200°) | 99756 | 101908 | 24.7°C | 80.8% | 21.2°C | 2034ft (620m) | 12.97v | 16 |
| 3984 | 15 Apr 07:27:18 | 5 | 6.9 mph | 9 | SSW (208°) | 99756 | 101908 | 24.7°C | 80.8% | 21.2°C | 2034ft (620m) | 12.97v | 18 |
| 3983 | 15 Apr 07:27:07 | 7 | 7 mph | 7 | SSW (208°) | 99753 | 101905 | 24.7°C | 80.8% | 21.2°C | 2034ft (620m) | 12.97v | 16 |
| 3982 | 15 Apr 07:26:55 | 5 | 5.5 mph | 6 | SSW (204°) | 99755 | 101907 | 24.7°C | 80.9% | 21.2°C | 2026ft (618m) | 12.98v | 17 |
| 3981 | 15 Apr 07:26:44 | 3 | 4.8 mph | 7 | SSW (208°) | 99756 | 101908 | 24.7°C | 80.8% | 21.2°C | 2034ft (620m) | 12.95v | 16 |
| 3980 | 15 Apr 07:26:33 | 7 | 7.4 mph | 8 | SSW (209°) | 99751 | 101903 | 24.7°C | 80.8% | 21.2°C | 2034ft (620m) | 12.96v | 16 |
| 3979 | 15 Apr 07:26:22 | 5 | 6.3 mph | 8 | SSW (212°) | 99752 | 101904 | 24.7°C | 80.8% | 21.2°C | 2034ft (620m) | 12.95v | 16 |
| 3978 | 15 Apr 07:26:10 | 6 | 6.6 mph | 7 | SSW (210°) | 99752 | 101904 | 24.7°C | 80.9% | 21.2°C | 2026ft (618m) | 12.95v | 16 |
| 3977 | 15 Apr 07:25:59 | 8 | 8.1 mph | 9 | SSW (207°) | 99752 | 101904 | 24.7°C | 80.9% | 21.2°C | 2026ft (618m) | 12.97v | 16 |
| 3976 | 15 Apr 07:25:48 | 7 | 7.8 mph | 9 | SSW (198°) | 99750 | 101902 | 24.7°C | 81% | 21.2°C | 2018ft (615m) | 12.95v | 16 |
| 3975 | 15 Apr 07:25:37 | 5 | 5.7 mph | 6 | SSW (202°) | 99752 | 101904 | 24.7°C | 80.9% | 21.2°C | 2026ft (618m) | 12.95v | 17 |
| 3974 | 15 Apr 07:25:25 | 5 | 6.6 mph | 8 | SSW (204°) | 99747 | 101899 | 24.7°C | 80.9% | 21.2°C | 2026ft (618m) | 12.95v | 17 |
| 3973 | 15 Apr 07:25:14 | 6 | 7.5 mph | 9 | SSW (212°) | 99748 | 101900 | 24.7°C | 80.8% | 21.2°C | 2034ft (620m) | 12.96v | 16 |
| 3972 | 15 Apr 07:25:03 | 7 | 7.3 mph | 9 | SSW (204°) | 99748 | 101900 | 24.7°C | 80.7% | 21.2°C | 2043ft (623m) | 12.93v | 16 |
| 3971 | 15 Apr 07:24:52 | 8 | 9.7 mph | 11 | SSW (206°) | 99747 | 101899 | 24.7°C | 80.6% | 21.1°C | 2051ft (625m) | 12.94v | 16 |
| 3970 | 15 Apr 07:24:40 | 6 | 6.7 mph | 8 | SSW (205°) | 99745 | 101897 | 24.7°C | 80.8% | 21.2°C | 2034ft (620m) | 12.94v | 16 |
| 3969 | 15 Apr 07:24:29 | 5 | 6.4 mph | 8 | SW (217°) | 99749 | 101901 | 24.7°C | 80.8% | 21.2°C | 2034ft (620m) | 12.93v | 19 |
| 3968 | 15 Apr 07:24:18 | 5 | 5.9 mph | 7 | SW (214°) | 99746 | 101898 | 24.7°C | 80.9% | 21.2°C | 2026ft (618m) | 12.94v | 18 |
| 3967 | 15 Apr 07:24:07 | 6 | 6.2 mph | 7 | SW (219°) | 99749 | 101901 | 24.7°C | 80.9% | 21.2°C | 2026ft (618m) | 12.93v | 18 |
| 3966 | 15 Apr 07:23:55 | 7 | 7.5 mph | 9 | SW (217°) | 99749 | 101901 | 24.7°C | 80.9% | 21.2°C | 2026ft (618m) | 12.93v | 17 |
| 3965 | 15 Apr 07:23:44 | 4 | 5.5 mph | 7 | SSW (211°) | 99746 | 101898 | 24.7°C | 80.9% | 21.2°C | 2026ft (618m) | 12.94v | 17 |
| 3964 | 15 Apr 07:23:33 | 4 | 4.5 mph | 5 | SW (214°) | 99747 | 101899 | 24.7°C | 80.8% | 21.2°C | 2034ft (620m) | 12.91v | 17 |
| 3963 | 15 Apr 07:23:22 | 5 | 5.7 mph | 7 | SSW (208°) | 99747 | 101899 | 24.7°C | 80.8% | 21.2°C | 2034ft (620m) | 12.9v | 17 |
| 3962 | 15 Apr 07:23:10 | 6 | 6.7 mph | 8 | SSW (210°) | 99747 | 101899 | 24.7°C | 80.8% | 21.2°C | 2034ft (620m) | 12.9v | 17 |
| 3961 | 15 Apr 07:22:59 | 5 | 5.4 mph | 6 | SW (214°) | 99749 | 101901 | 24.7°C | 80.7% | 21.2°C | 2043ft (623m) | 12.91v | 19 |
| 3960 | 15 Apr 07:22:48 | 5 | 6 mph | 7 | SSW (206°) | 99745 | 101897 | 24.7°C | 80.7% | 21.2°C | 2043ft (623m) | 12.92v | 17 |
| 3959 | 15 Apr 07:22:37 | 4 | 4.2 mph | 5 | SSW (213°) | 99748 | 101900 | 24.7°C | 80.6% | 21.1°C | 2051ft (625m) | 12.92v | 17 |
| 3958 | 15 Apr 07:22:25 | 5 | 7.5 mph | 10 | SSW (209°) | 99748 | 101900 | 24.7°C | 80.4% | 21.1°C | 2068ft (630m) | 12.9v | 17 |
| 3957 | 15 Apr 07:22:14 | 8 | 8.5 mph | 9 | SSW (204°) | 99742 | 101893 | 24.7°C | 80.4% | 21.1°C | 2068ft (630m) | 12.9v | 17 |
| 3956 | 15 Apr 07:22:03 | 9 | 9.2 mph | 10 | SSW (200°) | 99745 | 101897 | 24.7°C | 80.5% | 21.1°C | 2059ft (628m) | 12.9v | 17 |
| 3955 | 15 Apr 07:21:51 | 8 | 8.9 mph | 10 | SSW (207°) | 99742 | 101893 | 24.7°C | 80.5% | 21.1°C | 2059ft (628m) | 12.89v | 19 |
| 3954 | 15 Apr 07:21:40 | 7 | 8.5 mph | 10 | SSW (205°) | 99740 | 101891 | 24.7°C | 80.5% | 21.1°C | 2059ft (628m) | 12.89v | 18 |
| 3953 | 15 Apr 07:21:29 | 6 | 6.7 mph | 8 | SSW (201°) | 99748 | 101900 | 24.7°C | 80.6% | 21.1°C | 2051ft (625m) | 12.89v | 17 |
| 3952 | 15 Apr 07:21:18 | 6 | 7.9 mph | 10 | SSW (199°) | 99744 | 101895 | 24.7°C | 80.4% | 21.1°C | 2068ft (630m) | 12.9v | 18 |
| 3951 | 15 Apr 07:21:07 | 5 | 7.9 mph | 10 | SSW (199°) | 99743 | 101894 | 24.7°C | 80.6% | 21.1°C | 2051ft (625m) | 12.91v | 17 |
| 3950 | 15 Apr 07:20:55 | 5 | 6.4 mph | 8 | SW (225°) | 99746 | 101898 | 24.7°C | 80.6% | 21.1°C | 2051ft (625m) | 12.9v | 17 |
| 3949 | 15 Apr 07:20:44 | 6 | 6.7 mph | 8 | SSW (202°) | 99747 | 101899 | 24.7°C | 80.6% | 21.1°C | 2051ft (625m) | 12.89v | 19 |
| 3948 | 15 Apr 07:20:33 | 5 | 6.6 mph | 8 | SSW (210°) | 99748 | 101900 | 24.7°C | 80.5% | 21.1°C | 2059ft (628m) | 12.88v | 18 |
| 3947 | 15 Apr 07:20:22 | 7 | 8.1 mph | 10 | SW (214°) | 99746 | 101898 | 24.7°C | 80.6% | 21.1°C | 2051ft (625m) | 12.89v | 17 |
| 3946 | 15 Apr 07:20:10 | 6 | 6.8 mph | 9 | SSW (208°) | 99744 | 101895 | 24.7°C | 80.6% | 21.1°C | 2051ft (625m) | 12.88v | 17 |
| 3945 | 15 Apr 07:19:59 | 7 | 8.1 mph | 10 | SSW (204°) | 99742 | 101893 | 24.7°C | 80.6% | 21.1°C | 2051ft (625m) | 12.88v | 19 |
| 3944 | 15 Apr 07:19:48 | 7 | 7 mph | 8 | SSW (205°) | 99744 | 101895 | 24.7°C | 80.6% | 21.1°C | 2051ft (625m) | 12.87v | 17 |
| 3943 | 15 Apr 07:19:37 | 8 | 9.3 mph | 11 | SW (215°) | 99743 | 101894 | 24.7°C | 80.6% | 21.1°C | 2051ft (625m) | 12.87v | 16 |
| 3942 | 15 Apr 07:19:25 | 5 | 7.9 mph | 11 | SSW (194°) | 99741 | 101892 | 24.7°C | 80.7% | 21.2°C | 2043ft (623m) | 12.88v | 16 |
| 3941 | 15 Apr 07:19:14 | 5 | 6.2 mph | 7 | SSW (210°) | 99745 | 101897 | 24.7°C | 80.8% | 21.2°C | 2034ft (620m) | 12.86v | 17 |
| 3940 | 15 Apr 07:19:03 | 5 | 5.7 mph | 7 | SSW (213°) | 99742 | 101893 | 24.7°C | 80.8% | 21.2°C | 2034ft (620m) | 12.87v | 16 |
| 3939 | 15 Apr 07:18:52 | 5 | 6.4 mph | 8 | SW (214°) | 99743 | 101894 | 24.7°C | 80.8% | 21.2°C | 2034ft (620m) | 12.85v | 16 |
| 3938 | 15 Apr 07:18:40 | 7 | 7.5 mph | 8 | SSW (210°) | 99741 | 101892 | 24.7°C | 80.8% | 21.2°C | 2034ft (620m) | 12.85v | 17 |
| 3937 | 15 Apr 07:18:29 | 4 | 5.3 mph | 7 | SSW (203°) | 99742 | 101893 | 24.7°C | 80.9% | 21.2°C | 2026ft (618m) | 12.85v | 16 |
| 3936 | 15 Apr 07:18:18 | 4 | 5.2 mph | 7 | SSW (208°) | 99744 | 101895 | 24.7°C | 80.9% | 21.2°C | 2026ft (618m) | 12.86v | 16 |
| 3935 | 15 Apr 07:18:07 | 6 | 6.3 mph | 7 | SSW (207°) | 99744 | 101895 | 24.7°C | 80.9% | 21.2°C | 2026ft (618m) | 12.86v | 16 |
| 3934 | 15 Apr 07:17:56 | 4 | 4.9 mph | 7 | SW (217°) | 99742 | 101893 | 24.7°C | 81.1% | 21.2°C | 2010ft (613m) | 12.85v | 18 |
| 3933 | 15 Apr 07:17:44 | 3 | 3.4 mph | 4 | SSW (210°) | 99740 | 101891 | 24.7°C | 81.2% | 21.3°C | 2001ft (610m) | 12.85v | 16 |
| 3932 | 15 Apr 07:17:33 | 4 | 3.9 mph | 4 | SW (217°) | 99742 | 101893 | 24.6°C | 81.2% | 21.2°C | 2000ft (610m) | 12.84v | 17 |
| 3931 | 15 Apr 07:17:22 | 3 | 4.2 mph | 5 | SSW (207°) | 99742 | 101893 | 24.6°C | 81% | 21.1°C | 2017ft (615m) | 12.84v | 17 |
| 3930 | 15 Apr 07:17:11 | 4 | 5 mph | 6 | SSW (213°) | 99743 | 101894 | 24.6°C | 81.1% | 21.1°C | 2009ft (612m) | 12.82v | 18 |
| 3929 | 15 Apr 07:16:59 | 4 | 4.5 mph | 6 | SW (216°) | 99741 | 101892 | 24.7°C | 80.9% | 21.2°C | 2026ft (618m) | 12.83v | 19 |
| 3928 | 15 Apr 07:16:48 | 5 | 5.7 mph | 7 | SSW (210°) | 99740 | 101891 | 24.6°C | 80.9% | 21.1°C | 2025ft (617m) | 12.83v | 17 |
| 3927 | 15 Apr 07:16:37 | 6 | 7.2 mph | 8 | SW (214°) | 99738 | 101889 | 24.6°C | 80.9% | 21.1°C | 2025ft (617m) | 12.84v | 16 |
| 3926 | 15 Apr 07:16:26 | 5 | 5.7 mph | 6 | SSW (211°) | 99741 | 101892 | 24.7°C | 80.9% | 21.2°C | 2026ft (618m) | 12.84v | 16 |
| 3925 | 15 Apr 07:16:14 | 4 | 4.8 mph | 6 | SSW (210°) | 99736 | 101887 | 24.7°C | 80.9% | 21.2°C | 2026ft (618m) | 12.84v | 17 |
| 3924 | 15 Apr 07:16:03 | 6 | 6.9 mph | 8 | S (191°) | 99741 | 101892 | 24.7°C | 80.9% | 21.2°C | 2026ft (618m) | 12.83v | 17 |
| 3923 | 15 Apr 07:15:52 | 6 | 6.1 mph | 7 | SW (217°) | 99739 | 101890 | 24.6°C | 81.1% | 21.1°C | 2009ft (612m) | 12.83v | 16 |
| 3922 | 15 Apr 07:15:41 | 5 | 6.1 mph | 8 | SSW (205°) | 99738 | 101889 | 24.6°C | 81.1% | 21.1°C | 2009ft (612m) | 12.82v | 16 |
| 3921 | 15 Apr 07:15:29 | 5 | 5.5 mph | 7 | SW (215°) | 99738 | 101889 | 24.7°C | 80.9% | 21.2°C | 2026ft (618m) | 12.81v | 16 |
| 3920 | 15 Apr 07:15:18 | 5 | 6.1 mph | 8 | SSW (206°) | 99736 | 101887 | 24.7°C | 80.9% | 21.2°C | 2026ft (618m) | 12.81v | 18 |
| 3919 | 15 Apr 07:15:07 | 6 | 6.9 mph | 8 | SW (218°) | 99736 | 101887 | 24.7°C | 80.9% | 21.2°C | 2026ft (618m) | 12.83v | 19 |
| 3918 | 15 Apr 07:14:56 | 5 | 6 mph | 9 | SSW (209°) | 99738 | 101889 | 24.7°C | 80.9% | 21.2°C | 2026ft (618m) | 12.82v | 16 |
| 3917 | 15 Apr 07:14:45 | 7 | 8.1 mph | 9 | SSW (212°) | 99736 | 101887 | 24.7°C | 80.8% | 21.2°C | 2034ft (620m) | 12.81v | 16 |
| 3916 | 15 Apr 07:14:33 | 5 | 6 mph | 7 | SSW (203°) | 99735 | 101886 | 24.7°C | 81% | 21.2°C | 2018ft (615m) | 12.8v | 17 |
| 3915 | 15 Apr 07:14:22 | 4 | 5.3 mph | 6 | SW (216°) | 99736 | 101887 | 24.6°C | 81% | 21.1°C | 2017ft (615m) | 12.79v | 17 |
| 3914 | 15 Apr 07:14:11 | 5 | 6.2 mph | 7 | SW (218°) | 99733 | 101884 | 24.6°C | 81.1% | 21.1°C | 2009ft (612m) | 12.8v | 16 |
| 3913 | 15 Apr 07:14:00 | 5 | 6.3 mph | 7 | SW (215°) | 99733 | 101884 | 24.6°C | 81.1% | 21.1°C | 2009ft (612m) | 12.81v | 17 |
| 3912 | 15 Apr 07:13:48 | 5 | 5.9 mph | 7 | SSW (212°) | 99731 | 101882 | 24.6°C | 81.2% | 21.2°C | 2000ft (610m) | 12.8v | 16 |
| 3911 | 15 Apr 07:13:37 | 5 | 5.8 mph | 7 | SSW (212°) | 99730 | 101881 | 24.6°C | 81.2% | 21.2°C | 2000ft (610m) | 12.8v | 16 |
| 3910 | 15 Apr 07:13:26 | 4 | 5.5 mph | 7 | SW (214°) | 99731 | 101882 | 24.6°C | 81.2% | 21.2°C | 2000ft (610m) | 12.8v | 16 |
| 3909 | 15 Apr 07:13:15 | 5 | 6 mph | 7 | SW (220°) | 99732 | 101883 | 24.6°C | 81.1% | 21.1°C | 2009ft (612m) | 12.79v | 16 |
| 3908 | 15 Apr 07:13:03 | 7 | 7.2 mph | 9 | SSW (213°) | 99733 | 101884 | 24.6°C | 81% | 21.1°C | 2017ft (615m) | 12.8v | 18 |
| 3907 | 15 Apr 07:12:52 | 5 | 6.2 mph | 7 | SW (216°) | 99732 | 101883 | 24.6°C | 81.1% | 21.1°C | 2009ft (612m) | 12.79v | 17 |
| 3906 | 15 Apr 07:12:41 | 6 | 7.4 mph | 9 | SW (214°) | 99731 | 101882 | 24.6°C | 81% | 21.1°C | 2017ft (615m) | 12.78v | 16 |
| 3905 | 15 Apr 07:12:29 | 6 | 6.7 mph | 8 | SSW (208°) | 99729 | 101880 | 24.6°C | 81.1% | 21.1°C | 2009ft (612m) | 12.78v | 17 |
| 3904 | 15 Apr 07:12:18 | 5 | 5.7 mph | 6 | SW (218°) | 99728 | 101879 | 24.6°C | 81.1% | 21.1°C | 2009ft (612m) | 12.79v | 17 |
| 3903 | 15 Apr 07:12:07 | 6 | 7.1 mph | 8 | SSW (211°) | 99730 | 101881 | 24.6°C | 81.1% | 21.1°C | 2009ft (612m) | 12.78v | 17 |
| 3902 | 15 Apr 07:11:55 | 5 | 6.1 mph | 8 | SSW (209°) | 99726 | 101877 | 24.6°C | 81.1% | 21.1°C | 2009ft (612m) | 12.78v | 16 |
| 3901 | 15 Apr 07:11:44 | 7 | 7.6 mph | 9 | SW (229°) | 99727 | 101878 | 24.6°C | 81.1% | 21.1°C | 2009ft (612m) | 12.77v | 17 |
| 3900 | 15 Apr 07:11:33 | 5 | 5.3 mph | 6 | SW (226°) | 99728 | 101879 | 24.6°C | 81% | 21.1°C | 2017ft (615m) | 12.78v | 16 |
| 3899 | 15 Apr 07:11:22 | 6 | 7.6 mph | 9 | SSW (204°) | 99731 | 101882 | 24.6°C | 81.1% | 21.1°C | 2009ft (612m) | 12.77v | 17 |
| 3898 | 15 Apr 07:11:10 | 6 | 6.9 mph | 8 | SW (216°) | 99729 | 101880 | 24.6°C | 80.9% | 21.1°C | 2025ft (617m) | 12.75v | 16 |
| 3897 | 15 Apr 07:10:59 | 7 | 7.8 mph | 9 | SW (225°) | 99730 | 101881 | 24.6°C | 80.8% | 21.1°C | 2033ft (620m) | 12.76v | 17 |
| 3896 | 15 Apr 07:10:48 | 7 | 7 mph | 7 | SW (223°) | 99727 | 101878 | 24.6°C | 80.9% | 21.1°C | 2025ft (617m) | 12.75v | 17 |
| 3895 | 15 Apr 07:10:37 | 7 | 7.3 mph | 8 | SW (215°) | 99732 | 101883 | 24.6°C | 80.9% | 21.1°C | 2025ft (617m) | 12.77v | 16 |
| 3894 | 15 Apr 07:10:25 | 5 | 6.1 mph | 8 | SW (220°) | 99728 | 101879 | 24.6°C | 81% | 21.1°C | 2017ft (615m) | 12.76v | 16 |
| 3893 | 15 Apr 07:10:14 | 5 | 5.6 mph | 7 | SSW (207°) | 99727 | 101878 | 24.6°C | 81% | 21.1°C | 2017ft (615m) | 12.75v | 16 |
| 3892 | 15 Apr 07:10:03 | 4 | 5.1 mph | 7 | SSW (213°) | 99732 | 101883 | 24.6°C | 80.9% | 21.1°C | 2025ft (617m) | 12.75v | 16 |
| 3891 | 15 Apr 07:09:52 | 4 | 5.4 mph | 6 | SSW (212°) | 99728 | 101879 | 24.6°C | 81% | 21.1°C | 2017ft (615m) | 12.76v | 17 |
| 3890 | 15 Apr 07:09:40 | 6 | 6.1 mph | 7 | SW (219°) | 99730 | 101881 | 24.6°C | 81% | 21.1°C | 2017ft (615m) | 12.75v | 17 |
| 3889 | 15 Apr 07:09:29 | 6 | 6.7 mph | 8 | SW (226°) | 99729 | 101880 | 24.6°C | 81% | 21.1°C | 2017ft (615m) | 12.73v | 17 |
| 3888 | 15 Apr 07:09:18 | 5 | 5.8 mph | 7 | SW (217°) | 99729 | 101880 | 24.6°C | 80.9% | 21.1°C | 2025ft (617m) | 12.73v | 15 |
| 3887 | 15 Apr 07:09:06 | 4 | 5 mph | 6 | SSW (209°) | 99730 | 101881 | 24.6°C | 80.9% | 21.1°C | 2025ft (617m) | 12.73v | 16 |
| 3886 | 15 Apr 07:08:55 | 5 | 6.7 mph | 9 | SW (223°) | 99729 | 101880 | 24.6°C | 80.8% | 21.1°C | 2033ft (620m) | 12.75v | 16 |
| 3885 | 15 Apr 07:08:44 | 5 | 5.7 mph | 7 | SSW (212°) | 99731 | 101882 | 24.6°C | 80.8% | 21.1°C | 2033ft (620m) | 12.74v | 16 |
| 3884 | 15 Apr 07:08:33 | 5 | 5.9 mph | 7 | SW (221°) | 99728 | 101879 | 24.6°C | 80.7% | 21.1°C | 2042ft (622m) | 12.73v | 18 |
| 3883 | 15 Apr 07:08:21 | 4 | 6.5 mph | 8 | SW (215°) | 99727 | 101878 | 24.6°C | 80.6% | 21°C | 2050ft (625m) | 12.73v | 16 |
| 3882 | 15 Apr 07:08:10 | 6 | 7.4 mph | 9 | SSW (212°) | 99728 | 101879 | 24.6°C | 80.6% | 21°C | 2050ft (625m) | 12.71v | 18 |
| 3881 | 15 Apr 07:07:59 | 7 | 8.8 mph | 11 | SSW (211°) | 99727 | 101878 | 24.6°C | 80.6% | 21°C | 2050ft (625m) | 12.72v | 16 |
| 3880 | 15 Apr 07:07:48 | 7 | 9.3 mph | 11 | SSW (211°) | 99726 | 101877 | 24.6°C | 80.5% | 21°C | 2058ft (627m) | 12.71v | 16 |
| 3879 | 15 Apr 07:07:36 | 6 | 7.7 mph | 9 | SW (215°) | 99728 | 101879 | 24.6°C | 80.5% | 21°C | 2058ft (627m) | 12.71v | 16 |
| 3878 | 15 Apr 07:07:25 | 6 | 6.1 mph | 7 | SW (219°) | 99726 | 101877 | 24.6°C | 80.6% | 21°C | 2050ft (625m) | 12.73v | 16 |
| 3877 | 15 Apr 07:07:14 | 8 | 8.1 mph | 9 | SSW (208°) | 99726 | 101877 | 24.6°C | 80.6% | 21°C | 2050ft (625m) | 12.72v | 16 |
| 3876 | 15 Apr 07:07:03 | 7 | 7.9 mph | 9 | SW (214°) | 99725 | 101876 | 24.6°C | 80.5% | 21°C | 2058ft (627m) | 12.71v | 16 |
| 3875 | 15 Apr 07:06:51 | 7 | 7.8 mph | 9 | SSW (209°) | 99727 | 101878 | 24.6°C | 80.6% | 21°C | 2050ft (625m) | 12.7v | 17 |
| 3874 | 15 Apr 07:06:40 | 9 | 9.4 mph | 11 | SW (216°) | 99724 | 101875 | 24.6°C | 80.6% | 21°C | 2050ft (625m) | 12.7v | 16 |
| 3873 | 15 Apr 07:06:29 | 7 | 7.5 mph | 10 | SSW (210°) | 99722 | 101873 | 24.6°C | 80.7% | 21.1°C | 2042ft (622m) | 12.69v | 19 |
| 3872 | 15 Apr 07:06:18 | 5 | 6.7 mph | 9 | SW (223°) | 99722 | 101873 | 24.6°C | 80.7% | 21.1°C | 2042ft (622m) | 12.69v | 16 |
| 3871 | 15 Apr 07:06:07 | 6 | 6.5 mph | 8 | SW (217°) | 99720 | 101871 | 24.6°C | 80.7% | 21.1°C | 2042ft (622m) | 12.7v | 16 |
| 3870 | 15 Apr 07:05:55 | 7 | 7.3 mph | 8 | SSW (212°) | 99721 | 101872 | 24.6°C | 80.8% | 21.1°C | 2033ft (620m) | 12.71v | 17 |
| 3869 | 15 Apr 07:05:44 | 6 | 6.5 mph | 8 | SW (220°) | 99722 | 101873 | 24.6°C | 80.8% | 21.1°C | 2033ft (620m) | 12.7v | 17 |
| 3868 | 15 Apr 07:05:33 | 5 | 5.6 mph | 7 | SW (230°) | 99724 | 101875 | 24.6°C | 80.7% | 21.1°C | 2042ft (622m) | 12.69v | 17 |
| 3867 | 15 Apr 07:05:22 | 5 | 6.5 mph | 8 | SW (214°) | 99719 | 101870 | 24.6°C | 80.7% | 21.1°C | 2042ft (622m) | 12.68v | 17 |
| 3866 | 15 Apr 07:05:10 | 5 | 5.8 mph | 7 | SW (217°) | 99725 | 101876 | 24.6°C | 80.6% | 21°C | 2050ft (625m) | 12.67v | 17 |
| 3865 | 15 Apr 07:04:59 | 5 | 6.5 mph | 9 | SSW (209°) | 99722 | 101873 | 24.6°C | 80.7% | 21.1°C | 2042ft (622m) | 12.66v | 17 |
| 3864 | 15 Apr 07:04:48 | 7 | 8.3 mph | 10 | SSW (207°) | 99722 | 101873 | 24.6°C | 80.7% | 21.1°C | 2042ft (622m) | 12.67v | 16 |
| 3863 | 15 Apr 07:04:37 | 7 | 8.5 mph | 10 | SSW (200°) | 99721 | 101872 | 24.5°C | 80.4% | 20.9°C | 2065ft (629m) | 12.67v | 17 |
| 3862 | 15 Apr 07:04:25 | 7 | 8.9 mph | 11 | SSW (209°) | 99721 | 101872 | 24.6°C | 80.5% | 21°C | 2058ft (627m) | 12.67v | 16 |
| 3861 | 15 Apr 07:04:14 | 6 | 7.4 mph | 9 | SSW (202°) | 99721 | 101872 | 24.6°C | 80.6% | 21°C | 2050ft (625m) | 12.68v | 17 |
| 3860 | 15 Apr 07:04:03 | 9 | 9.6 mph | 11 | SSW (209°) | 99715 | 101866 | 24.6°C | 80.6% | 21°C | 2050ft (625m) | 12.67v | 16 |
| 3859 | 15 Apr 07:03:52 | 6 | 7.4 mph | 9 | SSW (207°) | 99715 | 101866 | 24.6°C | 80.7% | 21.1°C | 2042ft (622m) | 12.66v | 16 |
| 3858 | 15 Apr 07:03:40 | 6 | 7.3 mph | 9 | SSW (201°) | 99718 | 101869 | 24.6°C | 80.7% | 21.1°C | 2042ft (622m) | 12.66v | 16 |
| 3857 | 15 Apr 07:03:29 | 5 | 6.7 mph | 8 | SSW (208°) | 99723 | 101874 | 24.6°C | 80.7% | 21.1°C | 2042ft (622m) | 12.67v | 17 |
| 3856 | 15 Apr 07:03:18 | 7 | 7.5 mph | 9 | SSW (202°) | 99715 | 101866 | 24.6°C | 80.6% | 21°C | 2050ft (625m) | 12.64v | 16 |
| 3855 | 15 Apr 07:03:07 | 4 | 4.9 mph | 6 | SW (223°) | 99720 | 101871 | 24.6°C | 80.7% | 21.1°C | 2042ft (622m) | 12.66v | 17 |
| 3854 | 15 Apr 07:02:56 | 6 | 6.5 mph | 7 | SW (216°) | 99717 | 101868 | 24.6°C | 80.7% | 21.1°C | 2042ft (622m) | 12.65v | 17 |
| 3853 | 15 Apr 07:02:44 | 5 | 6.4 mph | 8 | SW (222°) | 99720 | 101871 | 24.6°C | 80.7% | 21.1°C | 2042ft (622m) | 12.67v | 16 |
| 3852 | 15 Apr 07:02:33 | 4 | 5.5 mph | 7 | SW (221°) | 99721 | 101872 | 24.6°C | 80.6% | 21°C | 2050ft (625m) | 12.66v | 16 |
| 3851 | 15 Apr 07:02:22 | 5 | 5.5 mph | 6 | SW (220°) | 99719 | 101870 | 24.6°C | 80.5% | 21°C | 2058ft (627m) | 12.65v | 17 |
| 3850 | 15 Apr 07:02:11 | 6 | 6.3 mph | 7 | SW (222°) | 99717 | 101868 | 24.6°C | 80.4% | 21°C | 2067ft (630m) | 12.67v | 17 |
| 3849 | 15 Apr 07:01:59 | 5 | 6.8 mph | 9 | SSW (212°) | 99716 | 101867 | 24.6°C | 80.4% | 21°C | 2067ft (630m) | 12.66v | 18 |
| 3848 | 15 Apr 07:01:48 | 5 | 5.3 mph | 6 | SW (221°) | 99717 | 101868 | 24.6°C | 80.5% | 21°C | 2058ft (627m) | 12.64v | 15 |
| 3847 | 15 Apr 07:01:37 | 5 | 6.1 mph | 7 | SSW (211°) | 99716 | 101867 | 24.6°C | 80.4% | 21°C | 2067ft (630m) | 12.65v | 18 |
| 3846 | 15 Apr 07:01:25 | 5 | 6.1 mph | 8 | SW (214°) | 99719 | 101870 | 24.6°C | 80.3% | 21°C | 2075ft (632m) | 12.65v | 18 |
| 3845 | 15 Apr 07:01:14 | 7 | 7.7 mph | 9 | SSW (211°) | 99716 | 101867 | 24.6°C | 80.3% | 21°C | 2075ft (632m) | 12.65v | 19 |
| 3844 | 15 Apr 07:01:03 | 6 | 7.3 mph | 9 | SSW (210°) | 99718 | 101869 | 24.6°C | 80.3% | 21°C | 2075ft (632m) | 12.65v | 16 |
| 3843 | 15 Apr 07:00:52 | 6 | 6.6 mph | 7 | SW (216°) | 99715 | 101866 | 24.6°C | 80.2% | 21°C | 2083ft (635m) | 12.65v | 18 |
| 3842 | 15 Apr 07:00:40 | 6 | 7.5 mph | 9 | SW (216°) | 99718 | 101869 | 24.7°C | 80.1% | 21°C | 2093ft (638m) | 12.64v | 16 |
| 3841 | 15 Apr 07:00:29 | 7 | 8.3 mph | 10 | SW (223°) | 99717 | 101868 | 24.7°C | 80% | 21°C | 2101ft (640m) | 12.65v | 17 |
| 3840 | 15 Apr 07:00:18 | 9 | 10.3 mph | 11 | SSW (213°) | 99716 | 101867 | 24.7°C | 79.9% | 21°C | 2109ft (643m) | 12.64v | 18 |
| 3839 | 15 Apr 07:00:07 | 8 | 9.9 mph | 11 | SSW (199°) | 99715 | 101866 | 24.7°C | 79.9% | 21°C | 2109ft (643m) | 12.62v | 16 |
| 3838 | 15 Apr 06:59:55 | 7 | 7.7 mph | 8 | SSW (207°) | 99716 | 101867 | 24.7°C | 80% | 21°C | 2101ft (640m) | 12.64v | 16 |
| 3837 | 15 Apr 06:59:44 | 7 | 7.6 mph | 8 | SW (218°) | 99717 | 101868 | 24.7°C | 80% | 21°C | 2101ft (640m) | 12.64v | 16 |
| 3836 | 15 Apr 06:59:33 | 6 | 7.4 mph | 9 | SW (219°) | 99714 | 101865 | 24.7°C | 79.9% | 21°C | 2109ft (643m) | 12.64v | 18 |
| 3835 | 15 Apr 06:59:22 | 9 | 9.8 mph | 11 | SSW (200°) | 99712 | 101863 | 24.7°C | 79.9% | 21°C | 2109ft (643m) | 12.63v | 17 |
| 3834 | 15 Apr 06:59:10 | 7 | 7.5 mph | 8 | SW (221°) | 99719 | 101870 | 24.6°C | 80.1% | 20.9°C | 2091ft (637m) | 12.63v | 17 |
| 3833 | 15 Apr 06:58:59 | 5 | 6.1 mph | 7 | SW (217°) | 99717 | 101868 | 24.7°C | 80.1% | 21°C | 2093ft (638m) | 12.64v | 16 |
| 3832 | 15 Apr 06:58:48 | 6 | 6.2 mph | 7 | SW (218°) | 99714 | 101865 | 24.6°C | 80% | 20.9°C | 2100ft (640m) | 12.62v | 16 |
| 3831 | 15 Apr 06:58:37 | 6 | 6.5 mph | 8 | SW (222°) | 99716 | 101867 | 24.7°C | 79.8% | 21°C | 2118ft (646m) | 12.63v | 16 |
| 3830 | 15 Apr 06:58:25 | 6 | 7.6 mph | 9 | SW (233°) | 99717 | 101868 | 24.7°C | 79.7% | 21°C | 2126ft (648m) | 12.62v | 16 |
| 3829 | 15 Apr 06:58:14 | 6 | 7.1 mph | 9 | SW (214°) | 99716 | 101867 | 24.7°C | 79.8% | 21°C | 2118ft (646m) | 12.62v | 15 |
| 3828 | 15 Apr 06:58:03 | 6 | 6.6 mph | 8 | SW (221°) | 99717 | 101868 | 24.7°C | 79.6% | 20.9°C | 2134ft (650m) | 12.63v | 19 |
| 3827 | 15 Apr 06:57:52 | 7 | 7.7 mph | 9 | SW (221°) | 99715 | 101866 | 24.7°C | 79.6% | 20.9°C | 2134ft (650m) | 12.62v | 16 |
| 3826 | 15 Apr 06:57:40 | 7 | 7.2 mph | 8 | SW (228°) | 99716 | 101867 | 24.7°C | 79.6% | 20.9°C | 2134ft (650m) | 12.61v | 15 |
| 3825 | 15 Apr 06:57:29 | 6 | 7.8 mph | 9 | SSW (210°) | 99714 | 101865 | 24.7°C | 79.6% | 20.9°C | 2134ft (650m) | 12.61v | 15 |
| 3824 | 15 Apr 06:57:18 | 7 | 6.9 mph | 7 | SW (223°) | 99716 | 101867 | 24.7°C | 79.6% | 20.9°C | 2134ft (650m) | 12.61v | 17 |
| 3823 | 15 Apr 06:57:06 | 6 | 8.3 mph | 10 | SSW (205°) | 99715 | 101866 | 24.7°C | 79.5% | 20.9°C | 2143ft (653m) | 12.6v | 16 |
| 3822 | 15 Apr 06:56:55 | 4 | 6.2 mph | 8 | SW (217°) | 99715 | 101866 | 24.8°C | 79.4% | 21°C | 2152ft (656m) | 12.6v | 15 |
| 3821 | 15 Apr 06:56:44 | 5 | 5.8 mph | 7 | SW (217°) | 99719 | 101870 | 24.7°C | 79.4% | 20.9°C | 2151ft (656m) | 12.62v | 16 |
| 3820 | 15 Apr 06:56:33 | 6 | 6.5 mph | 7 | SSW (208°) | 99714 | 101865 | 24.7°C | 79.5% | 20.9°C | 2143ft (653m) | 12.62v | 16 |
| 3819 | 15 Apr 06:56:21 | 5 | 6.5 mph | 8 | SSW (208°) | 99713 | 101864 | 24.7°C | 79.4% | 20.9°C | 2151ft (656m) | 12.61v | 16 |
| 3818 | 15 Apr 06:56:10 | 7 | 8.5 mph | 10 | SSW (212°) | 99716 | 101867 | 24.7°C | 79.2% | 20.9°C | 2168ft (661m) | 12.6v | 16 |
| 3817 | 15 Apr 06:55:59 | 7 | 8.3 mph | 10 | SW (225°) | 99715 | 101866 | 24.8°C | 79.3% | 21°C | 2161ft (659m) | 12.61v | 16 |
| 3816 | 15 Apr 06:55:48 | 5 | 5.3 mph | 6 | SSW (209°) | 99716 | 101867 | 24.8°C | 79.3% | 21°C | 2161ft (659m) | 12.61v | 16 |
| 3815 | 15 Apr 06:55:36 | 6 | 6.5 mph | 7 | SW (224°) | 99714 | 101865 | 24.8°C | 79.2% | 20.9°C | 2169ft (661m) | 12.6v | 18 |
| 3814 | 15 Apr 06:55:25 | 7 | 8.7 mph | 10 | SSW (199°) | 99713 | 101864 | 24.8°C | 79.2% | 20.9°C | 2169ft (661m) | 12.59v | 18 |
| 3813 | 15 Apr 06:55:14 | 7 | 7.6 mph | 9 | SSW (201°) | 99711 | 101862 | 24.8°C | 79.2% | 20.9°C | 2169ft (661m) | 12.61v | 16 |
| 3812 | 15 Apr 06:55:03 | 9 | 10.2 mph | 11 | SW (216°) | 99715 | 101866 | 24.8°C | 79% | 20.9°C | 2186ft (666m) | 12.62v | 16 |
| 3811 | 15 Apr 06:54:51 | 9 | 10.5 mph | 12 | SSW (213°) | 99713 | 101864 | 24.8°C | 79% | 20.9°C | 2186ft (666m) | 12.62v | 17 |
| 3810 | 15 Apr 06:54:40 | 9 | 9.8 mph | 11 | SSW (212°) | 99715 | 101866 | 24.8°C | 79.1% | 20.9°C | 2178ft (664m) | 12.61v | 15 |
| 3809 | 15 Apr 06:54:29 | 7 | 8.2 mph | 9 | SSW (209°) | 99714 | 101865 | 24.8°C | 79.1% | 20.9°C | 2178ft (664m) | 12.6v | 15 |
| 3808 | 15 Apr 06:54:18 | 7 | 7.2 mph | 8 | SW (219°) | 99712 | 101863 | 24.8°C | 79.2% | 20.9°C | 2169ft (661m) | 12.6v | 16 |
| 3807 | 15 Apr 06:54:07 | 7 | 7.5 mph | 10 | SW (220°) | 99714 | 101865 | 24.8°C | 79.1% | 20.9°C | 2178ft (664m) | 12.59v | 16 |
| 3806 | 15 Apr 06:53:55 | 9 | 9.2 mph | 10 | SSW (206°) | 99710 | 101861 | 24.8°C | 79% | 20.9°C | 2186ft (666m) | 12.59v | 16 |
| 3805 | 15 Apr 06:53:44 | 8 | 8.2 mph | 9 | SSW (210°) | 99713 | 101864 | 24.8°C | 79.1% | 20.9°C | 2178ft (664m) | 12.6v | 17 |
| 3804 | 15 Apr 06:53:33 | 7 | 7 mph | 7 | SW (214°) | 99713 | 101864 | 24.8°C | 79.1% | 20.9°C | 2178ft (664m) | 12.61v | 15 |
| 3803 | 15 Apr 06:53:22 | 7 | 7.7 mph | 9 | SW (220°) | 99714 | 101865 | 24.8°C | 79.1% | 20.9°C | 2178ft (664m) | 12.61v | 16 |
| 3802 | 15 Apr 06:53:10 | 6 | 6.5 mph | 7 | SW (223°) | 99712 | 101863 | 24.8°C | 79.1% | 20.9°C | 2178ft (664m) | 12.6v | 16 |
| 3801 | 15 Apr 06:52:59 | 5 | 5.8 mph | 6 | SW (217°) | 99715 | 101866 | 24.8°C | 79% | 20.9°C | 2186ft (666m) | 12.6v | 17 |
| 3800 | 15 Apr 06:52:48 | 5 | 5.7 mph | 6 | SSW (207°) | 99713 | 101864 | 24.8°C | 78.9% | 20.9°C | 2194ft (669m) | 12.59v | 16 |
| 3799 | 15 Apr 06:52:37 | 6 | 5.9 mph | 6 | SSW (208°) | 99711 | 101862 | 24.8°C | 78.8% | 20.9°C | 2203ft (671m) | 12.59v | 16 |
| 3798 | 15 Apr 06:52:25 | 7 | 7.5 mph | 8 | SSW (205°) | 99712 | 101863 | 24.8°C | 78.8% | 20.9°C | 2203ft (671m) | 12.59v | 18 |
| 3797 | 15 Apr 06:52:14 | 9 | 9.4 mph | 10 | SSW (206°) | 99710 | 101861 | 24.8°C | 78.7% | 20.8°C | 2211ft (674m) | 12.57v | 16 |
| 3796 | 15 Apr 06:52:03 | 8 | 8.2 mph | 9 | SSW (208°) | 99707 | 101858 | 24.8°C | 78.8% | 20.9°C | 2203ft (671m) | 12.61v | 18 |
| 3795 | 15 Apr 06:51:52 | 8 | 9.1 mph | 10 | SSW (207°) | 99710 | 101861 | 24.8°C | 78.7% | 20.8°C | 2211ft (674m) | 12.59v | 16 |
| 3794 | 15 Apr 06:51:40 | 6 | 6.3 mph | 8 | SSW (203°) | 99710 | 101861 | 24.8°C | 78.8% | 20.9°C | 2203ft (671m) | 12.58v | 16 |
| 3793 | 15 Apr 06:51:29 | 6 | 6.7 mph | 8 | SSW (204°) | 99709 | 101860 | 24.8°C | 78.8% | 20.9°C | 2203ft (671m) | 12.59v | 17 |
| 3792 | 15 Apr 06:51:18 | 5 | 5.6 mph | 7 | SW (217°) | 99707 | 101858 | 24.8°C | 78.9% | 20.9°C | 2194ft (669m) | 12.6v | 16 |
| 3791 | 15 Apr 06:51:06 | 5 | 5.6 mph | 6 | SW (215°) | 99708 | 101859 | 24.8°C | 78.8% | 20.9°C | 2203ft (671m) | 12.58v | 16 |
| 3790 | 15 Apr 06:50:55 | 7 | 7.4 mph | 8 | SSW (211°) | 99708 | 101859 | 24.9°C | 78.7% | 20.9°C | 2213ft (675m) | 12.6v | 16 |
| 3789 | 15 Apr 06:50:44 | 5 | 5.9 mph | 8 | SW (222°) | 99707 | 101858 | 24.9°C | 78.8% | 21°C | 2204ft (672m) | 12.58v | 16 |
| 3788 | 15 Apr 06:50:33 | 5 | 5.4 mph | 6 | SW (219°) | 99705 | 101856 | 24.9°C | 78.7% | 20.9°C | 2213ft (675m) | 12.59v | 16 |
| 3787 | 15 Apr 06:50:21 | 5 | 5.8 mph | 7 | SSW (211°) | 99706 | 101857 | 24.9°C | 78.7% | 20.9°C | 2213ft (675m) | 12.59v | 15 |
| 3786 | 15 Apr 06:50:10 | 5 | 6.1 mph | 7 | SW (214°) | 99707 | 101858 | 24.9°C | 78.8% | 21°C | 2204ft (672m) | 12.58v | 17 |
| 3785 | 15 Apr 06:49:59 | 5 | 6.4 mph | 7 | SW (216°) | 99705 | 101856 | 24.9°C | 78.8% | 21°C | 2204ft (672m) | 12.58v | 17 |
| 3784 | 15 Apr 06:49:48 | 5 | 5.5 mph | 6 | SW (217°) | 99705 | 101856 | 24.9°C | 78.8% | 21°C | 2204ft (672m) | 12.58v | 16 |
| 3783 | 15 Apr 06:49:36 | 7 | 7.7 mph | 8 | SW (224°) | 99704 | 101855 | 24.8°C | 78.6% | 20.8°C | 2220ft (677m) | 12.58v | 18 |
| 3782 | 15 Apr 06:49:25 | 5 | 5.1 mph | 6 | SW (219°) | 99704 | 101855 | 24.9°C | 78.6% | 20.9°C | 2221ft (677m) | 12.57v | 16 |
| 3781 | 15 Apr 06:49:14 | 6 | 6.5 mph | 7 | SSW (213°) | 99703 | 101854 | 24.9°C | 78.4% | 20.9°C | 2238ft (682m) | 12.57v | 16 |
| 3780 | 15 Apr 06:49:03 | 5 | 7.4 mph | 9 | SW (216°) | 99704 | 101855 | 24.9°C | 78.5% | 20.9°C | 2230ft (680m) | 12.58v | 16 |
| 3779 | 15 Apr 06:48:51 | 6 | 6.9 mph | 8 | SSW (206°) | 99702 | 101853 | 24.9°C | 78.5% | 20.9°C | 2230ft (680m) | 12.58v | 17 |
| 3778 | 15 Apr 06:48:40 | 7 | 8.8 mph | 10 | SW (224°) | 99703 | 101854 | 24.9°C | 78.4% | 20.9°C | 2238ft (682m) | 12.58v | 16 |
| 3777 | 15 Apr 06:48:29 | 6 | 7.3 mph | 8 | SW (221°) | 99697 | 101847 | 24.9°C | 78.5% | 20.9°C | 2230ft (680m) | 12.59v | 19 |
| 3776 | 15 Apr 06:48:18 | 6 | 6.3 mph | 7 | SW (220°) | 99700 | 101851 | 24.9°C | 78.5% | 20.9°C | 2230ft (680m) | 12.6v | 19 |
| 3775 | 15 Apr 06:48:06 | 4 | 4.7 mph | 5 | SSW (211°) | 99702 | 101853 | 24.9°C | 78.6% | 20.9°C | 2221ft (677m) | 12.57v | 18 |
| 3774 | 15 Apr 06:47:55 | 5 | 5.9 mph | 7 | SW (221°) | 99700 | 101851 | 24.9°C | 78.4% | 20.9°C | 2238ft (682m) | 12.58v | 16 |
| 3773 | 15 Apr 06:47:44 | 6 | 6.4 mph | 7 | SW (216°) | 99697 | 101847 | 24.9°C | 78.5% | 20.9°C | 2230ft (680m) | 12.57v | 15 |
| 3772 | 15 Apr 06:47:32 | 5 | 6.8 mph | 8 | SW (225°) | 99699 | 101850 | 24.9°C | 78.3% | 20.9°C | 2247ft (685m) | 12.59v | 16 |
| 3771 | 15 Apr 06:47:21 | 5 | 5.7 mph | 7 | SW (217°) | 99698 | 101849 | 24.9°C | 78.3% | 20.9°C | 2247ft (685m) | 12.58v | 16 |
| 3770 | 15 Apr 06:47:10 | 7 | 7.7 mph | 9 | SSW (204°) | 99699 | 101850 | 24.9°C | 78.2% | 20.8°C | 2255ft (687m) | 12.6v | 16 |
| 3769 | 15 Apr 06:46:59 | 6 | 6.3 mph | 9 | SW (215°) | 99696 | 101846 | 24.9°C | 78.3% | 20.9°C | 2247ft (685m) | 12.6v | 16 |
| 3768 | 15 Apr 06:46:47 | 7 | 7.6 mph | 9 | SW (236°) | 99695 | 101845 | 24.9°C | 78.1% | 20.8°C | 2264ft (690m) | 12.59v | 17 |
| 3767 | 15 Apr 06:46:36 | 8 | 8.7 mph | 9 | SSW (213°) | 99693 | 101843 | 24.9°C | 78.1% | 20.8°C | 2264ft (690m) | 12.59v | 16 |
| 3766 | 15 Apr 06:46:25 | 10 | 11.2 mph | 13 | SSW (205°) | 99691 | 101841 | 24.9°C | 77.8% | 20.8°C | 2289ft (698m) | 12.57v | 16 |
| 3765 | 15 Apr 06:46:14 | 9 | 10.5 mph | 12 | SW (217°) | 99691 | 101841 | 24.9°C | 78.1% | 20.8°C | 2264ft (690m) | 12.58v | 16 |
| 3764 | 15 Apr 06:46:02 | 7 | 7.8 mph | 9 | SSW (206°) | 99695 | 101845 | 24.9°C | 78.2% | 20.8°C | 2255ft (687m) | 12.59v | 16 |
| 3763 | 15 Apr 06:45:51 | 7 | 7.3 mph | 8 | SSW (210°) | 99694 | 101844 | 24.9°C | 78.2% | 20.8°C | 2255ft (687m) | 12.6v | 17 |
| 3762 | 15 Apr 06:45:40 | 7 | 8.3 mph | 9 | SSW (211°) | 99693 | 101843 | 24.9°C | 78.1% | 20.8°C | 2264ft (690m) | 12.6v | 16 |
| 3761 | 15 Apr 06:45:29 | 6 | 6.5 mph | 8 | SSW (211°) | 99694 | 101844 | 24.9°C | 78.2% | 20.8°C | 2255ft (687m) | 12.58v | 16 |
| 3760 | 15 Apr 06:45:18 | 6 | 6.8 mph | 8 | SW (214°) | 99691 | 101841 | 24.9°C | 78.1% | 20.8°C | 2264ft (690m) | 12.58v | 17 |
| 3759 | 15 Apr 06:45:07 | 5 | 6.5 mph | 8 | SW (224°) | 99691 | 101841 | 24.9°C | 78.1% | 20.8°C | 2264ft (690m) | 12.58v | 16 |
| 3758 | 15 Apr 06:44:56 | 5 | 5.9 mph | 7 | SW (215°) | 99692 | 101842 | 24.9°C | 78% | 20.8°C | 2272ft (693m) | 12.58v | 16 |
| 3757 | 15 Apr 06:44:45 | 4 | 4.4 mph | 6 | SW (219°) | 99693 | 101843 | 24.9°C | 78% | 20.8°C | 2272ft (693m) | 12.58v | 15 |
| 3756 | 15 Apr 06:44:33 | 4 | 5.9 mph | 8 | SW (220°) | 99692 | 101842 | 24.9°C | 77.9% | 20.8°C | 2281ft (695m) | 12.59v | 16 |
| 3755 | 15 Apr 06:44:22 | 7 | 7.4 mph | 9 | SW (218°) | 99690 | 101840 | 25°C | 78% | 20.9°C | 2273ft (693m) | 12.58v | 15 |
| 3754 | 15 Apr 06:44:11 | 8 | 8.1 mph | 9 | SW (214°) | 99692 | 101842 | 24.9°C | 77.9% | 20.8°C | 2281ft (695m) | 12.59v | 18 |
| 3753 | 15 Apr 06:44:00 | 6 | 6.7 mph | 8 | SW (221°) | 99690 | 101840 | 24.9°C | 77.9% | 20.8°C | 2281ft (695m) | 12.6v | 18 |
| 3752 | 15 Apr 06:43:48 | 6 | 6.7 mph | 7 | SW (224°) | 99691 | 101841 | 24.9°C | 77.8% | 20.8°C | 2289ft (698m) | 12.58v | 16 |
| 3751 | 15 Apr 06:43:37 | 7 | 7.6 mph | 8 | SW (214°) | 99691 | 101841 | 24.9°C | 77.9% | 20.8°C | 2281ft (695m) | 12.58v | 17 |
| 3750 | 15 Apr 06:43:26 | 6 | 6.1 mph | 7 | SSW (202°) | 99692 | 101842 | 24.9°C | 78% | 20.8°C | 2272ft (693m) | 12.57v | 16 |
| 3749 | 15 Apr 06:43:15 | 5 | 5.9 mph | 7 | SSW (211°) | 99688 | 101838 | 24.9°C | 78% | 20.8°C | 2272ft (693m) | 12.57v | 16 |
| 3748 | 15 Apr 06:43:03 | 5 | 6 mph | 7 | SW (228°) | 99689 | 101839 | 24.9°C | 77.9% | 20.8°C | 2281ft (695m) | 12.55v | 18 |
| 3747 | 15 Apr 06:42:52 | 5 | 5.4 mph | 6 | SW (215°) | 99688 | 101838 | 24.9°C | 77.8% | 20.8°C | 2289ft (698m) | 12.58v | 18 |
| 3746 | 15 Apr 06:42:41 | 4 | 5.1 mph | 7 | SW (217°) | 99689 | 101839 | 24.9°C | 77.8% | 20.8°C | 2289ft (698m) | 12.58v | 16 |
| 3745 | 15 Apr 06:42:30 | 5 | 6.4 mph | 7 | SW (216°) | 99690 | 101840 | 24.9°C | 77.8% | 20.8°C | 2289ft (698m) | 12.59v | 19 |
| 3744 | 15 Apr 06:42:18 | 6 | 6.1 mph | 7 | SW (221°) | 99687 | 101837 | 25°C | 77.8% | 20.9°C | 2291ft (698m) | 12.57v | 15 |
| 3743 | 15 Apr 06:42:07 | 4 | 5.5 mph | 7 | SSW (208°) | 99686 | 101836 | 24.9°C | 77.9% | 20.8°C | 2281ft (695m) | 12.59v | 16 |
| 3742 | 15 Apr 06:41:56 | 4 | 5.5 mph | 7 | SSW (204°) | 99686 | 101836 | 25°C | 77.7% | 20.8°C | 2299ft (701m) | 12.58v | 16 |
| 3741 | 15 Apr 06:41:45 | 5 | 5.8 mph | 7 | SW (214°) | 99687 | 101837 | 25°C | 77.7% | 20.8°C | 2299ft (701m) | 12.57v | 17 |
| 3740 | 15 Apr 06:41:33 | 7 | 7.5 mph | 8 | SW (215°) | 99686 | 101836 | 25°C | 77.6% | 20.8°C | 2308ft (703m) | 12.58v | 17 |
| 3739 | 15 Apr 06:41:22 | 5 | 6 mph | 7 | SW (220°) | 99685 | 101835 | 25°C | 77.6% | 20.8°C | 2308ft (703m) | 12.59v | 17 |
| 3738 | 15 Apr 06:41:11 | 6 | 6.4 mph | 7 | SSW (204°) | 99688 | 101838 | 25°C | 77.6% | 20.8°C | 2308ft (703m) | 12.58v | 20 |
| 3737 | 15 Apr 06:41:00 | 5 | 6.4 mph | 8 | SW (217°) | 99686 | 101836 | 25°C | 77.6% | 20.8°C | 2308ft (703m) | 12.58v | 19 |
| 3736 | 15 Apr 06:40:48 | 5 | 6.5 mph | 7 | SSW (208°) | 99682 | 101832 | 25°C | 77.6% | 20.8°C | 2308ft (703m) | 12.57v | 17 |
| 3735 | 15 Apr 06:40:37 | 5 | 5.9 mph | 7 | SSW (212°) | 99684 | 101834 | 25°C | 77.5% | 20.8°C | 2316ft (706m) | 12.58v | 16 |
| 3734 | 15 Apr 06:40:26 | 6 | 6.5 mph | 8 | SSW (199°) | 99683 | 101833 | 25°C | 77.5% | 20.8°C | 2316ft (706m) | 12.57v | 18 |
| 3733 | 15 Apr 06:40:15 | 6 | 6.7 mph | 8 | SSW (209°) | 99683 | 101833 | 25°C | 77.4% | 20.8°C | 2325ft (709m) | 12.57v | 19 |
| 3732 | 15 Apr 06:40:03 | 7 | 7.9 mph | 9 | SSW (199°) | 99680 | 101830 | 25°C | 77.5% | 20.8°C | 2316ft (706m) | 12.58v | 16 |
| 3731 | 15 Apr 06:39:52 | 8 | 8.4 mph | 9 | SSW (205°) | 99683 | 101833 | 25°C | 77.5% | 20.8°C | 2316ft (706m) | 12.56v | 17 |
| 3730 | 15 Apr 06:39:41 | 7 | 8.3 mph | 9 | SW (221°) | 99685 | 101835 | 25°C | 77.4% | 20.8°C | 2325ft (709m) | 12.58v | 19 |
| 3729 | 15 Apr 06:39:30 | 7 | 8.3 mph | 11 | SSW (207°) | 99682 | 101832 | 25°C | 77.4% | 20.8°C | 2325ft (709m) | 12.58v | 16 |
| 3728 | 15 Apr 06:39:18 | 8 | 9 mph | 11 | SSW (210°) | 99677 | 101827 | 25°C | 77.5% | 20.8°C | 2316ft (706m) | 12.58v | 15 |
| 3727 | 15 Apr 06:39:06 | 6 | 7.5 mph | 9 | SW (214°) | 99679 | 101829 | 25°C | 77.5% | 20.8°C | 2316ft (706m) | 12.58v | 16 |
| 3726 | 15 Apr 06:38:55 | 5 | 6 mph | 7 | SW (219°) | 99678 | 101828 | 25°C | 77.5% | 20.8°C | 2316ft (706m) | 12.57v | 18 |
| 3725 | 15 Apr 06:38:44 | 6 | 7.2 mph | 9 | SSW (210°) | 99680 | 101830 | 25°C | 77.4% | 20.8°C | 2325ft (709m) | 12.57v | 18 |
| 3724 | 15 Apr 06:38:33 | 7 | 8.2 mph | 9 | SSW (208°) | 99677 | 101827 | 25°C | 77.3% | 20.7°C | 2334ft (711m) | 12.56v | 18 |
| 3723 | 15 Apr 06:38:21 | 6 | 7 mph | 8 | SW (223°) | 99679 | 101829 | 25°C | 77.3% | 20.7°C | 2334ft (711m) | 12.57v | 16 |
| 3722 | 15 Apr 06:38:10 | 5 | 5.4 mph | 6 | SW (216°) | 99679 | 101829 | 25°C | 77.3% | 20.7°C | 2334ft (711m) | 12.59v | 16 |
| 3721 | 15 Apr 06:37:59 | 5 | 6.3 mph | 7 | SW (221°) | 99679 | 101829 | 25°C | 77.3% | 20.7°C | 2334ft (711m) | 12.58v | 16 |
| 3720 | 15 Apr 06:37:48 | 6 | 6.5 mph | 7 | SSW (211°) | 99677 | 101827 | 25°C | 77.3% | 20.7°C | 2334ft (711m) | 12.57v | 16 |
| 3719 | 15 Apr 06:37:36 | 7 | 8.2 mph | 9 | SW (214°) | 99677 | 101827 | 25°C | 77.3% | 20.7°C | 2334ft (711m) | 12.57v | 16 |
| 3718 | 15 Apr 06:37:25 | 5 | 6.3 mph | 7 | SSW (204°) | 99671 | 101821 | 25°C | 77.3% | 20.7°C | 2334ft (711m) | 12.57v | 16 |
| 3717 | 15 Apr 06:37:14 | 6 | 6.1 mph | 7 | SSW (212°) | 99677 | 101827 | 25°C | 77.3% | 20.7°C | 2334ft (711m) | 12.56v | 17 |
| 3716 | 15 Apr 06:37:03 | 7 | 8 mph | 9 | SSW (213°) | 99675 | 101825 | 25°C | 77.2% | 20.7°C | 2342ft (714m) | 12.57v | 16 |
| 3715 | 15 Apr 06:36:51 | 6 | 7.4 mph | 9 | SSW (209°) | 99672 | 101822 | 25°C | 77.3% | 20.7°C | 2334ft (711m) | 12.57v | 16 |
| 3714 | 15 Apr 06:36:40 | 6 | 7.2 mph | 8 | SW (215°) | 99676 | 101826 | 25°C | 77.2% | 20.7°C | 2342ft (714m) | 12.57v | 16 |
| 3713 | 15 Apr 06:36:29 | 5 | 6.4 mph | 8 | SW (214°) | 99674 | 101824 | 25°C | 77.3% | 20.7°C | 2334ft (711m) | 12.58v | 16 |
| 3712 | 15 Apr 06:36:18 | 7 | 7.5 mph | 8 | SSW (208°) | 99675 | 101825 | 25°C | 77.2% | 20.7°C | 2342ft (714m) | 12.56v | 16 |
| 3711 | 15 Apr 06:36:07 | 7 | 8.3 mph | 11 | SSW (211°) | 99668 | 101818 | 25°C | 77.4% | 20.8°C | 2325ft (709m) | 12.58v | 16 |
| 3710 | 15 Apr 06:35:56 | 7 | 7.1 mph | 8 | SSW (211°) | 99675 | 101825 | 25°C | 77.3% | 20.7°C | 2334ft (711m) | 12.56v | 15 |
| 3709 | 15 Apr 06:35:45 | 6 | 7.7 mph | 9 | SW (217°) | 99677 | 101827 | 25°C | 77.3% | 20.7°C | 2334ft (711m) | 12.56v | 16 |
| 3708 | 15 Apr 06:35:33 | 5 | 6.4 mph | 7 | SSW (211°) | 99676 | 101826 | 25°C | 77.3% | 20.7°C | 2334ft (711m) | 12.56v | 16 |
| 3707 | 15 Apr 06:35:22 | 6 | 6.7 mph | 8 | SW (216°) | 99671 | 101821 | 25°C | 77.3% | 20.7°C | 2334ft (711m) | 12.57v | 16 |
| 3706 | 15 Apr 06:35:11 | 6 | 6.9 mph | 8 | SW (216°) | 99675 | 101825 | 25°C | 77.3% | 20.7°C | 2334ft (711m) | 12.57v | 16 |
| 3705 | 15 Apr 06:35:00 | 7 | 7.5 mph | 9 | SW (220°) | 99672 | 101822 | 25°C | 77.2% | 20.7°C | 2342ft (714m) | 12.57v | 17 |
| 3704 | 15 Apr 06:34:48 | 8 | 8.7 mph | 9 | SSW (197°) | 99673 | 101823 | 25°C | 77.3% | 20.7°C | 2334ft (711m) | 12.57v | 16 |
| 3703 | 15 Apr 06:34:37 | 8 | 8.9 mph | 10 | SSW (203°) | 99672 | 101822 | 25°C | 77.2% | 20.7°C | 2342ft (714m) | 12.59v | 16 |
| 3702 | 15 Apr 06:34:26 | 8 | 8.1 mph | 9 | SSW (206°) | 99673 | 101823 | 25°C | 77.2% | 20.7°C | 2342ft (714m) | 12.56v | 20 |
| 3701 | 15 Apr 06:34:15 | 5 | 6.8 mph | 8 | SW (219°) | 99675 | 101825 | 25°C | 77.3% | 20.7°C | 2334ft (711m) | 12.56v | 16 |
| 3700 | 15 Apr 06:34:03 | 6 | 6.9 mph | 8 | SSW (198°) | 99673 | 101823 | 25°C | 77.4% | 20.8°C | 2325ft (709m) | 12.56v | 16 |
| 3699 | 15 Apr 06:33:52 | 5 | 5.8 mph | 7 | SW (215°) | 99671 | 101821 | 25°C | 77.3% | 20.7°C | 2334ft (711m) | 12.56v | 16 |
| 3698 | 15 Apr 06:33:41 | 5 | 6.1 mph | 8 | SW (215°) | 99672 | 101822 | 25°C | 77.4% | 20.8°C | 2325ft (709m) | 12.57v | 16 |
| 3697 | 15 Apr 06:33:30 | 6 | 7 mph | 8 | SSW (208°) | 99667 | 101817 | 25°C | 77.2% | 20.7°C | 2342ft (714m) | 12.58v | 17 |
| 3696 | 15 Apr 06:33:18 | 7 | 7.6 mph | 8 | SSW (200°) | 99670 | 101820 | 25°C | 77.2% | 20.7°C | 2342ft (714m) | 12.57v | 16 |
| 3695 | 15 Apr 06:33:07 | 5 | 6.3 mph | 7 | SSW (209°) | 99672 | 101822 | 25°C | 77.2% | 20.7°C | 2342ft (714m) | 12.56v | 18 |
| 3694 | 15 Apr 06:32:56 | 8 | 9.1 mph | 10 | SW (215°) | 99670 | 101820 | 25°C | 77.1% | 20.7°C | 2351ft (717m) | 12.56v | 16 |
| 3693 | 15 Apr 06:32:44 | 8 | 8.8 mph | 10 | SSW (207°) | 99668 | 101818 | 25°C | 77.1% | 20.7°C | 2351ft (717m) | 12.55v | 16 |
| 3692 | 15 Apr 06:32:33 | 7 | 10 mph | 12 | SSW (209°) | 99667 | 101817 | 25°C | 77% | 20.7°C | 2359ft (719m) | 12.56v | 17 |
| 3691 | 15 Apr 06:32:22 | 10 | 10 mph | 10 | SSW (205°) | 99668 | 101818 | 25°C | 77% | 20.7°C | 2359ft (719m) | 12.55v | 17 |
| 3690 | 15 Apr 06:32:11 | 7 | 7.8 mph | 9 | SSW (212°) | 99662 | 101812 | 25°C | 77.1% | 20.7°C | 2351ft (717m) | 12.57v | 17 |
| 3689 | 15 Apr 06:31:59 | 8 | 9.5 mph | 12 | SSW (213°) | 99666 | 101816 | 25°C | 77.1% | 20.7°C | 2351ft (717m) | 12.56v | 17 |
| 3688 | 15 Apr 06:31:48 | 8 | 8.1 mph | 9 | SW (215°) | 99666 | 101816 | 25°C | 77.1% | 20.7°C | 2351ft (717m) | 12.56v | 17 |
| 3687 | 15 Apr 06:31:37 | 6 | 8.3 mph | 10 | SSW (211°) | 99666 | 101816 | 25°C | 77.1% | 20.7°C | 2351ft (717m) | 12.56v | 16 |
| 3686 | 15 Apr 06:31:26 | 6 | 7.3 mph | 9 | SSW (208°) | 99664 | 101814 | 25°C | 77.2% | 20.7°C | 2342ft (714m) | 12.57v | 18 |
| 3685 | 15 Apr 06:31:14 | 6 | 6.9 mph | 8 | SW (217°) | 99665 | 101815 | 25°C | 77.1% | 20.7°C | 2351ft (717m) | 12.55v | 19 |
| 3684 | 15 Apr 06:31:03 | 6 | 8 mph | 10 | SSW (213°) | 99663 | 101813 | 25°C | 77.2% | 20.7°C | 2342ft (714m) | 12.55v | 17 |
| 3683 | 15 Apr 06:30:52 | 8 | 9.2 mph | 11 | SSW (207°) | 99662 | 101812 | 25°C | 77% | 20.7°C | 2359ft (719m) | 12.57v | 19 |
| 3682 | 15 Apr 06:30:41 | 8 | 8.6 mph | 10 | SW (215°) | 99662 | 101812 | 25°C | 76.9% | 20.7°C | 2368ft (722m) | 12.56v | 18 |
| 3681 | 15 Apr 06:30:29 | 9 | 9.4 mph | 11 | SSW (212°) | 99659 | 101809 | 25°C | 77.1% | 20.7°C | 2351ft (717m) | 12.57v | 16 |
| 3680 | 15 Apr 06:30:18 | 8 | 8.4 mph | 10 | SW (220°) | 99663 | 101813 | 25°C | 77.1% | 20.7°C | 2351ft (717m) | 12.57v | 17 |
| 3679 | 15 Apr 06:30:06 | 7 | 8.5 mph | 10 | SSW (212°) | 99662 | 101812 | 25°C | 77.2% | 20.7°C | 2342ft (714m) | 12.56v | 16 |
| 3678 | 15 Apr 06:29:55 | 7 | 7.4 mph | 8 | SSW (204°) | 99663 | 101813 | 25°C | 77.2% | 20.7°C | 2342ft (714m) | 12.56v | 19 |
| 3677 | 15 Apr 06:29:44 | 7 | 7.4 mph | 8 | SW (216°) | 99663 | 101813 | 25°C | 77.2% | 20.7°C | 2342ft (714m) | 12.56v | 16 |
| 3676 | 15 Apr 06:29:33 | 7 | 10.3 mph | 12 | SSW (206°) | 99660 | 101810 | 25°C | 77.2% | 20.7°C | 2342ft (714m) | 12.55v | 16 |
| 3675 | 15 Apr 06:29:21 | 7 | 7.2 mph | 8 | SSW (213°) | 99663 | 101813 | 25°C | 77.2% | 20.7°C | 2342ft (714m) | 12.56v | 16 |
| 3674 | 15 Apr 06:29:10 | 8 | 8.5 mph | 10 | SSW (209°) | 99663 | 101813 | 25°C | 77% | 20.7°C | 2359ft (719m) | 12.56v | 18 |
| 3673 | 15 Apr 06:28:59 | 7 | 8.1 mph | 10 | SSW (209°) | 99661 | 101811 | 25°C | 77.1% | 20.7°C | 2351ft (717m) | 12.57v | 16 |
| 3672 | 15 Apr 06:28:48 | 8 | 8.8 mph | 11 | SSW (211°) | 99660 | 101810 | 25°C | 77% | 20.7°C | 2359ft (719m) | 12.57v | 17 |
| 3671 | 15 Apr 06:28:36 | 8 | 8.6 mph | 10 | SW (215°) | 99659 | 101809 | 25°C | 77% | 20.7°C | 2359ft (719m) | 12.59v | 18 |
| 3670 | 15 Apr 06:28:25 | 8 | 8.8 mph | 10 | SSW (209°) | 99659 | 101809 | 25°C | 77% | 20.7°C | 2359ft (719m) | 12.56v | 17 |
| 3669 | 15 Apr 06:28:14 | 8 | 10.7 mph | 13 | SSW (198°) | 99659 | 101809 | 25°C | 77% | 20.7°C | 2359ft (719m) | 12.56v | 16 |
| 3668 | 15 Apr 06:28:03 | 8 | 10.4 mph | 14 | SW (218°) | 99657 | 101807 | 25°C | 77% | 20.7°C | 2359ft (719m) | 12.57v | 16 |
| 3667 | 15 Apr 06:27:51 | 9 | 10.5 mph | 13 | SSW (203°) | 99657 | 101807 | 25°C | 77.1% | 20.7°C | 2351ft (717m) | 12.56v | 15 |
| 3666 | 15 Apr 06:27:40 | 7 | 7.7 mph | 9 | SW (218°) | 99656 | 101806 | 25°C | 77.2% | 20.7°C | 2342ft (714m) | 12.56v | 19 |
| 3665 | 15 Apr 06:27:29 | 6 | 7.9 mph | 10 | SSW (209°) | 99655 | 101805 | 25°C | 77.2% | 20.7°C | 2342ft (714m) | 12.57v | 16 |
| 3664 | 15 Apr 06:27:18 | 9 | 9.6 mph | 11 | SSW (211°) | 99659 | 101809 | 25°C | 77.1% | 20.7°C | 2351ft (717m) | 12.55v | 18 |
| 3663 | 15 Apr 06:27:06 | 8 | 8.7 mph | 10 | SW (218°) | 99653 | 101803 | 25°C | 77.1% | 20.7°C | 2351ft (717m) | 12.55v | 16 |
| 3662 | 15 Apr 06:26:55 | 10 | 10.6 mph | 12 | SSW (193°) | 99655 | 101805 | 25°C | 77% | 20.7°C | 2359ft (719m) | 12.56v | 16 |
| 3661 | 15 Apr 06:26:44 | 6 | 8.1 mph | 10 | SSW (196°) | 99652 | 101802 | 25°C | 77% | 20.7°C | 2359ft (719m) | 12.55v | 17 |
| 3660 | 15 Apr 06:26:33 | 8 | 9.9 mph | 12 | SSW (197°) | 99654 | 101804 | 25°C | 77% | 20.7°C | 2359ft (719m) | 12.56v | 17 |
| 3659 | 15 Apr 06:26:21 | 8 | 8.7 mph | 10 | SSW (199°) | 99654 | 101804 | 25°C | 77% | 20.7°C | 2359ft (719m) | 12.54v | 16 |
| 3658 | 15 Apr 06:26:10 | 10 | 9.8 mph | 12 | SSW (206°) | 99658 | 101808 | 25°C | 76.9% | 20.7°C | 2368ft (722m) | 12.56v | 18 |
| 3657 | 15 Apr 06:25:59 | 7 | 7.4 mph | 10 | SW (219°) | 99653 | 101803 | 25°C | 77% | 20.7°C | 2359ft (719m) | 12.56v | 16 |
| 3656 | 15 Apr 06:25:48 | 10 | 10.9 mph | 12 | SSW (212°) | 99653 | 101803 | 25°C | 77% | 20.7°C | 2359ft (719m) | 12.56v | 16 |
| 3655 | 15 Apr 06:25:36 | 5 | 6.3 mph | 9 | SW (214°) | 99656 | 101806 | 25°C | 77.2% | 20.7°C | 2342ft (714m) | 12.56v | 17 |
| 3654 | 15 Apr 06:25:25 | 6 | 6.8 mph | 9 | SW (224°) | 99652 | 101802 | 25°C | 77.1% | 20.7°C | 2351ft (717m) | 12.57v | 18 |
| 3653 | 15 Apr 06:25:14 | 6 | 8 mph | 9 | SSW (213°) | 99654 | 101804 | 25°C | 77.1% | 20.7°C | 2351ft (717m) | 12.56v | 16 |
| 3652 | 15 Apr 06:25:03 | 8 | 9.9 mph | 12 | SW (216°) | 99649 | 101798 | 25°C | 77.2% | 20.7°C | 2342ft (714m) | 12.56v | 17 |
| 3651 | 15 Apr 06:24:51 | 8 | 10.3 mph | 13 | SSW (201°) | 99649 | 101798 | 25°C | 77% | 20.7°C | 2359ft (719m) | 12.57v | 16 |
| 3650 | 15 Apr 06:24:40 | 7 | 8.3 mph | 9 | SSW (202°) | 99652 | 101802 | 25°C | 77.1% | 20.7°C | 2351ft (717m) | 12.56v | 16 |
| 3649 | 15 Apr 06:24:29 | 7 | 7.5 mph | 9 | SSW (203°) | 99651 | 101800 | 25°C | 77.1% | 20.7°C | 2351ft (717m) | 12.56v | 16 |
| 3648 | 15 Apr 06:24:18 | 8 | 9.5 mph | 11 | SSW (204°) | 99651 | 101800 | 25°C | 77% | 20.7°C | 2359ft (719m) | 12.58v | 15 |
| 3647 | 15 Apr 06:24:06 | 7 | 10.9 mph | 14 | SSW (198°) | 99647 | 101796 | 25°C | 77% | 20.7°C | 2359ft (719m) | 12.56v | 16 |
| 3646 | 15 Apr 06:23:55 | 7 | 9.4 mph | 12 | SSW (204°) | 99651 | 101800 | 25°C | 77% | 20.7°C | 2359ft (719m) | 12.59v | 16 |
| 3645 | 15 Apr 06:23:44 | 8 | 9.1 mph | 10 | SSW (206°) | 99654 | 101804 | 25°C | 77% | 20.7°C | 2359ft (719m) | 12.58v | 15 |
| 3644 | 15 Apr 06:23:33 | 8 | 9.8 mph | 12 | SSW (205°) | 99655 | 101805 | 25°C | 77.1% | 20.7°C | 2351ft (717m) | 12.57v | 16 |
| 3643 | 15 Apr 06:23:21 | 6 | 8.5 mph | 12 | SSW (193°) | 99650 | 101799 | 25°C | 77.1% | 20.7°C | 2351ft (717m) | 12.57v | 16 |
| 3642 | 15 Apr 06:23:10 | 8 | 8.2 mph | 9 | SSW (203°) | 99647 | 101796 | 25°C | 77.1% | 20.7°C | 2351ft (717m) | 12.57v | 18 |
| 3641 | 15 Apr 06:22:59 | 6 | 7.4 mph | 10 | SSW (202°) | 99646 | 101795 | 25°C | 77.1% | 20.7°C | 2351ft (717m) | 12.57v | 18 |
| 3640 | 15 Apr 06:22:48 | 7 | 8.1 mph | 10 | SW (214°) | 99646 | 101795 | 25°C | 77% | 20.7°C | 2359ft (719m) | 12.59v | 16 |
| 3639 | 15 Apr 06:22:36 | 7 | 8.8 mph | 11 | SSW (208°) | 99649 | 101798 | 25°C | 77% | 20.7°C | 2359ft (719m) | 12.57v | 16 |
| 3638 | 15 Apr 06:22:25 | 9 | 9.4 mph | 11 | SSW (206°) | 99647 | 101796 | 25°C | 76.9% | 20.7°C | 2368ft (722m) | 12.58v | 16 |
| 3637 | 15 Apr 06:22:14 | 7 | 7.3 mph | 8 | SSW (212°) | 99648 | 101797 | 25°C | 77% | 20.7°C | 2359ft (719m) | 12.57v | 16 |
| 3636 | 15 Apr 06:22:03 | 8 | 8.8 mph | 10 | SSW (207°) | 99650 | 101799 | 25°C | 77% | 20.7°C | 2359ft (719m) | 12.59v | 16 |
| 3635 | 15 Apr 06:21:51 | 8 | 8.9 mph | 11 | SSW (205°) | 99647 | 101796 | 25°C | 76.9% | 20.7°C | 2368ft (722m) | 12.56v | 16 |
| 3634 | 15 Apr 06:21:40 | 9 | 10.8 mph | 13 | SSW (203°) | 99648 | 101797 | 25°C | 76.7% | 20.6°C | 2385ft (727m) | 12.56v | 15 |
| 3633 | 15 Apr 06:21:29 | 8 | 8.4 mph | 10 | SSW (207°) | 99647 | 101796 | 25°C | 76.9% | 20.7°C | 2368ft (722m) | 12.58v | 16 |
| 3632 | 15 Apr 06:21:18 | 8 | 8.5 mph | 10 | SSW (204°) | 99650 | 101799 | 25°C | 76.8% | 20.6°C | 2377ft (725m) | 12.59v | 16 |
| 3631 | 15 Apr 06:21:07 | 6 | 8.5 mph | 10 | SSW (198°) | 99653 | 101803 | 25°C | 76.9% | 20.7°C | 2368ft (722m) | 12.57v | 17 |
| 3630 | 15 Apr 06:20:56 | 5 | 7.3 mph | 10 | SSW (209°) | 99649 | 101798 | 25°C | 76.9% | 20.7°C | 2368ft (722m) | 12.57v | 17 |
| 3629 | 15 Apr 06:20:45 | 7 | 8.1 mph | 10 | SSW (207°) | 99643 | 101792 | 25°C | 76.9% | 20.7°C | 2368ft (722m) | 12.57v | 15 |
| 3628 | 15 Apr 06:20:33 | 5 | 6.9 mph | 9 | SSW (206°) | 99650 | 101799 | 25°C | 77% | 20.7°C | 2359ft (719m) | 12.58v | 16 |
| 3627 | 15 Apr 06:20:22 | 8 | 9.9 mph | 13 | S (191°) | 99648 | 101797 | 25°C | 76.9% | 20.7°C | 2368ft (722m) | 12.58v | 18 |
| 3626 | 15 Apr 06:20:11 | 6 | 8.6 mph | 12 | SSW (203°) | 99648 | 101797 | 25°C | 77% | 20.7°C | 2359ft (719m) | 12.57v | 15 |
| 3625 | 15 Apr 06:20:00 | 8 | 8.6 mph | 10 | S (190°) | 99648 | 101797 | 25°C | 77% | 20.7°C | 2359ft (719m) | 12.58v | 17 |
| 3624 | 15 Apr 06:19:48 | 7 | 7.5 mph | 9 | SSW (205°) | 99644 | 101793 | 25°C | 77% | 20.7°C | 2359ft (719m) | 12.59v | 16 |
| 3623 | 15 Apr 06:19:37 | 8 | 9.1 mph | 11 | SSW (212°) | 99644 | 101793 | 25°C | 76.9% | 20.7°C | 2368ft (722m) | 12.57v | 17 |
| 3622 | 15 Apr 06:19:26 | 8 | 8 mph | 9 | SSW (207°) | 99646 | 101795 | 25°C | 77% | 20.7°C | 2359ft (719m) | 12.59v | 17 |
| 3621 | 15 Apr 06:19:15 | 7 | 8.1 mph | 9 | SSW (211°) | 99644 | 101793 | 25°C | 77.1% | 20.7°C | 2351ft (717m) | 12.57v | 18 |
| 3620 | 15 Apr 06:19:03 | 8 | 9.2 mph | 11 | SSW (201°) | 99642 | 101791 | 25°C | 77% | 20.7°C | 2359ft (719m) | 12.57v | 16 |
| 3619 | 15 Apr 06:18:52 | 6 | 6.6 mph | 10 | SSW (196°) | 99641 | 101790 | 25°C | 77% | 20.7°C | 2359ft (719m) | 12.57v | 16 |
| 3618 | 15 Apr 06:18:41 | 7 | 7.5 mph | 9 | S (186°) | 99644 | 101793 | 25°C | 77% | 20.7°C | 2359ft (719m) | 12.56v | 18 |
| 3617 | 15 Apr 06:18:30 | 6 | 7.5 mph | 9 | SSW (211°) | 99643 | 101792 | 25°C | 76.9% | 20.7°C | 2368ft (722m) | 12.58v | 16 |
| 3616 | 15 Apr 06:18:18 | 6 | 7.3 mph | 9 | SSW (205°) | 99642 | 101791 | 25°C | 76.9% | 20.7°C | 2368ft (722m) | 12.57v | 16 |
| 3615 | 15 Apr 06:18:07 | 8 | 9.5 mph | 12 | SSW (203°) | 99642 | 101791 | 25°C | 76.9% | 20.7°C | 2368ft (722m) | 12.58v | 16 |
| 3614 | 15 Apr 06:17:55 | 9 | 9.5 mph | 10 | SSW (198°) | 99640 | 101789 | 25°C | 76.9% | 20.7°C | 2368ft (722m) | 12.58v | 15 |
| 3613 | 15 Apr 06:17:44 | 9 | 10 mph | 12 | SSW (205°) | 99639 | 101788 | 25°C | 76.9% | 20.7°C | 2368ft (722m) | 12.59v | 16 |
| 3612 | 15 Apr 06:17:33 | 7 | 7.7 mph | 9 | SSW (198°) | 99637 | 101786 | 25°C | 76.9% | 20.7°C | 2368ft (722m) | 12.58v | 16 |
| 3611 | 15 Apr 06:17:22 | 7 | 7.4 mph | 8 | SSW (205°) | 99641 | 101790 | 25°C | 76.9% | 20.7°C | 2368ft (722m) | 12.57v | 18 |
| 3610 | 15 Apr 06:17:10 | 8 | 8.5 mph | 10 | SW (219°) | 99638 | 101787 | 25°C | 76.8% | 20.6°C | 2377ft (725m) | 12.57v | 15 |
| 3609 | 15 Apr 06:16:59 | 6 | 7.2 mph | 10 | SW (215°) | 99636 | 101785 | 25°C | 76.8% | 20.6°C | 2377ft (725m) | 12.57v | 16 |
| 3608 | 15 Apr 06:16:48 | 8 | 8.7 mph | 10 | SSW (207°) | 99637 | 101786 | 25°C | 76.9% | 20.7°C | 2368ft (722m) | 12.58v | 16 |
| 3607 | 15 Apr 06:16:37 | 6 | 8.3 mph | 9 | SSW (201°) | 99635 | 101784 | 25°C | 76.9% | 20.7°C | 2368ft (722m) | 12.57v | 16 |
| 3606 | 15 Apr 06:16:25 | 8 | 9.7 mph | 11 | SSW (197°) | 99638 | 101787 | 25°C | 76.8% | 20.6°C | 2377ft (725m) | 12.57v | 18 |
| 3605 | 15 Apr 06:16:14 | 7 | 8.3 mph | 9 | SW (214°) | 99640 | 101789 | 25°C | 76.7% | 20.6°C | 2385ft (727m) | 12.58v | 16 |
| 3604 | 15 Apr 06:16:03 | 7 | 8.4 mph | 9 | SSW (211°) | 99635 | 101784 | 25°C | 76.7% | 20.6°C | 2385ft (727m) | 12.59v | 18 |
| 3603 | 15 Apr 06:15:52 | 6 | 8.2 mph | 9 | SSW (198°) | 99637 | 101786 | 25°C | 76.8% | 20.6°C | 2377ft (725m) | 12.57v | 15 |
| 3602 | 15 Apr 06:15:40 | 9 | 10 mph | 11 | SW (216°) | 99635 | 101784 | 25°C | 76.8% | 20.6°C | 2377ft (725m) | 12.58v | 16 |
| 3601 | 15 Apr 06:15:29 | 7 | 8.2 mph | 10 | SSW (212°) | 99639 | 101788 | 25°C | 76.9% | 20.7°C | 2368ft (722m) | 12.57v | 18 |
| 3600 | 15 Apr 06:15:18 | 5 | 5.5 mph | 6 | SSW (211°) | 99636 | 101785 | 25°C | 76.8% | 20.6°C | 2377ft (725m) | 12.56v | 17 |
| 3599 | 15 Apr 06:15:07 | 6 | 6.4 mph | 7 | SW (217°) | 99640 | 101789 | 25°C | 76.8% | 20.6°C | 2377ft (725m) | 12.58v | 16 |
| 3598 | 15 Apr 06:14:55 | 7 | 8.2 mph | 10 | SSW (205°) | 99638 | 101787 | 25°C | 76.7% | 20.6°C | 2385ft (727m) | 12.57v | 16 |
| 3597 | 15 Apr 06:14:44 | 8 | 8.9 mph | 10 | SSW (206°) | 99638 | 101787 | 25°C | 76.6% | 20.6°C | 2394ft (730m) | 12.58v | 16 |
| 3596 | 15 Apr 06:14:33 | 8 | 9.8 mph | 12 | SSW (198°) | 99637 | 101786 | 25°C | 76.6% | 20.6°C | 2394ft (730m) | 12.58v | 15 |
| 3595 | 15 Apr 06:14:22 | 8 | 9.9 mph | 12 | SSW (206°) | 99636 | 101785 | 25°C | 76.5% | 20.6°C | 2403ft (732m) | 12.58v | 15 |
| 3594 | 15 Apr 06:14:10 | 7 | 7.4 mph | 9 | SSW (200°) | 99638 | 101787 | 25°C | 76.6% | 20.6°C | 2394ft (730m) | 12.57v | 18 |
| 3593 | 15 Apr 06:13:59 | 8 | 9 mph | 10 | SW (214°) | 99633 | 101782 | 25°C | 76.7% | 20.6°C | 2385ft (727m) | 12.56v | 15 |
| 3592 | 15 Apr 06:13:48 | 8 | 8.7 mph | 10 | SSW (194°) | 99635 | 101784 | 25°C | 76.5% | 20.6°C | 2403ft (732m) | 12.56v | 17 |
| 3591 | 15 Apr 06:13:37 | 8 | 8.7 mph | 9 | SW (216°) | 99636 | 101785 | 25°C | 76.7% | 20.6°C | 2385ft (727m) | 12.59v | 16 |
| 3590 | 15 Apr 06:13:25 | 5 | 6.4 mph | 9 | SSW (198°) | 99637 | 101786 | 25.1°C | 76.7% | 20.7°C | 2387ft (728m) | 12.58v | 16 |
| 3589 | 15 Apr 06:13:14 | 7 | 8.6 mph | 10 | SSW (202°) | 99633 | 101782 | 25.1°C | 76.5% | 20.7°C | 2404ft (733m) | 12.58v | 17 |
| 3588 | 15 Apr 06:13:03 | 9 | 9.9 mph | 12 | SSW (194°) | 99635 | 101784 | 25.1°C | 76.5% | 20.7°C | 2404ft (733m) | 12.58v | 17 |
| 3587 | 15 Apr 06:12:52 | 9 | 9.7 mph | 11 | SSW (212°) | 99635 | 101784 | 25.1°C | 76.4% | 20.7°C | 2413ft (735m) | 12.58v | 16 |
| 3586 | 15 Apr 06:12:40 | 8 | 8.3 mph | 9 | S (188°) | 99632 | 101781 | 25.1°C | 76.4% | 20.7°C | 2413ft (735m) | 12.57v | 16 |
| 3585 | 15 Apr 06:12:29 | 6 | 7.5 mph | 9 | SSW (203°) | 99638 | 101787 | 25.1°C | 76.5% | 20.7°C | 2404ft (733m) | 12.57v | 16 |
| 3584 | 15 Apr 06:12:18 | 5 | 5.3 mph | 6 | SW (214°) | 99633 | 101782 | 25.1°C | 76.6% | 20.7°C | 2396ft (730m) | 12.56v | 15 |
| 3583 | 15 Apr 06:12:07 | 6 | 6.8 mph | 9 | SSW (208°) | 99633 | 101782 | 25.1°C | 76.6% | 20.7°C | 2396ft (730m) | 12.58v | 15 |
| 3582 | 15 Apr 06:11:55 | 7 | 8.7 mph | 11 | SSW (201°) | 99634 | 101783 | 25.1°C | 76.4% | 20.7°C | 2413ft (735m) | 12.57v | 16 |
| 3581 | 15 Apr 06:11:44 | 8 | 9.6 mph | 11 | SSW (198°) | 99634 | 101783 | 25.1°C | 76.3% | 20.6°C | 2422ft (738m) | 12.57v | 15 |
| 3580 | 15 Apr 06:11:33 | 5 | 5.3 mph | 6 | SSW (207°) | 99634 | 101783 | 25.1°C | 76.5% | 20.7°C | 2404ft (733m) | 12.58v | 17 |
| 3579 | 15 Apr 06:11:22 | 5 | 6 mph | 7 | SSW (213°) | 99634 | 101783 | 25.1°C | 76.4% | 20.7°C | 2413ft (735m) | 12.57v | 17 |
| 3578 | 15 Apr 06:11:10 | 6 | 6.2 mph | 7 | SW (217°) | 99633 | 101782 | 25.1°C | 76.4% | 20.7°C | 2413ft (735m) | 12.58v | 17 |
| 3577 | 15 Apr 06:10:59 | 7 | 7.9 mph | 9 | SW (216°) | 99632 | 101781 | 25.1°C | 76.3% | 20.6°C | 2422ft (738m) | 12.56v | 16 |
| 3576 | 15 Apr 06:10:48 | 5 | 7 mph | 8 | SSW (207°) | 99628 | 101777 | 25.1°C | 76.3% | 20.6°C | 2422ft (738m) | 12.57v | 16 |
| 3575 | 15 Apr 06:10:37 | 5 | 6.1 mph | 9 | SSW (212°) | 99632 | 101781 | 25.1°C | 76.2% | 20.6°C | 2430ft (741m) | 12.57v | 16 |
| 3574 | 15 Apr 06:10:25 | 7 | 7.3 mph | 9 | SSW (207°) | 99630 | 101779 | 25.1°C | 76.2% | 20.6°C | 2430ft (741m) | 12.57v | 16 |
| 3573 | 15 Apr 06:10:14 | 6 | 7.8 mph | 10 | SSW (192°) | 99630 | 101779 | 25.1°C | 76.1% | 20.6°C | 2439ft (743m) | 12.57v | 16 |
| 3572 | 15 Apr 06:10:03 | 6 | 7.5 mph | 9 | SSW (205°) | 99632 | 101781 | 25.1°C | 76.1% | 20.6°C | 2439ft (743m) | 12.57v | 18 |
| 3571 | 15 Apr 06:09:52 | 7 | 7.7 mph | 9 | SSW (203°) | 99632 | 101781 | 25.1°C | 76.1% | 20.6°C | 2439ft (743m) | 12.58v | 16 |
| 3570 | 15 Apr 06:09:40 | 5 | 6.6 mph | 9 | SW (215°) | 99633 | 101782 | 25.1°C | 76.1% | 20.6°C | 2439ft (743m) | 12.57v | 17 |
| 3569 | 15 Apr 06:09:29 | 8 | 8.9 mph | 10 | SSW (201°) | 99629 | 101778 | 25.1°C | 76% | 20.6°C | 2448ft (746m) | 12.58v | 15 |
| 3568 | 15 Apr 06:09:18 | 6 | 7.1 mph | 10 | SSW (211°) | 99625 | 101774 | 25.1°C | 76.2% | 20.6°C | 2430ft (741m) | 12.57v | 16 |
| 3567 | 15 Apr 06:09:06 | 8 | 8.3 mph | 9 | SSW (209°) | 99628 | 101777 | 25.1°C | 76.1% | 20.6°C | 2439ft (743m) | 12.58v | 15 |
| 3566 | 15 Apr 06:08:55 | 7 | 7.6 mph | 9 | SSW (200°) | 99628 | 101777 | 25.1°C | 76.1% | 20.6°C | 2439ft (743m) | 12.59v | 18 |
| 3565 | 15 Apr 06:08:44 | 7 | 8.6 mph | 10 | SSW (200°) | 99628 | 101777 | 25.1°C | 76% | 20.6°C | 2448ft (746m) | 12.58v | 15 |
| 3564 | 15 Apr 06:08:33 | 5 | 6.4 mph | 8 | SSW (205°) | 99629 | 101778 | 25.1°C | 76.1% | 20.6°C | 2439ft (743m) | 12.57v | 15 |
| 3563 | 15 Apr 06:08:21 | 5 | 5.8 mph | 6 | SW (216°) | 99628 | 101777 | 25.1°C | 76.1% | 20.6°C | 2439ft (743m) | 12.57v | 15 |
| 3562 | 15 Apr 06:08:10 | 6 | 6.6 mph | 8 | SSW (210°) | 99627 | 101776 | 25.1°C | 76.1% | 20.6°C | 2439ft (743m) | 12.59v | 18 |
| 3561 | 15 Apr 06:07:59 | 8 | 8.9 mph | 10 | SSW (200°) | 99629 | 101778 | 25.1°C | 76.1% | 20.6°C | 2439ft (743m) | 12.56v | 16 |
| 3560 | 15 Apr 06:07:48 | 8 | 10.2 mph | 12 | SSW (199°) | 99627 | 101776 | 25.1°C | 76% | 20.6°C | 2448ft (746m) | 12.56v | 15 |
| 3559 | 15 Apr 06:07:36 | 7 | 7.4 mph | 9 | SSW (203°) | 99627 | 101776 | 25.1°C | 76.2% | 20.6°C | 2430ft (741m) | 12.58v | 18 |
| 3558 | 15 Apr 06:07:25 | 8 | 8.8 mph | 11 | SSW (206°) | 99627 | 101776 | 25.1°C | 76.1% | 20.6°C | 2439ft (743m) | 12.59v | 17 |
| 3557 | 15 Apr 06:07:14 | 8 | 9.9 mph | 12 | SSW (203°) | 99623 | 101772 | 25.1°C | 76.2% | 20.6°C | 2430ft (741m) | 12.59v | 15 |
| 3556 | 15 Apr 06:07:03 | 8 | 8.8 mph | 10 | SSW (197°) | 99626 | 101775 | 25.1°C | 76.1% | 20.6°C | 2439ft (743m) | 12.55v | 15 |
| 3555 | 15 Apr 06:06:51 | 7 | 8.7 mph | 11 | SW (216°) | 99625 | 101774 | 25.1°C | 76.2% | 20.6°C | 2430ft (741m) | 12.58v | 15 |
| 3554 | 15 Apr 06:06:40 | 7 | 8.5 mph | 10 | SW (216°) | 99622 | 101771 | 25.1°C | 76.1% | 20.6°C | 2439ft (743m) | 12.57v | 15 |
| 3553 | 15 Apr 06:06:29 | 6 | 6.9 mph | 9 | SW (216°) | 99620 | 101769 | 25.1°C | 76.3% | 20.6°C | 2422ft (738m) | 12.57v | 15 |
| 3552 | 15 Apr 06:06:18 | 7 | 8.3 mph | 11 | SW (214°) | 99624 | 101773 | 25.1°C | 76.3% | 20.6°C | 2422ft (738m) | 12.58v | 15 |
| 3551 | 15 Apr 06:06:07 | 8 | 10.4 mph | 12 | SSW (194°) | 99623 | 101772 | 25.1°C | 76.2% | 20.6°C | 2430ft (741m) | 12.58v | 15 |
| 3550 | 15 Apr 06:05:55 | 6 | 7 mph | 8 | SSW (211°) | 99624 | 101773 | 25.1°C | 76.2% | 20.6°C | 2430ft (741m) | 12.59v | 16 |
| 3549 | 15 Apr 06:05:44 | 8 | 8.4 mph | 10 | SSW (205°) | 99621 | 101770 | 25.1°C | 76.3% | 20.6°C | 2422ft (738m) | 12.59v | 15 |
| 3548 | 15 Apr 06:05:33 | 6 | 7.7 mph | 9 | SSW (197°) | 99621 | 101770 | 25.1°C | 76.3% | 20.6°C | 2422ft (738m) | 12.57v | 17 |
| 3547 | 15 Apr 06:05:22 | 7 | 8 mph | 11 | SSW (199°) | 99623 | 101772 | 25.1°C | 76.3% | 20.6°C | 2422ft (738m) | 12.58v | 16 |
| 3546 | 15 Apr 06:05:10 | 8 | 9 mph | 11 | SSW (199°) | 99621 | 101770 | 25.1°C | 76.2% | 20.6°C | 2430ft (741m) | 12.59v | 16 |
| 3545 | 15 Apr 06:04:59 | 6 | 8.1 mph | 10 | SSW (202°) | 99618 | 101767 | 25.1°C | 76.2% | 20.6°C | 2430ft (741m) | 12.57v | 15 |
| 3544 | 15 Apr 06:04:48 | 8 | 9.5 mph | 11 | SSW (199°) | 99615 | 101764 | 25.1°C | 76.2% | 20.6°C | 2430ft (741m) | 12.58v | 16 |
| 3543 | 15 Apr 06:04:37 | 7 | 10.2 mph | 14 | SSW (211°) | 99618 | 101767 | 25.1°C | 76.3% | 20.6°C | 2422ft (738m) | 12.58v | 16 |
| 3542 | 15 Apr 06:04:25 | 8 | 10.5 mph | 14 | SSW (213°) | 99614 | 101763 | 25.1°C | 76.3% | 20.6°C | 2422ft (738m) | 12.58v | 16 |
| 3541 | 15 Apr 06:04:14 | 6 | 6.3 mph | 7 | SW (215°) | 99616 | 101765 | 25.1°C | 76.5% | 20.7°C | 2404ft (733m) | 12.58v | 15 |
| 3540 | 15 Apr 06:04:03 | 7 | 7.5 mph | 9 | SSW (212°) | 99615 | 101764 | 25.1°C | 76.3% | 20.6°C | 2422ft (738m) | 12.59v | 16 |
| 3539 | 15 Apr 06:03:52 | 8 | 8.8 mph | 10 | SSW (206°) | 99616 | 101765 | 25°C | 76.3% | 20.5°C | 2420ft (738m) | 12.58v | 16 |
| 3538 | 15 Apr 06:03:40 | 8 | 8.1 mph | 9 | SSW (207°) | 99616 | 101765 | 25°C | 76.4% | 20.6°C | 2412ft (735m) | 12.58v | 15 |
| 3537 | 15 Apr 06:03:29 | 9 | 9.1 mph | 10 | SSW (192°) | 99614 | 101763 | 25°C | 76.5% | 20.6°C | 2403ft (732m) | 12.57v | 15 |
| 3536 | 15 Apr 06:03:18 | 9 | 10.1 mph | 12 | SSW (212°) | 99616 | 101765 | 25°C | 76.4% | 20.6°C | 2412ft (735m) | 12.57v | 17 |
| 3535 | 15 Apr 06:03:07 | 9 | 10.1 mph | 11 | SSW (204°) | 99613 | 101762 | 25°C | 76.4% | 20.6°C | 2412ft (735m) | 12.57v | 15 |
| 3534 | 15 Apr 06:02:56 | 11 | 12.4 mph | 14 | SSW (200°) | 99611 | 101760 | 25°C | 76.4% | 20.6°C | 2412ft (735m) | 12.59v | 18 |
| 3533 | 15 Apr 06:02:45 | 9 | 9.4 mph | 10 | SSW (198°) | 99609 | 101758 | 25°C | 76.3% | 20.5°C | 2420ft (738m) | 12.58v | 15 |
| 3532 | 15 Apr 06:02:33 | 8 | 9.7 mph | 11 | SSW (209°) | 99609 | 101758 | 25°C | 76.4% | 20.6°C | 2412ft (735m) | 12.59v | 16 |
| 3531 | 15 Apr 06:02:22 | 6 | 7.3 mph | 8 | SSW (212°) | 99610 | 101759 | 25°C | 76.5% | 20.6°C | 2403ft (732m) | 12.58v | 15 |
| 3530 | 15 Apr 06:02:11 | 7 | 8.5 mph | 10 | SSW (192°) | 99608 | 101757 | 25°C | 76.4% | 20.6°C | 2412ft (735m) | 12.58v | 15 |
| 3529 | 15 Apr 06:02:00 | 8 | 9.5 mph | 12 | SSW (206°) | 99608 | 101757 | 25°C | 76.3% | 20.5°C | 2420ft (738m) | 12.58v | 15 |
| 3528 | 15 Apr 06:01:48 | 7 | 8.5 mph | 10 | SSW (194°) | 99605 | 101753 | 25.1°C | 76.4% | 20.7°C | 2413ft (735m) | 12.58v | 16 |
| 3527 | 15 Apr 06:01:37 | 5 | 6.9 mph | 9 | SSW (209°) | 99610 | 101759 | 25°C | 76.5% | 20.6°C | 2403ft (732m) | 12.58v | 17 |
| 3526 | 15 Apr 06:01:26 | 5 | 5.8 mph | 6 | SSW (209°) | 99609 | 101758 | 25°C | 76.5% | 20.6°C | 2403ft (732m) | 12.58v | 16 |
| 3525 | 15 Apr 06:01:15 | 7 | 8.1 mph | 9 | SW (219°) | 99608 | 101757 | 25°C | 76.4% | 20.6°C | 2412ft (735m) | 12.58v | 16 |
| 3524 | 15 Apr 06:01:03 | 8 | 8.3 mph | 9 | SSW (212°) | 99605 | 101753 | 25°C | 76.4% | 20.6°C | 2412ft (735m) | 12.58v | 16 |
| 3523 | 15 Apr 06:00:52 | 7 | 8.1 mph | 10 | SSW (208°) | 99605 | 101753 | 25°C | 76.5% | 20.6°C | 2403ft (732m) | 12.59v | 18 |
| 3522 | 15 Apr 06:00:41 | 9 | 9.6 mph | 11 | SSW (211°) | 99605 | 101753 | 25°C | 76.5% | 20.6°C | 2403ft (732m) | 12.58v | 17 |
| 3521 | 15 Apr 06:00:30 | 7 | 9.1 mph | 11 | SSW (207°) | 99608 | 101757 | 25°C | 76.4% | 20.6°C | 2412ft (735m) | 12.57v | 16 |
| 3520 | 15 Apr 06:00:18 | 8 | 8.9 mph | 11 | SSW (202°) | 99603 | 101751 | 25°C | 76.6% | 20.6°C | 2394ft (730m) | 12.57v | 16 |
| 3519 | 15 Apr 06:00:06 | 7 | 7.6 mph | 9 | SSW (213°) | 99601 | 101749 | 25°C | 76.6% | 20.6°C | 2394ft (730m) | 12.58v | 16 |
| 3518 | 15 Apr 05:59:55 | 6 | 7.7 mph | 9 | SSW (211°) | 99603 | 101751 | 25°C | 76.6% | 20.6°C | 2394ft (730m) | 12.59v | 16 |
| 3517 | 15 Apr 05:59:44 | 7 | 7.5 mph | 8 | SSW (212°) | 99605 | 101753 | 25°C | 76.6% | 20.6°C | 2394ft (730m) | 12.58v | 15 |
| 3516 | 15 Apr 05:59:33 | 7 | 7.9 mph | 10 | SSW (212°) | 99604 | 101752 | 24.9°C | 76.7% | 20.5°C | 2384ft (727m) | 12.59v | 15 |
| 3515 | 15 Apr 05:59:21 | 6 | 7.5 mph | 9 | SSW (201°) | 99604 | 101752 | 25°C | 76.8% | 20.6°C | 2377ft (725m) | 12.58v | 16 |
| 3514 | 15 Apr 05:59:10 | 6 | 7.7 mph | 9 | SSW (205°) | 99603 | 101751 | 24.9°C | 76.7% | 20.5°C | 2384ft (727m) | 12.58v | 15 |
| 3513 | 15 Apr 05:58:59 | 7 | 9.5 mph | 12 | SW (216°) | 99602 | 101750 | 24.9°C | 76.7% | 20.5°C | 2384ft (727m) | 12.58v | 15 |
| 3512 | 15 Apr 05:58:48 | 7 | 9.5 mph | 12 | SSW (202°) | 99602 | 101750 | 24.9°C | 76.6% | 20.5°C | 2393ft (729m) | 12.57v | 18 |
| 3511 | 15 Apr 05:58:36 | 7 | 8.2 mph | 11 | SW (216°) | 99603 | 101751 | 25°C | 76.7% | 20.6°C | 2385ft (727m) | 12.57v | 16 |
| 3510 | 15 Apr 05:58:25 | 6 | 6.8 mph | 8 | SSW (209°) | 99603 | 101751 | 24.9°C | 76.7% | 20.5°C | 2384ft (727m) | 12.59v | 15 |
| 3509 | 15 Apr 05:58:14 | 7 | 8.9 mph | 11 | SSW (209°) | 99603 | 101751 | 24.9°C | 76.8% | 20.5°C | 2375ft (724m) | 12.58v | 17 |
| 3508 | 15 Apr 05:58:03 | 7 | 8.5 mph | 9 | SSW (201°) | 99600 | 101748 | 24.9°C | 76.9% | 20.6°C | 2367ft (721m) | 12.59v | 16 |
| 3507 | 15 Apr 05:57:51 | 7 | 8.5 mph | 11 | SSW (204°) | 99603 | 101751 | 24.9°C | 76.8% | 20.5°C | 2375ft (724m) | 12.59v | 15 |
| 3506 | 15 Apr 05:57:40 | 6 | 7.8 mph | 9 | SW (214°) | 99605 | 101753 | 24.9°C | 77% | 20.6°C | 2358ft (719m) | 12.58v | 19 |
| 3505 | 15 Apr 05:57:29 | 6 | 8.3 mph | 11 | SSW (201°) | 99602 | 101750 | 24.8°C | 77.1% | 20.5°C | 2348ft (716m) | 12.58v | 15 |
| 3504 | 15 Apr 05:57:18 | 7 | 8 mph | 10 | SSW (203°) | 99602 | 101750 | 24.8°C | 77% | 20.5°C | 2357ft (718m) | 12.57v | 17 |
| 3503 | 15 Apr 05:57:07 | 11 | 11 mph | 12 | SSW (203°) | 99600 | 101748 | 24.8°C | 77.1% | 20.5°C | 2348ft (716m) | 12.58v | 15 |
| 3502 | 15 Apr 05:56:56 | 10 | 10.7 mph | 12 | SSW (198°) | 99597 | 101745 | 24.8°C | 77.1% | 20.5°C | 2348ft (716m) | 12.56v | 15 |
| 3501 | 15 Apr 05:56:45 | 9 | 10.7 mph | 12 | SSW (203°) | 99599 | 101747 | 24.8°C | 77.1% | 20.5°C | 2348ft (716m) | 12.59v | 15 |
| 3500 | 15 Apr 05:56:33 | 11 | 11 mph | 12 | SSW (201°) | 99600 | 101748 | 24.8°C | 77.1% | 20.5°C | 2348ft (716m) | 12.59v | 16 |
| 3499 | 15 Apr 05:56:22 | 8 | 9.2 mph | 12 | SSW (206°) | 99600 | 101748 | 24.8°C | 77.1% | 20.5°C | 2348ft (716m) | 12.58v | 16 |
| 3498 | 15 Apr 05:56:11 | 9 | 10.6 mph | 13 | SSW (212°) | 99599 | 101747 | 24.8°C | 77.1% | 20.5°C | 2348ft (716m) | 12.59v | 16 |
| 3497 | 15 Apr 05:56:00 | 8 | 9.2 mph | 11 | SSW (205°) | 99594 | 101742 | 24.8°C | 77.1% | 20.5°C | 2348ft (716m) | 12.59v | 16 |
| 3496 | 15 Apr 05:55:48 | 6 | 8.9 mph | 11 | SSW (203°) | 99600 | 101748 | 24.8°C | 77.2% | 20.5°C | 2340ft (713m) | 12.58v | 16 |
| 3495 | 15 Apr 05:55:37 | 8 | 9.2 mph | 11 | SSW (201°) | 99597 | 101745 | 24.8°C | 77.1% | 20.5°C | 2348ft (716m) | 12.58v | 16 |
| 3494 | 15 Apr 05:55:26 | 12 | 13.3 mph | 15 | SSW (207°) | 99597 | 101745 | 24.8°C | 77.1% | 20.5°C | 2348ft (716m) | 12.58v | 17 |
| 3493 | 15 Apr 05:55:15 | 10 | 11.5 mph | 13 | S (190°) | 99588 | 101736 | 24.8°C | 77% | 20.5°C | 2357ft (718m) | 12.58v | 15 |
| 3492 | 15 Apr 05:55:03 | 8 | 9 mph | 10 | SSW (198°) | 99599 | 101747 | 24.8°C | 77.1% | 20.5°C | 2348ft (716m) | 12.59v | 16 |
| 3491 | 15 Apr 05:54:52 | 7 | 8.5 mph | 10 | SSW (204°) | 99600 | 101748 | 24.8°C | 77.1% | 20.5°C | 2348ft (716m) | 12.59v | 16 |
| 3490 | 15 Apr 05:54:41 | 8 | 8.4 mph | 10 | SSW (203°) | 99597 | 101745 | 24.8°C | 77.1% | 20.5°C | 2348ft (716m) | 12.59v | 16 |
| 3489 | 15 Apr 05:54:30 | 8 | 9.4 mph | 12 | SSW (213°) | 99598 | 101746 | 24.8°C | 77.1% | 20.5°C | 2348ft (716m) | 12.58v | 16 |
| 3488 | 15 Apr 05:54:18 | 8 | 8.9 mph | 10 | SSW (205°) | 99594 | 101742 | 24.8°C | 77.3% | 20.6°C | 2331ft (710m) | 12.59v | 31 |
| 3487 | 15 Apr 05:54:07 | 7 | 8.3 mph | 10 | SSW (202°) | 99598 | 101746 | 24.8°C | 77.2% | 20.5°C | 2340ft (713m) | 12.59v | 31 |
| 3486 | 15 Apr 05:53:55 | 8 | 9.5 mph | 11 | SSW (193°) | 99597 | 101745 | 24.8°C | 77.3% | 20.6°C | 2331ft (710m) | 12.58v | 31 |
| 3485 | 15 Apr 05:53:44 | 7 | 7.8 mph | 9 | SW (215°) | 99600 | 101748 | 24.8°C | 77.4% | 20.6°C | 2322ft (708m) | 12.6v | 31 |
| 3484 | 15 Apr 05:53:33 | 9 | 9.6 mph | 11 | SSW (201°) | 99597 | 101745 | 24.8°C | 77.4% | 20.6°C | 2322ft (708m) | 12.59v | 31 |
| 3483 | 15 Apr 05:53:22 | 10 | 12.2 mph | 14 | S (188°) | 99601 | 101749 | 24.8°C | 77.3% | 20.6°C | 2331ft (710m) | 12.6v | 31 |
| 3482 | 15 Apr 05:53:10 | 11 | 11.1 mph | 12 | S (189°) | 99591 | 101739 | 24.8°C | 77.3% | 20.6°C | 2331ft (710m) | 12.59v | 31 |
| 3481 | 15 Apr 05:52:59 | 9 | 10.8 mph | 14 | SSW (195°) | 99597 | 101745 | 24.8°C | 77.2% | 20.5°C | 2340ft (713m) | 12.58v | 31 |
| 3480 | 15 Apr 05:52:48 | 7 | 8.7 mph | 10 | SSW (211°) | 99596 | 101744 | 24.8°C | 77.3% | 20.6°C | 2331ft (710m) | 12.58v | 31 |
| 3479 | 15 Apr 05:52:37 | 8 | 10.8 mph | 15 | SSW (198°) | 99592 | 101740 | 24.7°C | 77.3% | 20.5°C | 2330ft (710m) | 12.58v | 31 |
| 3478 | 15 Apr 05:52:25 | 8 | 8.4 mph | 9 | SSW (213°) | 99594 | 101742 | 24.7°C | 77.4% | 20.5°C | 2321ft (707m) | 12.58v | 31 |
| 3477 | 15 Apr 05:52:14 | 9 | 10.7 mph | 12 | SSW (200°) | 99593 | 101741 | 24.7°C | 77.4% | 20.5°C | 2321ft (707m) | 12.58v | 31 |
| 3476 | 15 Apr 05:52:03 | 7 | 8.6 mph | 12 | SSW (208°) | 99598 | 101746 | 24.7°C | 77.5% | 20.5°C | 2312ft (705m) | 12.6v | 31 |
| 3475 | 15 Apr 05:51:52 | 11 | 11.7 mph | 13 | SSW (203°) | 99591 | 101739 | 24.7°C | 77.5% | 20.5°C | 2312ft (705m) | 12.59v | 31 |
| 3474 | 15 Apr 05:51:40 | 8 | 9.5 mph | 11 | SSW (192°) | 99592 | 101740 | 24.7°C | 77.4% | 20.5°C | 2321ft (707m) | 12.59v | 31 |
| 3473 | 15 Apr 05:51:29 | 11 | 12.8 mph | 17 | SSW (207°) | 99597 | 101745 | 24.7°C | 77.4% | 20.5°C | 2321ft (707m) | 12.59v | 31 |
| 3472 | 15 Apr 05:51:18 | 11 | 12.5 mph | 14 | S (191°) | 99595 | 101743 | 24.7°C | 77.4% | 20.5°C | 2321ft (707m) | 12.59v | 31 |
| 3471 | 15 Apr 05:51:07 | 10 | 11.2 mph | 13 | SSW (209°) | 99595 | 101743 | 24.7°C | 77.5% | 20.5°C | 2312ft (705m) | 12.59v | 31 |
| 3470 | 15 Apr 05:50:55 | 10 | 12.1 mph | 14 | SSW (202°) | 99592 | 101740 | 24.7°C | 77.5% | 20.5°C | 2312ft (705m) | 12.58v | 31 |
| 3469 | 15 Apr 05:50:44 | 9 | 11.6 mph | 13 | SSW (195°) | 99593 | 101741 | 24.7°C | 77.4% | 20.5°C | 2321ft (707m) | 12.58v | 31 |
| 3468 | 15 Apr 05:50:33 | 7 | 8.1 mph | 10 | S (190°) | 99592 | 101740 | 24.7°C | 77.6% | 20.5°C | 2304ft (702m) | 12.61v | 31 |
| 3467 | 15 Apr 05:50:22 | 10 | 13.2 mph | 16 | SSW (205°) | 99596 | 101744 | 24.7°C | 77.4% | 20.5°C | 2321ft (707m) | 12.6v | 31 |
| 3466 | 15 Apr 05:50:10 | 11 | 11.8 mph | 13 | SSW (211°) | 99588 | 101736 | 24.7°C | 77.4% | 20.5°C | 2321ft (707m) | 12.6v | 31 |
| 3465 | 15 Apr 05:49:59 | 11 | 12.7 mph | 15 | SSW (208°) | 99595 | 101743 | 24.7°C | 77.4% | 20.5°C | 2321ft (707m) | 12.6v | 31 |
| 3464 | 15 Apr 05:49:48 | 10 | 11.4 mph | 14 | SSW (204°) | 99596 | 101744 | 24.7°C | 77.3% | 20.5°C | 2330ft (710m) | 12.59v | 31 |
| 3463 | 15 Apr 05:49:37 | 13 | 14 mph | 16 | S (184°) | 99593 | 101741 | 24.7°C | 77.3% | 20.5°C | 2330ft (710m) | 12.59v | 31 |
| 3462 | 15 Apr 05:49:25 | 10 | 11.2 mph | 13 | SSW (197°) | 99587 | 101735 | 24.8°C | 77.2% | 20.5°C | 2340ft (713m) | 12.58v | 31 |
| 3461 | 15 Apr 05:49:14 | 8 | 10.4 mph | 12 | SSW (205°) | 99593 | 101741 | 24.8°C | 77.2% | 20.5°C | 2340ft (713m) | 12.58v | 31 |
| 3460 | 15 Apr 05:49:03 | 8 | 8.7 mph | 10 | SSW (211°) | 99594 | 101742 | 24.8°C | 77.3% | 20.6°C | 2331ft (710m) | 12.61v | 31 |
| 3459 | 15 Apr 05:48:52 | 7 | 7.8 mph | 9 | SSW (204°) | 99596 | 101744 | 24.7°C | 77.4% | 20.5°C | 2321ft (707m) | 12.6v | 31 |
| 3458 | 15 Apr 05:48:40 | 7 | 10.2 mph | 14 | SSW (212°) | 99593 | 101741 | 24.7°C | 77.4% | 20.5°C | 2321ft (707m) | 12.59v | 31 |
| 3457 | 15 Apr 05:48:29 | 8 | 9.4 mph | 12 | SSW (207°) | 99589 | 101737 | 24.7°C | 77.5% | 20.5°C | 2312ft (705m) | 12.59v | 31 |
| 3456 | 15 Apr 05:48:18 | 7 | 9.9 mph | 14 | SSW (204°) | 99596 | 101744 | 24.7°C | 77.3% | 20.5°C | 2330ft (710m) | 12.58v | 31 |
| 3455 | 15 Apr 05:48:07 | 7 | 9.4 mph | 13 | SW (216°) | 99587 | 101735 | 24.8°C | 77.2% | 20.5°C | 2340ft (713m) | 12.57v | 31 |
| 3454 | 15 Apr 05:47:55 | 8 | 9.1 mph | 10 | SSW (202°) | 99593 | 101741 | 24.8°C | 77.1% | 20.5°C | 2348ft (716m) | 12.58v | 31 |
| 3453 | 15 Apr 05:47:44 | 8 | 9.9 mph | 12 | SSW (212°) | 99594 | 101742 | 24.8°C | 77.1% | 20.5°C | 2348ft (716m) | 12.58v | 31 |
| 3452 | 15 Apr 05:47:33 | 10 | 10 mph | 12 | SSW (205°) | 99591 | 101739 | 24.8°C | 77.1% | 20.5°C | 2348ft (716m) | 12.61v | 31 |
| 3451 | 15 Apr 05:47:22 | 9 | 10.2 mph | 12 | SSW (208°) | 99590 | 101738 | 24.8°C | 77.1% | 20.5°C | 2348ft (716m) | 12.61v | 31 |
| 3450 | 15 Apr 05:47:10 | 10 | 11.6 mph | 14 | SSW (194°) | 99587 | 101735 | 24.8°C | 77.1% | 20.5°C | 2348ft (716m) | 12.59v | 31 |
| 3449 | 15 Apr 05:46:59 | 8 | 9.3 mph | 11 | SSW (204°) | 99595 | 101743 | 24.8°C | 77.1% | 20.5°C | 2348ft (716m) | 12.59v | 31 |
| 3448 | 15 Apr 05:46:48 | 8 | 9.2 mph | 12 | SSW (210°) | 99593 | 101741 | 24.8°C | 77.2% | 20.5°C | 2340ft (713m) | 12.59v | 31 |
| 3447 | 15 Apr 05:46:37 | 8 | 10.1 mph | 12 | SSW (207°) | 99588 | 101736 | 24.8°C | 77.1% | 20.5°C | 2348ft (716m) | 12.59v | 31 |
| 3446 | 15 Apr 05:46:25 | 8 | 9.7 mph | 12 | SSW (203°) | 99587 | 101735 | 24.8°C | 77% | 20.5°C | 2357ft (718m) | 12.57v | 31 |
| 3445 | 15 Apr 05:46:14 | 7 | 8.3 mph | 9 | SSW (213°) | 99594 | 101742 | 24.8°C | 77.2% | 20.5°C | 2340ft (713m) | 12.57v | 31 |
| 3444 | 15 Apr 05:46:03 | 6 | 7.5 mph | 10 | SSW (198°) | 99591 | 101739 | 24.8°C | 77.2% | 20.5°C | 2340ft (713m) | 12.59v | 31 |
| 3443 | 15 Apr 05:45:52 | 8 | 9.7 mph | 11 | SSW (206°) | 99593 | 101741 | 24.8°C | 77.1% | 20.5°C | 2348ft (716m) | 12.6v | 31 |
| 3442 | 15 Apr 05:45:40 | 6 | 6.8 mph | 8 | SSW (209°) | 99596 | 101744 | 24.8°C | 77.2% | 20.5°C | 2340ft (713m) | 12.59v | 31 |
| 3441 | 15 Apr 05:45:29 | 7 | 7.8 mph | 9 | SSW (210°) | 99591 | 101739 | 24.8°C | 77.2% | 20.5°C | 2340ft (713m) | 12.59v | 31 |
| 3440 | 15 Apr 05:45:18 | 8 | 8.6 mph | 10 | SSW (196°) | 99591 | 101739 | 24.8°C | 77% | 20.5°C | 2357ft (718m) | 12.59v | 31 |
| 3439 | 15 Apr 05:45:07 | 8 | 8.9 mph | 10 | SSW (196°) | 99590 | 101738 | 24.8°C | 77.1% | 20.5°C | 2348ft (716m) | 12.58v | 31 |
| 3438 | 15 Apr 05:44:55 | 8 | 9.2 mph | 10 | SSW (205°) | 99588 | 101736 | 24.8°C | 77.1% | 20.5°C | 2348ft (716m) | 12.59v | 31 |
| 3437 | 15 Apr 05:44:44 | 9 | 10.2 mph | 11 | SSW (196°) | 99589 | 101737 | 24.8°C | 77.1% | 20.5°C | 2348ft (716m) | 12.59v | 31 |
| 3436 | 15 Apr 05:44:33 | 6 | 8.8 mph | 11 | SSW (204°) | 99586 | 101734 | 24.8°C | 77.1% | 20.5°C | 2348ft (716m) | 12.58v | 31 |
| 3435 | 15 Apr 05:44:22 | 6 | 6.3 mph | 8 | SSW (198°) | 99588 | 101736 | 24.8°C | 77.2% | 20.5°C | 2340ft (713m) | 12.59v | 31 |
| 3434 | 15 Apr 05:44:10 | 6 | 7 mph | 9 | SSW (206°) | 99586 | 101734 | 24.8°C | 77.2% | 20.5°C | 2340ft (713m) | 12.6v | 31 |
| 3433 | 15 Apr 05:43:59 | 8 | 8.2 mph | 9 | SSW (210°) | 99586 | 101734 | 24.8°C | 77.2% | 20.5°C | 2340ft (713m) | 12.6v | 31 |
| 3432 | 15 Apr 05:43:48 | 9 | 9.6 mph | 11 | SW (215°) | 99586 | 101734 | 24.8°C | 77.2% | 20.5°C | 2340ft (713m) | 12.6v | 31 |
| 3431 | 15 Apr 05:43:37 | 7 | 7.6 mph | 8 | SSW (211°) | 99588 | 101736 | 24.8°C | 77.2% | 20.5°C | 2340ft (713m) | 12.59v | 31 |
| 3430 | 15 Apr 05:43:25 | 8 | 8.7 mph | 9 | SSW (204°) | 99586 | 101734 | 24.8°C | 77% | 20.5°C | 2357ft (718m) | 12.59v | 31 |
| 3429 | 15 Apr 05:43:14 | 8 | 8.7 mph | 10 | SSW (199°) | 99586 | 101734 | 24.8°C | 77.1% | 20.5°C | 2348ft (716m) | 12.58v | 31 |
| 3428 | 15 Apr 05:43:03 | 9 | 10.2 mph | 12 | SSW (206°) | 99585 | 101733 | 24.8°C | 77% | 20.5°C | 2357ft (718m) | 12.59v | 31 |
| 3427 | 15 Apr 05:42:52 | 9 | 10 mph | 12 | SSW (202°) | 99586 | 101734 | 24.8°C | 77% | 20.5°C | 2357ft (718m) | 12.59v | 31 |
| 3426 | 15 Apr 05:42:40 | 8 | 9.3 mph | 11 | SSW (210°) | 99586 | 101734 | 24.8°C | 77% | 20.5°C | 2357ft (718m) | 12.6v | 31 |
| 3425 | 15 Apr 05:42:29 | 10 | 10.4 mph | 12 | SSW (205°) | 99583 | 101731 | 24.8°C | 77% | 20.5°C | 2357ft (718m) | 12.6v | 31 |
| 3424 | 15 Apr 05:42:18 | 9 | 9 mph | 10 | SSW (200°) | 99584 | 101732 | 24.8°C | 77% | 20.5°C | 2357ft (718m) | 12.59v | 31 |
| 3423 | 15 Apr 05:42:07 | 7 | 8.2 mph | 10 | SSW (206°) | 99584 | 101732 | 24.8°C | 77.1% | 20.5°C | 2348ft (716m) | 12.59v | 31 |
| 3422 | 15 Apr 05:41:55 | 7 | 8.3 mph | 9 | SSW (207°) | 99582 | 101730 | 24.8°C | 77.1% | 20.5°C | 2348ft (716m) | 12.59v | 31 |
| 3421 | 15 Apr 05:41:44 | 8 | 9.1 mph | 11 | SW (215°) | 99581 | 101729 | 24.8°C | 77% | 20.5°C | 2357ft (718m) | 12.59v | 31 |
| 3420 | 15 Apr 05:41:33 | 10 | 10.4 mph | 12 | SSW (203°) | 99578 | 101726 | 24.8°C | 77% | 20.5°C | 2357ft (718m) | 12.59v | 31 |
| 3419 | 15 Apr 05:41:22 | 9 | 10 mph | 11 | SW (214°) | 99579 | 101727 | 24.8°C | 77% | 20.5°C | 2357ft (718m) | 12.59v | 31 |
| 3418 | 15 Apr 05:41:10 | 9 | 10.1 mph | 11 | SW (218°) | 99581 | 101729 | 24.8°C | 77.1% | 20.5°C | 2348ft (716m) | 12.61v | 31 |
| 3417 | 15 Apr 05:40:59 | 9 | 9.8 mph | 11 | SSW (208°) | 99579 | 101727 | 24.8°C | 77% | 20.5°C | 2357ft (718m) | 12.59v | 31 |
| 3416 | 15 Apr 05:40:48 | 9 | 9.8 mph | 11 | SSW (207°) | 99581 | 101729 | 24.8°C | 76.9% | 20.5°C | 2365ft (721m) | 12.59v | 31 |
| 3415 | 15 Apr 05:40:37 | 6 | 7.5 mph | 9 | SW (217°) | 99581 | 101729 | 24.8°C | 77% | 20.5°C | 2357ft (718m) | 12.6v | 31 |
| 3414 | 15 Apr 05:40:25 | 5 | 5.1 mph | 6 | SW (224°) | 99580 | 101728 | 24.8°C | 77.1% | 20.5°C | 2348ft (716m) | 12.59v | 31 |
| 3413 | 15 Apr 05:40:14 | 6 | 6.8 mph | 8 | SW (219°) | 99583 | 101731 | 24.8°C | 76.9% | 20.5°C | 2365ft (721m) | 12.57v | 31 |
| 3412 | 15 Apr 05:40:03 | 6 | 7.2 mph | 9 | SW (219°) | 99582 | 101730 | 24.8°C | 77% | 20.5°C | 2357ft (718m) | 12.59v | 31 |
| 3411 | 15 Apr 05:39:52 | 7 | 6.9 mph | 8 | SSW (211°) | 99579 | 101727 | 24.8°C | 77% | 20.5°C | 2357ft (718m) | 12.6v | 31 |
| 3410 | 15 Apr 05:39:40 | 7 | 7.9 mph | 9 | SW (215°) | 99580 | 101728 | 24.8°C | 77% | 20.5°C | 2357ft (718m) | 12.59v | 31 |
| 3409 | 15 Apr 05:39:29 | 8 | 9.4 mph | 12 | SW (216°) | 99581 | 101729 | 24.8°C | 77% | 20.5°C | 2357ft (718m) | 12.59v | 31 |
| 3408 | 15 Apr 05:39:18 | 8 | 9.8 mph | 13 | SSW (206°) | 99576 | 101724 | 24.8°C | 76.9% | 20.5°C | 2365ft (721m) | 12.58v | 31 |
| 3407 | 15 Apr 05:39:07 | 8 | 9.4 mph | 11 | SSW (207°) | 99581 | 101729 | 24.8°C | 76.8% | 20.4°C | 2374ft (724m) | 12.6v | 31 |
| 3406 | 15 Apr 05:38:55 | 6 | 8.3 mph | 11 | SSW (208°) | 99574 | 101722 | 24.8°C | 77% | 20.5°C | 2357ft (718m) | 12.59v | 31 |
| 3405 | 15 Apr 05:38:44 | 5 | 6.6 mph | 8 | SSW (211°) | 99579 | 101727 | 24.8°C | 77% | 20.5°C | 2357ft (718m) | 12.59v | 31 |
| 3404 | 15 Apr 05:38:33 | 9 | 9.5 mph | 10 | SSW (208°) | 99579 | 101727 | 24.8°C | 77% | 20.5°C | 2357ft (718m) | 12.58v | 31 |
| 3403 | 15 Apr 05:38:22 | 6 | 10.3 mph | 14 | SSW (207°) | 99577 | 101725 | 24.8°C | 77% | 20.5°C | 2357ft (718m) | 12.6v | 31 |
| 3402 | 15 Apr 05:38:10 | 6 | 7.8 mph | 10 | SW (222°) | 99577 | 101725 | 24.8°C | 77% | 20.5°C | 2357ft (718m) | 12.6v | 31 |
| 3401 | 15 Apr 05:37:59 | 7 | 8.1 mph | 9 | SW (216°) | 99577 | 101725 | 24.8°C | 77% | 20.5°C | 2357ft (718m) | 12.6v | 31 |
| 3400 | 15 Apr 05:37:48 | 8 | 9 mph | 10 | SW (216°) | 99577 | 101725 | 24.8°C | 77.1% | 20.5°C | 2348ft (716m) | 12.59v | 31 |
| 3399 | 15 Apr 05:37:37 | 8 | 8.6 mph | 9 | SSW (204°) | 99577 | 101725 | 24.8°C | 77.1% | 20.5°C | 2348ft (716m) | 12.6v | 31 |
| 3398 | 15 Apr 05:37:25 | 8 | 8.5 mph | 10 | SSW (209°) | 99577 | 101725 | 24.8°C | 77.1% | 20.5°C | 2348ft (716m) | 12.59v | 31 |
| 3397 | 15 Apr 05:37:14 | 8 | 9 mph | 10 | SSW (212°) | 99576 | 101724 | 24.8°C | 77.1% | 20.5°C | 2348ft (716m) | 12.58v | 31 |
| 3396 | 15 Apr 05:37:03 | 8 | 9.2 mph | 11 | SSW (207°) | 99574 | 101722 | 24.7°C | 77.1% | 20.4°C | 2347ft (715m) | 12.59v | 31 |
| 3395 | 15 Apr 05:36:52 | 8 | 9.6 mph | 12 | SSW (208°) | 99572 | 101720 | 24.7°C | 77.2% | 20.4°C | 2338ft (713m) | 12.58v | 31 |
| 3394 | 15 Apr 05:36:40 | 7 | 8.2 mph | 10 | SSW (210°) | 99576 | 101724 | 24.7°C | 77.3% | 20.5°C | 2330ft (710m) | 12.59v | 31 |
| 3393 | 15 Apr 05:36:29 | 7 | 8 mph | 9 | SSW (212°) | 99570 | 101718 | 24.7°C | 77.4% | 20.5°C | 2321ft (707m) | 12.59v | 31 |
| 3392 | 15 Apr 05:36:18 | 6 | 6.9 mph | 8 | SSW (211°) | 99573 | 101721 | 24.7°C | 77.6% | 20.5°C | 2304ft (702m) | 12.59v | 31 |
| 3391 | 15 Apr 05:36:07 | 8 | 9.1 mph | 10 | SSW (213°) | 99569 | 101717 | 24.7°C | 77.4% | 20.5°C | 2321ft (707m) | 12.59v | 31 |
| 3390 | 15 Apr 05:35:56 | 8 | 9.1 mph | 11 | SSW (204°) | 99570 | 101718 | 24.7°C | 77.3% | 20.5°C | 2330ft (710m) | 12.58v | 31 |
| 3389 | 15 Apr 05:35:45 | 8 | 9.2 mph | 11 | SSW (202°) | 99572 | 101720 | 24.7°C | 77.5% | 20.5°C | 2312ft (705m) | 12.57v | 31 |
| 3388 | 15 Apr 05:35:33 | 7 | 8.1 mph | 10 | SSW (201°) | 99569 | 101717 | 24.7°C | 77.4% | 20.5°C | 2321ft (707m) | 12.59v | 61 |
| 3387 | 15 Apr 05:35:22 | 10 | 10.6 mph | 12 | SSW (206°) | 99571 | 101719 | 24.7°C | 77.2% | 20.4°C | 2338ft (713m) | 12.6v | 46 |
| 3386 | 15 Apr 05:35:10 | 6 | 7.1 mph | 9 | SSW (212°) | 99572 | 101720 | 24.7°C | 77.3% | 20.5°C | 2330ft (710m) | 12.61v | 46 |
| 3385 | 15 Apr 05:34:59 | 5 | 6.5 mph | 8 | SSW (207°) | 99570 | 101718 | 24.7°C | 77.3% | 20.5°C | 2330ft (710m) | 12.61v | 46 |
| 3384 | 15 Apr 05:34:48 | 5 | 6.4 mph | 7 | SSW (199°) | 99565 | 101713 | 24.7°C | 77.3% | 20.5°C | 2330ft (710m) | 12.62v | 52 |
| 3383 | 15 Apr 05:34:37 | 6 | 8.3 mph | 12 | SW (217°) | 99564 | 101712 | 24.8°C | 77.1% | 20.5°C | 2348ft (716m) | 12.61v | 50 |
| 3382 | 15 Apr 05:34:25 | 9 | 10.2 mph | 12 | SSW (204°) | 99568 | 101716 | 24.8°C | 77.1% | 20.5°C | 2348ft (716m) | 12.59v | 61 |
| 3381 | 15 Apr 05:34:14 | 10 | 10.6 mph | 12 | SW (216°) | 99562 | 101710 | 24.8°C | 77% | 20.5°C | 2357ft (718m) | 12.59v | 52 |
| 3380 | 15 Apr 05:34:03 | 7 | 8.3 mph | 11 | SSW (205°) | 99555 | 101702 | 24.8°C | 77.2% | 20.5°C | 2340ft (713m) | 12.6v | 46 |
| 3379 | 15 Apr 05:33:52 | 7 | 7.8 mph | 9 | SSW (206°) | 99563 | 101711 | 24.8°C | 77.1% | 20.5°C | 2348ft (716m) | 12.59v | 52 |
| 3378 | 15 Apr 05:33:40 | 7 | 8.3 mph | 11 | SSW (207°) | 99563 | 101711 | 24.8°C | 77.2% | 20.5°C | 2340ft (713m) | 12.6v | 46 |
| 3377 | 15 Apr 05:33:29 | 7 | 7.8 mph | 9 | SW (215°) | 99566 | 101714 | 24.8°C | 77.2% | 20.5°C | 2340ft (713m) | 12.61v | 52 |
| 3376 | 15 Apr 05:33:18 | 7 | 8.1 mph | 10 | SSW (199°) | 99566 | 101714 | 24.8°C | 77.1% | 20.5°C | 2348ft (716m) | 12.59v | 50 |
| 3375 | 15 Apr 05:33:07 | 9 | 10.2 mph | 12 | SW (215°) | 99564 | 101712 | 24.8°C | 77.1% | 20.5°C | 2348ft (716m) | 12.6v | 112 |
| 3374 | 15 Apr 05:32:55 | 6 | 6.9 mph | 8 | SW (218°) | 99567 | 101715 | 24.8°C | 77% | 20.5°C | 2357ft (718m) | 12.59v | 31 |
| 3373 | 15 Apr 05:32:44 | 8 | 8.2 mph | 10 | SSW (210°) | 99565 | 101713 | 24.8°C | 77% | 20.5°C | 2357ft (718m) | 12.58v | 31 |
| 3372 | 15 Apr 05:32:33 | 9 | 10.5 mph | 12 | SSW (203°) | 99564 | 101712 | 24.8°C | 76.9% | 20.5°C | 2365ft (721m) | 12.58v | 31 |
| 3371 | 15 Apr 05:32:22 | 8 | 9 mph | 10 | SSW (206°) | 99565 | 101713 | 24.8°C | 77% | 20.5°C | 2357ft (718m) | 12.58v | 31 |
| 3370 | 15 Apr 05:32:10 | 9 | 11.1 mph | 13 | SSW (210°) | 99567 | 101715 | 24.8°C | 76.9% | 20.5°C | 2365ft (721m) | 12.61v | 31 |
| 3369 | 15 Apr 05:31:59 | 8 | 8 mph | 9 | SSW (208°) | 99567 | 101715 | 24.8°C | 77% | 20.5°C | 2357ft (718m) | 12.6v | 31 |
| 3368 | 15 Apr 05:31:48 | 6 | 6.8 mph | 8 | SW (215°) | 99561 | 101709 | 24.8°C | 77.1% | 20.5°C | 2348ft (716m) | 12.59v | 31 |
| 3367 | 15 Apr 05:31:37 | 8 | 9.4 mph | 10 | SSW (210°) | 99559 | 101707 | 24.8°C | 76.9% | 20.5°C | 2365ft (721m) | 12.59v | 31 |
| 3366 | 15 Apr 05:31:25 | 7 | 7.4 mph | 8 | SSW (205°) | 99562 | 101710 | 24.8°C | 77% | 20.5°C | 2357ft (718m) | 12.6v | 31 |
| 3365 | 15 Apr 05:31:14 | 8 | 9.7 mph | 11 | SSW (200°) | 99563 | 101711 | 24.8°C | 77% | 20.5°C | 2357ft (718m) | 12.59v | 31 |
| 3364 | 15 Apr 05:31:03 | 11 | 11.5 mph | 13 | SSW (203°) | 99556 | 101703 | 24.8°C | 76.9% | 20.5°C | 2365ft (721m) | 12.59v | 31 |
| 3363 | 15 Apr 05:30:52 | 9 | 9.6 mph | 11 | SSW (200°) | 99562 | 101710 | 24.8°C | 77% | 20.5°C | 2357ft (718m) | 12.6v | 31 |
| 3362 | 15 Apr 05:30:40 | 10 | 10.6 mph | 13 | SSW (209°) | 99562 | 101710 | 24.8°C | 76.9% | 20.5°C | 2365ft (721m) | 12.59v | 31 |
| 3361 | 15 Apr 05:30:29 | 9 | 9.6 mph | 12 | SSW (203°) | 99559 | 101707 | 24.8°C | 77% | 20.5°C | 2357ft (718m) | 12.6v | 31 |
| 3360 | 15 Apr 05:30:18 | 8 | 8.8 mph | 10 | SSW (198°) | 99562 | 101710 | 24.8°C | 77% | 20.5°C | 2357ft (718m) | 12.6v | 31 |
| 3359 | 15 Apr 05:30:07 | 10 | 11.2 mph | 13 | SSW (204°) | 99563 | 101711 | 24.8°C | 76.9% | 20.5°C | 2365ft (721m) | 12.6v | 31 |
| 3358 | 15 Apr 05:29:55 | 11 | 11 mph | 12 | SSW (197°) | 99560 | 101708 | 24.8°C | 77% | 20.5°C | 2357ft (718m) | 12.6v | 31 |
| 3357 | 15 Apr 05:29:44 | 10 | 10.1 mph | 12 | SSW (205°) | 99563 | 101711 | 24.8°C | 77% | 20.5°C | 2357ft (718m) | 12.59v | 31 |
| 3356 | 15 Apr 05:29:33 | 9 | 11.1 mph | 13 | SSW (204°) | 99558 | 101705 | 24.8°C | 77% | 20.5°C | 2357ft (718m) | 12.57v | 31 |
| 3355 | 15 Apr 05:29:22 | 10 | 9.8 mph | 11 | SSW (198°) | 99559 | 101707 | 24.8°C | 76.9% | 20.5°C | 2365ft (721m) | 12.59v | 31 |
| 3354 | 15 Apr 05:29:10 | 10 | 12.3 mph | 14 | SSW (202°) | 99558 | 101705 | 24.8°C | 76.9% | 20.5°C | 2365ft (721m) | 12.6v | 31 |
| 3353 | 15 Apr 05:28:59 | 7 | 8.4 mph | 11 | SSW (204°) | 99560 | 101708 | 24.8°C | 77% | 20.5°C | 2357ft (718m) | 12.6v | 31 |
| 3352 | 15 Apr 05:28:48 | 7 | 8.7 mph | 12 | SSW (206°) | 99561 | 101709 | 24.8°C | 77% | 20.5°C | 2357ft (718m) | 12.6v | 31 |
| 3351 | 15 Apr 05:28:37 | 8 | 9.2 mph | 11 | SSW (203°) | 99559 | 101707 | 24.8°C | 77% | 20.5°C | 2357ft (718m) | 12.59v | 31 |
| 3350 | 15 Apr 05:28:25 | 8 | 9.4 mph | 11 | SW (217°) | 99560 | 101708 | 24.8°C | 76.9% | 20.5°C | 2365ft (721m) | 12.59v | 31 |
| 3349 | 15 Apr 05:28:14 | 8 | 10.9 mph | 13 | SSW (204°) | 99558 | 101705 | 24.8°C | 77% | 20.5°C | 2357ft (718m) | 12.6v | 31 |
| 3348 | 15 Apr 05:28:03 | 6 | 7.4 mph | 9 | SSW (210°) | 99553 | 101700 | 24.8°C | 77.1% | 20.5°C | 2348ft (716m) | 12.6v | 31 |
| 3347 | 15 Apr 05:27:52 | 7 | 9 mph | 12 | SSW (200°) | 99558 | 101705 | 24.8°C | 77% | 20.5°C | 2357ft (718m) | 12.6v | 31 |
| 3346 | 15 Apr 05:27:40 | 10 | 12.6 mph | 15 | SSW (202°) | 99557 | 101704 | 24.8°C | 76.9% | 20.5°C | 2365ft (721m) | 12.59v | 31 |
| 3345 | 15 Apr 05:27:29 | 9 | 10.5 mph | 13 | SSW (202°) | 99554 | 101701 | 24.8°C | 76.8% | 20.4°C | 2374ft (724m) | 12.61v | 31 |
| 3344 | 15 Apr 05:27:18 | 10 | 11.5 mph | 14 | SSW (198°) | 99560 | 101708 | 24.8°C | 76.9% | 20.5°C | 2365ft (721m) | 12.6v | 31 |
| 3343 | 15 Apr 05:27:07 | 7 | 10.5 mph | 13 | SSW (200°) | 99558 | 101705 | 24.8°C | 76.9% | 20.5°C | 2365ft (721m) | 12.59v | 31 |
| 3342 | 15 Apr 05:26:55 | 9 | 9.3 mph | 11 | SSW (210°) | 99558 | 101705 | 24.8°C | 76.9% | 20.5°C | 2365ft (721m) | 12.59v | 31 |
| 3341 | 15 Apr 05:26:44 | 10 | 10.8 mph | 12 | SSW (200°) | 99560 | 101708 | 24.8°C | 76.8% | 20.4°C | 2374ft (724m) | 12.6v | 31 |
| 3340 | 15 Apr 05:26:33 | 10 | 10.7 mph | 12 | S (191°) | 99556 | 101703 | 24.8°C | 76.8% | 20.4°C | 2374ft (724m) | 12.6v | 31 |
| 3339 | 15 Apr 05:26:22 | 10 | 11.3 mph | 13 | SSW (201°) | 99552 | 101699 | 24.8°C | 76.8% | 20.4°C | 2374ft (724m) | 12.59v | 31 |
| 3338 | 15 Apr 05:26:10 | 8 | 10.1 mph | 13 | SSW (195°) | 99553 | 101700 | 24.8°C | 76.8% | 20.4°C | 2374ft (724m) | 12.58v | 31 |
| 3337 | 15 Apr 05:25:59 | 8 | 9.2 mph | 12 | SSW (207°) | 99558 | 101705 | 24.8°C | 76.9% | 20.5°C | 2365ft (721m) | 12.6v | 31 |
| 3336 | 15 Apr 05:25:48 | 10 | 10.6 mph | 12 | SSW (208°) | 99556 | 101703 | 24.8°C | 76.7% | 20.4°C | 2383ft (726m) | 12.6v | 31 |
| 3335 | 15 Apr 05:25:37 | 9 | 9.7 mph | 11 | SSW (206°) | 99552 | 101699 | 24.8°C | 76.8% | 20.4°C | 2374ft (724m) | 12.59v | 31 |
| 3334 | 15 Apr 05:25:25 | 8 | 9.7 mph | 11 | SW (216°) | 99559 | 101707 | 24.8°C | 76.9% | 20.5°C | 2365ft (721m) | 12.6v | 31 |
| 3333 | 15 Apr 05:25:14 | 8 | 8.9 mph | 10 | SSW (206°) | 99556 | 101703 | 24.8°C | 76.8% | 20.4°C | 2374ft (724m) | 12.6v | 31 |
| 3332 | 15 Apr 05:25:03 | 8 | 9.8 mph | 12 | SSW (206°) | 99556 | 101703 | 24.8°C | 76.9% | 20.5°C | 2365ft (721m) | 12.59v | 31 |
| 3331 | 15 Apr 05:24:52 | 6 | 7.4 mph | 9 | SSW (207°) | 99554 | 101701 | 24.8°C | 76.9% | 20.5°C | 2365ft (721m) | 12.6v | 31 |
| 3330 | 15 Apr 05:24:40 | 6 | 7.8 mph | 9 | SSW (211°) | 99557 | 101704 | 24.8°C | 76.8% | 20.4°C | 2374ft (724m) | 12.59v | 31 |
| 3329 | 15 Apr 05:24:29 | 8 | 9 mph | 11 | SSW (200°) | 99554 | 101701 | 24.8°C | 76.9% | 20.5°C | 2365ft (721m) | 12.6v | 31 |
| 3328 | 15 Apr 05:24:18 | 8 | 8.6 mph | 10 | SSW (207°) | 99555 | 101702 | 24.8°C | 76.9% | 20.5°C | 2365ft (721m) | 12.59v | 31 |
| 3327 | 15 Apr 05:24:07 | 7 | 8.2 mph | 9 | SSW (207°) | 99555 | 101702 | 24.8°C | 76.8% | 20.4°C | 2374ft (724m) | 12.61v | 31 |
| 3326 | 15 Apr 05:23:55 | 8 | 8.2 mph | 9 | SSW (208°) | 99555 | 101702 | 24.8°C | 76.9% | 20.5°C | 2365ft (721m) | 12.6v | 31 |
| 3325 | 15 Apr 05:23:44 | 9 | 9.2 mph | 10 | SSW (201°) | 99558 | 101705 | 24.8°C | 77% | 20.5°C | 2357ft (718m) | 12.6v | 31 |
| 3324 | 15 Apr 05:23:33 | 7 | 8.3 mph | 10 | SSW (200°) | 99557 | 101704 | 24.8°C | 76.9% | 20.5°C | 2365ft (721m) | 12.59v | 31 |
| 3323 | 15 Apr 05:23:22 | 9 | 9.5 mph | 11 | SSW (198°) | 99557 | 101704 | 24.8°C | 76.9% | 20.5°C | 2365ft (721m) | 12.58v | 31 |
| 3322 | 15 Apr 05:23:10 | 5 | 6.8 mph | 8 | SSW (204°) | 99556 | 101703 | 24.8°C | 77% | 20.5°C | 2357ft (718m) | 12.59v | 31 |
| 3321 | 15 Apr 05:22:59 | 4 | 6.3 mph | 9 | SW (227°) | 99558 | 101705 | 24.8°C | 77% | 20.5°C | 2357ft (718m) | 12.6v | 31 |
| 3320 | 15 Apr 05:22:48 | 5 | 6.1 mph | 7 | SW (221°) | 99554 | 101701 | 24.8°C | 77.2% | 20.5°C | 2340ft (713m) | 12.61v | 31 |
| 3319 | 15 Apr 05:22:37 | 6 | 7.7 mph | 9 | SSW (211°) | 99556 | 101703 | 24.8°C | 77.1% | 20.5°C | 2348ft (716m) | 12.61v | 31 |
| 3318 | 15 Apr 05:22:25 | 9 | 9.3 mph | 10 | SSW (209°) | 99556 | 101703 | 24.8°C | 76.9% | 20.5°C | 2365ft (721m) | 12.6v | 31 |
| 3317 | 15 Apr 05:22:14 | 11 | 12.1 mph | 13 | SSW (192°) | 99555 | 101702 | 24.8°C | 76.9% | 20.5°C | 2365ft (721m) | 12.61v | 31 |
| 3316 | 15 Apr 05:22:03 | 9 | 9.7 mph | 11 | SSW (193°) | 99552 | 101699 | 24.8°C | 76.9% | 20.5°C | 2365ft (721m) | 12.6v | 31 |
| 3315 | 15 Apr 05:21:52 | 9 | 10.5 mph | 12 | SSW (196°) | 99555 | 101702 | 24.8°C | 76.9% | 20.5°C | 2365ft (721m) | 12.59v | 31 |
| 3314 | 15 Apr 05:21:40 | 9 | 10.1 mph | 12 | SSW (199°) | 99552 | 101699 | 24.8°C | 76.9% | 20.5°C | 2365ft (721m) | 12.59v | 31 |
| 3313 | 15 Apr 05:21:29 | 9 | 10.4 mph | 13 | SSW (193°) | 99557 | 101704 | 24.8°C | 76.9% | 20.5°C | 2365ft (721m) | 12.6v | 31 |
| 3312 | 15 Apr 05:21:18 | 10 | 11.4 mph | 13 | SSW (197°) | 99550 | 101697 | 24.8°C | 76.8% | 20.4°C | 2374ft (724m) | 12.6v | 31 |
| 3311 | 15 Apr 05:21:07 | 8 | 9.8 mph | 12 | SSW (194°) | 99554 | 101701 | 24.8°C | 76.8% | 20.4°C | 2374ft (724m) | 12.6v | 31 |
| 3310 | 15 Apr 05:20:55 | 9 | 10.3 mph | 12 | S (191°) | 99557 | 101704 | 24.8°C | 76.8% | 20.4°C | 2374ft (724m) | 12.6v | 31 |
| 3309 | 15 Apr 05:20:44 | 8 | 9.3 mph | 10 | SSW (204°) | 99556 | 101703 | 24.8°C | 76.8% | 20.4°C | 2374ft (724m) | 12.6v | 31 |
| 3308 | 15 Apr 05:20:33 | 9 | 10.2 mph | 11 | SSW (199°) | 99554 | 101701 | 24.8°C | 76.8% | 20.4°C | 2374ft (724m) | 12.6v | 31 |
| 3307 | 15 Apr 05:20:22 | 11 | 11.5 mph | 14 | SSW (210°) | 99554 | 101701 | 24.8°C | 76.7% | 20.4°C | 2383ft (726m) | 12.59v | 31 |
| 3306 | 15 Apr 05:20:10 | 9 | 10.2 mph | 12 | SSW (198°) | 99551 | 101698 | 24.8°C | 76.9% | 20.5°C | 2365ft (721m) | 12.59v | 31 |
| 3305 | 15 Apr 05:19:59 | 7 | 7.8 mph | 9 | SSW (205°) | 99554 | 101701 | 24.8°C | 76.9% | 20.5°C | 2365ft (721m) | 12.59v | 31 |
| 3304 | 15 Apr 05:19:48 | 7 | 7.6 mph | 9 | SSW (209°) | 99554 | 101701 | 24.8°C | 76.9% | 20.5°C | 2365ft (721m) | 12.61v | 31 |
| 3303 | 15 Apr 05:19:37 | 6 | 6.6 mph | 7 | SSW (209°) | 99555 | 101702 | 24.8°C | 77% | 20.5°C | 2357ft (718m) | 12.6v | 31 |
| 3302 | 15 Apr 05:19:25 | 7 | 8 mph | 10 | SSW (203°) | 99556 | 101703 | 24.8°C | 77% | 20.5°C | 2357ft (718m) | 12.6v | 31 |
| 3301 | 15 Apr 05:19:14 | 8 | 9.1 mph | 10 | SSW (203°) | 99548 | 101695 | 24.8°C | 76.9% | 20.5°C | 2365ft (721m) | 12.59v | 31 |
| 3300 | 15 Apr 05:19:03 | 8 | 9.1 mph | 12 | SSW (200°) | 99551 | 101698 | 24.8°C | 77% | 20.5°C | 2357ft (718m) | 12.6v | 31 |
| 3299 | 15 Apr 05:18:52 | 8 | 8.9 mph | 10 | SW (217°) | 99551 | 101698 | 24.7°C | 76.9% | 20.4°C | 2364ft (721m) | 12.58v | 31 |
| 3298 | 15 Apr 05:18:40 | 11 | 11.9 mph | 13 | SSW (195°) | 99553 | 101700 | 24.7°C | 76.9% | 20.4°C | 2364ft (721m) | 12.6v | 31 |
| 3297 | 15 Apr 05:18:29 | 11 | 12.4 mph | 15 | SSW (200°) | 99551 | 101698 | 24.7°C | 76.9% | 20.4°C | 2364ft (721m) | 12.59v | 31 |
| 3296 | 15 Apr 05:18:18 | 9 | 10.5 mph | 11 | SSW (193°) | 99555 | 101702 | 24.8°C | 76.9% | 20.5°C | 2365ft (721m) | 12.6v | 31 |
| 3295 | 15 Apr 05:18:07 | 8 | 9.3 mph | 11 | SSW (212°) | 99557 | 101704 | 24.8°C | 77% | 20.5°C | 2357ft (718m) | 12.6v | 31 |
| 3294 | 15 Apr 05:17:55 | 11 | 12.7 mph | 14 | SSW (209°) | 99549 | 101696 | 24.8°C | 76.7% | 20.4°C | 2383ft (726m) | 12.6v | 31 |
| 3293 | 15 Apr 05:17:44 | 7 | 10.3 mph | 15 | SSW (213°) | 99549 | 101696 | 24.8°C | 76.8% | 20.4°C | 2374ft (724m) | 12.6v | 31 |
| 3292 | 15 Apr 05:17:33 | 7 | 8.3 mph | 10 | SSW (196°) | 99551 | 101698 | 24.8°C | 76.8% | 20.4°C | 2374ft (724m) | 12.59v | 31 |
| 3291 | 15 Apr 05:17:22 | 5 | 7 mph | 10 | SW (220°) | 99551 | 101698 | 24.8°C | 77% | 20.5°C | 2357ft (718m) | 12.59v | 31 |
| 3290 | 15 Apr 05:17:10 | 7 | 7.9 mph | 9 | SW (219°) | 99552 | 101699 | 24.8°C | 76.9% | 20.5°C | 2365ft (721m) | 12.59v | 31 |
| 3289 | 15 Apr 05:16:59 | 9 | 10.3 mph | 14 | SSW (205°) | 99548 | 101695 | 24.8°C | 76.9% | 20.5°C | 2365ft (721m) | 12.59v | 31 |
| 3288 | 15 Apr 05:16:48 | 8 | 9.3 mph | 13 | SSW (205°) | 99553 | 101700 | 24.8°C | 76.9% | 20.5°C | 2365ft (721m) | 12.59v | 31 |
| 3287 | 15 Apr 05:16:37 | 8 | 9.4 mph | 11 | SSW (198°) | 99549 | 101696 | 24.8°C | 76.8% | 20.4°C | 2374ft (724m) | 12.61v | 31 |
| 3286 | 15 Apr 05:16:25 | 8 | 8.7 mph | 9 | SSW (211°) | 99551 | 101698 | 24.8°C | 77% | 20.5°C | 2357ft (718m) | 12.61v | 31 |
| 3285 | 15 Apr 05:16:14 | 8 | 9.4 mph | 11 | SSW (202°) | 99551 | 101698 | 24.8°C | 76.8% | 20.4°C | 2374ft (724m) | 12.6v | 31 |
| 3284 | 15 Apr 05:16:03 | 10 | 10.3 mph | 12 | SSW (205°) | 99548 | 101695 | 24.8°C | 76.9% | 20.5°C | 2365ft (721m) | 12.6v | 31 |
| 3283 | 15 Apr 05:15:52 | 9 | 10 mph | 11 | SSW (206°) | 99554 | 101701 | 24.8°C | 76.8% | 20.4°C | 2374ft (724m) | 12.59v | 31 |
| 3282 | 15 Apr 05:15:40 | 8 | 8.9 mph | 10 | SSW (202°) | 99552 | 101699 | 24.8°C | 76.9% | 20.5°C | 2365ft (721m) | 12.59v | 31 |
| 3281 | 15 Apr 05:15:29 | 8 | 9.8 mph | 13 | SSW (209°) | 99555 | 101702 | 24.8°C | 76.9% | 20.5°C | 2365ft (721m) | 12.59v | 31 |
| 3280 | 15 Apr 05:15:18 | 8 | 8.9 mph | 11 | SSW (201°) | 99552 | 101699 | 24.8°C | 77% | 20.5°C | 2357ft (718m) | 12.6v | 31 |
| 3279 | 15 Apr 05:15:07 | 7 | 9.3 mph | 10 | SSW (201°) | 99552 | 101699 | 24.8°C | 77% | 20.5°C | 2357ft (718m) | 12.62v | 31 |
| 3278 | 15 Apr 05:14:55 | 7 | 8.2 mph | 9 | SSW (200°) | 99550 | 101697 | 24.7°C | 77% | 20.4°C | 2355ft (718m) | 12.61v | 31 |
| 3277 | 15 Apr 05:14:44 | 10 | 11.2 mph | 12 | SSW (202°) | 99548 | 101695 | 24.8°C | 76.9% | 20.5°C | 2365ft (721m) | 12.61v | 31 |
| 3276 | 15 Apr 05:14:33 | 9 | 10 mph | 12 | SSW (198°) | 99551 | 101698 | 24.7°C | 76.9% | 20.4°C | 2364ft (721m) | 12.61v | 31 |
| 3275 | 15 Apr 05:14:22 | 11 | 11.5 mph | 13 | S (191°) | 99547 | 101694 | 24.8°C | 77% | 20.5°C | 2357ft (718m) | 12.61v | 31 |
| 3274 | 15 Apr 05:14:10 | 5 | 8.4 mph | 13 | SSW (202°) | 99552 | 101699 | 24.8°C | 76.9% | 20.5°C | 2365ft (721m) | 12.59v | 31 |
| 3273 | 15 Apr 05:13:59 | 8 | 9.3 mph | 11 | SSW (211°) | 99550 | 101697 | 24.8°C | 76.9% | 20.5°C | 2365ft (721m) | 12.6v | 31 |
| 3272 | 15 Apr 05:13:48 | 7 | 8.8 mph | 12 | SSW (211°) | 99551 | 101698 | 24.8°C | 76.9% | 20.5°C | 2365ft (721m) | 12.61v | 31 |
| 3271 | 15 Apr 05:13:37 | 9 | 11.1 mph | 13 | SSW (193°) | 99545 | 101692 | 24.8°C | 76.8% | 20.4°C | 2374ft (724m) | 12.6v | 31 |
| 3270 | 15 Apr 05:13:25 | 9 | 10.7 mph | 13 | SSW (197°) | 99553 | 101700 | 24.8°C | 77% | 20.5°C | 2357ft (718m) | 12.61v | 31 |
| 3269 | 15 Apr 05:13:14 | 6 | 7.2 mph | 9 | SSW (203°) | 99551 | 101698 | 24.8°C | 77% | 20.5°C | 2357ft (718m) | 12.61v | 31 |
| 3268 | 15 Apr 05:13:03 | 6 | 7.5 mph | 8 | SW (216°) | 99553 | 101700 | 24.8°C | 76.9% | 20.5°C | 2365ft (721m) | 12.6v | 31 |
| 3267 | 15 Apr 05:12:52 | 6 | 6.3 mph | 8 | SSW (204°) | 99553 | 101700 | 24.8°C | 76.8% | 20.4°C | 2374ft (724m) | 12.6v | 31 |
| 3266 | 15 Apr 05:12:40 | 8 | 8.4 mph | 9 | SSW (205°) | 99554 | 101701 | 24.8°C | 76.7% | 20.4°C | 2383ft (726m) | 12.6v | 31 |
| 3265 | 15 Apr 05:12:29 | 8 | 7.9 mph | 9 | SSW (200°) | 99549 | 101696 | 24.8°C | 76.8% | 20.4°C | 2374ft (724m) | 12.59v | 31 |
| 3264 | 15 Apr 05:12:18 | 8 | 9.1 mph | 11 | SSW (202°) | 99550 | 101697 | 24.8°C | 76.8% | 20.4°C | 2374ft (724m) | 12.6v | 31 |
| 3263 | 15 Apr 05:12:07 | 5 | 7.1 mph | 8 | SSW (206°) | 99549 | 101696 | 24.8°C | 76.9% | 20.5°C | 2365ft (721m) | 12.61v | 31 |
| 3262 | 15 Apr 05:11:55 | 5 | 7.3 mph | 10 | SSW (205°) | 99552 | 101699 | 24.8°C | 76.8% | 20.4°C | 2374ft (724m) | 12.6v | 31 |
| 3261 | 15 Apr 05:11:44 | 8 | 9.3 mph | 12 | SSW (210°) | 99551 | 101698 | 24.8°C | 76.8% | 20.4°C | 2374ft (724m) | 12.6v | 31 |
| 3260 | 15 Apr 05:11:33 | 8 | 8.7 mph | 10 | SSW (197°) | 99549 | 101696 | 24.8°C | 76.8% | 20.4°C | 2374ft (724m) | 12.59v | 31 |
| 3259 | 15 Apr 05:11:22 | 7 | 7.8 mph | 11 | SSW (207°) | 99550 | 101697 | 24.8°C | 76.9% | 20.5°C | 2365ft (721m) | 12.6v | 31 |
| 3258 | 15 Apr 05:11:10 | 8 | 9 mph | 11 | SSW (199°) | 99550 | 101697 | 24.8°C | 76.8% | 20.4°C | 2374ft (724m) | 12.59v | 31 |
| 3257 | 15 Apr 05:10:59 | 9 | 9.4 mph | 10 | SSW (200°) | 99547 | 101694 | 24.8°C | 76.8% | 20.4°C | 2374ft (724m) | 12.6v | 31 |
| 3256 | 15 Apr 05:10:48 | 8 | 9.2 mph | 11 | SSW (195°) | 99550 | 101697 | 24.8°C | 76.8% | 20.4°C | 2374ft (724m) | 12.6v | 31 |
| 3255 | 15 Apr 05:10:37 | 10 | 11.9 mph | 13 | SSW (193°) | 99545 | 101692 | 24.8°C | 76.7% | 20.4°C | 2383ft (726m) | 12.6v | 31 |
| 3254 | 15 Apr 05:10:25 | 8 | 11.3 mph | 15 | SSW (198°) | 99551 | 101698 | 24.8°C | 76.8% | 20.4°C | 2374ft (724m) | 12.6v | 31 |
| 3253 | 15 Apr 05:10:14 | 8 | 8.8 mph | 10 | SSW (208°) | 99551 | 101698 | 24.8°C | 76.9% | 20.5°C | 2365ft (721m) | 12.6v | 31 |
| 3252 | 15 Apr 05:10:03 | 8 | 8 mph | 10 | SSW (204°) | 99549 | 101696 | 24.8°C | 77% | 20.5°C | 2357ft (718m) | 12.6v | 31 |
| 3251 | 15 Apr 05:09:52 | 7 | 7.1 mph | 8 | SSW (206°) | 99551 | 101698 | 24.8°C | 76.9% | 20.5°C | 2365ft (721m) | 12.6v | 31 |
| 3250 | 15 Apr 05:09:40 | 8 | 10.3 mph | 13 | SSW (200°) | 99549 | 101696 | 24.8°C | 76.8% | 20.4°C | 2374ft (724m) | 12.6v | 31 |
| 3249 | 15 Apr 05:09:29 | 6 | 7.5 mph | 10 | SW (214°) | 99549 | 101696 | 24.8°C | 76.9% | 20.5°C | 2365ft (721m) | 12.6v | 31 |
| 3248 | 15 Apr 05:09:18 | 10 | 11 mph | 13 | SSW (205°) | 99553 | 101700 | 24.8°C | 76.8% | 20.4°C | 2374ft (724m) | 12.6v | 31 |
| 3247 | 15 Apr 05:09:07 | 7 | 7.5 mph | 10 | SSW (205°) | 99548 | 101695 | 24.8°C | 76.9% | 20.5°C | 2365ft (721m) | 12.61v | 31 |
| 3246 | 15 Apr 05:08:55 | 7 | 9.4 mph | 11 | SSW (197°) | 99552 | 101699 | 24.8°C | 76.9% | 20.5°C | 2365ft (721m) | 12.61v | 31 |
| 3245 | 15 Apr 05:08:44 | 8 | 9.3 mph | 11 | SSW (206°) | 99548 | 101695 | 24.8°C | 76.8% | 20.4°C | 2374ft (724m) | 12.61v | 31 |
| 3244 | 15 Apr 05:08:33 | 8 | 8.9 mph | 10 | SSW (198°) | 99550 | 101697 | 24.8°C | 76.7% | 20.4°C | 2383ft (726m) | 12.61v | 31 |
| 3243 | 15 Apr 05:08:22 | 8 | 10 mph | 13 | SSW (207°) | 99551 | 101698 | 24.8°C | 76.6% | 20.4°C | 2391ft (729m) | 12.62v | 31 |
| 3242 | 15 Apr 05:08:10 | 8 | 9.9 mph | 12 | SSW (200°) | 99548 | 101695 | 24.8°C | 76.7% | 20.4°C | 2383ft (726m) | 12.59v | 31 |
| 3241 | 15 Apr 05:07:59 | 8 | 8.3 mph | 9 | SSW (213°) | 99550 | 101697 | 24.8°C | 76.7% | 20.4°C | 2383ft (726m) | 12.58v | 31 |
| 3240 | 15 Apr 05:07:48 | 7 | 7.7 mph | 9 | SSW (211°) | 99550 | 101697 | 24.8°C | 76.7% | 20.4°C | 2383ft (726m) | 12.6v | 31 |
| 3239 | 15 Apr 05:07:37 | 7 | 8 mph | 9 | SW (214°) | 99550 | 101697 | 24.8°C | 76.6% | 20.4°C | 2391ft (729m) | 12.59v | 31 |
| 3238 | 15 Apr 05:07:25 | 8 | 9.1 mph | 10 | SSW (207°) | 99549 | 101696 | 24.8°C | 76.6% | 20.4°C | 2391ft (729m) | 12.62v | 31 |
| 3237 | 15 Apr 05:07:14 | 7 | 6.8 mph | 7 | SSW (213°) | 99550 | 101697 | 24.8°C | 76.7% | 20.4°C | 2383ft (726m) | 12.61v | 31 |
| 3236 | 15 Apr 05:07:03 | 7 | 7.4 mph | 8 | SSW (200°) | 99551 | 101698 | 24.8°C | 76.8% | 20.4°C | 2374ft (724m) | 12.6v | 31 |
| 3235 | 15 Apr 05:06:52 | 7 | 8.8 mph | 10 | SSW (203°) | 99550 | 101697 | 24.8°C | 76.7% | 20.4°C | 2383ft (726m) | 12.59v | 31 |
| 3234 | 15 Apr 05:06:40 | 6 | 7 mph | 8 | SSW (212°) | 99552 | 101699 | 24.8°C | 76.8% | 20.4°C | 2374ft (724m) | 12.59v | 31 |
| 3233 | 15 Apr 05:06:29 | 7 | 8.6 mph | 11 | SSW (209°) | 99551 | 101698 | 24.8°C | 76.8% | 20.4°C | 2374ft (724m) | 12.59v | 31 |
| 3232 | 15 Apr 05:06:18 | 8 | 9.3 mph | 11 | SSW (210°) | 99550 | 101697 | 24.8°C | 76.8% | 20.4°C | 2374ft (724m) | 12.61v | 31 |
| 3231 | 15 Apr 05:06:07 | 8 | 8.6 mph | 9 | SSW (201°) | 99548 | 101695 | 24.8°C | 76.8% | 20.4°C | 2374ft (724m) | 12.61v | 31 |
| 3230 | 15 Apr 05:05:55 | 10 | 10.5 mph | 11 | SSW (200°) | 99549 | 101696 | 24.8°C | 76.7% | 20.4°C | 2383ft (726m) | 12.6v | 31 |
| 3229 | 15 Apr 05:05:44 | 8 | 9.3 mph | 12 | SSW (202°) | 99549 | 101696 | 24.8°C | 76.7% | 20.4°C | 2383ft (726m) | 12.61v | 31 |
| 3228 | 15 Apr 05:05:33 | 10 | 11 mph | 13 | SSW (202°) | 99547 | 101694 | 24.8°C | 76.8% | 20.4°C | 2374ft (724m) | 12.6v | 31 |
| 3227 | 15 Apr 05:05:22 | 12 | 12.4 mph | 14 | SSW (203°) | 99548 | 101695 | 24.8°C | 76.7% | 20.4°C | 2383ft (726m) | 12.61v | 31 |
| 3226 | 15 Apr 05:05:10 | 8 | 10.4 mph | 13 | SSW (198°) | 99547 | 101694 | 24.8°C | 76.6% | 20.4°C | 2391ft (729m) | 12.6v | 31 |
| 3225 | 15 Apr 05:04:59 | 10 | 10.8 mph | 12 | SSW (198°) | 99545 | 101692 | 24.8°C | 76.6% | 20.4°C | 2391ft (729m) | 12.6v | 31 |
| 3224 | 15 Apr 05:04:48 | 9 | 9.6 mph | 12 | SSW (204°) | 99547 | 101694 | 24.8°C | 76.7% | 20.4°C | 2383ft (726m) | 12.59v | 31 |
| 3223 | 15 Apr 05:04:37 | 8 | 8.1 mph | 9 | SSW (205°) | 99546 | 101693 | 24.8°C | 76.7% | 20.4°C | 2383ft (726m) | 12.62v | 31 |
| 3222 | 15 Apr 05:04:25 | 5 | 7.4 mph | 10 | SSW (208°) | 99549 | 101696 | 24.8°C | 76.8% | 20.4°C | 2374ft (724m) | 12.61v | 31 |
| 3221 | 15 Apr 05:04:14 | 5 | 7.3 mph | 10 | SSW (203°) | 99550 | 101697 | 24.8°C | 76.7% | 20.4°C | 2383ft (726m) | 12.61v | 31 |
| 3220 | 15 Apr 05:04:03 | 9 | 10 mph | 12 | SSW (199°) | 99550 | 101697 | 24.8°C | 76.7% | 20.4°C | 2383ft (726m) | 12.62v | 31 |
| 3219 | 15 Apr 05:03:52 | 7 | 9.8 mph | 12 | SSW (199°) | 99549 | 101696 | 24.8°C | 76.6% | 20.4°C | 2391ft (729m) | 12.6v | 31 |
| 3218 | 15 Apr 05:03:40 | 6 | 7.4 mph | 9 | SSW (210°) | 99548 | 101695 | 24.8°C | 76.7% | 20.4°C | 2383ft (726m) | 12.6v | 31 |
| 3217 | 15 Apr 05:03:29 | 6 | 7.5 mph | 9 | SSW (213°) | 99551 | 101698 | 24.8°C | 76.6% | 20.4°C | 2391ft (729m) | 12.59v | 31 |
| 3216 | 15 Apr 05:03:18 | 9 | 10.4 mph | 12 | SSW (205°) | 99546 | 101693 | 24.8°C | 76.7% | 20.4°C | 2383ft (726m) | 12.6v | 31 |
| 3215 | 15 Apr 05:03:07 | 9 | 10 mph | 12 | SSW (202°) | 99544 | 101691 | 24.8°C | 76.6% | 20.4°C | 2391ft (729m) | 12.61v | 31 |
| 3214 | 15 Apr 05:02:55 | 9 | 11.1 mph | 12 | SSW (202°) | 99547 | 101694 | 24.8°C | 76.5% | 20.4°C | 2400ft (732m) | 12.6v | 31 |
| 3213 | 15 Apr 05:02:44 | 9 | 9 mph | 9 | SSW (207°) | 99549 | 101696 | 24.8°C | 76.5% | 20.4°C | 2400ft (732m) | 12.61v | 31 |
| 3212 | 15 Apr 05:02:33 | 8 | 8.8 mph | 10 | SSW (208°) | 99546 | 101693 | 24.8°C | 76.6% | 20.4°C | 2391ft (729m) | 12.61v | 31 |
| 3211 | 15 Apr 05:02:22 | 9 | 10.2 mph | 12 | SSW (205°) | 99547 | 101694 | 24.8°C | 76.5% | 20.4°C | 2400ft (732m) | 12.61v | 31 |
| 3210 | 15 Apr 05:02:10 | 7 | 6.9 mph | 8 | SSW (210°) | 99548 | 101695 | 24.8°C | 76.7% | 20.4°C | 2383ft (726m) | 12.61v | 31 |
| 3209 | 15 Apr 05:01:59 | 7 | 8.6 mph | 11 | SSW (207°) | 99548 | 101695 | 24.8°C | 76.7% | 20.4°C | 2383ft (726m) | 12.6v | 31 |
| 3208 | 15 Apr 05:01:48 | 8 | 9.6 mph | 11 | SSW (211°) | 99543 | 101690 | 24.8°C | 76.7% | 20.4°C | 2383ft (726m) | 12.59v | 31 |
| 3207 | 15 Apr 05:01:37 | 10 | 10.7 mph | 12 | SSW (200°) | 99546 | 101693 | 24.8°C | 76.7% | 20.4°C | 2383ft (726m) | 12.6v | 31 |
| 3206 | 15 Apr 05:01:25 | 12 | 12.9 mph | 14 | SSW (194°) | 99548 | 101695 | 24.8°C | 76.6% | 20.4°C | 2391ft (729m) | 12.59v | 31 |
| 3205 | 15 Apr 05:01:14 | 8 | 9.4 mph | 11 | SSW (195°) | 99548 | 101695 | 24.8°C | 76.7% | 20.4°C | 2383ft (726m) | 12.61v | 31 |
| 3204 | 15 Apr 05:01:03 | 7 | 8.3 mph | 9 | SSW (199°) | 99546 | 101693 | 24.8°C | 76.7% | 20.4°C | 2383ft (726m) | 12.6v | 31 |
| 3203 | 15 Apr 05:00:52 | 6 | 7.7 mph | 11 | SSW (195°) | 99544 | 101691 | 24.8°C | 76.6% | 20.4°C | 2391ft (729m) | 12.61v | 31 |
| 3202 | 15 Apr 05:00:40 | 7 | 8.1 mph | 9 | SSW (197°) | 99544 | 101691 | 24.8°C | 76.7% | 20.4°C | 2383ft (726m) | 12.61v | 31 |
| 3201 | 15 Apr 05:00:29 | 6 | 7.2 mph | 9 | SSW (200°) | 99546 | 101693 | 24.8°C | 76.7% | 20.4°C | 2383ft (726m) | 12.6v | 31 |
| 3200 | 15 Apr 05:00:18 | 9 | 9.8 mph | 11 | SSW (192°) | 99546 | 101693 | 24.8°C | 76.8% | 20.4°C | 2374ft (724m) | 12.59v | 31 |
| 3199 | 15 Apr 05:00:07 | 5 | 7.1 mph | 10 | SSW (200°) | 99545 | 101692 | 24.8°C | 76.9% | 20.5°C | 2365ft (721m) | 12.6v | 31 |
| 3198 | 15 Apr 04:59:55 | 6 | 7.7 mph | 10 | SSW (199°) | 99547 | 101694 | 24.8°C | 76.9% | 20.5°C | 2365ft (721m) | 12.62v | 31 |
| 3197 | 15 Apr 04:59:44 | 6 | 7 mph | 8 | SSW (196°) | 99541 | 101688 | 24.8°C | 76.9% | 20.5°C | 2365ft (721m) | 12.61v | 31 |
| 3196 | 15 Apr 04:59:33 | 8 | 8.7 mph | 10 | SSW (213°) | 99543 | 101690 | 24.8°C | 76.8% | 20.4°C | 2374ft (724m) | 12.61v | 31 |
| 3195 | 15 Apr 04:59:22 | 8 | 9.2 mph | 11 | SSW (208°) | 99542 | 101689 | 24.8°C | 76.8% | 20.4°C | 2374ft (724m) | 12.6v | 31 |
| 3194 | 15 Apr 04:59:10 | 8 | 9.6 mph | 12 | SSW (194°) | 99541 | 101688 | 24.8°C | 76.7% | 20.4°C | 2383ft (726m) | 12.6v | 31 |
| 3193 | 15 Apr 04:58:59 | 11 | 11.9 mph | 13 | SSW (201°) | 99541 | 101688 | 24.8°C | 76.8% | 20.4°C | 2374ft (724m) | 12.61v | 31 |
| 3192 | 15 Apr 04:58:48 | 7 | 9 mph | 11 | SSW (204°) | 99537 | 101684 | 24.8°C | 76.7% | 20.4°C | 2383ft (726m) | 12.58v | 31 |
| 3191 | 15 Apr 04:58:37 | 6 | 6.6 mph | 8 | SW (214°) | 99545 | 101692 | 24.8°C | 76.9% | 20.5°C | 2365ft (721m) | 12.61v | 31 |
| 3190 | 15 Apr 04:58:25 | 4 | 6.7 mph | 9 | SW (220°) | 99542 | 101689 | 24.8°C | 76.9% | 20.5°C | 2365ft (721m) | 12.6v | 31 |
| 3189 | 15 Apr 04:58:14 | 5 | 5.1 mph | 7 | SW (235°) | 99543 | 101690 | 24.8°C | 76.9% | 20.5°C | 2365ft (721m) | 12.62v | 31 |
| 3188 | 15 Apr 04:58:03 | 7 | 8.2 mph | 9 | SSW (208°) | 99541 | 101688 | 24.8°C | 76.8% | 20.4°C | 2374ft (724m) | 12.6v | 31 |
| 3187 | 15 Apr 04:57:52 | 7 | 9.2 mph | 12 | SSW (201°) | 99546 | 101693 | 24.8°C | 76.7% | 20.4°C | 2383ft (726m) | 12.62v | 31 |
| 3186 | 15 Apr 04:57:40 | 11 | 11 mph | 12 | SSW (205°) | 99549 | 101696 | 24.8°C | 76.6% | 20.4°C | 2391ft (729m) | 12.62v | 31 |
| 3185 | 15 Apr 04:57:29 | 7 | 8.7 mph | 11 | SSW (201°) | 99550 | 101697 | 24.8°C | 76.7% | 20.4°C | 2383ft (726m) | 12.61v | 31 |
| 3184 | 15 Apr 04:57:18 | 7 | 8.4 mph | 10 | SSW (206°) | 99548 | 101695 | 24.8°C | 76.8% | 20.4°C | 2374ft (724m) | 12.59v | 31 |
| 3183 | 15 Apr 04:57:07 | 7 | 8.2 mph | 10 | SSW (211°) | 99548 | 101695 | 24.8°C | 76.8% | 20.4°C | 2374ft (724m) | 12.6v | 31 |
| 3182 | 15 Apr 04:56:55 | 7 | 8.2 mph | 10 | SSW (204°) | 99544 | 101691 | 24.8°C | 76.8% | 20.4°C | 2374ft (724m) | 12.59v | 31 |
| 3181 | 15 Apr 04:56:44 | 8 | 8.2 mph | 9 | SSW (204°) | 99547 | 101694 | 24.8°C | 76.8% | 20.4°C | 2374ft (724m) | 12.63v | 31 |
| 3180 | 15 Apr 04:56:33 | 7 | 8.2 mph | 9 | SSW (206°) | 99545 | 101692 | 24.8°C | 77% | 20.5°C | 2357ft (718m) | 12.61v | 31 |
| 3179 | 15 Apr 04:56:22 | 6 | 6.8 mph | 8 | S (191°) | 99544 | 101691 | 24.8°C | 77% | 20.5°C | 2357ft (718m) | 12.61v | 31 |
| 3178 | 15 Apr 04:56:10 | 8 | 9.5 mph | 11 | SSW (204°) | 99545 | 101692 | 24.8°C | 76.8% | 20.4°C | 2374ft (724m) | 12.61v | 31 |
| 3177 | 15 Apr 04:55:59 | 6 | 6.4 mph | 9 | SSW (192°) | 99549 | 101696 | 24.8°C | 76.9% | 20.5°C | 2365ft (721m) | 12.61v | 31 |
| 3176 | 15 Apr 04:55:48 | 7 | 8.4 mph | 11 | SSW (209°) | 99547 | 101694 | 24.8°C | 76.8% | 20.4°C | 2374ft (724m) | 12.58v | 31 |
| 3175 | 15 Apr 04:55:37 | 7 | 8.5 mph | 11 | SSW (199°) | 99546 | 101693 | 24.8°C | 76.9% | 20.5°C | 2365ft (721m) | 12.61v | 31 |
| 3174 | 15 Apr 04:55:25 | 8 | 9.8 mph | 11 | SSW (200°) | 99546 | 101693 | 24.8°C | 76.8% | 20.4°C | 2374ft (724m) | 12.6v | 31 |
| 3173 | 15 Apr 04:55:14 | 9 | 10 mph | 11 | SSW (201°) | 99549 | 101696 | 24.8°C | 76.8% | 20.4°C | 2374ft (724m) | 12.61v | 31 |
| 3172 | 15 Apr 04:55:03 | 9 | 10.1 mph | 12 | SSW (196°) | 99551 | 101698 | 24.7°C | 76.9% | 20.4°C | 2364ft (721m) | 12.61v | 31 |
| 3171 | 15 Apr 04:54:52 | 8 | 9.9 mph | 13 | SSW (199°) | 99550 | 101697 | 24.7°C | 76.8% | 20.4°C | 2373ft (723m) | 12.61v | 31 |
| 3170 | 15 Apr 04:54:40 | 8 | 9.8 mph | 12 | SSW (201°) | 99546 | 101693 | 24.7°C | 76.9% | 20.4°C | 2364ft (721m) | 12.6v | 31 |
| 3169 | 15 Apr 04:54:29 | 10 | 10.1 mph | 12 | S (190°) | 99547 | 101694 | 24.8°C | 76.9% | 20.5°C | 2365ft (721m) | 12.62v | 31 |
| 3168 | 15 Apr 04:54:18 | 7 | 7.8 mph | 9 | SSW (202°) | 99548 | 101695 | 24.8°C | 76.9% | 20.5°C | 2365ft (721m) | 12.6v | 31 |
| 3167 | 15 Apr 04:54:07 | 8 | 9 mph | 10 | SSW (204°) | 99548 | 101695 | 24.8°C | 77% | 20.5°C | 2357ft (718m) | 12.6v | 31 |
| 3166 | 15 Apr 04:53:55 | 7 | 7.8 mph | 9 | SSW (204°) | 99548 | 101695 | 24.7°C | 77.1% | 20.4°C | 2347ft (715m) | 12.6v | 31 |
| 3165 | 15 Apr 04:53:44 | 7 | 7.3 mph | 8 | SSW (205°) | 99550 | 101697 | 24.7°C | 77.1% | 20.4°C | 2347ft (715m) | 12.62v | 31 |
| 3164 | 15 Apr 04:53:33 | 4 | 5.7 mph | 8 | SSW (209°) | 99552 | 101699 | 24.7°C | 77.2% | 20.4°C | 2338ft (713m) | 12.61v | 31 |
| 3163 | 15 Apr 04:53:22 | 5 | 4.9 mph | 5 | SSW (213°) | 99552 | 101699 | 24.7°C | 77.2% | 20.4°C | 2338ft (713m) | 12.61v | 31 |
| 3162 | 15 Apr 04:53:10 | 5 | 7.3 mph | 10 | SSW (206°) | 99551 | 101698 | 24.7°C | 77% | 20.4°C | 2355ft (718m) | 12.62v | 31 |
| 3161 | 15 Apr 04:52:59 | 7 | 9.3 mph | 12 | SSW (206°) | 99548 | 101695 | 24.7°C | 77% | 20.4°C | 2355ft (718m) | 12.61v | 31 |
| 3160 | 15 Apr 04:52:48 | 9 | 9.3 mph | 10 | S (189°) | 99549 | 101696 | 24.7°C | 76.9% | 20.4°C | 2364ft (721m) | 12.6v | 31 |
| 3159 | 15 Apr 04:52:37 | 7 | 9.2 mph | 11 | SSW (196°) | 99548 | 101695 | 24.7°C | 76.8% | 20.4°C | 2373ft (723m) | 12.59v | 31 |
| 3158 | 15 Apr 04:52:25 | 7 | 9.1 mph | 11 | SSW (199°) | 99550 | 101697 | 24.7°C | 76.9% | 20.4°C | 2364ft (721m) | 12.6v | 31 |
| 3157 | 15 Apr 04:52:14 | 9 | 9.9 mph | 11 | SSW (208°) | 99547 | 101694 | 24.7°C | 77% | 20.4°C | 2355ft (718m) | 12.61v | 31 |
| 3156 | 15 Apr 04:52:03 | 8 | 9 mph | 11 | SSW (205°) | 99550 | 101697 | 24.7°C | 77% | 20.4°C | 2355ft (718m) | 12.62v | 31 |
| 3155 | 15 Apr 04:51:52 | 10 | 12.2 mph | 13 | S (190°) | 99553 | 101700 | 24.7°C | 76.9% | 20.4°C | 2364ft (721m) | 12.6v | 31 |
| 3154 | 15 Apr 04:51:40 | 8 | 8.8 mph | 12 | SSW (195°) | 99554 | 101701 | 24.7°C | 77% | 20.4°C | 2355ft (718m) | 12.61v | 31 |
| 3153 | 15 Apr 04:51:29 | 6 | 7.7 mph | 9 | SSW (197°) | 99551 | 101698 | 24.7°C | 77.1% | 20.4°C | 2347ft (715m) | 12.61v | 31 |
| 3152 | 15 Apr 04:51:19 | 8 | 8.3 mph | 10 | SSW (206°) | 99549 | 101696 | 24.7°C | 77.1% | 20.4°C | 2347ft (715m) | 12.6v | 31 |
| 3151 | 15 Apr 04:51:07 | 8 | 9.1 mph | 11 | S (191°) | 99548 | 101695 | 24.7°C | 77.2% | 20.4°C | 2338ft (713m) | 12.59v | 31 |
| 3150 | 15 Apr 04:50:56 | 9 | 11.3 mph | 13 | SSW (194°) | 99552 | 101699 | 24.7°C | 77.1% | 20.4°C | 2347ft (715m) | 12.61v | 31 |
| 3149 | 15 Apr 04:50:45 | 8 | 10.1 mph | 11 | SSW (207°) | 99547 | 101694 | 24.7°C | 77.1% | 20.4°C | 2347ft (715m) | 12.61v | 31 |
| 3148 | 15 Apr 04:50:34 | 8 | 8.5 mph | 10 | SSW (201°) | 99550 | 101697 | 24.7°C | 77% | 20.4°C | 2355ft (718m) | 12.61v | 31 |
| 3147 | 15 Apr 04:50:22 | 7 | 8.4 mph | 10 | SSW (199°) | 99551 | 101698 | 24.7°C | 77.1% | 20.4°C | 2347ft (715m) | 12.61v | 31 |
| 3146 | 15 Apr 04:50:11 | 8 | 9.7 mph | 12 | SSW (207°) | 99550 | 101697 | 24.7°C | 77.1% | 20.4°C | 2347ft (715m) | 12.61v | 31 |
| 3145 | 15 Apr 04:50:00 | 8 | 8.5 mph | 10 | SSW (210°) | 99547 | 101694 | 24.7°C | 77.1% | 20.4°C | 2347ft (715m) | 12.62v | 31 |
| 3144 | 15 Apr 04:49:49 | 8 | 10.9 mph | 13 | SSW (207°) | 99547 | 101694 | 24.7°C | 77% | 20.4°C | 2355ft (718m) | 12.61v | 31 |
| 3143 | 15 Apr 04:49:37 | 8 | 9.7 mph | 11 | SSW (209°) | 99550 | 101697 | 24.7°C | 77% | 20.4°C | 2355ft (718m) | 12.61v | 31 |
| 3142 | 15 Apr 04:49:26 | 5 | 6.8 mph | 9 | SSW (208°) | 99553 | 101700 | 24.7°C | 77% | 20.4°C | 2355ft (718m) | 12.6v | 31 |
| 3141 | 15 Apr 04:49:15 | 7 | 9.1 mph | 11 | SSW (213°) | 99550 | 101697 | 24.7°C | 77% | 20.4°C | 2355ft (718m) | 12.61v | 31 |
| 3140 | 15 Apr 04:49:04 | 9 | 10.9 mph | 14 | SW (217°) | 99551 | 101698 | 24.7°C | 77.1% | 20.4°C | 2347ft (715m) | 12.62v | 31 |
| 3139 | 15 Apr 04:48:52 | 7 | 9.4 mph | 12 | SW (216°) | 99553 | 101700 | 24.7°C | 77.1% | 20.4°C | 2347ft (715m) | 12.62v | 31 |
| 3138 | 15 Apr 04:48:41 | 9 | 11.6 mph | 14 | SSW (200°) | 99548 | 101695 | 24.7°C | 77% | 20.4°C | 2355ft (718m) | 12.61v | 31 |
| 3137 | 15 Apr 04:48:30 | 8 | 9 mph | 11 | SSW (194°) | 99550 | 101697 | 24.7°C | 77% | 20.4°C | 2355ft (718m) | 12.61v | 31 |
| 3136 | 15 Apr 04:48:18 | 9 | 9.5 mph | 10 | SSW (193°) | 99550 | 101697 | 24.7°C | 77% | 20.4°C | 2355ft (718m) | 12.62v | 31 |
| 3135 | 15 Apr 04:48:07 | 12 | 12.7 mph | 14 | SSW (192°) | 99551 | 101698 | 24.7°C | 76.8% | 20.4°C | 2373ft (723m) | 12.6v | 31 |
| 3134 | 15 Apr 04:47:55 | 10 | 10.9 mph | 12 | S (186°) | 99545 | 101692 | 24.7°C | 77% | 20.4°C | 2355ft (718m) | 12.61v | 31 |
| 3133 | 15 Apr 04:47:44 | 9 | 9.8 mph | 11 | SSW (200°) | 99553 | 101700 | 24.7°C | 76.9% | 20.4°C | 2364ft (721m) | 12.6v | 31 |
| 3132 | 15 Apr 04:47:33 | 7 | 9.6 mph | 12 | SSW (204°) | 99550 | 101697 | 24.7°C | 76.9% | 20.4°C | 2364ft (721m) | 12.61v | 31 |
| 3131 | 15 Apr 04:47:22 | 6 | 6.3 mph | 7 | SSW (204°) | 99554 | 101701 | 24.7°C | 77.2% | 20.4°C | 2338ft (713m) | 12.61v | 31 |
| 3130 | 15 Apr 04:47:10 | 7 | 8.3 mph | 10 | SSW (201°) | 99553 | 101700 | 24.7°C | 77.1% | 20.4°C | 2347ft (715m) | 12.61v | 31 |
| 3129 | 15 Apr 04:46:59 | 7 | 7.7 mph | 9 | SSW (197°) | 99550 | 101697 | 24.7°C | 77.1% | 20.4°C | 2347ft (715m) | 12.61v | 31 |
| 3128 | 15 Apr 04:46:48 | 5 | 6.9 mph | 10 | SW (218°) | 99550 | 101697 | 24.7°C | 77.1% | 20.4°C | 2347ft (715m) | 12.6v | 31 |
| 3127 | 15 Apr 04:46:37 | 5 | 5.3 mph | 6 | SW (215°) | 99552 | 101699 | 24.7°C | 77.1% | 20.4°C | 2347ft (715m) | 12.6v | 31 |
| 3126 | 15 Apr 04:46:25 | 4 | 5.2 mph | 6 | SW (218°) | 99554 | 101701 | 24.8°C | 77% | 20.5°C | 2357ft (718m) | 12.6v | 31 |
| 3125 | 15 Apr 04:46:14 | 6 | 6.9 mph | 8 | SW (216°) | 99549 | 101696 | 24.7°C | 77.1% | 20.4°C | 2347ft (715m) | 12.6v | 31 |
| 3124 | 15 Apr 04:46:03 | 5 | 6.1 mph | 7 | SSW (208°) | 99549 | 101696 | 24.7°C | 77.1% | 20.4°C | 2347ft (715m) | 12.61v | 31 |
| 3123 | 15 Apr 04:45:52 | 6 | 5.9 mph | 6 | SSW (199°) | 99550 | 101697 | 24.7°C | 77.2% | 20.4°C | 2338ft (713m) | 12.62v | 31 |
| 3122 | 15 Apr 04:45:40 | 7 | 7.7 mph | 10 | SW (219°) | 99550 | 101697 | 24.7°C | 77.1% | 20.4°C | 2347ft (715m) | 12.61v | 31 |
| 3121 | 15 Apr 04:45:29 | 8 | 10 mph | 13 | SW (218°) | 99550 | 101697 | 24.7°C | 77.1% | 20.4°C | 2347ft (715m) | 12.62v | 31 |
| 3120 | 15 Apr 04:45:18 | 6 | 6.8 mph | 8 | SSW (212°) | 99549 | 101696 | 24.7°C | 77.2% | 20.4°C | 2338ft (713m) | 12.61v | 31 |
| 3119 | 15 Apr 04:45:07 | 8 | 7.8 mph | 8 | SSW (210°) | 99548 | 101695 | 24.7°C | 77.2% | 20.4°C | 2338ft (713m) | 12.61v | 31 |
| 3118 | 15 Apr 04:44:55 | 8 | 9 mph | 11 | SSW (208°) | 99550 | 101697 | 24.7°C | 77.2% | 20.4°C | 2338ft (713m) | 12.61v | 31 |
| 3117 | 15 Apr 04:44:44 | 10 | 10.9 mph | 12 | SSW (213°) | 99548 | 101695 | 24.7°C | 77% | 20.4°C | 2355ft (718m) | 12.6v | 31 |
| 3116 | 15 Apr 04:44:33 | 5 | 7.1 mph | 10 | SSW (206°) | 99541 | 101688 | 24.7°C | 77.1% | 20.4°C | 2347ft (715m) | 12.61v | 31 |
| 3115 | 15 Apr 04:44:22 | 9 | 9.6 mph | 11 | SSW (207°) | 99548 | 101695 | 24.7°C | 77.1% | 20.4°C | 2347ft (715m) | 12.62v | 31 |
| 3114 | 15 Apr 04:44:10 | 9 | 9.9 mph | 12 | SSW (203°) | 99545 | 101692 | 24.7°C | 77% | 20.4°C | 2355ft (718m) | 12.62v | 31 |
| 3113 | 15 Apr 04:43:59 | 7 | 8.1 mph | 9 | SSW (202°) | 99549 | 101696 | 24.7°C | 76.9% | 20.4°C | 2364ft (721m) | 12.61v | 31 |
| 3112 | 15 Apr 04:43:48 | 8 | 8.3 mph | 9 | SSW (205°) | 99546 | 101693 | 24.7°C | 77.2% | 20.4°C | 2338ft (713m) | 12.61v | 31 |
| 3111 | 15 Apr 04:43:37 | 4 | 5.6 mph | 7 | SSW (211°) | 99548 | 101695 | 24.7°C | 77.3% | 20.5°C | 2330ft (710m) | 12.62v | 31 |
| 3110 | 15 Apr 04:43:25 | 6 | 7.1 mph | 9 | SSW (210°) | 99549 | 101696 | 24.7°C | 77.3% | 20.5°C | 2330ft (710m) | 12.62v | 31 |
| 3109 | 15 Apr 04:43:14 | 6 | 9.1 mph | 11 | SSW (202°) | 99545 | 101692 | 24.7°C | 77.1% | 20.4°C | 2347ft (715m) | 12.62v | 31 |
| 3108 | 15 Apr 04:43:03 | 6 | 7.5 mph | 9 | SW (214°) | 99545 | 101692 | 24.7°C | 77.2% | 20.4°C | 2338ft (713m) | 12.61v | 31 |
| 3107 | 15 Apr 04:42:52 | 7 | 7.8 mph | 9 | SSW (206°) | 99542 | 101689 | 24.7°C | 77.2% | 20.4°C | 2338ft (713m) | 12.62v | 31 |
| 3106 | 15 Apr 04:42:40 | 6 | 6.5 mph | 9 | SW (214°) | 99545 | 101692 | 24.7°C | 77.2% | 20.4°C | 2338ft (713m) | 12.62v | 31 |
| 3105 | 15 Apr 04:42:29 | 5 | 5.7 mph | 7 | SW (218°) | 99548 | 101695 | 24.7°C | 77.3% | 20.5°C | 2330ft (710m) | 12.61v | 31 |
| 3104 | 15 Apr 04:42:18 | 7 | 7.2 mph | 8 | SW (215°) | 99544 | 101691 | 24.7°C | 77.4% | 20.5°C | 2321ft (707m) | 12.62v | 31 |
| 3103 | 15 Apr 04:42:07 | 5 | 5.9 mph | 8 | SSW (210°) | 99545 | 101692 | 24.7°C | 77.4% | 20.5°C | 2321ft (707m) | 12.6v | 31 |
| 3102 | 15 Apr 04:41:55 | 5 | 5.5 mph | 6 | SSW (210°) | 99543 | 101690 | 24.7°C | 77.3% | 20.5°C | 2330ft (710m) | 12.61v | 31 |
| 3101 | 15 Apr 04:41:44 | 7 | 7.7 mph | 9 | SSW (201°) | 99546 | 101693 | 24.7°C | 77.3% | 20.5°C | 2330ft (710m) | 12.6v | 31 |
| 3100 | 15 Apr 04:41:33 | 8 | 8.9 mph | 11 | SSW (207°) | 99544 | 101691 | 24.7°C | 77.2% | 20.4°C | 2338ft (713m) | 12.61v | 31 |
| 3099 | 15 Apr 04:41:22 | 9 | 10.5 mph | 12 | SSW (207°) | 99542 | 101689 | 24.7°C | 77.2% | 20.4°C | 2338ft (713m) | 12.62v | 31 |
| 3098 | 15 Apr 04:41:10 | 9 | 10.6 mph | 12 | SSW (202°) | 99538 | 101685 | 24.7°C | 77.1% | 20.4°C | 2347ft (715m) | 12.62v | 31 |
| 3097 | 15 Apr 04:40:59 | 12 | 12.2 mph | 13 | S (189°) | 99537 | 101684 | 24.7°C | 77.1% | 20.4°C | 2347ft (715m) | 12.61v | 31 |
| 3096 | 15 Apr 04:40:48 | 8 | 9.3 mph | 11 | SSW (200°) | 99543 | 101690 | 24.7°C | 77.2% | 20.4°C | 2338ft (713m) | 12.61v | 31 |
| 3095 | 15 Apr 04:40:37 | 7 | 7.8 mph | 10 | SSW (204°) | 99543 | 101690 | 24.7°C | 77.1% | 20.4°C | 2347ft (715m) | 12.61v | 31 |
| 3094 | 15 Apr 04:40:25 | 8 | 8.5 mph | 9 | S (191°) | 99537 | 101684 | 24.7°C | 77.2% | 20.4°C | 2338ft (713m) | 12.61v | 31 |
| 3093 | 15 Apr 04:40:14 | 7 | 7.9 mph | 10 | SSW (202°) | 99541 | 101688 | 24.7°C | 77.2% | 20.4°C | 2338ft (713m) | 12.6v | 31 |
| 3092 | 15 Apr 04:40:03 | 8 | 10.4 mph | 12 | SSW (205°) | 99540 | 101687 | 24.7°C | 77.1% | 20.4°C | 2347ft (715m) | 12.6v | 31 |
| 3091 | 15 Apr 04:39:52 | 6 | 7.6 mph | 10 | SSW (207°) | 99543 | 101690 | 24.7°C | 77.3% | 20.5°C | 2330ft (710m) | 12.62v | 31 |
| 3090 | 15 Apr 04:39:40 | 6 | 8.5 mph | 10 | SSW (208°) | 99541 | 101688 | 24.7°C | 77.2% | 20.4°C | 2338ft (713m) | 12.6v | 31 |
| 3089 | 15 Apr 04:39:29 | 7 | 8.1 mph | 10 | SSW (201°) | 99538 | 101685 | 24.7°C | 77.2% | 20.4°C | 2338ft (713m) | 12.63v | 31 |
| 3088 | 15 Apr 04:39:18 | 7 | 8.5 mph | 11 | SSW (202°) | 99542 | 101689 | 24.7°C | 77.2% | 20.4°C | 2338ft (713m) | 12.61v | 31 |
| 3087 | 15 Apr 04:39:07 | 8 | 9.3 mph | 11 | SSW (205°) | 99540 | 101687 | 24.7°C | 77.2% | 20.4°C | 2338ft (713m) | 12.6v | 31 |
| 3086 | 15 Apr 04:38:55 | 6 | 6.4 mph | 7 | SSW (209°) | 99540 | 101687 | 24.7°C | 77.4% | 20.5°C | 2321ft (707m) | 12.61v | 31 |
| 3085 | 15 Apr 04:38:44 | 7 | 7.5 mph | 9 | SSW (205°) | 99543 | 101690 | 24.7°C | 77.3% | 20.5°C | 2330ft (710m) | 12.6v | 31 |
| 3084 | 15 Apr 04:38:33 | 7 | 8.1 mph | 9 | SSW (207°) | 99543 | 101690 | 24.7°C | 77.3% | 20.5°C | 2330ft (710m) | 12.6v | 31 |
| 3083 | 15 Apr 04:38:22 | 7 | 8.4 mph | 10 | SSW (199°) | 99538 | 101685 | 24.7°C | 77.3% | 20.5°C | 2330ft (710m) | 12.62v | 31 |
| 3082 | 15 Apr 04:38:10 | 7 | 8.6 mph | 10 | SSW (200°) | 99542 | 101689 | 24.7°C | 77.3% | 20.5°C | 2330ft (710m) | 12.61v | 31 |
| 3081 | 15 Apr 04:37:59 | 7 | 8.8 mph | 10 | SW (214°) | 99539 | 101686 | 24.7°C | 77.4% | 20.5°C | 2321ft (707m) | 12.61v | 31 |
| 3080 | 15 Apr 04:37:48 | 8 | 8.6 mph | 9 | SSW (210°) | 99541 | 101688 | 24.7°C | 77.3% | 20.5°C | 2330ft (710m) | 12.62v | 31 |
| 3079 | 15 Apr 04:37:37 | 7 | 8.6 mph | 10 | SSW (212°) | 99540 | 101687 | 24.7°C | 77.4% | 20.5°C | 2321ft (707m) | 12.61v | 31 |
| 3078 | 15 Apr 04:37:25 | 9 | 8.8 mph | 10 | SSW (205°) | 99536 | 101683 | 24.7°C | 77.3% | 20.5°C | 2330ft (710m) | 12.6v | 31 |
| 3077 | 15 Apr 04:37:14 | 9 | 9.2 mph | 10 | SSW (211°) | 99540 | 101687 | 24.7°C | 77.5% | 20.5°C | 2312ft (705m) | 12.61v | 31 |
| 3076 | 15 Apr 04:37:03 | 8 | 9.1 mph | 10 | SSW (194°) | 99537 | 101684 | 24.7°C | 77.4% | 20.5°C | 2321ft (707m) | 12.6v | 31 |
| 3075 | 15 Apr 04:36:52 | 7 | 9.1 mph | 10 | SSW (207°) | 99540 | 101687 | 24.6°C | 77.4% | 20.4°C | 2320ft (707m) | 12.61v | 31 |
| 3074 | 15 Apr 04:36:40 | 9 | 9.7 mph | 11 | SSW (204°) | 99538 | 101685 | 24.6°C | 77.4% | 20.4°C | 2320ft (707m) | 12.62v | 31 |
| 3073 | 15 Apr 04:36:29 | 9 | 9.5 mph | 11 | SSW (203°) | 99534 | 101681 | 24.6°C | 77.4% | 20.4°C | 2320ft (707m) | 12.61v | 31 |
| 3072 | 15 Apr 04:36:18 | 8 | 9.6 mph | 10 | SSW (199°) | 99540 | 101687 | 24.7°C | 77.3% | 20.5°C | 2330ft (710m) | 12.61v | 31 |
| 3071 | 15 Apr 04:36:07 | 8 | 10.4 mph | 12 | SSW (200°) | 99535 | 101682 | 24.7°C | 77.2% | 20.4°C | 2338ft (713m) | 12.6v | 31 |
| 3070 | 15 Apr 04:35:55 | 5 | 6.3 mph | 8 | SW (214°) | 99539 | 101686 | 24.7°C | 77.4% | 20.5°C | 2321ft (707m) | 12.6v | 31 |
| 3069 | 15 Apr 04:35:44 | 6 | 7.7 mph | 11 | SSW (206°) | 99535 | 101682 | 24.7°C | 77.4% | 20.5°C | 2321ft (707m) | 12.61v | 31 |
| 3068 | 15 Apr 04:35:33 | 6 | 6.1 mph | 8 | SW (214°) | 99537 | 101684 | 24.7°C | 77.4% | 20.5°C | 2321ft (707m) | 12.61v | 31 |
| 3067 | 15 Apr 04:35:22 | 8 | 9.7 mph | 12 | SSW (209°) | 99537 | 101684 | 24.7°C | 77.4% | 20.5°C | 2321ft (707m) | 12.61v | 31 |
| 3066 | 15 Apr 04:35:10 | 5 | 7.2 mph | 11 | SSW (208°) | 99535 | 101682 | 24.7°C | 77.4% | 20.5°C | 2321ft (707m) | 12.62v | 31 |
| 3065 | 15 Apr 04:34:59 | 8 | 9.5 mph | 11 | SSW (197°) | 99537 | 101684 | 24.7°C | 77.3% | 20.5°C | 2330ft (710m) | 12.63v | 31 |
| 3064 | 15 Apr 04:34:48 | 8 | 9.7 mph | 11 | SSW (196°) | 99535 | 101682 | 24.7°C | 77.3% | 20.5°C | 2330ft (710m) | 12.62v | 31 |
| 3063 | 15 Apr 04:34:37 | 7 | 9.6 mph | 11 | SSW (196°) | 99531 | 101678 | 24.7°C | 77.2% | 20.4°C | 2338ft (713m) | 12.62v | 31 |
| 3062 | 15 Apr 04:34:25 | 7 | 8.4 mph | 10 | SSW (203°) | 99537 | 101684 | 24.7°C | 77.3% | 20.5°C | 2330ft (710m) | 12.62v | 31 |
| 3061 | 15 Apr 04:34:14 | 7 | 9 mph | 10 | SSW (206°) | 99534 | 101681 | 24.7°C | 77.3% | 20.5°C | 2330ft (710m) | 12.61v | 31 |
| 3060 | 15 Apr 04:34:03 | 7 | 8.9 mph | 10 | SSW (209°) | 99531 | 101678 | 24.7°C | 77.3% | 20.5°C | 2330ft (710m) | 12.59v | 31 |
| 3059 | 15 Apr 04:33:52 | 7 | 9.5 mph | 13 | SSW (209°) | 99535 | 101682 | 24.7°C | 77.2% | 20.4°C | 2338ft (713m) | 12.61v | 31 |
| 3058 | 15 Apr 04:33:40 | 5 | 6.5 mph | 9 | SSW (201°) | 99524 | 101671 | 24.7°C | 77.4% | 20.5°C | 2321ft (707m) | 12.62v | 31 |
| 3057 | 15 Apr 04:33:29 | 6 | 6.4 mph | 7 | SW (216°) | 99531 | 101678 | 24.7°C | 77.4% | 20.5°C | 2321ft (707m) | 12.63v | 31 |
| 3056 | 15 Apr 04:33:18 | 8 | 8.5 mph | 10 | SSW (208°) | 99529 | 101676 | 24.7°C | 77.3% | 20.5°C | 2330ft (710m) | 12.62v | 31 |
| 3055 | 15 Apr 04:33:07 | 9 | 10.2 mph | 12 | SSW (207°) | 99529 | 101676 | 24.7°C | 77.3% | 20.5°C | 2330ft (710m) | 12.62v | 31 |
| 3054 | 15 Apr 04:32:55 | 10 | 11.5 mph | 13 | SSW (206°) | 99528 | 101675 | 24.6°C | 77.3% | 20.4°C | 2328ft (710m) | 12.62v | 31 |
| 3053 | 15 Apr 04:32:44 | 9 | 10.6 mph | 12 | SSW (203°) | 99529 | 101676 | 24.7°C | 77.2% | 20.4°C | 2338ft (713m) | 12.61v | 31 |
| 3052 | 15 Apr 04:32:33 | 9 | 10.2 mph | 12 | SSW (198°) | 99533 | 101680 | 24.7°C | 77.2% | 20.4°C | 2338ft (713m) | 12.62v | 31 |
| 3051 | 15 Apr 04:32:22 | 8 | 8.8 mph | 10 | SSW (209°) | 99531 | 101678 | 24.7°C | 77.2% | 20.4°C | 2338ft (713m) | 12.6v | 31 |
| 3050 | 15 Apr 04:32:10 | 10 | 10.5 mph | 12 | SSW (197°) | 99526 | 101673 | 24.7°C | 77.2% | 20.4°C | 2338ft (713m) | 12.63v | 31 |
| 3049 | 15 Apr 04:31:59 | 9 | 10.7 mph | 12 | SSW (197°) | 99527 | 101674 | 24.7°C | 77.2% | 20.4°C | 2338ft (713m) | 12.61v | 31 |
| 3048 | 15 Apr 04:31:48 | 8 | 8.1 mph | 10 | SSW (199°) | 99527 | 101674 | 24.7°C | 77.2% | 20.4°C | 2338ft (713m) | 12.62v | 31 |
| 3047 | 15 Apr 04:31:37 | 9 | 9.7 mph | 11 | SSW (203°) | 99528 | 101675 | 24.7°C | 77.2% | 20.4°C | 2338ft (713m) | 12.61v | 31 |
| 3046 | 15 Apr 04:31:25 | 6 | 7.8 mph | 10 | SSW (203°) | 99527 | 101674 | 24.7°C | 77.3% | 20.5°C | 2330ft (710m) | 12.61v | 31 |
| 3045 | 15 Apr 04:31:14 | 8 | 8.9 mph | 10 | SSW (192°) | 99527 | 101674 | 24.7°C | 77.2% | 20.4°C | 2338ft (713m) | 12.61v | 31 |
| 3044 | 15 Apr 04:31:03 | 5 | 7.9 mph | 10 | SSW (193°) | 99527 | 101674 | 24.7°C | 77.2% | 20.4°C | 2338ft (713m) | 12.6v | 31 |
| 3043 | 15 Apr 04:30:52 | 8 | 9.5 mph | 12 | S (188°) | 99527 | 101674 | 24.7°C | 77% | 20.4°C | 2355ft (718m) | 12.61v | 31 |
| 3042 | 15 Apr 04:30:40 | 8 | 8.3 mph | 9 | SSW (198°) | 99524 | 101671 | 24.7°C | 77.1% | 20.4°C | 2347ft (715m) | 12.62v | 31 |
| 3041 | 15 Apr 04:30:29 | 7 | 7.5 mph | 9 | SSW (195°) | 99528 | 101675 | 24.7°C | 77.2% | 20.4°C | 2338ft (713m) | 12.63v | 31 |
| 3040 | 15 Apr 04:30:18 | 7 | 7.7 mph | 9 | SSW (202°) | 99526 | 101673 | 24.7°C | 77.1% | 20.4°C | 2347ft (715m) | 12.61v | 31 |
| 3039 | 15 Apr 04:30:07 | 7 | 8.3 mph | 9 | SSW (201°) | 99526 | 101673 | 24.7°C | 77.2% | 20.4°C | 2338ft (713m) | 12.61v | 31 |
| 3038 | 15 Apr 04:29:55 | 5 | 6.4 mph | 8 | SSW (206°) | 99525 | 101672 | 24.7°C | 77.2% | 20.4°C | 2338ft (713m) | 12.62v | 31 |
| 3037 | 15 Apr 04:29:44 | 5 | 6.9 mph | 8 | SSW (212°) | 99525 | 101672 | 24.7°C | 77.2% | 20.4°C | 2338ft (713m) | 12.6v | 31 |
| 3036 | 15 Apr 04:29:33 | 5 | 7.5 mph | 9 | SSW (193°) | 99523 | 101670 | 24.7°C | 77.2% | 20.4°C | 2338ft (713m) | 12.62v | 31 |
| 3035 | 15 Apr 04:29:22 | 7 | 8.5 mph | 10 | SSW (199°) | 99523 | 101670 | 24.7°C | 77.1% | 20.4°C | 2347ft (715m) | 12.61v | 31 |
| 3034 | 15 Apr 04:29:10 | 8 | 8.5 mph | 10 | SSW (208°) | 99524 | 101671 | 24.8°C | 77.1% | 20.5°C | 2348ft (716m) | 12.6v | 31 |
| 3033 | 15 Apr 04:28:59 | 7 | 7.5 mph | 8 | SSW (201°) | 99521 | 101668 | 24.7°C | 77.1% | 20.4°C | 2347ft (715m) | 12.62v | 31 |
| 3032 | 15 Apr 04:28:48 | 7 | 8.2 mph | 10 | SSW (202°) | 99524 | 101671 | 24.8°C | 77.1% | 20.5°C | 2348ft (716m) | 12.63v | 31 |
| 3031 | 15 Apr 04:28:37 | 6 | 7.4 mph | 9 | SSW (206°) | 99524 | 101671 | 24.7°C | 77% | 20.4°C | 2355ft (718m) | 12.62v | 31 |
| 3030 | 15 Apr 04:28:25 | 7 | 7.2 mph | 8 | SSW (208°) | 99521 | 101668 | 24.7°C | 77.2% | 20.4°C | 2338ft (713m) | 12.62v | 31 |
| 3029 | 15 Apr 04:28:14 | 6 | 7.3 mph | 10 | SSW (213°) | 99521 | 101668 | 24.8°C | 77.1% | 20.5°C | 2348ft (716m) | 12.61v | 31 |
| 3028 | 15 Apr 04:28:03 | 7 | 7.5 mph | 8 | SSW (212°) | 99516 | 101663 | 24.7°C | 77.2% | 20.4°C | 2338ft (713m) | 12.59v | 31 |
| 3027 | 15 Apr 04:27:52 | 5 | 5.9 mph | 7 | SSW (207°) | 99518 | 101665 | 24.7°C | 77.3% | 20.5°C | 2330ft (710m) | 12.61v | 31 |
| 3026 | 15 Apr 04:27:40 | 4 | 4.8 mph | 6 | SW (218°) | 99519 | 101666 | 24.7°C | 77.2% | 20.4°C | 2338ft (713m) | 12.61v | 31 |
| 3025 | 15 Apr 04:27:29 | 6 | 7.4 mph | 9 | SSW (202°) | 99519 | 101666 | 24.7°C | 77.2% | 20.4°C | 2338ft (713m) | 12.62v | 31 |
| 3024 | 15 Apr 04:27:18 | 6 | 8 mph | 9 | SW (217°) | 99519 | 101666 | 24.7°C | 77.1% | 20.4°C | 2347ft (715m) | 12.61v | 31 |
| 3023 | 15 Apr 04:27:07 | 6 | 7.6 mph | 9 | SSW (204°) | 99517 | 101664 | 24.7°C | 77.1% | 20.4°C | 2347ft (715m) | 12.63v | 31 |
| 3022 | 15 Apr 04:26:55 | 6 | 7.3 mph | 10 | SSW (201°) | 99515 | 101662 | 24.7°C | 77.2% | 20.4°C | 2338ft (713m) | 12.63v | 31 |
| 3021 | 15 Apr 04:26:44 | 8 | 9.3 mph | 11 | SSW (201°) | 99516 | 101663 | 24.7°C | 77% | 20.4°C | 2355ft (718m) | 12.61v | 31 |
| 3020 | 15 Apr 04:26:33 | 6 | 6.9 mph | 8 | SSW (203°) | 99519 | 101666 | 24.7°C | 77.2% | 20.4°C | 2338ft (713m) | 12.61v | 31 |
| 3019 | 15 Apr 04:26:22 | 8 | 8.3 mph | 9 | SSW (204°) | 99517 | 101664 | 24.7°C | 77.1% | 20.4°C | 2347ft (715m) | 12.61v | 31 |
| 3018 | 15 Apr 04:26:10 | 6 | 8.2 mph | 9 | SW (214°) | 99514 | 101661 | 24.7°C | 77.1% | 20.4°C | 2347ft (715m) | 12.6v | 31 |
| 3017 | 15 Apr 04:25:59 | 8 | 7.8 mph | 9 | SSW (199°) | 99514 | 101661 | 24.7°C | 77% | 20.4°C | 2355ft (718m) | 12.63v | 31 |
| 3016 | 15 Apr 04:25:48 | 7 | 8.5 mph | 10 | SSW (206°) | 99516 | 101663 | 24.8°C | 77.2% | 20.5°C | 2340ft (713m) | 12.61v | 31 |
| 3015 | 15 Apr 04:25:37 | 8 | 8.7 mph | 10 | SSW (203°) | 99513 | 101660 | 24.8°C | 77.1% | 20.5°C | 2348ft (716m) | 12.62v | 31 |
| 3014 | 15 Apr 04:25:25 | 8 | 8.4 mph | 10 | SSW (204°) | 99505 | 101651 | 24.8°C | 77.1% | 20.5°C | 2348ft (716m) | 12.61v | 31 |
| 3013 | 15 Apr 04:25:14 | 5 | 6 mph | 8 | SSW (201°) | 99513 | 101660 | 24.8°C | 77.2% | 20.5°C | 2340ft (713m) | 12.61v | 31 |
| 3012 | 15 Apr 04:25:03 | 6 | 7.2 mph | 9 | SW (214°) | 99514 | 101661 | 24.7°C | 77.2% | 20.4°C | 2338ft (713m) | 12.6v | 31 |
| 3011 | 15 Apr 04:24:52 | 5 | 6.5 mph | 8 | SSW (212°) | 99511 | 101657 | 24.7°C | 77.2% | 20.4°C | 2338ft (713m) | 12.62v | 31 |
| 3010 | 15 Apr 04:24:40 | 5 | 7.2 mph | 9 | SSW (211°) | 99512 | 101658 | 24.7°C | 77.2% | 20.4°C | 2338ft (713m) | 12.61v | 31 |
| 3009 | 15 Apr 04:24:29 | 6 | 7.9 mph | 11 | SSW (203°) | 99512 | 101658 | 24.7°C | 77.3% | 20.5°C | 2330ft (710m) | 12.62v | 31 |
| 3008 | 15 Apr 04:24:18 | 7 | 7.7 mph | 9 | SSW (213°) | 99513 | 101660 | 24.7°C | 77.2% | 20.4°C | 2338ft (713m) | 12.62v | 31 |
| 3007 | 15 Apr 04:24:07 | 7 | 7.9 mph | 9 | SSW (212°) | 99511 | 101657 | 24.7°C | 77.1% | 20.4°C | 2347ft (715m) | 12.63v | 31 |
| 3006 | 15 Apr 04:23:55 | 6 | 6.6 mph | 7 | SSW (210°) | 99511 | 101657 | 24.7°C | 77.2% | 20.4°C | 2338ft (713m) | 12.61v | 31 |
| 3005 | 15 Apr 04:23:44 | 8 | 8.2 mph | 9 | SW (216°) | 99511 | 101657 | 24.7°C | 77.3% | 20.5°C | 2330ft (710m) | 12.61v | 31 |
| 3004 | 15 Apr 04:23:33 | 7 | 8.6 mph | 10 | SSW (205°) | 99511 | 101657 | 24.7°C | 77.3% | 20.5°C | 2330ft (710m) | 12.61v | 31 |
| 3003 | 15 Apr 04:23:22 | 7 | 7.8 mph | 10 | SSW (207°) | 99512 | 101658 | 24.7°C | 77.3% | 20.5°C | 2330ft (710m) | 12.61v | 31 |
| 3002 | 15 Apr 04:23:10 | 7 | 8.5 mph | 9 | SSW (204°) | 99513 | 101660 | 24.7°C | 77.3% | 20.5°C | 2330ft (710m) | 12.62v | 31 |
| 3001 | 15 Apr 04:22:59 | 9 | 9.3 mph | 11 | SSW (207°) | 99513 | 101660 | 24.7°C | 77.2% | 20.4°C | 2338ft (713m) | 12.61v | 31 |
| 3000 | 15 Apr 04:22:48 | 7 | 8.9 mph | 10 | SSW (209°) | 99510 | 101656 | 24.7°C | 77.3% | 20.5°C | 2330ft (710m) | 12.63v | 31 |
| 2999 | 15 Apr 04:22:37 | 5 | 5.4 mph | 7 | SSW (211°) | 99513 | 101660 | 24.7°C | 77.4% | 20.5°C | 2321ft (707m) | 12.62v | 31 |
| 2998 | 15 Apr 04:22:25 | 5 | 7.3 mph | 9 | SSW (208°) | 99511 | 101657 | 24.7°C | 77.4% | 20.5°C | 2321ft (707m) | 12.62v | 31 |
| 2997 | 15 Apr 04:22:14 | 7 | 7.9 mph | 9 | SW (215°) | 99509 | 101655 | 24.7°C | 77.4% | 20.5°C | 2321ft (707m) | 12.63v | 31 |
| 2996 | 15 Apr 04:22:03 | 7 | 7.8 mph | 10 | SW (214°) | 99509 | 101655 | 24.7°C | 77.3% | 20.5°C | 2330ft (710m) | 12.61v | 31 |
| 2995 | 15 Apr 04:21:52 | 10 | 11.2 mph | 12 | SSW (200°) | 99511 | 101657 | 24.7°C | 77.2% | 20.4°C | 2338ft (713m) | 12.62v | 31 |
| 2994 | 15 Apr 04:21:40 | 11 | 11.5 mph | 12 | SSW (201°) | 99506 | 101652 | 24.7°C | 77.1% | 20.4°C | 2347ft (715m) | 12.61v | 31 |
| 2993 | 15 Apr 04:21:29 | 8 | 8.7 mph | 11 | SSW (210°) | 99508 | 101654 | 24.7°C | 77.2% | 20.4°C | 2338ft (713m) | 12.61v | 31 |
| 2992 | 15 Apr 04:21:18 | 8 | 10.3 mph | 12 | SSW (212°) | 99508 | 101654 | 24.7°C | 77% | 20.4°C | 2355ft (718m) | 12.62v | 31 |
| 2991 | 15 Apr 04:21:07 | 8 | 9.9 mph | 12 | SSW (208°) | 99500 | 101646 | 24.8°C | 77.2% | 20.5°C | 2340ft (713m) | 12.61v | 31 |
| 2990 | 15 Apr 04:20:55 | 8 | 8.7 mph | 9 | SSW (202°) | 99510 | 101656 | 24.7°C | 77.3% | 20.5°C | 2330ft (710m) | 12.62v | 31 |
| 2989 | 15 Apr 04:20:44 | 7 | 8.2 mph | 10 | SSW (202°) | 99511 | 101657 | 24.7°C | 77.1% | 20.4°C | 2347ft (715m) | 12.62v | 31 |
| 2988 | 15 Apr 04:20:33 | 9 | 10.1 mph | 12 | SSW (205°) | 99513 | 101660 | 24.7°C | 77.1% | 20.4°C | 2347ft (715m) | 12.62v | 31 |
| 2987 | 15 Apr 04:20:22 | 8 | 10.1 mph | 12 | SSW (193°) | 99507 | 101653 | 24.8°C | 77.2% | 20.5°C | 2340ft (713m) | 12.61v | 31 |
| 2986 | 15 Apr 04:20:10 | 9 | 8.9 mph | 10 | SW (218°) | 99508 | 101654 | 24.7°C | 77.2% | 20.4°C | 2338ft (713m) | 12.62v | 31 |
| 2985 | 15 Apr 04:19:59 | 9 | 9.8 mph | 11 | SSW (194°) | 99509 | 101655 | 24.8°C | 77.2% | 20.5°C | 2340ft (713m) | 12.63v | 31 |
| 2984 | 15 Apr 04:19:48 | 6 | 7.8 mph | 10 | SW (216°) | 99509 | 101655 | 24.7°C | 77.3% | 20.5°C | 2330ft (710m) | 12.63v | 31 |
| 2983 | 15 Apr 04:19:37 | 8 | 9 mph | 10 | SSW (208°) | 99511 | 101657 | 24.7°C | 77.3% | 20.5°C | 2330ft (710m) | 12.61v | 31 |
| 2982 | 15 Apr 04:19:25 | 8 | 9 mph | 11 | SSW (209°) | 99513 | 101660 | 24.7°C | 77.1% | 20.4°C | 2347ft (715m) | 12.62v | 31 |
| 2981 | 15 Apr 04:19:14 | 7 | 9.5 mph | 12 | SW (221°) | 99511 | 101657 | 24.7°C | 77.2% | 20.4°C | 2338ft (713m) | 12.62v | 31 |
| 2980 | 15 Apr 04:19:03 | 10 | 10.9 mph | 13 | SSW (210°) | 99507 | 101653 | 24.8°C | 77.2% | 20.5°C | 2340ft (713m) | 12.62v | 31 |
| 2979 | 15 Apr 04:18:52 | 6 | 7.3 mph | 9 | SSW (211°) | 99513 | 101660 | 24.8°C | 77.2% | 20.5°C | 2340ft (713m) | 12.61v | 31 |
| 2978 | 15 Apr 04:18:40 | 6 | 6.9 mph | 8 | SSW (211°) | 99512 | 101658 | 24.7°C | 77.2% | 20.4°C | 2338ft (713m) | 12.61v | 31 |
| 2977 | 15 Apr 04:18:29 | 9 | 9.5 mph | 11 | SSW (210°) | 99511 | 101657 | 24.7°C | 77.2% | 20.4°C | 2338ft (713m) | 12.62v | 31 |
| 2976 | 15 Apr 04:18:18 | 6 | 7.5 mph | 9 | SSW (202°) | 99514 | 101661 | 24.7°C | 77.1% | 20.4°C | 2347ft (715m) | 12.62v | 31 |
| 2975 | 15 Apr 04:18:07 | 6 | 8.2 mph | 10 | SSW (199°) | 99512 | 101658 | 24.7°C | 77.2% | 20.4°C | 2338ft (713m) | 12.62v | 31 |
| 2974 | 15 Apr 04:17:55 | 11 | 12.9 mph | 15 | SSW (192°) | 99506 | 101652 | 24.7°C | 77.1% | 20.4°C | 2347ft (715m) | 12.62v | 31 |
| 2973 | 15 Apr 04:17:44 | 7 | 9.2 mph | 12 | SSW (198°) | 99501 | 101647 | 24.7°C | 77.1% | 20.4°C | 2347ft (715m) | 12.62v | 31 |
| 2972 | 15 Apr 04:17:33 | 9 | 9.8 mph | 13 | SSW (193°) | 99508 | 101654 | 24.7°C | 77.1% | 20.4°C | 2347ft (715m) | 12.62v | 31 |
| 2971 | 15 Apr 04:17:22 | 10 | 9.8 mph | 12 | S (191°) | 99511 | 101657 | 24.8°C | 77% | 20.5°C | 2357ft (718m) | 12.61v | 31 |
| 2970 | 15 Apr 04:17:10 | 7 | 7.9 mph | 10 | SSW (199°) | 99512 | 101658 | 24.7°C | 77.1% | 20.4°C | 2347ft (715m) | 12.62v | 31 |
| 2969 | 15 Apr 04:16:59 | 6 | 7.6 mph | 10 | SSW (206°) | 99510 | 101656 | 24.7°C | 77.1% | 20.4°C | 2347ft (715m) | 12.61v | 31 |
| 2968 | 15 Apr 04:16:48 | 7 | 9.1 mph | 12 | SSW (209°) | 99511 | 101657 | 24.7°C | 77.2% | 20.4°C | 2338ft (713m) | 12.61v | 31 |
| 2967 | 15 Apr 04:16:37 | 8 | 10.6 mph | 14 | SSW (211°) | 99515 | 101662 | 24.8°C | 77.1% | 20.5°C | 2348ft (716m) | 12.61v | 31 |
| 2966 | 15 Apr 04:16:25 | 8 | 10.1 mph | 11 | SSW (204°) | 99516 | 101663 | 24.7°C | 77.2% | 20.4°C | 2338ft (713m) | 12.62v | 31 |
| 2965 | 15 Apr 04:16:14 | 9 | 11.1 mph | 14 | SSW (204°) | 99511 | 101657 | 24.7°C | 77.1% | 20.4°C | 2347ft (715m) | 12.62v | 31 |
| 2964 | 15 Apr 04:16:03 | 8 | 9.3 mph | 10 | SSW (203°) | 99517 | 101664 | 24.7°C | 77.1% | 20.4°C | 2347ft (715m) | 12.6v | 31 |
| 2963 | 15 Apr 04:15:52 | 11 | 10.9 mph | 11 | SSW (197°) | 99511 | 101657 | 24.7°C | 77.1% | 20.4°C | 2347ft (715m) | 12.62v | 31 |
| 2962 | 15 Apr 04:15:40 | 9 | 10.2 mph | 13 | SSW (208°) | 99515 | 101662 | 24.7°C | 77.1% | 20.4°C | 2347ft (715m) | 12.61v | 31 |
| 2961 | 15 Apr 04:15:29 | 6 | 7.7 mph | 10 | SSW (211°) | 99516 | 101663 | 24.8°C | 77.2% | 20.5°C | 2340ft (713m) | 12.61v | 31 |
| 2960 | 15 Apr 04:15:18 | 11 | 12.8 mph | 14 | SW (221°) | 99513 | 101660 | 24.7°C | 77.1% | 20.4°C | 2347ft (715m) | 12.61v | 31 |
| 2959 | 15 Apr 04:15:07 | 11 | 12.3 mph | 14 | SSW (198°) | 99506 | 101652 | 24.8°C | 77% | 20.5°C | 2357ft (718m) | 12.62v | 31 |
| 2958 | 15 Apr 04:14:55 | 7 | 9 mph | 11 | SSW (203°) | 99515 | 101662 | 24.7°C | 77.1% | 20.4°C | 2347ft (715m) | 12.63v | 31 |
| 2957 | 15 Apr 04:14:44 | 7 | 7.6 mph | 9 | SSW (204°) | 99515 | 101662 | 24.7°C | 77.1% | 20.4°C | 2347ft (715m) | 12.61v | 31 |
| 2956 | 15 Apr 04:14:33 | 9 | 10.7 mph | 12 | SSW (210°) | 99516 | 101663 | 24.7°C | 77.2% | 20.4°C | 2338ft (713m) | 12.63v | 31 |
| 2955 | 15 Apr 04:14:22 | 7 | 8.4 mph | 10 | SSW (200°) | 99514 | 101661 | 24.7°C | 77.3% | 20.5°C | 2330ft (710m) | 12.61v | 31 |
| 2954 | 15 Apr 04:14:10 | 7 | 8.1 mph | 10 | SSW (209°) | 99519 | 101666 | 24.7°C | 77.2% | 20.4°C | 2338ft (713m) | 12.62v | 31 |
| 2953 | 15 Apr 04:13:59 | 7 | 8.4 mph | 11 | SSW (195°) | 99515 | 101662 | 24.7°C | 77.2% | 20.4°C | 2338ft (713m) | 12.61v | 31 |
| 2952 | 15 Apr 04:13:48 | 8 | 9.6 mph | 12 | SW (214°) | 99516 | 101663 | 24.7°C | 77.1% | 20.4°C | 2347ft (715m) | 12.62v | 31 |
| 2951 | 15 Apr 04:13:37 | 10 | 11.7 mph | 13 | SSW (208°) | 99517 | 101664 | 24.7°C | 77.1% | 20.4°C | 2347ft (715m) | 12.62v | 31 |
| 2950 | 15 Apr 04:13:25 | 9 | 10 mph | 12 | SSW (194°) | 99518 | 101665 | 24.7°C | 77.1% | 20.4°C | 2347ft (715m) | 12.63v | 31 |
| 2949 | 15 Apr 04:13:14 | 9 | 9.8 mph | 11 | SSW (197°) | 99515 | 101662 | 24.7°C | 77.1% | 20.4°C | 2347ft (715m) | 12.61v | 31 |
| 2948 | 15 Apr 04:13:03 | 9 | 9.2 mph | 11 | SSW (211°) | 99522 | 101669 | 24.7°C | 77.2% | 20.4°C | 2338ft (713m) | 12.63v | 31 |
| 2947 | 15 Apr 04:12:52 | 7 | 9.5 mph | 11 | SSW (200°) | 99517 | 101664 | 24.7°C | 77.1% | 20.4°C | 2347ft (715m) | 12.62v | 31 |
| 2946 | 15 Apr 04:12:40 | 6 | 8.6 mph | 11 | SSW (204°) | 99514 | 101661 | 24.7°C | 77.3% | 20.5°C | 2330ft (710m) | 12.61v | 31 |
| 2945 | 15 Apr 04:12:29 | 8 | 8.9 mph | 11 | SSW (203°) | 99515 | 101662 | 24.7°C | 77.2% | 20.4°C | 2338ft (713m) | 12.61v | 31 |
| 2944 | 15 Apr 04:12:18 | 7 | 10 mph | 13 | SSW (200°) | 99518 | 101665 | 24.7°C | 77.2% | 20.4°C | 2338ft (713m) | 12.62v | 31 |
| 2943 | 15 Apr 04:12:07 | 10 | 11.2 mph | 13 | S (189°) | 99513 | 101660 | 24.7°C | 77.1% | 20.4°C | 2347ft (715m) | 12.63v | 31 |
| 2942 | 15 Apr 04:11:55 | 12 | 13.2 mph | 15 | SSW (201°) | 99516 | 101663 | 24.8°C | 77% | 20.5°C | 2357ft (718m) | 12.62v | 31 |
| 2941 | 15 Apr 04:11:44 | 6 | 7.3 mph | 11 | SSW (213°) | 99516 | 101663 | 24.8°C | 77.1% | 20.5°C | 2348ft (716m) | 12.61v | 31 |
| 2940 | 15 Apr 04:11:33 | 8 | 8.4 mph | 9 | SSW (197°) | 99518 | 101665 | 24.8°C | 77% | 20.5°C | 2357ft (718m) | 12.62v | 31 |
| 2939 | 15 Apr 04:11:22 | 8 | 8.1 mph | 9 | SSW (209°) | 99519 | 101666 | 24.8°C | 77% | 20.5°C | 2357ft (718m) | 12.63v | 31 |
| 2938 | 15 Apr 04:11:10 | 7 | 8.5 mph | 10 | SSW (209°) | 99518 | 101665 | 24.8°C | 77.1% | 20.5°C | 2348ft (716m) | 12.62v | 31 |
| 2937 | 15 Apr 04:10:59 | 6 | 7 mph | 8 | SSW (208°) | 99520 | 101667 | 24.8°C | 77.3% | 20.6°C | 2331ft (710m) | 12.61v | 31 |
| 2936 | 15 Apr 04:10:48 | 7 | 9.7 mph | 14 | SW (214°) | 99521 | 101668 | 24.8°C | 77.1% | 20.5°C | 2348ft (716m) | 12.62v | 31 |
| 2935 | 15 Apr 04:10:37 | 8 | 12.2 mph | 17 | SSW (197°) | 99510 | 101656 | 24.8°C | 77% | 20.5°C | 2357ft (718m) | 12.64v | 31 |
| 2934 | 15 Apr 04:10:25 | 7 | 8.7 mph | 10 | SSW (212°) | 99518 | 101665 | 24.8°C | 77% | 20.5°C | 2357ft (718m) | 12.62v | 31 |
| 2933 | 15 Apr 04:10:14 | 9 | 9.6 mph | 11 | SW (216°) | 99520 | 101667 | 24.8°C | 76.9% | 20.5°C | 2365ft (721m) | 12.62v | 31 |
| 2932 | 15 Apr 04:10:03 | 8 | 9.2 mph | 11 | SSW (208°) | 99515 | 101662 | 24.8°C | 77% | 20.5°C | 2357ft (718m) | 12.62v | 31 |
| 2931 | 15 Apr 04:09:52 | 6 | 7.1 mph | 10 | SSW (203°) | 99515 | 101662 | 24.8°C | 77.2% | 20.5°C | 2340ft (713m) | 12.62v | 31 |
| 2930 | 15 Apr 04:09:40 | 8 | 9.8 mph | 12 | SSW (207°) | 99514 | 101661 | 24.8°C | 76.9% | 20.5°C | 2365ft (721m) | 12.6v | 31 |
| 2929 | 15 Apr 04:09:29 | 9 | 9.5 mph | 11 | SSW (199°) | 99517 | 101664 | 24.8°C | 77% | 20.5°C | 2357ft (718m) | 12.63v | 31 |
| 2928 | 15 Apr 04:09:18 | 10 | 10.7 mph | 12 | SSW (198°) | 99515 | 101662 | 24.8°C | 76.9% | 20.5°C | 2365ft (721m) | 12.62v | 31 |
| 2927 | 15 Apr 04:09:07 | 9 | 9.4 mph | 11 | SSW (196°) | 99517 | 101664 | 24.8°C | 77.1% | 20.5°C | 2348ft (716m) | 12.62v | 31 |
| 2926 | 15 Apr 04:08:55 | 6 | 7.1 mph | 9 | SW (214°) | 99520 | 101667 | 24.8°C | 77.1% | 20.5°C | 2348ft (716m) | 12.63v | 31 |
| 2925 | 15 Apr 04:08:44 | 7 | 7.5 mph | 9 | SSW (205°) | 99518 | 101665 | 24.8°C | 77.1% | 20.5°C | 2348ft (716m) | 12.61v | 31 |
| 2924 | 15 Apr 04:08:33 | 6 | 7.2 mph | 9 | SSW (198°) | 99514 | 101661 | 24.8°C | 77.1% | 20.5°C | 2348ft (716m) | 12.62v | 31 |
| 2923 | 15 Apr 04:08:22 | 7 | 7.6 mph | 9 | SSW (200°) | 99521 | 101668 | 24.8°C | 77% | 20.5°C | 2357ft (718m) | 12.62v | 31 |
| 2922 | 15 Apr 04:08:10 | 7 | 7.6 mph | 9 | SSW (204°) | 99516 | 101663 | 24.8°C | 77.1% | 20.5°C | 2348ft (716m) | 12.61v | 31 |
| 2921 | 15 Apr 04:07:59 | 9 | 9.7 mph | 10 | SSW (200°) | 99519 | 101666 | 24.8°C | 77% | 20.5°C | 2357ft (718m) | 12.61v | 31 |
| 2920 | 15 Apr 04:07:48 | 7 | 7.8 mph | 9 | SSW (198°) | 99518 | 101665 | 24.8°C | 77.1% | 20.5°C | 2348ft (716m) | 12.61v | 31 |
| 2919 | 15 Apr 04:07:37 | 10 | 10.4 mph | 11 | SW (225°) | 99521 | 101668 | 24.8°C | 77.1% | 20.5°C | 2348ft (716m) | 12.62v | 31 |
| 2918 | 15 Apr 04:07:25 | 8 | 8.9 mph | 10 | SSW (201°) | 99518 | 101665 | 24.8°C | 77.2% | 20.5°C | 2340ft (713m) | 12.63v | 31 |
| 2917 | 15 Apr 04:07:14 | 6 | 8.2 mph | 11 | S (189°) | 99518 | 101665 | 24.8°C | 77.1% | 20.5°C | 2348ft (716m) | 12.62v | 31 |
| 2916 | 15 Apr 04:07:03 | 9 | 9.9 mph | 13 | S (190°) | 99500 | 101646 | 24.8°C | 77% | 20.5°C | 2357ft (718m) | 12.62v | 31 |
| 2915 | 15 Apr 04:06:52 | 9 | 9.8 mph | 11 | SSW (206°) | 99515 | 101662 | 24.8°C | 76.9% | 20.5°C | 2365ft (721m) | 12.63v | 31 |
| 2914 | 15 Apr 04:06:40 | 8 | 8.5 mph | 9 | SSW (207°) | 99516 | 101663 | 24.8°C | 77.1% | 20.5°C | 2348ft (716m) | 12.62v | 31 |
| 2913 | 15 Apr 04:06:29 | 6 | 6.9 mph | 8 | SSW (204°) | 99516 | 101663 | 24.8°C | 77.2% | 20.5°C | 2340ft (713m) | 12.6v | 31 |
| 2912 | 15 Apr 04:06:18 | 5 | 5.7 mph | 6 | SSW (209°) | 99518 | 101665 | 24.8°C | 77.2% | 20.5°C | 2340ft (713m) | 12.62v | 31 |
| 2911 | 15 Apr 04:06:07 | 6 | 8.5 mph | 11 | SSW (210°) | 99517 | 101664 | 24.8°C | 77% | 20.5°C | 2357ft (718m) | 12.63v | 31 |
| 2910 | 15 Apr 04:05:55 | 6 | 7.6 mph | 11 | SSW (204°) | 99516 | 101663 | 24.8°C | 77.1% | 20.5°C | 2348ft (716m) | 12.64v | 31 |
| 2909 | 15 Apr 04:05:44 | 7 | 8.2 mph | 9 | SSW (211°) | 99517 | 101664 | 24.8°C | 77% | 20.5°C | 2357ft (718m) | 12.63v | 31 |
| 2908 | 15 Apr 04:05:33 | 8 | 9 mph | 10 | SSW (202°) | 99515 | 101662 | 24.8°C | 77.1% | 20.5°C | 2348ft (716m) | 12.62v | 31 |
| 2907 | 15 Apr 04:05:22 | 7 | 7.9 mph | 9 | SSW (212°) | 99519 | 101666 | 24.8°C | 77% | 20.5°C | 2357ft (718m) | 12.62v | 31 |
| 2906 | 15 Apr 04:05:10 | 6 | 7.9 mph | 10 | SSW (199°) | 99515 | 101662 | 24.8°C | 77% | 20.5°C | 2357ft (718m) | 12.62v | 31 |
| 2905 | 15 Apr 04:04:59 | 7 | 9 mph | 10 | SSW (206°) | 99516 | 101663 | 24.8°C | 76.9% | 20.5°C | 2365ft (721m) | 12.63v | 31 |
| 2904 | 15 Apr 04:04:48 | 7 | 7.7 mph | 8 | SSW (205°) | 99517 | 101664 | 24.8°C | 77.1% | 20.5°C | 2348ft (716m) | 12.62v | 31 |
| 2903 | 15 Apr 04:04:37 | 7 | 9.3 mph | 11 | SSW (203°) | 99514 | 101661 | 24.8°C | 76.9% | 20.5°C | 2365ft (721m) | 12.62v | 31 |
| 2902 | 15 Apr 04:04:25 | 8 | 8.7 mph | 10 | SSW (202°) | 99512 | 101658 | 24.8°C | 77.1% | 20.5°C | 2348ft (716m) | 12.63v | 31 |
| 2901 | 15 Apr 04:04:14 | 6 | 7.5 mph | 9 | SW (217°) | 99514 | 101661 | 24.8°C | 77.1% | 20.5°C | 2348ft (716m) | 12.62v | 31 |
| 2900 | 15 Apr 04:04:03 | 7 | 7.5 mph | 8 | SSW (210°) | 99515 | 101662 | 24.8°C | 77.1% | 20.5°C | 2348ft (716m) | 12.62v | 31 |
| 2899 | 15 Apr 04:03:52 | 7 | 8.2 mph | 10 | SSW (204°) | 99514 | 101661 | 24.8°C | 77.1% | 20.5°C | 2348ft (716m) | 12.62v | 31 |
| 2898 | 15 Apr 04:03:40 | 5 | 6.2 mph | 7 | SSW (211°) | 99513 | 101660 | 24.8°C | 77.2% | 20.5°C | 2340ft (713m) | 12.6v | 31 |
| 2897 | 15 Apr 04:03:29 | 5 | 5.4 mph | 6 | SSW (205°) | 99514 | 101661 | 24.8°C | 77.3% | 20.6°C | 2331ft (710m) | 12.62v | 31 |
| 2896 | 15 Apr 04:03:18 | 6 | 7.6 mph | 10 | SSW (198°) | 99515 | 101662 | 24.8°C | 77.2% | 20.5°C | 2340ft (713m) | 12.62v | 31 |
| 2895 | 15 Apr 04:03:07 | 9 | 11.1 mph | 13 | SSW (197°) | 99515 | 101662 | 24.8°C | 77% | 20.5°C | 2357ft (718m) | 12.63v | 31 |
| 2894 | 15 Apr 04:02:55 | 8 | 9 mph | 11 | SSW (207°) | 99510 | 101656 | 24.8°C | 77% | 20.5°C | 2357ft (718m) | 12.63v | 31 |
| 2893 | 15 Apr 04:02:44 | 7 | 7.2 mph | 8 | SSW (201°) | 99507 | 101653 | 24.8°C | 77.2% | 20.5°C | 2340ft (713m) | 12.62v | 31 |
| 2892 | 15 Apr 04:02:33 | 5 | 6.5 mph | 8 | SSW (199°) | 99508 | 101654 | 24.8°C | 77.2% | 20.5°C | 2340ft (713m) | 12.64v | 31 |
| 2891 | 15 Apr 04:02:22 | 9 | 9.1 mph | 10 | SSW (209°) | 99512 | 101658 | 24.8°C | 77.2% | 20.5°C | 2340ft (713m) | 12.61v | 31 |
| 2890 | 15 Apr 04:02:10 | 6 | 7.1 mph | 9 | SSW (211°) | 99506 | 101652 | 24.8°C | 77.2% | 20.5°C | 2340ft (713m) | 12.63v | 31 |
| 2889 | 15 Apr 04:01:59 | 6 | 6.4 mph | 8 | SSW (206°) | 99508 | 101654 | 24.7°C | 77.4% | 20.5°C | 2321ft (707m) | 12.61v | 31 |
| 2888 | 15 Apr 04:01:48 | 6 | 5.9 mph | 6 | SW (228°) | 99507 | 101653 | 24.8°C | 77.3% | 20.6°C | 2331ft (710m) | 12.64v | 31 |
| 2887 | 15 Apr 04:01:37 | 6 | 6.2 mph | 7 | SW (216°) | 99506 | 101652 | 24.8°C | 77.4% | 20.6°C | 2322ft (708m) | 12.62v | 31 |
| 2886 | 15 Apr 04:01:25 | 6 | 6.6 mph | 7 | SSW (208°) | 99510 | 101656 | 24.8°C | 77.2% | 20.5°C | 2340ft (713m) | 12.63v | 31 |
| 2885 | 15 Apr 04:01:14 | 6 | 6.5 mph | 8 | SSW (208°) | 99507 | 101653 | 24.8°C | 77.3% | 20.6°C | 2331ft (710m) | 12.63v | 31 |
| 2884 | 15 Apr 04:01:03 | 8 | 10 mph | 13 | SSW (192°) | 99508 | 101654 | 24.8°C | 77.1% | 20.5°C | 2348ft (716m) | 12.61v | 31 |
| 2883 | 15 Apr 04:00:52 | 9 | 9.8 mph | 12 | S (189°) | 99507 | 101653 | 24.7°C | 77.1% | 20.4°C | 2347ft (715m) | 12.64v | 31 |
| 2882 | 15 Apr 04:00:40 | 10 | 10.3 mph | 11 | SSW (205°) | 99508 | 101654 | 24.8°C | 77.1% | 20.5°C | 2348ft (716m) | 12.62v | 31 |
| 2881 | 15 Apr 04:00:29 | 9 | 9.7 mph | 11 | SSW (198°) | 99505 | 101651 | 24.8°C | 77.2% | 20.5°C | 2340ft (713m) | 12.62v | 31 |
| 2880 | 15 Apr 04:00:19 | 10 | 10.1 mph | 11 | SW (215°) | 99506 | 101652 | 24.7°C | 77.1% | 20.4°C | 2347ft (715m) | 12.61v | 31 |
| 2879 | 15 Apr 04:00:08 | 10 | 10.9 mph | 12 | SSW (201°) | 99506 | 101652 | 24.8°C | 77% | 20.5°C | 2357ft (718m) | 12.62v | 31 |
| 2878 | 15 Apr 03:59:56 | 9 | 9.4 mph | 11 | SSW (199°) | 99511 | 101657 | 24.8°C | 77.1% | 20.5°C | 2348ft (716m) | 12.63v | 31 |
| 2877 | 15 Apr 03:59:45 | 9 | 9.8 mph | 12 | SSW (206°) | 99509 | 101655 | 24.7°C | 77.2% | 20.4°C | 2338ft (713m) | 12.63v | 31 |
| 2876 | 15 Apr 03:59:34 | 8 | 8.7 mph | 12 | SSW (212°) | 99510 | 101656 | 24.7°C | 77.3% | 20.5°C | 2330ft (710m) | 12.61v | 31 |
| 2875 | 15 Apr 03:59:23 | 9 | 11.6 mph | 14 | SSW (205°) | 99509 | 101655 | 24.7°C | 77.2% | 20.4°C | 2338ft (713m) | 12.63v | 31 |
| 2874 | 15 Apr 03:59:11 | 9 | 9.4 mph | 12 | SSW (206°) | 99510 | 101656 | 24.7°C | 77.2% | 20.4°C | 2338ft (713m) | 12.62v | 31 |
| 2873 | 15 Apr 03:59:00 | 12 | 11.9 mph | 12 | SSW (208°) | 99509 | 101655 | 24.7°C | 77.1% | 20.4°C | 2347ft (715m) | 12.62v | 31 |
| 2872 | 15 Apr 03:58:49 | 7 | 9.5 mph | 14 | SSW (192°) | 99503 | 101649 | 24.7°C | 77.3% | 20.5°C | 2330ft (710m) | 12.63v | 31 |
| 2871 | 15 Apr 03:58:38 | 10 | 10.6 mph | 11 | SSW (202°) | 99508 | 101654 | 24.7°C | 77.2% | 20.4°C | 2338ft (713m) | 12.62v | 31 |
| 2870 | 15 Apr 03:58:26 | 6 | 8.8 mph | 11 | SSW (212°) | 99513 | 101660 | 24.7°C | 77.2% | 20.4°C | 2338ft (713m) | 12.62v | 31 |
| 2869 | 15 Apr 03:58:15 | 7 | 9.4 mph | 12 | SSW (196°) | 99509 | 101655 | 24.7°C | 77.2% | 20.4°C | 2338ft (713m) | 12.64v | 31 |
| 2868 | 15 Apr 03:58:04 | 10 | 11.1 mph | 13 | SSW (205°) | 99509 | 101655 | 24.8°C | 77.1% | 20.5°C | 2348ft (716m) | 12.63v | 31 |
| 2867 | 15 Apr 03:57:53 | 9 | 10.9 mph | 12 | SSW (205°) | 99505 | 101651 | 24.8°C | 77.1% | 20.5°C | 2348ft (716m) | 12.62v | 31 |
| 2866 | 15 Apr 03:57:41 | 8 | 9.3 mph | 11 | SSW (200°) | 99508 | 101654 | 24.8°C | 77.2% | 20.5°C | 2340ft (713m) | 12.64v | 31 |
| 2865 | 15 Apr 03:57:30 | 8 | 9.3 mph | 11 | SSW (209°) | 99509 | 101655 | 24.8°C | 77.3% | 20.6°C | 2331ft (710m) | 12.62v | 31 |
| 2864 | 15 Apr 03:57:18 | 9 | 10 mph | 12 | S (187°) | 99507 | 101653 | 24.7°C | 77.2% | 20.4°C | 2338ft (713m) | 12.62v | 31 |
| 2863 | 15 Apr 03:57:07 | 8 | 9.1 mph | 10 | SSW (208°) | 99506 | 101652 | 24.7°C | 77.2% | 20.4°C | 2338ft (713m) | 12.62v | 31 |
| 2862 | 15 Apr 03:56:55 | 9 | 11.1 mph | 12 | S (190°) | 99509 | 101655 | 24.8°C | 77.1% | 20.5°C | 2348ft (716m) | 12.63v | 31 |
| 2861 | 15 Apr 03:56:44 | 7 | 9.8 mph | 12 | SSW (194°) | 99503 | 101649 | 24.8°C | 77.1% | 20.5°C | 2348ft (716m) | 12.64v | 31 |
| 2860 | 15 Apr 03:56:33 | 5 | 7 mph | 10 | SSW (203°) | 99507 | 101653 | 24.8°C | 77.2% | 20.5°C | 2340ft (713m) | 12.63v | 31 |
| 2859 | 15 Apr 03:56:22 | 8 | 9 mph | 10 | SSW (211°) | 99509 | 101655 | 24.8°C | 77% | 20.5°C | 2357ft (718m) | 12.63v | 31 |
| 2858 | 15 Apr 03:56:10 | 8 | 9.9 mph | 12 | SSW (195°) | 99510 | 101656 | 24.8°C | 77.2% | 20.5°C | 2340ft (713m) | 12.63v | 31 |
| 2857 | 15 Apr 03:55:59 | 8 | 8.5 mph | 10 | SSW (212°) | 99507 | 101653 | 24.8°C | 77.2% | 20.5°C | 2340ft (713m) | 12.62v | 31 |
| 2856 | 15 Apr 03:55:48 | 6 | 7 mph | 8 | SSW (213°) | 99512 | 101658 | 24.8°C | 77.3% | 20.6°C | 2331ft (710m) | 12.62v | 31 |
| 2855 | 15 Apr 03:55:37 | 9 | 9.6 mph | 11 | SSW (203°) | 99510 | 101656 | 24.8°C | 77% | 20.5°C | 2357ft (718m) | 12.63v | 31 |
| 2854 | 15 Apr 03:55:25 | 7 | 9.4 mph | 11 | SSW (201°) | 99509 | 101655 | 24.8°C | 77.1% | 20.5°C | 2348ft (716m) | 12.62v | 31 |
| 2853 | 15 Apr 03:55:14 | 8 | 8.8 mph | 10 | SSW (195°) | 99511 | 101657 | 24.8°C | 77.1% | 20.5°C | 2348ft (716m) | 12.63v | 31 |
| 2852 | 15 Apr 03:55:03 | 9 | 9.7 mph | 11 | SSW (199°) | 99511 | 101657 | 24.8°C | 77.1% | 20.5°C | 2348ft (716m) | 12.63v | 31 |
| 2851 | 15 Apr 03:54:52 | 6 | 6.5 mph | 8 | SSW (209°) | 99512 | 101658 | 24.8°C | 77.3% | 20.6°C | 2331ft (710m) | 12.62v | 31 |
| 2850 | 15 Apr 03:54:40 | 6 | 7.5 mph | 9 | SW (214°) | 99506 | 101652 | 24.8°C | 77.1% | 20.5°C | 2348ft (716m) | 12.62v | 31 |
| 2849 | 15 Apr 03:54:29 | 6 | 6.4 mph | 8 | SSW (209°) | 99511 | 101657 | 24.8°C | 77.2% | 20.5°C | 2340ft (713m) | 12.62v | 31 |
| 2848 | 15 Apr 03:54:19 | 9 | 10.2 mph | 11 | SSW (197°) | 99508 | 101654 | 24.8°C | 77% | 20.5°C | 2357ft (718m) | 12.6v | 31 |
| 2847 | 15 Apr 03:54:08 | 8 | 9.8 mph | 12 | SSW (200°) | 99509 | 101655 | 24.8°C | 77.1% | 20.5°C | 2348ft (716m) | 12.62v | 31 |
| 2846 | 15 Apr 03:53:56 | 7 | 8.3 mph | 10 | SW (215°) | 99503 | 101649 | 24.8°C | 77.1% | 20.5°C | 2348ft (716m) | 12.62v | 31 |
| 2845 | 15 Apr 03:53:45 | 6 | 7.5 mph | 9 | SSW (205°) | 99510 | 101656 | 24.8°C | 77.2% | 20.5°C | 2340ft (713m) | 12.63v | 31 |
| 2844 | 15 Apr 03:53:34 | 7 | 7.6 mph | 9 | SSW (197°) | 99508 | 101654 | 24.8°C | 77.1% | 20.5°C | 2348ft (716m) | 12.64v | 31 |
| 2843 | 15 Apr 03:53:23 | 6 | 6.9 mph | 9 | SW (215°) | 99501 | 101647 | 24.8°C | 77.2% | 20.5°C | 2340ft (713m) | 12.63v | 31 |
| 2842 | 15 Apr 03:53:11 | 7 | 7.2 mph | 8 | SSW (211°) | 99508 | 101654 | 24.8°C | 77.1% | 20.5°C | 2348ft (716m) | 12.62v | 31 |
| 2841 | 15 Apr 03:53:00 | 6 | 7.5 mph | 10 | SSW (207°) | 99510 | 101656 | 24.8°C | 77.1% | 20.5°C | 2348ft (716m) | 12.62v | 31 |
| 2840 | 15 Apr 03:52:49 | 7 | 8.3 mph | 9 | SSW (201°) | 99505 | 101651 | 24.8°C | 77.1% | 20.5°C | 2348ft (716m) | 12.62v | 31 |
| 2839 | 15 Apr 03:52:38 | 4 | 5.8 mph | 8 | SW (215°) | 99507 | 101653 | 24.8°C | 77.1% | 20.5°C | 2348ft (716m) | 12.62v | 31 |
| 2838 | 15 Apr 03:52:26 | 6 | 7.3 mph | 9 | SSW (212°) | 99506 | 101652 | 24.8°C | 77.1% | 20.5°C | 2348ft (716m) | 12.62v | 31 |
| 2837 | 15 Apr 03:52:15 | 8 | 9.2 mph | 10 | SSW (210°) | 99510 | 101656 | 24.8°C | 77% | 20.5°C | 2357ft (718m) | 12.64v | 31 |
| 2836 | 15 Apr 03:52:04 | 5 | 5.7 mph | 6 | SW (214°) | 99505 | 101651 | 24.8°C | 77.2% | 20.5°C | 2340ft (713m) | 12.64v | 31 |
| 2835 | 15 Apr 03:51:53 | 6 | 6.5 mph | 7 | SW (218°) | 99508 | 101654 | 24.8°C | 77.2% | 20.5°C | 2340ft (713m) | 12.63v | 31 |
| 2834 | 15 Apr 03:51:41 | 6 | 7.2 mph | 9 | SSW (211°) | 99506 | 101652 | 24.8°C | 77.2% | 20.5°C | 2340ft (713m) | 12.62v | 31 |
| 2833 | 15 Apr 03:51:30 | 5 | 5.9 mph | 7 | SW (218°) | 99507 | 101653 | 24.8°C | 77.3% | 20.6°C | 2331ft (710m) | 12.63v | 31 |
| 2832 | 15 Apr 03:51:19 | 7 | 8.2 mph | 9 | SSW (203°) | 99506 | 101652 | 24.8°C | 77.1% | 20.5°C | 2348ft (716m) | 12.63v | 31 |
| 2831 | 15 Apr 03:51:08 | 9 | 9.3 mph | 11 | SSW (210°) | 99506 | 101652 | 24.8°C | 77.3% | 20.6°C | 2331ft (710m) | 12.62v | 31 |
| 2830 | 15 Apr 03:50:56 | 7 | 8.5 mph | 10 | SSW (206°) | 99505 | 101651 | 24.8°C | 77.3% | 20.6°C | 2331ft (710m) | 12.62v | 31 |
| 2829 | 15 Apr 03:50:45 | 6 | 6.9 mph | 8 | SSW (213°) | 99504 | 101650 | 24.8°C | 77.3% | 20.6°C | 2331ft (710m) | 12.62v | 31 |
| 2828 | 15 Apr 03:50:34 | 7 | 7.3 mph | 8 | SSW (209°) | 99504 | 101650 | 24.8°C | 77.3% | 20.6°C | 2331ft (710m) | 12.64v | 31 |
| 2827 | 15 Apr 03:50:23 | 5 | 6.5 mph | 10 | SSW (211°) | 99505 | 101651 | 24.8°C | 77.4% | 20.6°C | 2322ft (708m) | 12.63v | 31 |
| 2826 | 15 Apr 03:50:11 | 6 | 6.6 mph | 7 | SSW (213°) | 99506 | 101652 | 24.8°C | 77.3% | 20.6°C | 2331ft (710m) | 12.64v | 31 |
| 2825 | 15 Apr 03:50:00 | 5 | 6.1 mph | 8 | SSW (207°) | 99504 | 101650 | 24.8°C | 77.2% | 20.5°C | 2340ft (713m) | 12.63v | 31 |
| 2824 | 15 Apr 03:49:49 | 7 | 9 mph | 10 | SW (219°) | 99504 | 101650 | 24.8°C | 77.2% | 20.5°C | 2340ft (713m) | 12.62v | 31 |
| 2823 | 15 Apr 03:49:38 | 5 | 5.7 mph | 7 | SW (215°) | 99505 | 101651 | 24.8°C | 77.3% | 20.6°C | 2331ft (710m) | 12.62v | 31 |
| 2822 | 15 Apr 03:49:26 | 5 | 6.7 mph | 9 | SW (216°) | 99505 | 101651 | 24.8°C | 77.3% | 20.6°C | 2331ft (710m) | 12.62v | 31 |
| 2821 | 15 Apr 03:49:15 | 7 | 6.8 mph | 7 | SSW (205°) | 99505 | 101651 | 24.8°C | 77.3% | 20.6°C | 2331ft (710m) | 12.62v | 31 |
| 2820 | 15 Apr 03:49:04 | 4 | 4.7 mph | 7 | SSW (209°) | 99504 | 101650 | 24.8°C | 77.4% | 20.6°C | 2322ft (708m) | 12.64v | 31 |
| 2819 | 15 Apr 03:48:53 | 5 | 6.2 mph | 9 | SSW (204°) | 99505 | 101651 | 24.8°C | 77.3% | 20.6°C | 2331ft (710m) | 12.63v | 31 |
| 2818 | 15 Apr 03:48:41 | 6 | 7.8 mph | 9 | SSW (201°) | 99504 | 101650 | 24.7°C | 77.3% | 20.5°C | 2330ft (710m) | 12.63v | 31 |
| 2817 | 15 Apr 03:48:30 | 9 | 9.8 mph | 11 | SSW (199°) | 99498 | 101644 | 24.7°C | 77.2% | 20.4°C | 2338ft (713m) | 12.63v | 31 |
| 2816 | 15 Apr 03:48:19 | 11 | 11.8 mph | 13 | SSW (197°) | 99502 | 101648 | 24.7°C | 77.1% | 20.4°C | 2347ft (715m) | 12.62v | 31 |
| 2815 | 15 Apr 03:48:08 | 7 | 9.1 mph | 11 | SSW (197°) | 99506 | 101652 | 24.7°C | 77.3% | 20.5°C | 2330ft (710m) | 12.63v | 31 |
| 2814 | 15 Apr 03:47:56 | 9 | 9.9 mph | 12 | SSW (203°) | 99507 | 101653 | 24.8°C | 77.1% | 20.5°C | 2348ft (716m) | 12.62v | 31 |
| 2813 | 15 Apr 03:47:45 | 7 | 9.7 mph | 12 | SSW (209°) | 99506 | 101652 | 24.8°C | 77.3% | 20.6°C | 2331ft (710m) | 12.62v | 31 |
| 2812 | 15 Apr 03:47:34 | 5 | 5.9 mph | 7 | SSW (213°) | 99501 | 101647 | 24.8°C | 77.4% | 20.6°C | 2322ft (708m) | 12.65v | 31 |
| 2811 | 15 Apr 03:47:23 | 6 | 6.7 mph | 8 | SW (225°) | 99505 | 101651 | 24.8°C | 77.4% | 20.6°C | 2322ft (708m) | 12.62v | 31 |
| 2810 | 15 Apr 03:47:11 | 7 | 9 mph | 11 | SSW (192°) | 99502 | 101648 | 24.7°C | 77.3% | 20.5°C | 2330ft (710m) | 12.62v | 31 |
| 2809 | 15 Apr 03:47:00 | 7 | 10.5 mph | 15 | SW (218°) | 99500 | 101646 | 24.7°C | 77.2% | 20.4°C | 2338ft (713m) | 12.63v | 31 |
| 2808 | 15 Apr 03:46:49 | 7 | 8 mph | 11 | SW (222°) | 99502 | 101648 | 24.7°C | 77.2% | 20.4°C | 2338ft (713m) | 12.63v | 31 |
| 2807 | 15 Apr 03:46:38 | 7 | 8.6 mph | 10 | SSW (204°) | 99498 | 101644 | 24.7°C | 77.3% | 20.5°C | 2330ft (710m) | 12.62v | 31 |
| 2806 | 15 Apr 03:46:26 | 7 | 8 mph | 10 | SSW (206°) | 99504 | 101650 | 24.7°C | 77.4% | 20.5°C | 2321ft (707m) | 12.61v | 31 |
| 2805 | 15 Apr 03:46:15 | 8 | 9.7 mph | 11 | SSW (203°) | 99502 | 101648 | 24.7°C | 77.3% | 20.5°C | 2330ft (710m) | 12.62v | 31 |
| 2804 | 15 Apr 03:46:04 | 7 | 9.3 mph | 14 | SSW (207°) | 99499 | 101645 | 24.7°C | 77.4% | 20.5°C | 2321ft (707m) | 12.63v | 31 |
| 2803 | 15 Apr 03:45:53 | 7 | 7.8 mph | 11 | SSW (202°) | 99497 | 101643 | 24.7°C | 77.4% | 20.5°C | 2321ft (707m) | 12.63v | 31 |
| 2802 | 15 Apr 03:45:41 | 7 | 9.6 mph | 11 | SSW (202°) | 99504 | 101650 | 24.7°C | 77.3% | 20.5°C | 2330ft (710m) | 12.62v | 31 |
| 2801 | 15 Apr 03:45:30 | 7 | 8.9 mph | 13 | SSW (211°) | 99502 | 101648 | 24.8°C | 77.3% | 20.6°C | 2331ft (710m) | 12.63v | 31 |
| 2800 | 15 Apr 03:45:19 | 10 | 10.7 mph | 12 | SSW (198°) | 99503 | 101649 | 24.7°C | 77.2% | 20.4°C | 2338ft (713m) | 12.63v | 31 |
| 2799 | 15 Apr 03:45:08 | 6 | 6.9 mph | 8 | SW (214°) | 99505 | 101651 | 24.7°C | 77.4% | 20.5°C | 2321ft (707m) | 12.62v | 31 |
| 2798 | 15 Apr 03:44:56 | 7 | 8.9 mph | 11 | SSW (207°) | 99501 | 101647 | 24.7°C | 77.2% | 20.4°C | 2338ft (713m) | 12.63v | 31 |
| 2797 | 15 Apr 03:44:45 | 7 | 8.1 mph | 10 | SSW (192°) | 99499 | 101645 | 24.7°C | 77.3% | 20.5°C | 2330ft (710m) | 12.63v | 31 |
| 2796 | 15 Apr 03:44:34 | 8 | 8.4 mph | 9 | SSW (210°) | 99498 | 101644 | 24.7°C | 77.4% | 20.5°C | 2321ft (707m) | 12.63v | 31 |
| 2795 | 15 Apr 03:44:23 | 9 | 10.2 mph | 12 | SSW (201°) | 99499 | 101645 | 24.7°C | 77.3% | 20.5°C | 2330ft (710m) | 12.63v | 31 |
| 2794 | 15 Apr 03:44:11 | 5 | 8.9 mph | 12 | SSW (203°) | 99499 | 101645 | 24.7°C | 77.3% | 20.5°C | 2330ft (710m) | 12.64v | 31 |
| 2793 | 15 Apr 03:44:00 | 11 | 13.2 mph | 16 | S (190°) | 99497 | 101643 | 24.8°C | 77.2% | 20.5°C | 2340ft (713m) | 12.63v | 31 |
| 2792 | 15 Apr 03:43:49 | 9 | 10.6 mph | 13 | SSW (198°) | 99492 | 101638 | 24.8°C | 77.2% | 20.5°C | 2340ft (713m) | 12.63v | 31 |
| 2791 | 15 Apr 03:43:38 | 7 | 8.7 mph | 11 | SSW (207°) | 99501 | 101647 | 24.8°C | 77.2% | 20.5°C | 2340ft (713m) | 12.62v | 31 |
| 2790 | 15 Apr 03:43:26 | 7 | 8.2 mph | 11 | SSW (201°) | 99504 | 101650 | 24.8°C | 77% | 20.5°C | 2357ft (718m) | 12.63v | 31 |
| 2789 | 15 Apr 03:43:15 | 9 | 10.4 mph | 12 | SSW (206°) | 99504 | 101650 | 24.8°C | 77.1% | 20.5°C | 2348ft (716m) | 12.61v | 31 |
| 2788 | 15 Apr 03:43:04 | 7 | 7.3 mph | 8 | SSW (203°) | 99502 | 101648 | 24.8°C | 77.2% | 20.5°C | 2340ft (713m) | 12.64v | 31 |
| 2787 | 15 Apr 03:42:53 | 7 | 7.9 mph | 9 | SSW (213°) | 99502 | 101648 | 24.8°C | 77.2% | 20.5°C | 2340ft (713m) | 12.64v | 31 |
| 2786 | 15 Apr 03:42:41 | 8 | 9.1 mph | 11 | SSW (198°) | 99501 | 101647 | 24.8°C | 77.1% | 20.5°C | 2348ft (716m) | 12.63v | 31 |
| 2785 | 15 Apr 03:42:30 | 8 | 9.7 mph | 11 | SSW (203°) | 99501 | 101647 | 24.8°C | 77.2% | 20.5°C | 2340ft (713m) | 12.63v | 31 |
| 2784 | 15 Apr 03:42:19 | 7 | 8.2 mph | 10 | SSW (212°) | 99500 | 101646 | 24.8°C | 77.2% | 20.5°C | 2340ft (713m) | 12.64v | 31 |
| 2783 | 15 Apr 03:42:07 | 6 | 6.9 mph | 8 | SW (217°) | 99498 | 101644 | 24.8°C | 77.3% | 20.6°C | 2331ft (710m) | 12.62v | 31 |
| 2782 | 15 Apr 03:41:56 | 7 | 7.1 mph | 9 | SW (218°) | 99502 | 101648 | 24.8°C | 77.3% | 20.6°C | 2331ft (710m) | 12.62v | 31 |
| 2781 | 15 Apr 03:41:45 | 7 | 8.3 mph | 9 | SSW (199°) | 99499 | 101645 | 24.8°C | 77.1% | 20.5°C | 2348ft (716m) | 12.63v | 31 |
| 2780 | 15 Apr 03:41:34 | 8 | 9.1 mph | 10 | SSW (194°) | 99500 | 101646 | 24.7°C | 77.1% | 20.4°C | 2347ft (715m) | 12.64v | 31 |
| 2779 | 15 Apr 03:41:22 | 11 | 11 mph | 12 | SSW (213°) | 99502 | 101648 | 24.8°C | 77.1% | 20.5°C | 2348ft (716m) | 12.63v | 31 |
| 2778 | 15 Apr 03:41:11 | 6 | 7.3 mph | 9 | SSW (208°) | 99497 | 101643 | 24.8°C | 77.3% | 20.6°C | 2331ft (710m) | 12.64v | 31 |
| 2777 | 15 Apr 03:41:00 | 7 | 7.9 mph | 9 | SSW (199°) | 99503 | 101649 | 24.8°C | 77.2% | 20.5°C | 2340ft (713m) | 12.63v | 31 |
| 2776 | 15 Apr 03:40:49 | 7 | 7.9 mph | 10 | SSW (206°) | 99499 | 101645 | 24.7°C | 77.3% | 20.5°C | 2330ft (710m) | 12.64v | 31 |
| 2775 | 15 Apr 03:40:37 | 7 | 7.3 mph | 10 | SSW (209°) | 99500 | 101646 | 24.7°C | 77.3% | 20.5°C | 2330ft (710m) | 12.62v | 31 |
| 2774 | 15 Apr 03:40:26 | 6 | 7.3 mph | 9 | SSW (202°) | 99500 | 101646 | 24.7°C | 77.4% | 20.5°C | 2321ft (707m) | 12.63v | 31 |
| 2773 | 15 Apr 03:40:15 | 9 | 10.7 mph | 12 | SSW (203°) | 99501 | 101647 | 24.7°C | 77.3% | 20.5°C | 2330ft (710m) | 12.62v | 31 |
| 2772 | 15 Apr 03:40:04 | 8 | 9.5 mph | 11 | SSW (201°) | 99499 | 101645 | 24.7°C | 77.3% | 20.5°C | 2330ft (710m) | 12.64v | 31 |
| 2771 | 15 Apr 03:39:52 | 7 | 8.3 mph | 9 | SSW (206°) | 99496 | 101642 | 24.7°C | 77.4% | 20.5°C | 2321ft (707m) | 12.62v | 31 |
| 2770 | 15 Apr 03:39:41 | 7 | 7.9 mph | 10 | SW (228°) | 99499 | 101645 | 24.7°C | 77.4% | 20.5°C | 2321ft (707m) | 12.63v | 31 |
| 2769 | 15 Apr 03:39:30 | 6 | 8.2 mph | 11 | SW (219°) | 99498 | 101644 | 24.7°C | 77.4% | 20.5°C | 2321ft (707m) | 12.63v | 31 |
| 2768 | 15 Apr 03:39:19 | 9 | 9.4 mph | 10 | SSW (205°) | 99496 | 101642 | 24.7°C | 77.4% | 20.5°C | 2321ft (707m) | 12.64v | 31 |
| 2767 | 15 Apr 03:39:08 | 9 | 11.4 mph | 14 | SSW (207°) | 99506 | 101652 | 24.7°C | 77.3% | 20.5°C | 2330ft (710m) | 12.64v | 31 |
| 2766 | 15 Apr 03:38:56 | 9 | 11.7 mph | 13 | SSW (201°) | 99499 | 101645 | 24.7°C | 77.3% | 20.5°C | 2330ft (710m) | 12.63v | 31 |
| 2765 | 15 Apr 03:38:45 | 10 | 11.5 mph | 14 | SSW (200°) | 99490 | 101636 | 24.7°C | 77.4% | 20.5°C | 2321ft (707m) | 12.63v | 31 |
| 2764 | 15 Apr 03:38:34 | 6 | 6.2 mph | 7 | SSW (208°) | 99500 | 101646 | 24.7°C | 77.5% | 20.5°C | 2312ft (705m) | 12.64v | 31 |
| 2763 | 15 Apr 03:38:23 | 3 | 5.4 mph | 7 | SSW (203°) | 99501 | 101647 | 24.7°C | 77.5% | 20.5°C | 2312ft (705m) | 12.64v | 31 |
| 2762 | 15 Apr 03:38:11 | 7 | 7.9 mph | 10 | SSW (203°) | 99498 | 101644 | 24.7°C | 77.4% | 20.5°C | 2321ft (707m) | 12.63v | 31 |
| 2761 | 15 Apr 03:38:00 | 6 | 7.3 mph | 9 | SSW (209°) | 99497 | 101643 | 24.7°C | 77.4% | 20.5°C | 2321ft (707m) | 12.64v | 31 |
| 2760 | 15 Apr 03:37:49 | 8 | 8.5 mph | 10 | S (190°) | 99492 | 101638 | 24.7°C | 77.2% | 20.4°C | 2338ft (713m) | 12.63v | 31 |
| 2759 | 15 Apr 03:37:38 | 6 | 6.6 mph | 8 | SSW (205°) | 99497 | 101643 | 24.7°C | 77.5% | 20.5°C | 2312ft (705m) | 12.63v | 31 |
| 2758 | 15 Apr 03:37:26 | 6 | 8.3 mph | 10 | SSW (205°) | 99496 | 101642 | 24.7°C | 77.5% | 20.5°C | 2312ft (705m) | 12.62v | 31 |
| 2757 | 15 Apr 03:37:15 | 8 | 8.8 mph | 11 | SSW (197°) | 99492 | 101638 | 24.7°C | 77.3% | 20.5°C | 2330ft (710m) | 12.62v | 31 |
| 2756 | 15 Apr 03:37:04 | 7 | 7.8 mph | 10 | SSW (200°) | 99497 | 101643 | 24.7°C | 77.5% | 20.5°C | 2312ft (705m) | 12.63v | 31 |
| 2755 | 15 Apr 03:36:53 | 9 | 9.7 mph | 11 | SSW (196°) | 99500 | 101646 | 24.7°C | 77.3% | 20.5°C | 2330ft (710m) | 12.63v | 31 |
| 2754 | 15 Apr 03:36:41 | 12 | 12.5 mph | 13 | SSW (195°) | 99495 | 101641 | 24.7°C | 77.3% | 20.5°C | 2330ft (710m) | 12.65v | 31 |
| 2753 | 15 Apr 03:36:30 | 9 | 10.7 mph | 14 | SSW (194°) | 99493 | 101639 | 24.7°C | 77.4% | 20.5°C | 2321ft (707m) | 12.64v | 31 |
| 2752 | 15 Apr 03:36:19 | 7 | 9.2 mph | 11 | SSW (202°) | 99491 | 101637 | 24.7°C | 77.4% | 20.5°C | 2321ft (707m) | 12.62v | 31 |
| 2751 | 15 Apr 03:36:08 | 8 | 8.6 mph | 10 | SSW (199°) | 99498 | 101644 | 24.7°C | 77.4% | 20.5°C | 2321ft (707m) | 12.64v | 31 |
| 2750 | 15 Apr 03:35:56 | 9 | 11.5 mph | 14 | SSW (199°) | 99495 | 101641 | 24.7°C | 77.2% | 20.4°C | 2338ft (713m) | 12.64v | 31 |
| 2749 | 15 Apr 03:35:45 | 9 | 10.7 mph | 14 | SSW (206°) | 99496 | 101642 | 24.7°C | 77.4% | 20.5°C | 2321ft (707m) | 12.63v | 31 |
| 2748 | 15 Apr 03:35:34 | 12 | 13.3 mph | 15 | SSW (199°) | 99489 | 101635 | 24.7°C | 77.3% | 20.5°C | 2330ft (710m) | 12.63v | 31 |
| 2747 | 15 Apr 03:35:23 | 9 | 11 mph | 13 | SSW (201°) | 99501 | 101647 | 24.7°C | 77.3% | 20.5°C | 2330ft (710m) | 12.63v | 31 |
| 2746 | 15 Apr 03:35:11 | 8 | 10.8 mph | 13 | SSW (192°) | 99494 | 101640 | 24.7°C | 77.4% | 20.5°C | 2321ft (707m) | 12.64v | 31 |
| 2745 | 15 Apr 03:35:00 | 10 | 11.4 mph | 13 | SSW (196°) | 99499 | 101645 | 24.7°C | 77.3% | 20.5°C | 2330ft (710m) | 12.64v | 31 |
| 2744 | 15 Apr 03:34:49 | 9 | 10.4 mph | 11 | SSW (196°) | 99496 | 101642 | 24.7°C | 77.3% | 20.5°C | 2330ft (710m) | 12.64v | 31 |
| 2743 | 15 Apr 03:34:38 | 9 | 11.3 mph | 14 | SSW (202°) | 99499 | 101645 | 24.7°C | 77.4% | 20.5°C | 2321ft (707m) | 12.64v | 31 |
| 2742 | 15 Apr 03:34:26 | 6 | 10.2 mph | 14 | SSW (194°) | 99494 | 101640 | 24.7°C | 77.3% | 20.5°C | 2330ft (710m) | 12.62v | 31 |
| 2741 | 15 Apr 03:34:15 | 7 | 7.7 mph | 8 | SW (214°) | 99497 | 101643 | 24.7°C | 77.4% | 20.5°C | 2321ft (707m) | 12.62v | 31 |
| 2740 | 15 Apr 03:34:04 | 6 | 7.4 mph | 9 | SSW (202°) | 99498 | 101644 | 24.7°C | 77.4% | 20.5°C | 2321ft (707m) | 12.63v | 31 |
| 2739 | 15 Apr 03:33:53 | 6 | 7.6 mph | 11 | SW (217°) | 99499 | 101645 | 24.7°C | 77.4% | 20.5°C | 2321ft (707m) | 12.63v | 31 |
| 2738 | 15 Apr 03:33:41 | 6 | 6.1 mph | 7 | SSW (209°) | 99497 | 101643 | 24.7°C | 77.6% | 20.5°C | 2304ft (702m) | 12.63v | 31 |
| 2737 | 15 Apr 03:33:30 | 7 | 7.6 mph | 8 | SSW (212°) | 99499 | 101645 | 24.7°C | 77.5% | 20.5°C | 2312ft (705m) | 12.64v | 31 |
| 2736 | 15 Apr 03:33:19 | 10 | 10.5 mph | 12 | SSW (203°) | 99494 | 101640 | 24.7°C | 77.5% | 20.5°C | 2312ft (705m) | 12.64v | 31 |
| 2735 | 15 Apr 03:33:08 | 8 | 8.1 mph | 9 | SSW (211°) | 99500 | 101646 | 24.7°C | 77.5% | 20.5°C | 2312ft (705m) | 12.62v | 31 |
| 2734 | 15 Apr 03:32:56 | 8 | 8.6 mph | 10 | SSW (206°) | 99498 | 101644 | 24.7°C | 77.4% | 20.5°C | 2321ft (707m) | 12.63v | 31 |
| 2733 | 15 Apr 03:32:45 | 7 | 8 mph | 10 | SSW (205°) | 99494 | 101640 | 24.7°C | 77.4% | 20.5°C | 2321ft (707m) | 12.62v | 31 |
| 2732 | 15 Apr 03:32:34 | 5 | 8.3 mph | 11 | SSW (206°) | 99493 | 101639 | 24.7°C | 77.6% | 20.5°C | 2304ft (702m) | 12.64v | 31 |
| 2731 | 15 Apr 03:32:23 | 7 | 8.9 mph | 14 | SSW (204°) | 99494 | 101640 | 24.6°C | 77.7% | 20.4°C | 2294ft (699m) | 12.64v | 31 |
| 2730 | 15 Apr 03:32:11 | 11 | 11.6 mph | 14 | SSW (198°) | 99490 | 101636 | 24.6°C | 77.5% | 20.4°C | 2311ft (704m) | 12.65v | 31 |
| 2729 | 15 Apr 03:32:00 | 9 | 10.2 mph | 13 | S (189°) | 99494 | 101640 | 24.6°C | 77.6% | 20.4°C | 2303ft (702m) | 12.64v | 31 |
| 2728 | 15 Apr 03:31:49 | 8 | 10.2 mph | 13 | S (191°) | 99492 | 101638 | 24.7°C | 77.4% | 20.5°C | 2321ft (707m) | 12.64v | 31 |
| 2727 | 15 Apr 03:31:38 | 9 | 10.4 mph | 12 | SSW (200°) | 99497 | 101643 | 24.7°C | 77.5% | 20.5°C | 2312ft (705m) | 12.63v | 31 |
| 2726 | 15 Apr 03:31:26 | 9 | 9.3 mph | 10 | SSW (208°) | 99499 | 101645 | 24.7°C | 77.4% | 20.5°C | 2321ft (707m) | 12.63v | 31 |
| 2725 | 15 Apr 03:31:15 | 9 | 10.3 mph | 12 | SW (215°) | 99495 | 101641 | 24.7°C | 77.3% | 20.5°C | 2330ft (710m) | 12.63v | 31 |
| 2724 | 15 Apr 03:31:04 | 8 | 8.6 mph | 10 | SSW (209°) | 99497 | 101643 | 24.7°C | 77.4% | 20.5°C | 2321ft (707m) | 12.64v | 31 |
| 2723 | 15 Apr 03:30:53 | 7 | 8 mph | 9 | SSW (211°) | 99499 | 101645 | 24.7°C | 77.5% | 20.5°C | 2312ft (705m) | 12.63v | 31 |
| 2722 | 15 Apr 03:30:41 | 8 | 9.1 mph | 10 | SSW (212°) | 99499 | 101645 | 24.7°C | 77.5% | 20.5°C | 2312ft (705m) | 12.64v | 31 |
| 2721 | 15 Apr 03:30:30 | 9 | 10.7 mph | 13 | SSW (209°) | 99496 | 101642 | 24.7°C | 77.3% | 20.5°C | 2330ft (710m) | 12.65v | 31 |
| 2720 | 15 Apr 03:30:19 | 10 | 10.7 mph | 12 | SSW (203°) | 99496 | 101642 | 24.7°C | 77.3% | 20.5°C | 2330ft (710m) | 12.63v | 31 |
| 2719 | 15 Apr 03:30:08 | 6 | 7.4 mph | 10 | SSW (212°) | 99493 | 101639 | 24.7°C | 77.4% | 20.5°C | 2321ft (707m) | 12.63v | 31 |
| 2718 | 15 Apr 03:29:56 | 8 | 10 mph | 13 | SSW (196°) | 99498 | 101644 | 24.7°C | 77.3% | 20.5°C | 2330ft (710m) | 12.64v | 31 |
| 2717 | 15 Apr 03:29:45 | 11 | 11.9 mph | 13 | S (191°) | 99500 | 101646 | 24.7°C | 77.3% | 20.5°C | 2330ft (710m) | 12.63v | 31 |
| 2716 | 15 Apr 03:29:34 | 9 | 10.9 mph | 13 | SSW (202°) | 99493 | 101639 | 24.7°C | 77.3% | 20.5°C | 2330ft (710m) | 12.62v | 31 |
| 2715 | 15 Apr 03:29:23 | 6 | 7.3 mph | 9 | SSW (199°) | 99495 | 101641 | 24.7°C | 77.4% | 20.5°C | 2321ft (707m) | 12.64v | 31 |
| 2714 | 15 Apr 03:29:11 | 7 | 6.9 mph | 9 | S (183°) | 99498 | 101644 | 24.7°C | 77.4% | 20.5°C | 2321ft (707m) | 12.64v | 31 |
| 2713 | 15 Apr 03:29:00 | 7 | 8.6 mph | 10 | SSW (197°) | 99497 | 101643 | 24.7°C | 77.5% | 20.5°C | 2312ft (705m) | 12.64v | 31 |
| 2712 | 15 Apr 03:28:49 | 7 | 7.9 mph | 9 | SSW (203°) | 99497 | 101643 | 24.7°C | 77.6% | 20.5°C | 2304ft (702m) | 12.62v | 31 |
| 2711 | 15 Apr 03:28:38 | 9 | 10.5 mph | 12 | SSW (198°) | 99494 | 101640 | 24.7°C | 77.3% | 20.5°C | 2330ft (710m) | 12.62v | 31 |
| 2710 | 15 Apr 03:28:26 | 9 | 10.1 mph | 11 | SSW (200°) | 99500 | 101646 | 24.7°C | 77.4% | 20.5°C | 2321ft (707m) | 12.64v | 31 |
| 2709 | 15 Apr 03:28:15 | 10 | 11.1 mph | 13 | SSW (207°) | 99495 | 101641 | 24.7°C | 77.3% | 20.5°C | 2330ft (710m) | 12.63v | 31 |
| 2708 | 15 Apr 03:28:04 | 7 | 8.2 mph | 11 | SSW (204°) | 99497 | 101643 | 24.7°C | 77.4% | 20.5°C | 2321ft (707m) | 12.63v | 31 |
| 2707 | 15 Apr 03:27:53 | 9 | 9.4 mph | 10 | SSW (195°) | 99499 | 101645 | 24.7°C | 77.3% | 20.5°C | 2330ft (710m) | 12.64v | 31 |
| 2706 | 15 Apr 03:27:41 | 7 | 7.5 mph | 9 | SSW (204°) | 99495 | 101641 | 24.7°C | 77.4% | 20.5°C | 2321ft (707m) | 12.63v | 31 |
| 2705 | 15 Apr 03:27:30 | 7 | 7.8 mph | 11 | SSW (199°) | 99504 | 101650 | 24.7°C | 77.4% | 20.5°C | 2321ft (707m) | 12.64v | 31 |
| 2704 | 15 Apr 03:27:19 | 7 | 10.2 mph | 12 | SSW (194°) | 99500 | 101646 | 24.7°C | 77.3% | 20.5°C | 2330ft (710m) | 12.64v | 31 |
| 2703 | 15 Apr 03:27:07 | 6 | 7.9 mph | 10 | SSW (194°) | 99500 | 101646 | 24.7°C | 77.4% | 20.5°C | 2321ft (707m) | 12.63v | 31 |
| 2702 | 15 Apr 03:26:56 | 7 | 8.3 mph | 10 | SSW (200°) | 99500 | 101646 | 24.7°C | 77.4% | 20.5°C | 2321ft (707m) | 12.64v | 31 |
| 2701 | 15 Apr 03:26:45 | 8 | 9.8 mph | 11 | S (191°) | 99497 | 101643 | 24.7°C | 77.3% | 20.5°C | 2330ft (710m) | 12.62v | 31 |
| 2700 | 15 Apr 03:26:34 | 7 | 8.3 mph | 10 | SSW (192°) | 99500 | 101646 | 24.7°C | 77.4% | 20.5°C | 2321ft (707m) | 12.62v | 31 |
| 2699 | 15 Apr 03:26:22 | 6 | 7.2 mph | 9 | SSW (199°) | 99499 | 101645 | 24.7°C | 77.4% | 20.5°C | 2321ft (707m) | 12.63v | 31 |
| 2698 | 15 Apr 03:26:11 | 7 | 8.4 mph | 10 | SW (214°) | 99500 | 101646 | 24.7°C | 77.2% | 20.4°C | 2338ft (713m) | 12.63v | 31 |
| 2697 | 15 Apr 03:26:00 | 5 | 6.2 mph | 9 | SSW (202°) | 99496 | 101642 | 24.7°C | 77.5% | 20.5°C | 2312ft (705m) | 12.65v | 31 |
| 2696 | 15 Apr 03:25:49 | 6 | 8.3 mph | 11 | SSW (193°) | 99500 | 101646 | 24.7°C | 77.2% | 20.4°C | 2338ft (713m) | 12.64v | 31 |
| 2695 | 15 Apr 03:25:37 | 7 | 9.3 mph | 12 | SSW (202°) | 99497 | 101643 | 24.7°C | 77.3% | 20.5°C | 2330ft (710m) | 12.63v | 31 |
| 2694 | 15 Apr 03:25:26 | 6 | 6.5 mph | 8 | SSW (211°) | 99501 | 101647 | 24.7°C | 77.4% | 20.5°C | 2321ft (707m) | 12.64v | 31 |
| 2693 | 15 Apr 03:25:15 | 6 | 8.4 mph | 10 | SSW (205°) | 99500 | 101646 | 24.7°C | 77.4% | 20.5°C | 2321ft (707m) | 12.63v | 31 |
| 2692 | 15 Apr 03:25:04 | 6 | 6.8 mph | 8 | SSW (201°) | 99500 | 101646 | 24.7°C | 77.4% | 20.5°C | 2321ft (707m) | 12.62v | 31 |
| 2691 | 15 Apr 03:24:52 | 6 | 7.2 mph | 9 | SSW (206°) | 99500 | 101646 | 24.7°C | 77.5% | 20.5°C | 2312ft (705m) | 12.63v | 31 |
| 2690 | 15 Apr 03:24:41 | 6 | 6.7 mph | 9 | SSW (205°) | 99500 | 101646 | 24.7°C | 77.5% | 20.5°C | 2312ft (705m) | 12.63v | 31 |
| 2689 | 15 Apr 03:24:30 | 8 | 8.8 mph | 10 | SSW (198°) | 99499 | 101645 | 24.7°C | 77.5% | 20.5°C | 2312ft (705m) | 12.64v | 31 |
| 2688 | 15 Apr 03:24:19 | 8 | 9.7 mph | 12 | SSW (197°) | 99498 | 101644 | 24.7°C | 77.3% | 20.5°C | 2330ft (710m) | 12.65v | 31 |
| 2687 | 15 Apr 03:24:08 | 9 | 9.5 mph | 10 | SSW (194°) | 99500 | 101646 | 24.7°C | 77.5% | 20.5°C | 2312ft (705m) | 12.64v | 31 |
| 2686 | 15 Apr 03:23:56 | 8 | 9.2 mph | 10 | SSW (199°) | 99498 | 101644 | 24.7°C | 77.5% | 20.5°C | 2312ft (705m) | 12.64v | 31 |
| 2685 | 15 Apr 03:23:45 | 10 | 11.8 mph | 13 | SSW (199°) | 99498 | 101644 | 24.7°C | 77.5% | 20.5°C | 2312ft (705m) | 12.64v | 31 |
| 2684 | 15 Apr 03:23:34 | 9 | 9.9 mph | 11 | S (186°) | 99500 | 101646 | 24.7°C | 77.4% | 20.5°C | 2321ft (707m) | 12.63v | 31 |
| 2683 | 15 Apr 03:23:23 | 6 | 8 mph | 9 | SSW (198°) | 99495 | 101641 | 24.7°C | 77.4% | 20.5°C | 2321ft (707m) | 12.64v | 31 |
| 2682 | 15 Apr 03:23:11 | 8 | 9.3 mph | 11 | SSW (201°) | 99498 | 101644 | 24.7°C | 77.5% | 20.5°C | 2312ft (705m) | 12.62v | 31 |
| 2681 | 15 Apr 03:23:00 | 9 | 12.1 mph | 14 | SSW (197°) | 99499 | 101645 | 24.7°C | 77.4% | 20.5°C | 2321ft (707m) | 12.65v | 31 |
| 2680 | 15 Apr 03:22:49 | 10 | 11.8 mph | 15 | SSW (207°) | 99487 | 101633 | 24.7°C | 77.4% | 20.5°C | 2321ft (707m) | 12.65v | 31 |
| 2679 | 15 Apr 03:22:38 | 8 | 9.3 mph | 13 | SW (214°) | 99492 | 101638 | 24.7°C | 77.3% | 20.5°C | 2330ft (710m) | 12.63v | 31 |
| 2678 | 15 Apr 03:22:26 | 8 | 9 mph | 10 | SSW (210°) | 99492 | 101638 | 24.7°C | 77.1% | 20.4°C | 2347ft (715m) | 12.65v | 31 |
| 2677 | 15 Apr 03:22:15 | 9 | 10.2 mph | 12 | SSW (206°) | 99495 | 101641 | 24.7°C | 77.1% | 20.4°C | 2347ft (715m) | 12.63v | 31 |
| 2676 | 15 Apr 03:22:04 | 8 | 9.2 mph | 10 | SSW (198°) | 99494 | 101640 | 24.8°C | 77.2% | 20.5°C | 2340ft (713m) | 12.62v | 31 |
| 2675 | 15 Apr 03:21:53 | 8 | 9.1 mph | 11 | SSW (201°) | 99499 | 101645 | 24.7°C | 77.1% | 20.4°C | 2347ft (715m) | 12.63v | 31 |
| 2674 | 15 Apr 03:21:41 | 10 | 10.6 mph | 11 | SSW (195°) | 99490 | 101636 | 24.7°C | 77.1% | 20.4°C | 2347ft (715m) | 12.63v | 31 |
| 2673 | 15 Apr 03:21:30 | 11 | 12.3 mph | 14 | S (189°) | 99498 | 101644 | 24.8°C | 77.1% | 20.5°C | 2348ft (716m) | 12.63v | 31 |
| 2672 | 15 Apr 03:21:19 | 8 | 9.8 mph | 11 | SSW (194°) | 99494 | 101640 | 24.8°C | 77.1% | 20.5°C | 2348ft (716m) | 12.63v | 31 |
| 2671 | 15 Apr 03:21:08 | 7 | 8.4 mph | 10 | S (188°) | 99500 | 101646 | 24.8°C | 77% | 20.5°C | 2357ft (718m) | 12.64v | 31 |
| 2670 | 15 Apr 03:20:56 | 7 | 8 mph | 9 | S (191°) | 99501 | 101647 | 24.8°C | 77.2% | 20.5°C | 2340ft (713m) | 12.64v | 31 |
| 2669 | 15 Apr 03:20:45 | 7 | 9.7 mph | 14 | SSW (200°) | 99498 | 101644 | 24.8°C | 77% | 20.5°C | 2357ft (718m) | 12.64v | 31 |
| 2668 | 15 Apr 03:20:34 | 7 | 10.1 mph | 14 | SSW (203°) | 99493 | 101639 | 24.8°C | 77.1% | 20.5°C | 2348ft (716m) | 12.62v | 31 |
| 2667 | 15 Apr 03:20:23 | 7 | 8 mph | 10 | SSW (210°) | 99498 | 101644 | 24.8°C | 77.2% | 20.5°C | 2340ft (713m) | 12.64v | 31 |
| 2666 | 15 Apr 03:20:11 | 7 | 8.4 mph | 10 | SSW (201°) | 99502 | 101648 | 24.8°C | 77% | 20.5°C | 2357ft (718m) | 12.63v | 31 |
| 2665 | 15 Apr 03:20:00 | 6 | 7.8 mph | 10 | SW (217°) | 99501 | 101647 | 24.8°C | 77.2% | 20.5°C | 2340ft (713m) | 12.64v | 31 |
| 2664 | 15 Apr 03:19:49 | 7 | 7.2 mph | 8 | SSW (212°) | 99502 | 101648 | 24.8°C | 77.1% | 20.5°C | 2348ft (716m) | 12.64v | 31 |
| 2663 | 15 Apr 03:19:38 | 8 | 8.5 mph | 10 | SSW (203°) | 99499 | 101645 | 24.8°C | 77.3% | 20.6°C | 2331ft (710m) | 12.64v | 31 |
| 2662 | 15 Apr 03:19:26 | 7 | 7.5 mph | 9 | SSW (207°) | 99504 | 101650 | 24.8°C | 77.3% | 20.6°C | 2331ft (710m) | 12.65v | 31 |
| 2661 | 15 Apr 03:19:15 | 7 | 8.2 mph | 10 | SSW (208°) | 99503 | 101649 | 24.8°C | 77.3% | 20.6°C | 2331ft (710m) | 12.64v | 31 |
| 2660 | 15 Apr 03:19:04 | 7 | 8 mph | 10 | SSW (195°) | 99500 | 101646 | 24.8°C | 77.1% | 20.5°C | 2348ft (716m) | 12.64v | 31 |
| 2659 | 15 Apr 03:18:53 | 6 | 6.5 mph | 7 | SSW (206°) | 99502 | 101648 | 24.8°C | 77.3% | 20.6°C | 2331ft (710m) | 12.62v | 31 |
| 2658 | 15 Apr 03:18:41 | 5 | 6.9 mph | 9 | S (189°) | 99503 | 101649 | 24.8°C | 77.3% | 20.6°C | 2331ft (710m) | 12.64v | 31 |
| 2657 | 15 Apr 03:18:30 | 7 | 8 mph | 10 | SSW (198°) | 99503 | 101649 | 24.8°C | 77.2% | 20.5°C | 2340ft (713m) | 12.62v | 31 |
| 2656 | 15 Apr 03:18:19 | 7 | 9 mph | 12 | SSW (196°) | 99502 | 101648 | 24.8°C | 77% | 20.5°C | 2357ft (718m) | 12.65v | 31 |
| 2655 | 15 Apr 03:18:08 | 6 | 6.9 mph | 9 | SSW (202°) | 99505 | 101651 | 24.8°C | 77.2% | 20.5°C | 2340ft (713m) | 12.64v | 31 |
| 2654 | 15 Apr 03:17:56 | 7 | 8 mph | 9 | SSW (204°) | 99505 | 101651 | 24.8°C | 77.3% | 20.6°C | 2331ft (710m) | 12.63v | 31 |
| 2653 | 15 Apr 03:17:45 | 6 | 7.3 mph | 9 | SSW (203°) | 99503 | 101649 | 24.8°C | 77.3% | 20.6°C | 2331ft (710m) | 12.65v | 31 |
| 2652 | 15 Apr 03:17:34 | 8 | 8.4 mph | 10 | SSW (211°) | 99502 | 101648 | 24.8°C | 77.1% | 20.5°C | 2348ft (716m) | 12.64v | 31 |
| 2651 | 15 Apr 03:17:23 | 6 | 7.8 mph | 10 | SSW (204°) | 99504 | 101650 | 24.8°C | 77.3% | 20.6°C | 2331ft (710m) | 12.63v | 31 |
| 2650 | 15 Apr 03:17:11 | 6 | 7.5 mph | 9 | SSW (204°) | 99506 | 101652 | 24.8°C | 77.3% | 20.6°C | 2331ft (710m) | 12.63v | 31 |
| 2649 | 15 Apr 03:17:00 | 9 | 9.6 mph | 11 | SSW (202°) | 99501 | 101647 | 24.8°C | 77.1% | 20.5°C | 2348ft (716m) | 12.64v | 31 |
| 2648 | 15 Apr 03:16:49 | 10 | 12.5 mph | 15 | S (179°) | 99504 | 101650 | 24.8°C | 77.2% | 20.5°C | 2340ft (713m) | 12.64v | 31 |
| 2647 | 15 Apr 03:16:38 | 9 | 11 mph | 15 | SSW (200°) | 99498 | 101644 | 24.8°C | 77% | 20.5°C | 2357ft (718m) | 12.65v | 31 |
| 2646 | 15 Apr 03:16:26 | 7 | 8.8 mph | 11 | SSW (196°) | 99502 | 101648 | 24.8°C | 77% | 20.5°C | 2357ft (718m) | 12.64v | 31 |
| 2645 | 15 Apr 03:16:15 | 6 | 6.8 mph | 8 | SSW (197°) | 99507 | 101653 | 24.8°C | 77.2% | 20.5°C | 2340ft (713m) | 12.64v | 31 |
| 2644 | 15 Apr 03:16:04 | 7 | 9.1 mph | 11 | SSW (211°) | 99502 | 101648 | 24.8°C | 77% | 20.5°C | 2357ft (718m) | 12.64v | 31 |
| 2643 | 15 Apr 03:15:53 | 8 | 9.1 mph | 10 | SSW (194°) | 99505 | 101651 | 24.8°C | 76.9% | 20.5°C | 2365ft (721m) | 12.63v | 31 |
| 2642 | 15 Apr 03:15:41 | 9 | 9.8 mph | 12 | SSW (200°) | 99506 | 101652 | 24.8°C | 76.9% | 20.5°C | 2365ft (721m) | 12.64v | 31 |
| 2641 | 15 Apr 03:15:30 | 7 | 8 mph | 9 | SW (214°) | 99505 | 101651 | 24.8°C | 76.9% | 20.5°C | 2365ft (721m) | 12.63v | 31 |
| 2640 | 15 Apr 03:15:19 | 6 | 7.6 mph | 9 | SSW (203°) | 99507 | 101653 | 24.8°C | 77% | 20.5°C | 2357ft (718m) | 12.65v | 31 |
| 2639 | 15 Apr 03:15:08 | 7 | 7.2 mph | 9 | SSW (205°) | 99509 | 101655 | 24.8°C | 77% | 20.5°C | 2357ft (718m) | 12.66v | 31 |
| 2638 | 15 Apr 03:14:56 | 6 | 7.3 mph | 8 | SSW (209°) | 99502 | 101648 | 24.8°C | 77% | 20.5°C | 2357ft (718m) | 12.64v | 31 |
| 2637 | 15 Apr 03:14:45 | 5 | 5.5 mph | 7 | SW (220°) | 99507 | 101653 | 24.8°C | 77% | 20.5°C | 2357ft (718m) | 12.64v | 31 |
| 2636 | 15 Apr 03:14:34 | 5 | 5.7 mph | 6 | SSW (207°) | 99507 | 101653 | 24.8°C | 77% | 20.5°C | 2357ft (718m) | 12.63v | 31 |
| 2635 | 15 Apr 03:14:23 | 4 | 4.5 mph | 6 | SW (216°) | 99508 | 101654 | 24.8°C | 77% | 20.5°C | 2357ft (718m) | 12.63v | 31 |
| 2634 | 15 Apr 03:14:11 | 5 | 6 mph | 7 | SSW (203°) | 99505 | 101651 | 24.8°C | 77% | 20.5°C | 2357ft (718m) | 12.63v | 31 |
| 2633 | 15 Apr 03:14:00 | 7 | 7.9 mph | 9 | SSW (205°) | 99508 | 101654 | 24.8°C | 77% | 20.5°C | 2357ft (718m) | 12.64v | 31 |
| 2632 | 15 Apr 03:13:49 | 6 | 7.5 mph | 9 | SSW (205°) | 99504 | 101650 | 24.8°C | 76.8% | 20.4°C | 2374ft (724m) | 12.65v | 31 |
| 2631 | 15 Apr 03:13:38 | 7 | 9.1 mph | 11 | SSW (208°) | 99504 | 101650 | 24.8°C | 76.9% | 20.5°C | 2365ft (721m) | 12.64v | 31 |
| 2630 | 15 Apr 03:13:26 | 7 | 7 mph | 8 | SSW (205°) | 99505 | 101651 | 24.8°C | 76.9% | 20.5°C | 2365ft (721m) | 12.63v | 31 |
| 2629 | 15 Apr 03:13:15 | 8 | 8.7 mph | 11 | SSW (194°) | 99500 | 101646 | 24.9°C | 76.6% | 20.5°C | 2393ft (729m) | 12.65v | 31 |
| 2628 | 15 Apr 03:13:04 | 8 | 9.8 mph | 12 | SSW (197°) | 99502 | 101648 | 24.9°C | 76.8% | 20.5°C | 2375ft (724m) | 12.64v | 31 |
| 2627 | 15 Apr 03:12:53 | 5 | 6.3 mph | 7 | SSW (205°) | 99506 | 101652 | 24.9°C | 76.9% | 20.6°C | 2367ft (721m) | 12.63v | 31 |
| 2626 | 15 Apr 03:12:41 | 7 | 8.3 mph | 10 | SW (215°) | 99506 | 101652 | 24.9°C | 76.8% | 20.5°C | 2375ft (724m) | 12.64v | 31 |
| 2625 | 15 Apr 03:12:30 | 8 | 9 mph | 11 | SSW (212°) | 99506 | 101652 | 24.9°C | 76.7% | 20.5°C | 2384ft (727m) | 12.63v | 31 |
| 2624 | 15 Apr 03:12:19 | 7 | 9 mph | 11 | SSW (207°) | 99503 | 101649 | 24.9°C | 76.8% | 20.5°C | 2375ft (724m) | 12.64v | 31 |
| 2623 | 15 Apr 03:12:08 | 6 | 7.3 mph | 9 | SSW (206°) | 99508 | 101654 | 24.9°C | 76.7% | 20.5°C | 2384ft (727m) | 12.65v | 31 |
| 2622 | 15 Apr 03:11:56 | 6 | 6.7 mph | 9 | SSW (199°) | 99504 | 101650 | 24.9°C | 76.8% | 20.5°C | 2375ft (724m) | 12.63v | 31 |
| 2621 | 15 Apr 03:11:45 | 6 | 6.2 mph | 7 | SSW (208°) | 99506 | 101652 | 24.9°C | 76.9% | 20.6°C | 2367ft (721m) | 12.64v | 31 |
| 2620 | 15 Apr 03:11:34 | 5 | 6.1 mph | 7 | SSW (208°) | 99502 | 101648 | 24.9°C | 76.9% | 20.6°C | 2367ft (721m) | 12.63v | 31 |
| 2619 | 15 Apr 03:11:23 | 7 | 7.7 mph | 10 | SW (215°) | 99501 | 101647 | 24.9°C | 76.9% | 20.6°C | 2367ft (721m) | 12.64v | 31 |
| 2618 | 15 Apr 03:11:11 | 3 | 4.9 mph | 8 | SSW (201°) | 99504 | 101650 | 24.9°C | 76.9% | 20.6°C | 2367ft (721m) | 12.62v | 31 |
| 2617 | 15 Apr 03:11:00 | 4 | 4.6 mph | 6 | SSW (205°) | 99505 | 101651 | 24.8°C | 76.9% | 20.5°C | 2365ft (721m) | 12.64v | 31 |
| 2616 | 15 Apr 03:10:49 | 4 | 5.3 mph | 7 | SW (225°) | 99507 | 101653 | 24.9°C | 76.8% | 20.5°C | 2375ft (724m) | 12.63v | 31 |
| 2615 | 15 Apr 03:10:38 | 3 | 3.9 mph | 5 | SW (218°) | 99506 | 101652 | 24.9°C | 76.9% | 20.6°C | 2367ft (721m) | 12.65v | 31 |
| 2614 | 15 Apr 03:10:26 | 6 | 6.5 mph | 7 | SW (227°) | 99501 | 101647 | 24.9°C | 76.8% | 20.5°C | 2375ft (724m) | 12.64v | 31 |
| 2613 | 15 Apr 03:10:15 | 6 | 6.9 mph | 8 | SSW (209°) | 99506 | 101652 | 24.9°C | 76.8% | 20.5°C | 2375ft (724m) | 12.64v | 31 |
| 2612 | 15 Apr 03:10:04 | 7 | 8.7 mph | 10 | SSW (213°) | 99505 | 101651 | 24.9°C | 76.8% | 20.5°C | 2375ft (724m) | 12.63v | 31 |
| 2611 | 15 Apr 03:09:53 | 7 | 7.9 mph | 10 | SSW (209°) | 99501 | 101647 | 24.9°C | 76.7% | 20.5°C | 2384ft (727m) | 12.64v | 31 |
| 2610 | 15 Apr 03:09:41 | 8 | 8.7 mph | 10 | SSW (204°) | 99503 | 101649 | 24.9°C | 76.6% | 20.5°C | 2393ft (729m) | 12.63v | 31 |
| 2609 | 15 Apr 03:09:30 | 5 | 7.3 mph | 9 | SSW (211°) | 99504 | 101650 | 24.9°C | 76.8% | 20.5°C | 2375ft (724m) | 12.62v | 31 |
| 2608 | 15 Apr 03:09:19 | 9 | 9 mph | 10 | SSW (209°) | 99505 | 101651 | 24.9°C | 76.5% | 20.5°C | 2401ft (732m) | 12.64v | 31 |
| 2607 | 15 Apr 03:09:08 | 7 | 7.3 mph | 9 | SSW (210°) | 99506 | 101652 | 24.9°C | 76.6% | 20.5°C | 2393ft (729m) | 12.64v | 31 |
| 2606 | 15 Apr 03:08:56 | 6 | 6.6 mph | 7 | SSW (201°) | 99503 | 101649 | 24.9°C | 76.7% | 20.5°C | 2384ft (727m) | 12.64v | 31 |
| 2605 | 15 Apr 03:08:45 | 5 | 5.4 mph | 6 | SSW (210°) | 99504 | 101650 | 24.9°C | 76.7% | 20.5°C | 2384ft (727m) | 12.64v | 31 |
| 2604 | 15 Apr 03:08:34 | 5 | 7.5 mph | 10 | SSW (205°) | 99507 | 101653 | 24.9°C | 76.7% | 20.5°C | 2384ft (727m) | 12.63v | 31 |
| 2603 | 15 Apr 03:08:23 | 6 | 7.5 mph | 9 | SSW (201°) | 99506 | 101652 | 24.9°C | 76.8% | 20.5°C | 2375ft (724m) | 12.63v | 31 |
| 2602 | 15 Apr 03:08:11 | 5 | 5.6 mph | 6 | SSW (206°) | 99507 | 101653 | 24.9°C | 76.8% | 20.5°C | 2375ft (724m) | 12.64v | 31 |
| 2601 | 15 Apr 03:08:00 | 6 | 6.6 mph | 7 | SSW (201°) | 99507 | 101653 | 24.9°C | 76.8% | 20.5°C | 2375ft (724m) | 12.64v | 31 |
| 2600 | 15 Apr 03:07:49 | 8 | 8.5 mph | 10 | S (179°) | 99506 | 101652 | 24.9°C | 76.7% | 20.5°C | 2384ft (727m) | 12.65v | 31 |
| 2599 | 15 Apr 03:07:38 | 7 | 7.2 mph | 9 | SSW (203°) | 99507 | 101653 | 24.9°C | 76.8% | 20.5°C | 2375ft (724m) | 12.63v | 31 |
| 2598 | 15 Apr 03:07:26 | 6 | 6.5 mph | 7 | SSW (203°) | 99511 | 101657 | 24.9°C | 76.8% | 20.5°C | 2375ft (724m) | 12.65v | 31 |
| 2597 | 15 Apr 03:07:15 | 5 | 6.2 mph | 8 | SSW (203°) | 99509 | 101655 | 24.9°C | 76.8% | 20.5°C | 2375ft (724m) | 12.64v | 31 |
| 2596 | 15 Apr 03:07:04 | 4 | 4.6 mph | 5 | SW (220°) | 99511 | 101657 | 24.9°C | 76.8% | 20.5°C | 2375ft (724m) | 12.63v | 31 |
| 2595 | 15 Apr 03:06:53 | 4 | 5.3 mph | 6 | SSW (207°) | 99509 | 101655 | 24.9°C | 76.7% | 20.5°C | 2384ft (727m) | 12.64v | 31 |
| 2594 | 15 Apr 03:06:41 | 6 | 6.4 mph | 7 | SSW (212°) | 99510 | 101656 | 25°C | 76.6% | 20.6°C | 2394ft (730m) | 12.64v | 31 |
| 2593 | 15 Apr 03:06:30 | 5 | 7.2 mph | 8 | SSW (205°) | 99511 | 101657 | 25°C | 76.7% | 20.6°C | 2385ft (727m) | 12.62v | 31 |
| 2592 | 15 Apr 03:06:19 | 5 | 6.5 mph | 7 | SSW (209°) | 99509 | 101655 | 25°C | 76.7% | 20.6°C | 2385ft (727m) | 12.65v | 31 |
| 2591 | 15 Apr 03:06:08 | 6 | 7.4 mph | 9 | SW (216°) | 99514 | 101661 | 25°C | 76.7% | 20.6°C | 2385ft (727m) | 12.64v | 31 |
| 2590 | 15 Apr 03:05:56 | 3 | 5.1 mph | 8 | SSW (210°) | 99509 | 101655 | 25°C | 76.8% | 20.6°C | 2377ft (725m) | 12.64v | 31 |
| 2589 | 15 Apr 03:05:45 | 4 | 5.5 mph | 7 | SSW (202°) | 99512 | 101658 | 25°C | 76.7% | 20.6°C | 2385ft (727m) | 12.64v | 31 |
| 2588 | 15 Apr 03:05:34 | 4 | 5.1 mph | 7 | SSW (209°) | 99511 | 101657 | 25°C | 76.8% | 20.6°C | 2377ft (725m) | 12.65v | 31 |
| 2587 | 15 Apr 03:05:23 | 5 | 5.9 mph | 7 | SW (217°) | 99509 | 101655 | 25°C | 76.7% | 20.6°C | 2385ft (727m) | 12.64v | 31 |
| 2586 | 15 Apr 03:05:11 | 6 | 6.5 mph | 8 | SSW (207°) | 99510 | 101656 | 25°C | 76.7% | 20.6°C | 2385ft (727m) | 12.63v | 31 |
| 2585 | 15 Apr 03:05:00 | 7 | 7.9 mph | 9 | SSW (205°) | 99511 | 101657 | 25°C | 76.6% | 20.6°C | 2394ft (730m) | 12.63v | 31 |
| 2584 | 15 Apr 03:04:49 | 8 | 7.9 mph | 9 | SSW (211°) | 99509 | 101655 | 25°C | 76.5% | 20.6°C | 2403ft (732m) | 12.62v | 31 |
| 2583 | 15 Apr 03:04:38 | 7 | 8.1 mph | 9 | SSW (209°) | 99510 | 101656 | 25°C | 76.6% | 20.6°C | 2394ft (730m) | 12.64v | 31 |
| 2582 | 15 Apr 03:04:26 | 6 | 6.6 mph | 9 | SSW (212°) | 99515 | 101662 | 25°C | 76.6% | 20.6°C | 2394ft (730m) | 12.64v | 31 |
| 2581 | 15 Apr 03:04:15 | 8 | 8.2 mph | 10 | SSW (211°) | 99511 | 101657 | 25°C | 76.4% | 20.6°C | 2412ft (735m) | 12.64v | 31 |
| 2580 | 15 Apr 03:04:04 | 9 | 9.9 mph | 11 | SSW (197°) | 99513 | 101660 | 25°C | 76.3% | 20.5°C | 2420ft (738m) | 12.66v | 31 |
| 2579 | 15 Apr 03:03:53 | 7 | 8.2 mph | 10 | SSW (208°) | 99505 | 101651 | 25°C | 76.5% | 20.6°C | 2403ft (732m) | 12.63v | 31 |
| 2578 | 15 Apr 03:03:41 | 8 | 8.5 mph | 9 | SSW (203°) | 99512 | 101658 | 25°C | 76.4% | 20.6°C | 2412ft (735m) | 12.63v | 31 |
| 2577 | 15 Apr 03:03:30 | 7 | 8.2 mph | 9 | SSW (206°) | 99513 | 101660 | 25°C | 76.4% | 20.6°C | 2412ft (735m) | 12.63v | 31 |
| 2576 | 15 Apr 03:03:18 | 4 | 5.1 mph | 7 | SSW (210°) | 99511 | 101657 | 25°C | 76.6% | 20.6°C | 2394ft (730m) | 12.63v | 31 |
| 2575 | 15 Apr 03:03:07 | 5 | 5.8 mph | 7 | SW (214°) | 99512 | 101658 | 25°C | 76.5% | 20.6°C | 2403ft (732m) | 12.63v | 31 |
| 2574 | 15 Apr 03:02:56 | 5 | 6.2 mph | 7 | SSW (212°) | 99515 | 101662 | 25°C | 76.5% | 20.6°C | 2403ft (732m) | 12.64v | 31 |
| 2573 | 15 Apr 03:02:45 | 6 | 7.2 mph | 9 | SSW (212°) | 99514 | 101661 | 25°C | 76.4% | 20.6°C | 2412ft (735m) | 12.65v | 31 |
| 2572 | 15 Apr 03:02:33 | 8 | 9.1 mph | 10 | SSW (209°) | 99511 | 101657 | 25°C | 76.3% | 20.5°C | 2420ft (738m) | 12.65v | 31 |
| 2571 | 15 Apr 03:02:22 | 5 | 6.4 mph | 9 | SSW (204°) | 99511 | 101657 | 25°C | 76.5% | 20.6°C | 2403ft (732m) | 12.65v | 31 |
| 2570 | 15 Apr 03:02:11 | 5 | 5.7 mph | 6 | SW (214°) | 99516 | 101663 | 25°C | 76.5% | 20.6°C | 2403ft (732m) | 12.62v | 31 |
| 2569 | 15 Apr 03:02:00 | 8 | 8.2 mph | 9 | SSW (195°) | 99512 | 101658 | 25°C | 76.3% | 20.5°C | 2420ft (738m) | 12.63v | 31 |
| 2568 | 15 Apr 03:01:48 | 6 | 7.5 mph | 10 | SSW (202°) | 99513 | 101660 | 25°C | 76.4% | 20.6°C | 2412ft (735m) | 12.63v | 31 |
| 2567 | 15 Apr 03:01:37 | 6 | 7.5 mph | 9 | SSW (208°) | 99515 | 101662 | 25°C | 76.5% | 20.6°C | 2403ft (732m) | 12.65v | 31 |
| 2566 | 15 Apr 03:01:26 | 6 | 8 mph | 10 | SW (225°) | 99513 | 101660 | 25°C | 76.5% | 20.6°C | 2403ft (732m) | 12.66v | 31 |
| 2565 | 15 Apr 03:01:15 | 5 | 6.8 mph | 9 | SSW (212°) | 99514 | 101661 | 25°C | 76.5% | 20.6°C | 2403ft (732m) | 12.64v | 31 |
| 2564 | 15 Apr 03:01:03 | 8 | 7.8 mph | 9 | SSW (208°) | 99516 | 101663 | 25°C | 76.5% | 20.6°C | 2403ft (732m) | 12.63v | 31 |
| 2563 | 15 Apr 03:00:52 | 7 | 7.3 mph | 8 | SSW (205°) | 99514 | 101661 | 25°C | 76.5% | 20.6°C | 2403ft (732m) | 12.65v | 31 |
| 2562 | 15 Apr 03:00:41 | 6 | 6.9 mph | 9 | SSW (210°) | 99514 | 101661 | 25°C | 76.6% | 20.6°C | 2394ft (730m) | 12.63v | 31 |
| 2561 | 15 Apr 03:00:30 | 7 | 8.6 mph | 10 | SSW (199°) | 99513 | 101660 | 25°C | 76.5% | 20.6°C | 2403ft (732m) | 12.64v | 31 |
| 2560 | 15 Apr 03:00:19 | 7 | 8.1 mph | 9 | SSW (206°) | 99514 | 101661 | 25°C | 76.4% | 20.6°C | 2412ft (735m) | 12.65v | 31 |
| 2559 | 15 Apr 03:00:08 | 8 | 8.3 mph | 9 | SSW (209°) | 99513 | 101660 | 25°C | 76.4% | 20.6°C | 2412ft (735m) | 12.63v | 31 |
| 2558 | 15 Apr 02:59:56 | 5 | 6.5 mph | 8 | SSW (207°) | 99514 | 101661 | 25°C | 76.6% | 20.6°C | 2394ft (730m) | 12.65v | 31 |
| 2557 | 15 Apr 02:59:45 | 4 | 4.8 mph | 6 | SSW (197°) | 99514 | 101661 | 25°C | 76.6% | 20.6°C | 2394ft (730m) | 12.65v | 31 |
| 2556 | 15 Apr 02:59:34 | 6 | 6.7 mph | 8 | SSW (211°) | 99513 | 101660 | 25°C | 76.7% | 20.6°C | 2385ft (727m) | 12.64v | 31 |
| 2555 | 15 Apr 02:59:23 | 5 | 6 mph | 7 | SW (214°) | 99512 | 101658 | 25°C | 76.7% | 20.6°C | 2385ft (727m) | 12.64v | 31 |
| 2554 | 15 Apr 02:59:11 | 5 | 5.6 mph | 6 | SW (215°) | 99512 | 101658 | 25°C | 76.7% | 20.6°C | 2385ft (727m) | 12.64v | 31 |
| 2553 | 15 Apr 02:59:00 | 8 | 8.1 mph | 9 | SSW (209°) | 99510 | 101656 | 25°C | 76.5% | 20.6°C | 2403ft (732m) | 12.63v | 31 |
| 2552 | 15 Apr 02:58:49 | 5 | 6.7 mph | 9 | SSW (207°) | 99513 | 101660 | 25°C | 76.7% | 20.6°C | 2385ft (727m) | 12.64v | 31 |
| 2551 | 15 Apr 02:58:38 | 6 | 5.8 mph | 6 | SSW (209°) | 99514 | 101661 | 25°C | 76.7% | 20.6°C | 2385ft (727m) | 12.65v | 31 |
| 2550 | 15 Apr 02:58:26 | 5 | 5.7 mph | 7 | SW (227°) | 99509 | 101655 | 25°C | 76.5% | 20.6°C | 2403ft (732m) | 12.65v | 31 |
| 2549 | 15 Apr 02:58:15 | 8 | 8.2 mph | 9 | SSW (206°) | 99510 | 101656 | 25°C | 76.5% | 20.6°C | 2403ft (732m) | 12.63v | 31 |
| 2548 | 15 Apr 02:58:04 | 6 | 7.4 mph | 9 | SSW (202°) | 99515 | 101662 | 25°C | 76.6% | 20.6°C | 2394ft (730m) | 12.64v | 31 |
| 2547 | 15 Apr 02:57:53 | 7 | 7.8 mph | 10 | SSW (207°) | 99511 | 101657 | 25°C | 76.6% | 20.6°C | 2394ft (730m) | 12.64v | 31 |
| 2546 | 15 Apr 02:57:41 | 7 | 7.2 mph | 8 | SSW (195°) | 99510 | 101656 | 25°C | 76.6% | 20.6°C | 2394ft (730m) | 12.66v | 31 |
| 2545 | 15 Apr 02:57:30 | 4 | 5.4 mph | 7 | SW (217°) | 99513 | 101660 | 25°C | 76.6% | 20.6°C | 2394ft (730m) | 12.64v | 31 |
| 2544 | 15 Apr 02:57:19 | 4 | 5.1 mph | 6 | SSW (202°) | 99514 | 101661 | 25°C | 76.6% | 20.6°C | 2394ft (730m) | 12.64v | 31 |
| 2543 | 15 Apr 02:57:08 | 7 | 8.7 mph | 10 | SSW (205°) | 99513 | 101660 | 25°C | 76.5% | 20.6°C | 2403ft (732m) | 12.63v | 31 |
| 2542 | 15 Apr 02:56:56 | 5 | 6.5 mph | 7 | SSW (198°) | 99508 | 101654 | 25°C | 76.7% | 20.6°C | 2385ft (727m) | 12.65v | 31 |
| 2541 | 15 Apr 02:56:45 | 7 | 8 mph | 9 | SSW (202°) | 99511 | 101657 | 25°C | 76.5% | 20.6°C | 2403ft (732m) | 12.65v | 31 |
| 2540 | 15 Apr 02:56:34 | 5 | 6.6 mph | 8 | SW (214°) | 99514 | 101661 | 25°C | 76.7% | 20.6°C | 2385ft (727m) | 12.65v | 31 |
| 2539 | 15 Apr 02:56:23 | 4 | 4.2 mph | 5 | SSW (211°) | 99510 | 101656 | 25°C | 76.6% | 20.6°C | 2394ft (730m) | 12.65v | 31 |
| 2538 | 15 Apr 02:56:11 | 5 | 5.8 mph | 8 | SW (226°) | 99510 | 101656 | 25°C | 76.6% | 20.6°C | 2394ft (730m) | 12.64v | 31 |
| 2537 | 15 Apr 02:56:00 | 8 | 8.8 mph | 10 | SW (221°) | 99513 | 101660 | 25°C | 76.5% | 20.6°C | 2403ft (732m) | 12.64v | 31 |
| 2536 | 15 Apr 02:55:49 | 5 | 6.3 mph | 7 | SSW (211°) | 99509 | 101655 | 24.9°C | 76.6% | 20.5°C | 2393ft (729m) | 12.63v | 31 |
| 2535 | 15 Apr 02:55:38 | 4 | 5.7 mph | 8 | SSW (211°) | 99512 | 101658 | 25°C | 76.7% | 20.6°C | 2385ft (727m) | 12.64v | 31 |
| 2534 | 15 Apr 02:55:26 | 4 | 5.1 mph | 6 | SW (222°) | 99512 | 101658 | 24.9°C | 76.6% | 20.5°C | 2393ft (729m) | 12.65v | 31 |
| 2533 | 15 Apr 02:55:15 | 4 | 5.3 mph | 6 | SW (219°) | 99511 | 101657 | 25°C | 76.6% | 20.6°C | 2394ft (730m) | 12.64v | 31 |
| 2532 | 15 Apr 02:55:04 | 7 | 7.2 mph | 8 | WSW (238°) | 99512 | 101658 | 25°C | 76.6% | 20.6°C | 2394ft (730m) | 12.64v | 31 |
| 2531 | 15 Apr 02:54:53 | 7 | 7.2 mph | 9 | SW (218°) | 99510 | 101656 | 25°C | 76.6% | 20.6°C | 2394ft (730m) | 12.64v | 31 |
| 2530 | 15 Apr 02:54:41 | 7 | 8.2 mph | 11 | SSW (213°) | 99505 | 101651 | 24.9°C | 76.6% | 20.5°C | 2393ft (729m) | 12.65v | 31 |
| 2529 | 15 Apr 02:54:30 | 6 | 6.4 mph | 8 | SW (220°) | 99512 | 101658 | 25°C | 76.8% | 20.6°C | 2377ft (725m) | 12.63v | 31 |
| 2528 | 15 Apr 02:54:19 | 4 | 5.2 mph | 7 | SW (217°) | 99509 | 101655 | 25°C | 76.7% | 20.6°C | 2385ft (727m) | 12.63v | 31 |
| 2527 | 15 Apr 02:54:08 | 5 | 5.4 mph | 7 | SW (215°) | 99508 | 101654 | 25°C | 76.7% | 20.6°C | 2385ft (727m) | 12.64v | 31 |
| 2526 | 15 Apr 02:53:56 | 5 | 6.9 mph | 9 | SSW (198°) | 99506 | 101652 | 25°C | 76.6% | 20.6°C | 2394ft (730m) | 12.64v | 31 |
| 2525 | 15 Apr 02:53:45 | 6 | 7.1 mph | 8 | SSW (201°) | 99505 | 101651 | 25°C | 76.7% | 20.6°C | 2385ft (727m) | 12.65v | 31 |
| 2524 | 15 Apr 02:53:34 | 6 | 7 mph | 9 | SSW (204°) | 99509 | 101655 | 25°C | 76.6% | 20.6°C | 2394ft (730m) | 12.65v | 31 |
| 2523 | 15 Apr 02:53:23 | 6 | 6.5 mph | 8 | SSW (206°) | 99503 | 101649 | 25°C | 76.7% | 20.6°C | 2385ft (727m) | 12.65v | 31 |
| 2522 | 15 Apr 02:53:11 | 6 | 7.6 mph | 9 | SSW (196°) | 99505 | 101651 | 24.9°C | 76.7% | 20.5°C | 2384ft (727m) | 12.64v | 31 |
| 2521 | 15 Apr 02:53:00 | 4 | 4.9 mph | 6 | SSW (207°) | 99503 | 101649 | 25°C | 76.6% | 20.6°C | 2394ft (730m) | 12.64v | 31 |
| 2520 | 15 Apr 02:52:49 | 5 | 5.5 mph | 7 | SSW (198°) | 99504 | 101650 | 25°C | 76.6% | 20.6°C | 2394ft (730m) | 12.64v | 31 |
| 2519 | 15 Apr 02:52:38 | 6 | 7.4 mph | 8 | SSW (202°) | 99508 | 101654 | 25°C | 76.6% | 20.6°C | 2394ft (730m) | 12.65v | 31 |
| 2518 | 15 Apr 02:52:26 | 6 | 7.7 mph | 9 | SSW (209°) | 99504 | 101650 | 24.9°C | 76.5% | 20.5°C | 2401ft (732m) | 12.64v | 31 |
| 2517 | 15 Apr 02:52:15 | 7 | 7.9 mph | 9 | SSW (199°) | 99508 | 101654 | 25°C | 76.6% | 20.6°C | 2394ft (730m) | 12.65v | 31 |
| 2516 | 15 Apr 02:52:04 | 9 | 9.5 mph | 11 | SSW (202°) | 99505 | 101651 | 24.9°C | 76.4% | 20.5°C | 2410ft (735m) | 12.65v | 31 |
| 2515 | 15 Apr 02:51:53 | 7 | 7.7 mph | 9 | SW (215°) | 99506 | 101652 | 24.9°C | 76.7% | 20.5°C | 2384ft (727m) | 12.65v | 31 |
| 2514 | 15 Apr 02:51:41 | 5 | 6.3 mph | 8 | SSW (207°) | 99506 | 101652 | 24.9°C | 76.7% | 20.5°C | 2384ft (727m) | 12.65v | 31 |
| 2513 | 15 Apr 02:51:30 | 5 | 5.3 mph | 7 | SW (216°) | 99504 | 101650 | 24.9°C | 76.7% | 20.5°C | 2384ft (727m) | 12.65v | 31 |
| 2512 | 15 Apr 02:51:19 | 4 | 5.8 mph | 8 | SSW (200°) | 99504 | 101650 | 24.9°C | 76.8% | 20.5°C | 2375ft (724m) | 12.63v | 31 |
| 2511 | 15 Apr 02:51:08 | 6 | 6.4 mph | 9 | SSW (209°) | 99505 | 101651 | 24.9°C | 76.9% | 20.6°C | 2367ft (721m) | 12.63v | 31 |
| 2510 | 15 Apr 02:50:56 | 5 | 5.5 mph | 7 | SW (223°) | 99503 | 101649 | 24.9°C | 76.7% | 20.5°C | 2384ft (727m) | 12.65v | 31 |
| 2509 | 15 Apr 02:50:45 | 5 | 6.2 mph | 7 | SW (217°) | 99503 | 101649 | 24.9°C | 76.7% | 20.5°C | 2384ft (727m) | 12.65v | 31 |
| 2508 | 15 Apr 02:50:34 | 5 | 5.5 mph | 7 | SSW (203°) | 99501 | 101647 | 24.9°C | 76.7% | 20.5°C | 2384ft (727m) | 12.64v | 31 |
| 2507 | 15 Apr 02:50:23 | 6 | 7 mph | 8 | SW (214°) | 99503 | 101649 | 24.9°C | 76.7% | 20.5°C | 2384ft (727m) | 12.63v | 31 |
| 2506 | 15 Apr 02:50:11 | 4 | 6.5 mph | 8 | SSW (203°) | 99503 | 101649 | 25°C | 76.6% | 20.6°C | 2394ft (730m) | 12.65v | 31 |
| 2505 | 15 Apr 02:50:00 | 5 | 5.8 mph | 7 | SSW (212°) | 99501 | 101647 | 25°C | 76.6% | 20.6°C | 2394ft (730m) | 12.65v | 31 |
| 2504 | 15 Apr 02:49:49 | 7 | 8.1 mph | 9 | SSW (204°) | 99498 | 101644 | 25°C | 76.6% | 20.6°C | 2394ft (730m) | 12.64v | 31 |
| 2503 | 15 Apr 02:49:38 | 8 | 9.3 mph | 11 | SSW (208°) | 99502 | 101648 | 25°C | 76.7% | 20.6°C | 2385ft (727m) | 12.65v | 31 |
| 2502 | 15 Apr 02:49:26 | 6 | 7.1 mph | 8 | SW (214°) | 99500 | 101646 | 24.9°C | 76.7% | 20.5°C | 2384ft (727m) | 12.64v | 31 |
| 2501 | 15 Apr 02:49:15 | 6 | 6.5 mph | 7 | SW (217°) | 99500 | 101646 | 24.9°C | 76.6% | 20.5°C | 2393ft (729m) | 12.65v | 31 |
| 2500 | 15 Apr 02:49:04 | 7 | 8.1 mph | 9 | SSW (210°) | 99500 | 101646 | 24.9°C | 76.7% | 20.5°C | 2384ft (727m) | 12.66v | 31 |
| 2499 | 15 Apr 02:48:53 | 5 | 6.3 mph | 7 | SW (222°) | 99502 | 101648 | 24.9°C | 76.7% | 20.5°C | 2384ft (727m) | 12.65v | 31 |
| 2498 | 15 Apr 02:48:41 | 6 | 6.6 mph | 7 | SW (216°) | 99498 | 101644 | 24.9°C | 76.7% | 20.5°C | 2384ft (727m) | 12.65v | 31 |
| 2497 | 15 Apr 02:48:30 | 7 | 7.8 mph | 9 | SW (223°) | 99500 | 101646 | 24.9°C | 76.7% | 20.5°C | 2384ft (727m) | 12.66v | 31 |
| 2496 | 15 Apr 02:48:19 | 5 | 5.6 mph | 7 | SW (218°) | 99500 | 101646 | 25°C | 76.7% | 20.6°C | 2385ft (727m) | 12.65v | 31 |
| 2495 | 15 Apr 02:48:08 | 7 | 8.2 mph | 10 | SSW (211°) | 99499 | 101645 | 25°C | 76.6% | 20.6°C | 2394ft (730m) | 12.64v | 31 |
| 2494 | 15 Apr 02:47:56 | 6 | 6.7 mph | 8 | SSW (206°) | 99501 | 101647 | 25°C | 76.7% | 20.6°C | 2385ft (727m) | 12.64v | 31 |
| 2493 | 15 Apr 02:47:45 | 6 | 6.7 mph | 8 | SW (219°) | 99501 | 101647 | 24.9°C | 76.7% | 20.5°C | 2384ft (727m) | 12.64v | 31 |
| 2492 | 15 Apr 02:47:34 | 6 | 7 mph | 8 | SSW (206°) | 99500 | 101646 | 24.9°C | 76.8% | 20.5°C | 2375ft (724m) | 12.64v | 31 |
| 2491 | 15 Apr 02:47:23 | 5 | 6.5 mph | 8 | SSW (208°) | 99497 | 101643 | 24.9°C | 76.7% | 20.5°C | 2384ft (727m) | 12.64v | 31 |
| 2490 | 15 Apr 02:47:11 | 5 | 6 mph | 7 | SW (215°) | 99501 | 101647 | 25°C | 76.7% | 20.6°C | 2385ft (727m) | 12.64v | 31 |
| 2489 | 15 Apr 02:47:00 | 6 | 6.7 mph | 7 | SW (214°) | 99501 | 101647 | 24.9°C | 76.7% | 20.5°C | 2384ft (727m) | 12.66v | 31 |
| 2488 | 15 Apr 02:46:49 | 8 | 8.5 mph | 10 | SSW (206°) | 99498 | 101644 | 24.9°C | 76.7% | 20.5°C | 2384ft (727m) | 12.64v | 31 |
| 2487 | 15 Apr 02:46:38 | 7 | 8.4 mph | 10 | SSW (204°) | 99499 | 101645 | 24.9°C | 76.7% | 20.5°C | 2384ft (727m) | 12.63v | 31 |
| 2486 | 15 Apr 02:46:26 | 7 | 8.2 mph | 11 | SSW (208°) | 99500 | 101646 | 24.9°C | 76.7% | 20.5°C | 2384ft (727m) | 12.64v | 31 |
| 2485 | 15 Apr 02:46:15 | 8 | 8.7 mph | 10 | SSW (210°) | 99493 | 101639 | 24.9°C | 76.6% | 20.5°C | 2393ft (729m) | 12.63v | 31 |
| 2484 | 15 Apr 02:46:04 | 7 | 8.5 mph | 10 | SSW (202°) | 99503 | 101649 | 24.9°C | 76.6% | 20.5°C | 2393ft (729m) | 12.65v | 31 |
| 2483 | 15 Apr 02:45:53 | 6 | 7.4 mph | 9 | SSW (211°) | 99506 | 101652 | 24.9°C | 76.7% | 20.5°C | 2384ft (727m) | 12.64v | 31 |
| 2482 | 15 Apr 02:45:41 | 6 | 6.4 mph | 7 | SSW (200°) | 99498 | 101644 | 24.9°C | 76.7% | 20.5°C | 2384ft (727m) | 12.65v | 31 |
| 2481 | 15 Apr 02:45:30 | 6 | 8.2 mph | 10 | SSW (202°) | 99501 | 101647 | 24.9°C | 76.6% | 20.5°C | 2393ft (729m) | 12.64v | 31 |
| 2480 | 15 Apr 02:45:19 | 5 | 7.3 mph | 9 | SSW (198°) | 99505 | 101651 | 24.9°C | 76.8% | 20.5°C | 2375ft (724m) | 12.65v | 31 |
| 2479 | 15 Apr 02:45:08 | 6 | 6.9 mph | 8 | SW (221°) | 99505 | 101651 | 24.9°C | 76.7% | 20.5°C | 2384ft (727m) | 12.63v | 31 |
| 2478 | 15 Apr 02:44:56 | 6 | 6.9 mph | 8 | SSW (211°) | 99506 | 101652 | 24.9°C | 76.8% | 20.5°C | 2375ft (724m) | 12.64v | 31 |
| 2477 | 15 Apr 02:44:45 | 5 | 5.5 mph | 6 | SSW (208°) | 99504 | 101650 | 24.9°C | 76.8% | 20.5°C | 2375ft (724m) | 12.64v | 31 |
| 2476 | 15 Apr 02:44:34 | 6 | 6.3 mph | 9 | SSW (209°) | 99507 | 101653 | 24.9°C | 76.8% | 20.5°C | 2375ft (724m) | 12.65v | 31 |
| 2475 | 15 Apr 02:44:23 | 5 | 7 mph | 9 | SSW (210°) | 99503 | 101649 | 24.9°C | 76.8% | 20.5°C | 2375ft (724m) | 12.65v | 31 |
| 2474 | 15 Apr 02:44:11 | 7 | 7.8 mph | 9 | SSW (210°) | 99507 | 101653 | 24.9°C | 76.7% | 20.5°C | 2384ft (727m) | 12.64v | 31 |
| 2473 | 15 Apr 02:44:00 | 6 | 6.4 mph | 8 | SSW (206°) | 99502 | 101648 | 24.9°C | 76.8% | 20.5°C | 2375ft (724m) | 12.66v | 31 |
| 2472 | 15 Apr 02:43:49 | 7 | 7.1 mph | 8 | SSW (205°) | 99508 | 101654 | 24.9°C | 76.9% | 20.6°C | 2367ft (721m) | 12.64v | 31 |
| 2471 | 15 Apr 02:43:38 | 6 | 7.5 mph | 9 | SSW (209°) | 99509 | 101655 | 24.9°C | 76.9% | 20.6°C | 2367ft (721m) | 12.64v | 31 |
| 2470 | 15 Apr 02:43:26 | 6 | 7.7 mph | 10 | SW (223°) | 99508 | 101654 | 24.8°C | 76.9% | 20.5°C | 2365ft (721m) | 12.64v | 31 |
| 2469 | 15 Apr 02:43:15 | 6 | 7.3 mph | 9 | S (187°) | 99508 | 101654 | 24.9°C | 76.9% | 20.6°C | 2367ft (721m) | 12.65v | 31 |
| 2468 | 15 Apr 02:43:04 | 9 | 10 mph | 12 | SSW (213°) | 99509 | 101655 | 24.9°C | 76.7% | 20.5°C | 2384ft (727m) | 12.65v | 31 |
| 2467 | 15 Apr 02:42:53 | 9 | 9.6 mph | 11 | SW (215°) | 99505 | 101651 | 24.9°C | 76.9% | 20.6°C | 2367ft (721m) | 12.66v | 31 |
| 2466 | 15 Apr 02:42:41 | 7 | 9.3 mph | 13 | SSW (201°) | 99502 | 101648 | 24.9°C | 76.7% | 20.5°C | 2384ft (727m) | 12.65v | 31 |
| 2465 | 15 Apr 02:42:30 | 8 | 10 mph | 12 | SW (215°) | 99506 | 101652 | 24.9°C | 76.8% | 20.5°C | 2375ft (724m) | 12.64v | 31 |
| 2464 | 15 Apr 02:42:19 | 7 | 7.7 mph | 9 | SSW (202°) | 99505 | 101651 | 24.9°C | 76.9% | 20.6°C | 2367ft (721m) | 12.65v | 31 |
| 2463 | 15 Apr 02:42:08 | 7 | 8.5 mph | 10 | SSW (210°) | 99505 | 101651 | 24.8°C | 76.8% | 20.4°C | 2374ft (724m) | 12.64v | 31 |
| 2462 | 15 Apr 02:41:56 | 4 | 6.4 mph | 10 | SW (223°) | 99508 | 101654 | 24.8°C | 77% | 20.5°C | 2357ft (718m) | 12.65v | 31 |
| 2461 | 15 Apr 02:41:45 | 5 | 5.5 mph | 7 | SW (221°) | 99507 | 101653 | 24.8°C | 77% | 20.5°C | 2357ft (718m) | 12.65v | 31 |
| 2460 | 15 Apr 02:41:34 | 6 | 7.1 mph | 8 | SSW (205°) | 99508 | 101654 | 24.8°C | 77% | 20.5°C | 2357ft (718m) | 12.66v | 31 |
| 2459 | 15 Apr 02:41:23 | 7 | 7.7 mph | 10 | SSW (204°) | 99508 | 101654 | 24.8°C | 77% | 20.5°C | 2357ft (718m) | 12.65v | 31 |
| 2458 | 15 Apr 02:41:11 | 3 | 4.7 mph | 7 | SW (220°) | 99509 | 101655 | 24.8°C | 77.1% | 20.5°C | 2348ft (716m) | 12.65v | 31 |
| 2457 | 15 Apr 02:41:00 | 5 | 7.6 mph | 10 | SW (222°) | 99510 | 101656 | 24.8°C | 77% | 20.5°C | 2357ft (718m) | 12.64v | 31 |
| 2456 | 15 Apr 02:40:49 | 5 | 7.2 mph | 10 | SSW (213°) | 99505 | 101651 | 24.8°C | 77% | 20.5°C | 2357ft (718m) | 12.66v | 31 |
| 2455 | 15 Apr 02:40:38 | 7 | 7.5 mph | 9 | SSW (196°) | 99510 | 101656 | 24.8°C | 77% | 20.5°C | 2357ft (718m) | 12.64v | 31 |
| 2454 | 15 Apr 02:40:26 | 7 | 7.5 mph | 9 | SSW (207°) | 99505 | 101651 | 24.8°C | 77.1% | 20.5°C | 2348ft (716m) | 12.63v | 31 |
| 2453 | 15 Apr 02:40:15 | 7 | 8 mph | 9 | SSW (210°) | 99501 | 101647 | 24.8°C | 77.1% | 20.5°C | 2348ft (716m) | 12.64v | 31 |
| 2452 | 15 Apr 02:40:04 | 5 | 7.4 mph | 11 | SSW (193°) | 99505 | 101651 | 24.8°C | 77.1% | 20.5°C | 2348ft (716m) | 12.65v | 31 |
| 2451 | 15 Apr 02:39:53 | 10 | 11.1 mph | 12 | SSW (207°) | 99503 | 101649 | 24.8°C | 77.2% | 20.5°C | 2340ft (713m) | 12.65v | 31 |
| 2450 | 15 Apr 02:39:41 | 5 | 6.8 mph | 8 | SSW (212°) | 99505 | 101651 | 24.8°C | 77.1% | 20.5°C | 2348ft (716m) | 12.65v | 31 |
| 2449 | 15 Apr 02:39:30 | 8 | 9 mph | 10 | SSW (199°) | 99503 | 101649 | 24.8°C | 77% | 20.5°C | 2357ft (718m) | 12.64v | 31 |
| 2448 | 15 Apr 02:39:19 | 8 | 9.8 mph | 12 | SSW (209°) | 99502 | 101648 | 24.8°C | 77% | 20.5°C | 2357ft (718m) | 12.65v | 31 |
| 2447 | 15 Apr 02:39:08 | 7 | 8.8 mph | 11 | SSW (198°) | 99501 | 101647 | 24.8°C | 77.1% | 20.5°C | 2348ft (716m) | 12.65v | 31 |
| 2446 | 15 Apr 02:38:56 | 8 | 8.5 mph | 10 | SSW (205°) | 99503 | 101649 | 24.8°C | 77% | 20.5°C | 2357ft (718m) | 12.64v | 31 |
| 2445 | 15 Apr 02:38:45 | 9 | 11.8 mph | 14 | SSW (205°) | 99503 | 101649 | 24.8°C | 76.9% | 20.5°C | 2365ft (721m) | 12.63v | 31 |
| 2444 | 15 Apr 02:38:34 | 8 | 10.4 mph | 13 | S (190°) | 99501 | 101647 | 24.8°C | 77% | 20.5°C | 2357ft (718m) | 12.65v | 31 |
| 2443 | 15 Apr 02:38:23 | 10 | 11 mph | 14 | SSW (199°) | 99496 | 101642 | 24.8°C | 76.9% | 20.5°C | 2365ft (721m) | 12.66v | 31 |
| 2442 | 15 Apr 02:38:11 | 7 | 8.1 mph | 10 | SSW (209°) | 99501 | 101647 | 24.8°C | 77% | 20.5°C | 2357ft (718m) | 12.65v | 31 |
| 2441 | 15 Apr 02:38:00 | 9 | 10.5 mph | 13 | S (188°) | 99498 | 101644 | 24.8°C | 76.7% | 20.4°C | 2383ft (726m) | 12.65v | 31 |
| 2440 | 15 Apr 02:37:49 | 7 | 8.5 mph | 11 | SSW (198°) | 99505 | 101651 | 24.8°C | 77% | 20.5°C | 2357ft (718m) | 12.64v | 31 |
| 2439 | 15 Apr 02:37:38 | 7 | 8.7 mph | 12 | SW (223°) | 99506 | 101652 | 24.8°C | 77% | 20.5°C | 2357ft (718m) | 12.65v | 31 |
| 2438 | 15 Apr 02:37:26 | 6 | 6.7 mph | 8 | SSW (210°) | 99505 | 101651 | 24.8°C | 77% | 20.5°C | 2357ft (718m) | 12.64v | 31 |
| 2437 | 15 Apr 02:37:15 | 6 | 8.8 mph | 12 | SSW (206°) | 99500 | 101646 | 24.8°C | 76.9% | 20.5°C | 2365ft (721m) | 12.65v | 31 |
| 2436 | 15 Apr 02:37:04 | 6 | 7.4 mph | 10 | SSW (202°) | 99504 | 101650 | 24.8°C | 77% | 20.5°C | 2357ft (718m) | 12.65v | 31 |
| 2435 | 15 Apr 02:36:53 | 5 | 6.6 mph | 8 | SSW (202°) | 99503 | 101649 | 24.8°C | 77.2% | 20.5°C | 2340ft (713m) | 12.64v | 31 |
| 2434 | 15 Apr 02:36:41 | 8 | 8.6 mph | 10 | SSW (193°) | 99504 | 101650 | 24.8°C | 77.1% | 20.5°C | 2348ft (716m) | 12.66v | 31 |
| 2433 | 15 Apr 02:36:30 | 7 | 8 mph | 10 | SSW (203°) | 99500 | 101646 | 24.8°C | 77.3% | 20.6°C | 2331ft (710m) | 12.64v | 31 |
| 2432 | 15 Apr 02:36:19 | 8 | 9.3 mph | 12 | SSW (199°) | 99505 | 101651 | 24.7°C | 77.1% | 20.4°C | 2347ft (715m) | 12.66v | 31 |
| 2431 | 15 Apr 02:36:08 | 11 | 12.7 mph | 16 | SSW (198°) | 99501 | 101647 | 24.7°C | 77.1% | 20.4°C | 2347ft (715m) | 12.64v | 31 |
| 2430 | 15 Apr 02:35:56 | 11 | 14.2 mph | 17 | SSW (198°) | 99499 | 101645 | 24.8°C | 76.9% | 20.5°C | 2365ft (721m) | 12.65v | 31 |
| 2429 | 15 Apr 02:35:45 | 9 | 9.6 mph | 11 | SSW (204°) | 99496 | 101642 | 24.8°C | 76.8% | 20.4°C | 2374ft (724m) | 12.64v | 31 |
| 2428 | 15 Apr 02:35:34 | 9 | 11.6 mph | 16 | SSW (207°) | 99503 | 101649 | 24.8°C | 76.8% | 20.4°C | 2374ft (724m) | 12.64v | 31 |
| 2427 | 15 Apr 02:35:23 | 11 | 11.1 mph | 13 | SSW (197°) | 99498 | 101644 | 24.8°C | 76.7% | 20.4°C | 2383ft (726m) | 12.67v | 31 |
| 2426 | 15 Apr 02:35:11 | 13 | 15.1 mph | 16 | SSW (203°) | 99497 | 101643 | 24.8°C | 76.7% | 20.4°C | 2383ft (726m) | 12.66v | 31 |
| 2425 | 15 Apr 02:35:00 | 6 | 10.8 mph | 14 | SSW (208°) | 99502 | 101648 | 24.8°C | 76.5% | 20.4°C | 2400ft (732m) | 12.64v | 31 |
| 2424 | 15 Apr 02:34:49 | 5 | 5.7 mph | 6 | SSW (208°) | 99504 | 101650 | 24.8°C | 76.8% | 20.4°C | 2374ft (724m) | 12.64v | 31 |
| 2423 | 15 Apr 02:34:38 | 5 | 5.8 mph | 7 | SSW (211°) | 99505 | 101651 | 24.8°C | 76.8% | 20.4°C | 2374ft (724m) | 12.66v | 31 |
| 2422 | 15 Apr 02:34:26 | 5 | 7.3 mph | 9 | SW (229°) | 99503 | 101649 | 24.8°C | 76.8% | 20.4°C | 2374ft (724m) | 12.64v | 31 |
| 2421 | 15 Apr 02:34:15 | 5 | 5.8 mph | 8 | SW (219°) | 99502 | 101648 | 24.8°C | 76.9% | 20.5°C | 2365ft (721m) | 12.64v | 31 |
| 2420 | 15 Apr 02:34:04 | 6 | 6.7 mph | 8 | SW (216°) | 99505 | 101651 | 24.8°C | 76.8% | 20.4°C | 2374ft (724m) | 12.63v | 31 |
| 2419 | 15 Apr 02:33:53 | 7 | 7.3 mph | 8 | SW (219°) | 99506 | 101652 | 24.8°C | 76.9% | 20.5°C | 2365ft (721m) | 12.65v | 31 |
| 2418 | 15 Apr 02:33:41 | 6 | 6.4 mph | 7 | SSW (212°) | 99505 | 101651 | 24.8°C | 77% | 20.5°C | 2357ft (718m) | 12.65v | 31 |
| 2417 | 15 Apr 02:33:30 | 6 | 6.9 mph | 8 | SW (214°) | 99503 | 101649 | 24.7°C | 77.1% | 20.4°C | 2347ft (715m) | 12.64v | 31 |
| 2416 | 15 Apr 02:33:19 | 7 | 6.7 mph | 8 | SW (215°) | 99505 | 101651 | 24.7°C | 77% | 20.4°C | 2355ft (718m) | 12.65v | 31 |
| 2415 | 15 Apr 02:33:08 | 8 | 8.7 mph | 10 | SSW (199°) | 99506 | 101652 | 24.7°C | 77% | 20.4°C | 2355ft (718m) | 12.65v | 31 |
| 2414 | 15 Apr 02:32:56 | 9 | 10 mph | 12 | SSW (209°) | 99507 | 101653 | 24.7°C | 77% | 20.4°C | 2355ft (718m) | 12.65v | 31 |
| 2413 | 15 Apr 02:32:45 | 10 | 11.1 mph | 13 | SSW (204°) | 99504 | 101650 | 24.7°C | 76.9% | 20.4°C | 2364ft (721m) | 12.64v | 31 |
| 2412 | 15 Apr 02:32:34 | 8 | 9 mph | 10 | SSW (195°) | 99501 | 101647 | 24.7°C | 77.1% | 20.4°C | 2347ft (715m) | 12.65v | 31 |
| 2411 | 15 Apr 02:32:23 | 9 | 9.5 mph | 11 | SSW (205°) | 99504 | 101650 | 24.7°C | 76.9% | 20.4°C | 2364ft (721m) | 12.65v | 31 |
| 2410 | 15 Apr 02:32:11 | 7 | 7.7 mph | 9 | SSW (201°) | 99505 | 101651 | 24.7°C | 76.9% | 20.4°C | 2364ft (721m) | 12.67v | 31 |
| 2409 | 15 Apr 02:32:00 | 7 | 8 mph | 9 | SSW (207°) | 99505 | 101651 | 24.7°C | 77% | 20.4°C | 2355ft (718m) | 12.65v | 31 |
| 2408 | 15 Apr 02:31:49 | 9 | 10 mph | 12 | SSW (204°) | 99505 | 101651 | 24.8°C | 76.8% | 20.4°C | 2374ft (724m) | 12.64v | 31 |
| 2407 | 15 Apr 02:31:38 | 10 | 10.1 mph | 11 | SSW (199°) | 99504 | 101650 | 24.8°C | 76.7% | 20.4°C | 2383ft (726m) | 12.66v | 31 |
| 2406 | 15 Apr 02:31:26 | 11 | 13 mph | 15 | SSW (201°) | 99506 | 101652 | 24.8°C | 76.8% | 20.4°C | 2374ft (724m) | 12.64v | 31 |
| 2405 | 15 Apr 02:31:15 | 13 | 13.8 mph | 15 | SSW (213°) | 99507 | 101653 | 24.8°C | 76.8% | 20.4°C | 2374ft (724m) | 12.65v | 31 |
| 2404 | 15 Apr 02:31:04 | 6 | 7.8 mph | 9 | SSW (202°) | 99509 | 101655 | 24.8°C | 77% | 20.5°C | 2357ft (718m) | 12.63v | 31 |
| 2403 | 15 Apr 02:30:53 | 6 | 6.9 mph | 8 | SSW (212°) | 99508 | 101654 | 24.8°C | 76.9% | 20.5°C | 2365ft (721m) | 12.65v | 31 |
| 2402 | 15 Apr 02:30:41 | 6 | 7.3 mph | 9 | SW (220°) | 99506 | 101652 | 24.8°C | 76.9% | 20.5°C | 2365ft (721m) | 12.67v | 31 |
| 2401 | 15 Apr 02:30:30 | 8 | 8.3 mph | 9 | SSW (204°) | 99505 | 101651 | 24.7°C | 76.8% | 20.4°C | 2373ft (723m) | 12.65v | 31 |
| 2400 | 15 Apr 02:30:19 | 8 | 9.6 mph | 11 | SSW (204°) | 99507 | 101653 | 24.7°C | 76.8% | 20.4°C | 2373ft (723m) | 12.66v | 31 |
| 2399 | 15 Apr 02:30:08 | 10 | 12 mph | 14 | SSW (196°) | 99508 | 101654 | 24.7°C | 76.8% | 20.4°C | 2373ft (723m) | 12.66v | 31 |
| 2398 | 15 Apr 02:29:56 | 8 | 13.1 mph | 15 | SSW (197°) | 99500 | 101646 | 24.7°C | 76.7% | 20.3°C | 2381ft (726m) | 12.65v | 31 |
| 2397 | 15 Apr 02:29:45 | 10 | 10.9 mph | 12 | SSW (204°) | 99506 | 101652 | 24.7°C | 76.6% | 20.3°C | 2390ft (728m) | 12.64v | 31 |
| 2396 | 15 Apr 02:29:34 | 6 | 9.7 mph | 13 | SSW (207°) | 99510 | 101656 | 24.8°C | 76.7% | 20.4°C | 2383ft (726m) | 12.65v | 31 |
| 2395 | 15 Apr 02:29:23 | 9 | 10.9 mph | 12 | SW (218°) | 99507 | 101653 | 24.8°C | 76.6% | 20.4°C | 2391ft (729m) | 12.64v | 31 |
| 2394 | 15 Apr 02:29:11 | 7 | 8.1 mph | 9 | SSW (204°) | 99507 | 101653 | 24.8°C | 76.6% | 20.4°C | 2391ft (729m) | 12.66v | 31 |
| 2393 | 15 Apr 02:29:00 | 8 | 9.3 mph | 12 | SSW (210°) | 99506 | 101652 | 24.8°C | 76.6% | 20.4°C | 2391ft (729m) | 12.66v | 31 |
| 2392 | 15 Apr 02:28:49 | 6 | 7.9 mph | 10 | SSW (210°) | 99510 | 101656 | 24.8°C | 76.6% | 20.4°C | 2391ft (729m) | 12.66v | 31 |
| 2391 | 15 Apr 02:28:38 | 8 | 9.5 mph | 11 | SSW (202°) | 99505 | 101651 | 24.8°C | 76.6% | 20.4°C | 2391ft (729m) | 12.65v | 31 |
| 2390 | 15 Apr 02:28:26 | 10 | 11.5 mph | 13 | SSW (205°) | 99503 | 101649 | 24.8°C | 76.5% | 20.4°C | 2400ft (732m) | 12.65v | 31 |
| 2389 | 15 Apr 02:28:15 | 12 | 13.3 mph | 15 | SSW (199°) | 99508 | 101654 | 24.8°C | 76.4% | 20.4°C | 2409ft (734m) | 12.65v | 31 |
| 2388 | 15 Apr 02:28:04 | 7 | 9.3 mph | 13 | SW (214°) | 99497 | 101643 | 24.8°C | 76.5% | 20.4°C | 2400ft (732m) | 12.65v | 31 |
| 2387 | 15 Apr 02:27:53 | 6 | 7.8 mph | 9 | SSW (194°) | 99509 | 101655 | 24.8°C | 76.5% | 20.4°C | 2400ft (732m) | 12.66v | 31 |
| 2386 | 15 Apr 02:27:41 | 7 | 8.4 mph | 11 | SSW (213°) | 99511 | 101657 | 24.8°C | 76.5% | 20.4°C | 2400ft (732m) | 12.65v | 31 |
| 2385 | 15 Apr 02:27:30 | 7 | 7.3 mph | 8 | SSW (211°) | 99508 | 101654 | 24.8°C | 76.6% | 20.4°C | 2391ft (729m) | 12.67v | 31 |
| 2384 | 15 Apr 02:27:19 | 8 | 8.4 mph | 10 | SW (215°) | 99508 | 101654 | 24.8°C | 76.5% | 20.4°C | 2400ft (732m) | 12.64v | 31 |
| 2383 | 15 Apr 02:27:08 | 5 | 7.3 mph | 11 | SSW (204°) | 99507 | 101653 | 24.8°C | 76.6% | 20.4°C | 2391ft (729m) | 12.66v | 31 |
| 2382 | 15 Apr 02:26:56 | 5 | 6.7 mph | 8 | SSW (213°) | 99508 | 101654 | 24.8°C | 76.6% | 20.4°C | 2391ft (729m) | 12.67v | 31 |
| 2381 | 15 Apr 02:26:45 | 6 | 7.2 mph | 9 | SW (217°) | 99509 | 101655 | 24.8°C | 76.6% | 20.4°C | 2391ft (729m) | 12.66v | 31 |
| 2380 | 15 Apr 02:26:34 | 6 | 6.8 mph | 8 | SW (222°) | 99508 | 101654 | 24.8°C | 76.5% | 20.4°C | 2400ft (732m) | 12.65v | 31 |
| 2379 | 15 Apr 02:26:23 | 7 | 7.2 mph | 8 | SSW (212°) | 99507 | 101653 | 24.8°C | 76.5% | 20.4°C | 2400ft (732m) | 12.63v | 31 |
| 2378 | 15 Apr 02:26:11 | 6 | 7.5 mph | 9 | SW (217°) | 99507 | 101653 | 24.8°C | 76.4% | 20.4°C | 2409ft (734m) | 12.66v | 31 |
| 2377 | 15 Apr 02:26:00 | 8 | 9.3 mph | 10 | SSW (206°) | 99508 | 101654 | 24.8°C | 76.3% | 20.3°C | 2417ft (737m) | 12.66v | 31 |
| 2376 | 15 Apr 02:25:49 | 6 | 7.3 mph | 9 | SW (217°) | 99509 | 101655 | 24.8°C | 76.5% | 20.4°C | 2400ft (732m) | 12.66v | 31 |
| 2375 | 15 Apr 02:25:38 | 7 | 8.7 mph | 10 | SSW (205°) | 99509 | 101655 | 24.8°C | 76.4% | 20.4°C | 2409ft (734m) | 12.66v | 31 |
| 2374 | 15 Apr 02:25:26 | 9 | 9.7 mph | 10 | SSW (206°) | 99509 | 101655 | 24.8°C | 76.3% | 20.3°C | 2417ft (737m) | 12.65v | 31 |
| 2373 | 15 Apr 02:25:15 | 8 | 7.9 mph | 8 | SW (216°) | 99511 | 101657 | 24.8°C | 76.4% | 20.4°C | 2409ft (734m) | 12.64v | 31 |
| 2372 | 15 Apr 02:25:04 | 5 | 6.9 mph | 8 | SW (214°) | 99509 | 101655 | 24.8°C | 76.5% | 20.4°C | 2400ft (732m) | 12.65v | 31 |
| 2371 | 15 Apr 02:24:53 | 5 | 6.5 mph | 8 | SW (214°) | 99511 | 101657 | 24.8°C | 76.3% | 20.3°C | 2417ft (737m) | 12.65v | 31 |
| 2370 | 15 Apr 02:24:41 | 5 | 7 mph | 9 | SSW (213°) | 99513 | 101660 | 24.8°C | 76.3% | 20.3°C | 2417ft (737m) | 12.65v | 31 |
| 2369 | 15 Apr 02:24:30 | 5 | 6.6 mph | 8 | SSW (205°) | 99510 | 101656 | 24.8°C | 76.3% | 20.3°C | 2417ft (737m) | 12.66v | 31 |
| 2368 | 15 Apr 02:24:19 | 5 | 6.1 mph | 7 | SW (217°) | 99514 | 101661 | 24.8°C | 76.4% | 20.4°C | 2409ft (734m) | 12.66v | 31 |
| 2367 | 15 Apr 02:24:08 | 8 | 11 mph | 13 | SSW (207°) | 99510 | 101656 | 24.8°C | 76.2% | 20.3°C | 2426ft (739m) | 12.64v | 31 |
| 2366 | 15 Apr 02:23:56 | 7 | 9.1 mph | 13 | SW (221°) | 99512 | 101658 | 24.8°C | 76.2% | 20.3°C | 2426ft (739m) | 12.67v | 31 |
| 2365 | 15 Apr 02:23:45 | 4 | 5.2 mph | 8 | SSW (213°) | 99509 | 101655 | 24.8°C | 76.3% | 20.3°C | 2417ft (737m) | 12.64v | 31 |
| 2364 | 15 Apr 02:23:34 | 4 | 5.4 mph | 7 | SW (217°) | 99512 | 101658 | 24.8°C | 76.4% | 20.4°C | 2409ft (734m) | 12.65v | 31 |
| 2363 | 15 Apr 02:23:23 | 4 | 4.8 mph | 7 | SSW (209°) | 99515 | 101662 | 24.8°C | 76.4% | 20.4°C | 2409ft (734m) | 12.64v | 31 |
| 2362 | 15 Apr 02:23:11 | 4 | 6.1 mph | 8 | SW (218°) | 99514 | 101661 | 24.8°C | 76.4% | 20.4°C | 2409ft (734m) | 12.65v | 31 |
| 2361 | 15 Apr 02:23:00 | 5 | 6.5 mph | 8 | SSW (208°) | 99511 | 101657 | 24.8°C | 76.3% | 20.3°C | 2417ft (737m) | 12.67v | 31 |
| 2360 | 15 Apr 02:22:49 | 5 | 5.8 mph | 7 | SSW (202°) | 99514 | 101661 | 24.9°C | 76.3% | 20.4°C | 2419ft (737m) | 12.65v | 31 |
| 2359 | 15 Apr 02:22:38 | 6 | 6.9 mph | 8 | SSW (199°) | 99513 | 101660 | 24.9°C | 76.3% | 20.4°C | 2419ft (737m) | 12.65v | 31 |
| 2358 | 15 Apr 02:22:26 | 7 | 8.5 mph | 11 | SSW (204°) | 99514 | 101661 | 24.8°C | 76.3% | 20.3°C | 2417ft (737m) | 12.65v | 31 |
| 2357 | 15 Apr 02:22:15 | 6 | 8.7 mph | 14 | SW (214°) | 99514 | 101661 | 24.8°C | 76.3% | 20.3°C | 2417ft (737m) | 12.65v | 31 |
| 2356 | 15 Apr 02:22:04 | 6 | 7.6 mph | 11 | SW (215°) | 99515 | 101662 | 24.8°C | 76.3% | 20.3°C | 2417ft (737m) | 12.63v | 31 |
| 2355 | 15 Apr 02:21:53 | 8 | 10.5 mph | 12 | SSW (205°) | 99508 | 101654 | 24.8°C | 76% | 20.3°C | 2444ft (745m) | 12.65v | 31 |
| 2354 | 15 Apr 02:21:41 | 8 | 9.7 mph | 12 | SSW (202°) | 99516 | 101663 | 24.8°C | 76.2% | 20.3°C | 2426ft (739m) | 12.64v | 31 |
| 2353 | 15 Apr 02:21:30 | 8 | 9.5 mph | 12 | SW (216°) | 99511 | 101657 | 24.9°C | 76.1% | 20.4°C | 2436ft (742m) | 12.66v | 31 |
| 2352 | 15 Apr 02:21:19 | 6 | 7.1 mph | 9 | SSW (197°) | 99518 | 101665 | 24.9°C | 76.2% | 20.4°C | 2428ft (740m) | 12.66v | 31 |
| 2351 | 15 Apr 02:21:08 | 7 | 7.9 mph | 11 | SW (225°) | 99517 | 101664 | 24.9°C | 76.1% | 20.4°C | 2436ft (742m) | 12.67v | 31 |
| 2350 | 15 Apr 02:20:56 | 7 | 8 mph | 11 | SSW (212°) | 99518 | 101665 | 24.9°C | 76.1% | 20.4°C | 2436ft (742m) | 12.66v | 31 |
| 2349 | 15 Apr 02:20:45 | 7 | 8.8 mph | 11 | SSW (208°) | 99519 | 101666 | 24.9°C | 76.2% | 20.4°C | 2428ft (740m) | 12.65v | 31 |
| 2348 | 15 Apr 02:20:34 | 8 | 8.6 mph | 10 | SSW (207°) | 99521 | 101668 | 24.9°C | 76.1% | 20.4°C | 2436ft (742m) | 12.64v | 31 |
| 2347 | 15 Apr 02:20:23 | 9 | 10.8 mph | 12 | SSW (196°) | 99517 | 101664 | 24.9°C | 75.9% | 20.4°C | 2454ft (748m) | 12.64v | 31 |
| 2346 | 15 Apr 02:20:11 | 7 | 7.2 mph | 8 | SSW (207°) | 99519 | 101666 | 24.9°C | 76.1% | 20.4°C | 2436ft (742m) | 12.66v | 31 |
| 2345 | 15 Apr 02:20:00 | 7 | 7.5 mph | 9 | SSW (205°) | 99519 | 101666 | 24.9°C | 76.1% | 20.4°C | 2436ft (742m) | 12.66v | 31 |
| 2344 | 15 Apr 02:19:49 | 9 | 9.7 mph | 11 | SW (214°) | 99522 | 101669 | 24.9°C | 76% | 20.4°C | 2445ft (745m) | 12.67v | 31 |
| 2343 | 15 Apr 02:19:38 | 4 | 5.9 mph | 9 | SSW (198°) | 99519 | 101666 | 24.9°C | 76.2% | 20.4°C | 2428ft (740m) | 12.66v | 31 |
| 2342 | 15 Apr 02:19:26 | 5 | 5.5 mph | 7 | SSW (212°) | 99521 | 101668 | 24.9°C | 76.1% | 20.4°C | 2436ft (742m) | 12.65v | 31 |
| 2341 | 15 Apr 02:19:15 | 7 | 7.7 mph | 10 | SW (219°) | 99521 | 101668 | 24.9°C | 76.1% | 20.4°C | 2436ft (742m) | 12.66v | 31 |
| 2340 | 15 Apr 02:19:04 | 6 | 7.5 mph | 9 | SSW (209°) | 99521 | 101668 | 24.9°C | 76.1% | 20.4°C | 2436ft (742m) | 12.64v | 31 |
| 2339 | 15 Apr 02:18:53 | 6 | 7.1 mph | 9 | SW (214°) | 99519 | 101666 | 24.9°C | 76.1% | 20.4°C | 2436ft (742m) | 12.65v | 31 |
| 2338 | 15 Apr 02:18:41 | 7 | 8 mph | 10 | SSW (208°) | 99520 | 101667 | 24.9°C | 76% | 20.4°C | 2445ft (745m) | 12.64v | 31 |
| 2337 | 15 Apr 02:18:30 | 7 | 8.2 mph | 10 | SSW (212°) | 99519 | 101666 | 24.9°C | 75.9% | 20.4°C | 2454ft (748m) | 12.65v | 31 |
| 2336 | 15 Apr 02:18:19 | 7 | 8.1 mph | 9 | SW (217°) | 99523 | 101670 | 24.9°C | 75.9% | 20.4°C | 2454ft (748m) | 12.66v | 31 |
| 2335 | 15 Apr 02:18:08 | 6 | 8.6 mph | 12 | SSW (204°) | 99522 | 101669 | 24.9°C | 75.7% | 20.3°C | 2471ft (753m) | 12.66v | 31 |
| 2334 | 15 Apr 02:17:56 | 8 | 8.9 mph | 11 | SSW (206°) | 99520 | 101667 | 24.9°C | 75.8% | 20.3°C | 2463ft (751m) | 12.66v | 31 |
| 2333 | 15 Apr 02:17:45 | 5 | 6.7 mph | 9 | SSW (206°) | 99524 | 101671 | 24.9°C | 75.9% | 20.4°C | 2454ft (748m) | 12.67v | 31 |
| 2332 | 15 Apr 02:17:34 | 5 | 6.8 mph | 8 | SW (217°) | 99524 | 101671 | 24.9°C | 76% | 20.4°C | 2445ft (745m) | 12.65v | 31 |
| 2331 | 15 Apr 02:17:23 | 5 | 6.2 mph | 8 | SSW (208°) | 99526 | 101673 | 24.9°C | 75.9% | 20.4°C | 2454ft (748m) | 12.64v | 31 |
| 2330 | 15 Apr 02:17:11 | 7 | 8.6 mph | 10 | SW (214°) | 99525 | 101672 | 24.9°C | 75.8% | 20.3°C | 2463ft (751m) | 12.65v | 31 |
| 2329 | 15 Apr 02:17:00 | 8 | 8.4 mph | 10 | SSW (211°) | 99527 | 101674 | 24.9°C | 75.8% | 20.3°C | 2463ft (751m) | 12.66v | 31 |
| 2328 | 15 Apr 02:16:49 | 8 | 8.1 mph | 10 | SSW (206°) | 99525 | 101672 | 24.9°C | 75.7% | 20.3°C | 2471ft (753m) | 12.67v | 31 |
| 2327 | 15 Apr 02:16:38 | 7 | 7.9 mph | 9 | SSW (212°) | 99525 | 101672 | 24.9°C | 75.9% | 20.4°C | 2454ft (748m) | 12.65v | 31 |
| 2326 | 15 Apr 02:16:26 | 8 | 8.3 mph | 9 | SW (221°) | 99525 | 101672 | 24.9°C | 75.8% | 20.3°C | 2463ft (751m) | 12.65v | 31 |
| 2325 | 15 Apr 02:16:15 | 8 | 8.7 mph | 10 | SSW (208°) | 99525 | 101672 | 24.9°C | 75.8% | 20.3°C | 2463ft (751m) | 12.65v | 31 |
| 2324 | 15 Apr 02:16:04 | 5 | 6.1 mph | 8 | SSW (203°) | 99528 | 101675 | 24.9°C | 75.8% | 20.3°C | 2463ft (751m) | 12.65v | 31 |
| 2323 | 15 Apr 02:15:53 | 5 | 5.7 mph | 7 | SW (221°) | 99527 | 101674 | 24.9°C | 75.8% | 20.3°C | 2463ft (751m) | 12.66v | 31 |
| 2322 | 15 Apr 02:15:41 | 6 | 6.7 mph | 7 | SW (221°) | 99527 | 101674 | 25°C | 75.8% | 20.4°C | 2464ft (751m) | 12.65v | 31 |
| 2321 | 15 Apr 02:15:30 | 6 | 6 mph | 7 | SSW (213°) | 99524 | 101671 | 25°C | 75.7% | 20.4°C | 2473ft (754m) | 12.66v | 31 |
| 2320 | 15 Apr 02:15:19 | 7 | 8.9 mph | 11 | SSW (207°) | 99528 | 101675 | 24.9°C | 75.7% | 20.3°C | 2471ft (753m) | 12.66v | 31 |
| 2319 | 15 Apr 02:15:08 | 10 | 10.5 mph | 12 | SSW (206°) | 99528 | 101675 | 24.9°C | 75.4% | 20.2°C | 2498ft (761m) | 12.65v | 31 |
| 2318 | 15 Apr 02:14:56 | 9 | 9.9 mph | 12 | SSW (209°) | 99529 | 101676 | 25°C | 75.6% | 20.4°C | 2482ft (757m) | 12.65v | 31 |
| 2317 | 15 Apr 02:14:45 | 6 | 7.5 mph | 10 | SSW (204°) | 99530 | 101677 | 25°C | 75.8% | 20.4°C | 2464ft (751m) | 12.65v | 31 |
| 2316 | 15 Apr 02:14:34 | 4 | 6.1 mph | 9 | SW (215°) | 99530 | 101677 | 25°C | 75.7% | 20.4°C | 2473ft (754m) | 12.65v | 31 |
| 2315 | 15 Apr 02:14:23 | 8 | 8.5 mph | 10 | SW (221°) | 99527 | 101674 | 25°C | 75.7% | 20.4°C | 2473ft (754m) | 12.64v | 31 |
| 2314 | 15 Apr 02:14:11 | 9 | 9 mph | 10 | SW (222°) | 99529 | 101676 | 24.9°C | 75.6% | 20.3°C | 2480ft (756m) | 12.66v | 31 |
| 2313 | 15 Apr 02:14:00 | 5 | 6.2 mph | 8 | SW (214°) | 99530 | 101677 | 24.9°C | 75.7% | 20.3°C | 2471ft (753m) | 12.64v | 31 |
| 2312 | 15 Apr 02:13:49 | 7 | 8.5 mph | 10 | SSW (207°) | 99532 | 101679 | 25°C | 75.7% | 20.4°C | 2473ft (754m) | 12.66v | 31 |
| 2311 | 15 Apr 02:13:38 | 7 | 8 mph | 9 | SSW (209°) | 99533 | 101680 | 25°C | 75.7% | 20.4°C | 2473ft (754m) | 12.65v | 31 |
| 2310 | 15 Apr 02:13:26 | 7 | 8.6 mph | 10 | SW (214°) | 99534 | 101681 | 25°C | 75.6% | 20.4°C | 2482ft (757m) | 12.67v | 31 |
| 2309 | 15 Apr 02:13:15 | 5 | 6.6 mph | 10 | SSW (206°) | 99534 | 101681 | 24.9°C | 75.7% | 20.3°C | 2471ft (753m) | 12.66v | 31 |
| 2308 | 15 Apr 02:13:04 | 9 | 10.1 mph | 12 | SSW (204°) | 99532 | 101679 | 24.9°C | 75.7% | 20.3°C | 2471ft (753m) | 12.66v | 31 |
| 2307 | 15 Apr 02:12:53 | 9 | 10.3 mph | 12 | SSW (204°) | 99531 | 101678 | 25°C | 75.5% | 20.4°C | 2490ft (759m) | 12.65v | 31 |
| 2306 | 15 Apr 02:12:41 | 4 | 7.5 mph | 11 | SSW (204°) | 99531 | 101678 | 25°C | 75.6% | 20.4°C | 2482ft (757m) | 12.64v | 31 |
| 2305 | 15 Apr 02:12:30 | 6 | 6.9 mph | 8 | SW (225°) | 99538 | 101685 | 24.9°C | 75.6% | 20.3°C | 2480ft (756m) | 12.65v | 31 |
| 2304 | 15 Apr 02:12:19 | 5 | 5.7 mph | 7 | SSW (211°) | 99536 | 101683 | 24.9°C | 75.6% | 20.3°C | 2480ft (756m) | 12.66v | 31 |
| 2303 | 15 Apr 02:12:08 | 5 | 5.9 mph | 7 | SW (217°) | 99539 | 101686 | 24.9°C | 75.7% | 20.3°C | 2471ft (753m) | 12.66v | 31 |
| 2302 | 15 Apr 02:11:56 | 5 | 6.3 mph | 8 | SSW (209°) | 99537 | 101684 | 24.9°C | 75.6% | 20.3°C | 2480ft (756m) | 12.65v | 31 |
| 2301 | 15 Apr 02:11:45 | 5 | 5.8 mph | 7 | SW (219°) | 99538 | 101685 | 24.9°C | 75.7% | 20.3°C | 2471ft (753m) | 12.66v | 31 |
| 2300 | 15 Apr 02:11:34 | 6 | 8.4 mph | 11 | SW (214°) | 99538 | 101685 | 25°C | 75.6% | 20.4°C | 2482ft (757m) | 12.67v | 31 |
| 2299 | 15 Apr 02:11:23 | 9 | 9.7 mph | 12 | SSW (199°) | 99535 | 101682 | 25°C | 75.6% | 20.4°C | 2482ft (757m) | 12.65v | 31 |
| 2298 | 15 Apr 02:11:11 | 11 | 11.6 mph | 14 | SSW (202°) | 99532 | 101679 | 24.9°C | 75.4% | 20.2°C | 2498ft (761m) | 12.65v | 31 |
| 2297 | 15 Apr 02:11:00 | 8 | 9.3 mph | 13 | SW (214°) | 99540 | 101687 | 25°C | 75.3% | 20.3°C | 2508ft (764m) | 12.65v | 31 |
| 2296 | 15 Apr 02:10:49 | 7 | 8 mph | 10 | SSW (213°) | 99543 | 101690 | 25°C | 75.4% | 20.3°C | 2499ft (762m) | 12.65v | 31 |
| 2295 | 15 Apr 02:10:38 | 7 | 7 mph | 9 | SSW (212°) | 99538 | 101685 | 25°C | 75.4% | 20.3°C | 2499ft (762m) | 12.66v | 31 |
| 2294 | 15 Apr 02:10:26 | 5 | 7.8 mph | 10 | SSW (208°) | 99537 | 101684 | 25°C | 75.4% | 20.3°C | 2499ft (762m) | 12.66v | 31 |
| 2293 | 15 Apr 02:10:15 | 5 | 5.4 mph | 6 | SW (216°) | 99540 | 101687 | 25°C | 75.5% | 20.4°C | 2490ft (759m) | 12.65v | 31 |
| 2292 | 15 Apr 02:10:04 | 6 | 8 mph | 11 | SSW (212°) | 99542 | 101689 | 25°C | 75.4% | 20.3°C | 2499ft (762m) | 12.66v | 31 |
| 2291 | 15 Apr 02:09:53 | 8 | 9 mph | 10 | SW (233°) | 99539 | 101686 | 25°C | 75.2% | 20.3°C | 2517ft (767m) | 12.67v | 31 |
| 2290 | 15 Apr 02:09:41 | 8 | 8.5 mph | 10 | SW (216°) | 99544 | 101691 | 25°C | 75.3% | 20.3°C | 2508ft (764m) | 12.65v | 31 |
| 2289 | 15 Apr 02:09:30 | 6 | 8.8 mph | 11 | SW (223°) | 99543 | 101690 | 25°C | 75.3% | 20.3°C | 2508ft (764m) | 12.66v | 31 |
| 2288 | 15 Apr 02:09:19 | 7 | 7.5 mph | 9 | SSW (210°) | 99542 | 101689 | 25°C | 75.3% | 20.3°C | 2508ft (764m) | 12.66v | 31 |
| 2287 | 15 Apr 02:09:08 | 6 | 7.7 mph | 9 | SW (214°) | 99545 | 101692 | 25°C | 75.3% | 20.3°C | 2508ft (764m) | 12.66v | 31 |
| 2286 | 15 Apr 02:08:56 | 7 | 7.7 mph | 8 | SW (220°) | 99540 | 101687 | 25°C | 75.4% | 20.3°C | 2499ft (762m) | 12.67v | 31 |
| 2285 | 15 Apr 02:08:45 | 6 | 6.9 mph | 8 | SSW (207°) | 99542 | 101689 | 25°C | 75.5% | 20.4°C | 2490ft (759m) | 12.66v | 31 |
| 2284 | 15 Apr 02:08:34 | 6 | 6.6 mph | 8 | SSW (208°) | 99546 | 101693 | 25°C | 75.5% | 20.4°C | 2490ft (759m) | 12.66v | 31 |
| 2283 | 15 Apr 02:08:23 | 6 | 7.1 mph | 8 | SSW (213°) | 99548 | 101695 | 25°C | 75.5% | 20.4°C | 2490ft (759m) | 12.65v | 31 |
| 2282 | 15 Apr 02:08:11 | 4 | 5.7 mph | 7 | SW (217°) | 99547 | 101694 | 25°C | 75.5% | 20.4°C | 2490ft (759m) | 12.64v | 31 |
| 2281 | 15 Apr 02:08:00 | 4 | 5.8 mph | 7 | SW (226°) | 99546 | 101693 | 25°C | 75.4% | 20.3°C | 2499ft (762m) | 12.65v | 31 |
| 2280 | 15 Apr 02:07:49 | 7 | 7.5 mph | 9 | SSW (210°) | 99548 | 101695 | 25°C | 75.4% | 20.3°C | 2499ft (762m) | 12.65v | 31 |
| 2279 | 15 Apr 02:07:38 | 5 | 6.1 mph | 9 | SW (220°) | 99544 | 101691 | 25°C | 75.5% | 20.4°C | 2490ft (759m) | 12.67v | 31 |
| 2278 | 15 Apr 02:07:26 | 4 | 5.1 mph | 6 | SW (216°) | 99549 | 101696 | 25°C | 75.5% | 20.4°C | 2490ft (759m) | 12.66v | 31 |
| 2277 | 15 Apr 02:07:15 | 5 | 5.4 mph | 6 | SW (227°) | 99550 | 101697 | 25°C | 75.4% | 20.3°C | 2499ft (762m) | 12.66v | 31 |
| 2276 | 15 Apr 02:07:04 | 6 | 7.2 mph | 9 | SW (216°) | 99550 | 101697 | 25°C | 75.4% | 20.3°C | 2499ft (762m) | 12.66v | 31 |
| 2275 | 15 Apr 02:06:53 | 6 | 6.9 mph | 8 | SSW (203°) | 99550 | 101697 | 25°C | 75.4% | 20.3°C | 2499ft (762m) | 12.65v | 31 |
| 2274 | 15 Apr 02:06:41 | 7 | 7.6 mph | 9 | SSW (208°) | 99550 | 101697 | 25°C | 75.3% | 20.3°C | 2508ft (764m) | 12.65v | 31 |
| 2273 | 15 Apr 02:06:30 | 5 | 7.2 mph | 9 | SSW (211°) | 99550 | 101697 | 25°C | 75.3% | 20.3°C | 2508ft (764m) | 12.65v | 31 |
| 2272 | 15 Apr 02:06:19 | 5 | 5.3 mph | 7 | SW (215°) | 99550 | 101697 | 25°C | 75.4% | 20.3°C | 2499ft (762m) | 12.65v | 31 |
| 2271 | 15 Apr 02:06:08 | 6 | 7.6 mph | 9 | SSW (211°) | 99553 | 101700 | 25°C | 75.3% | 20.3°C | 2508ft (764m) | 12.66v | 31 |
| 2270 | 15 Apr 02:05:56 | 6 | 7.3 mph | 8 | SW (216°) | 99555 | 101702 | 25°C | 75.3% | 20.3°C | 2508ft (764m) | 12.67v | 31 |
| 2269 | 15 Apr 02:05:45 | 6 | 6.9 mph | 8 | SSW (212°) | 99557 | 101704 | 25°C | 75.3% | 20.3°C | 2508ft (764m) | 12.66v | 31 |
| 2268 | 15 Apr 02:05:34 | 7 | 8.2 mph | 10 | SSW (210°) | 99554 | 101701 | 25°C | 75.2% | 20.3°C | 2517ft (767m) | 12.66v | 31 |
| 2267 | 15 Apr 02:05:23 | 5 | 6.5 mph | 7 | SSW (204°) | 99558 | 101705 | 25°C | 75.2% | 20.3°C | 2517ft (767m) | 12.65v | 31 |
| 2266 | 15 Apr 02:05:11 | 5 | 6 mph | 7 | WSW (238°) | 99554 | 101701 | 25°C | 75.4% | 20.3°C | 2499ft (762m) | 12.66v | 31 |
| 2265 | 15 Apr 02:05:00 | 5 | 7 mph | 8 | SW (216°) | 99555 | 101702 | 25°C | 75.3% | 20.3°C | 2508ft (764m) | 12.66v | 31 |
| 2264 | 15 Apr 02:04:49 | 5 | 6 mph | 7 | SW (215°) | 99557 | 101704 | 25°C | 75.4% | 20.3°C | 2499ft (762m) | 12.66v | 31 |
| 2263 | 15 Apr 02:04:38 | 4 | 5.3 mph | 7 | SW (216°) | 99557 | 101704 | 25°C | 75.4% | 20.3°C | 2499ft (762m) | 12.65v | 31 |
| 2262 | 15 Apr 02:04:26 | 4 | 5.5 mph | 7 | SW (215°) | 99558 | 101705 | 25°C | 75.2% | 20.3°C | 2517ft (767m) | 12.67v | 31 |
| 2261 | 15 Apr 02:04:15 | 6 | 6.3 mph | 7 | SSW (204°) | 99557 | 101704 | 25°C | 75.2% | 20.3°C | 2517ft (767m) | 12.66v | 31 |
| 2260 | 15 Apr 02:04:04 | 4 | 4.9 mph | 6 | SW (216°) | 99559 | 101707 | 25°C | 75.2% | 20.3°C | 2517ft (767m) | 12.66v | 31 |
| 2259 | 15 Apr 02:03:53 | 6 | 7.3 mph | 10 | SW (219°) | 99560 | 101708 | 25°C | 75.2% | 20.3°C | 2517ft (767m) | 12.67v | 31 |
| 2258 | 15 Apr 02:03:41 | 6 | 8.1 mph | 10 | SSW (209°) | 99557 | 101704 | 25°C | 75.1% | 20.3°C | 2526ft (770m) | 12.65v | 31 |
| 2257 | 15 Apr 02:03:30 | 5 | 7.7 mph | 11 | SW (215°) | 99559 | 101707 | 25°C | 75.1% | 20.3°C | 2526ft (770m) | 12.65v | 31 |
| 2256 | 15 Apr 02:03:19 | 7 | 8.1 mph | 10 | SSW (201°) | 99553 | 101700 | 25°C | 75.2% | 20.3°C | 2517ft (767m) | 12.65v | 31 |
| 2255 | 15 Apr 02:03:08 | 4 | 5.3 mph | 7 | SSW (209°) | 99559 | 101707 | 25.1°C | 75.2% | 20.4°C | 2518ft (767m) | 12.65v | 31 |
| 2254 | 15 Apr 02:02:56 | 7 | 7.5 mph | 9 | SSW (204°) | 99558 | 101705 | 25°C | 75.2% | 20.3°C | 2517ft (767m) | 12.65v | 31 |
| 2253 | 15 Apr 02:02:45 | 6 | 7.7 mph | 10 | SSW (200°) | 99559 | 101707 | 25°C | 75.2% | 20.3°C | 2517ft (767m) | 12.67v | 31 |
| 2252 | 15 Apr 02:02:34 | 6 | 5.9 mph | 7 | SSW (200°) | 99559 | 101707 | 25°C | 75.2% | 20.3°C | 2517ft (767m) | 12.65v | 31 |
| 2251 | 15 Apr 02:02:23 | 5 | 5.7 mph | 7 | SSW (200°) | 99559 | 101707 | 25°C | 75.3% | 20.3°C | 2508ft (764m) | 12.66v | 31 |
| 2250 | 15 Apr 02:02:11 | 7 | 8.3 mph | 12 | SW (214°) | 99557 | 101704 | 25°C | 75.1% | 20.3°C | 2526ft (770m) | 12.65v | 31 |
| 2249 | 15 Apr 02:02:00 | 7 | 7.8 mph | 11 | SSW (207°) | 99559 | 101707 | 25°C | 75.2% | 20.3°C | 2517ft (767m) | 12.66v | 31 |
| 2248 | 15 Apr 02:01:49 | 8 | 9.3 mph | 11 | SSW (192°) | 99553 | 101700 | 25°C | 75.2% | 20.3°C | 2517ft (767m) | 12.65v | 31 |
| 2247 | 15 Apr 02:01:38 | 6 | 7.8 mph | 10 | SSW (205°) | 99557 | 101704 | 25°C | 75.1% | 20.3°C | 2526ft (770m) | 12.66v | 31 |
| 2246 | 15 Apr 02:01:26 | 8 | 9.2 mph | 12 | SSW (196°) | 99556 | 101703 | 25°C | 74.9% | 20.2°C | 2543ft (775m) | 12.66v | 31 |
| 2245 | 15 Apr 02:01:15 | 8 | 8.7 mph | 10 | SW (215°) | 99561 | 101709 | 25.1°C | 75% | 20.4°C | 2536ft (773m) | 12.66v | 31 |
| 2244 | 15 Apr 02:01:04 | 7 | 8.9 mph | 11 | SSW (207°) | 99560 | 101708 | 25.1°C | 75% | 20.4°C | 2536ft (773m) | 12.65v | 31 |
| 2243 | 15 Apr 02:00:53 | 7 | 9.7 mph | 12 | SSW (207°) | 99561 | 101709 | 25.1°C | 74.9% | 20.3°C | 2545ft (776m) | 12.66v | 31 |
| 2242 | 15 Apr 02:00:41 | 11 | 11 mph | 11 | SSW (199°) | 99558 | 101705 | 25.1°C | 74.8% | 20.3°C | 2554ft (778m) | 12.65v | 31 |
| 2241 | 15 Apr 02:00:30 | 8 | 9.5 mph | 12 | SSW (198°) | 99558 | 101705 | 25.1°C | 74.9% | 20.3°C | 2545ft (776m) | 12.66v | 31 |
| 2240 | 15 Apr 02:00:19 | 9 | 10.5 mph | 13 | SSW (212°) | 99559 | 101707 | 25.1°C | 74.8% | 20.3°C | 2554ft (778m) | 12.66v | 31 |
| 2239 | 15 Apr 02:00:08 | 5 | 6.6 mph | 8 | SSW (207°) | 99560 | 101708 | 25.1°C | 75% | 20.4°C | 2536ft (773m) | 12.66v | 31 |
| 2238 | 15 Apr 01:59:56 | 7 | 7.7 mph | 9 | SSW (210°) | 99562 | 101710 | 25.1°C | 74.8% | 20.3°C | 2554ft (778m) | 12.66v | 31 |
| 2237 | 15 Apr 01:59:45 | 8 | 10.3 mph | 12 | SSW (203°) | 99561 | 101709 | 25.1°C | 74.9% | 20.3°C | 2545ft (776m) | 12.66v | 31 |
| 2236 | 15 Apr 01:59:34 | 6 | 9 mph | 11 | SW (215°) | 99563 | 101711 | 25.1°C | 74.8% | 20.3°C | 2554ft (778m) | 12.66v | 31 |
| 2235 | 15 Apr 01:59:23 | 7 | 10 mph | 12 | SSW (201°) | 99562 | 101710 | 25.1°C | 74.8% | 20.3°C | 2554ft (778m) | 12.65v | 31 |
| 2234 | 15 Apr 01:59:11 | 7 | 7.1 mph | 8 | SSW (207°) | 99564 | 101712 | 25.1°C | 75% | 20.4°C | 2536ft (773m) | 12.65v | 31 |
| 2233 | 15 Apr 01:59:00 | 7 | 8.2 mph | 9 | SW (214°) | 99564 | 101712 | 25.1°C | 75% | 20.4°C | 2536ft (773m) | 12.66v | 31 |
| 2232 | 15 Apr 01:58:49 | 5 | 6 mph | 8 | SSW (212°) | 99562 | 101710 | 25.1°C | 75.1% | 20.4°C | 2527ft (770m) | 12.65v | 31 |
| 2231 | 15 Apr 01:58:38 | 7 | 6.9 mph | 7 | SSW (206°) | 99561 | 101709 | 25.1°C | 75% | 20.4°C | 2536ft (773m) | 12.64v | 31 |
| 2230 | 15 Apr 01:58:26 | 6 | 6.7 mph | 8 | SSW (212°) | 99563 | 101711 | 25.1°C | 75% | 20.4°C | 2536ft (773m) | 12.65v | 31 |
| 2229 | 15 Apr 01:58:15 | 5 | 6.2 mph | 7 | SW (214°) | 99566 | 101714 | 25.1°C | 75% | 20.4°C | 2536ft (773m) | 12.65v | 31 |
| 2228 | 15 Apr 01:58:04 | 7 | 8.7 mph | 11 | SW (214°) | 99565 | 101713 | 25.1°C | 75.1% | 20.4°C | 2527ft (770m) | 12.66v | 31 |
| 2227 | 15 Apr 01:57:53 | 6 | 6.9 mph | 10 | SW (218°) | 99567 | 101715 | 25.1°C | 75.1% | 20.4°C | 2527ft (770m) | 12.66v | 31 |
| 2226 | 15 Apr 01:57:41 | 7 | 8.1 mph | 10 | SSW (210°) | 99565 | 101713 | 25.1°C | 75.1% | 20.4°C | 2527ft (770m) | 12.65v | 31 |
| 2225 | 15 Apr 01:57:30 | 6 | 6.9 mph | 8 | SSW (211°) | 99566 | 101714 | 25.1°C | 74.9% | 20.3°C | 2545ft (776m) | 12.65v | 31 |
| 2224 | 15 Apr 01:57:19 | 6 | 7.5 mph | 9 | SSW (202°) | 99569 | 101717 | 25.1°C | 74.7% | 20.3°C | 2563ft (781m) | 12.65v | 31 |
| 2223 | 15 Apr 01:57:08 | 6 | 7.2 mph | 10 | S (184°) | 99565 | 101713 | 25.1°C | 74.9% | 20.3°C | 2545ft (776m) | 12.64v | 31 |
| 2222 | 15 Apr 01:56:56 | 8 | 9.5 mph | 11 | SSW (207°) | 99570 | 101718 | 25.1°C | 74.8% | 20.3°C | 2554ft (778m) | 12.67v | 31 |
| 2221 | 15 Apr 01:56:45 | 5 | 6.1 mph | 8 | SW (220°) | 99570 | 101718 | 25.1°C | 75% | 20.4°C | 2536ft (773m) | 12.67v | 31 |
| 2220 | 15 Apr 01:56:34 | 5 | 6.7 mph | 8 | SW (233°) | 99567 | 101715 | 25.1°C | 75% | 20.4°C | 2536ft (773m) | 12.67v | 31 |
| 2219 | 15 Apr 01:56:23 | 5 | 6.4 mph | 9 | SW (215°) | 99569 | 101717 | 25°C | 75% | 20.3°C | 2534ft (772m) | 12.65v | 31 |
| 2218 | 15 Apr 01:56:11 | 6 | 7.3 mph | 8 | SW (214°) | 99570 | 101718 | 25.1°C | 75.1% | 20.4°C | 2527ft (770m) | 12.66v | 31 |
| 2217 | 15 Apr 01:56:00 | 4 | 5.6 mph | 7 | SW (216°) | 99570 | 101718 | 25°C | 75.1% | 20.3°C | 2526ft (770m) | 12.65v | 31 |
| 2216 | 15 Apr 01:55:49 | 4 | 5.5 mph | 6 | SSW (206°) | 99573 | 101721 | 25°C | 75.1% | 20.3°C | 2526ft (770m) | 12.66v | 31 |
| 2215 | 15 Apr 01:55:38 | 8 | 7.8 mph | 9 | SSW (195°) | 99570 | 101718 | 25°C | 75% | 20.3°C | 2534ft (772m) | 12.66v | 31 |
| 2214 | 15 Apr 01:55:26 | 6 | 8 mph | 11 | S (187°) | 99569 | 101717 | 25°C | 75.1% | 20.3°C | 2526ft (770m) | 12.66v | 31 |
| 2213 | 15 Apr 01:55:15 | 11 | 11.4 mph | 13 | SSW (195°) | 99569 | 101717 | 25°C | 74.8% | 20.2°C | 2552ft (778m) | 12.67v | 31 |
| 2212 | 15 Apr 01:55:04 | 8 | 10.1 mph | 12 | SSW (199°) | 99572 | 101720 | 25°C | 74.8% | 20.2°C | 2552ft (778m) | 12.67v | 31 |
| 2211 | 15 Apr 01:54:53 | 10 | 9.3 mph | 11 | SW (220°) | 99570 | 101718 | 25.1°C | 74.7% | 20.3°C | 2563ft (781m) | 12.66v | 31 |
| 2210 | 15 Apr 01:54:41 | 8 | 9.5 mph | 11 | SSW (198°) | 99570 | 101718 | 25.1°C | 74.8% | 20.3°C | 2554ft (778m) | 12.66v | 31 |
| 2209 | 15 Apr 01:54:30 | 7 | 8.2 mph | 10 | SSW (198°) | 99569 | 101717 | 25.1°C | 74.9% | 20.3°C | 2545ft (776m) | 12.66v | 31 |
| 2208 | 15 Apr 01:54:19 | 8 | 9.6 mph | 11 | SSW (200°) | 99569 | 101717 | 25.1°C | 74.9% | 20.3°C | 2545ft (776m) | 12.65v | 31 |
| 2207 | 15 Apr 01:54:08 | 7 | 9.2 mph | 10 | SSW (200°) | 99572 | 101720 | 25.1°C | 74.8% | 20.3°C | 2554ft (778m) | 12.65v | 31 |
| 2206 | 15 Apr 01:53:56 | 7 | 9.1 mph | 11 | SSW (193°) | 99569 | 101717 | 25.1°C | 74.9% | 20.3°C | 2545ft (776m) | 12.65v | 31 |
| 2205 | 15 Apr 01:53:45 | 9 | 9.9 mph | 11 | SSW (200°) | 99568 | 101716 | 25°C | 74.8% | 20.2°C | 2552ft (778m) | 12.67v | 31 |
| 2204 | 15 Apr 01:53:34 | 9 | 10 mph | 13 | SSW (204°) | 99571 | 101719 | 25.1°C | 74.7% | 20.3°C | 2563ft (781m) | 12.66v | 31 |
| 2203 | 15 Apr 01:53:23 | 5 | 7.6 mph | 10 | SSW (207°) | 99571 | 101719 | 25.1°C | 74.8% | 20.3°C | 2554ft (778m) | 12.65v | 31 |
| 2202 | 15 Apr 01:53:11 | 5 | 6.1 mph | 8 | SW (215°) | 99570 | 101718 | 25.1°C | 74.9% | 20.3°C | 2545ft (776m) | 12.66v | 31 |
| 2201 | 15 Apr 01:53:00 | 7 | 8.5 mph | 10 | SSW (205°) | 99571 | 101719 | 25.1°C | 74.7% | 20.3°C | 2563ft (781m) | 12.66v | 31 |
| 2200 | 15 Apr 01:52:49 | 6 | 10 mph | 13 | SSW (200°) | 99568 | 101716 | 25°C | 74.6% | 20.2°C | 2570ft (783m) | 12.65v | 31 |
| 2199 | 15 Apr 01:52:38 | 6 | 6.5 mph | 7 | SW (217°) | 99572 | 101720 | 25.1°C | 74.9% | 20.3°C | 2545ft (776m) | 12.65v | 31 |
| 2198 | 15 Apr 01:52:26 | 5 | 6.1 mph | 8 | SW (217°) | 99571 | 101719 | 25°C | 74.9% | 20.2°C | 2543ft (775m) | 12.66v | 31 |
| 2197 | 15 Apr 01:52:15 | 5 | 7.2 mph | 9 | SW (218°) | 99570 | 101718 | 25.1°C | 74.9% | 20.3°C | 2545ft (776m) | 12.67v | 31 |
| 2196 | 15 Apr 01:52:04 | 8 | 8.8 mph | 10 | SSW (210°) | 99575 | 101723 | 25.1°C | 74.9% | 20.3°C | 2545ft (776m) | 12.67v | 31 |
| 2195 | 15 Apr 01:51:53 | 5 | 5.8 mph | 7 | SSW (210°) | 99573 | 101721 | 25.1°C | 74.8% | 20.3°C | 2554ft (778m) | 12.65v | 31 |
| 2194 | 15 Apr 01:51:41 | 6 | 8.1 mph | 10 | SW (223°) | 99574 | 101722 | 25.1°C | 74.8% | 20.3°C | 2554ft (778m) | 12.65v | 31 |
| 2193 | 15 Apr 01:51:30 | 6 | 6.7 mph | 8 | SSW (209°) | 99575 | 101723 | 25.1°C | 74.8% | 20.3°C | 2554ft (778m) | 12.67v | 31 |
| 2192 | 15 Apr 01:51:19 | 7 | 7.2 mph | 8 | SSW (204°) | 99571 | 101719 | 25.1°C | 74.7% | 20.3°C | 2563ft (781m) | 12.66v | 31 |
| 2191 | 15 Apr 01:51:08 | 9 | 8.9 mph | 10 | SSW (195°) | 99568 | 101716 | 25.1°C | 74.6% | 20.3°C | 2571ft (784m) | 12.67v | 31 |
| 2190 | 15 Apr 01:50:56 | 8 | 9.1 mph | 10 | SSW (206°) | 99572 | 101720 | 25.1°C | 74.7% | 20.3°C | 2563ft (781m) | 12.65v | 31 |
| 2189 | 15 Apr 01:50:45 | 5 | 5.9 mph | 7 | SW (214°) | 99573 | 101721 | 25.1°C | 74.7% | 20.3°C | 2563ft (781m) | 12.67v | 31 |
| 2188 | 15 Apr 01:50:34 | 6 | 6.9 mph | 8 | SSW (209°) | 99575 | 101723 | 25.1°C | 74.7% | 20.3°C | 2563ft (781m) | 12.66v | 31 |
| 2187 | 15 Apr 01:50:23 | 6 | 6.7 mph | 7 | SSW (208°) | 99575 | 101723 | 25.1°C | 74.7% | 20.3°C | 2563ft (781m) | 12.67v | 31 |
| 2186 | 15 Apr 01:50:11 | 6 | 7.3 mph | 8 | SSW (209°) | 99574 | 101722 | 25.1°C | 74.8% | 20.3°C | 2554ft (778m) | 12.66v | 31 |
| 2185 | 15 Apr 01:50:00 | 6 | 6.8 mph | 8 | SSW (213°) | 99575 | 101723 | 25.1°C | 74.6% | 20.3°C | 2571ft (784m) | 12.67v | 31 |
| 2184 | 15 Apr 01:49:49 | 7 | 7.6 mph | 8 | SSW (210°) | 99576 | 101724 | 25.1°C | 74.7% | 20.3°C | 2563ft (781m) | 12.65v | 31 |
| 2183 | 15 Apr 01:49:38 | 8 | 7.9 mph | 8 | SSW (211°) | 99574 | 101722 | 25.1°C | 74.7% | 20.3°C | 2563ft (781m) | 12.65v | 31 |
| 2182 | 15 Apr 01:49:26 | 7 | 7.6 mph | 8 | SW (217°) | 99579 | 101727 | 25.1°C | 74.6% | 20.3°C | 2571ft (784m) | 12.67v | 31 |
| 2181 | 15 Apr 01:49:15 | 7 | 7.1 mph | 8 | SW (219°) | 99576 | 101724 | 25.1°C | 74.7% | 20.3°C | 2563ft (781m) | 12.67v | 31 |
| 2180 | 15 Apr 01:49:04 | 6 | 7.5 mph | 10 | SW (216°) | 99577 | 101725 | 25°C | 74.7% | 20.2°C | 2561ft (781m) | 12.67v | 31 |
| 2179 | 15 Apr 01:48:53 | 8 | 9.4 mph | 11 | SSW (198°) | 99569 | 101717 | 25°C | 74.6% | 20.2°C | 2570ft (783m) | 12.67v | 31 |
| 2178 | 15 Apr 01:48:41 | 8 | 10 mph | 12 | SSW (211°) | 99580 | 101728 | 25.1°C | 74.5% | 20.2°C | 2580ft (786m) | 12.67v | 31 |
| 2177 | 15 Apr 01:48:30 | 9 | 10.9 mph | 13 | SSW (210°) | 99573 | 101721 | 25.1°C | 74.5% | 20.2°C | 2580ft (786m) | 12.66v | 31 |
| 2176 | 15 Apr 01:48:19 | 8 | 10.8 mph | 14 | SSW (202°) | 99575 | 101723 | 25.1°C | 74.4% | 20.2°C | 2589ft (789m) | 12.66v | 31 |
| 2175 | 15 Apr 01:48:08 | 6 | 8 mph | 10 | SSW (205°) | 99581 | 101729 | 25.1°C | 74.5% | 20.2°C | 2580ft (786m) | 12.67v | 31 |
| 2174 | 15 Apr 01:47:56 | 5 | 6.1 mph | 7 | SSW (203°) | 99575 | 101723 | 25.1°C | 74.6% | 20.3°C | 2571ft (784m) | 12.65v | 31 |
| 2173 | 15 Apr 01:47:45 | 7 | 8.2 mph | 9 | SW (217°) | 99577 | 101725 | 25.1°C | 74.6% | 20.3°C | 2571ft (784m) | 12.67v | 31 |
| 2172 | 15 Apr 01:47:34 | 6 | 6.9 mph | 9 | SW (214°) | 99579 | 101727 | 25.1°C | 74.6% | 20.3°C | 2571ft (784m) | 12.67v | 31 |
| 2171 | 15 Apr 01:47:23 | 6 | 7 mph | 9 | SSW (204°) | 99581 | 101729 | 25.1°C | 74.6% | 20.3°C | 2571ft (784m) | 12.67v | 31 |
| 2170 | 15 Apr 01:47:11 | 6 | 6.9 mph | 9 | SSW (209°) | 99578 | 101726 | 25.1°C | 74.7% | 20.3°C | 2563ft (781m) | 12.66v | 31 |
| 2169 | 15 Apr 01:47:00 | 7 | 8.5 mph | 11 | SSW (202°) | 99579 | 101727 | 25°C | 74.6% | 20.2°C | 2570ft (783m) | 12.66v | 31 |
| 2168 | 15 Apr 01:46:49 | 6 | 6.7 mph | 8 | SSW (213°) | 99578 | 101726 | 25°C | 74.7% | 20.2°C | 2561ft (781m) | 12.65v | 31 |
| 2167 | 15 Apr 01:46:38 | 7 | 8.7 mph | 10 | SSW (204°) | 99576 | 101724 | 25°C | 74.7% | 20.2°C | 2561ft (781m) | 12.65v | 31 |
| 2166 | 15 Apr 01:46:26 | 6 | 8.7 mph | 12 | SSW (197°) | 99575 | 101723 | 25°C | 74.6% | 20.2°C | 2570ft (783m) | 12.66v | 31 |
| 2165 | 15 Apr 01:46:15 | 4 | 7.1 mph | 12 | SSW (212°) | 99581 | 101729 | 25.1°C | 74.7% | 20.3°C | 2563ft (781m) | 12.65v | 31 |
| 2164 | 15 Apr 01:46:04 | 6 | 8.5 mph | 12 | SSW (208°) | 99573 | 101721 | 25°C | 74.6% | 20.2°C | 2570ft (783m) | 12.67v | 31 |
| 2163 | 15 Apr 01:45:53 | 4 | 5.5 mph | 7 | SW (223°) | 99579 | 101727 | 25°C | 74.7% | 20.2°C | 2561ft (781m) | 12.67v | 31 |
| 2162 | 15 Apr 01:45:41 | 6 | 8.6 mph | 11 | SW (215°) | 99579 | 101727 | 25.1°C | 74.6% | 20.3°C | 2571ft (784m) | 12.66v | 31 |
| 2161 | 15 Apr 01:45:30 | 6 | 7.5 mph | 9 | SW (222°) | 99583 | 101731 | 25°C | 74.6% | 20.2°C | 2570ft (783m) | 12.67v | 31 |
| 2160 | 15 Apr 01:45:19 | 7 | 8.1 mph | 9 | SSW (211°) | 99581 | 101729 | 25°C | 74.7% | 20.2°C | 2561ft (781m) | 12.67v | 31 |
| 2159 | 15 Apr 01:45:08 | 8 | 9 mph | 11 | SW (214°) | 99584 | 101732 | 25°C | 74.6% | 20.2°C | 2570ft (783m) | 12.67v | 31 |
| 2158 | 15 Apr 01:44:56 | 8 | 10.2 mph | 13 | SSW (204°) | 99581 | 101729 | 25°C | 74.7% | 20.2°C | 2561ft (781m) | 12.65v | 31 |
| 2157 | 15 Apr 01:44:45 | 8 | 8.3 mph | 9 | SSW (208°) | 99583 | 101731 | 25°C | 74.6% | 20.2°C | 2570ft (783m) | 12.66v | 31 |
| 2156 | 15 Apr 01:44:34 | 7 | 7.8 mph | 9 | SSW (208°) | 99583 | 101731 | 25°C | 74.7% | 20.2°C | 2561ft (781m) | 12.67v | 31 |
| 2155 | 15 Apr 01:44:23 | 5 | 6.2 mph | 8 | SSW (212°) | 99583 | 101731 | 25°C | 74.8% | 20.2°C | 2552ft (778m) | 12.68v | 31 |
| 2154 | 15 Apr 01:44:11 | 6 | 7.3 mph | 10 | SW (214°) | 99582 | 101730 | 25°C | 74.9% | 20.2°C | 2543ft (775m) | 12.67v | 31 |
| 2153 | 15 Apr 01:44:00 | 6 | 6.5 mph | 7 | SSW (212°) | 99584 | 101732 | 25°C | 74.9% | 20.2°C | 2543ft (775m) | 12.65v | 31 |
| 2152 | 15 Apr 01:43:49 | 7 | 7.4 mph | 8 | SW (217°) | 99583 | 101731 | 25°C | 74.8% | 20.2°C | 2552ft (778m) | 12.66v | 31 |
| 2151 | 15 Apr 01:43:38 | 5 | 6.7 mph | 8 | SW (222°) | 99584 | 101732 | 25°C | 74.9% | 20.2°C | 2543ft (775m) | 12.66v | 31 |
| 2150 | 15 Apr 01:43:26 | 7 | 7.4 mph | 10 | SSW (202°) | 99587 | 101735 | 25°C | 74.9% | 20.2°C | 2543ft (775m) | 12.66v | 31 |
| 2149 | 15 Apr 01:43:15 | 9 | 10.5 mph | 13 | SSW (204°) | 99585 | 101733 | 25°C | 74.8% | 20.2°C | 2552ft (778m) | 12.65v | 31 |
| 2148 | 15 Apr 01:43:04 | 8 | 9.6 mph | 12 | SW (219°) | 99584 | 101732 | 25°C | 74.8% | 20.2°C | 2552ft (778m) | 12.67v | 31 |
| 2147 | 15 Apr 01:42:53 | 7 | 8.5 mph | 10 | SSW (208°) | 99589 | 101737 | 25°C | 74.8% | 20.2°C | 2552ft (778m) | 12.68v | 31 |
| 2146 | 15 Apr 01:42:41 | 8 | 8.4 mph | 10 | SW (214°) | 99587 | 101735 | 24.9°C | 75% | 20.2°C | 2533ft (772m) | 12.67v | 31 |
| 2145 | 15 Apr 01:42:30 | 6 | 7.3 mph | 10 | SSW (212°) | 99589 | 101737 | 24.9°C | 75% | 20.2°C | 2533ft (772m) | 12.67v | 31 |
| 2144 | 15 Apr 01:42:19 | 5 | 6.1 mph | 8 | SW (215°) | 99588 | 101736 | 24.9°C | 75% | 20.2°C | 2533ft (772m) | 12.67v | 31 |
| 2143 | 15 Apr 01:42:08 | 7 | 8.5 mph | 10 | SSW (207°) | 99590 | 101738 | 24.9°C | 75% | 20.2°C | 2533ft (772m) | 12.66v | 31 |
| 2142 | 15 Apr 01:41:56 | 8 | 8.7 mph | 10 | SSW (201°) | 99591 | 101739 | 24.9°C | 75% | 20.2°C | 2533ft (772m) | 12.65v | 31 |
| 2141 | 15 Apr 01:41:45 | 10 | 10.9 mph | 12 | SSW (196°) | 99584 | 101732 | 24.9°C | 74.9% | 20.1°C | 2542ft (775m) | 12.67v | 31 |
| 2140 | 15 Apr 01:41:34 | 10 | 11.5 mph | 13 | SSW (195°) | 99588 | 101736 | 24.9°C | 75% | 20.2°C | 2533ft (772m) | 12.67v | 31 |
| 2139 | 15 Apr 01:41:23 | 9 | 10 mph | 12 | SSW (207°) | 99590 | 101738 | 24.9°C | 74.7% | 20.1°C | 2560ft (780m) | 12.67v | 31 |
| 2138 | 15 Apr 01:41:11 | 10 | 11.9 mph | 14 | S (190°) | 99589 | 101737 | 25°C | 74.7% | 20.2°C | 2561ft (781m) | 12.67v | 31 |
| 2137 | 15 Apr 01:41:00 | 7 | 9.5 mph | 12 | S (191°) | 99593 | 101741 | 25°C | 74.5% | 20.1°C | 2579ft (786m) | 12.66v | 31 |
| 2136 | 15 Apr 01:40:49 | 8 | 9.9 mph | 12 | SSW (211°) | 99594 | 101742 | 25°C | 74.7% | 20.2°C | 2561ft (781m) | 12.68v | 31 |
| 2135 | 15 Apr 01:40:38 | 10 | 10.9 mph | 12 | SSW (203°) | 99597 | 101745 | 25°C | 74.5% | 20.1°C | 2579ft (786m) | 12.65v | 31 |
| 2134 | 15 Apr 01:40:26 | 6 | 7.7 mph | 11 | SSW (193°) | 99591 | 101739 | 25°C | 74.7% | 20.2°C | 2561ft (781m) | 12.66v | 31 |
| 2133 | 15 Apr 01:40:15 | 6 | 7.5 mph | 9 | SSW (212°) | 99595 | 101743 | 25°C | 74.8% | 20.2°C | 2552ft (778m) | 12.65v | 31 |
| 2132 | 15 Apr 01:40:04 | 6 | 6.9 mph | 8 | SSW (196°) | 99596 | 101744 | 25°C | 74.9% | 20.2°C | 2543ft (775m) | 12.66v | 31 |
| 2131 | 15 Apr 01:39:53 | 7 | 9 mph | 12 | S (190°) | 99593 | 101741 | 25°C | 74.8% | 20.2°C | 2552ft (778m) | 12.68v | 31 |
| 2130 | 15 Apr 01:39:41 | 9 | 10 mph | 11 | SSW (194°) | 99598 | 101746 | 25°C | 74.7% | 20.2°C | 2561ft (781m) | 12.68v | 31 |
| 2129 | 15 Apr 01:39:30 | 8 | 10.7 mph | 12 | SSW (197°) | 99597 | 101745 | 25°C | 74.6% | 20.2°C | 2570ft (783m) | 12.65v | 31 |
| 2128 | 15 Apr 01:39:19 | 11 | 12.1 mph | 13 | SSW (199°) | 99587 | 101735 | 25°C | 74.5% | 20.1°C | 2579ft (786m) | 12.67v | 31 |
| 2127 | 15 Apr 01:39:08 | 8 | 8.7 mph | 10 | SSW (202°) | 99594 | 101742 | 25°C | 74.8% | 20.2°C | 2552ft (778m) | 12.66v | 31 |
| 2126 | 15 Apr 01:38:56 | 8 | 8.9 mph | 11 | SSW (200°) | 99602 | 101750 | 24.9°C | 74.7% | 20.1°C | 2560ft (780m) | 12.66v | 31 |
| 2125 | 15 Apr 01:38:45 | 12 | 13.4 mph | 14 | SSW (195°) | 99595 | 101743 | 24.9°C | 74.6% | 20.1°C | 2568ft (783m) | 12.67v | 31 |
| 2124 | 15 Apr 01:38:34 | 9 | 11.9 mph | 15 | SSW (196°) | 99596 | 101744 | 25°C | 74.7% | 20.2°C | 2561ft (781m) | 12.66v | 31 |
| 2123 | 15 Apr 01:38:23 | 8 | 8.6 mph | 10 | S (189°) | 99601 | 101749 | 25°C | 74.6% | 20.2°C | 2570ft (783m) | 12.67v | 31 |
| 2122 | 15 Apr 01:38:11 | 9 | 10.3 mph | 12 | S (190°) | 99602 | 101750 | 25°C | 74.5% | 20.1°C | 2579ft (786m) | 12.67v | 31 |
| 2121 | 15 Apr 01:38:00 | 11 | 11.4 mph | 13 | SSW (194°) | 99605 | 101753 | 25°C | 74.5% | 20.1°C | 2579ft (786m) | 12.67v | 31 |
| 2120 | 15 Apr 01:37:49 | 8 | 9 mph | 10 | S (191°) | 99602 | 101750 | 25°C | 74.2% | 20.1°C | 2606ft (794m) | 12.67v | 31 |
| 2119 | 15 Apr 01:37:38 | 7 | 8.1 mph | 11 | S (189°) | 99604 | 101752 | 25°C | 74.4% | 20.1°C | 2588ft (789m) | 12.65v | 31 |
| 2118 | 15 Apr 01:37:26 | 9 | 10 mph | 11 | SSW (198°) | 99603 | 101751 | 25°C | 74.4% | 20.1°C | 2588ft (789m) | 12.66v | 31 |
| 2117 | 15 Apr 01:37:15 | 5 | 6.5 mph | 8 | SSW (203°) | 99603 | 101751 | 25°C | 74.6% | 20.2°C | 2570ft (783m) | 12.65v | 31 |
| 2116 | 15 Apr 01:37:04 | 8 | 8.1 mph | 10 | SSW (195°) | 99603 | 101751 | 25°C | 74.6% | 20.2°C | 2570ft (783m) | 12.65v | 31 |
| 2115 | 15 Apr 01:36:53 | 8 | 9.9 mph | 12 | SSW (197°) | 99606 | 101755 | 25°C | 74.4% | 20.1°C | 2588ft (789m) | 12.68v | 31 |
| 2114 | 15 Apr 01:36:41 | 7 | 7.8 mph | 10 | SSW (200°) | 99606 | 101755 | 25°C | 74.5% | 20.1°C | 2579ft (786m) | 12.68v | 31 |
| 2113 | 15 Apr 01:36:30 | 8 | 9.2 mph | 11 | SSW (213°) | 99607 | 101756 | 25°C | 74.4% | 20.1°C | 2588ft (789m) | 12.66v | 31 |
| 2112 | 15 Apr 01:36:19 | 11 | 11.4 mph | 12 | S (184°) | 99604 | 101752 | 25°C | 74.3% | 20.1°C | 2597ft (792m) | 12.66v | 31 |
| 2111 | 15 Apr 01:36:08 | 7 | 9.7 mph | 13 | SSW (200°) | 99605 | 101753 | 25°C | 74.3% | 20.1°C | 2597ft (792m) | 12.67v | 31 |
| 2110 | 15 Apr 01:35:56 | 7 | 7.9 mph | 10 | SSW (205°) | 99610 | 101759 | 25°C | 74.4% | 20.1°C | 2588ft (789m) | 12.65v | 31 |
| 2109 | 15 Apr 01:35:45 | 6 | 8.1 mph | 9 | SSW (199°) | 99607 | 101756 | 25°C | 74.5% | 20.1°C | 2579ft (786m) | 12.68v | 31 |
| 2108 | 15 Apr 01:35:34 | 7 | 8.9 mph | 12 | SSW (202°) | 99606 | 101755 | 25°C | 74.5% | 20.1°C | 2579ft (786m) | 12.67v | 31 |
| 2107 | 15 Apr 01:35:23 | 9 | 10 mph | 12 | SSW (195°) | 99609 | 101758 | 25°C | 74.3% | 20.1°C | 2597ft (792m) | 12.67v | 31 |
| 2106 | 15 Apr 01:35:11 | 8 | 9.8 mph | 13 | SSW (199°) | 99607 | 101756 | 25°C | 74.3% | 20.1°C | 2597ft (792m) | 12.67v | 31 |
| 2105 | 15 Apr 01:35:00 | 6 | 7.5 mph | 9 | SSW (209°) | 99606 | 101755 | 25°C | 74.5% | 20.1°C | 2579ft (786m) | 12.67v | 31 |
| 2104 | 15 Apr 01:34:49 | 7 | 8 mph | 10 | SSW (201°) | 99609 | 101758 | 25°C | 74.5% | 20.1°C | 2579ft (786m) | 12.67v | 31 |
| 2103 | 15 Apr 01:34:38 | 7 | 8.2 mph | 9 | SSW (212°) | 99609 | 101758 | 25°C | 74.4% | 20.1°C | 2588ft (789m) | 12.66v | 31 |
| 2102 | 15 Apr 01:34:26 | 7 | 8.1 mph | 11 | SSW (206°) | 99610 | 101759 | 25°C | 74.6% | 20.2°C | 2570ft (783m) | 12.67v | 31 |
| 2101 | 15 Apr 01:34:15 | 8 | 10.1 mph | 12 | SSW (204°) | 99605 | 101753 | 25°C | 74.5% | 20.1°C | 2579ft (786m) | 12.66v | 31 |
| 2100 | 15 Apr 01:34:04 | 8 | 9.7 mph | 11 | SSW (197°) | 99609 | 101758 | 25°C | 74.4% | 20.1°C | 2588ft (789m) | 12.65v | 31 |
| 2099 | 15 Apr 01:33:53 | 10 | 11.2 mph | 12 | SSW (202°) | 99605 | 101753 | 25°C | 74.3% | 20.1°C | 2597ft (792m) | 12.66v | 31 |
| 2098 | 15 Apr 01:33:41 | 9 | 10.3 mph | 11 | SSW (201°) | 99612 | 101761 | 25°C | 74.3% | 20.1°C | 2597ft (792m) | 12.67v | 31 |
| 2097 | 15 Apr 01:33:30 | 7 | 7.4 mph | 8 | SSW (206°) | 99612 | 101761 | 25°C | 74.4% | 20.1°C | 2588ft (789m) | 12.67v | 31 |
| 2096 | 15 Apr 01:33:19 | 10 | 10.2 mph | 11 | SSW (198°) | 99613 | 101762 | 25°C | 74.3% | 20.1°C | 2597ft (792m) | 12.66v | 31 |
| 2095 | 15 Apr 01:33:08 | 8 | 8.5 mph | 11 | SSW (211°) | 99615 | 101764 | 25°C | 74.4% | 20.1°C | 2588ft (789m) | 12.67v | 31 |
| 2094 | 15 Apr 01:32:56 | 8 | 9.1 mph | 10 | S (189°) | 99610 | 101759 | 25°C | 74.4% | 20.1°C | 2588ft (789m) | 12.66v | 31 |
| 2093 | 15 Apr 01:32:45 | 11 | 11.8 mph | 14 | SSW (194°) | 99609 | 101758 | 24.9°C | 74.5% | 20.1°C | 2577ft (785m) | 12.66v | 31 |
| 2092 | 15 Apr 01:32:34 | 11 | 11.4 mph | 12 | SSW (193°) | 99609 | 101758 | 24.9°C | 74.3% | 20°C | 2595ft (791m) | 12.66v | 31 |
| 2091 | 15 Apr 01:32:23 | 9 | 9.9 mph | 13 | SSW (195°) | 99609 | 101758 | 25°C | 74.4% | 20.1°C | 2588ft (789m) | 12.68v | 31 |
| 2090 | 15 Apr 01:32:11 | 8 | 9.2 mph | 10 | SSW (201°) | 99610 | 101759 | 25°C | 74.4% | 20.1°C | 2588ft (789m) | 12.68v | 31 |
| 2089 | 15 Apr 01:32:00 | 10 | 11.2 mph | 12 | S (191°) | 99610 | 101759 | 25°C | 74.3% | 20.1°C | 2597ft (792m) | 12.67v | 31 |
| 2088 | 15 Apr 01:31:49 | 9 | 11 mph | 13 | SSW (204°) | 99613 | 101762 | 25°C | 74.1% | 20.1°C | 2615ft (797m) | 12.67v | 31 |
| 2087 | 15 Apr 01:31:38 | 9 | 9.2 mph | 10 | SSW (196°) | 99610 | 101759 | 25°C | 74.1% | 20.1°C | 2615ft (797m) | 12.67v | 31 |
| 2086 | 15 Apr 01:31:26 | 8 | 9.8 mph | 11 | SSW (201°) | 99612 | 101761 | 25°C | 74.1% | 20.1°C | 2615ft (797m) | 12.66v | 31 |
| 2085 | 15 Apr 01:31:15 | 8 | 9.5 mph | 13 | SSW (195°) | 99611 | 101760 | 25°C | 74.1% | 20.1°C | 2615ft (797m) | 12.66v | 31 |
| 2084 | 15 Apr 01:31:04 | 8 | 10.2 mph | 12 | SSW (205°) | 99608 | 101757 | 25°C | 74.1% | 20.1°C | 2615ft (797m) | 12.67v | 31 |
| 2083 | 15 Apr 01:30:53 | 10 | 11.5 mph | 13 | SSW (201°) | 99602 | 101750 | 25°C | 74% | 20°C | 2623ft (799m) | 12.67v | 31 |
| 2082 | 15 Apr 01:30:41 | 8 | 9.3 mph | 11 | SSW (197°) | 99608 | 101757 | 25°C | 74.1% | 20.1°C | 2615ft (797m) | 12.67v | 31 |
| 2081 | 15 Apr 01:30:30 | 8 | 8.6 mph | 10 | SSW (206°) | 99613 | 101762 | 25°C | 74% | 20°C | 2623ft (799m) | 12.67v | 31 |
| 2080 | 15 Apr 01:30:19 | 5 | 6.5 mph | 8 | SSW (207°) | 99612 | 101761 | 25°C | 74.2% | 20.1°C | 2606ft (794m) | 12.67v | 31 |
| 2079 | 15 Apr 01:30:08 | 8 | 9.2 mph | 11 | SSW (203°) | 99614 | 101763 | 25°C | 73.9% | 20°C | 2632ft (802m) | 12.67v | 31 |
| 2078 | 15 Apr 01:29:56 | 6 | 6.5 mph | 7 | SSW (205°) | 99616 | 101765 | 25°C | 74.1% | 20.1°C | 2615ft (797m) | 12.67v | 31 |
| 2077 | 15 Apr 01:29:45 | 7 | 8.4 mph | 10 | SW (215°) | 99614 | 101763 | 25°C | 74.2% | 20.1°C | 2606ft (794m) | 12.67v | 31 |
| 2076 | 15 Apr 01:29:34 | 7 | 7.7 mph | 9 | SSW (207°) | 99613 | 101762 | 25°C | 74.1% | 20.1°C | 2615ft (797m) | 12.65v | 31 |
| 2075 | 15 Apr 01:29:23 | 6 | 6.4 mph | 8 | SSW (199°) | 99613 | 101762 | 25°C | 74.2% | 20.1°C | 2606ft (794m) | 12.67v | 31 |
| 2074 | 15 Apr 01:29:11 | 5 | 5.9 mph | 7 | SSW (211°) | 99614 | 101763 | 25°C | 74.2% | 20.1°C | 2606ft (794m) | 12.69v | 31 |
| 2073 | 15 Apr 01:29:00 | 4 | 4.5 mph | 6 | SSW (210°) | 99614 | 101763 | 25°C | 74.3% | 20.1°C | 2597ft (792m) | 12.68v | 31 |
| 2072 | 15 Apr 01:28:49 | 5 | 6.2 mph | 7 | SSW (208°) | 99617 | 101766 | 25°C | 74.3% | 20.1°C | 2597ft (792m) | 12.68v | 31 |
| 2071 | 15 Apr 01:28:38 | 7 | 8.1 mph | 9 | SSW (203°) | 99613 | 101762 | 25°C | 74.3% | 20.1°C | 2597ft (792m) | 12.67v | 31 |
| 2070 | 15 Apr 01:28:26 | 9 | 9.6 mph | 10 | SSW (210°) | 99612 | 101761 | 25°C | 74.2% | 20.1°C | 2606ft (794m) | 12.67v | 31 |
| 2069 | 15 Apr 01:28:15 | 8 | 9.6 mph | 12 | SSW (201°) | 99611 | 101760 | 25°C | 74.2% | 20.1°C | 2606ft (794m) | 12.67v | 31 |
| 2068 | 15 Apr 01:28:04 | 6 | 8.3 mph | 11 | SSW (210°) | 99612 | 101761 | 25°C | 74.3% | 20.1°C | 2597ft (792m) | 12.67v | 31 |
| 2067 | 15 Apr 01:27:53 | 5 | 5.5 mph | 7 | SW (216°) | 99617 | 101766 | 25°C | 74.3% | 20.1°C | 2597ft (792m) | 12.65v | 31 |
| 2066 | 15 Apr 01:27:41 | 8 | 8.4 mph | 10 | SSW (213°) | 99613 | 101762 | 24.9°C | 74.3% | 20°C | 2595ft (791m) | 12.67v | 31 |
| 2065 | 15 Apr 01:27:30 | 7 | 8.7 mph | 11 | SSW (207°) | 99612 | 101761 | 24.9°C | 74.3% | 20°C | 2595ft (791m) | 12.67v | 31 |
| 2064 | 15 Apr 01:27:19 | 7 | 7.9 mph | 9 | SSW (202°) | 99615 | 101764 | 24.9°C | 74.3% | 20°C | 2595ft (791m) | 12.68v | 31 |
| 2063 | 15 Apr 01:27:08 | 9 | 10 mph | 12 | SSW (212°) | 99613 | 101762 | 24.9°C | 74.4% | 20°C | 2586ft (788m) | 12.67v | 31 |
| 2062 | 15 Apr 01:26:56 | 8 | 8.8 mph | 12 | SSW (203°) | 99605 | 101753 | 24.9°C | 74.4% | 20°C | 2586ft (788m) | 12.66v | 31 |
| 2061 | 15 Apr 01:26:45 | 10 | 11.7 mph | 13 | SSW (208°) | 99619 | 101768 | 24.9°C | 74.2% | 20°C | 2604ft (794m) | 12.66v | 31 |
| 2060 | 15 Apr 01:26:34 | 10 | 11.1 mph | 13 | SSW (201°) | 99614 | 101763 | 24.9°C | 74.4% | 20°C | 2586ft (788m) | 12.67v | 31 |
| 2059 | 15 Apr 01:26:23 | 7 | 8.3 mph | 10 | SSW (211°) | 99612 | 101761 | 24.9°C | 74.4% | 20°C | 2586ft (788m) | 12.66v | 31 |
| 2058 | 15 Apr 01:26:11 | 8 | 9.4 mph | 11 | SSW (195°) | 99617 | 101766 | 24.9°C | 74.2% | 20°C | 2604ft (794m) | 12.67v | 31 |
| 2057 | 15 Apr 01:26:00 | 7 | 7.7 mph | 9 | SSW (205°) | 99618 | 101767 | 24.9°C | 74.4% | 20°C | 2586ft (788m) | 12.67v | 31 |
| 2056 | 15 Apr 01:25:49 | 7 | 9.5 mph | 11 | SW (223°) | 99618 | 101767 | 24.9°C | 74.3% | 20°C | 2595ft (791m) | 12.67v | 31 |
| 2055 | 15 Apr 01:25:38 | 6 | 7.8 mph | 10 | SSW (210°) | 99617 | 101766 | 24.9°C | 74.4% | 20°C | 2586ft (788m) | 12.68v | 31 |
| 2054 | 15 Apr 01:25:26 | 6 | 5.8 mph | 7 | SW (228°) | 99618 | 101767 | 24.9°C | 74.5% | 20.1°C | 2577ft (785m) | 12.67v | 31 |
| 2053 | 15 Apr 01:25:15 | 5 | 5.6 mph | 8 | SSW (199°) | 99616 | 101765 | 24.9°C | 74.5% | 20.1°C | 2577ft (785m) | 12.66v | 31 |
| 2052 | 15 Apr 01:25:04 | 5 | 7.5 mph | 9 | SSW (204°) | 99616 | 101765 | 24.9°C | 74.6% | 20.1°C | 2568ft (783m) | 12.66v | 31 |
| 2051 | 15 Apr 01:24:53 | 5 | 6.7 mph | 10 | WSW (247°) | 99617 | 101766 | 24.9°C | 74.5% | 20.1°C | 2577ft (785m) | 12.66v | 31 |
| 2050 | 15 Apr 01:24:41 | 10 | 11.4 mph | 13 | SSW (210°) | 99617 | 101766 | 24.9°C | 74.4% | 20°C | 2586ft (788m) | 12.66v | 31 |
| 2049 | 15 Apr 01:24:30 | 12 | 13.8 mph | 16 | SSW (202°) | 99617 | 101766 | 24.9°C | 74.4% | 20°C | 2586ft (788m) | 12.68v | 31 |
| 2048 | 15 Apr 01:24:19 | 10 | 10.2 mph | 12 | SSW (209°) | 99617 | 101766 | 24.9°C | 74.5% | 20.1°C | 2577ft (785m) | 12.67v | 31 |
| 2047 | 15 Apr 01:24:08 | 11 | 12.2 mph | 14 | SSW (204°) | 99605 | 101753 | 24.9°C | 74.3% | 20°C | 2595ft (791m) | 12.68v | 31 |
| 2046 | 15 Apr 01:23:56 | 6 | 10.9 mph | 15 | SSW (197°) | 99606 | 101755 | 24.9°C | 74.3% | 20°C | 2595ft (791m) | 12.67v | 31 |
| 2045 | 15 Apr 01:23:45 | 8 | 9.2 mph | 11 | SSW (201°) | 99615 | 101764 | 24.9°C | 74.2% | 20°C | 2604ft (794m) | 12.66v | 31 |
| 2044 | 15 Apr 01:23:34 | 8 | 9.6 mph | 11 | SSW (194°) | 99608 | 101757 | 24.9°C | 74.1% | 20°C | 2613ft (796m) | 12.66v | 31 |
| 2043 | 15 Apr 01:23:23 | 7 | 8.7 mph | 10 | SSW (205°) | 99616 | 101765 | 24.9°C | 74.1% | 20°C | 2613ft (796m) | 12.67v | 31 |
| 2042 | 15 Apr 01:23:11 | 8 | 8.8 mph | 10 | SSW (206°) | 99614 | 101763 | 24.9°C | 74.1% | 20°C | 2613ft (796m) | 12.67v | 31 |
| 2041 | 15 Apr 01:23:00 | 9 | 9.9 mph | 11 | SSW (207°) | 99617 | 101766 | 24.9°C | 74% | 19.9°C | 2622ft (799m) | 12.68v | 31 |
| 2040 | 15 Apr 01:22:49 | 7 | 8.2 mph | 9 | SSW (212°) | 99612 | 101761 | 24.9°C | 74% | 19.9°C | 2622ft (799m) | 12.67v | 31 |
| 2039 | 15 Apr 01:22:38 | 7 | 8 mph | 11 | SSW (196°) | 99617 | 101766 | 24.9°C | 74.1% | 20°C | 2613ft (796m) | 12.68v | 31 |
| 2038 | 15 Apr 01:22:26 | 6 | 7.6 mph | 9 | SSW (209°) | 99615 | 101764 | 24.9°C | 74.2% | 20°C | 2604ft (794m) | 12.68v | 31 |
| 2037 | 15 Apr 01:22:15 | 8 | 8.6 mph | 10 | SSW (203°) | 99615 | 101764 | 24.9°C | 74.2% | 20°C | 2604ft (794m) | 12.67v | 31 |
| 2036 | 15 Apr 01:22:04 | 8 | 9.1 mph | 11 | SSW (194°) | 99614 | 101763 | 24.9°C | 74.2% | 20°C | 2604ft (794m) | 12.67v | 31 |
| 2035 | 15 Apr 01:21:53 | 5 | 6.1 mph | 7 | SSW (211°) | 99613 | 101762 | 24.9°C | 74.3% | 20°C | 2595ft (791m) | 12.66v | 31 |
| 2034 | 15 Apr 01:21:41 | 6 | 7.9 mph | 9 | SSW (211°) | 99614 | 101763 | 24.9°C | 74.2% | 20°C | 2604ft (794m) | 12.66v | 31 |
| 2033 | 15 Apr 01:21:30 | 6 | 7.4 mph | 8 | SSW (205°) | 99614 | 101763 | 24.9°C | 74.3% | 20°C | 2595ft (791m) | 12.68v | 31 |
| 2032 | 15 Apr 01:21:19 | 7 | 7.6 mph | 8 | SSW (209°) | 99617 | 101766 | 24.9°C | 74.2% | 20°C | 2604ft (794m) | 12.67v | 31 |
| 2031 | 15 Apr 01:21:08 | 11 | 11.6 mph | 12 | SSW (203°) | 99614 | 101763 | 24.9°C | 74.2% | 20°C | 2604ft (794m) | 12.68v | 31 |
| 2030 | 15 Apr 01:20:56 | 7 | 8.9 mph | 11 | SSW (207°) | 99618 | 101767 | 24.9°C | 74% | 19.9°C | 2622ft (799m) | 12.67v | 31 |
| 2029 | 15 Apr 01:20:45 | 9 | 10.1 mph | 11 | SSW (204°) | 99616 | 101765 | 24.9°C | 74.1% | 20°C | 2613ft (796m) | 12.67v | 31 |
| 2028 | 15 Apr 01:20:34 | 9 | 10 mph | 11 | SSW (201°) | 99616 | 101765 | 24.9°C | 74% | 19.9°C | 2622ft (799m) | 12.66v | 31 |
| 2027 | 15 Apr 01:20:23 | 6 | 8.2 mph | 10 | SSW (209°) | 99613 | 101762 | 24.9°C | 74.1% | 20°C | 2613ft (796m) | 12.68v | 31 |
| 2026 | 15 Apr 01:20:11 | 7 | 7.7 mph | 10 | SSW (206°) | 99616 | 101765 | 24.9°C | 74.2% | 20°C | 2604ft (794m) | 12.65v | 31 |
| 2025 | 15 Apr 01:20:00 | 11 | 11.3 mph | 13 | SSW (205°) | 99613 | 101762 | 24.9°C | 74.1% | 20°C | 2613ft (796m) | 12.67v | 31 |
| 2024 | 15 Apr 01:19:49 | 8 | 9.1 mph | 13 | SSW (204°) | 99607 | 101756 | 24.9°C | 74.1% | 20°C | 2613ft (796m) | 12.66v | 31 |
| 2023 | 15 Apr 01:19:38 | 9 | 10.5 mph | 12 | SSW (205°) | 99617 | 101766 | 24.9°C | 74.2% | 20°C | 2604ft (794m) | 12.67v | 31 |
| 2022 | 15 Apr 01:19:26 | 10 | 12.2 mph | 15 | SSW (205°) | 99615 | 101764 | 24.9°C | 74.1% | 20°C | 2613ft (796m) | 12.67v | 31 |
| 2021 | 15 Apr 01:19:15 | 9 | 11.7 mph | 14 | S (190°) | 99609 | 101758 | 24.9°C | 74% | 19.9°C | 2622ft (799m) | 12.68v | 31 |
| 2020 | 15 Apr 01:19:04 | 9 | 8.9 mph | 10 | SSW (196°) | 99617 | 101766 | 24.9°C | 74.1% | 20°C | 2613ft (796m) | 12.67v | 31 |
| 2019 | 15 Apr 01:18:53 | 7 | 7.9 mph | 10 | SSW (202°) | 99618 | 101767 | 24.9°C | 74.1% | 20°C | 2613ft (796m) | 12.67v | 31 |
| 2018 | 15 Apr 01:18:41 | 6 | 7.1 mph | 9 | SSW (207°) | 99615 | 101764 | 24.9°C | 74.2% | 20°C | 2604ft (794m) | 12.66v | 31 |
| 2017 | 15 Apr 01:18:30 | 7 | 7.5 mph | 10 | SSW (207°) | 99619 | 101768 | 24.9°C | 74.2% | 20°C | 2604ft (794m) | 12.68v | 31 |
| 2016 | 15 Apr 01:18:19 | 6 | 6.7 mph | 8 | SSW (212°) | 99619 | 101768 | 24.9°C | 74.2% | 20°C | 2604ft (794m) | 12.68v | 31 |
| 2015 | 15 Apr 01:18:08 | 6 | 6.7 mph | 7 | SSW (211°) | 99619 | 101768 | 24.9°C | 74.2% | 20°C | 2604ft (794m) | 12.67v | 31 |
| 2014 | 15 Apr 01:17:56 | 5 | 6.4 mph | 8 | SW (215°) | 99622 | 101771 | 24.9°C | 74.1% | 20°C | 2613ft (796m) | 12.67v | 31 |
| 2013 | 15 Apr 01:17:45 | 7 | 7.3 mph | 9 | SSW (207°) | 99621 | 101770 | 24.9°C | 74.1% | 20°C | 2613ft (796m) | 12.68v | 31 |
| 2012 | 15 Apr 01:17:34 | 6 | 6.7 mph | 7 | SSW (204°) | 99619 | 101768 | 24.9°C | 74.1% | 20°C | 2613ft (796m) | 12.67v | 31 |
| 2011 | 15 Apr 01:17:23 | 7 | 7.8 mph | 9 | SSW (208°) | 99619 | 101768 | 24.9°C | 74.1% | 20°C | 2613ft (796m) | 12.67v | 31 |
| 2010 | 15 Apr 01:17:11 | 8 | 8.8 mph | 10 | SSW (200°) | 99621 | 101770 | 24.9°C | 74.1% | 20°C | 2613ft (796m) | 12.66v | 31 |
| 2009 | 15 Apr 01:17:00 | 9 | 9.3 mph | 10 | SW (215°) | 99618 | 101767 | 24.9°C | 74.1% | 20°C | 2613ft (796m) | 12.68v | 31 |
| 2008 | 15 Apr 01:16:49 | 7 | 7.8 mph | 9 | SW (221°) | 99622 | 101771 | 24.9°C | 74.2% | 20°C | 2604ft (794m) | 12.69v | 31 |
| 2007 | 15 Apr 01:16:38 | 7 | 8.8 mph | 11 | SSW (206°) | 99620 | 101769 | 24.9°C | 74% | 19.9°C | 2622ft (799m) | 12.68v | 31 |
| 2006 | 15 Apr 01:16:26 | 10 | 10.9 mph | 12 | SSW (204°) | 99617 | 101766 | 24.9°C | 74.1% | 20°C | 2613ft (796m) | 12.67v | 31 |
| 2005 | 15 Apr 01:16:15 | 6 | 7.8 mph | 11 | SSW (203°) | 99620 | 101769 | 24.9°C | 74.2% | 20°C | 2604ft (794m) | 12.66v | 31 |
| 2004 | 15 Apr 01:16:04 | 7 | 7.9 mph | 10 | SW (219°) | 99622 | 101771 | 24.9°C | 74.2% | 20°C | 2604ft (794m) | 12.67v | 31 |
| 2003 | 15 Apr 01:15:53 | 7 | 8.7 mph | 10 | SW (216°) | 99622 | 101771 | 24.9°C | 74.1% | 20°C | 2613ft (796m) | 12.67v | 31 |
| 2002 | 15 Apr 01:15:41 | 10 | 11.5 mph | 13 | SSW (203°) | 99617 | 101766 | 24.9°C | 73.9% | 19.9°C | 2631ft (802m) | 12.67v | 31 |
| 2001 | 15 Apr 01:15:30 | 10 | 11 mph | 13 | SSW (199°) | 99619 | 101768 | 24.9°C | 73.9% | 19.9°C | 2631ft (802m) | 12.67v | 31 |
| 2000 | 15 Apr 01:15:19 | 8 | 9.2 mph | 13 | SW (214°) | 99622 | 101771 | 24.9°C | 74.1% | 20°C | 2613ft (796m) | 12.69v | 31 |
| 1999 | 15 Apr 01:15:08 | 10 | 10.6 mph | 12 | SSW (206°) | 99622 | 101771 | 24.9°C | 73.9% | 19.9°C | 2631ft (802m) | 12.68v | 31 |
| 1998 | 15 Apr 01:14:56 | 9 | 9.5 mph | 10 | SSW (211°) | 99621 | 101770 | 24.9°C | 74% | 19.9°C | 2622ft (799m) | 12.68v | 31 |
| 1997 | 15 Apr 01:14:45 | 7 | 8.8 mph | 11 | SSW (201°) | 99617 | 101766 | 24.9°C | 74% | 19.9°C | 2622ft (799m) | 12.67v | 31 |
| 1996 | 15 Apr 01:14:34 | 8 | 9.8 mph | 14 | SSW (209°) | 99621 | 101770 | 24.9°C | 74% | 19.9°C | 2622ft (799m) | 12.67v | 31 |
| 1995 | 15 Apr 01:14:23 | 11 | 12.1 mph | 14 | SSW (200°) | 99614 | 101763 | 24.9°C | 73.8% | 19.9°C | 2640ft (805m) | 12.67v | 31 |
| 1994 | 15 Apr 01:14:11 | 8 | 8.9 mph | 10 | SSW (205°) | 99624 | 101773 | 24.9°C | 74% | 19.9°C | 2622ft (799m) | 12.67v | 31 |
| 1993 | 15 Apr 01:14:00 | 7 | 8.5 mph | 10 | SSW (202°) | 99618 | 101767 | 24.9°C | 73.9% | 19.9°C | 2631ft (802m) | 12.66v | 31 |
| 1992 | 15 Apr 01:13:49 | 8 | 9.8 mph | 12 | SSW (205°) | 99622 | 101771 | 24.9°C | 73.8% | 19.9°C | 2640ft (805m) | 12.7v | 31 |
| 1991 | 15 Apr 01:13:38 | 7 | 7.7 mph | 9 | SW (214°) | 99621 | 101770 | 24.9°C | 74% | 19.9°C | 2622ft (799m) | 12.67v | 31 |
| 1990 | 15 Apr 01:13:26 | 7 | 7.9 mph | 9 | SSW (198°) | 99619 | 101768 | 24.9°C | 74% | 19.9°C | 2622ft (799m) | 12.68v | 31 |
| 1989 | 15 Apr 01:13:15 | 7 | 8.1 mph | 10 | SSW (201°) | 99617 | 101766 | 24.9°C | 73.9% | 19.9°C | 2631ft (802m) | 12.68v | 31 |
| 1988 | 15 Apr 01:13:04 | 7 | 8.3 mph | 10 | SSW (204°) | 99620 | 101769 | 24.9°C | 74% | 19.9°C | 2622ft (799m) | 12.67v | 31 |
| 1987 | 15 Apr 01:12:53 | 7 | 8.8 mph | 10 | SSW (213°) | 99622 | 101771 | 24.9°C | 74% | 19.9°C | 2622ft (799m) | 12.67v | 31 |
| 1986 | 15 Apr 01:12:41 | 7 | 7.4 mph | 8 | SSW (205°) | 99621 | 101770 | 24.9°C | 74.1% | 20°C | 2613ft (796m) | 12.66v | 31 |
| 1985 | 15 Apr 01:12:30 | 7 | 7.9 mph | 9 | SSW (210°) | 99617 | 101766 | 24.9°C | 74% | 19.9°C | 2622ft (799m) | 12.66v | 31 |
| 1984 | 15 Apr 01:12:19 | 8 | 9.7 mph | 12 | SSW (209°) | 99618 | 101767 | 24.9°C | 73.9% | 19.9°C | 2631ft (802m) | 12.68v | 31 |
| 1983 | 15 Apr 01:12:08 | 11 | 11.8 mph | 12 | SSW (206°) | 99613 | 101762 | 24.9°C | 73.7% | 19.9°C | 2649ft (807m) | 12.67v | 31 |
| 1982 | 15 Apr 01:11:56 | 8 | 9.1 mph | 11 | SSW (202°) | 99623 | 101772 | 24.9°C | 73.8% | 19.9°C | 2640ft (805m) | 12.67v | 31 |
| 1981 | 15 Apr 01:11:45 | 7 | 8.3 mph | 10 | SW (217°) | 99618 | 101767 | 24.9°C | 73.7% | 19.9°C | 2649ft (807m) | 12.66v | 31 |
| 1980 | 15 Apr 01:11:34 | 6 | 7.9 mph | 10 | SSW (209°) | 99619 | 101768 | 24.9°C | 73.8% | 19.9°C | 2640ft (805m) | 12.68v | 31 |
| 1979 | 15 Apr 01:11:23 | 6 | 6.9 mph | 9 | SSW (210°) | 99623 | 101772 | 24.9°C | 73.9% | 19.9°C | 2631ft (802m) | 12.67v | 31 |
| 1978 | 15 Apr 01:11:11 | 9 | 9.6 mph | 11 | SW (214°) | 99619 | 101768 | 24.9°C | 73.7% | 19.9°C | 2649ft (807m) | 12.67v | 31 |
| 1977 | 15 Apr 01:11:00 | 7 | 10.3 mph | 14 | SSW (198°) | 99622 | 101771 | 24.9°C | 73.7% | 19.9°C | 2649ft (807m) | 12.67v | 31 |
| 1976 | 15 Apr 01:10:49 | 11 | 11.8 mph | 13 | SSW (202°) | 99611 | 101760 | 24.9°C | 73.6% | 19.9°C | 2658ft (810m) | 12.68v | 31 |
| 1975 | 15 Apr 01:10:38 | 7 | 8.9 mph | 10 | SSW (204°) | 99622 | 101771 | 24.9°C | 73.7% | 19.9°C | 2649ft (807m) | 12.69v | 31 |
| 1974 | 15 Apr 01:10:26 | 6 | 7 mph | 9 | SSW (211°) | 99618 | 101767 | 24.9°C | 73.8% | 19.9°C | 2640ft (805m) | 12.67v | 31 |
| 1973 | 15 Apr 01:10:15 | 9 | 9.6 mph | 11 | S (191°) | 99617 | 101766 | 24.9°C | 73.7% | 19.9°C | 2649ft (807m) | 12.67v | 31 |
| 1972 | 15 Apr 01:10:04 | 6 | 7.2 mph | 8 | SSW (201°) | 99621 | 101770 | 24.9°C | 73.7% | 19.9°C | 2649ft (807m) | 12.66v | 31 |
| 1971 | 15 Apr 01:09:53 | 5 | 5.8 mph | 7 | SSW (204°) | 99620 | 101769 | 24.9°C | 73.9% | 19.9°C | 2631ft (802m) | 12.67v | 31 |
| 1970 | 15 Apr 01:09:41 | 8 | 8.6 mph | 11 | SSW (204°) | 99623 | 101772 | 24.9°C | 73.8% | 19.9°C | 2640ft (805m) | 12.67v | 31 |
| 1969 | 15 Apr 01:09:30 | 9 | 9.4 mph | 10 | SSW (203°) | 99620 | 101769 | 25°C | 73.8% | 20°C | 2641ft (805m) | 12.66v | 31 |
| 1968 | 15 Apr 01:09:19 | 8 | 9.8 mph | 11 | SSW (204°) | 99623 | 101772 | 25°C | 73.6% | 20°C | 2659ft (810m) | 12.66v | 31 |
| 1967 | 15 Apr 01:09:08 | 6 | 7.9 mph | 10 | SSW (196°) | 99626 | 101775 | 25°C | 73.7% | 20°C | 2650ft (808m) | 12.68v | 31 |
| 1966 | 15 Apr 01:08:56 | 8 | 8.8 mph | 10 | SSW (210°) | 99622 | 101771 | 25°C | 73.7% | 20°C | 2650ft (808m) | 12.67v | 31 |
| 1965 | 15 Apr 01:08:45 | 8 | 9 mph | 12 | SSW (204°) | 99624 | 101773 | 25°C | 73.7% | 20°C | 2650ft (808m) | 12.68v | 31 |
| 1964 | 15 Apr 01:08:34 | 8 | 9 mph | 11 | SSW (201°) | 99618 | 101767 | 25°C | 73.5% | 19.9°C | 2668ft (813m) | 12.68v | 31 |
| 1963 | 15 Apr 01:08:23 | 7 | 8.7 mph | 10 | SSW (201°) | 99621 | 101770 | 25°C | 73.5% | 19.9°C | 2668ft (813m) | 12.68v | 31 |
| 1962 | 15 Apr 01:08:11 | 6 | 7.6 mph | 8 | SSW (213°) | 99625 | 101774 | 25°C | 73.6% | 20°C | 2659ft (810m) | 12.66v | 31 |
| 1961 | 15 Apr 01:08:00 | 8 | 8.5 mph | 9 | SSW (202°) | 99619 | 101768 | 25°C | 73.7% | 20°C | 2650ft (808m) | 12.67v | 31 |
| 1960 | 15 Apr 01:07:49 | 6 | 6.8 mph | 7 | SW (214°) | 99623 | 101772 | 25°C | 73.7% | 20°C | 2650ft (808m) | 12.67v | 31 |
| 1959 | 15 Apr 01:07:38 | 7 | 8.5 mph | 10 | SSW (200°) | 99625 | 101774 | 25°C | 73.8% | 20°C | 2641ft (805m) | 12.69v | 31 |
| 1958 | 15 Apr 01:07:26 | 7 | 7.3 mph | 10 | SSW (211°) | 99624 | 101773 | 24.9°C | 73.8% | 19.9°C | 2640ft (805m) | 12.67v | 31 |
| 1957 | 15 Apr 01:07:15 | 8 | 9 mph | 11 | SSW (212°) | 99624 | 101773 | 24.9°C | 73.6% | 19.9°C | 2658ft (810m) | 12.67v | 31 |
| 1956 | 15 Apr 01:07:04 | 7 | 9.7 mph | 12 | SSW (211°) | 99623 | 101772 | 25°C | 73.6% | 20°C | 2659ft (810m) | 12.67v | 31 |
| 1955 | 15 Apr 01:06:53 | 8 | 9.3 mph | 10 | SSW (209°) | 99623 | 101772 | 25°C | 73.7% | 20°C | 2650ft (808m) | 12.67v | 31 |
| 1954 | 15 Apr 01:06:41 | 8 | 9 mph | 11 | SSW (211°) | 99623 | 101772 | 24.9°C | 73.7% | 19.9°C | 2649ft (807m) | 12.67v | 31 |
| 1953 | 15 Apr 01:06:30 | 3 | 4.3 mph | 6 | SW (222°) | 99628 | 101777 | 24.9°C | 73.9% | 19.9°C | 2631ft (802m) | 12.67v | 31 |
| 1952 | 15 Apr 01:06:19 | 6 | 6.5 mph | 7 | SW (214°) | 99623 | 101772 | 25°C | 73.8% | 20°C | 2641ft (805m) | 12.66v | 31 |
| 1951 | 15 Apr 01:06:08 | 6 | 6.8 mph | 7 | SW (222°) | 99624 | 101773 | 25°C | 73.8% | 20°C | 2641ft (805m) | 12.68v | 31 |
| 1950 | 15 Apr 01:05:56 | 6 | 6.6 mph | 7 | SW (216°) | 99626 | 101775 | 25°C | 73.7% | 20°C | 2650ft (808m) | 12.68v | 31 |
| 1949 | 15 Apr 01:05:45 | 6 | 7.3 mph | 9 | SW (216°) | 99626 | 101775 | 25°C | 73.7% | 20°C | 2650ft (808m) | 12.67v | 31 |
| 1948 | 15 Apr 01:05:34 | 8 | 8.1 mph | 9 | SW (220°) | 99626 | 101775 | 25°C | 73.7% | 20°C | 2650ft (808m) | 12.68v | 31 |
| 1947 | 15 Apr 01:05:23 | 6 | 7.6 mph | 9 | SW (216°) | 99629 | 101778 | 25°C | 73.9% | 20°C | 2632ft (802m) | 12.67v | 31 |
| 1946 | 15 Apr 01:05:11 | 6 | 7.2 mph | 8 | SSW (209°) | 99628 | 101777 | 24.9°C | 73.8% | 19.9°C | 2640ft (805m) | 12.67v | 31 |
| 1945 | 15 Apr 01:05:00 | 7 | 8.4 mph | 9 | SSW (203°) | 99630 | 101779 | 24.9°C | 73.8% | 19.9°C | 2640ft (805m) | 12.67v | 31 |
| 1944 | 15 Apr 01:04:49 | 7 | 8.4 mph | 10 | SW (215°) | 99629 | 101778 | 24.9°C | 73.8% | 19.9°C | 2640ft (805m) | 12.68v | 31 |
| 1943 | 15 Apr 01:04:38 | 6 | 7.3 mph | 10 | SW (231°) | 99626 | 101775 | 24.9°C | 73.6% | 19.9°C | 2658ft (810m) | 12.68v | 31 |
| 1942 | 15 Apr 01:04:26 | 11 | 12.1 mph | 13 | SW (219°) | 99631 | 101780 | 24.9°C | 73.6% | 19.9°C | 2658ft (810m) | 12.67v | 31 |
| 1941 | 15 Apr 01:04:15 | 10 | 10.4 mph | 11 | SSW (212°) | 99633 | 101782 | 25°C | 73.6% | 20°C | 2659ft (810m) | 12.67v | 31 |
| 1940 | 15 Apr 01:04:04 | 10 | 11.9 mph | 14 | SW (217°) | 99631 | 101780 | 25°C | 73.6% | 20°C | 2659ft (810m) | 12.68v | 31 |
| 1939 | 15 Apr 01:03:53 | 9 | 9.7 mph | 11 | SSW (202°) | 99632 | 101781 | 25°C | 73.7% | 20°C | 2650ft (808m) | 12.67v | 31 |
| 1938 | 15 Apr 01:03:41 | 8 | 8.9 mph | 10 | SW (222°) | 99633 | 101782 | 25°C | 73.6% | 20°C | 2659ft (810m) | 12.66v | 31 |
| 1937 | 15 Apr 01:03:30 | 7 | 8.4 mph | 10 | SSW (205°) | 99632 | 101781 | 24.9°C | 73.7% | 19.9°C | 2649ft (807m) | 12.67v | 31 |
| 1936 | 15 Apr 01:03:19 | 8 | 11.2 mph | 14 | SSW (202°) | 99635 | 101784 | 25°C | 73.6% | 20°C | 2659ft (810m) | 12.68v | 31 |
| 1935 | 15 Apr 01:03:08 | 13 | 14.8 mph | 17 | SW (215°) | 99632 | 101781 | 25°C | 73.3% | 19.9°C | 2686ft (819m) | 12.68v | 31 |
| 1934 | 15 Apr 01:02:56 | 7 | 7.9 mph | 10 | SSW (211°) | 99635 | 101784 | 25°C | 73.5% | 19.9°C | 2668ft (813m) | 12.68v | 31 |
| 1933 | 15 Apr 01:02:45 | 9 | 10.1 mph | 12 | SW (219°) | 99628 | 101777 | 25°C | 73.4% | 19.9°C | 2677ft (816m) | 12.67v | 31 |
| 1932 | 15 Apr 01:02:34 | 8 | 8.9 mph | 11 | SSW (211°) | 99633 | 101782 | 25°C | 73.5% | 19.9°C | 2668ft (813m) | 12.68v | 31 |
| 1931 | 15 Apr 01:02:23 | 9 | 8.9 mph | 9 | SSW (208°) | 99633 | 101782 | 25°C | 73.5% | 19.9°C | 2668ft (813m) | 12.68v | 31 |
| 1930 | 15 Apr 01:02:11 | 7 | 7.5 mph | 8 | SSW (211°) | 99634 | 101783 | 25°C | 73.6% | 20°C | 2659ft (810m) | 12.67v | 31 |
| 1929 | 15 Apr 01:02:00 | 5 | 5.8 mph | 7 | SW (214°) | 99636 | 101785 | 25°C | 73.6% | 20°C | 2659ft (810m) | 12.68v | 31 |
| 1928 | 15 Apr 01:01:49 | 7 | 8.3 mph | 10 | SSW (210°) | 99634 | 101783 | 25°C | 73.6% | 20°C | 2659ft (810m) | 12.66v | 31 |
| 1927 | 15 Apr 01:01:38 | 7 | 7.6 mph | 9 | SSW (211°) | 99636 | 101785 | 25°C | 73.4% | 19.9°C | 2677ft (816m) | 12.67v | 31 |
| 1926 | 15 Apr 01:01:26 | 5 | 5.9 mph | 7 | SW (214°) | 99635 | 101784 | 25°C | 73.5% | 19.9°C | 2668ft (813m) | 12.69v | 31 |
| 1925 | 15 Apr 01:01:15 | 7 | 7.1 mph | 8 | SSW (211°) | 99636 | 101785 | 25°C | 73.6% | 20°C | 2659ft (810m) | 12.68v | 31 |
| 1924 | 15 Apr 01:01:04 | 7 | 7.3 mph | 9 | SSW (208°) | 99630 | 101779 | 25°C | 73.6% | 20°C | 2659ft (810m) | 12.69v | 31 |
| 1923 | 15 Apr 01:00:53 | 6 | 7.5 mph | 9 | SSW (213°) | 99637 | 101786 | 25°C | 73.7% | 20°C | 2650ft (808m) | 12.68v | 31 |
| 1922 | 15 Apr 01:00:41 | 6 | 6.3 mph | 8 | SW (222°) | 99636 | 101785 | 25°C | 73.6% | 20°C | 2659ft (810m) | 12.67v | 31 |
| 1921 | 15 Apr 01:00:30 | 7 | 7.7 mph | 9 | SSW (211°) | 99638 | 101787 | 25°C | 73.6% | 20°C | 2659ft (810m) | 12.67v | 31 |
| 1920 | 15 Apr 01:00:19 | 6 | 6.8 mph | 9 | SSW (213°) | 99638 | 101787 | 25°C | 73.6% | 20°C | 2659ft (810m) | 12.67v | 31 |
| 1919 | 15 Apr 01:00:08 | 5 | 6.3 mph | 7 | SW (218°) | 99639 | 101788 | 25°C | 73.6% | 20°C | 2659ft (810m) | 12.67v | 31 |
| 1918 | 15 Apr 00:59:56 | 7 | 8.2 mph | 10 | SW (214°) | 99636 | 101785 | 25°C | 73.5% | 19.9°C | 2668ft (813m) | 12.68v | 31 |
| 1917 | 15 Apr 00:59:45 | 5 | 6.4 mph | 9 | SSW (210°) | 99640 | 101789 | 25°C | 73.5% | 19.9°C | 2668ft (813m) | 12.68v | 31 |
| 1916 | 15 Apr 00:59:34 | 6 | 6.8 mph | 8 | SSW (206°) | 99641 | 101790 | 25°C | 73.6% | 20°C | 2659ft (810m) | 12.67v | 31 |
| 1915 | 15 Apr 00:59:23 | 7 | 8.1 mph | 10 | SW (221°) | 99640 | 101789 | 25°C | 73.5% | 19.9°C | 2668ft (813m) | 12.69v | 31 |
| 1914 | 15 Apr 00:59:11 | 9 | 9.5 mph | 10 | SSW (208°) | 99640 | 101789 | 25°C | 73.6% | 20°C | 2659ft (810m) | 12.67v | 31 |
| 1913 | 15 Apr 00:59:00 | 9 | 9.8 mph | 12 | SSW (209°) | 99641 | 101790 | 25°C | 73.5% | 19.9°C | 2668ft (813m) | 12.67v | 31 |
| 1912 | 15 Apr 00:58:49 | 9 | 9 mph | 10 | SSW (213°) | 99642 | 101791 | 25°C | 73.6% | 20°C | 2659ft (810m) | 12.68v | 31 |
| 1911 | 15 Apr 00:58:38 | 9 | 9.6 mph | 11 | SSW (207°) | 99641 | 101790 | 25°C | 73.4% | 19.9°C | 2677ft (816m) | 12.68v | 31 |
| 1910 | 15 Apr 00:58:26 | 9 | 9.3 mph | 10 | SSW (204°) | 99639 | 101788 | 25°C | 73.3% | 19.9°C | 2686ft (819m) | 12.69v | 31 |
| 1909 | 15 Apr 00:58:15 | 7 | 7.4 mph | 8 | SSW (208°) | 99640 | 101789 | 25°C | 73.5% | 19.9°C | 2668ft (813m) | 12.68v | 31 |
| 1908 | 15 Apr 00:58:04 | 9 | 10.1 mph | 12 | SW (222°) | 99640 | 101789 | 25°C | 73.4% | 19.9°C | 2677ft (816m) | 12.68v | 31 |
| 1907 | 15 Apr 00:57:53 | 9 | 9.5 mph | 11 | SSW (212°) | 99642 | 101791 | 25°C | 73.4% | 19.9°C | 2677ft (816m) | 12.67v | 31 |
| 1906 | 15 Apr 00:57:41 | 6 | 7.2 mph | 10 | SSW (207°) | 99643 | 101792 | 25°C | 73.5% | 19.9°C | 2668ft (813m) | 12.67v | 31 |
| 1905 | 15 Apr 00:57:30 | 9 | 9.1 mph | 10 | SSW (206°) | 99641 | 101790 | 25°C | 73.5% | 19.9°C | 2668ft (813m) | 12.66v | 31 |
| 1904 | 15 Apr 00:57:19 | 8 | 9.8 mph | 11 | SSW (195°) | 99643 | 101792 | 25°C | 73.3% | 19.9°C | 2686ft (819m) | 12.68v | 31 |
| 1903 | 15 Apr 00:57:08 | 8 | 8 mph | 9 | SSW (200°) | 99647 | 101796 | 25°C | 73.5% | 19.9°C | 2668ft (813m) | 12.67v | 31 |
| 1902 | 15 Apr 00:56:56 | 6 | 8.2 mph | 10 | SSW (207°) | 99644 | 101793 | 25°C | 73.4% | 19.9°C | 2677ft (816m) | 12.7v | 31 |
| 1901 | 15 Apr 00:56:45 | 7 | 7.4 mph | 8 | SSW (210°) | 99642 | 101791 | 25°C | 73.5% | 19.9°C | 2668ft (813m) | 12.69v | 31 |
| 1900 | 15 Apr 00:56:34 | 8 | 9.1 mph | 11 | SSW (207°) | 99643 | 101792 | 25°C | 73.6% | 20°C | 2659ft (810m) | 12.67v | 31 |
| 1899 | 15 Apr 00:56:23 | 5 | 6 mph | 7 | SSW (204°) | 99649 | 101798 | 25°C | 73.6% | 20°C | 2659ft (810m) | 12.68v | 31 |
| 1898 | 15 Apr 00:56:11 | 8 | 8.9 mph | 11 | SSW (209°) | 99644 | 101793 | 25°C | 73.4% | 19.9°C | 2677ft (816m) | 12.67v | 31 |
| 1897 | 15 Apr 00:56:00 | 10 | 10.6 mph | 12 | SSW (204°) | 99642 | 101791 | 25°C | 73.3% | 19.9°C | 2686ft (819m) | 12.68v | 31 |
| 1896 | 15 Apr 00:55:49 | 9 | 9.7 mph | 11 | SSW (202°) | 99642 | 101791 | 25°C | 73.4% | 19.9°C | 2677ft (816m) | 12.67v | 31 |
| 1895 | 15 Apr 00:55:38 | 6 | 6.8 mph | 8 | SSW (208°) | 99638 | 101787 | 25°C | 73.4% | 19.9°C | 2677ft (816m) | 12.67v | 31 |
| 1894 | 15 Apr 00:55:26 | 5 | 6.4 mph | 9 | SW (218°) | 99645 | 101794 | 25°C | 73.4% | 19.9°C | 2677ft (816m) | 12.67v | 31 |
| 1893 | 15 Apr 00:55:15 | 7 | 8.1 mph | 9 | SSW (196°) | 99645 | 101794 | 25°C | 73.4% | 19.9°C | 2677ft (816m) | 12.68v | 31 |
| 1892 | 15 Apr 00:55:04 | 5 | 6.3 mph | 7 | SSW (204°) | 99645 | 101794 | 25°C | 73.5% | 19.9°C | 2668ft (813m) | 12.68v | 31 |
| 1891 | 15 Apr 00:54:53 | 5 | 5.7 mph | 7 | SSW (207°) | 99645 | 101794 | 25°C | 73.4% | 19.9°C | 2677ft (816m) | 12.68v | 31 |
| 1890 | 15 Apr 00:54:41 | 6 | 6.6 mph | 7 | SSW (209°) | 99645 | 101794 | 25°C | 73.5% | 19.9°C | 2668ft (813m) | 12.67v | 31 |
| 1889 | 15 Apr 00:54:30 | 7 | 7.6 mph | 9 | SSW (206°) | 99646 | 101795 | 25°C | 73.3% | 19.9°C | 2686ft (819m) | 12.67v | 31 |
| 1888 | 15 Apr 00:54:19 | 7 | 8.3 mph | 10 | SSW (207°) | 99643 | 101792 | 25°C | 73.4% | 19.9°C | 2677ft (816m) | 12.67v | 31 |
| 1887 | 15 Apr 00:54:08 | 8 | 9.7 mph | 11 | SSW (194°) | 99646 | 101795 | 25°C | 73.3% | 19.9°C | 2686ft (819m) | 12.68v | 31 |
| 1886 | 15 Apr 00:53:56 | 6 | 8.2 mph | 12 | SSW (203°) | 99644 | 101793 | 25°C | 73.3% | 19.9°C | 2686ft (819m) | 12.68v | 31 |
| 1885 | 15 Apr 00:53:45 | 8 | 8.5 mph | 10 | SSW (204°) | 99644 | 101793 | 25°C | 73.4% | 19.9°C | 2677ft (816m) | 12.68v | 31 |
| 1884 | 15 Apr 00:53:34 | 8 | 9.6 mph | 11 | SSW (195°) | 99643 | 101792 | 25°C | 73.3% | 19.9°C | 2686ft (819m) | 12.68v | 31 |
| 1883 | 15 Apr 00:53:23 | 7 | 8.6 mph | 10 | SSW (204°) | 99645 | 101794 | 25°C | 73.3% | 19.9°C | 2686ft (819m) | 12.68v | 31 |
| 1882 | 15 Apr 00:53:11 | 7 | 8.4 mph | 11 | SSW (205°) | 99645 | 101794 | 25°C | 73.4% | 19.9°C | 2677ft (816m) | 12.69v | 31 |
| 1881 | 15 Apr 00:53:00 | 6 | 7.1 mph | 8 | SSW (207°) | 99643 | 101792 | 25°C | 73.6% | 20°C | 2659ft (810m) | 12.68v | 31 |
| 1880 | 15 Apr 00:52:49 | 4 | 5.5 mph | 9 | SSW (203°) | 99641 | 101790 | 25°C | 73.7% | 20°C | 2650ft (808m) | 12.68v | 31 |
| 1879 | 15 Apr 00:52:38 | 4 | 5.3 mph | 8 | SSW (211°) | 99644 | 101793 | 25°C | 73.6% | 20°C | 2659ft (810m) | 12.69v | 31 |
| 1878 | 15 Apr 00:52:26 | 7 | 7.5 mph | 8 | SW (219°) | 99643 | 101792 | 25°C | 73.4% | 19.9°C | 2677ft (816m) | 12.67v | 31 |
| 1877 | 15 Apr 00:52:15 | 7 | 7.6 mph | 9 | SW (217°) | 99642 | 101791 | 25°C | 73.6% | 20°C | 2659ft (810m) | 12.69v | 31 |
| 1876 | 15 Apr 00:52:04 | 6 | 7.2 mph | 9 | SW (218°) | 99641 | 101790 | 25°C | 73.5% | 19.9°C | 2668ft (813m) | 12.68v | 31 |
| 1875 | 15 Apr 00:51:53 | 9 | 9.4 mph | 11 | SSW (200°) | 99639 | 101788 | 25°C | 73.5% | 19.9°C | 2668ft (813m) | 12.68v | 31 |
| 1874 | 15 Apr 00:51:41 | 7 | 8.2 mph | 10 | SSW (206°) | 99642 | 101791 | 25°C | 73.3% | 19.9°C | 2686ft (819m) | 12.68v | 31 |
| 1873 | 15 Apr 00:51:30 | 7 | 9.3 mph | 12 | SSW (213°) | 99643 | 101792 | 25°C | 73.4% | 19.9°C | 2677ft (816m) | 12.67v | 31 |
| 1872 | 15 Apr 00:51:19 | 5 | 7.4 mph | 12 | SW (214°) | 99645 | 101794 | 25°C | 73.3% | 19.9°C | 2686ft (819m) | 12.67v | 31 |
| 1871 | 15 Apr 00:51:08 | 7 | 8 mph | 11 | SSW (202°) | 99644 | 101793 | 25°C | 73.3% | 19.9°C | 2686ft (819m) | 12.68v | 31 |
| 1870 | 15 Apr 00:50:56 | 6 | 6.8 mph | 8 | SSW (207°) | 99643 | 101792 | 25°C | 73.4% | 19.9°C | 2677ft (816m) | 12.69v | 31 |
| 1869 | 15 Apr 00:50:45 | 8 | 8.3 mph | 9 | SSW (200°) | 99645 | 101794 | 25°C | 73.3% | 19.9°C | 2686ft (819m) | 12.69v | 31 |
| 1868 | 15 Apr 00:50:34 | 5 | 6.1 mph | 7 | SSW (201°) | 99645 | 101794 | 25.1°C | 73.4% | 20°C | 2679ft (817m) | 12.69v | 31 |
| 1867 | 15 Apr 00:50:23 | 5 | 6.4 mph | 9 | SSW (206°) | 99647 | 101796 | 25.1°C | 73.4% | 20°C | 2679ft (817m) | 12.7v | 31 |
| 1866 | 15 Apr 00:50:11 | 5 | 6.9 mph | 9 | SSW (199°) | 99645 | 101794 | 25.1°C | 73.3% | 20°C | 2688ft (819m) | 12.68v | 31 |
| 1865 | 15 Apr 00:50:00 | 7 | 8.1 mph | 11 | SSW (209°) | 99647 | 101796 | 25.1°C | 73.3% | 20°C | 2688ft (819m) | 12.67v | 31 |
| 1864 | 15 Apr 00:49:49 | 5 | 6.5 mph | 8 | SSW (212°) | 99648 | 101797 | 25°C | 73.3% | 19.9°C | 2686ft (819m) | 12.67v | 31 |
| 1863 | 15 Apr 00:49:38 | 7 | 9.3 mph | 11 | SSW (202°) | 99644 | 101793 | 25.1°C | 73.2% | 20°C | 2697ft (822m) | 12.68v | 31 |
| 1862 | 15 Apr 00:49:26 | 6 | 8.5 mph | 10 | SSW (209°) | 99647 | 101796 | 25.1°C | 73.2% | 20°C | 2697ft (822m) | 12.66v | 31 |
| 1861 | 15 Apr 00:49:15 | 7 | 8.7 mph | 11 | SSW (203°) | 99648 | 101797 | 25°C | 73.3% | 19.9°C | 2686ft (819m) | 12.68v | 31 |
| 1860 | 15 Apr 00:49:04 | 5 | 6.3 mph | 7 | SSW (205°) | 99647 | 101796 | 25°C | 73.3% | 19.9°C | 2686ft (819m) | 12.68v | 31 |
| 1859 | 15 Apr 00:48:53 | 7 | 8.3 mph | 10 | SSW (205°) | 99646 | 101795 | 25°C | 73.2% | 19.9°C | 2695ft (821m) | 12.68v | 31 |
| 1858 | 15 Apr 00:48:41 | 5 | 7.9 mph | 10 | SW (217°) | 99644 | 101793 | 25°C | 73.4% | 19.9°C | 2677ft (816m) | 12.68v | 31 |
| 1857 | 15 Apr 00:48:30 | 6 | 6.3 mph | 7 | SSW (207°) | 99647 | 101796 | 25°C | 73.4% | 19.9°C | 2677ft (816m) | 12.68v | 31 |
| 1856 | 15 Apr 00:48:19 | 6 | 7.7 mph | 10 | SSW (201°) | 99648 | 101797 | 25°C | 73.3% | 19.9°C | 2686ft (819m) | 12.68v | 31 |
| 1855 | 15 Apr 00:48:08 | 7 | 6.8 mph | 7 | SSW (209°) | 99646 | 101795 | 25°C | 73.3% | 19.9°C | 2686ft (819m) | 12.67v | 31 |
| 1854 | 15 Apr 00:47:56 | 5 | 7 mph | 8 | SW (216°) | 99648 | 101797 | 25°C | 73.4% | 19.9°C | 2677ft (816m) | 12.69v | 31 |
| 1853 | 15 Apr 00:47:45 | 5 | 5.6 mph | 6 | SW (219°) | 99649 | 101798 | 25°C | 73.5% | 19.9°C | 2668ft (813m) | 12.69v | 31 |
| 1852 | 15 Apr 00:47:34 | 6 | 6.4 mph | 8 | SSW (201°) | 99648 | 101797 | 25°C | 73.5% | 19.9°C | 2668ft (813m) | 12.69v | 31 |
| 1851 | 15 Apr 00:47:23 | 5 | 5.7 mph | 6 | SW (225°) | 99649 | 101798 | 25°C | 73.5% | 19.9°C | 2668ft (813m) | 12.68v | 31 |
| 1850 | 15 Apr 00:47:11 | 5 | 5.6 mph | 7 | SW (214°) | 99651 | 101800 | 25°C | 73.4% | 19.9°C | 2677ft (816m) | 12.68v | 31 |
| 1849 | 15 Apr 00:47:00 | 6 | 6.5 mph | 7 | SW (216°) | 99652 | 101802 | 25°C | 73.4% | 19.9°C | 2677ft (816m) | 12.68v | 31 |
| 1848 | 15 Apr 00:46:49 | 7 | 8.3 mph | 10 | SSW (205°) | 99648 | 101797 | 25°C | 73.2% | 19.9°C | 2695ft (821m) | 12.67v | 31 |
| 1847 | 15 Apr 00:46:38 | 8 | 8.9 mph | 10 | SSW (213°) | 99652 | 101802 | 25°C | 73.1% | 19.8°C | 2704ft (824m) | 12.68v | 31 |
| 1846 | 15 Apr 00:46:26 | 9 | 8.5 mph | 9 | SSW (207°) | 99649 | 101798 | 25°C | 73.4% | 19.9°C | 2677ft (816m) | 12.66v | 31 |
| 1845 | 15 Apr 00:46:15 | 5 | 6 mph | 7 | SW (214°) | 99651 | 101800 | 25°C | 73.4% | 19.9°C | 2677ft (816m) | 12.69v | 31 |
| 1844 | 15 Apr 00:46:04 | 6 | 8.3 mph | 10 | SSW (212°) | 99655 | 101805 | 25°C | 73.3% | 19.9°C | 2686ft (819m) | 12.68v | 31 |
| 1843 | 15 Apr 00:45:53 | 6 | 6 mph | 7 | SW (220°) | 99653 | 101803 | 25°C | 73.4% | 19.9°C | 2677ft (816m) | 12.69v | 31 |
| 1842 | 15 Apr 00:45:41 | 5 | 5.7 mph | 7 | SW (219°) | 99651 | 101800 | 25°C | 73.4% | 19.9°C | 2677ft (816m) | 12.68v | 31 |
| 1841 | 15 Apr 00:45:30 | 6 | 6.9 mph | 9 | SSW (208°) | 99654 | 101804 | 25°C | 73.4% | 19.9°C | 2677ft (816m) | 12.69v | 31 |
| 1840 | 15 Apr 00:45:19 | 7 | 8.4 mph | 10 | SSW (206°) | 99652 | 101802 | 25°C | 73.3% | 19.9°C | 2686ft (819m) | 12.68v | 31 |
| 1839 | 15 Apr 00:45:08 | 7 | 8.1 mph | 10 | SW (214°) | 99658 | 101808 | 25°C | 73.5% | 19.9°C | 2668ft (813m) | 12.67v | 31 |
| 1838 | 15 Apr 00:44:56 | 5 | 7.1 mph | 9 | SSW (212°) | 99657 | 101807 | 25°C | 73.5% | 19.9°C | 2668ft (813m) | 12.69v | 31 |
| 1837 | 15 Apr 00:44:45 | 9 | 8.9 mph | 11 | SSW (212°) | 99655 | 101805 | 25°C | 73.4% | 19.9°C | 2677ft (816m) | 12.68v | 31 |
| 1836 | 15 Apr 00:44:34 | 7 | 7.3 mph | 9 | SW (216°) | 99654 | 101804 | 25°C | 73.6% | 20°C | 2659ft (810m) | 12.68v | 31 |
| 1835 | 15 Apr 00:44:23 | 7 | 7.3 mph | 8 | SW (219°) | 99654 | 101804 | 25°C | 73.6% | 20°C | 2659ft (810m) | 12.68v | 31 |
| 1834 | 15 Apr 00:44:11 | 6 | 7 mph | 8 | SW (214°) | 99656 | 101806 | 25°C | 73.5% | 19.9°C | 2668ft (813m) | 12.68v | 31 |
| 1833 | 15 Apr 00:44:00 | 5 | 5.7 mph | 6 | SSW (209°) | 99656 | 101806 | 25°C | 73.5% | 19.9°C | 2668ft (813m) | 12.68v | 31 |
| 1832 | 15 Apr 00:43:49 | 5 | 6.1 mph | 8 | SW (219°) | 99659 | 101809 | 25°C | 73.4% | 19.9°C | 2677ft (816m) | 12.68v | 31 |
| 1831 | 15 Apr 00:43:38 | 6 | 7.3 mph | 9 | SSW (194°) | 99654 | 101804 | 25°C | 73.4% | 19.9°C | 2677ft (816m) | 12.67v | 31 |
| 1830 | 15 Apr 00:43:26 | 6 | 6 mph | 7 | SSW (210°) | 99658 | 101808 | 25°C | 73.4% | 19.9°C | 2677ft (816m) | 12.66v | 31 |
| 1829 | 15 Apr 00:43:15 | 7 | 7.3 mph | 8 | SSW (209°) | 99656 | 101806 | 25°C | 73.4% | 19.9°C | 2677ft (816m) | 12.68v | 31 |
| 1828 | 15 Apr 00:43:04 | 7 | 7.9 mph | 9 | SSW (204°) | 99659 | 101809 | 25°C | 73.4% | 19.9°C | 2677ft (816m) | 12.69v | 31 |
| 1827 | 15 Apr 00:42:53 | 7 | 8.3 mph | 10 | SSW (202°) | 99658 | 101808 | 25°C | 73.4% | 19.9°C | 2677ft (816m) | 12.68v | 31 |
| 1826 | 15 Apr 00:42:41 | 6 | 7.7 mph | 9 | SSW (197°) | 99653 | 101803 | 25°C | 73.2% | 19.9°C | 2695ft (821m) | 12.69v | 31 |
| 1825 | 15 Apr 00:42:30 | 7 | 8 mph | 10 | SSW (197°) | 99658 | 101808 | 25°C | 73.3% | 19.9°C | 2686ft (819m) | 12.67v | 31 |
| 1824 | 15 Apr 00:42:19 | 7 | 7.5 mph | 9 | SW (214°) | 99659 | 101809 | 25°C | 73.3% | 19.9°C | 2686ft (819m) | 12.68v | 31 |
| 1823 | 15 Apr 00:42:08 | 8 | 9.9 mph | 12 | SSW (198°) | 99656 | 101806 | 25°C | 73.2% | 19.9°C | 2695ft (821m) | 12.68v | 31 |
| 1822 | 15 Apr 00:41:56 | 8 | 9.4 mph | 12 | SSW (207°) | 99656 | 101806 | 25.1°C | 73.3% | 20°C | 2688ft (819m) | 12.68v | 31 |
| 1821 | 15 Apr 00:41:45 | 7 | 9.5 mph | 12 | SSW (203°) | 99661 | 101811 | 25°C | 73.3% | 19.9°C | 2686ft (819m) | 12.67v | 31 |
| 1820 | 15 Apr 00:41:34 | 9 | 9.1 mph | 10 | S (189°) | 99657 | 101807 | 25°C | 73.4% | 19.9°C | 2677ft (816m) | 12.68v | 31 |
| 1819 | 15 Apr 00:41:23 | 7 | 8.9 mph | 13 | SSW (196°) | 99659 | 101809 | 25°C | 73.3% | 19.9°C | 2686ft (819m) | 12.67v | 31 |
| 1818 | 15 Apr 00:41:11 | 6 | 7 mph | 9 | SSW (210°) | 99657 | 101807 | 25°C | 73.4% | 19.9°C | 2677ft (816m) | 12.69v | 31 |
| 1817 | 15 Apr 00:41:00 | 8 | 8.7 mph | 10 | SSW (207°) | 99658 | 101808 | 25°C | 73.3% | 19.9°C | 2686ft (819m) | 12.67v | 31 |
| 1816 | 15 Apr 00:40:49 | 7 | 8.7 mph | 10 | SSW (208°) | 99656 | 101806 | 25°C | 73.2% | 19.9°C | 2695ft (821m) | 12.69v | 31 |
| 1815 | 15 Apr 00:40:38 | 7 | 7.9 mph | 9 | SSW (204°) | 99655 | 101805 | 25°C | 73.3% | 19.9°C | 2686ft (819m) | 12.67v | 31 |
| 1814 | 15 Apr 00:40:26 | 6 | 6.6 mph | 7 | SSW (197°) | 99660 | 101810 | 25°C | 73.2% | 19.9°C | 2695ft (821m) | 12.67v | 31 |
| 1813 | 15 Apr 00:40:15 | 6 | 6.9 mph | 8 | SW (220°) | 99655 | 101805 | 25°C | 73.3% | 19.9°C | 2686ft (819m) | 12.69v | 31 |
| 1812 | 15 Apr 00:40:04 | 4 | 6.1 mph | 8 | SW (220°) | 99657 | 101807 | 25°C | 73.4% | 19.9°C | 2677ft (816m) | 12.68v | 31 |
| 1811 | 15 Apr 00:39:53 | 5 | 7 mph | 10 | SSW (208°) | 99660 | 101810 | 25°C | 73.5% | 19.9°C | 2668ft (813m) | 12.69v | 31 |
| 1810 | 15 Apr 00:39:41 | 5 | 6 mph | 7 | SSW (200°) | 99657 | 101807 | 25°C | 73.5% | 19.9°C | 2668ft (813m) | 12.69v | 31 |
| 1809 | 15 Apr 00:39:30 | 5 | 6.1 mph | 7 | SW (215°) | 99656 | 101806 | 25°C | 73.6% | 20°C | 2659ft (810m) | 12.68v | 31 |
| 1808 | 15 Apr 00:39:19 | 6 | 7 mph | 8 | SW (223°) | 99655 | 101805 | 25°C | 73.4% | 19.9°C | 2677ft (816m) | 12.68v | 31 |
| 1807 | 15 Apr 00:39:08 | 7 | 7.8 mph | 9 | SSW (204°) | 99654 | 101804 | 25°C | 73.3% | 19.9°C | 2686ft (819m) | 12.66v | 31 |
| 1806 | 15 Apr 00:38:56 | 7 | 8.7 mph | 10 | SSW (202°) | 99656 | 101806 | 25°C | 73.3% | 19.9°C | 2686ft (819m) | 12.67v | 31 |
| 1805 | 15 Apr 00:38:45 | 5 | 6.9 mph | 9 | SW (216°) | 99657 | 101807 | 25°C | 73.4% | 19.9°C | 2677ft (816m) | 12.67v | 31 |
| 1804 | 15 Apr 00:38:34 | 7 | 8.4 mph | 10 | SSW (213°) | 99657 | 101807 | 25°C | 73.5% | 19.9°C | 2668ft (813m) | 12.68v | 31 |
| 1803 | 15 Apr 00:38:23 | 7 | 8.1 mph | 9 | SSW (208°) | 99653 | 101803 | 25°C | 73.5% | 19.9°C | 2668ft (813m) | 12.68v | 31 |
| 1802 | 15 Apr 00:38:11 | 7 | 7.7 mph | 9 | SSW (203°) | 99655 | 101805 | 25°C | 73.5% | 19.9°C | 2668ft (813m) | 12.69v | 31 |
| 1801 | 15 Apr 00:38:00 | 6 | 8 mph | 10 | SSW (210°) | 99659 | 101809 | 25°C | 73.5% | 19.9°C | 2668ft (813m) | 12.68v | 31 |
| 1800 | 15 Apr 00:37:49 | 6 | 6.6 mph | 8 | SSW (209°) | 99656 | 101806 | 25°C | 73.6% | 20°C | 2659ft (810m) | 12.68v | 31 |
| 1799 | 15 Apr 00:37:38 | 9 | 9.2 mph | 10 | SW (218°) | 99652 | 101802 | 25°C | 73.4% | 19.9°C | 2677ft (816m) | 12.68v | 31 |
| 1798 | 15 Apr 00:37:26 | 8 | 8.9 mph | 10 | SW (218°) | 99658 | 101808 | 25°C | 73.4% | 19.9°C | 2677ft (816m) | 12.67v | 31 |
| 1797 | 15 Apr 00:37:15 | 6 | 6.8 mph | 9 | SSW (207°) | 99655 | 101805 | 25°C | 73.5% | 19.9°C | 2668ft (813m) | 12.68v | 31 |
| 1796 | 15 Apr 00:37:04 | 7 | 7.3 mph | 8 | SW (219°) | 99655 | 101805 | 25°C | 73.4% | 19.9°C | 2677ft (816m) | 12.68v | 31 |
| 1795 | 15 Apr 00:36:53 | 6 | 6.5 mph | 7 | SW (214°) | 99656 | 101806 | 25°C | 73.5% | 19.9°C | 2668ft (813m) | 12.69v | 31 |
| 1794 | 15 Apr 00:36:41 | 6 | 7 mph | 9 | SW (217°) | 99657 | 101807 | 25°C | 73.5% | 19.9°C | 2668ft (813m) | 12.68v | 31 |
| 1793 | 15 Apr 00:36:30 | 9 | 10.2 mph | 13 | SW (226°) | 99657 | 101807 | 25°C | 73.4% | 19.9°C | 2677ft (816m) | 12.68v | 31 |
| 1792 | 15 Apr 00:36:19 | 6 | 7.7 mph | 9 | SW (223°) | 99659 | 101809 | 25°C | 73.3% | 19.9°C | 2686ft (819m) | 12.7v | 31 |
| 1791 | 15 Apr 00:36:08 | 7 | 7.6 mph | 8 | SSW (205°) | 99660 | 101810 | 25°C | 73.4% | 19.9°C | 2677ft (816m) | 12.68v | 31 |
| 1790 | 15 Apr 00:35:56 | 7 | 7.1 mph | 8 | SSW (213°) | 99661 | 101811 | 25°C | 73.5% | 19.9°C | 2668ft (813m) | 12.68v | 31 |
| 1789 | 15 Apr 00:35:45 | 5 | 5.9 mph | 7 | SW (215°) | 99658 | 101808 | 25°C | 73.5% | 19.9°C | 2668ft (813m) | 12.66v | 31 |
| 1788 | 15 Apr 00:35:34 | 6 | 7.1 mph | 8 | SW (215°) | 99658 | 101808 | 25°C | 73.4% | 19.9°C | 2677ft (816m) | 12.69v | 31 |
| 1787 | 15 Apr 00:35:23 | 6 | 7.9 mph | 10 | SSW (200°) | 99657 | 101807 | 25°C | 73.5% | 19.9°C | 2668ft (813m) | 12.69v | 31 |
| 1786 | 15 Apr 00:35:11 | 8 | 9.3 mph | 11 | SSW (203°) | 99656 | 101806 | 25°C | 73.3% | 19.9°C | 2686ft (819m) | 12.69v | 31 |
| 1785 | 15 Apr 00:35:00 | 8 | 8.5 mph | 10 | SSW (209°) | 99654 | 101804 | 25°C | 73.5% | 19.9°C | 2668ft (813m) | 12.69v | 31 |
| 1784 | 15 Apr 00:34:49 | 9 | 9.5 mph | 11 | SSW (202°) | 99660 | 101810 | 25°C | 73.3% | 19.9°C | 2686ft (819m) | 12.68v | 31 |
| 1783 | 15 Apr 00:34:38 | 8 | 9.7 mph | 12 | SSW (211°) | 99660 | 101810 | 25°C | 73.4% | 19.9°C | 2677ft (816m) | 12.68v | 31 |
| 1782 | 15 Apr 00:34:26 | 7 | 8.2 mph | 9 | SSW (203°) | 99661 | 101811 | 25°C | 73.4% | 19.9°C | 2677ft (816m) | 12.68v | 31 |
| 1781 | 15 Apr 00:34:15 | 6 | 6.7 mph | 8 | SW (215°) | 99660 | 101810 | 25°C | 73.5% | 19.9°C | 2668ft (813m) | 12.67v | 31 |
| 1780 | 15 Apr 00:34:04 | 7 | 7.4 mph | 8 | SW (223°) | 99660 | 101810 | 25°C | 73.6% | 20°C | 2659ft (810m) | 12.69v | 31 |
| 1779 | 15 Apr 00:33:53 | 8 | 8.6 mph | 9 | SW (214°) | 99659 | 101809 | 25°C | 73.6% | 20°C | 2659ft (810m) | 12.68v | 31 |
| 1778 | 15 Apr 00:33:41 | 6 | 7.3 mph | 10 | SSW (197°) | 99662 | 101812 | 25°C | 73.7% | 20°C | 2650ft (808m) | 12.68v | 31 |
| 1777 | 15 Apr 00:33:30 | 10 | 11.4 mph | 14 | SSW (208°) | 99661 | 101811 | 25°C | 73.4% | 19.9°C | 2677ft (816m) | 12.69v | 31 |
| 1776 | 15 Apr 00:33:19 | 7 | 8.7 mph | 11 | SSW (208°) | 99661 | 101811 | 25°C | 73.5% | 19.9°C | 2668ft (813m) | 12.69v | 31 |
| 1775 | 15 Apr 00:33:08 | 7 | 11.2 mph | 14 | SW (214°) | 99660 | 101810 | 25°C | 73.4% | 19.9°C | 2677ft (816m) | 12.68v | 31 |
| 1774 | 15 Apr 00:32:56 | 7 | 8.4 mph | 11 | SSW (210°) | 99659 | 101809 | 25°C | 73.4% | 19.9°C | 2677ft (816m) | 12.66v | 31 |
| 1773 | 15 Apr 00:32:45 | 7 | 9.1 mph | 11 | SSW (207°) | 99659 | 101809 | 25°C | 73.4% | 19.9°C | 2677ft (816m) | 12.68v | 31 |
| 1772 | 15 Apr 00:32:34 | 9 | 9.5 mph | 11 | SSW (203°) | 99654 | 101804 | 25°C | 73.6% | 20°C | 2659ft (810m) | 12.68v | 31 |
| 1771 | 15 Apr 00:32:23 | 7 | 9.9 mph | 14 | SSW (210°) | 99662 | 101812 | 25°C | 73.4% | 19.9°C | 2677ft (816m) | 12.68v | 31 |
| 1770 | 15 Apr 00:32:11 | 5 | 5.7 mph | 7 | SSW (203°) | 99663 | 101813 | 25°C | 73.5% | 19.9°C | 2668ft (813m) | 12.69v | 31 |
| 1769 | 15 Apr 00:32:00 | 7 | 9.1 mph | 12 | SSW (209°) | 99664 | 101814 | 25°C | 73.5% | 19.9°C | 2668ft (813m) | 12.68v | 31 |
| 1768 | 15 Apr 00:31:49 | 8 | 10 mph | 12 | SSW (204°) | 99663 | 101813 | 25°C | 73.4% | 19.9°C | 2677ft (816m) | 12.69v | 31 |
| 1767 | 15 Apr 00:31:38 | 6 | 7.5 mph | 10 | SSW (203°) | 99664 | 101814 | 25°C | 73.5% | 19.9°C | 2668ft (813m) | 12.68v | 31 |
| 1766 | 15 Apr 00:31:26 | 7 | 8 mph | 10 | SSW (208°) | 99663 | 101813 | 25°C | 73.5% | 19.9°C | 2668ft (813m) | 12.68v | 31 |
| 1765 | 15 Apr 00:31:15 | 7 | 8.4 mph | 10 | SSW (210°) | 99665 | 101815 | 25°C | 73.5% | 19.9°C | 2668ft (813m) | 12.67v | 31 |
| 1764 | 15 Apr 00:31:04 | 6 | 6.8 mph | 9 | SW (214°) | 99665 | 101815 | 25°C | 73.5% | 19.9°C | 2668ft (813m) | 12.68v | 31 |
| 1763 | 15 Apr 00:30:53 | 6 | 6.8 mph | 9 | SSW (203°) | 99663 | 101813 | 25°C | 73.4% | 19.9°C | 2677ft (816m) | 12.68v | 31 |
| 1762 | 15 Apr 00:30:41 | 5 | 6.2 mph | 8 | SW (215°) | 99664 | 101814 | 25°C | 73.5% | 19.9°C | 2668ft (813m) | 12.68v | 31 |
| 1761 | 15 Apr 00:30:30 | 7 | 7.3 mph | 8 | SSW (211°) | 99664 | 101814 | 25°C | 73.5% | 19.9°C | 2668ft (813m) | 12.69v | 31 |
| 1760 | 15 Apr 00:30:19 | 7 | 7.8 mph | 9 | SW (214°) | 99668 | 101818 | 25°C | 73.5% | 19.9°C | 2668ft (813m) | 12.68v | 31 |
| 1759 | 15 Apr 00:30:08 | 7 | 8.7 mph | 12 | SSW (207°) | 99667 | 101817 | 25°C | 73.4% | 19.9°C | 2677ft (816m) | 12.68v | 31 |
| 1758 | 15 Apr 00:29:56 | 9 | 9.5 mph | 13 | SSW (212°) | 99665 | 101815 | 25°C | 73.4% | 19.9°C | 2677ft (816m) | 12.68v | 31 |
| 1757 | 15 Apr 00:29:45 | 7 | 7.8 mph | 10 | SSW (205°) | 99668 | 101818 | 25°C | 73.3% | 19.9°C | 2686ft (819m) | 12.66v | 31 |
| 1756 | 15 Apr 00:29:34 | 8 | 8.9 mph | 11 | SSW (207°) | 99667 | 101817 | 25°C | 73.1% | 19.8°C | 2704ft (824m) | 12.68v | 31 |
| 1755 | 15 Apr 00:29:23 | 7 | 8.7 mph | 10 | SSW (202°) | 99665 | 101815 | 25°C | 73.3% | 19.9°C | 2686ft (819m) | 12.69v | 31 |
| 1754 | 15 Apr 00:29:11 | 8 | 8.9 mph | 10 | SSW (212°) | 99665 | 101815 | 25°C | 73.3% | 19.9°C | 2686ft (819m) | 12.68v | 31 |
| 1753 | 15 Apr 00:29:00 | 10 | 11 mph | 13 | SSW (209°) | 99668 | 101818 | 25°C | 73.3% | 19.9°C | 2686ft (819m) | 12.69v | 31 |
| 1752 | 15 Apr 00:28:49 | 6 | 9.5 mph | 12 | SSW (205°) | 99669 | 101819 | 25°C | 73.2% | 19.9°C | 2695ft (821m) | 12.68v | 31 |
| 1751 | 15 Apr 00:28:38 | 5 | 6.3 mph | 8 | SSW (210°) | 99669 | 101819 | 25°C | 73.4% | 19.9°C | 2677ft (816m) | 12.68v | 31 |
| 1750 | 15 Apr 00:28:26 | 4 | 5.8 mph | 10 | SSW (194°) | 99670 | 101820 | 25°C | 73.5% | 19.9°C | 2668ft (813m) | 12.67v | 31 |
| 1749 | 15 Apr 00:28:15 | 5 | 6.4 mph | 9 | SW (230°) | 99670 | 101820 | 25°C | 73.4% | 19.9°C | 2677ft (816m) | 12.68v | 31 |
| 1748 | 15 Apr 00:28:04 | 8 | 8.6 mph | 11 | SW (216°) | 99668 | 101818 | 25°C | 73.1% | 19.8°C | 2704ft (824m) | 12.68v | 31 |
| 1747 | 15 Apr 00:27:53 | 7 | 7.4 mph | 9 | SSW (211°) | 99670 | 101820 | 25°C | 73.4% | 19.9°C | 2677ft (816m) | 12.67v | 31 |
| 1746 | 15 Apr 00:27:41 | 5 | 7.3 mph | 9 | SSW (209°) | 99665 | 101815 | 25°C | 73.4% | 19.9°C | 2677ft (816m) | 12.69v | 31 |
| 1745 | 15 Apr 00:27:30 | 5 | 7.1 mph | 10 | SSW (193°) | 99668 | 101818 | 25°C | 73.4% | 19.9°C | 2677ft (816m) | 12.69v | 31 |
| 1744 | 15 Apr 00:27:19 | 6 | 7.9 mph | 10 | SSW (201°) | 99665 | 101815 | 25°C | 73.4% | 19.9°C | 2677ft (816m) | 12.68v | 31 |
| 1743 | 15 Apr 00:27:08 | 9 | 8.9 mph | 10 | SSW (213°) | 99670 | 101820 | 25°C | 73.3% | 19.9°C | 2686ft (819m) | 12.68v | 31 |
| 1742 | 15 Apr 00:26:56 | 9 | 8.9 mph | 10 | SSW (198°) | 99670 | 101820 | 25°C | 73.3% | 19.9°C | 2686ft (819m) | 12.67v | 31 |
| 1741 | 15 Apr 00:26:45 | 7 | 8.6 mph | 10 | SSW (207°) | 99669 | 101819 | 25°C | 73.3% | 19.9°C | 2686ft (819m) | 12.68v | 31 |
| 1740 | 15 Apr 00:26:34 | 8 | 9.2 mph | 11 | SSW (204°) | 99671 | 101821 | 25°C | 73.2% | 19.9°C | 2695ft (821m) | 12.67v | 31 |
| 1739 | 15 Apr 00:26:23 | 9 | 9.8 mph | 11 | SW (216°) | 99668 | 101818 | 25°C | 73.3% | 19.9°C | 2686ft (819m) | 12.68v | 31 |
| 1738 | 15 Apr 00:26:11 | 8 | 9.9 mph | 11 | SSW (198°) | 99667 | 101817 | 25°C | 73.3% | 19.9°C | 2686ft (819m) | 12.69v | 31 |
| 1737 | 15 Apr 00:26:00 | 8 | 8.8 mph | 12 | SW (216°) | 99673 | 101823 | 25°C | 73.4% | 19.9°C | 2677ft (816m) | 12.68v | 31 |
| 1736 | 15 Apr 00:25:49 | 9 | 9.3 mph | 10 | SW (214°) | 99668 | 101818 | 25°C | 73.4% | 19.9°C | 2677ft (816m) | 12.67v | 31 |
| 1735 | 15 Apr 00:25:38 | 7 | 9.2 mph | 12 | SW (219°) | 99666 | 101816 | 25°C | 73.3% | 19.9°C | 2686ft (819m) | 12.69v | 31 |
| 1734 | 15 Apr 00:25:26 | 7 | 8.4 mph | 10 | SSW (206°) | 99667 | 101817 | 25°C | 73.4% | 19.9°C | 2677ft (816m) | 12.69v | 31 |
| 1733 | 15 Apr 00:25:15 | 9 | 11.6 mph | 14 | SSW (210°) | 99666 | 101816 | 25°C | 73.4% | 19.9°C | 2677ft (816m) | 12.68v | 31 |
| 1732 | 15 Apr 00:25:04 | 7 | 9.1 mph | 13 | SSW (199°) | 99666 | 101816 | 25°C | 73.5% | 19.9°C | 2668ft (813m) | 12.66v | 31 |
| 1731 | 15 Apr 00:24:53 | 8 | 9.5 mph | 12 | SSW (197°) | 99667 | 101817 | 25°C | 73.3% | 19.9°C | 2686ft (819m) | 12.68v | 31 |
| 1730 | 15 Apr 00:24:41 | 6 | 6.4 mph | 7 | SSW (213°) | 99667 | 101817 | 25°C | 73.4% | 19.9°C | 2677ft (816m) | 12.7v | 31 |
| 1729 | 15 Apr 00:24:30 | 6 | 8.1 mph | 10 | SSW (209°) | 99669 | 101819 | 25°C | 73.2% | 19.9°C | 2695ft (821m) | 12.69v | 31 |
| 1728 | 15 Apr 00:24:19 | 7 | 8.2 mph | 10 | SW (215°) | 99671 | 101821 | 25°C | 73.3% | 19.9°C | 2686ft (819m) | 12.68v | 31 |
| 1727 | 15 Apr 00:24:08 | 9 | 11 mph | 14 | SW (217°) | 99669 | 101819 | 25°C | 73.2% | 19.9°C | 2695ft (821m) | 12.7v | 31 |
| 1726 | 15 Apr 00:23:56 | 12 | 14.4 mph | 18 | SSW (202°) | 99662 | 101812 | 25°C | 73.1% | 19.8°C | 2704ft (824m) | 12.69v | 31 |
| 1725 | 15 Apr 00:23:45 | 7 | 10 mph | 14 | SSW (208°) | 99672 | 101822 | 25°C | 73.1% | 19.8°C | 2704ft (824m) | 12.68v | 31 |
| 1724 | 15 Apr 00:23:34 | 7 | 9.7 mph | 14 | SSW (212°) | 99673 | 101823 | 25°C | 73.1% | 19.8°C | 2704ft (824m) | 12.68v | 31 |
| 1723 | 15 Apr 00:23:23 | 8 | 11 mph | 13 | SSW (212°) | 99665 | 101815 | 25.1°C | 72.9% | 19.9°C | 2724ft (830m) | 12.68v | 31 |
| 1722 | 15 Apr 00:23:11 | 7 | 7.7 mph | 9 | SW (215°) | 99671 | 101821 | 25.1°C | 73.1% | 19.9°C | 2706ft (825m) | 12.7v | 31 |
| 1721 | 15 Apr 00:23:00 | 6 | 8.6 mph | 12 | SSW (211°) | 99673 | 101823 | 25.1°C | 72.9% | 19.9°C | 2724ft (830m) | 12.69v | 31 |
| 1720 | 15 Apr 00:22:49 | 8 | 8.5 mph | 10 | SW (214°) | 99675 | 101825 | 25°C | 72.9% | 19.8°C | 2723ft (830m) | 12.69v | 31 |
| 1719 | 15 Apr 00:22:38 | 8 | 8.7 mph | 10 | SSW (203°) | 99674 | 101824 | 25°C | 73% | 19.8°C | 2714ft (827m) | 12.69v | 31 |
| 1718 | 15 Apr 00:22:26 | 6 | 7.3 mph | 9 | SSW (212°) | 99677 | 101827 | 25.1°C | 73% | 19.9°C | 2715ft (828m) | 12.69v | 31 |
| 1717 | 15 Apr 00:22:15 | 6 | 7.5 mph | 9 | SW (217°) | 99677 | 101827 | 25.1°C | 72.9% | 19.9°C | 2724ft (830m) | 12.68v | 31 |
| 1716 | 15 Apr 00:22:04 | 8 | 8.8 mph | 10 | SSW (204°) | 99676 | 101826 | 25°C | 73% | 19.8°C | 2714ft (827m) | 12.68v | 31 |
| 1715 | 15 Apr 00:21:53 | 8 | 9.3 mph | 12 | SW (224°) | 99676 | 101826 | 25°C | 72.8% | 19.8°C | 2732ft (833m) | 12.68v | 31 |
| 1714 | 15 Apr 00:21:41 | 11 | 12.7 mph | 14 | SSW (211°) | 99673 | 101823 | 25.1°C | 72.8% | 19.9°C | 2733ft (833m) | 12.67v | 31 |
| 1713 | 15 Apr 00:21:30 | 12 | 12.8 mph | 15 | SSW (200°) | 99680 | 101830 | 25.1°C | 72.7% | 19.9°C | 2742ft (836m) | 12.69v | 31 |
| 1712 | 15 Apr 00:21:19 | 7 | 9.9 mph | 15 | SSW (207°) | 99674 | 101824 | 25.1°C | 72.7% | 19.9°C | 2742ft (836m) | 12.68v | 31 |
| 1711 | 15 Apr 00:21:08 | 6 | 7.6 mph | 10 | SSW (203°) | 99681 | 101831 | 25.1°C | 72.8% | 19.9°C | 2733ft (833m) | 12.68v | 31 |
| 1710 | 15 Apr 00:20:56 | 10 | 10.7 mph | 12 | SW (220°) | 99680 | 101830 | 25.1°C | 72.7% | 19.9°C | 2742ft (836m) | 12.7v | 31 |
| 1709 | 15 Apr 00:20:45 | 7 | 7.9 mph | 9 | SSW (209°) | 99684 | 101834 | 25.1°C | 72.6% | 19.8°C | 2751ft (839m) | 12.68v | 31 |
| 1708 | 15 Apr 00:20:34 | 5 | 6.5 mph | 9 | SSW (212°) | 99684 | 101834 | 25.1°C | 72.7% | 19.9°C | 2742ft (836m) | 12.69v | 31 |
| 1707 | 15 Apr 00:20:23 | 5 | 6.8 mph | 8 | SW (226°) | 99682 | 101832 | 25.1°C | 72.7% | 19.9°C | 2742ft (836m) | 12.67v | 31 |
| 1706 | 15 Apr 00:20:11 | 5 | 6.2 mph | 8 | SSW (210°) | 99688 | 101838 | 25.1°C | 72.7% | 19.9°C | 2742ft (836m) | 12.68v | 31 |
| 1705 | 15 Apr 00:20:00 | 8 | 10.2 mph | 12 | SW (220°) | 99686 | 101836 | 25.1°C | 72.7% | 19.9°C | 2742ft (836m) | 12.68v | 31 |
| 1704 | 15 Apr 00:19:49 | 5 | 6.6 mph | 9 | SW (220°) | 99685 | 101835 | 25.1°C | 72.7% | 19.9°C | 2742ft (836m) | 12.7v | 31 |
| 1703 | 15 Apr 00:19:38 | 5 | 6.7 mph | 9 | S (190°) | 99686 | 101836 | 25.1°C | 72.6% | 19.8°C | 2751ft (839m) | 12.69v | 31 |
| 1702 | 15 Apr 00:19:26 | 8 | 9.3 mph | 11 | S (188°) | 99686 | 101836 | 25.1°C | 72.8% | 19.9°C | 2733ft (833m) | 12.68v | 31 |
| 1701 | 15 Apr 00:19:15 | 8 | 9.1 mph | 10 | SSW (209°) | 99687 | 101837 | 25.1°C | 72.8% | 19.9°C | 2733ft (833m) | 12.69v | 31 |
| 1700 | 15 Apr 00:19:04 | 10 | 10.3 mph | 11 | SSW (205°) | 99686 | 101836 | 25.1°C | 72.6% | 19.8°C | 2751ft (839m) | 12.68v | 31 |
| 1699 | 15 Apr 00:18:53 | 8 | 9.1 mph | 11 | SSW (199°) | 99686 | 101836 | 25.1°C | 72.5% | 19.8°C | 2761ft (842m) | 12.69v | 31 |
| 1698 | 15 Apr 00:18:41 | 8 | 8.6 mph | 9 | SSW (211°) | 99684 | 101834 | 25.1°C | 72.8% | 19.9°C | 2733ft (833m) | 12.69v | 31 |
| 1697 | 15 Apr 00:18:30 | 7 | 9.3 mph | 13 | SSW (196°) | 99687 | 101837 | 25.1°C | 72.7% | 19.9°C | 2742ft (836m) | 12.7v | 31 |
| 1696 | 15 Apr 00:18:19 | 7 | 7.7 mph | 9 | SSW (206°) | 99689 | 101839 | 25.1°C | 72.9% | 19.9°C | 2724ft (830m) | 12.69v | 31 |
| 1695 | 15 Apr 00:18:08 | 6 | 7.5 mph | 9 | SSW (213°) | 99690 | 101840 | 25.1°C | 72.9% | 19.9°C | 2724ft (830m) | 12.69v | 31 |
| 1694 | 15 Apr 00:17:56 | 6 | 6.2 mph | 8 | SSW (204°) | 99690 | 101840 | 25.1°C | 72.8% | 19.9°C | 2733ft (833m) | 12.7v | 31 |
| 1693 | 15 Apr 00:17:45 | 6 | 7 mph | 9 | S (188°) | 99692 | 101842 | 25.1°C | 72.8% | 19.9°C | 2733ft (833m) | 12.69v | 31 |
| 1692 | 15 Apr 00:17:34 | 9 | 10.4 mph | 13 | SSW (203°) | 99691 | 101841 | 25.1°C | 72.7% | 19.9°C | 2742ft (836m) | 12.68v | 31 |
| 1691 | 15 Apr 00:17:23 | 6 | 8.2 mph | 12 | SSW (211°) | 99692 | 101842 | 25.1°C | 72.7% | 19.9°C | 2742ft (836m) | 12.68v | 31 |
| 1690 | 15 Apr 00:17:11 | 6 | 7.8 mph | 12 | SSW (207°) | 99693 | 101843 | 25.1°C | 72.6% | 19.8°C | 2751ft (839m) | 12.69v | 31 |
| 1689 | 15 Apr 00:17:00 | 7 | 9.2 mph | 12 | SSW (207°) | 99690 | 101840 | 25.1°C | 72.5% | 19.8°C | 2761ft (842m) | 12.7v | 31 |
| 1688 | 15 Apr 00:16:49 | 8 | 8.5 mph | 10 | SSW (210°) | 99692 | 101842 | 25.1°C | 72.6% | 19.8°C | 2751ft (839m) | 12.7v | 31 |
| 1687 | 15 Apr 00:16:38 | 8 | 10.4 mph | 12 | SSW (209°) | 99690 | 101840 | 25.1°C | 72.6% | 19.8°C | 2751ft (839m) | 12.69v | 31 |
| 1686 | 15 Apr 00:16:26 | 10 | 12 mph | 14 | SSW (198°) | 99692 | 101842 | 25.1°C | 72.4% | 19.8°C | 2770ft (844m) | 12.68v | 31 |
| 1685 | 15 Apr 00:16:15 | 9 | 10.8 mph | 13 | SSW (202°) | 99693 | 101843 | 25.1°C | 72.3% | 19.8°C | 2779ft (847m) | 12.71v | 31 |
| 1684 | 15 Apr 00:16:04 | 7 | 9 mph | 12 | SSW (204°) | 99696 | 101846 | 25.1°C | 72.4% | 19.8°C | 2770ft (844m) | 12.69v | 31 |
| 1683 | 15 Apr 00:15:53 | 8 | 8.5 mph | 10 | SSW (210°) | 99693 | 101843 | 25.1°C | 72.5% | 19.8°C | 2761ft (842m) | 12.68v | 31 |
| 1682 | 15 Apr 00:15:41 | 8 | 8.5 mph | 11 | SSW (198°) | 99694 | 101844 | 25.1°C | 72.4% | 19.8°C | 2770ft (844m) | 12.69v | 31 |
| 1681 | 15 Apr 00:15:30 | 6 | 10 mph | 12 | SSW (194°) | 99699 | 101850 | 25.1°C | 72.1% | 19.7°C | 2797ft (853m) | 12.68v | 31 |
| 1680 | 15 Apr 00:15:19 | 5 | 6.7 mph | 10 | SSW (208°) | 99695 | 101845 | 25.1°C | 72.4% | 19.8°C | 2770ft (844m) | 12.69v | 31 |
| 1679 | 15 Apr 00:15:08 | 6 | 8.1 mph | 10 | SSW (206°) | 99699 | 101850 | 25.1°C | 72.4% | 19.8°C | 2770ft (844m) | 12.69v | 31 |
| 1678 | 15 Apr 00:14:56 | 9 | 9.7 mph | 11 | SSW (210°) | 99698 | 101849 | 25.1°C | 72.4% | 19.8°C | 2770ft (844m) | 12.68v | 31 |
| 1677 | 15 Apr 00:14:45 | 8 | 8.8 mph | 10 | SW (215°) | 99699 | 101850 | 25.1°C | 72.3% | 19.8°C | 2779ft (847m) | 12.69v | 31 |
| 1676 | 15 Apr 00:14:34 | 7 | 8.3 mph | 9 | SSW (211°) | 99695 | 101845 | 25.1°C | 72.4% | 19.8°C | 2770ft (844m) | 12.69v | 31 |
| 1675 | 15 Apr 00:14:23 | 6 | 8.3 mph | 10 | SW (222°) | 99697 | 101847 | 25.1°C | 72.3% | 19.8°C | 2779ft (847m) | 12.68v | 31 |
| 1674 | 15 Apr 00:14:11 | 7 | 9.7 mph | 11 | SSW (203°) | 99699 | 101850 | 25.1°C | 72.5% | 19.8°C | 2761ft (842m) | 12.69v | 31 |
| 1673 | 15 Apr 00:14:00 | 5 | 6.2 mph | 9 | SSW (209°) | 99700 | 101851 | 25.1°C | 72.6% | 19.8°C | 2751ft (839m) | 12.69v | 31 |
| 1672 | 15 Apr 00:13:49 | 5 | 6.3 mph | 8 | SSW (205°) | 99702 | 101853 | 25.1°C | 72.5% | 19.8°C | 2761ft (842m) | 12.7v | 31 |
| 1671 | 15 Apr 00:13:38 | 6 | 8.5 mph | 10 | SSW (211°) | 99702 | 101853 | 25.1°C | 72.4% | 19.8°C | 2770ft (844m) | 12.69v | 31 |
| 1670 | 15 Apr 00:13:26 | 9 | 9.5 mph | 11 | SSW (205°) | 99693 | 101843 | 25.1°C | 72.2% | 19.7°C | 2788ft (850m) | 12.69v | 31 |
| 1669 | 15 Apr 00:13:15 | 9 | 9.7 mph | 11 | SW (217°) | 99700 | 101851 | 25.1°C | 72.2% | 19.7°C | 2788ft (850m) | 12.69v | 31 |
| 1668 | 15 Apr 00:13:04 | 3 | 5.9 mph | 10 | SSW (209°) | 99699 | 101850 | 25.1°C | 72.4% | 19.8°C | 2770ft (844m) | 12.68v | 31 |
| 1667 | 15 Apr 00:12:53 | 4 | 3.3 mph | 5 | SW (222°) | 99703 | 101854 | 25.1°C | 72.4% | 19.8°C | 2770ft (844m) | 12.68v | 31 |
| 1666 | 15 Apr 00:12:41 | 6 | 6.1 mph | 8 | SW (226°) | 99702 | 101853 | 25.1°C | 72.3% | 19.8°C | 2779ft (847m) | 12.68v | 31 |
| 1665 | 15 Apr 00:12:30 | 6 | 6.5 mph | 8 | SW (216°) | 99702 | 101853 | 25.1°C | 72.3% | 19.8°C | 2779ft (847m) | 12.69v | 31 |
| 1664 | 15 Apr 00:12:19 | 7 | 7.9 mph | 10 | SW (217°) | 99704 | 101855 | 25.1°C | 72.4% | 19.8°C | 2770ft (844m) | 12.72v | 31 |
| 1663 | 15 Apr 00:12:08 | 6 | 7.7 mph | 11 | SSW (213°) | 99702 | 101853 | 25.1°C | 72.4% | 19.8°C | 2770ft (844m) | 12.7v | 31 |
| 1662 | 15 Apr 00:11:56 | 6 | 7.9 mph | 10 | SSW (196°) | 99699 | 101850 | 25.1°C | 72.3% | 19.8°C | 2779ft (847m) | 12.69v | 31 |
| 1661 | 15 Apr 00:11:45 | 9 | 10.5 mph | 13 | SSW (212°) | 99706 | 101857 | 25.1°C | 72.3% | 19.8°C | 2779ft (847m) | 12.69v | 31 |
| 1660 | 15 Apr 00:11:34 | 7 | 7 mph | 8 | SW (217°) | 99699 | 101850 | 25.1°C | 72.4% | 19.8°C | 2770ft (844m) | 12.7v | 31 |
| 1659 | 15 Apr 00:11:23 | 8 | 9.4 mph | 11 | SSW (212°) | 99701 | 101852 | 25.1°C | 72.2% | 19.7°C | 2788ft (850m) | 12.68v | 31 |
| 1658 | 15 Apr 00:11:11 | 10 | 12.1 mph | 13 | SSW (193°) | 99699 | 101850 | 25.1°C | 72.2% | 19.7°C | 2788ft (850m) | 12.68v | 31 |
| 1657 | 15 Apr 00:11:00 | 11 | 11.8 mph | 13 | SSW (198°) | 99701 | 101852 | 25.1°C | 72.2% | 19.7°C | 2788ft (850m) | 12.68v | 31 |
| 1656 | 15 Apr 00:10:49 | 8 | 9.3 mph | 12 | SSW (199°) | 99700 | 101851 | 25.1°C | 72.3% | 19.8°C | 2779ft (847m) | 12.69v | 31 |
| 1655 | 15 Apr 00:10:38 | 11 | 12.4 mph | 14 | SW (215°) | 99704 | 101855 | 25.2°C | 71.9% | 19.8°C | 2817ft (859m) | 12.71v | 31 |
| 1654 | 15 Apr 00:10:26 | 9 | 11.4 mph | 14 | SSW (206°) | 99694 | 101844 | 25.2°C | 71.9% | 19.8°C | 2817ft (859m) | 12.69v | 31 |
| 1653 | 15 Apr 00:10:15 | 8 | 9.8 mph | 13 | SSW (206°) | 99705 | 101856 | 25.2°C | 71.9% | 19.8°C | 2817ft (859m) | 12.68v | 31 |
| 1652 | 15 Apr 00:10:04 | 6 | 6.8 mph | 8 | SSW (209°) | 99703 | 101854 | 25.2°C | 72% | 19.8°C | 2808ft (856m) | 12.68v | 31 |
| 1651 | 15 Apr 00:09:53 | 8 | 9.9 mph | 12 | SW (214°) | 99705 | 101856 | 25.2°C | 71.6% | 19.7°C | 2845ft (867m) | 12.69v | 31 |
| 1650 | 15 Apr 00:09:41 | 10 | 10.5 mph | 11 | SSW (203°) | 99706 | 101857 | 25.2°C | 71.6% | 19.7°C | 2845ft (867m) | 12.68v | 31 |
| 1649 | 15 Apr 00:09:30 | 7 | 6.8 mph | 8 | SSW (210°) | 99704 | 101855 | 25.3°C | 71.8% | 19.8°C | 2828ft (862m) | 12.68v | 31 |
| 1648 | 15 Apr 00:09:19 | 8 | 9 mph | 11 | SW (218°) | 99701 | 101852 | 25.2°C | 71.8% | 19.7°C | 2826ft (861m) | 12.7v | 31 |
| 1647 | 15 Apr 00:09:08 | 8 | 9.6 mph | 10 | SSW (205°) | 99706 | 101857 | 25.2°C | 71.7% | 19.7°C | 2836ft (864m) | 12.68v | 31 |
| 1646 | 15 Apr 00:08:56 | 4 | 5.4 mph | 7 | SW (215°) | 99708 | 101859 | 25.3°C | 72% | 19.9°C | 2810ft (856m) | 12.7v | 31 |
| 1645 | 15 Apr 00:08:45 | 5 | 6.4 mph | 8 | SW (214°) | 99706 | 101857 | 25.3°C | 71.7% | 19.8°C | 2837ft (865m) | 12.69v | 31 |
| 1644 | 15 Apr 00:08:34 | 6 | 5.9 mph | 7 | SW (216°) | 99710 | 101861 | 25.3°C | 71.7% | 19.8°C | 2837ft (865m) | 12.69v | 31 |
| 1643 | 15 Apr 00:08:23 | 6 | 6.2 mph | 7 | SW (214°) | 99707 | 101858 | 25.3°C | 71.6% | 19.8°C | 2847ft (868m) | 12.69v | 31 |
| 1642 | 15 Apr 00:08:11 | 5 | 7.1 mph | 10 | SW (217°) | 99709 | 101860 | 25.3°C | 71.6% | 19.8°C | 2847ft (868m) | 12.68v | 31 |
| 1641 | 15 Apr 00:08:00 | 7 | 7.9 mph | 9 | SW (215°) | 99709 | 101860 | 25.3°C | 71.6% | 19.8°C | 2847ft (868m) | 12.68v | 31 |
| 1640 | 15 Apr 00:07:49 | 7 | 7.5 mph | 8 | SW (217°) | 99709 | 101860 | 25.3°C | 71.5% | 19.8°C | 2856ft (871m) | 12.7v | 31 |
| 1639 | 15 Apr 00:07:38 | 8 | 8 mph | 9 | SSW (208°) | 99712 | 101863 | 25.3°C | 71.5% | 19.8°C | 2856ft (871m) | 12.7v | 31 |
| 1638 | 15 Apr 00:07:26 | 7 | 8 mph | 10 | SSW (209°) | 99712 | 101863 | 25.3°C | 71.5% | 19.8°C | 2856ft (871m) | 12.69v | 31 |
| 1637 | 15 Apr 00:07:15 | 9 | 10 mph | 11 | SSW (212°) | 99711 | 101862 | 25.3°C | 71.5% | 19.8°C | 2856ft (871m) | 12.69v | 31 |
| 1636 | 15 Apr 00:07:04 | 8 | 8.5 mph | 10 | SW (214°) | 99714 | 101865 | 25.3°C | 71.5% | 19.8°C | 2856ft (871m) | 12.69v | 31 |
| 1635 | 15 Apr 00:06:53 | 5 | 7.3 mph | 10 | SSW (201°) | 99713 | 101864 | 25.3°C | 71.5% | 19.8°C | 2856ft (871m) | 12.69v | 31 |
| 1634 | 15 Apr 00:06:41 | 6 | 7.9 mph | 10 | SSW (209°) | 99713 | 101864 | 25.3°C | 71.6% | 19.8°C | 2847ft (868m) | 12.68v | 31 |
| 1633 | 15 Apr 00:06:30 | 6 | 7.2 mph | 8 | SW (217°) | 99712 | 101863 | 25.4°C | 71.5% | 19.9°C | 2857ft (871m) | 12.69v | 31 |
| 1632 | 15 Apr 00:06:19 | 8 | 9.6 mph | 11 | SSW (201°) | 99711 | 101862 | 25.3°C | 71.4% | 19.8°C | 2865ft (873m) | 12.7v | 31 |
| 1631 | 15 Apr 00:06:08 | 8 | 9.1 mph | 11 | SSW (198°) | 99711 | 101862 | 25.4°C | 71.3% | 19.8°C | 2876ft (877m) | 12.7v | 31 |
| 1630 | 15 Apr 00:05:56 | 8 | 9.1 mph | 10 | SSW (201°) | 99713 | 101864 | 25.4°C | 71.4% | 19.8°C | 2867ft (874m) | 12.7v | 31 |
| 1629 | 15 Apr 00:05:45 | 9 | 10 mph | 12 | SSW (200°) | 99713 | 101864 | 25.4°C | 71.2% | 19.8°C | 2885ft (879m) | 12.69v | 31 |
| 1628 | 15 Apr 00:05:34 | 7 | 8.6 mph | 11 | SSW (199°) | 99716 | 101867 | 25.4°C | 71.2% | 19.8°C | 2885ft (879m) | 12.68v | 31 |
| 1627 | 15 Apr 00:05:23 | 8 | 8.6 mph | 10 | SSW (205°) | 99712 | 101863 | 25.4°C | 71.3% | 19.8°C | 2876ft (877m) | 12.69v | 31 |
| 1626 | 15 Apr 00:05:11 | 9 | 9.9 mph | 11 | SSW (198°) | 99714 | 101865 | 25.4°C | 71.2% | 19.8°C | 2885ft (879m) | 12.68v | 31 |
| 1625 | 15 Apr 00:05:00 | 5 | 6.3 mph | 7 | SSW (198°) | 99713 | 101864 | 25.4°C | 71.4% | 19.8°C | 2867ft (874m) | 12.67v | 31 |
| 1624 | 15 Apr 00:04:49 | 5 | 6.1 mph | 8 | SSW (206°) | 99716 | 101867 | 25.4°C | 71.3% | 19.8°C | 2876ft (877m) | 12.69v | 31 |
| 1623 | 15 Apr 00:04:38 | 6 | 8 mph | 11 | SSW (207°) | 99716 | 101867 | 25.4°C | 71.3% | 19.8°C | 2876ft (877m) | 12.69v | 31 |
| 1622 | 15 Apr 00:04:26 | 8 | 9.2 mph | 11 | SSW (208°) | 99715 | 101866 | 25.4°C | 71.4% | 19.8°C | 2867ft (874m) | 12.7v | 31 |
| 1621 | 15 Apr 00:04:15 | 7 | 7.2 mph | 8 | SW (220°) | 99714 | 101865 | 25.3°C | 71.5% | 19.8°C | 2856ft (871m) | 12.7v | 31 |
| 1620 | 15 Apr 00:04:04 | 6 | 6.7 mph | 8 | SW (223°) | 99717 | 101868 | 25.4°C | 71.4% | 19.8°C | 2867ft (874m) | 12.69v | 31 |
| 1619 | 15 Apr 00:03:53 | 4 | 5.4 mph | 7 | SSW (213°) | 99714 | 101865 | 25.3°C | 71.4% | 19.8°C | 2865ft (873m) | 12.69v | 31 |
| 1618 | 15 Apr 00:03:41 | 7 | 7.5 mph | 8 | SW (223°) | 99718 | 101869 | 25.3°C | 71.4% | 19.8°C | 2865ft (873m) | 12.67v | 31 |
| 1617 | 15 Apr 00:03:30 | 6 | 7 mph | 9 | SW (232°) | 99717 | 101868 | 25.4°C | 71.3% | 19.8°C | 2876ft (877m) | 12.7v | 31 |
| 1616 | 15 Apr 00:03:19 | 6 | 7.3 mph | 10 | SW (225°) | 99716 | 101867 | 25.4°C | 71.3% | 19.8°C | 2876ft (877m) | 12.67v | 31 |
| 1615 | 15 Apr 00:03:08 | 7 | 7.9 mph | 11 | SSW (198°) | 99717 | 101868 | 25.4°C | 71.4% | 19.8°C | 2867ft (874m) | 12.68v | 31 |
| 1614 | 15 Apr 00:02:56 | 9 | 9.1 mph | 10 | SSW (207°) | 99715 | 101866 | 25.4°C | 71.3% | 19.8°C | 2876ft (877m) | 12.7v | 31 |
| 1613 | 15 Apr 00:02:45 | 7 | 9.2 mph | 12 | SSW (209°) | 99723 | 101874 | 25.4°C | 71.2% | 19.8°C | 2885ft (879m) | 12.69v | 31 |
| 1612 | 15 Apr 00:02:34 | 7 | 9.7 mph | 11 | SSW (204°) | 99713 | 101864 | 25.4°C | 71.3% | 19.8°C | 2876ft (877m) | 12.69v | 31 |
| 1611 | 15 Apr 00:02:23 | 6 | 6.8 mph | 7 | SSW (213°) | 99724 | 101875 | 25.3°C | 71.4% | 19.8°C | 2865ft (873m) | 12.67v | 31 |
| 1610 | 15 Apr 00:02:11 | 8 | 8.6 mph | 10 | SSW (201°) | 99721 | 101872 | 25.3°C | 71.2% | 19.7°C | 2884ft (879m) | 12.69v | 31 |
| 1609 | 15 Apr 00:02:00 | 7 | 9.6 mph | 12 | SSW (205°) | 99716 | 101867 | 25.3°C | 71.2% | 19.7°C | 2884ft (879m) | 12.67v | 31 |
| 1608 | 15 Apr 00:01:49 | 5 | 5.4 mph | 7 | SSW (204°) | 99717 | 101868 | 25.4°C | 71.4% | 19.8°C | 2867ft (874m) | 12.66v | 31 |
| 1607 | 15 Apr 00:01:38 | 5 | 6.5 mph | 8 | SSW (197°) | 99719 | 101870 | 25.4°C | 71.4% | 19.8°C | 2867ft (874m) | 12.69v | 31 |
| 1606 | 15 Apr 00:01:26 | 6 | 6.7 mph | 8 | SSW (203°) | 99721 | 101872 | 25.4°C | 71.3% | 19.8°C | 2876ft (877m) | 12.68v | 31 |
| 1605 | 15 Apr 00:01:15 | 7 | 8.9 mph | 11 | SSW (209°) | 99719 | 101870 | 25.4°C | 71.3% | 19.8°C | 2876ft (877m) | 12.7v | 31 |
| 1604 | 15 Apr 00:01:04 | 7 | 9 mph | 11 | SSW (202°) | 99720 | 101871 | 25.4°C | 71.2% | 19.8°C | 2885ft (879m) | 12.68v | 31 |
| 1603 | 15 Apr 00:00:53 | 6 | 8 mph | 9 | SSW (204°) | 99718 | 101869 | 25.4°C | 71.2% | 19.8°C | 2885ft (879m) | 12.68v | 31 |
| 1602 | 15 Apr 00:00:41 | 5 | 5.9 mph | 7 | SW (220°) | 99720 | 101871 | 25.4°C | 71.3% | 19.8°C | 2876ft (877m) | 12.69v | 31 |
| 1601 | 15 Apr 00:00:30 | 6 | 6.5 mph | 7 | SSW (201°) | 99721 | 101872 | 25.4°C | 71.3% | 19.8°C | 2876ft (877m) | 12.69v | 31 |
| 1600 | 15 Apr 00:00:19 | 7 | 7.6 mph | 10 | SSW (206°) | 99719 | 101870 | 25.4°C | 71.2% | 19.8°C | 2885ft (879m) | 12.68v | 31 |
| 1599 | 15 Apr 00:00:08 | 8 | 9 mph | 10 | SSW (204°) | 99719 | 101870 | 25.4°C | 71.2% | 19.8°C | 2885ft (879m) | 12.69v | 31 |
| 1598 | 14 Apr 23:59:56 | 7 | 7.5 mph | 9 | SSW (197°) | 99720 | 101871 | 25.4°C | 71.2% | 19.8°C | 2885ft (879m) | 12.69v | 31 |
| 1597 | 14 Apr 23:59:45 | 8 | 9.1 mph | 11 | SSW (196°) | 99721 | 101872 | 25.4°C | 71.1% | 19.8°C | 2895ft (882m) | 12.69v | 31 |
| 1596 | 14 Apr 23:59:34 | 5 | 6.3 mph | 8 | SSW (205°) | 99721 | 101872 | 25.4°C | 71.2% | 19.8°C | 2885ft (879m) | 12.69v | 31 |
| 1595 | 14 Apr 23:59:23 | 7 | 9.4 mph | 12 | SSW (211°) | 99721 | 101872 | 25.4°C | 71.2% | 19.8°C | 2885ft (879m) | 12.7v | 31 |
| 1594 | 14 Apr 23:59:11 | 10 | 10.5 mph | 12 | SSW (208°) | 99718 | 101869 | 25.4°C | 71% | 19.8°C | 2904ft (885m) | 12.68v | 31 |
| 1593 | 14 Apr 23:59:00 | 8 | 9.6 mph | 11 | SSW (202°) | 99724 | 101875 | 25.4°C | 71.1% | 19.8°C | 2895ft (882m) | 12.67v | 31 |
| 1592 | 14 Apr 23:58:49 | 9 | 10.1 mph | 12 | SSW (210°) | 99722 | 101873 | 25.4°C | 70.9% | 19.7°C | 2913ft (888m) | 12.69v | 31 |
| 1591 | 14 Apr 23:58:38 | 8 | 9.8 mph | 12 | SSW (205°) | 99720 | 101871 | 25.4°C | 71% | 19.8°C | 2904ft (885m) | 12.68v | 31 |
| 1590 | 14 Apr 23:58:26 | 7 | 7.6 mph | 9 | SSW (204°) | 99718 | 101869 | 25.4°C | 71% | 19.8°C | 2904ft (885m) | 12.69v | 31 |
| 1589 | 14 Apr 23:58:15 | 8 | 9 mph | 11 | SW (218°) | 99718 | 101869 | 25.4°C | 71.1% | 19.8°C | 2895ft (882m) | 12.7v | 31 |
| 1588 | 14 Apr 23:58:04 | 5 | 6.1 mph | 8 | SSW (207°) | 99723 | 101874 | 25.4°C | 71.1% | 19.8°C | 2895ft (882m) | 12.69v | 31 |
| 1587 | 14 Apr 23:57:53 | 5 | 6.3 mph | 9 | SSW (206°) | 99721 | 101872 | 25.4°C | 71.1% | 19.8°C | 2895ft (882m) | 12.68v | 31 |
| 1586 | 14 Apr 23:57:41 | 9 | 9.5 mph | 11 | SSW (210°) | 99719 | 101870 | 25.4°C | 70.9% | 19.7°C | 2913ft (888m) | 12.68v | 31 |
| 1585 | 14 Apr 23:57:30 | 7 | 9.1 mph | 11 | SSW (206°) | 99722 | 101873 | 25.4°C | 70.8% | 19.7°C | 2923ft (891m) | 12.69v | 31 |
| 1584 | 14 Apr 23:57:19 | 7 | 7.9 mph | 10 | SSW (211°) | 99720 | 101871 | 25.4°C | 70.9% | 19.7°C | 2913ft (888m) | 12.67v | 31 |
| 1583 | 14 Apr 23:57:07 | 6 | 7.5 mph | 9 | SSW (208°) | 99719 | 101870 | 25.4°C | 71% | 19.8°C | 2904ft (885m) | 12.68v | 31 |
| 1582 | 14 Apr 23:56:56 | 5 | 6.5 mph | 8 | SSW (200°) | 99721 | 101872 | 25.4°C | 71% | 19.8°C | 2904ft (885m) | 12.68v | 31 |
| 1581 | 14 Apr 23:56:45 | 6 | 6 mph | 7 | SW (215°) | 99717 | 101868 | 25.4°C | 71.1% | 19.8°C | 2895ft (882m) | 12.71v | 31 |
| 1580 | 14 Apr 23:56:34 | 6 | 7.2 mph | 10 | SSW (205°) | 99722 | 101873 | 25.4°C | 71% | 19.8°C | 2904ft (885m) | 12.69v | 31 |
| 1579 | 14 Apr 23:56:22 | 6 | 7.3 mph | 10 | S (187°) | 99721 | 101872 | 25.4°C | 71% | 19.8°C | 2904ft (885m) | 12.68v | 31 |
| 1578 | 14 Apr 23:56:11 | 6 | 6.1 mph | 7 | SSW (208°) | 99723 | 101874 | 25.4°C | 71.1% | 19.8°C | 2895ft (882m) | 12.69v | 31 |
| 1577 | 14 Apr 23:56:00 | 4 | 4.7 mph | 6 | SW (218°) | 99722 | 101873 | 25.4°C | 71% | 19.8°C | 2904ft (885m) | 12.69v | 31 |
| 1576 | 14 Apr 23:55:49 | 3 | 5.3 mph | 7 | SW (222°) | 99719 | 101870 | 25.4°C | 71% | 19.8°C | 2904ft (885m) | 12.69v | 31 |
| 1575 | 14 Apr 23:55:37 | 5 | 5.9 mph | 8 | SW (217°) | 99722 | 101873 | 25.4°C | 71% | 19.8°C | 2904ft (885m) | 12.68v | 31 |
| 1574 | 14 Apr 23:55:26 | 5 | 5.6 mph | 8 | SSW (213°) | 99719 | 101870 | 25.4°C | 70.9% | 19.7°C | 2913ft (888m) | 12.68v | 31 |
| 1573 | 14 Apr 23:55:15 | 6 | 7.9 mph | 11 | SW (217°) | 99720 | 101871 | 25.4°C | 70.9% | 19.7°C | 2913ft (888m) | 12.7v | 31 |
| 1572 | 14 Apr 23:55:04 | 8 | 9 mph | 11 | SW (217°) | 99719 | 101870 | 25.4°C | 70.9% | 19.7°C | 2913ft (888m) | 12.69v | 31 |
| 1571 | 14 Apr 23:54:52 | 8 | 8.7 mph | 10 | SSW (205°) | 99722 | 101873 | 25.4°C | 70.8% | 19.7°C | 2923ft (891m) | 12.68v | 31 |
| 1570 | 14 Apr 23:54:41 | 8 | 9.3 mph | 11 | SSW (205°) | 99716 | 101867 | 25.4°C | 70.8% | 19.7°C | 2923ft (891m) | 12.69v | 31 |
| 1569 | 14 Apr 23:54:30 | 8 | 8.3 mph | 9 | SSW (202°) | 99721 | 101872 | 25.4°C | 70.9% | 19.7°C | 2913ft (888m) | 12.67v | 31 |
| 1568 | 14 Apr 23:54:19 | 7 | 10.4 mph | 14 | S (190°) | 99719 | 101870 | 25.4°C | 70.9% | 19.7°C | 2913ft (888m) | 12.68v | 19 |
| 1567 | 14 Apr 23:54:08 | 6 | 7.7 mph | 12 | SSW (204°) | 99714 | 101865 | 25.4°C | 71% | 19.8°C | 2904ft (885m) | 12.7v | 18 |
| 1566 | 14 Apr 23:53:56 | 7 | 7.3 mph | 9 | SSW (212°) | 99717 | 101868 | 25.4°C | 71% | 19.8°C | 2904ft (885m) | 12.68v | 18 |
| 1565 | 14 Apr 23:53:45 | 6 | 6.7 mph | 7 | SSW (208°) | 99720 | 101871 | 25.4°C | 71.1% | 19.8°C | 2895ft (882m) | 12.68v | 17 |
| 1564 | 14 Apr 23:53:34 | 7 | 8.1 mph | 10 | SSW (213°) | 99720 | 101871 | 25.4°C | 71% | 19.8°C | 2904ft (885m) | 12.67v | 18 |
| 1563 | 14 Apr 23:53:23 | 6 | 7.4 mph | 9 | SW (216°) | 99720 | 101871 | 25.4°C | 71% | 19.8°C | 2904ft (885m) | 12.69v | 18 |
| 1562 | 14 Apr 23:53:11 | 7 | 7.7 mph | 9 | SSW (201°) | 99720 | 101871 | 25.4°C | 71% | 19.8°C | 2904ft (885m) | 12.67v | 18 |
| 1561 | 14 Apr 23:53:00 | 6 | 7.4 mph | 9 | SSW (213°) | 99722 | 101873 | 25.4°C | 71% | 19.8°C | 2904ft (885m) | 12.68v | 17 |
| 1560 | 14 Apr 23:52:49 | 6 | 6.9 mph | 8 | SSW (208°) | 99720 | 101871 | 25.4°C | 71% | 19.8°C | 2904ft (885m) | 12.69v | 18 |
| 1559 | 14 Apr 23:52:38 | 7 | 8.1 mph | 9 | SSW (204°) | 99718 | 101869 | 25.4°C | 71% | 19.8°C | 2904ft (885m) | 12.69v | 19 |
| 1558 | 14 Apr 23:52:26 | 8 | 8.9 mph | 10 | SSW (212°) | 99719 | 101870 | 25.4°C | 71% | 19.8°C | 2904ft (885m) | 12.69v | 18 |
| 1557 | 14 Apr 23:52:15 | 7 | 8.9 mph | 12 | SSW (213°) | 99716 | 101867 | 25.4°C | 70.9% | 19.7°C | 2913ft (888m) | 12.69v | 18 |
| 1556 | 14 Apr 23:52:04 | 7 | 7.4 mph | 8 | SSW (198°) | 99720 | 101871 | 25.4°C | 71.1% | 19.8°C | 2895ft (882m) | 12.69v | 18 |
| 1555 | 14 Apr 23:51:53 | 7 | 7.6 mph | 8 | SSW (207°) | 99721 | 101872 | 25.4°C | 71.1% | 19.8°C | 2895ft (882m) | 12.69v | 18 |
| 1554 | 14 Apr 23:51:41 | 8 | 8.4 mph | 10 | SSW (213°) | 99724 | 101875 | 25.4°C | 71% | 19.8°C | 2904ft (885m) | 12.68v | 17 |
| 1553 | 14 Apr 23:51:30 | 5 | 6.7 mph | 8 | SSW (208°) | 99721 | 101872 | 25.4°C | 71% | 19.8°C | 2904ft (885m) | 12.68v | 19 |
| 1552 | 14 Apr 23:51:19 | 6 | 6.5 mph | 8 | SSW (212°) | 99724 | 101875 | 25.3°C | 71.1% | 19.7°C | 2893ft (882m) | 12.67v | 18 |
| 1551 | 14 Apr 23:51:08 | 7 | 7.9 mph | 10 | SSW (201°) | 99722 | 101873 | 25.3°C | 71% | 19.7°C | 2902ft (885m) | 12.68v | 18 |
| 1550 | 14 Apr 23:50:56 | 5 | 7.2 mph | 9 | SSW (202°) | 99720 | 101871 | 25.3°C | 71.2% | 19.7°C | 2884ft (879m) | 12.68v | 17 |
| 1549 | 14 Apr 23:50:45 | 6 | 7 mph | 9 | SSW (209°) | 99720 | 101871 | 25.3°C | 71.2% | 19.7°C | 2884ft (879m) | 12.7v | 17 |
| 1548 | 14 Apr 23:50:34 | 6 | 7.3 mph | 10 | SSW (209°) | 99719 | 101870 | 25.3°C | 71.1% | 19.7°C | 2893ft (882m) | 12.68v | 18 |
| 1547 | 14 Apr 23:50:23 | 6 | 7.7 mph | 10 | SW (217°) | 99720 | 101871 | 25.3°C | 71.2% | 19.7°C | 2884ft (879m) | 12.69v | 19 |
| 1546 | 14 Apr 23:50:11 | 6 | 8.8 mph | 12 | SSW (199°) | 99725 | 101876 | 25.3°C | 71.2% | 19.7°C | 2884ft (879m) | 12.7v | 17 |
| 1545 | 14 Apr 23:50:00 | 10 | 10.6 mph | 11 | SSW (206°) | 99717 | 101868 | 25.3°C | 71.1% | 19.7°C | 2893ft (882m) | 12.69v | 19 |
| 1544 | 14 Apr 23:49:49 | 7 | 8.5 mph | 12 | SSW (202°) | 99723 | 101874 | 25.3°C | 71.2% | 19.7°C | 2884ft (879m) | 12.68v | 18 |
| 1543 | 14 Apr 23:49:38 | 9 | 11.1 mph | 14 | SSW (198°) | 99721 | 101872 | 25.3°C | 71% | 19.7°C | 2902ft (885m) | 12.69v | 18 |
| 1542 | 14 Apr 23:49:26 | 8 | 8.8 mph | 10 | SSW (207°) | 99726 | 101877 | 25.3°C | 71% | 19.7°C | 2902ft (885m) | 12.7v | 18 |
| 1541 | 14 Apr 23:49:15 | 10 | 12.1 mph | 14 | SSW (207°) | 99722 | 101873 | 25.3°C | 70.9% | 19.6°C | 2911ft (887m) | 12.7v | 19 |
| 1540 | 14 Apr 23:49:04 | 7 | 9.2 mph | 12 | SSW (194°) | 99721 | 101872 | 25.3°C | 71.1% | 19.7°C | 2893ft (882m) | 12.7v | 19 |
| 1539 | 14 Apr 23:48:53 | 7 | 9.3 mph | 11 | SSW (210°) | 99721 | 101872 | 25.3°C | 71% | 19.7°C | 2902ft (885m) | 12.69v | 18 |
| 1538 | 14 Apr 23:48:41 | 9 | 10.6 mph | 12 | SSW (200°) | 99720 | 101871 | 25.3°C | 70.9% | 19.6°C | 2911ft (887m) | 12.7v | 17 |
| 1537 | 14 Apr 23:48:30 | 7 | 8.2 mph | 12 | SSW (193°) | 99722 | 101873 | 25.3°C | 71.1% | 19.7°C | 2893ft (882m) | 12.69v | 17 |
| 1536 | 14 Apr 23:48:19 | 10 | 11.4 mph | 12 | SSW (192°) | 99719 | 101870 | 25.3°C | 71% | 19.7°C | 2902ft (885m) | 12.69v | 18 |
| 1535 | 14 Apr 23:48:08 | 9 | 11 mph | 13 | SSW (202°) | 99718 | 101869 | 25.3°C | 71% | 19.7°C | 2902ft (885m) | 12.69v | 19 |
| 1534 | 14 Apr 23:47:57 | 10 | 11.3 mph | 13 | SSW (203°) | 99717 | 101868 | 25.3°C | 71% | 19.7°C | 2902ft (885m) | 12.68v | 19 |
| 1533 | 14 Apr 23:47:45 | 8 | 10.3 mph | 12 | SSW (203°) | 99716 | 101867 | 25.3°C | 71% | 19.7°C | 2902ft (885m) | 12.7v | 20 |
| 1532 | 14 Apr 23:47:34 | 9 | 9.2 mph | 11 | SSW (205°) | 99720 | 101871 | 25.3°C | 71.1% | 19.7°C | 2893ft (882m) | 12.68v | 18 |
| 1531 | 14 Apr 23:47:23 | 7 | 10.3 mph | 13 | SSW (197°) | 99720 | 101871 | 25.3°C | 70.9% | 19.6°C | 2911ft (887m) | 12.69v | 17 |
| 1530 | 14 Apr 23:47:12 | 8 | 9 mph | 10 | SSW (207°) | 99719 | 101870 | 25.3°C | 70.9% | 19.6°C | 2911ft (887m) | 12.68v | 18 |
| 1529 | 14 Apr 23:47:00 | 8 | 9.3 mph | 11 | SSW (212°) | 99721 | 101872 | 25.3°C | 71% | 19.7°C | 2902ft (885m) | 12.68v | 17 |
| 1528 | 14 Apr 23:46:49 | 6 | 9.1 mph | 12 | SSW (204°) | 99720 | 101871 | 25.3°C | 71.1% | 19.7°C | 2893ft (882m) | 12.69v | 18 |
| 1527 | 14 Apr 23:46:38 | 9 | 9.9 mph | 11 | SSW (203°) | 99723 | 101874 | 25.3°C | 70.9% | 19.6°C | 2911ft (887m) | 12.69v | 19 |
| 1526 | 14 Apr 23:46:27 | 6 | 8.3 mph | 9 | SSW (194°) | 99718 | 101869 | 25.3°C | 71% | 19.7°C | 2902ft (885m) | 12.7v | 17 |
| 1525 | 14 Apr 23:46:15 | 11 | 11.6 mph | 13 | SSW (213°) | 99722 | 101873 | 25.3°C | 70.9% | 19.6°C | 2911ft (887m) | 12.69v | 19 |
| 1524 | 14 Apr 23:46:04 | 7 | 8.4 mph | 10 | SW (215°) | 99718 | 101869 | 25.3°C | 71.1% | 19.7°C | 2893ft (882m) | 12.7v | 19 |
| 1523 | 14 Apr 23:45:53 | 9 | 9.9 mph | 11 | SSW (205°) | 99722 | 101873 | 25.3°C | 71% | 19.7°C | 2902ft (885m) | 12.7v | 17 |
| 1522 | 14 Apr 23:45:42 | 9 | 10.8 mph | 13 | SSW (213°) | 99720 | 101871 | 25.3°C | 70.9% | 19.6°C | 2911ft (887m) | 12.69v | 18 |
| 1521 | 14 Apr 23:45:30 | 8 | 9.1 mph | 10 | SSW (211°) | 99721 | 101872 | 25.3°C | 71% | 19.7°C | 2902ft (885m) | 12.7v | 17 |
| 1520 | 14 Apr 23:45:19 | 6 | 6.7 mph | 8 | SW (219°) | 99723 | 101874 | 25.3°C | 71.1% | 19.7°C | 2893ft (882m) | 12.68v | 18 |
| 1519 | 14 Apr 23:45:08 | 6 | 7.2 mph | 8 | SSW (198°) | 99721 | 101872 | 25.2°C | 71.2% | 19.6°C | 2882ft (878m) | 12.68v | 18 |
| 1518 | 14 Apr 23:44:56 | 10 | 11.3 mph | 13 | SSW (197°) | 99719 | 101870 | 25.2°C | 71% | 19.6°C | 2900ft (884m) | 12.68v | 19 |
| 1517 | 14 Apr 23:44:45 | 8 | 9.7 mph | 12 | SSW (192°) | 99718 | 101869 | 25.2°C | 71.1% | 19.6°C | 2891ft (881m) | 12.69v | 17 |
| 1516 | 14 Apr 23:44:34 | 11 | 11.8 mph | 14 | SSW (199°) | 99727 | 101878 | 25.2°C | 71% | 19.6°C | 2900ft (884m) | 12.69v | 17 |
| 1515 | 14 Apr 23:44:23 | 7 | 9.5 mph | 12 | SSW (200°) | 99721 | 101872 | 25.2°C | 71% | 19.6°C | 2900ft (884m) | 12.71v | 18 |
| 1514 | 14 Apr 23:44:11 | 8 | 9.6 mph | 11 | S (190°) | 99723 | 101874 | 25.2°C | 71.1% | 19.6°C | 2891ft (881m) | 12.69v | 18 |
| 1513 | 14 Apr 23:44:00 | 9 | 10.5 mph | 13 | S (191°) | 99723 | 101874 | 25.2°C | 70.9% | 19.5°C | 2910ft (887m) | 12.69v | 18 |
| 1512 | 14 Apr 23:43:49 | 7 | 9.9 mph | 15 | SSW (211°) | 99722 | 101873 | 25.2°C | 71.1% | 19.6°C | 2891ft (881m) | 12.7v | 19 |
| 1511 | 14 Apr 23:43:38 | 10 | 11.7 mph | 13 | SSW (201°) | 99718 | 101869 | 25.2°C | 70.9% | 19.5°C | 2910ft (887m) | 12.67v | 17 |
| 1510 | 14 Apr 23:43:26 | 9 | 11.2 mph | 13 | SSW (203°) | 99720 | 101871 | 25.2°C | 70.9% | 19.5°C | 2910ft (887m) | 12.69v | 18 |
| 1509 | 14 Apr 23:43:15 | 7 | 8.8 mph | 11 | SSW (199°) | 99725 | 101876 | 25.2°C | 71% | 19.6°C | 2900ft (884m) | 12.69v | 18 |
| 1508 | 14 Apr 23:43:04 | 8 | 9.6 mph | 11 | SSW (199°) | 99723 | 101874 | 25.2°C | 71.2% | 19.6°C | 2882ft (878m) | 12.71v | 19 |
| 1507 | 14 Apr 23:42:53 | 10 | 11.7 mph | 14 | SSW (202°) | 99719 | 101870 | 25.2°C | 71.1% | 19.6°C | 2891ft (881m) | 12.71v | 19 |
| 1506 | 14 Apr 23:42:41 | 9 | 10.5 mph | 12 | SSW (202°) | 99723 | 101874 | 25.2°C | 71% | 19.6°C | 2900ft (884m) | 12.68v | 19 |
| 1505 | 14 Apr 23:42:30 | 7 | 9 mph | 12 | SSW (194°) | 99711 | 101862 | 25.2°C | 71.1% | 19.6°C | 2891ft (881m) | 12.69v | 17 |
| 1504 | 14 Apr 23:42:19 | 9 | 10.2 mph | 11 | SSW (201°) | 99722 | 101873 | 25.2°C | 71% | 19.6°C | 2900ft (884m) | 12.69v | 17 |
| 1503 | 14 Apr 23:42:08 | 7 | 8.8 mph | 11 | SSW (195°) | 99724 | 101875 | 25.2°C | 71% | 19.6°C | 2900ft (884m) | 12.69v | 18 |
| 1502 | 14 Apr 23:41:56 | 9 | 11.5 mph | 13 | SSW (204°) | 99723 | 101874 | 25.2°C | 71% | 19.6°C | 2900ft (884m) | 12.68v | 18 |
| 1501 | 14 Apr 23:41:45 | 8 | 10.8 mph | 14 | S (178°) | 99720 | 101871 | 25.1°C | 70.9% | 19.4°C | 2908ft (886m) | 12.7v | 17 |
| 1500 | 14 Apr 23:41:34 | 8 | 10.5 mph | 14 | SSW (196°) | 99725 | 101876 | 25.2°C | 70.9% | 19.5°C | 2910ft (887m) | 12.71v | 18 |
| 1499 | 14 Apr 23:41:23 | 6 | 7.8 mph | 10 | SW (215°) | 99726 | 101877 | 25.2°C | 71% | 19.6°C | 2900ft (884m) | 12.7v | 17 |
| 1498 | 14 Apr 23:41:11 | 6 | 7.4 mph | 8 | SSW (208°) | 99729 | 101880 | 25.1°C | 71.1% | 19.5°C | 2889ft (881m) | 12.68v | 17 |
| 1497 | 14 Apr 23:41:00 | 7 | 8.1 mph | 9 | SSW (201°) | 99722 | 101873 | 25.1°C | 71% | 19.5°C | 2899ft (884m) | 12.69v | 19 |
| 1496 | 14 Apr 23:40:49 | 8 | 9 mph | 12 | SSW (197°) | 99725 | 101876 | 25.1°C | 71% | 19.5°C | 2899ft (884m) | 12.69v | 17 |
| 1495 | 14 Apr 23:40:38 | 6 | 7 mph | 8 | SSW (194°) | 99721 | 101872 | 25.1°C | 71.3% | 19.5°C | 2871ft (875m) | 12.68v | 19 |
| 1494 | 14 Apr 23:40:26 | 6 | 9.6 mph | 13 | SSW (202°) | 99727 | 101878 | 25.1°C | 71.1% | 19.5°C | 2889ft (881m) | 12.69v | 19 |
| 1493 | 14 Apr 23:40:15 | 5 | 7.7 mph | 12 | SW (221°) | 99728 | 101879 | 25.1°C | 71.1% | 19.5°C | 2889ft (881m) | 12.67v | 19 |
| 1492 | 14 Apr 23:40:04 | 6 | 7.1 mph | 9 | SSW (210°) | 99729 | 101880 | 25.1°C | 71.3% | 19.5°C | 2871ft (875m) | 12.7v | 19 |
| 1491 | 14 Apr 23:39:53 | 6 | 6.9 mph | 8 | SSW (207°) | 99724 | 101875 | 25.1°C | 71.3% | 19.5°C | 2871ft (875m) | 12.7v | 20 |
| 1490 | 14 Apr 23:39:41 | 8 | 10 mph | 12 | SSW (200°) | 99728 | 101879 | 25.1°C | 71.2% | 19.5°C | 2880ft (878m) | 12.69v | 18 |
| 1489 | 14 Apr 23:39:30 | 7 | 8 mph | 9 | SSW (203°) | 99730 | 101881 | 25.1°C | 71.4% | 19.6°C | 2862ft (872m) | 12.69v | 19 |
| 1488 | 14 Apr 23:39:19 | 8 | 8.5 mph | 10 | SSW (195°) | 99726 | 101877 | 25°C | 71.3% | 19.4°C | 2869ft (874m) | 12.7v | 18 |
| 1487 | 14 Apr 23:39:08 | 6 | 8.4 mph | 11 | S (190°) | 99726 | 101877 | 25.1°C | 71.1% | 19.5°C | 2889ft (881m) | 12.69v | 18 |
| 1486 | 14 Apr 23:38:56 | 8 | 10.1 mph | 12 | SSW (198°) | 99726 | 101877 | 25.1°C | 71.1% | 19.5°C | 2889ft (881m) | 12.68v | 17 |
| 1485 | 14 Apr 23:38:45 | 7 | 7.2 mph | 8 | SSW (205°) | 99727 | 101878 | 25°C | 71.3% | 19.4°C | 2869ft (874m) | 12.69v | 18 |
| 1484 | 14 Apr 23:38:34 | 9 | 9.9 mph | 12 | SSW (199°) | 99724 | 101875 | 25.1°C | 71.2% | 19.5°C | 2880ft (878m) | 12.7v | 31 |
| 1483 | 14 Apr 23:38:23 | 7 | 8.3 mph | 9 | SSW (203°) | 99729 | 101880 | 25.1°C | 71% | 19.5°C | 2899ft (884m) | 12.69v | 31 |
| 1482 | 14 Apr 23:38:11 | 8 | 8.8 mph | 11 | SSW (209°) | 99727 | 101878 | 25.1°C | 71.2% | 19.5°C | 2880ft (878m) | 12.7v | 31 |
| 1481 | 14 Apr 23:38:00 | 7 | 8.2 mph | 10 | SSW (197°) | 99732 | 101883 | 25.1°C | 71.1% | 19.5°C | 2889ft (881m) | 12.71v | 31 |
| 1480 | 14 Apr 23:37:49 | 5 | 6 mph | 7 | SSW (203°) | 99732 | 101883 | 25°C | 71.3% | 19.4°C | 2869ft (874m) | 12.71v | 31 |
| 1479 | 14 Apr 23:37:38 | 7 | 7.8 mph | 10 | SSW (194°) | 99731 | 101882 | 25°C | 71.4% | 19.5°C | 2860ft (872m) | 12.7v | 31 |
| 1478 | 14 Apr 23:37:26 | 8 | 9.3 mph | 11 | SSW (210°) | 99731 | 101882 | 25°C | 71.4% | 19.5°C | 2860ft (872m) | 12.69v | 31 |
| 1477 | 14 Apr 23:37:15 | 7 | 8.8 mph | 10 | SSW (212°) | 99732 | 101883 | 25°C | 71.3% | 19.4°C | 2869ft (874m) | 12.7v | 31 |
| 1476 | 14 Apr 23:37:04 | 8 | 9.3 mph | 11 | SSW (213°) | 99732 | 101883 | 25°C | 71.3% | 19.4°C | 2869ft (874m) | 12.69v | 31 |
| 1475 | 14 Apr 23:36:53 | 9 | 10.9 mph | 12 | SW (214°) | 99729 | 101880 | 25°C | 71.4% | 19.5°C | 2860ft (872m) | 12.7v | 31 |
| 1474 | 14 Apr 23:36:41 | 8 | 9.7 mph | 11 | SSW (205°) | 99734 | 101885 | 25°C | 71.2% | 19.4°C | 2878ft (877m) | 12.69v | 31 |
| 1473 | 14 Apr 23:36:30 | 8 | 9.5 mph | 11 | SSW (197°) | 99733 | 101884 | 25°C | 71.3% | 19.4°C | 2869ft (874m) | 12.7v | 31 |
| 1472 | 14 Apr 23:36:19 | 8 | 10.5 mph | 13 | SSW (197°) | 99735 | 101886 | 25°C | 71.2% | 19.4°C | 2878ft (877m) | 12.71v | 31 |
| 1471 | 14 Apr 23:36:08 | 8 | 9 mph | 10 | SSW (202°) | 99733 | 101884 | 25°C | 71.3% | 19.4°C | 2869ft (874m) | 12.7v | 31 |
| 1470 | 14 Apr 23:35:56 | 9 | 10.4 mph | 12 | SSW (195°) | 99730 | 101881 | 25°C | 71.2% | 19.4°C | 2878ft (877m) | 12.68v | 31 |
| 1469 | 14 Apr 23:35:45 | 10 | 11.5 mph | 13 | SSW (204°) | 99735 | 101886 | 25°C | 71.2% | 19.4°C | 2878ft (877m) | 12.7v | 31 |
| 1468 | 14 Apr 23:35:34 | 10 | 12 mph | 14 | SSW (201°) | 99738 | 101889 | 25°C | 71.1% | 19.4°C | 2888ft (880m) | 12.7v | 31 |
| 1467 | 14 Apr 23:35:23 | 9 | 9.9 mph | 11 | SSW (209°) | 99738 | 101889 | 25°C | 71.3% | 19.4°C | 2869ft (874m) | 12.71v | 31 |
| 1466 | 14 Apr 23:35:11 | 12 | 12.4 mph | 14 | SSW (194°) | 99736 | 101887 | 25°C | 71.2% | 19.4°C | 2878ft (877m) | 12.71v | 31 |
| 1465 | 14 Apr 23:35:00 | 10 | 11.7 mph | 14 | SSW (196°) | 99734 | 101885 | 25°C | 71.1% | 19.4°C | 2888ft (880m) | 12.7v | 31 |
| 1464 | 14 Apr 23:34:49 | 10 | 11.4 mph | 13 | SSW (199°) | 99730 | 101881 | 25°C | 71.1% | 19.4°C | 2888ft (880m) | 12.7v | 31 |
| 1463 | 14 Apr 23:34:38 | 8 | 8.5 mph | 10 | S (190°) | 99731 | 101882 | 25°C | 71.1% | 19.4°C | 2888ft (880m) | 12.7v | 31 |
| 1462 | 14 Apr 23:34:26 | 9 | 10.1 mph | 11 | SSW (201°) | 99733 | 101884 | 25°C | 71.1% | 19.4°C | 2888ft (880m) | 12.7v | 31 |
| 1461 | 14 Apr 23:34:15 | 10 | 11.9 mph | 14 | SSW (203°) | 99739 | 101890 | 25°C | 71% | 19.4°C | 2897ft (883m) | 12.69v | 31 |
| 1460 | 14 Apr 23:34:04 | 7 | 8.2 mph | 10 | SSW (197°) | 99741 | 101892 | 25°C | 71.1% | 19.4°C | 2888ft (880m) | 12.69v | 31 |
| 1459 | 14 Apr 23:33:53 | 8 | 9 mph | 11 | SSW (196°) | 99733 | 101884 | 25°C | 71.2% | 19.4°C | 2878ft (877m) | 12.7v | 31 |
| 1458 | 14 Apr 23:33:41 | 11 | 12.8 mph | 14 | SSW (197°) | 99734 | 101885 | 25°C | 71.2% | 19.4°C | 2878ft (877m) | 12.7v | 31 |
| 1457 | 14 Apr 23:33:30 | 10 | 12.6 mph | 15 | SSW (205°) | 99730 | 101881 | 25°C | 71% | 19.4°C | 2897ft (883m) | 12.71v | 31 |
| 1456 | 14 Apr 23:33:19 | 6 | 8.4 mph | 11 | SSW (197°) | 99736 | 101887 | 25°C | 71.2% | 19.4°C | 2878ft (877m) | 12.7v | 31 |
| 1455 | 14 Apr 23:33:08 | 7 | 8.8 mph | 12 | SSW (200°) | 99737 | 101888 | 25°C | 71.1% | 19.4°C | 2888ft (880m) | 12.7v | 31 |
| 1454 | 14 Apr 23:32:56 | 11 | 11.5 mph | 12 | SSW (201°) | 99732 | 101883 | 25°C | 71.2% | 19.4°C | 2878ft (877m) | 12.7v | 31 |
| 1453 | 14 Apr 23:32:45 | 10 | 11.4 mph | 13 | SSW (208°) | 99736 | 101887 | 25°C | 71% | 19.4°C | 2897ft (883m) | 12.7v | 31 |
| 1452 | 14 Apr 23:32:34 | 11 | 11.6 mph | 13 | SSW (200°) | 99730 | 101881 | 25.1°C | 70.9% | 19.4°C | 2908ft (886m) | 12.7v | 31 |
| 1451 | 14 Apr 23:32:23 | 13 | 13.1 mph | 14 | SSW (203°) | 99738 | 101889 | 25.1°C | 70.8% | 19.4°C | 2917ft (889m) | 12.7v | 31 |
| 1450 | 14 Apr 23:32:11 | 7 | 10.5 mph | 13 | SSW (212°) | 99735 | 101886 | 25.1°C | 70.7% | 19.4°C | 2927ft (892m) | 12.7v | 31 |
| 1449 | 14 Apr 23:32:00 | 6 | 8.9 mph | 11 | SSW (209°) | 99742 | 101893 | 25.1°C | 70.9% | 19.4°C | 2908ft (886m) | 12.7v | 31 |
| 1448 | 14 Apr 23:31:49 | 7 | 8.1 mph | 9 | SSW (205°) | 99740 | 101891 | 25.1°C | 70.9% | 19.4°C | 2908ft (886m) | 12.71v | 31 |
| 1447 | 14 Apr 23:31:38 | 8 | 9.3 mph | 10 | SSW (210°) | 99735 | 101886 | 25.1°C | 70.8% | 19.4°C | 2917ft (889m) | 12.7v | 31 |
| 1446 | 14 Apr 23:31:26 | 8 | 10.1 mph | 11 | SSW (211°) | 99736 | 101887 | 25.1°C | 70.8% | 19.4°C | 2917ft (889m) | 12.69v | 31 |
| 1445 | 14 Apr 23:31:15 | 7 | 7.7 mph | 9 | SW (215°) | 99736 | 101887 | 25.1°C | 71% | 19.5°C | 2899ft (884m) | 12.69v | 31 |
| 1444 | 14 Apr 23:31:04 | 8 | 10.7 mph | 13 | SSW (206°) | 99737 | 101888 | 25.1°C | 70.8% | 19.4°C | 2917ft (889m) | 12.7v | 31 |
| 1443 | 14 Apr 23:30:53 | 9 | 10.2 mph | 11 | SSW (205°) | 99734 | 101885 | 25.1°C | 70.7% | 19.4°C | 2927ft (892m) | 12.71v | 31 |
| 1442 | 14 Apr 23:30:41 | 8 | 9.7 mph | 11 | S (190°) | 99735 | 101886 | 25.1°C | 70.8% | 19.4°C | 2917ft (889m) | 12.71v | 31 |
| 1441 | 14 Apr 23:30:30 | 9 | 10.5 mph | 12 | SSW (205°) | 99736 | 101887 | 25.1°C | 70.8% | 19.4°C | 2917ft (889m) | 12.7v | 31 |
| 1440 | 14 Apr 23:30:19 | 7 | 7.5 mph | 10 | SSW (198°) | 99735 | 101886 | 25°C | 70.9% | 19.4°C | 2906ft (886m) | 12.71v | 31 |
| 1439 | 14 Apr 23:30:08 | 6 | 7.5 mph | 10 | SSW (208°) | 99735 | 101886 | 25°C | 70.9% | 19.4°C | 2906ft (886m) | 12.71v | 31 |
| 1438 | 14 Apr 23:29:56 | 7 | 8 mph | 9 | SSW (205°) | 99738 | 101889 | 25°C | 70.9% | 19.4°C | 2906ft (886m) | 12.7v | 31 |
| 1437 | 14 Apr 23:29:45 | 9 | 9.3 mph | 11 | SSW (207°) | 99737 | 101888 | 25°C | 70.9% | 19.4°C | 2906ft (886m) | 12.69v | 31 |
| 1436 | 14 Apr 23:29:34 | 11 | 11 mph | 12 | SSW (205°) | 99734 | 101885 | 25°C | 70.8% | 19.3°C | 2916ft (889m) | 12.69v | 31 |
| 1435 | 14 Apr 23:29:23 | 6 | 7.5 mph | 11 | SSW (196°) | 99735 | 101886 | 25°C | 71% | 19.4°C | 2897ft (883m) | 12.7v | 31 |
| 1434 | 14 Apr 23:29:11 | 12 | 13.5 mph | 15 | S (190°) | 99733 | 101884 | 25°C | 70.9% | 19.4°C | 2906ft (886m) | 12.71v | 31 |
| 1433 | 14 Apr 23:29:00 | 6 | 9.7 mph | 14 | SSW (208°) | 99733 | 101884 | 25°C | 70.8% | 19.3°C | 2916ft (889m) | 12.7v | 31 |
| 1432 | 14 Apr 23:28:49 | 7 | 8.7 mph | 11 | SSW (198°) | 99735 | 101886 | 25°C | 70.8% | 19.3°C | 2916ft (889m) | 12.7v | 31 |
| 1431 | 14 Apr 23:28:38 | 8 | 8.6 mph | 10 | SSW (208°) | 99736 | 101887 | 25°C | 70.9% | 19.4°C | 2906ft (886m) | 12.7v | 31 |
| 1430 | 14 Apr 23:28:26 | 10 | 13.1 mph | 15 | S (188°) | 99740 | 101891 | 25°C | 71% | 19.4°C | 2897ft (883m) | 12.69v | 31 |
| 1429 | 14 Apr 23:28:15 | 9 | 12.2 mph | 15 | SSW (193°) | 99731 | 101882 | 25°C | 71% | 19.4°C | 2897ft (883m) | 12.7v | 31 |
| 1428 | 14 Apr 23:28:04 | 9 | 10.8 mph | 13 | SW (225°) | 99739 | 101890 | 25°C | 70.8% | 19.3°C | 2916ft (889m) | 12.7v | 31 |
| 1427 | 14 Apr 23:27:53 | 9 | 10.6 mph | 12 | SSW (200°) | 99740 | 101891 | 25°C | 70.7% | 19.3°C | 2925ft (892m) | 12.7v | 31 |
| 1426 | 14 Apr 23:27:41 | 9 | 11.3 mph | 13 | S (187°) | 99739 | 101890 | 25°C | 70.9% | 19.4°C | 2906ft (886m) | 12.71v | 31 |
| 1425 | 14 Apr 23:27:30 | 8 | 10.8 mph | 13 | SSW (196°) | 99741 | 101892 | 25°C | 70.7% | 19.3°C | 2925ft (892m) | 12.71v | 31 |
| 1424 | 14 Apr 23:27:19 | 8 | 9.1 mph | 11 | SSW (205°) | 99737 | 101888 | 25°C | 70.7% | 19.3°C | 2925ft (892m) | 12.7v | 31 |
| 1423 | 14 Apr 23:27:08 | 8 | 8.7 mph | 11 | SSW (204°) | 99742 | 101893 | 25°C | 71% | 19.4°C | 2897ft (883m) | 12.7v | 31 |
| 1422 | 14 Apr 23:26:56 | 11 | 12.7 mph | 14 | SSW (195°) | 99735 | 101886 | 25°C | 70.9% | 19.4°C | 2906ft (886m) | 12.7v | 31 |
| 1421 | 14 Apr 23:26:45 | 10 | 10.7 mph | 13 | SSW (196°) | 99732 | 101883 | 25°C | 70.9% | 19.4°C | 2906ft (886m) | 12.7v | 31 |
| 1420 | 14 Apr 23:26:34 | 11 | 12.4 mph | 14 | SSW (197°) | 99740 | 101891 | 25°C | 70.9% | 19.4°C | 2906ft (886m) | 12.69v | 31 |
| 1419 | 14 Apr 23:26:23 | 8 | 10.9 mph | 14 | SSW (196°) | 99740 | 101891 | 25°C | 70.9% | 19.4°C | 2906ft (886m) | 12.7v | 31 |
| 1418 | 14 Apr 23:26:11 | 10 | 10.6 mph | 12 | SSW (205°) | 99739 | 101890 | 25°C | 70.7% | 19.3°C | 2925ft (892m) | 12.71v | 31 |
| 1417 | 14 Apr 23:26:00 | 8 | 9 mph | 13 | SSW (202°) | 99743 | 101894 | 25°C | 70.9% | 19.4°C | 2906ft (886m) | 12.7v | 31 |
| 1416 | 14 Apr 23:25:49 | 6 | 7.5 mph | 12 | SSW (194°) | 99739 | 101890 | 25°C | 70.8% | 19.3°C | 2916ft (889m) | 12.7v | 31 |
| 1415 | 14 Apr 23:25:38 | 8 | 10.5 mph | 12 | S (185°) | 99742 | 101893 | 25°C | 70.7% | 19.3°C | 2925ft (892m) | 12.7v | 31 |
| 1414 | 14 Apr 23:25:26 | 10 | 12.4 mph | 15 | SSW (198°) | 99742 | 101893 | 25°C | 70.8% | 19.3°C | 2916ft (889m) | 12.7v | 31 |
| 1413 | 14 Apr 23:25:15 | 9 | 11.1 mph | 13 | SSW (197°) | 99739 | 101890 | 25°C | 70.7% | 19.3°C | 2925ft (892m) | 12.7v | 31 |
| 1412 | 14 Apr 23:25:04 | 12 | 13.5 mph | 14 | S (190°) | 99741 | 101892 | 25°C | 70.6% | 19.3°C | 2934ft (894m) | 12.7v | 31 |
| 1411 | 14 Apr 23:24:53 | 7 | 9.7 mph | 13 | SSW (210°) | 99741 | 101892 | 25°C | 70.8% | 19.3°C | 2916ft (889m) | 12.7v | 31 |
| 1410 | 14 Apr 23:24:41 | 8 | 8.7 mph | 11 | SSW (199°) | 99743 | 101894 | 25.1°C | 70.6% | 19.4°C | 2936ft (895m) | 12.72v | 31 |
| 1409 | 14 Apr 23:24:30 | 9 | 9.4 mph | 11 | SSW (201°) | 99745 | 101897 | 25°C | 70.7% | 19.3°C | 2925ft (892m) | 12.7v | 31 |
| 1408 | 14 Apr 23:24:19 | 8 | 10.3 mph | 13 | S (191°) | 99743 | 101894 | 25°C | 70.7% | 19.3°C | 2925ft (892m) | 12.71v | 31 |
| 1407 | 14 Apr 23:24:08 | 8 | 10.5 mph | 13 | SSW (199°) | 99748 | 101900 | 25°C | 70.7% | 19.3°C | 2925ft (892m) | 12.7v | 31 |
| 1406 | 14 Apr 23:23:56 | 8 | 9.4 mph | 12 | SSW (195°) | 99741 | 101892 | 25.1°C | 70.6% | 19.4°C | 2936ft (895m) | 12.7v | 31 |
| 1405 | 14 Apr 23:23:45 | 8 | 9.1 mph | 12 | SSW (196°) | 99747 | 101899 | 25.1°C | 70.5% | 19.4°C | 2945ft (898m) | 12.7v | 31 |
| 1404 | 14 Apr 23:23:34 | 9 | 11.7 mph | 14 | SSW (204°) | 99745 | 101897 | 25.1°C | 70.4% | 19.3°C | 2955ft (901m) | 12.7v | 31 |
| 1403 | 14 Apr 23:23:23 | 6 | 6.9 mph | 9 | SSW (209°) | 99748 | 101900 | 25.1°C | 70.6% | 19.4°C | 2936ft (895m) | 12.7v | 31 |
| 1402 | 14 Apr 23:23:11 | 7 | 9.1 mph | 12 | SSW (206°) | 99747 | 101899 | 25.1°C | 70.5% | 19.4°C | 2945ft (898m) | 12.7v | 31 |
| 1401 | 14 Apr 23:23:00 | 8 | 8.9 mph | 12 | SSW (198°) | 99741 | 101892 | 25.1°C | 70.7% | 19.4°C | 2927ft (892m) | 12.7v | 31 |
| 1400 | 14 Apr 23:22:49 | 9 | 10.1 mph | 13 | SSW (202°) | 99750 | 101902 | 25.1°C | 70.5% | 19.4°C | 2945ft (898m) | 12.7v | 31 |
| 1399 | 14 Apr 23:22:38 | 8 | 8.6 mph | 11 | SSW (205°) | 99746 | 101898 | 25.1°C | 70.5% | 19.4°C | 2945ft (898m) | 12.7v | 31 |
| 1398 | 14 Apr 23:22:26 | 11 | 11.9 mph | 13 | SSW (204°) | 99743 | 101894 | 25.1°C | 70.5% | 19.4°C | 2945ft (898m) | 12.7v | 31 |
| 1397 | 14 Apr 23:22:15 | 8 | 9.9 mph | 11 | S (191°) | 99748 | 101900 | 25.1°C | 70.4% | 19.3°C | 2955ft (901m) | 12.69v | 31 |
| 1396 | 14 Apr 23:22:04 | 10 | 11 mph | 12 | SSW (198°) | 99747 | 101899 | 25.1°C | 70.2% | 19.3°C | 2973ft (906m) | 12.7v | 31 |
| 1395 | 14 Apr 23:21:53 | 7 | 8.5 mph | 11 | SSW (193°) | 99745 | 101897 | 25.1°C | 70.4% | 19.3°C | 2955ft (901m) | 12.7v | 31 |
| 1394 | 14 Apr 23:21:41 | 8 | 9.2 mph | 12 | SW (227°) | 99746 | 101898 | 25.1°C | 70.5% | 19.4°C | 2945ft (898m) | 12.71v | 31 |
| 1393 | 14 Apr 23:21:30 | 9 | 9 mph | 10 | SSW (208°) | 99750 | 101902 | 25.1°C | 70.5% | 19.4°C | 2945ft (898m) | 12.71v | 31 |
| 1392 | 14 Apr 23:21:19 | 8 | 8.1 mph | 11 | SSW (206°) | 99745 | 101897 | 25.1°C | 70.5% | 19.4°C | 2945ft (898m) | 12.7v | 31 |
| 1391 | 14 Apr 23:21:08 | 8 | 10.2 mph | 13 | SSW (206°) | 99746 | 101898 | 25.1°C | 70.4% | 19.3°C | 2955ft (901m) | 12.71v | 31 |
| 1390 | 14 Apr 23:20:56 | 10 | 11.2 mph | 14 | SSW (205°) | 99749 | 101901 | 25.1°C | 70.4% | 19.3°C | 2955ft (901m) | 12.7v | 31 |
| 1389 | 14 Apr 23:20:45 | 9 | 10.2 mph | 12 | SSW (208°) | 99749 | 101901 | 25.1°C | 70.2% | 19.3°C | 2973ft (906m) | 12.7v | 31 |
| 1388 | 14 Apr 23:20:34 | 6 | 7.4 mph | 11 | SSW (201°) | 99743 | 101894 | 25.1°C | 70.5% | 19.4°C | 2945ft (898m) | 12.7v | 31 |
| 1387 | 14 Apr 23:20:23 | 8 | 8.9 mph | 11 | SSW (201°) | 99744 | 101895 | 25.1°C | 70.1% | 19.3°C | 2983ft (909m) | 12.7v | 31 |
| 1386 | 14 Apr 23:20:11 | 6 | 7.1 mph | 10 | SSW (209°) | 99749 | 101901 | 25.1°C | 70.3% | 19.3°C | 2964ft (903m) | 12.71v | 31 |
| 1385 | 14 Apr 23:20:00 | 6 | 8.7 mph | 11 | SSW (205°) | 99749 | 101901 | 25.1°C | 70.2% | 19.3°C | 2973ft (906m) | 12.71v | 31 |
| 1384 | 14 Apr 23:19:49 | 8 | 8.7 mph | 11 | SSW (198°) | 99747 | 101899 | 25.1°C | 70.3% | 19.3°C | 2964ft (903m) | 12.71v | 31 |
| 1383 | 14 Apr 23:19:38 | 10 | 11.3 mph | 13 | SSW (205°) | 99745 | 101897 | 25.1°C | 70.2% | 19.3°C | 2973ft (906m) | 12.7v | 31 |
| 1382 | 14 Apr 23:19:26 | 8 | 10 mph | 12 | SSW (202°) | 99747 | 101899 | 25.1°C | 70.3% | 19.3°C | 2964ft (903m) | 12.71v | 31 |
| 1381 | 14 Apr 23:19:15 | 11 | 11.8 mph | 14 | SSW (199°) | 99747 | 101899 | 25.1°C | 70.2% | 19.3°C | 2973ft (906m) | 12.7v | 31 |
| 1380 | 14 Apr 23:19:04 | 6 | 7.5 mph | 10 | SSW (196°) | 99749 | 101901 | 25.1°C | 70.3% | 19.3°C | 2964ft (903m) | 12.7v | 31 |
| 1379 | 14 Apr 23:18:53 | 9 | 10.3 mph | 12 | SSW (202°) | 99752 | 101904 | 25.1°C | 70.2% | 19.3°C | 2973ft (906m) | 12.7v | 31 |
| 1378 | 14 Apr 23:18:41 | 8 | 8.7 mph | 11 | SSW (205°) | 99748 | 101900 | 25.1°C | 70.2% | 19.3°C | 2973ft (906m) | 12.7v | 31 |
| 1377 | 14 Apr 23:18:30 | 6 | 7.7 mph | 10 | SSW (204°) | 99747 | 101899 | 25.1°C | 70.3% | 19.3°C | 2964ft (903m) | 12.71v | 31 |
| 1376 | 14 Apr 23:18:19 | 8 | 8.8 mph | 10 | SSW (206°) | 99750 | 101902 | 25.1°C | 70.2% | 19.3°C | 2973ft (906m) | 12.72v | 31 |
| 1375 | 14 Apr 23:18:08 | 7 | 8.2 mph | 10 | SSW (203°) | 99748 | 101900 | 25.1°C | 70.2% | 19.3°C | 2973ft (906m) | 12.71v | 31 |
| 1374 | 14 Apr 23:17:56 | 6 | 6.8 mph | 8 | SSW (206°) | 99749 | 101901 | 25.1°C | 70.3% | 19.3°C | 2964ft (903m) | 12.7v | 31 |
| 1373 | 14 Apr 23:17:45 | 7 | 7.7 mph | 9 | SSW (207°) | 99750 | 101902 | 25.1°C | 70.3% | 19.3°C | 2964ft (903m) | 12.7v | 31 |
| 1372 | 14 Apr 23:17:34 | 10 | 10.4 mph | 12 | SSW (200°) | 99748 | 101900 | 25.1°C | 70.1% | 19.3°C | 2983ft (909m) | 12.7v | 31 |
| 1371 | 14 Apr 23:17:23 | 8 | 8.9 mph | 10 | SSW (203°) | 99747 | 101899 | 25.1°C | 70.2% | 19.3°C | 2973ft (906m) | 12.7v | 31 |
| 1370 | 14 Apr 23:17:11 | 8 | 9 mph | 10 | SSW (202°) | 99747 | 101899 | 25.1°C | 70.1% | 19.3°C | 2983ft (909m) | 12.7v | 31 |
| 1369 | 14 Apr 23:17:00 | 7 | 8.9 mph | 10 | SSW (210°) | 99749 | 101901 | 25.1°C | 70.1% | 19.3°C | 2983ft (909m) | 12.71v | 31 |
| 1368 | 14 Apr 23:16:49 | 6 | 8.2 mph | 10 | SSW (211°) | 99749 | 101901 | 25.1°C | 70.2% | 19.3°C | 2973ft (906m) | 12.72v | 31 |
| 1367 | 14 Apr 23:16:38 | 6 | 7 mph | 8 | SSW (212°) | 99745 | 101897 | 25.1°C | 70.3% | 19.3°C | 2964ft (903m) | 12.7v | 31 |
| 1366 | 14 Apr 23:16:26 | 6 | 8.5 mph | 11 | SSW (208°) | 99748 | 101900 | 25.1°C | 70.2% | 19.3°C | 2973ft (906m) | 12.7v | 31 |
| 1365 | 14 Apr 23:16:15 | 10 | 11 mph | 12 | SSW (202°) | 99749 | 101901 | 25.1°C | 70.2% | 19.3°C | 2973ft (906m) | 12.7v | 31 |
| 1364 | 14 Apr 23:16:04 | 7 | 9.1 mph | 11 | SSW (198°) | 99749 | 101901 | 25.1°C | 70.2% | 19.3°C | 2973ft (906m) | 12.7v | 31 |
| 1363 | 14 Apr 23:15:53 | 8 | 9.3 mph | 12 | SSW (201°) | 99746 | 101898 | 25.1°C | 70.2% | 19.3°C | 2973ft (906m) | 12.7v | 31 |
| 1362 | 14 Apr 23:15:41 | 7 | 8.4 mph | 11 | SSW (192°) | 99751 | 101903 | 25.1°C | 70.2% | 19.3°C | 2973ft (906m) | 12.69v | 31 |
| 1361 | 14 Apr 23:15:30 | 7 | 10.7 mph | 14 | SSW (193°) | 99751 | 101903 | 25.1°C | 70.2% | 19.3°C | 2973ft (906m) | 12.69v | 31 |
| 1360 | 14 Apr 23:15:19 | 8 | 10.4 mph | 13 | SSW (196°) | 99747 | 101899 | 25.1°C | 70.1% | 19.3°C | 2983ft (909m) | 12.71v | 31 |
| 1359 | 14 Apr 23:15:08 | 7 | 8.5 mph | 10 | SSW (212°) | 99751 | 101903 | 25.1°C | 70.2% | 19.3°C | 2973ft (906m) | 12.71v | 31 |
| 1358 | 14 Apr 23:14:56 | 7 | 7.5 mph | 8 | SSW (199°) | 99751 | 101903 | 25.1°C | 70.3% | 19.3°C | 2964ft (903m) | 12.71v | 31 |
| 1357 | 14 Apr 23:14:45 | 6 | 7.6 mph | 11 | SSW (206°) | 99748 | 101900 | 25.1°C | 70.2% | 19.3°C | 2973ft (906m) | 12.71v | 31 |
| 1356 | 14 Apr 23:14:34 | 9 | 9.4 mph | 10 | SSW (200°) | 99751 | 101903 | 25.1°C | 70.1% | 19.3°C | 2983ft (909m) | 12.7v | 31 |
| 1355 | 14 Apr 23:14:23 | 8 | 9.5 mph | 13 | SSW (209°) | 99754 | 101906 | 25.1°C | 70.1% | 19.3°C | 2983ft (909m) | 12.7v | 31 |
| 1354 | 14 Apr 23:14:11 | 8 | 9.8 mph | 11 | SSW (201°) | 99753 | 101905 | 25.1°C | 70.1% | 19.3°C | 2983ft (909m) | 12.7v | 31 |
| 1353 | 14 Apr 23:14:00 | 9 | 10.8 mph | 13 | SSW (196°) | 99751 | 101903 | 25.1°C | 70.2% | 19.3°C | 2973ft (906m) | 12.71v | 31 |
| 1352 | 14 Apr 23:13:49 | 7 | 9.2 mph | 12 | SSW (199°) | 99751 | 101903 | 25.1°C | 70.1% | 19.3°C | 2983ft (909m) | 12.7v | 31 |
| 1351 | 14 Apr 23:13:38 | 7 | 9.1 mph | 12 | SSW (198°) | 99750 | 101902 | 25.1°C | 70.2% | 19.3°C | 2973ft (906m) | 12.71v | 31 |
| 1350 | 14 Apr 23:13:26 | 7 | 7.9 mph | 10 | SSW (211°) | 99753 | 101905 | 25.1°C | 70.1% | 19.3°C | 2983ft (909m) | 12.7v | 31 |
| 1349 | 14 Apr 23:13:15 | 8 | 8.9 mph | 10 | SSW (209°) | 99752 | 101904 | 25.1°C | 70.1% | 19.3°C | 2983ft (909m) | 12.71v | 31 |
| 1348 | 14 Apr 23:13:04 | 8 | 9.9 mph | 12 | SSW (201°) | 99751 | 101903 | 25.1°C | 70.2% | 19.3°C | 2973ft (906m) | 12.69v | 31 |
| 1347 | 14 Apr 23:12:53 | 6 | 8.1 mph | 9 | SSW (207°) | 99750 | 101902 | 25.1°C | 70.3% | 19.3°C | 2964ft (903m) | 12.69v | 31 |
| 1346 | 14 Apr 23:12:41 | 7 | 8.9 mph | 11 | SSW (208°) | 99754 | 101906 | 25.1°C | 70.2% | 19.3°C | 2973ft (906m) | 12.72v | 31 |
| 1345 | 14 Apr 23:12:30 | 6 | 8.1 mph | 11 | SSW (209°) | 99751 | 101903 | 25.1°C | 70.1% | 19.3°C | 2983ft (909m) | 12.7v | 31 |
| 1344 | 14 Apr 23:12:19 | 7 | 7.6 mph | 8 | SSW (213°) | 99751 | 101903 | 25.1°C | 70.2% | 19.3°C | 2973ft (906m) | 12.71v | 31 |
| 1343 | 14 Apr 23:12:08 | 5 | 6.9 mph | 9 | SSW (204°) | 99754 | 101906 | 25.1°C | 70.2% | 19.3°C | 2973ft (906m) | 12.72v | 31 |
| 1342 | 14 Apr 23:11:56 | 7 | 8.5 mph | 12 | SSW (201°) | 99754 | 101906 | 25.1°C | 70.2% | 19.3°C | 2973ft (906m) | 12.7v | 31 |
| 1341 | 14 Apr 23:11:45 | 10 | 12.4 mph | 14 | SSW (195°) | 99744 | 101895 | 25°C | 70.2% | 19.2°C | 2972ft (906m) | 12.71v | 31 |
| 1340 | 14 Apr 23:11:34 | 10 | 12.3 mph | 14 | SSW (201°) | 99753 | 101905 | 25.1°C | 70.1% | 19.3°C | 2983ft (909m) | 12.71v | 31 |
| 1339 | 14 Apr 23:11:23 | 6 | 7.6 mph | 9 | SSW (200°) | 99752 | 101904 | 25.1°C | 70.2% | 19.3°C | 2973ft (906m) | 12.7v | 31 |
| 1338 | 14 Apr 23:11:11 | 7 | 8.7 mph | 11 | SSW (205°) | 99750 | 101902 | 25.1°C | 70.2% | 19.3°C | 2973ft (906m) | 12.69v | 31 |
| 1337 | 14 Apr 23:11:00 | 7 | 8.3 mph | 10 | SSW (207°) | 99756 | 101908 | 25.1°C | 70.1% | 19.3°C | 2983ft (909m) | 12.7v | 31 |
| 1336 | 14 Apr 23:10:49 | 9 | 9.5 mph | 12 | SSW (203°) | 99752 | 101904 | 25.1°C | 69.9% | 19.2°C | 3002ft (915m) | 12.71v | 31 |
| 1335 | 14 Apr 23:10:38 | 9 | 9.7 mph | 11 | SSW (202°) | 99754 | 101906 | 25.1°C | 70.1% | 19.3°C | 2983ft (909m) | 12.71v | 31 |
| 1334 | 14 Apr 23:10:26 | 9 | 11.8 mph | 14 | SSW (195°) | 99753 | 101905 | 25.1°C | 70% | 19.2°C | 2992ft (912m) | 12.71v | 31 |
| 1333 | 14 Apr 23:10:15 | 6 | 7.8 mph | 10 | SSW (195°) | 99754 | 101906 | 25.1°C | 70.2% | 19.3°C | 2973ft (906m) | 12.71v | 31 |
| 1332 | 14 Apr 23:10:04 | 6 | 8 mph | 9 | SSW (196°) | 99754 | 101906 | 25.1°C | 70.2% | 19.3°C | 2973ft (906m) | 12.7v | 31 |
| 1331 | 14 Apr 23:09:53 | 8 | 8.7 mph | 11 | SW (215°) | 99753 | 101905 | 25.1°C | 70.1% | 19.3°C | 2983ft (909m) | 12.7v | 31 |
| 1330 | 14 Apr 23:09:41 | 8 | 9.4 mph | 12 | SSW (196°) | 99755 | 101907 | 25.1°C | 70.2% | 19.3°C | 2973ft (906m) | 12.71v | 31 |
| 1329 | 14 Apr 23:09:30 | 9 | 10.7 mph | 12 | SSW (208°) | 99756 | 101908 | 25.1°C | 70% | 19.2°C | 2992ft (912m) | 12.72v | 31 |
| 1328 | 14 Apr 23:09:19 | 11 | 11.6 mph | 13 | SSW (203°) | 99756 | 101908 | 25.1°C | 70% | 19.2°C | 2992ft (912m) | 12.72v | 31 |
| 1327 | 14 Apr 23:09:08 | 9 | 11 mph | 13 | SSW (204°) | 99749 | 101901 | 25.1°C | 70.1% | 19.3°C | 2983ft (909m) | 12.71v | 31 |
| 1326 | 14 Apr 23:08:56 | 7 | 8.5 mph | 10 | SW (218°) | 99757 | 101909 | 25.1°C | 70.1% | 19.3°C | 2983ft (909m) | 12.72v | 31 |
| 1325 | 14 Apr 23:08:45 | 7 | 7.5 mph | 8 | SSW (211°) | 99752 | 101904 | 25.1°C | 70.1% | 19.3°C | 2983ft (909m) | 12.71v | 31 |
| 1324 | 14 Apr 23:08:34 | 8 | 9.2 mph | 10 | SSW (205°) | 99753 | 101905 | 25.1°C | 70.1% | 19.3°C | 2983ft (909m) | 12.7v | 31 |
| 1323 | 14 Apr 23:08:23 | 8 | 8.5 mph | 9 | SSW (211°) | 99755 | 101907 | 25.1°C | 70% | 19.2°C | 2992ft (912m) | 12.69v | 31 |
| 1322 | 14 Apr 23:08:11 | 7 | 7.8 mph | 9 | SW (214°) | 99751 | 101903 | 25.1°C | 70.1% | 19.3°C | 2983ft (909m) | 12.71v | 31 |
| 1321 | 14 Apr 23:08:00 | 7 | 7.7 mph | 9 | SSW (213°) | 99752 | 101904 | 25.1°C | 70.2% | 19.3°C | 2973ft (906m) | 12.7v | 31 |
| 1320 | 14 Apr 23:07:49 | 9 | 11.3 mph | 14 | SSW (209°) | 99755 | 101907 | 25.1°C | 70% | 19.2°C | 2992ft (912m) | 12.69v | 31 |
| 1319 | 14 Apr 23:07:38 | 8 | 11.3 mph | 14 | SSW (203°) | 99750 | 101902 | 25.1°C | 70.1% | 19.3°C | 2983ft (909m) | 12.71v | 31 |
| 1318 | 14 Apr 23:07:26 | 8 | 9.5 mph | 11 | SW (214°) | 99753 | 101905 | 25.1°C | 70.1% | 19.3°C | 2983ft (909m) | 12.71v | 31 |
| 1317 | 14 Apr 23:07:15 | 7 | 8.3 mph | 10 | SSW (206°) | 99749 | 101901 | 25.1°C | 69.9% | 19.2°C | 3002ft (915m) | 12.7v | 31 |
| 1316 | 14 Apr 23:07:04 | 8 | 8.2 mph | 9 | SSW (210°) | 99753 | 101905 | 25.1°C | 70% | 19.2°C | 2992ft (912m) | 12.72v | 31 |
| 1315 | 14 Apr 23:06:53 | 7 | 8.7 mph | 10 | SSW (200°) | 99755 | 101907 | 25.1°C | 69.9% | 19.2°C | 3002ft (915m) | 12.69v | 31 |
| 1314 | 14 Apr 23:06:41 | 6 | 6.3 mph | 8 | SSW (212°) | 99756 | 101908 | 25.1°C | 70% | 19.2°C | 2992ft (912m) | 12.71v | 31 |
| 1313 | 14 Apr 23:06:30 | 7 | 8.1 mph | 10 | SSW (210°) | 99750 | 101902 | 25.1°C | 70% | 19.2°C | 2992ft (912m) | 12.71v | 31 |
| 1312 | 14 Apr 23:06:19 | 10 | 10.5 mph | 11 | SSW (206°) | 99748 | 101900 | 25°C | 70% | 19.1°C | 2990ft (911m) | 12.7v | 31 |
| 1311 | 14 Apr 23:06:08 | 7 | 9.1 mph | 11 | SSW (208°) | 99755 | 101907 | 25°C | 70.2% | 19.2°C | 2972ft (906m) | 12.71v | 31 |
| 1310 | 14 Apr 23:05:56 | 11 | 12.8 mph | 15 | SSW (206°) | 99746 | 101898 | 25°C | 70.1% | 19.2°C | 2981ft (909m) | 12.71v | 31 |
| 1309 | 14 Apr 23:05:45 | 11 | 12.4 mph | 14 | SSW (197°) | 99750 | 101902 | 25°C | 70.3% | 19.2°C | 2962ft (903m) | 12.71v | 31 |
| 1308 | 14 Apr 23:05:34 | 9 | 11 mph | 13 | SSW (203°) | 99748 | 101900 | 25°C | 70.2% | 19.2°C | 2972ft (906m) | 12.71v | 31 |
| 1307 | 14 Apr 23:05:23 | 11 | 12.9 mph | 15 | S (190°) | 99750 | 101902 | 25°C | 70.1% | 19.2°C | 2981ft (909m) | 12.7v | 31 |
| 1306 | 14 Apr 23:05:11 | 9 | 12.2 mph | 17 | SSW (196°) | 99749 | 101901 | 25°C | 70.1% | 19.2°C | 2981ft (909m) | 12.69v | 31 |
| 1305 | 14 Apr 23:05:00 | 11 | 12.4 mph | 15 | SSW (194°) | 99748 | 101900 | 25°C | 70.2% | 19.2°C | 2972ft (906m) | 12.71v | 31 |
| 1304 | 14 Apr 23:04:49 | 8 | 10.7 mph | 14 | SSW (204°) | 99752 | 101904 | 25°C | 70.1% | 19.2°C | 2981ft (909m) | 12.69v | 31 |
| 1303 | 14 Apr 23:04:38 | 10 | 11.7 mph | 14 | SSW (201°) | 99752 | 101904 | 25°C | 70% | 19.1°C | 2990ft (911m) | 12.71v | 31 |
| 1302 | 14 Apr 23:04:26 | 11 | 11.5 mph | 13 | SSW (207°) | 99750 | 101902 | 25°C | 70% | 19.1°C | 2990ft (911m) | 12.71v | 31 |
| 1301 | 14 Apr 23:04:15 | 8 | 10 mph | 13 | SSW (209°) | 99754 | 101906 | 25.1°C | 69.9% | 19.2°C | 3002ft (915m) | 12.69v | 31 |
| 1300 | 14 Apr 23:04:04 | 11 | 11.2 mph | 12 | SSW (205°) | 99748 | 101900 | 25.1°C | 70% | 19.2°C | 2992ft (912m) | 12.71v | 31 |
| 1299 | 14 Apr 23:03:53 | 9 | 10.2 mph | 12 | SSW (209°) | 99751 | 101903 | 25°C | 70.1% | 19.2°C | 2981ft (909m) | 12.7v | 31 |
| 1298 | 14 Apr 23:03:41 | 10 | 11.5 mph | 13 | SSW (213°) | 99754 | 101906 | 25.1°C | 70% | 19.2°C | 2992ft (912m) | 12.7v | 31 |
| 1297 | 14 Apr 23:03:30 | 10 | 10.8 mph | 14 | SSW (204°) | 99754 | 101906 | 25.1°C | 70.1% | 19.3°C | 2983ft (909m) | 12.7v | 31 |
| 1296 | 14 Apr 23:03:19 | 6 | 9.6 mph | 13 | SSW (211°) | 99758 | 101910 | 25.1°C | 69.9% | 19.2°C | 3002ft (915m) | 12.71v | 31 |
| 1295 | 14 Apr 23:03:08 | 6 | 6.6 mph | 8 | SW (220°) | 99753 | 101905 | 25.1°C | 69.9% | 19.2°C | 3002ft (915m) | 12.71v | 31 |
| 1294 | 14 Apr 23:02:56 | 7 | 8.8 mph | 11 | SSW (205°) | 99755 | 101907 | 25.1°C | 70% | 19.2°C | 2992ft (912m) | 12.72v | 31 |
| 1293 | 14 Apr 23:02:45 | 9 | 9.7 mph | 14 | SW (216°) | 99751 | 101903 | 25°C | 69.9% | 19.1°C | 3000ft (914m) | 12.72v | 31 |
| 1292 | 14 Apr 23:02:34 | 9 | 11.6 mph | 16 | SSW (202°) | 99753 | 101905 | 25°C | 69.9% | 19.1°C | 3000ft (914m) | 12.72v | 31 |
| 1291 | 14 Apr 23:02:23 | 10 | 10.9 mph | 13 | SSW (205°) | 99756 | 101908 | 25.1°C | 69.8% | 19.2°C | 3011ft (918m) | 12.69v | 31 |
| 1290 | 14 Apr 23:02:11 | 10 | 11.7 mph | 16 | SSW (203°) | 99756 | 101908 | 25°C | 69.9% | 19.1°C | 3000ft (914m) | 12.7v | 31 |
| 1289 | 14 Apr 23:02:00 | 10 | 10.8 mph | 12 | SSW (200°) | 99753 | 101905 | 25°C | 70% | 19.1°C | 2990ft (911m) | 12.71v | 31 |
| 1288 | 14 Apr 23:01:49 | 11 | 12.5 mph | 15 | SSW (202°) | 99757 | 101909 | 25.1°C | 69.9% | 19.2°C | 3002ft (915m) | 12.7v | 31 |
| 1287 | 14 Apr 23:01:38 | 8 | 10.3 mph | 13 | SSW (206°) | 99754 | 101906 | 25.1°C | 69.9% | 19.2°C | 3002ft (915m) | 12.71v | 31 |
| 1286 | 14 Apr 23:01:26 | 9 | 10.5 mph | 12 | SSW (204°) | 99755 | 101907 | 25°C | 69.9% | 19.1°C | 3000ft (914m) | 12.72v | 31 |
| 1285 | 14 Apr 23:01:15 | 6 | 8.5 mph | 12 | SSW (203°) | 99754 | 101906 | 25.1°C | 70.1% | 19.3°C | 2983ft (909m) | 12.72v | 31 |
| 1284 | 14 Apr 23:01:04 | 9 | 10 mph | 13 | SW (220°) | 99756 | 101908 | 25.1°C | 69.8% | 19.2°C | 3011ft (918m) | 12.71v | 31 |
| 1283 | 14 Apr 23:00:53 | 7 | 8 mph | 9 | SSW (209°) | 99755 | 101907 | 25.1°C | 69.9% | 19.2°C | 3002ft (915m) | 12.69v | 31 |
| 1282 | 14 Apr 23:00:41 | 9 | 10.3 mph | 12 | SSW (206°) | 99757 | 101909 | 25°C | 69.9% | 19.1°C | 3000ft (914m) | 12.7v | 31 |
| 1281 | 14 Apr 23:00:30 | 7 | 7.9 mph | 9 | SSW (212°) | 99755 | 101907 | 25°C | 70.1% | 19.2°C | 2981ft (909m) | 12.7v | 31 |
| 1280 | 14 Apr 23:00:19 | 10 | 11.1 mph | 13 | SSW (206°) | 99756 | 101908 | 25°C | 70% | 19.1°C | 2990ft (911m) | 12.71v | 31 |
| 1279 | 14 Apr 23:00:08 | 9 | 10.7 mph | 13 | SSW (199°) | 99759 | 101911 | 25°C | 70.1% | 19.2°C | 2981ft (909m) | 12.72v | 31 |
| 1278 | 14 Apr 22:59:56 | 9 | 11.4 mph | 15 | S (190°) | 99756 | 101908 | 25°C | 69.9% | 19.1°C | 3000ft (914m) | 12.72v | 31 |
| 1277 | 14 Apr 22:59:45 | 7 | 8.9 mph | 12 | S (190°) | 99755 | 101907 | 25°C | 70.1% | 19.2°C | 2981ft (909m) | 12.7v | 31 |
| 1276 | 14 Apr 22:59:34 | 9 | 11.2 mph | 14 | S (190°) | 99757 | 101909 | 25°C | 70.1% | 19.2°C | 2981ft (909m) | 12.71v | 31 |
| 1275 | 14 Apr 22:59:23 | 12 | 14 mph | 16 | SSW (193°) | 99751 | 101903 | 25°C | 70.2% | 19.2°C | 2972ft (906m) | 12.71v | 31 |
| 1274 | 14 Apr 22:59:11 | 12 | 14.4 mph | 17 | SSW (202°) | 99753 | 101905 | 25°C | 70.1% | 19.2°C | 2981ft (909m) | 12.7v | 31 |
| 1273 | 14 Apr 22:59:00 | 8 | 11.6 mph | 15 | S (191°) | 99748 | 101900 | 25°C | 70% | 19.1°C | 2990ft (911m) | 12.7v | 31 |
| 1272 | 14 Apr 22:58:49 | 10 | 11.3 mph | 14 | SSW (199°) | 99752 | 101904 | 25.1°C | 69.8% | 19.2°C | 3011ft (918m) | 12.72v | 31 |
| 1271 | 14 Apr 22:58:38 | 10 | 11.2 mph | 13 | S (190°) | 99754 | 101906 | 25.1°C | 69.8% | 19.2°C | 3011ft (918m) | 12.7v | 31 |
| 1270 | 14 Apr 22:58:26 | 11 | 11.6 mph | 13 | SSW (196°) | 99755 | 101907 | 25.1°C | 69.7% | 19.2°C | 3020ft (920m) | 12.72v | 31 |
| 1269 | 14 Apr 22:58:15 | 7 | 9 mph | 12 | SSW (206°) | 99759 | 101911 | 25.1°C | 69.6% | 19.1°C | 3030ft (924m) | 12.72v | 31 |
| 1268 | 14 Apr 22:58:04 | 8 | 10.6 mph | 12 | SSW (209°) | 99757 | 101909 | 25.1°C | 69.6% | 19.1°C | 3030ft (924m) | 12.7v | 31 |
| 1267 | 14 Apr 22:57:53 | 6 | 8 mph | 9 | SSW (197°) | 99758 | 101910 | 25.1°C | 69.7% | 19.2°C | 3020ft (920m) | 12.71v | 31 |
| 1266 | 14 Apr 22:57:41 | 7 | 7.2 mph | 8 | SSW (202°) | 99759 | 101911 | 25.1°C | 69.8% | 19.2°C | 3011ft (918m) | 12.71v | 31 |
| 1265 | 14 Apr 22:57:30 | 9 | 9.9 mph | 12 | SSW (203°) | 99760 | 101912 | 25.1°C | 69.8% | 19.2°C | 3011ft (918m) | 12.7v | 31 |
| 1264 | 14 Apr 22:57:19 | 11 | 12.7 mph | 17 | S (189°) | 99755 | 101907 | 25.1°C | 69.6% | 19.1°C | 3030ft (924m) | 12.71v | 31 |
| 1263 | 14 Apr 22:57:08 | 8 | 9.3 mph | 11 | SSW (208°) | 99757 | 101909 | 25.1°C | 69.7% | 19.2°C | 3020ft (920m) | 12.7v | 31 |
| 1262 | 14 Apr 22:56:56 | 10 | 12.1 mph | 14 | SSW (210°) | 99759 | 101911 | 25.1°C | 69.5% | 19.1°C | 3039ft (926m) | 12.71v | 31 |
| 1261 | 14 Apr 22:56:45 | 9 | 10.4 mph | 12 | SSW (209°) | 99759 | 101911 | 25.1°C | 69.6% | 19.1°C | 3030ft (924m) | 12.72v | 31 |
| 1260 | 14 Apr 22:56:34 | 8 | 11.4 mph | 14 | SSW (200°) | 99755 | 101907 | 25.1°C | 69.5% | 19.1°C | 3039ft (926m) | 12.71v | 31 |
| 1259 | 14 Apr 22:56:23 | 8 | 9.8 mph | 12 | SSW (211°) | 99760 | 101912 | 25.1°C | 69.5% | 19.1°C | 3039ft (926m) | 12.72v | 31 |
| 1258 | 14 Apr 22:56:11 | 5 | 6.8 mph | 9 | SSW (210°) | 99760 | 101912 | 25.1°C | 69.7% | 19.2°C | 3020ft (920m) | 12.7v | 31 |
| 1257 | 14 Apr 22:56:00 | 8 | 8.6 mph | 10 | SSW (202°) | 99763 | 101915 | 25.1°C | 69.7% | 19.2°C | 3020ft (920m) | 12.7v | 31 |
| 1256 | 14 Apr 22:55:49 | 9 | 10.1 mph | 12 | SSW (199°) | 99763 | 101915 | 25.1°C | 69.6% | 19.1°C | 3030ft (924m) | 12.69v | 31 |
| 1255 | 14 Apr 22:55:38 | 8 | 9.3 mph | 11 | SSW (206°) | 99759 | 101911 | 25.1°C | 69.7% | 19.2°C | 3020ft (920m) | 12.71v | 31 |
| 1254 | 14 Apr 22:55:26 | 7 | 8.9 mph | 10 | SSW (205°) | 99762 | 101914 | 25°C | 69.7% | 19.1°C | 3019ft (920m) | 12.71v | 31 |
| 1253 | 14 Apr 22:55:15 | 7 | 10.1 mph | 12 | SSW (197°) | 99758 | 101910 | 25.1°C | 69.8% | 19.2°C | 3011ft (918m) | 12.71v | 31 |
| 1252 | 14 Apr 22:55:04 | 7 | 7.7 mph | 11 | SSW (192°) | 99761 | 101913 | 25°C | 69.7% | 19.1°C | 3019ft (920m) | 12.72v | 31 |
| 1251 | 14 Apr 22:54:53 | 9 | 10.3 mph | 13 | SSW (202°) | 99756 | 101908 | 25°C | 69.7% | 19.1°C | 3019ft (920m) | 12.71v | 31 |
| 1250 | 14 Apr 22:54:41 | 8 | 12.2 mph | 14 | SSW (196°) | 99757 | 101909 | 25.1°C | 69.8% | 19.2°C | 3011ft (918m) | 12.71v | 31 |
| 1249 | 14 Apr 22:54:30 | 8 | 9.2 mph | 10 | SSW (204°) | 99757 | 101909 | 25.1°C | 69.8% | 19.2°C | 3011ft (918m) | 12.7v | 31 |
| 1248 | 14 Apr 22:54:19 | 10 | 11.7 mph | 14 | SSW (212°) | 99759 | 101911 | 25.1°C | 69.8% | 19.2°C | 3011ft (918m) | 12.71v | 31 |
| 1247 | 14 Apr 22:54:08 | 9 | 11.9 mph | 14 | SSW (200°) | 99757 | 101909 | 25°C | 69.8% | 19.1°C | 3009ft (917m) | 12.7v | 31 |
| 1246 | 14 Apr 22:53:56 | 10 | 11.7 mph | 13 | SSW (196°) | 99757 | 101909 | 25°C | 69.8% | 19.1°C | 3009ft (917m) | 12.72v | 31 |
| 1245 | 14 Apr 22:53:45 | 11 | 11.4 mph | 14 | SSW (195°) | 99760 | 101912 | 25°C | 69.8% | 19.1°C | 3009ft (917m) | 12.72v | 31 |
| 1244 | 14 Apr 22:53:34 | 7 | 11.3 mph | 15 | SSW (205°) | 99760 | 101912 | 25°C | 69.9% | 19.1°C | 3000ft (914m) | 12.72v | 31 |
| 1243 | 14 Apr 22:53:23 | 12 | 15.1 mph | 17 | SSW (202°) | 99754 | 101906 | 25°C | 69.8% | 19.1°C | 3009ft (917m) | 12.72v | 31 |
| 1242 | 14 Apr 22:53:11 | 8 | 9.3 mph | 11 | SSW (201°) | 99758 | 101910 | 25°C | 69.8% | 19.1°C | 3009ft (917m) | 12.7v | 31 |
| 1241 | 14 Apr 22:53:00 | 12 | 12.5 mph | 16 | SSW (207°) | 99760 | 101912 | 25°C | 69.8% | 19.1°C | 3009ft (917m) | 12.71v | 31 |
| 1240 | 14 Apr 22:52:49 | 8 | 10.8 mph | 14 | SSW (206°) | 99759 | 101911 | 25°C | 69.7% | 19.1°C | 3019ft (920m) | 12.7v | 31 |
| 1239 | 14 Apr 22:52:38 | 5 | 6.3 mph | 7 | SSW (213°) | 99763 | 101915 | 25°C | 70% | 19.1°C | 2990ft (911m) | 12.72v | 31 |
| 1238 | 14 Apr 22:52:26 | 7 | 8.7 mph | 11 | SSW (203°) | 99760 | 101912 | 25°C | 69.9% | 19.1°C | 3000ft (914m) | 12.7v | 31 |
| 1237 | 14 Apr 22:52:15 | 10 | 12.4 mph | 13 | SSW (200°) | 99758 | 101910 | 25°C | 69.8% | 19.1°C | 3009ft (917m) | 12.71v | 31 |
| 1236 | 14 Apr 22:52:04 | 9 | 9.5 mph | 11 | SSW (194°) | 99759 | 101911 | 25°C | 69.7% | 19.1°C | 3019ft (920m) | 12.71v | 31 |
| 1235 | 14 Apr 22:51:53 | 9 | 10 mph | 14 | S (185°) | 99757 | 101909 | 25°C | 69.8% | 19.1°C | 3009ft (917m) | 12.71v | 31 |
| 1234 | 14 Apr 22:51:41 | 11 | 12 mph | 15 | SSW (197°) | 99762 | 101914 | 25°C | 69.8% | 19.1°C | 3009ft (917m) | 12.71v | 31 |
| 1233 | 14 Apr 22:51:30 | 12 | 13.9 mph | 18 | SSW (202°) | 99756 | 101908 | 25°C | 69.8% | 19.1°C | 3009ft (917m) | 12.72v | 31 |
| 1232 | 14 Apr 22:51:19 | 11 | 13.1 mph | 16 | S (191°) | 99757 | 101909 | 25°C | 69.8% | 19.1°C | 3009ft (917m) | 12.69v | 31 |
| 1231 | 14 Apr 22:51:08 | 11 | 11.4 mph | 13 | SSW (197°) | 99753 | 101905 | 25°C | 69.7% | 19.1°C | 3019ft (920m) | 12.72v | 31 |
| 1230 | 14 Apr 22:50:56 | 10 | 11.5 mph | 15 | SSW (197°) | 99753 | 101905 | 25°C | 69.9% | 19.1°C | 3000ft (914m) | 12.72v | 31 |
| 1229 | 14 Apr 22:50:45 | 12 | 14.6 mph | 18 | SSW (206°) | 99759 | 101911 | 25°C | 69.8% | 19.1°C | 3009ft (917m) | 12.7v | 31 |
| 1228 | 14 Apr 22:50:34 | 13 | 16.1 mph | 18 | SSW (211°) | 99750 | 101902 | 25°C | 69.7% | 19.1°C | 3019ft (920m) | 12.72v | 31 |
| 1227 | 14 Apr 22:50:23 | 10 | 12.1 mph | 14 | SSW (210°) | 99762 | 101914 | 25.1°C | 69.5% | 19.1°C | 3039ft (926m) | 12.71v | 31 |
| 1226 | 14 Apr 22:50:11 | 8 | 10.9 mph | 16 | SSW (198°) | 99755 | 101907 | 25.1°C | 69.4% | 19.1°C | 3049ft (929m) | 12.71v | 31 |
| 1225 | 14 Apr 22:50:00 | 7 | 7.7 mph | 9 | SSW (210°) | 99759 | 101911 | 25.1°C | 69.6% | 19.1°C | 3030ft (924m) | 12.72v | 31 |
| 1224 | 14 Apr 22:49:49 | 8 | 10.7 mph | 14 | SSW (202°) | 99760 | 101912 | 25.1°C | 69.6% | 19.1°C | 3030ft (924m) | 12.71v | 31 |
| 1223 | 14 Apr 22:49:38 | 12 | 13 mph | 15 | SSW (193°) | 99757 | 101909 | 25.1°C | 69.5% | 19.1°C | 3039ft (926m) | 12.73v | 31 |
| 1222 | 14 Apr 22:49:26 | 11 | 12.6 mph | 14 | S (190°) | 99758 | 101910 | 25°C | 69.5% | 19°C | 3037ft (926m) | 12.72v | 31 |
| 1221 | 14 Apr 22:49:15 | 7 | 9 mph | 12 | SSW (193°) | 99759 | 101911 | 25°C | 69.6% | 19.1°C | 3028ft (923m) | 12.72v | 31 |
| 1220 | 14 Apr 22:49:04 | 8 | 10.7 mph | 12 | SSW (199°) | 99761 | 101913 | 25°C | 69.5% | 19°C | 3037ft (926m) | 12.7v | 31 |
| 1219 | 14 Apr 22:48:53 | 12 | 12.8 mph | 16 | SSW (205°) | 99759 | 101911 | 25°C | 69.4% | 19°C | 3047ft (929m) | 12.71v | 31 |
| 1218 | 14 Apr 22:48:41 | 14 | 15.3 mph | 18 | S (188°) | 99748 | 101900 | 25°C | 69.4% | 19°C | 3047ft (929m) | 12.71v | 31 |
| 1217 | 14 Apr 22:48:30 | 10 | 12.7 mph | 17 | S (183°) | 99760 | 101912 | 25°C | 69.6% | 19.1°C | 3028ft (923m) | 12.71v | 31 |
| 1216 | 14 Apr 22:48:19 | 13 | 14 mph | 15 | SSW (193°) | 99757 | 101909 | 25°C | 69.6% | 19.1°C | 3028ft (923m) | 12.71v | 31 |
| 1215 | 14 Apr 22:48:08 | 10 | 12.3 mph | 15 | SSW (197°) | 99756 | 101908 | 25°C | 69.5% | 19°C | 3037ft (926m) | 12.7v | 31 |
| 1214 | 14 Apr 22:47:56 | 11 | 13 mph | 15 | SSW (198°) | 99753 | 101905 | 25.1°C | 69.5% | 19.1°C | 3039ft (926m) | 12.7v | 31 |
| 1213 | 14 Apr 22:47:45 | 10 | 11.1 mph | 12 | SSW (202°) | 99753 | 101905 | 25.1°C | 69.4% | 19.1°C | 3049ft (929m) | 12.72v | 31 |
| 1212 | 14 Apr 22:47:34 | 9 | 11.1 mph | 14 | SSW (198°) | 99755 | 101907 | 25.1°C | 69.4% | 19.1°C | 3049ft (929m) | 12.72v | 31 |
| 1211 | 14 Apr 22:47:23 | 12 | 13.9 mph | 16 | SSW (196°) | 99762 | 101914 | 25.1°C | 69.4% | 19.1°C | 3049ft (929m) | 12.7v | 31 |
| 1210 | 14 Apr 22:47:11 | 10 | 11.6 mph | 15 | SSW (204°) | 99761 | 101913 | 25.1°C | 69.2% | 19.1°C | 3068ft (935m) | 12.71v | 31 |
| 1209 | 14 Apr 22:47:00 | 13 | 14.3 mph | 16 | SSW (196°) | 99761 | 101913 | 25.1°C | 69.2% | 19.1°C | 3068ft (935m) | 12.73v | 31 |
| 1208 | 14 Apr 22:46:49 | 9 | 9.9 mph | 12 | SSW (203°) | 99756 | 101908 | 25.1°C | 69.2% | 19.1°C | 3068ft (935m) | 12.7v | 31 |
| 1207 | 14 Apr 22:46:38 | 10 | 12.1 mph | 15 | SSW (204°) | 99758 | 101910 | 25.1°C | 69.2% | 19.1°C | 3068ft (935m) | 12.71v | 31 |
| 1206 | 14 Apr 22:46:26 | 8 | 8.1 mph | 9 | SSW (204°) | 99748 | 101900 | 25.1°C | 69.2% | 19.1°C | 3068ft (935m) | 12.7v | 31 |
| 1205 | 14 Apr 22:46:15 | 8 | 8.2 mph | 9 | SSW (203°) | 99759 | 101911 | 25.1°C | 69.2% | 19.1°C | 3068ft (935m) | 12.71v | 31 |
| 1204 | 14 Apr 22:46:04 | 10 | 9.9 mph | 12 | SSW (200°) | 99759 | 101911 | 25.1°C | 69.2% | 19.1°C | 3068ft (935m) | 12.72v | 31 |
| 1203 | 14 Apr 22:45:53 | 7 | 8.9 mph | 11 | SW (218°) | 99762 | 101914 | 25.1°C | 69.4% | 19.1°C | 3049ft (929m) | 12.72v | 31 |
| 1202 | 14 Apr 22:45:41 | 11 | 11.9 mph | 13 | SSW (201°) | 99758 | 101910 | 25.1°C | 69.2% | 19.1°C | 3068ft (935m) | 12.71v | 31 |
| 1201 | 14 Apr 22:45:30 | 8 | 9.5 mph | 11 | SSW (202°) | 99754 | 101906 | 25.1°C | 69.2% | 19.1°C | 3068ft (935m) | 12.72v | 31 |
| 1200 | 14 Apr 22:45:19 | 10 | 10.3 mph | 11 | SSW (199°) | 99760 | 101912 | 25.1°C | 69.3% | 19.1°C | 3058ft (932m) | 12.71v | 31 |
| 1199 | 14 Apr 22:45:08 | 12 | 13.1 mph | 14 | SSW (199°) | 99761 | 101913 | 25.1°C | 69.4% | 19.1°C | 3049ft (929m) | 12.7v | 31 |
| 1198 | 14 Apr 22:44:56 | 10 | 11 mph | 13 | SSW (210°) | 99754 | 101906 | 25.1°C | 69.2% | 19.1°C | 3068ft (935m) | 12.72v | 31 |
| 1197 | 14 Apr 22:44:45 | 7 | 8.6 mph | 10 | SSW (202°) | 99762 | 101914 | 25.1°C | 69.3% | 19.1°C | 3058ft (932m) | 12.71v | 31 |
| 1196 | 14 Apr 22:44:34 | 10 | 12.5 mph | 15 | SSW (208°) | 99763 | 101915 | 25.1°C | 69.4% | 19.1°C | 3049ft (929m) | 12.72v | 31 |
| 1195 | 14 Apr 22:44:23 | 11 | 13.7 mph | 18 | SSW (199°) | 99768 | 101920 | 25°C | 69.2% | 19°C | 3066ft (935m) | 12.71v | 31 |
| 1194 | 14 Apr 22:44:11 | 11 | 12.8 mph | 16 | SSW (203°) | 99760 | 101912 | 25.1°C | 69.2% | 19.1°C | 3068ft (935m) | 12.71v | 31 |
| 1193 | 14 Apr 22:44:00 | 12 | 13 mph | 15 | SSW (201°) | 99743 | 101894 | 25.1°C | 69.1% | 19°C | 3077ft (938m) | 12.72v | 31 |
| 1192 | 14 Apr 22:43:49 | 11 | 12.8 mph | 16 | SSW (206°) | 99761 | 101913 | 25.1°C | 69.2% | 19.1°C | 3068ft (935m) | 12.7v | 31 |
| 1191 | 14 Apr 22:43:38 | 7 | 8.2 mph | 10 | SSW (203°) | 99760 | 101912 | 25.1°C | 69.1% | 19°C | 3077ft (938m) | 12.71v | 31 |
| 1190 | 14 Apr 22:43:26 | 8 | 9.9 mph | 13 | SSW (195°) | 99763 | 101915 | 25.1°C | 69.2% | 19.1°C | 3068ft (935m) | 12.7v | 31 |
| 1189 | 14 Apr 22:43:15 | 10 | 10.1 mph | 11 | SSW (201°) | 99754 | 101906 | 25.1°C | 69.1% | 19°C | 3077ft (938m) | 12.71v | 31 |
| 1188 | 14 Apr 22:43:04 | 7 | 9.9 mph | 13 | SSW (201°) | 99760 | 101912 | 25.1°C | 69.2% | 19.1°C | 3068ft (935m) | 12.72v | 31 |
| 1187 | 14 Apr 22:42:53 | 11 | 11.7 mph | 13 | SSW (199°) | 99756 | 101908 | 25.1°C | 69.2% | 19.1°C | 3068ft (935m) | 12.73v | 31 |
| 1186 | 14 Apr 22:42:41 | 11 | 12.1 mph | 14 | SSW (196°) | 99760 | 101912 | 25°C | 69.2% | 19°C | 3066ft (935m) | 12.72v | 31 |
| 1185 | 14 Apr 22:42:30 | 8 | 10.1 mph | 12 | SSW (207°) | 99764 | 101916 | 25.1°C | 69.1% | 19°C | 3077ft (938m) | 12.72v | 31 |
| 1184 | 14 Apr 22:42:19 | 9 | 11 mph | 15 | SSW (194°) | 99761 | 101913 | 25.1°C | 69.1% | 19°C | 3077ft (938m) | 12.7v | 31 |
| 1183 | 14 Apr 22:42:08 | 11 | 13.3 mph | 15 | SSW (201°) | 99756 | 101908 | 25.1°C | 69.1% | 19°C | 3077ft (938m) | 12.71v | 31 |
| 1182 | 14 Apr 22:41:56 | 13 | 15 mph | 18 | SSW (200°) | 99756 | 101908 | 25.1°C | 69.1% | 19°C | 3077ft (938m) | 12.71v | 31 |
| 1181 | 14 Apr 22:41:45 | 8 | 9.4 mph | 13 | SW (218°) | 99763 | 101915 | 25.1°C | 69% | 19°C | 3087ft (941m) | 12.7v | 31 |
| 1180 | 14 Apr 22:41:34 | 7 | 9.4 mph | 11 | SSW (213°) | 99762 | 101914 | 25.1°C | 69.1% | 19°C | 3077ft (938m) | 12.73v | 31 |
| 1179 | 14 Apr 22:41:23 | 5 | 6.7 mph | 8 | SSW (209°) | 99762 | 101914 | 25.1°C | 69.2% | 19.1°C | 3068ft (935m) | 12.71v | 31 |
| 1178 | 14 Apr 22:41:11 | 7 | 6.9 mph | 10 | SW (223°) | 99762 | 101914 | 25.1°C | 69.1% | 19°C | 3077ft (938m) | 12.72v | 31 |
| 1177 | 14 Apr 22:41:00 | 6 | 7.2 mph | 10 | SSW (210°) | 99760 | 101912 | 25.1°C | 69% | 19°C | 3087ft (941m) | 12.71v | 31 |
| 1176 | 14 Apr 22:40:49 | 8 | 8.9 mph | 10 | SSW (202°) | 99762 | 101914 | 25.1°C | 69.1% | 19°C | 3077ft (938m) | 12.7v | 31 |
| 1175 | 14 Apr 22:40:38 | 7 | 7.3 mph | 8 | SSW (207°) | 99764 | 101916 | 25.1°C | 69.2% | 19.1°C | 3068ft (935m) | 12.71v | 31 |
| 1174 | 14 Apr 22:40:26 | 9 | 9.9 mph | 11 | SSW (203°) | 99759 | 101911 | 25.1°C | 69% | 19°C | 3087ft (941m) | 12.71v | 31 |
| 1173 | 14 Apr 22:40:15 | 11 | 11.7 mph | 13 | SSW (208°) | 99760 | 101912 | 25.1°C | 69% | 19°C | 3087ft (941m) | 12.71v | 31 |
| 1172 | 14 Apr 22:40:04 | 10 | 11.4 mph | 14 | SSW (204°) | 99755 | 101907 | 25.1°C | 69% | 19°C | 3087ft (941m) | 12.74v | 31 |
| 1171 | 14 Apr 22:39:53 | 7 | 8.7 mph | 11 | SSW (208°) | 99762 | 101914 | 25.1°C | 69% | 19°C | 3087ft (941m) | 12.71v | 31 |
| 1170 | 14 Apr 22:39:41 | 11 | 11.5 mph | 13 | SSW (204°) | 99764 | 101916 | 25.1°C | 69% | 19°C | 3087ft (941m) | 12.71v | 31 |
| 1169 | 14 Apr 22:39:30 | 11 | 11.1 mph | 12 | S (191°) | 99761 | 101913 | 25.1°C | 68.9% | 19°C | 3096ft (944m) | 12.71v | 31 |
| 1168 | 14 Apr 22:39:19 | 7 | 8.1 mph | 11 | SSW (204°) | 99764 | 101916 | 25.1°C | 69.1% | 19°C | 3077ft (938m) | 12.71v | 31 |
| 1167 | 14 Apr 22:39:08 | 7 | 7.8 mph | 10 | SSW (204°) | 99762 | 101914 | 25.1°C | 69.1% | 19°C | 3077ft (938m) | 12.72v | 31 |
| 1166 | 14 Apr 22:38:56 | 7 | 8.1 mph | 9 | SSW (197°) | 99762 | 101914 | 25.1°C | 69.2% | 19.1°C | 3068ft (935m) | 12.71v | 31 |
| 1165 | 14 Apr 22:38:45 | 11 | 11.8 mph | 13 | SSW (206°) | 99758 | 101910 | 25.1°C | 69.1% | 19°C | 3077ft (938m) | 12.72v | 31 |
| 1164 | 14 Apr 22:38:34 | 8 | 10.4 mph | 15 | SSW (202°) | 99767 | 101919 | 25.1°C | 69.1% | 19°C | 3077ft (938m) | 12.73v | 31 |
| 1163 | 14 Apr 22:38:23 | 6 | 7.8 mph | 10 | SW (220°) | 99762 | 101914 | 25.1°C | 69.1% | 19°C | 3077ft (938m) | 12.73v | 31 |
| 1162 | 14 Apr 22:38:11 | 10 | 11.8 mph | 14 | SSW (208°) | 99757 | 101909 | 25°C | 69.2% | 19°C | 3066ft (935m) | 12.71v | 31 |
| 1161 | 14 Apr 22:38:00 | 13 | 14.1 mph | 17 | SSW (208°) | 99759 | 101911 | 25.1°C | 69.1% | 19°C | 3077ft (938m) | 12.72v | 31 |
| 1160 | 14 Apr 22:37:49 | 9 | 11.4 mph | 13 | SSW (203°) | 99754 | 101906 | 25.1°C | 68.9% | 19°C | 3096ft (944m) | 12.71v | 31 |
| 1159 | 14 Apr 22:37:38 | 6 | 7.6 mph | 10 | SSW (204°) | 99762 | 101914 | 25.1°C | 69.1% | 19°C | 3077ft (938m) | 12.71v | 31 |
| 1158 | 14 Apr 22:37:26 | 8 | 9.1 mph | 10 | SW (217°) | 99762 | 101914 | 25.1°C | 69.1% | 19°C | 3077ft (938m) | 12.7v | 31 |
| 1157 | 14 Apr 22:37:15 | 9 | 8.9 mph | 11 | SSW (212°) | 99761 | 101913 | 25.1°C | 69.1% | 19°C | 3077ft (938m) | 12.71v | 31 |
| 1156 | 14 Apr 22:37:04 | 10 | 11.1 mph | 13 | SSW (200°) | 99762 | 101914 | 25.1°C | 69.2% | 19.1°C | 3068ft (935m) | 12.71v | 31 |
| 1155 | 14 Apr 22:36:53 | 11 | 12.9 mph | 15 | S (186°) | 99755 | 101907 | 25°C | 69% | 18.9°C | 3085ft (940m) | 12.71v | 31 |
| 1154 | 14 Apr 22:36:41 | 12 | 13.1 mph | 18 | SSW (207°) | 99756 | 101908 | 25.1°C | 69% | 19°C | 3087ft (941m) | 12.72v | 31 |
| 1153 | 14 Apr 22:36:30 | 8 | 9.5 mph | 14 | SSW (206°) | 99761 | 101913 | 25.1°C | 68.9% | 19°C | 3096ft (944m) | 12.73v | 31 |
| 1152 | 14 Apr 22:36:19 | 9 | 9.8 mph | 12 | SSW (202°) | 99764 | 101916 | 25.1°C | 68.9% | 19°C | 3096ft (944m) | 12.71v | 31 |
| 1151 | 14 Apr 22:36:08 | 10 | 10.5 mph | 11 | SSW (207°) | 99761 | 101913 | 25.1°C | 69% | 19°C | 3087ft (941m) | 12.71v | 31 |
| 1150 | 14 Apr 22:35:56 | 11 | 11.4 mph | 12 | SSW (206°) | 99765 | 101917 | 25.1°C | 68.9% | 19°C | 3096ft (944m) | 12.7v | 31 |
| 1149 | 14 Apr 22:35:45 | 11 | 12.8 mph | 15 | SSW (196°) | 99762 | 101914 | 25.1°C | 68.8% | 19°C | 3106ft (947m) | 12.7v | 31 |
| 1148 | 14 Apr 22:35:34 | 8 | 10.4 mph | 13 | SSW (201°) | 99759 | 101911 | 25.1°C | 68.8% | 19°C | 3106ft (947m) | 12.71v | 31 |
| 1147 | 14 Apr 22:35:23 | 8 | 10.3 mph | 15 | SSW (199°) | 99765 | 101917 | 25.1°C | 68.8% | 19°C | 3106ft (947m) | 12.72v | 31 |
| 1146 | 14 Apr 22:35:11 | 7 | 8.8 mph | 10 | SW (214°) | 99762 | 101914 | 25.1°C | 68.8% | 19°C | 3106ft (947m) | 12.72v | 31 |
| 1145 | 14 Apr 22:35:00 | 8 | 8.3 mph | 10 | SSW (206°) | 99765 | 101917 | 25.1°C | 68.9% | 19°C | 3096ft (944m) | 12.72v | 31 |
| 1144 | 14 Apr 22:34:49 | 10 | 10.9 mph | 12 | SSW (195°) | 99760 | 101912 | 25.1°C | 69% | 19°C | 3087ft (941m) | 12.7v | 31 |
| 1143 | 14 Apr 22:34:38 | 11 | 12.6 mph | 15 | SSW (198°) | 99758 | 101910 | 25.1°C | 68.8% | 19°C | 3106ft (947m) | 12.71v | 31 |
| 1142 | 14 Apr 22:34:26 | 14 | 13.7 mph | 16 | SSW (192°) | 99756 | 101908 | 25.1°C | 68.9% | 19°C | 3096ft (944m) | 12.71v | 31 |
| 1141 | 14 Apr 22:34:15 | 11 | 11.4 mph | 13 | SSW (207°) | 99750 | 101902 | 25.1°C | 68.8% | 19°C | 3106ft (947m) | 12.72v | 31 |
| 1140 | 14 Apr 22:34:04 | 9 | 11.8 mph | 15 | SSW (200°) | 99757 | 101909 | 25.1°C | 68.9% | 19°C | 3096ft (944m) | 12.71v | 31 |
| 1139 | 14 Apr 22:33:53 | 10 | 12.2 mph | 15 | SSW (208°) | 99755 | 101907 | 25.1°C | 68.7% | 18.9°C | 3115ft (949m) | 12.72v | 31 |
| 1138 | 14 Apr 22:33:41 | 11 | 13 mph | 14 | SSW (201°) | 99759 | 101911 | 25.1°C | 68.7% | 18.9°C | 3115ft (949m) | 12.71v | 31 |
| 1137 | 14 Apr 22:33:30 | 8 | 9.4 mph | 15 | SSW (204°) | 99752 | 101904 | 25.1°C | 68.6% | 18.9°C | 3125ft (953m) | 12.72v | 31 |
| 1136 | 14 Apr 22:33:19 | 8 | 9.3 mph | 12 | SSW (207°) | 99762 | 101914 | 25.1°C | 68.7% | 18.9°C | 3115ft (949m) | 12.72v | 31 |
| 1135 | 14 Apr 22:33:08 | 8 | 8.4 mph | 10 | SSW (209°) | 99759 | 101911 | 25.1°C | 68.8% | 19°C | 3106ft (947m) | 12.73v | 31 |
| 1134 | 14 Apr 22:32:56 | 8 | 8.8 mph | 10 | SSW (203°) | 99763 | 101915 | 25.1°C | 68.8% | 19°C | 3106ft (947m) | 12.71v | 31 |
| 1133 | 14 Apr 22:32:45 | 9 | 10.1 mph | 12 | SSW (209°) | 99761 | 101913 | 25.1°C | 68.7% | 18.9°C | 3115ft (949m) | 12.72v | 31 |
| 1132 | 14 Apr 22:32:34 | 8 | 8.5 mph | 9 | SSW (213°) | 99760 | 101912 | 25.1°C | 68.7% | 18.9°C | 3115ft (949m) | 12.7v | 31 |
| 1131 | 14 Apr 22:32:23 | 9 | 8.9 mph | 9 | SSW (209°) | 99764 | 101916 | 25.1°C | 68.8% | 19°C | 3106ft (947m) | 12.73v | 31 |
| 1130 | 14 Apr 22:32:11 | 7 | 7.6 mph | 10 | SW (215°) | 99755 | 101907 | 25.1°C | 68.7% | 18.9°C | 3115ft (949m) | 12.72v | 31 |
| 1129 | 14 Apr 22:32:00 | 7 | 8.4 mph | 10 | SW (219°) | 99760 | 101912 | 25.1°C | 68.9% | 19°C | 3096ft (944m) | 12.73v | 31 |
| 1128 | 14 Apr 22:31:49 | 10 | 10.9 mph | 12 | SSW (205°) | 99765 | 101917 | 25.1°C | 68.8% | 19°C | 3106ft (947m) | 12.72v | 31 |
| 1127 | 14 Apr 22:31:38 | 9 | 10.9 mph | 13 | SW (214°) | 99758 | 101910 | 25.1°C | 68.8% | 19°C | 3106ft (947m) | 12.71v | 31 |
| 1126 | 14 Apr 22:31:26 | 10 | 13 mph | 16 | SSW (203°) | 99756 | 101908 | 25.1°C | 68.7% | 18.9°C | 3115ft (949m) | 12.7v | 31 |
| 1125 | 14 Apr 22:31:15 | 11 | 13.9 mph | 16 | SSW (198°) | 99761 | 101913 | 25.1°C | 68.7% | 18.9°C | 3115ft (949m) | 12.72v | 31 |
| 1124 | 14 Apr 22:31:04 | 9 | 10.3 mph | 12 | SW (215°) | 99761 | 101913 | 25.1°C | 68.7% | 18.9°C | 3115ft (949m) | 12.7v | 31 |
| 1123 | 14 Apr 22:30:53 | 10 | 11.3 mph | 13 | SSW (204°) | 99757 | 101909 | 25.1°C | 68.6% | 18.9°C | 3125ft (953m) | 12.71v | 31 |
| 1122 | 14 Apr 22:30:41 | 9 | 9.7 mph | 11 | SSW (201°) | 99758 | 101910 | 25.1°C | 68.6% | 18.9°C | 3125ft (953m) | 12.72v | 31 |
| 1121 | 14 Apr 22:30:30 | 8 | 9.3 mph | 12 | SSW (210°) | 99756 | 101908 | 25.1°C | 68.7% | 18.9°C | 3115ft (949m) | 12.73v | 31 |
| 1120 | 14 Apr 22:30:19 | 7 | 8.2 mph | 10 | SW (215°) | 99764 | 101916 | 25.1°C | 68.7% | 18.9°C | 3115ft (949m) | 12.71v | 31 |
| 1119 | 14 Apr 22:30:08 | 10 | 10.7 mph | 12 | SSW (207°) | 99758 | 101910 | 25.1°C | 68.7% | 18.9°C | 3115ft (949m) | 12.71v | 31 |
| 1118 | 14 Apr 22:29:56 | 10 | 11.3 mph | 13 | SSW (209°) | 99761 | 101913 | 25.1°C | 68.7% | 18.9°C | 3115ft (949m) | 12.71v | 31 |
| 1117 | 14 Apr 22:29:45 | 9 | 10.2 mph | 12 | SSW (206°) | 99760 | 101912 | 25.1°C | 68.7% | 18.9°C | 3115ft (949m) | 12.71v | 31 |
| 1116 | 14 Apr 22:29:34 | 8 | 9.4 mph | 11 | SSW (208°) | 99758 | 101910 | 25.1°C | 68.6% | 18.9°C | 3125ft (953m) | 12.72v | 31 |
| 1115 | 14 Apr 22:29:23 | 8 | 9.4 mph | 12 | SSW (204°) | 99762 | 101914 | 25.1°C | 68.8% | 19°C | 3106ft (947m) | 12.72v | 31 |
| 1114 | 14 Apr 22:29:11 | 6 | 6 mph | 7 | SSW (208°) | 99763 | 101915 | 25.1°C | 68.9% | 19°C | 3096ft (944m) | 12.73v | 31 |
| 1113 | 14 Apr 22:29:00 | 8 | 8.6 mph | 11 | SW (223°) | 99762 | 101914 | 25.1°C | 68.8% | 19°C | 3106ft (947m) | 12.73v | 31 |
| 1112 | 14 Apr 22:28:49 | 9 | 10.2 mph | 13 | SSW (203°) | 99764 | 101916 | 25.1°C | 68.8% | 19°C | 3106ft (947m) | 12.72v | 31 |
| 1111 | 14 Apr 22:28:38 | 8 | 9 mph | 11 | SSW (207°) | 99760 | 101912 | 25.1°C | 68.6% | 18.9°C | 3125ft (953m) | 12.73v | 31 |
| 1110 | 14 Apr 22:28:26 | 6 | 7.5 mph | 9 | SSW (208°) | 99764 | 101916 | 25.1°C | 68.7% | 18.9°C | 3115ft (949m) | 12.72v | 31 |
| 1109 | 14 Apr 22:28:15 | 8 | 8.5 mph | 10 | SSW (202°) | 99763 | 101915 | 25.1°C | 68.4% | 18.9°C | 3144ft (958m) | 12.72v | 31 |
| 1108 | 14 Apr 22:28:04 | 6 | 8 mph | 11 | SSW (203°) | 99762 | 101914 | 25.1°C | 68.5% | 18.9°C | 3135ft (956m) | 12.72v | 31 |
| 1107 | 14 Apr 22:27:53 | 7 | 8.4 mph | 10 | SSW (208°) | 99764 | 101916 | 25.1°C | 68.5% | 18.9°C | 3135ft (956m) | 12.72v | 31 |
| 1106 | 14 Apr 22:27:41 | 7 | 7.8 mph | 9 | SSW (204°) | 99763 | 101915 | 25.1°C | 68.6% | 18.9°C | 3125ft (953m) | 12.72v | 31 |
| 1105 | 14 Apr 22:27:30 | 8 | 8.8 mph | 10 | SSW (210°) | 99765 | 101917 | 25.1°C | 68.7% | 18.9°C | 3115ft (949m) | 12.73v | 31 |
| 1104 | 14 Apr 22:27:19 | 9 | 10.6 mph | 13 | SSW (208°) | 99763 | 101915 | 25.1°C | 68.6% | 18.9°C | 3125ft (953m) | 12.73v | 31 |
| 1103 | 14 Apr 22:27:08 | 10 | 10.8 mph | 12 | SSW (199°) | 99764 | 101916 | 25.1°C | 68.5% | 18.9°C | 3135ft (956m) | 12.73v | 31 |
| 1102 | 14 Apr 22:26:56 | 11 | 11.7 mph | 13 | SSW (207°) | 99763 | 101915 | 25.1°C | 68.6% | 18.9°C | 3125ft (953m) | 12.73v | 31 |
| 1101 | 14 Apr 22:26:45 | 10 | 12.9 mph | 16 | SSW (196°) | 99761 | 101913 | 25.1°C | 68.5% | 18.9°C | 3135ft (956m) | 12.71v | 31 |
| 1100 | 14 Apr 22:26:34 | 11 | 12 mph | 14 | SSW (202°) | 99762 | 101914 | 25.1°C | 68.6% | 18.9°C | 3125ft (953m) | 12.71v | 31 |
| 1099 | 14 Apr 22:26:23 | 14 | 14.8 mph | 16 | SSW (207°) | 99762 | 101914 | 25.1°C | 68.5% | 18.9°C | 3135ft (956m) | 12.72v | 31 |
| 1098 | 14 Apr 22:26:11 | 8 | 10.2 mph | 15 | SSW (205°) | 99761 | 101913 | 25.1°C | 68.5% | 18.9°C | 3135ft (956m) | 12.72v | 31 |
| 1097 | 14 Apr 22:26:00 | 7 | 7.6 mph | 9 | SSW (213°) | 99764 | 101916 | 25.1°C | 68.7% | 18.9°C | 3115ft (949m) | 12.72v | 31 |
| 1096 | 14 Apr 22:25:49 | 8 | 8.9 mph | 11 | SW (214°) | 99766 | 101918 | 25.1°C | 68.7% | 18.9°C | 3115ft (949m) | 12.71v | 31 |
| 1095 | 14 Apr 22:25:38 | 8 | 9.7 mph | 11 | SSW (205°) | 99764 | 101916 | 25.1°C | 68.5% | 18.9°C | 3135ft (956m) | 12.71v | 31 |
| 1094 | 14 Apr 22:25:26 | 7 | 8.9 mph | 10 | SSW (201°) | 99765 | 101917 | 25.1°C | 68.6% | 18.9°C | 3125ft (953m) | 12.71v | 31 |
| 1093 | 14 Apr 22:25:15 | 7 | 8.5 mph | 11 | SSW (201°) | 99767 | 101919 | 25.1°C | 68.7% | 18.9°C | 3115ft (949m) | 12.71v | 31 |
| 1092 | 14 Apr 22:25:04 | 7 | 10.4 mph | 14 | SSW (210°) | 99760 | 101912 | 25.1°C | 68.6% | 18.9°C | 3125ft (953m) | 12.71v | 31 |
| 1091 | 14 Apr 22:24:53 | 7 | 7.9 mph | 10 | SSW (208°) | 99763 | 101915 | 25.1°C | 68.7% | 18.9°C | 3115ft (949m) | 12.71v | 31 |
| 1090 | 14 Apr 22:24:41 | 10 | 11.1 mph | 12 | SSW (204°) | 99764 | 101916 | 25.1°C | 68.7% | 18.9°C | 3115ft (949m) | 12.73v | 31 |
| 1089 | 14 Apr 22:24:30 | 10 | 12.2 mph | 15 | SSW (203°) | 99765 | 101917 | 25.1°C | 68.5% | 18.9°C | 3135ft (956m) | 12.73v | 31 |
| 1088 | 14 Apr 22:24:19 | 9 | 10.9 mph | 14 | SSW (210°) | 99761 | 101913 | 25.1°C | 68.6% | 18.9°C | 3125ft (953m) | 12.72v | 31 |
| 1087 | 14 Apr 22:24:08 | 9 | 10.3 mph | 11 | SSW (200°) | 99764 | 101916 | 25.1°C | 68.7% | 18.9°C | 3115ft (949m) | 12.72v | 31 |
| 1086 | 14 Apr 22:23:56 | 9 | 13.1 mph | 15 | SSW (195°) | 99760 | 101912 | 25.1°C | 68.6% | 18.9°C | 3125ft (953m) | 12.72v | 31 |
| 1085 | 14 Apr 22:23:45 | 9 | 13 mph | 17 | SSW (196°) | 99767 | 101919 | 25°C | 68.8% | 18.9°C | 3104ft (946m) | 12.72v | 31 |
| 1084 | 14 Apr 22:23:34 | 12 | 13.3 mph | 16 | SSW (209°) | 99766 | 101918 | 25°C | 68.6% | 18.8°C | 3123ft (952m) | 12.72v | 31 |
| 1083 | 14 Apr 22:23:23 | 8 | 11.1 mph | 15 | SSW (200°) | 99754 | 101906 | 25°C | 68.7% | 18.8°C | 3114ft (949m) | 12.72v | 31 |
| 1082 | 14 Apr 22:23:11 | 9 | 11.2 mph | 13 | SSW (200°) | 99764 | 101916 | 25°C | 68.8% | 18.9°C | 3104ft (946m) | 12.73v | 31 |
| 1081 | 14 Apr 22:23:00 | 8 | 9 mph | 11 | SSW (202°) | 99766 | 101918 | 25°C | 68.8% | 18.9°C | 3104ft (946m) | 12.73v | 31 |
| 1080 | 14 Apr 22:22:49 | 8 | 9.2 mph | 11 | SW (214°) | 99766 | 101918 | 25°C | 68.7% | 18.8°C | 3114ft (949m) | 12.72v | 31 |
| 1079 | 14 Apr 22:22:38 | 9 | 10 mph | 11 | SSW (203°) | 99766 | 101918 | 25°C | 68.8% | 18.9°C | 3104ft (946m) | 12.73v | 31 |
| 1078 | 14 Apr 22:22:26 | 13 | 13.1 mph | 14 | SSW (194°) | 99759 | 101911 | 25°C | 68.8% | 18.9°C | 3104ft (946m) | 12.72v | 31 |
| 1077 | 14 Apr 22:22:15 | 10 | 12.4 mph | 14 | SSW (196°) | 99766 | 101918 | 25°C | 68.7% | 18.8°C | 3114ft (949m) | 12.71v | 31 |
| 1076 | 14 Apr 22:22:04 | 11 | 12.5 mph | 15 | SSW (200°) | 99766 | 101918 | 25°C | 68.9% | 18.9°C | 3094ft (943m) | 12.72v | 31 |
| 1075 | 14 Apr 22:21:53 | 8 | 9.3 mph | 12 | S (183°) | 99770 | 101922 | 25°C | 68.9% | 18.9°C | 3094ft (943m) | 12.72v | 31 |
| 1074 | 14 Apr 22:21:41 | 9 | 10 mph | 12 | SSW (207°) | 99770 | 101922 | 25°C | 68.7% | 18.8°C | 3114ft (949m) | 12.72v | 31 |
| 1073 | 14 Apr 22:21:30 | 9 | 10.5 mph | 12 | SSW (205°) | 99769 | 101921 | 25°C | 68.8% | 18.9°C | 3104ft (946m) | 12.72v | 31 |
| 1072 | 14 Apr 22:21:20 | 8 | 11.3 mph | 14 | SSW (211°) | 99766 | 101918 | 25°C | 68.6% | 18.8°C | 3123ft (952m) | 12.72v | 31 |
| 1071 | 14 Apr 22:21:08 | 8 | 9.3 mph | 11 | SSW (210°) | 99771 | 101923 | 25°C | 68.7% | 18.8°C | 3114ft (949m) | 12.73v | 31 |
| 1070 | 14 Apr 22:20:57 | 10 | 10.9 mph | 12 | SSW (208°) | 99764 | 101916 | 25°C | 68.7% | 18.8°C | 3114ft (949m) | 12.71v | 31 |
| 1069 | 14 Apr 22:20:46 | 13 | 14.1 mph | 16 | SSW (202°) | 99763 | 101915 | 25.1°C | 68.6% | 18.9°C | 3125ft (953m) | 12.72v | 31 |
| 1068 | 14 Apr 22:20:35 | 8 | 10.9 mph | 16 | S (186°) | 99769 | 101921 | 25.1°C | 68.6% | 18.9°C | 3125ft (953m) | 12.73v | 31 |
| 1067 | 14 Apr 22:20:23 | 9 | 11.9 mph | 16 | SSW (203°) | 99763 | 101915 | 25.1°C | 68.4% | 18.9°C | 3144ft (958m) | 12.72v | 31 |
| 1066 | 14 Apr 22:20:12 | 9 | 10.7 mph | 13 | SSW (205°) | 99769 | 101921 | 25.1°C | 68.4% | 18.9°C | 3144ft (958m) | 12.73v | 31 |
| 1065 | 14 Apr 22:20:01 | 7 | 7.9 mph | 9 | SSW (196°) | 99771 | 101923 | 25.1°C | 68.4% | 18.9°C | 3144ft (958m) | 12.73v | 31 |
| 1064 | 14 Apr 22:19:49 | 11 | 11.5 mph | 13 | SSW (199°) | 99770 | 101922 | 25.1°C | 68.5% | 18.9°C | 3135ft (956m) | 12.73v | 31 |
| 1063 | 14 Apr 22:19:38 | 5 | 7.4 mph | 13 | SSW (201°) | 99768 | 101920 | 25.1°C | 68.7% | 18.9°C | 3115ft (949m) | 12.73v | 31 |
| 1062 | 14 Apr 22:19:27 | 5 | 8.6 mph | 12 | SSW (208°) | 99769 | 101921 | 25.1°C | 68.6% | 18.9°C | 3125ft (953m) | 12.72v | 31 |
| 1061 | 14 Apr 22:19:16 | 7 | 9.6 mph | 13 | SSW (212°) | 99764 | 101916 | 25.1°C | 68.7% | 18.9°C | 3115ft (949m) | 12.72v | 31 |
| 1060 | 14 Apr 22:19:04 | 10 | 10.3 mph | 11 | SSW (204°) | 99771 | 101923 | 25°C | 68.6% | 18.8°C | 3123ft (952m) | 12.72v | 31 |
| 1059 | 14 Apr 22:18:53 | 9 | 9.3 mph | 11 | SSW (210°) | 99771 | 101923 | 25.1°C | 68.7% | 18.9°C | 3115ft (949m) | 12.72v | 31 |
| 1058 | 14 Apr 22:18:42 | 7 | 8.7 mph | 11 | SSW (206°) | 99770 | 101922 | 25.1°C | 68.6% | 18.9°C | 3125ft (953m) | 12.72v | 31 |
| 1057 | 14 Apr 22:18:31 | 7 | 10.2 mph | 14 | S (187°) | 99769 | 101921 | 25.1°C | 68.6% | 18.9°C | 3125ft (953m) | 12.73v | 31 |
| 1056 | 14 Apr 22:18:19 | 9 | 12.5 mph | 15 | SSW (208°) | 99772 | 101924 | 25°C | 68.6% | 18.8°C | 3123ft (952m) | 12.74v | 31 |
| 1055 | 14 Apr 22:18:08 | 10 | 12.5 mph | 14 | SSW (199°) | 99768 | 101920 | 25.1°C | 68.6% | 18.9°C | 3125ft (953m) | 12.73v | 31 |
| 1054 | 14 Apr 22:17:56 | 12 | 12.5 mph | 14 | S (189°) | 99770 | 101922 | 25.1°C | 68.5% | 18.9°C | 3135ft (956m) | 12.73v | 31 |
| 1053 | 14 Apr 22:17:45 | 9 | 11 mph | 14 | SSW (196°) | 99769 | 101921 | 25.1°C | 68.6% | 18.9°C | 3125ft (953m) | 12.73v | 31 |
| 1052 | 14 Apr 22:17:34 | 11 | 11.9 mph | 13 | SSW (207°) | 99765 | 101917 | 25°C | 68.6% | 18.8°C | 3123ft (952m) | 12.71v | 31 |
| 1051 | 14 Apr 22:17:23 | 9 | 10.7 mph | 14 | SSW (204°) | 99770 | 101922 | 25.1°C | 68.6% | 18.9°C | 3125ft (953m) | 12.72v | 31 |
| 1050 | 14 Apr 22:17:11 | 9 | 10.9 mph | 12 | SSW (198°) | 99769 | 101921 | 25.1°C | 68.5% | 18.9°C | 3135ft (956m) | 12.72v | 31 |
| 1049 | 14 Apr 22:17:00 | 6 | 8.5 mph | 11 | SSW (205°) | 99767 | 101919 | 25.1°C | 68.6% | 18.9°C | 3125ft (953m) | 12.73v | 31 |
| 1048 | 14 Apr 22:16:49 | 10 | 9.4 mph | 14 | SSW (195°) | 99770 | 101922 | 25.1°C | 68.6% | 18.9°C | 3125ft (953m) | 12.74v | 31 |
| 1047 | 14 Apr 22:16:38 | 9 | 11.4 mph | 16 | SSW (209°) | 99769 | 101921 | 25.1°C | 68.5% | 18.9°C | 3135ft (956m) | 12.71v | 31 |
| 1046 | 14 Apr 22:16:26 | 11 | 12.5 mph | 16 | S (190°) | 99766 | 101918 | 25.1°C | 68.4% | 18.9°C | 3144ft (958m) | 12.73v | 31 |
| 1045 | 14 Apr 22:16:15 | 10 | 10.9 mph | 12 | SSW (203°) | 99767 | 101919 | 25.1°C | 68.3% | 18.8°C | 3154ft (961m) | 12.73v | 31 |
| 1044 | 14 Apr 22:16:04 | 9 | 10.9 mph | 13 | SSW (205°) | 99770 | 101922 | 25.1°C | 68.3% | 18.8°C | 3154ft (961m) | 12.7v | 31 |
| 1043 | 14 Apr 22:15:53 | 10 | 10.9 mph | 13 | SSW (201°) | 99769 | 101921 | 25.1°C | 68.4% | 18.9°C | 3144ft (958m) | 12.73v | 31 |
| 1042 | 14 Apr 22:15:41 | 10 | 10.1 mph | 11 | SSW (208°) | 99765 | 101917 | 25.1°C | 68.3% | 18.8°C | 3154ft (961m) | 12.71v | 31 |
| 1041 | 14 Apr 22:15:30 | 6 | 7.9 mph | 9 | SSW (208°) | 99770 | 101922 | 25.1°C | 68.4% | 18.9°C | 3144ft (958m) | 12.73v | 31 |
| 1040 | 14 Apr 22:15:19 | 8 | 9.2 mph | 10 | SSW (211°) | 99766 | 101918 | 25.1°C | 68.4% | 18.9°C | 3144ft (958m) | 12.73v | 31 |
| 1039 | 14 Apr 22:15:08 | 10 | 10.2 mph | 11 | SSW (195°) | 99772 | 101924 | 25.1°C | 68.4% | 18.9°C | 3144ft (958m) | 12.72v | 31 |
| 1038 | 14 Apr 22:14:56 | 9 | 9.7 mph | 12 | SSW (206°) | 99772 | 101924 | 25.1°C | 68.5% | 18.9°C | 3135ft (956m) | 12.72v | 31 |
| 1037 | 14 Apr 22:14:45 | 7 | 7.7 mph | 10 | SSW (199°) | 99769 | 101921 | 25.1°C | 68.5% | 18.9°C | 3135ft (956m) | 12.71v | 31 |
| 1036 | 14 Apr 22:14:34 | 7 | 7.8 mph | 11 | SW (217°) | 99774 | 101926 | 25.1°C | 68.5% | 18.9°C | 3135ft (956m) | 12.7v | 31 |
| 1035 | 14 Apr 22:14:23 | 12 | 12.1 mph | 13 | SSW (201°) | 99769 | 101921 | 25.1°C | 68.5% | 18.9°C | 3135ft (956m) | 12.71v | 31 |
| 1034 | 14 Apr 22:14:11 | 11 | 12.8 mph | 14 | SSW (204°) | 99770 | 101922 | 25.1°C | 68.4% | 18.9°C | 3144ft (958m) | 12.73v | 31 |
| 1033 | 14 Apr 22:14:00 | 8 | 9.2 mph | 12 | SSW (207°) | 99772 | 101924 | 25°C | 68.5% | 18.8°C | 3133ft (955m) | 12.71v | 31 |
| 1032 | 14 Apr 22:13:49 | 7 | 8.3 mph | 10 | SSW (209°) | 99772 | 101924 | 25°C | 68.6% | 18.8°C | 3123ft (952m) | 12.72v | 31 |
| 1031 | 14 Apr 22:13:38 | 12 | 13.6 mph | 15 | SSW (203°) | 99772 | 101924 | 25°C | 68.5% | 18.8°C | 3133ft (955m) | 12.72v | 31 |
| 1030 | 14 Apr 22:13:26 | 9 | 9.9 mph | 12 | SSW (207°) | 99769 | 101921 | 25°C | 68.5% | 18.8°C | 3133ft (955m) | 12.72v | 31 |
| 1029 | 14 Apr 22:13:15 | 9 | 11.3 mph | 14 | SSW (198°) | 99773 | 101925 | 25°C | 68.6% | 18.8°C | 3123ft (952m) | 12.73v | 31 |
| 1028 | 14 Apr 22:13:04 | 10 | 12.4 mph | 16 | SSW (205°) | 99773 | 101925 | 25.1°C | 68.5% | 18.9°C | 3135ft (956m) | 12.72v | 31 |
| 1027 | 14 Apr 22:12:53 | 10 | 12.2 mph | 14 | SSW (202°) | 99772 | 101924 | 25.1°C | 68.3% | 18.8°C | 3154ft (961m) | 12.71v | 31 |
| 1026 | 14 Apr 22:12:41 | 8 | 9.8 mph | 11 | SSW (199°) | 99773 | 101925 | 25.1°C | 68.5% | 18.9°C | 3135ft (956m) | 12.73v | 31 |
| 1025 | 14 Apr 22:12:30 | 11 | 11.7 mph | 13 | S (184°) | 99768 | 101920 | 25.1°C | 68.4% | 18.9°C | 3144ft (958m) | 12.73v | 31 |
| 1024 | 14 Apr 22:12:19 | 8 | 10.2 mph | 12 | SSW (199°) | 99770 | 101922 | 25.1°C | 68.4% | 18.9°C | 3144ft (958m) | 12.74v | 31 |
| 1023 | 14 Apr 22:12:08 | 9 | 11.1 mph | 13 | SSW (199°) | 99767 | 101919 | 25°C | 68.3% | 18.8°C | 3152ft (961m) | 12.72v | 31 |
| 1022 | 14 Apr 22:11:56 | 9 | 11.1 mph | 14 | SSW (201°) | 99768 | 101920 | 25.1°C | 68.3% | 18.8°C | 3154ft (961m) | 12.72v | 31 |
| 1021 | 14 Apr 22:11:45 | 11 | 11.5 mph | 13 | SSW (205°) | 99772 | 101924 | 25.1°C | 68.4% | 18.9°C | 3144ft (958m) | 12.74v | 31 |
| 1020 | 14 Apr 22:11:34 | 8 | 10.2 mph | 12 | SSW (200°) | 99773 | 101925 | 25.1°C | 68.5% | 18.9°C | 3135ft (956m) | 12.7v | 31 |
| 1019 | 14 Apr 22:11:23 | 10 | 10.5 mph | 12 | SSW (209°) | 99770 | 101922 | 25°C | 68.5% | 18.8°C | 3133ft (955m) | 12.71v | 31 |
| 1018 | 14 Apr 22:11:11 | 10 | 11.7 mph | 15 | SSW (200°) | 99772 | 101924 | 25.1°C | 68.4% | 18.9°C | 3144ft (958m) | 12.72v | 31 |
| 1017 | 14 Apr 22:11:00 | 10 | 11 mph | 12 | SSW (207°) | 99765 | 101917 | 25.1°C | 68.4% | 18.9°C | 3144ft (958m) | 12.72v | 31 |
| 1016 | 14 Apr 22:10:49 | 12 | 13.1 mph | 14 | SSW (198°) | 99768 | 101920 | 25°C | 68.4% | 18.8°C | 3142ft (958m) | 12.73v | 31 |
| 1015 | 14 Apr 22:10:38 | 10 | 12.5 mph | 15 | SSW (200°) | 99772 | 101924 | 25°C | 68.5% | 18.8°C | 3133ft (955m) | 12.72v | 31 |
| 1014 | 14 Apr 22:10:26 | 10 | 12 mph | 17 | SSW (207°) | 99769 | 101921 | 25°C | 68.5% | 18.8°C | 3133ft (955m) | 12.71v | 31 |
| 1013 | 14 Apr 22:10:15 | 9 | 12.2 mph | 16 | SSW (202°) | 99769 | 101921 | 25.1°C | 68.3% | 18.8°C | 3154ft (961m) | 12.73v | 31 |
| 1012 | 14 Apr 22:10:04 | 10 | 11.1 mph | 14 | SSW (202°) | 99771 | 101923 | 25.1°C | 68.2% | 18.8°C | 3163ft (964m) | 12.71v | 31 |
| 1011 | 14 Apr 22:09:53 | 10 | 11.9 mph | 13 | SSW (202°) | 99769 | 101921 | 25.1°C | 68.3% | 18.8°C | 3154ft (961m) | 12.71v | 31 |
| 1010 | 14 Apr 22:09:41 | 8 | 10.1 mph | 12 | SSW (203°) | 99768 | 101920 | 25.1°C | 68.3% | 18.8°C | 3154ft (961m) | 12.71v | 31 |
| 1009 | 14 Apr 22:09:30 | 10 | 11.2 mph | 14 | SSW (208°) | 99773 | 101925 | 25.1°C | 68.3% | 18.8°C | 3154ft (961m) | 12.71v | 31 |
| 1008 | 14 Apr 22:09:20 | 11 | 11.2 mph | 13 | SSW (208°) | 99771 | 101923 | 25.1°C | 68.2% | 18.8°C | 3163ft (964m) | 12.74v | 31 |
| 1007 | 14 Apr 22:09:09 | 10 | 11 mph | 12 | SSW (209°) | 99770 | 101922 | 25.1°C | 68.2% | 18.8°C | 3163ft (964m) | 12.73v | 31 |
| 1006 | 14 Apr 22:08:57 | 5 | 9 mph | 14 | SSW (198°) | 99774 | 101926 | 25.1°C | 68.3% | 18.8°C | 3154ft (961m) | 12.73v | 31 |
| 1005 | 14 Apr 22:08:46 | 6 | 8.1 mph | 9 | SSW (210°) | 99772 | 101924 | 25.1°C | 68.2% | 18.8°C | 3163ft (964m) | 12.71v | 31 |
| 1004 | 14 Apr 22:08:35 | 6 | 8.9 mph | 11 | SSW (203°) | 99771 | 101923 | 25.1°C | 68.1% | 18.8°C | 3173ft (967m) | 12.71v | 31 |
| 1003 | 14 Apr 22:08:24 | 9 | 11.1 mph | 13 | SSW (206°) | 99768 | 101920 | 25.1°C | 68.1% | 18.8°C | 3173ft (967m) | 12.73v | 31 |
| 1002 | 14 Apr 22:08:12 | 9 | 12.4 mph | 14 | SSW (200°) | 99773 | 101925 | 25.1°C | 68.1% | 18.8°C | 3173ft (967m) | 12.72v | 31 |
| 1001 | 14 Apr 22:08:01 | 10 | 10.5 mph | 12 | S (189°) | 99771 | 101923 | 25.1°C | 68.2% | 18.8°C | 3163ft (964m) | 12.72v | 31 |
| 1000 | 14 Apr 22:07:50 | 12 | 12.8 mph | 13 | SSW (198°) | 99767 | 101919 | 25.1°C | 68.2% | 18.8°C | 3163ft (964m) | 12.73v | 31 |
| 999 | 14 Apr 22:07:39 | 7 | 8.7 mph | 11 | SSW (203°) | 99767 | 101919 | 25.1°C | 68.2% | 18.8°C | 3163ft (964m) | 12.72v | 31 |
| 998 | 14 Apr 22:07:27 | 10 | 12.1 mph | 14 | SSW (200°) | 99768 | 101920 | 25.1°C | 68.2% | 18.8°C | 3163ft (964m) | 12.73v | 31 |
| 997 | 14 Apr 22:07:16 | 9 | 10.1 mph | 11 | SSW (201°) | 99769 | 101921 | 25.1°C | 68.2% | 18.8°C | 3163ft (964m) | 12.72v | 31 |
| 996 | 14 Apr 22:07:05 | 9 | 9.9 mph | 11 | SSW (203°) | 99769 | 101921 | 25.1°C | 68.3% | 18.8°C | 3154ft (961m) | 12.73v | 31 |
| 995 | 14 Apr 22:06:54 | 11 | 13.5 mph | 16 | SSW (209°) | 99772 | 101924 | 25.1°C | 68.3% | 18.8°C | 3154ft (961m) | 12.73v | 31 |
| 994 | 14 Apr 22:06:42 | 12 | 12.7 mph | 13 | SSW (201°) | 99766 | 101918 | 25.1°C | 68.3% | 18.8°C | 3154ft (961m) | 12.72v | 31 |
| 993 | 14 Apr 22:06:31 | 11 | 12.4 mph | 14 | SSW (199°) | 99768 | 101920 | 25.1°C | 68.2% | 18.8°C | 3163ft (964m) | 12.71v | 31 |
| 992 | 14 Apr 22:06:19 | 7 | 9.6 mph | 15 | SSW (198°) | 99763 | 101915 | 25.1°C | 68.1% | 18.8°C | 3173ft (967m) | 12.74v | 31 |
| 991 | 14 Apr 22:06:08 | 8 | 9.2 mph | 13 | SSW (198°) | 99774 | 101926 | 25.1°C | 68.3% | 18.8°C | 3154ft (961m) | 12.73v | 31 |
| 990 | 14 Apr 22:05:56 | 7 | 10.5 mph | 14 | SSW (205°) | 99773 | 101925 | 25.1°C | 68.2% | 18.8°C | 3163ft (964m) | 12.73v | 31 |
| 989 | 14 Apr 22:05:45 | 10 | 11.3 mph | 13 | SW (215°) | 99772 | 101924 | 25.1°C | 68.3% | 18.8°C | 3154ft (961m) | 12.72v | 31 |
| 988 | 14 Apr 22:05:34 | 10 | 12.2 mph | 14 | SSW (199°) | 99771 | 101923 | 25.1°C | 68.1% | 18.8°C | 3173ft (967m) | 12.73v | 31 |
| 987 | 14 Apr 22:05:23 | 11 | 12 mph | 15 | SSW (192°) | 99771 | 101923 | 25.1°C | 68.1% | 18.8°C | 3173ft (967m) | 12.73v | 31 |
| 986 | 14 Apr 22:05:11 | 11 | 11.8 mph | 13 | SSW (195°) | 99774 | 101926 | 25.1°C | 68.1% | 18.8°C | 3173ft (967m) | 12.73v | 31 |
| 985 | 14 Apr 22:05:00 | 11 | 12.4 mph | 14 | SSW (199°) | 99775 | 101927 | 25.1°C | 68.2% | 18.8°C | 3163ft (964m) | 12.71v | 31 |
| 984 | 14 Apr 22:04:49 | 8 | 8.8 mph | 11 | SSW (199°) | 99770 | 101922 | 25.1°C | 68.1% | 18.8°C | 3173ft (967m) | 12.74v | 31 |
| 983 | 14 Apr 22:04:38 | 9 | 10.4 mph | 12 | SSW (203°) | 99774 | 101926 | 25.1°C | 68.1% | 18.8°C | 3173ft (967m) | 12.74v | 31 |
| 982 | 14 Apr 22:04:26 | 11 | 11.9 mph | 14 | SW (214°) | 99772 | 101924 | 25.1°C | 68.1% | 18.8°C | 3173ft (967m) | 12.73v | 31 |
| 981 | 14 Apr 22:04:15 | 7 | 8.6 mph | 10 | SSW (199°) | 99776 | 101928 | 25.1°C | 68.2% | 18.8°C | 3163ft (964m) | 12.73v | 31 |
| 980 | 14 Apr 22:04:04 | 8 | 9 mph | 10 | SSW (204°) | 99773 | 101925 | 25.1°C | 68.3% | 18.8°C | 3154ft (961m) | 12.74v | 31 |
| 979 | 14 Apr 22:03:53 | 8 | 8.9 mph | 10 | SSW (202°) | 99772 | 101924 | 25.1°C | 68.3% | 18.8°C | 3154ft (961m) | 12.73v | 31 |
| 978 | 14 Apr 22:03:41 | 10 | 11.7 mph | 14 | SSW (204°) | 99774 | 101926 | 25.1°C | 68.3% | 18.8°C | 3154ft (961m) | 12.7v | 31 |
| 977 | 14 Apr 22:03:30 | 9 | 10.6 mph | 13 | SSW (211°) | 99777 | 101929 | 25.1°C | 68.2% | 18.8°C | 3163ft (964m) | 12.73v | 31 |
| 976 | 14 Apr 22:03:19 | 12 | 12.2 mph | 14 | SSW (207°) | 99772 | 101924 | 25.1°C | 68.2% | 18.8°C | 3163ft (964m) | 12.73v | 31 |
| 975 | 14 Apr 22:03:08 | 11 | 11.5 mph | 13 | SSW (198°) | 99774 | 101926 | 25.1°C | 68.2% | 18.8°C | 3163ft (964m) | 12.73v | 31 |
| 974 | 14 Apr 22:02:56 | 8 | 8.6 mph | 10 | SW (215°) | 99775 | 101927 | 25.1°C | 68.2% | 18.8°C | 3163ft (964m) | 12.73v | 31 |
| 973 | 14 Apr 22:02:45 | 11 | 11.7 mph | 13 | SSW (196°) | 99765 | 101917 | 25.1°C | 68.3% | 18.8°C | 3154ft (961m) | 12.74v | 31 |
| 972 | 14 Apr 22:02:34 | 10 | 13.3 mph | 17 | SSW (202°) | 99771 | 101923 | 25.1°C | 68.2% | 18.8°C | 3163ft (964m) | 12.74v | 31 |
| 971 | 14 Apr 22:02:23 | 9 | 12.7 mph | 16 | SSW (201°) | 99770 | 101922 | 25.1°C | 68.2% | 18.8°C | 3163ft (964m) | 12.73v | 31 |
| 970 | 14 Apr 22:02:11 | 8 | 9.5 mph | 11 | SSW (209°) | 99767 | 101919 | 25.1°C | 68.2% | 18.8°C | 3163ft (964m) | 12.72v | 31 |
| 969 | 14 Apr 22:02:00 | 7 | 8.1 mph | 10 | SW (214°) | 99772 | 101924 | 25.1°C | 68.2% | 18.8°C | 3163ft (964m) | 12.71v | 31 |
| 968 | 14 Apr 22:01:49 | 12 | 12 mph | 13 | SSW (210°) | 99773 | 101925 | 25.1°C | 68.1% | 18.8°C | 3173ft (967m) | 12.74v | 31 |
| 967 | 14 Apr 22:01:38 | 6 | 10.7 mph | 15 | SSW (213°) | 99773 | 101925 | 25.1°C | 68% | 18.8°C | 3183ft (970m) | 12.74v | 31 |
| 966 | 14 Apr 22:01:26 | 6 | 7.7 mph | 10 | SW (221°) | 99775 | 101927 | 25.1°C | 68.1% | 18.8°C | 3173ft (967m) | 12.73v | 31 |
| 965 | 14 Apr 22:01:15 | 9 | 11 mph | 13 | SSW (211°) | 99771 | 101923 | 25.1°C | 68.1% | 18.8°C | 3173ft (967m) | 12.73v | 31 |
| 964 | 14 Apr 22:01:04 | 9 | 10.5 mph | 13 | SSW (195°) | 99770 | 101922 | 25.1°C | 68.1% | 18.8°C | 3173ft (967m) | 12.73v | 31 |
| 963 | 14 Apr 22:00:53 | 8 | 9.3 mph | 13 | SSW (201°) | 99767 | 101919 | 25.1°C | 68.3% | 18.8°C | 3154ft (961m) | 12.73v | 31 |
| 962 | 14 Apr 22:00:41 | 6 | 7.5 mph | 11 | SW (225°) | 99772 | 101924 | 25.1°C | 68.3% | 18.8°C | 3154ft (961m) | 12.72v | 31 |
| 961 | 14 Apr 22:00:30 | 8 | 8.7 mph | 9 | SW (216°) | 99773 | 101925 | 25.1°C | 68.2% | 18.8°C | 3163ft (964m) | 12.73v | 31 |
| 960 | 14 Apr 22:00:19 | 7 | 7.6 mph | 11 | SSW (206°) | 99773 | 101925 | 25.1°C | 68.4% | 18.9°C | 3144ft (958m) | 12.72v | 31 |
| 959 | 14 Apr 22:00:08 | 9 | 9.7 mph | 11 | SW (217°) | 99773 | 101925 | 25.1°C | 68.4% | 18.9°C | 3144ft (958m) | 12.73v | 31 |
| 958 | 14 Apr 21:59:56 | 10 | 11.5 mph | 12 | SSW (211°) | 99771 | 101923 | 25°C | 68.4% | 18.8°C | 3142ft (958m) | 12.74v | 31 |
| 957 | 14 Apr 21:59:45 | 10 | 11.3 mph | 13 | SSW (204°) | 99772 | 101924 | 25.1°C | 68.3% | 18.8°C | 3154ft (961m) | 12.73v | 31 |
| 956 | 14 Apr 21:59:34 | 10 | 11.7 mph | 13 | SSW (203°) | 99769 | 101921 | 25.1°C | 68.2% | 18.8°C | 3163ft (964m) | 12.73v | 31 |
| 955 | 14 Apr 21:59:23 | 7 | 8 mph | 10 | SSW (202°) | 99772 | 101924 | 25.1°C | 68.3% | 18.8°C | 3154ft (961m) | 12.72v | 31 |
| 954 | 14 Apr 21:59:11 | 7 | 6.9 mph | 8 | SSW (209°) | 99770 | 101922 | 25.1°C | 68.3% | 18.8°C | 3154ft (961m) | 12.73v | 31 |
| 953 | 14 Apr 21:59:00 | 9 | 10.6 mph | 13 | S (189°) | 99767 | 101919 | 25.1°C | 68.2% | 18.8°C | 3163ft (964m) | 12.72v | 31 |
| 952 | 14 Apr 21:58:49 | 10 | 11.8 mph | 13 | SSW (198°) | 99768 | 101920 | 25.1°C | 68.1% | 18.8°C | 3173ft (967m) | 12.74v | 31 |
| 951 | 14 Apr 21:58:38 | 9 | 10.9 mph | 15 | SSW (212°) | 99768 | 101920 | 25.1°C | 68.1% | 18.8°C | 3173ft (967m) | 12.74v | 31 |
| 950 | 14 Apr 21:58:26 | 7 | 9.5 mph | 13 | SSW (194°) | 99758 | 101910 | 25.1°C | 68.2% | 18.8°C | 3163ft (964m) | 12.73v | 31 |
| 949 | 14 Apr 21:58:15 | 7 | 9.9 mph | 13 | SW (215°) | 99769 | 101921 | 25.1°C | 68.3% | 18.8°C | 3154ft (961m) | 12.73v | 31 |
| 948 | 14 Apr 21:58:04 | 9 | 10.9 mph | 14 | SSW (192°) | 99765 | 101917 | 25.1°C | 68.2% | 18.8°C | 3163ft (964m) | 12.72v | 31 |
| 947 | 14 Apr 21:57:53 | 10 | 12.3 mph | 15 | SSW (206°) | 99766 | 101918 | 25.1°C | 68.2% | 18.8°C | 3163ft (964m) | 12.72v | 31 |
| 946 | 14 Apr 21:57:41 | 9 | 10.8 mph | 15 | SSW (212°) | 99771 | 101923 | 25°C | 68.3% | 18.8°C | 3152ft (961m) | 12.72v | 31 |
| 945 | 14 Apr 21:57:30 | 11 | 12.4 mph | 15 | SSW (196°) | 99769 | 101921 | 25.1°C | 68.2% | 18.8°C | 3163ft (964m) | 12.73v | 31 |
| 944 | 14 Apr 21:57:20 | 10 | 10.8 mph | 13 | SSW (208°) | 99755 | 101907 | 25.1°C | 68.2% | 18.8°C | 3163ft (964m) | 12.73v | 31 |
| 943 | 14 Apr 21:57:09 | 12 | 12.1 mph | 14 | S (191°) | 99763 | 101915 | 25.1°C | 68.3% | 18.8°C | 3154ft (961m) | 12.73v | 31 |
| 942 | 14 Apr 21:56:57 | 10 | 10.8 mph | 12 | SSW (202°) | 99763 | 101915 | 25.1°C | 68.2% | 18.8°C | 3163ft (964m) | 12.73v | 31 |
| 941 | 14 Apr 21:56:46 | 10 | 13.3 mph | 15 | SSW (196°) | 99768 | 101920 | 25.1°C | 68.2% | 18.8°C | 3163ft (964m) | 12.73v | 31 |
| 940 | 14 Apr 21:56:35 | 9 | 9.2 mph | 10 | SSW (210°) | 99769 | 101921 | 25.1°C | 68.2% | 18.8°C | 3163ft (964m) | 12.73v | 31 |
| 939 | 14 Apr 21:56:24 | 8 | 9.3 mph | 11 | SSW (203°) | 99764 | 101916 | 25.1°C | 68.2% | 18.8°C | 3163ft (964m) | 12.73v | 31 |
| 938 | 14 Apr 21:56:12 | 9 | 9.8 mph | 11 | SSW (204°) | 99767 | 101919 | 25.1°C | 68.2% | 18.8°C | 3163ft (964m) | 12.73v | 31 |
| 937 | 14 Apr 21:56:01 | 8 | 9 mph | 10 | SSW (202°) | 99765 | 101917 | 25.1°C | 68.2% | 18.8°C | 3163ft (964m) | 12.72v | 31 |
| 936 | 14 Apr 21:55:50 | 7 | 8.4 mph | 10 | SSW (207°) | 99769 | 101921 | 25.1°C | 68.3% | 18.8°C | 3154ft (961m) | 12.73v | 31 |
| 935 | 14 Apr 21:55:39 | 10 | 11.1 mph | 12 | SSW (210°) | 99766 | 101918 | 25°C | 68.3% | 18.8°C | 3152ft (961m) | 12.72v | 31 |
| 934 | 14 Apr 21:55:27 | 7 | 8.5 mph | 10 | SSW (213°) | 99768 | 101920 | 25°C | 68.5% | 18.8°C | 3133ft (955m) | 12.74v | 31 |
| 933 | 14 Apr 21:55:16 | 8 | 9.8 mph | 12 | SSW (207°) | 99765 | 101917 | 25°C | 68.4% | 18.8°C | 3142ft (958m) | 12.74v | 31 |
| 932 | 14 Apr 21:55:05 | 10 | 12 mph | 15 | SSW (206°) | 99767 | 101919 | 25°C | 68.4% | 18.8°C | 3142ft (958m) | 12.73v | 31 |
| 931 | 14 Apr 21:54:54 | 11 | 12.9 mph | 14 | SSW (194°) | 99769 | 101921 | 25°C | 68.2% | 18.7°C | 3161ft (963m) | 12.73v | 31 |
| 930 | 14 Apr 21:54:42 | 12 | 13.3 mph | 15 | SSW (196°) | 99768 | 101920 | 25°C | 68.3% | 18.8°C | 3152ft (961m) | 12.72v | 31 |
| 929 | 14 Apr 21:54:31 | 10 | 12.1 mph | 14 | SSW (196°) | 99763 | 101915 | 25.1°C | 68.2% | 18.8°C | 3163ft (964m) | 12.72v | 31 |
| 928 | 14 Apr 21:54:20 | 11 | 12.6 mph | 16 | SSW (201°) | 99767 | 101919 | 25.1°C | 68.2% | 18.8°C | 3163ft (964m) | 12.72v | 31 |
| 927 | 14 Apr 21:54:09 | 10 | 11.6 mph | 14 | SSW (201°) | 99768 | 101920 | 25.1°C | 68.2% | 18.8°C | 3163ft (964m) | 12.73v | 31 |
| 926 | 14 Apr 21:53:57 | 7 | 9.8 mph | 13 | SW (228°) | 99762 | 101914 | 25.1°C | 68.1% | 18.8°C | 3173ft (967m) | 12.73v | 31 |
| 925 | 14 Apr 21:53:46 | 9 | 10.6 mph | 12 | SSW (203°) | 99764 | 101916 | 25.1°C | 68.1% | 18.8°C | 3173ft (967m) | 12.74v | 31 |
| 924 | 14 Apr 21:53:35 | 9 | 10.5 mph | 12 | SSW (208°) | 99772 | 101924 | 25.1°C | 68.2% | 18.8°C | 3163ft (964m) | 12.72v | 31 |
| 923 | 14 Apr 21:53:24 | 9 | 10.2 mph | 12 | SSW (203°) | 99771 | 101923 | 25.1°C | 68.2% | 18.8°C | 3163ft (964m) | 12.73v | 31 |
| 922 | 14 Apr 21:53:12 | 10 | 10.2 mph | 11 | SSW (207°) | 99770 | 101922 | 25°C | 68.3% | 18.8°C | 3152ft (961m) | 12.72v | 31 |
| 921 | 14 Apr 21:53:01 | 11 | 11.9 mph | 14 | SSW (210°) | 99767 | 101919 | 25°C | 68.3% | 18.8°C | 3152ft (961m) | 12.72v | 31 |
| 920 | 14 Apr 21:52:50 | 9 | 10.1 mph | 12 | SSW (211°) | 99770 | 101922 | 25°C | 68.2% | 18.7°C | 3161ft (963m) | 12.73v | 31 |
| 919 | 14 Apr 21:52:39 | 9 | 9.3 mph | 10 | SSW (211°) | 99771 | 101923 | 25°C | 68.2% | 18.7°C | 3161ft (963m) | 12.71v | 31 |
| 918 | 14 Apr 21:52:27 | 8 | 9.4 mph | 11 | SSW (208°) | 99768 | 101920 | 25°C | 68.2% | 18.7°C | 3161ft (963m) | 12.73v | 31 |
| 917 | 14 Apr 21:52:16 | 11 | 14.1 mph | 16 | SSW (198°) | 99766 | 101918 | 25°C | 68.2% | 18.7°C | 3161ft (963m) | 12.73v | 31 |
| 916 | 14 Apr 21:52:05 | 12 | 12.9 mph | 15 | SSW (199°) | 99766 | 101918 | 25°C | 68.2% | 18.7°C | 3161ft (963m) | 12.74v | 31 |
| 915 | 14 Apr 21:51:54 | 12 | 14 mph | 18 | SSW (197°) | 99767 | 101919 | 25°C | 68.3% | 18.8°C | 3152ft (961m) | 12.73v | 31 |
| 914 | 14 Apr 21:51:42 | 9 | 10.8 mph | 13 | SSW (194°) | 99774 | 101926 | 25°C | 68.4% | 18.8°C | 3142ft (958m) | 12.73v | 31 |
| 913 | 14 Apr 21:51:31 | 9 | 10.8 mph | 16 | SSW (203°) | 99767 | 101919 | 25°C | 68.4% | 18.8°C | 3142ft (958m) | 12.74v | 31 |
| 912 | 14 Apr 21:51:20 | 9 | 9.7 mph | 11 | SW (222°) | 99768 | 101920 | 25°C | 68.4% | 18.8°C | 3142ft (958m) | 12.72v | 31 |
| 911 | 14 Apr 21:51:09 | 8 | 11.3 mph | 13 | SW (214°) | 99769 | 101921 | 25°C | 68.2% | 18.7°C | 3161ft (963m) | 12.74v | 31 |
| 910 | 14 Apr 21:50:57 | 12 | 13 mph | 14 | SSW (211°) | 99769 | 101921 | 25°C | 68.2% | 18.7°C | 3161ft (963m) | 12.74v | 31 |
| 909 | 14 Apr 21:50:46 | 6 | 9.8 mph | 15 | SSW (202°) | 99765 | 101917 | 25.1°C | 68.1% | 18.8°C | 3173ft (967m) | 12.75v | 31 |
| 908 | 14 Apr 21:50:35 | 7 | 7.7 mph | 9 | SW (214°) | 99764 | 101916 | 25.1°C | 68.3% | 18.8°C | 3154ft (961m) | 12.73v | 31 |
| 907 | 14 Apr 21:50:24 | 8 | 8.1 mph | 9 | SSW (213°) | 99766 | 101918 | 25°C | 68.3% | 18.8°C | 3152ft (961m) | 12.73v | 31 |
| 906 | 14 Apr 21:50:12 | 7 | 8.7 mph | 10 | SSW (211°) | 99770 | 101922 | 25°C | 68.3% | 18.8°C | 3152ft (961m) | 12.74v | 31 |
| 905 | 14 Apr 21:50:01 | 8 | 9.9 mph | 15 | SSW (205°) | 99769 | 101921 | 25°C | 68.4% | 18.8°C | 3142ft (958m) | 12.72v | 31 |
| 904 | 14 Apr 21:49:50 | 14 | 15.4 mph | 17 | SSW (213°) | 99764 | 101916 | 25°C | 68.3% | 18.8°C | 3152ft (961m) | 12.73v | 31 |
| 903 | 14 Apr 21:49:39 | 11 | 11.7 mph | 13 | SW (215°) | 99767 | 101919 | 25.1°C | 68.2% | 18.8°C | 3163ft (964m) | 12.72v | 31 |
| 902 | 14 Apr 21:49:27 | 9 | 9.1 mph | 10 | SSW (210°) | 99769 | 101921 | 25°C | 68.2% | 18.7°C | 3161ft (963m) | 12.73v | 31 |
| 901 | 14 Apr 21:49:16 | 10 | 11.4 mph | 13 | SSW (192°) | 99770 | 101922 | 25°C | 68.4% | 18.8°C | 3142ft (958m) | 12.74v | 31 |
| 900 | 14 Apr 21:49:05 | 10 | 12.7 mph | 15 | SW (216°) | 99765 | 101917 | 25°C | 68.2% | 18.7°C | 3161ft (963m) | 12.75v | 31 |
| 899 | 14 Apr 21:48:54 | 12 | 13.9 mph | 16 | SSW (203°) | 99765 | 101917 | 25°C | 68.3% | 18.8°C | 3152ft (961m) | 12.74v | 31 |
| 898 | 14 Apr 21:48:42 | 9 | 10.7 mph | 12 | SSW (197°) | 99767 | 101919 | 25°C | 68.3% | 18.8°C | 3152ft (961m) | 12.73v | 31 |
| 897 | 14 Apr 21:48:31 | 7 | 9.4 mph | 12 | SW (214°) | 99767 | 101919 | 25°C | 68.3% | 18.8°C | 3152ft (961m) | 12.72v | 31 |
| 896 | 14 Apr 21:48:20 | 11 | 11.9 mph | 14 | S (183°) | 99766 | 101918 | 25°C | 68.3% | 18.8°C | 3152ft (961m) | 12.72v | 31 |
| 895 | 14 Apr 21:48:09 | 12 | 12.7 mph | 15 | SSW (199°) | 99759 | 101911 | 25.1°C | 68.2% | 18.8°C | 3163ft (964m) | 12.74v | 31 |
| 894 | 14 Apr 21:47:57 | 10 | 11.4 mph | 13 | SSW (205°) | 99756 | 101908 | 25.1°C | 68.1% | 18.8°C | 3173ft (967m) | 12.74v | 31 |
| 893 | 14 Apr 21:47:46 | 9 | 9.1 mph | 10 | SW (214°) | 99767 | 101919 | 25.1°C | 68.2% | 18.8°C | 3163ft (964m) | 12.74v | 31 |
| 892 | 14 Apr 21:47:35 | 5 | 7.3 mph | 10 | SW (214°) | 99766 | 101918 | 25.1°C | 68.3% | 18.8°C | 3154ft (961m) | 12.74v | 31 |
| 891 | 14 Apr 21:47:24 | 7 | 8.6 mph | 11 | SSW (205°) | 99769 | 101921 | 25.1°C | 68.4% | 18.9°C | 3144ft (958m) | 12.73v | 31 |
| 890 | 14 Apr 21:47:12 | 8 | 10.7 mph | 13 | SSW (207°) | 99768 | 101920 | 25.1°C | 68.2% | 18.8°C | 3163ft (964m) | 12.73v | 31 |
| 889 | 14 Apr 21:47:01 | 8 | 8.5 mph | 9 | SSW (207°) | 99767 | 101919 | 25.1°C | 68.1% | 18.8°C | 3173ft (967m) | 12.72v | 31 |
| 888 | 14 Apr 21:46:50 | 9 | 10.9 mph | 14 | SSW (194°) | 99767 | 101919 | 25.1°C | 68.1% | 18.8°C | 3173ft (967m) | 12.74v | 31 |
| 887 | 14 Apr 21:46:39 | 11 | 13.7 mph | 15 | SSW (196°) | 99767 | 101919 | 25.1°C | 68.1% | 18.8°C | 3173ft (967m) | 12.72v | 31 |
| 886 | 14 Apr 21:46:27 | 8 | 10.1 mph | 12 | SSW (212°) | 99767 | 101919 | 25.1°C | 68.2% | 18.8°C | 3163ft (964m) | 12.73v | 31 |
| 885 | 14 Apr 21:46:16 | 6 | 6.1 mph | 7 | SSW (196°) | 99770 | 101922 | 25.1°C | 68.4% | 18.9°C | 3144ft (958m) | 12.74v | 31 |
| 884 | 14 Apr 21:46:05 | 6 | 7.8 mph | 10 | SW (215°) | 99769 | 101921 | 25.1°C | 68.3% | 18.8°C | 3154ft (961m) | 12.74v | 31 |
| 883 | 14 Apr 21:45:54 | 8 | 8.7 mph | 9 | SW (216°) | 99769 | 101921 | 25.1°C | 68.3% | 18.8°C | 3154ft (961m) | 12.73v | 31 |
| 882 | 14 Apr 21:45:42 | 8 | 8.8 mph | 11 | SW (222°) | 99764 | 101916 | 25°C | 68.4% | 18.8°C | 3142ft (958m) | 12.74v | 31 |
| 881 | 14 Apr 21:45:31 | 8 | 8.7 mph | 10 | SSW (202°) | 99766 | 101918 | 25°C | 68.3% | 18.8°C | 3152ft (961m) | 12.73v | 31 |
| 880 | 14 Apr 21:45:20 | 11 | 12.9 mph | 15 | S (189°) | 99768 | 101920 | 25°C | 68.4% | 18.8°C | 3142ft (958m) | 12.74v | 31 |
| 879 | 14 Apr 21:45:09 | 8 | 9.1 mph | 11 | SSW (206°) | 99758 | 101910 | 25°C | 68.4% | 18.8°C | 3142ft (958m) | 12.72v | 31 |
| 878 | 14 Apr 21:44:57 | 10 | 11 mph | 12 | SSW (210°) | 99763 | 101915 | 25°C | 68.4% | 18.8°C | 3142ft (958m) | 12.72v | 31 |
| 877 | 14 Apr 21:44:46 | 13 | 14 mph | 15 | SSW (208°) | 99763 | 101915 | 25°C | 68.4% | 18.8°C | 3142ft (958m) | 12.73v | 31 |
| 876 | 14 Apr 21:44:35 | 11 | 11.6 mph | 14 | S (191°) | 99762 | 101914 | 25°C | 68.3% | 18.8°C | 3152ft (961m) | 12.73v | 31 |
| 875 | 14 Apr 21:44:24 | 10 | 11.7 mph | 13 | SSW (202°) | 99764 | 101916 | 25°C | 68.3% | 18.8°C | 3152ft (961m) | 12.74v | 31 |
| 874 | 14 Apr 21:44:12 | 10 | 11.5 mph | 13 | S (187°) | 99759 | 101911 | 25°C | 68.4% | 18.8°C | 3142ft (958m) | 12.75v | 31 |
| 873 | 14 Apr 21:44:01 | 8 | 9.3 mph | 12 | SSW (207°) | 99763 | 101915 | 25°C | 68.4% | 18.8°C | 3142ft (958m) | 12.73v | 31 |
| 872 | 14 Apr 21:43:50 | 9 | 10.4 mph | 13 | SSW (200°) | 99764 | 101916 | 25°C | 68.4% | 18.8°C | 3142ft (958m) | 12.74v | 31 |
| 871 | 14 Apr 21:43:39 | 9 | 11.2 mph | 14 | SSW (204°) | 99768 | 101920 | 25°C | 68.5% | 18.8°C | 3133ft (955m) | 12.72v | 31 |
| 870 | 14 Apr 21:43:27 | 13 | 15.8 mph | 19 | SSW (211°) | 99763 | 101915 | 25°C | 68.4% | 18.8°C | 3142ft (958m) | 12.73v | 31 |
| 869 | 14 Apr 21:43:16 | 10 | 11.5 mph | 15 | SSW (207°) | 99766 | 101918 | 25°C | 68.4% | 18.8°C | 3142ft (958m) | 12.74v | 31 |
| 868 | 14 Apr 21:43:05 | 7 | 9.3 mph | 15 | SSW (205°) | 99762 | 101914 | 25.1°C | 68.4% | 18.9°C | 3144ft (958m) | 12.74v | 31 |
| 867 | 14 Apr 21:42:54 | 9 | 10.6 mph | 14 | SSW (202°) | 99763 | 101915 | 25°C | 68.3% | 18.8°C | 3152ft (961m) | 12.73v | 31 |
| 866 | 14 Apr 21:42:42 | 10 | 12.5 mph | 15 | SSW (200°) | 99761 | 101913 | 25°C | 68.4% | 18.8°C | 3142ft (958m) | 12.73v | 31 |
| 865 | 14 Apr 21:42:31 | 7 | 7.7 mph | 10 | SSW (198°) | 99765 | 101917 | 25°C | 68.3% | 18.8°C | 3152ft (961m) | 12.74v | 31 |
| 864 | 14 Apr 21:42:20 | 10 | 10.9 mph | 12 | SSW (201°) | 99764 | 101916 | 25°C | 68.4% | 18.8°C | 3142ft (958m) | 12.73v | 31 |
| 863 | 14 Apr 21:42:09 | 11 | 11.9 mph | 13 | SSW (199°) | 99763 | 101915 | 25°C | 68.3% | 18.8°C | 3152ft (961m) | 12.72v | 31 |
| 862 | 14 Apr 21:41:57 | 8 | 9.3 mph | 10 | S (191°) | 99764 | 101916 | 25°C | 68.4% | 18.8°C | 3142ft (958m) | 12.73v | 31 |
| 861 | 14 Apr 21:41:46 | 8 | 9.6 mph | 13 | SSW (208°) | 99765 | 101917 | 25°C | 68.4% | 18.8°C | 3142ft (958m) | 12.73v | 31 |
| 860 | 14 Apr 21:41:35 | 9 | 10.8 mph | 13 | SSW (201°) | 99762 | 101914 | 25°C | 68.5% | 18.8°C | 3133ft (955m) | 12.75v | 31 |
| 859 | 14 Apr 21:41:24 | 11 | 12.9 mph | 15 | SSW (207°) | 99764 | 101916 | 25°C | 68.5% | 18.8°C | 3133ft (955m) | 12.73v | 31 |
| 858 | 14 Apr 21:41:12 | 10 | 11 mph | 13 | SW (214°) | 99757 | 101909 | 25°C | 68.5% | 18.8°C | 3133ft (955m) | 12.72v | 31 |
| 857 | 14 Apr 21:41:01 | 11 | 11.7 mph | 14 | SSW (202°) | 99763 | 101915 | 25°C | 68.5% | 18.8°C | 3133ft (955m) | 12.74v | 31 |
| 856 | 14 Apr 21:40:50 | 11 | 13.1 mph | 14 | SSW (199°) | 99761 | 101913 | 25°C | 68.5% | 18.8°C | 3133ft (955m) | 12.72v | 31 |
| 855 | 14 Apr 21:40:39 | 11 | 11.4 mph | 13 | SSW (206°) | 99754 | 101906 | 25°C | 68.6% | 18.8°C | 3123ft (952m) | 12.73v | 31 |
| 854 | 14 Apr 21:40:27 | 9 | 10.4 mph | 14 | SSW (203°) | 99761 | 101913 | 25°C | 68.5% | 18.8°C | 3133ft (955m) | 12.74v | 31 |
| 853 | 14 Apr 21:40:16 | 11 | 12.5 mph | 15 | SSW (201°) | 99758 | 101910 | 25°C | 68.5% | 18.8°C | 3133ft (955m) | 12.73v | 31 |
| 852 | 14 Apr 21:40:05 | 8 | 10.5 mph | 13 | SSW (202°) | 99757 | 101909 | 25°C | 68.6% | 18.8°C | 3123ft (952m) | 12.74v | 31 |
| 851 | 14 Apr 21:39:54 | 9 | 10.6 mph | 13 | SSW (211°) | 99766 | 101918 | 25°C | 68.6% | 18.8°C | 3123ft (952m) | 12.74v | 31 |
| 850 | 14 Apr 21:39:42 | 10 | 12.5 mph | 16 | SSW (205°) | 99761 | 101913 | 25°C | 68.5% | 18.8°C | 3133ft (955m) | 12.72v | 31 |
| 849 | 14 Apr 21:39:31 | 13 | 13.9 mph | 15 | SSW (200°) | 99757 | 101909 | 25°C | 68.5% | 18.8°C | 3133ft (955m) | 12.74v | 31 |
| 848 | 14 Apr 21:39:20 | 11 | 13.7 mph | 16 | SSW (204°) | 99763 | 101915 | 25°C | 68.5% | 18.8°C | 3133ft (955m) | 12.74v | 31 |
| 847 | 14 Apr 21:39:09 | 10 | 9.8 mph | 11 | SSW (210°) | 99758 | 101910 | 25°C | 68.7% | 18.8°C | 3114ft (949m) | 12.74v | 31 |
| 846 | 14 Apr 21:38:57 | 10 | 11.7 mph | 13 | SSW (202°) | 99762 | 101914 | 25°C | 68.5% | 18.8°C | 3133ft (955m) | 12.73v | 31 |
| 845 | 14 Apr 21:38:46 | 11 | 12.3 mph | 15 | SSW (196°) | 99759 | 101911 | 25°C | 68.5% | 18.8°C | 3133ft (955m) | 12.74v | 31 |
| 844 | 14 Apr 21:38:35 | 9 | 12.2 mph | 16 | SSW (196°) | 99752 | 101904 | 25°C | 68.4% | 18.8°C | 3142ft (958m) | 12.74v | 31 |
| 843 | 14 Apr 21:38:24 | 9 | 9 mph | 12 | SSW (197°) | 99759 | 101911 | 25°C | 68.4% | 18.8°C | 3142ft (958m) | 12.73v | 31 |
| 842 | 14 Apr 21:38:12 | 11 | 13 mph | 15 | SSW (196°) | 99754 | 101906 | 25°C | 68.4% | 18.8°C | 3142ft (958m) | 12.74v | 31 |
| 841 | 14 Apr 21:38:01 | 11 | 12.9 mph | 15 | SSW (206°) | 99750 | 101902 | 25°C | 68.3% | 18.8°C | 3152ft (961m) | 12.75v | 31 |
| 840 | 14 Apr 21:37:50 | 15 | 16 mph | 17 | SSW (198°) | 99756 | 101908 | 25°C | 68.2% | 18.7°C | 3161ft (963m) | 12.74v | 31 |
| 839 | 14 Apr 21:37:39 | 11 | 12.6 mph | 15 | SSW (204°) | 99757 | 101909 | 25°C | 68.3% | 18.8°C | 3152ft (961m) | 12.73v | 31 |
| 838 | 14 Apr 21:37:27 | 13 | 14.5 mph | 16 | SSW (202°) | 99752 | 101904 | 25°C | 68.2% | 18.7°C | 3161ft (963m) | 12.73v | 31 |
| 837 | 14 Apr 21:37:16 | 7 | 12.1 mph | 19 | SSW (196°) | 99753 | 101905 | 25°C | 68.3% | 18.8°C | 3152ft (961m) | 12.73v | 31 |
| 836 | 14 Apr 21:37:05 | 9 | 10.8 mph | 12 | SSW (207°) | 99760 | 101912 | 25°C | 68.4% | 18.8°C | 3142ft (958m) | 12.75v | 31 |
| 835 | 14 Apr 21:36:54 | 9 | 10.7 mph | 13 | SSW (212°) | 99761 | 101913 | 25°C | 68.4% | 18.8°C | 3142ft (958m) | 12.74v | 31 |
| 834 | 14 Apr 21:36:42 | 7 | 9.1 mph | 11 | SSW (205°) | 99763 | 101915 | 25°C | 68.3% | 18.8°C | 3152ft (961m) | 12.74v | 31 |
| 833 | 14 Apr 21:36:31 | 8 | 9.3 mph | 12 | SSW (199°) | 99760 | 101912 | 25°C | 68.4% | 18.8°C | 3142ft (958m) | 12.74v | 31 |
| 832 | 14 Apr 21:36:20 | 8 | 9.9 mph | 12 | SSW (200°) | 99758 | 101910 | 25°C | 68.3% | 18.8°C | 3152ft (961m) | 12.73v | 31 |
| 831 | 14 Apr 21:36:09 | 13 | 13.5 mph | 16 | S (188°) | 99752 | 101904 | 25°C | 68.4% | 18.8°C | 3142ft (958m) | 12.74v | 31 |
| 830 | 14 Apr 21:35:57 | 10 | 13.4 mph | 15 | SSW (205°) | 99759 | 101911 | 25°C | 68.3% | 18.8°C | 3152ft (961m) | 12.73v | 31 |
| 829 | 14 Apr 21:35:46 | 7 | 9 mph | 11 | SSW (204°) | 99759 | 101911 | 25°C | 68.4% | 18.8°C | 3142ft (958m) | 12.74v | 31 |
| 828 | 14 Apr 21:35:35 | 9 | 12.1 mph | 16 | SSW (203°) | 99754 | 101906 | 25°C | 68.4% | 18.8°C | 3142ft (958m) | 12.74v | 31 |
| 827 | 14 Apr 21:35:24 | 11 | 12.1 mph | 14 | SSW (204°) | 99759 | 101911 | 25°C | 68.5% | 18.8°C | 3133ft (955m) | 12.74v | 31 |
| 826 | 14 Apr 21:35:12 | 10 | 10.1 mph | 12 | SSW (198°) | 99752 | 101904 | 25°C | 68.5% | 18.8°C | 3133ft (955m) | 12.74v | 31 |
| 825 | 14 Apr 21:35:01 | 10 | 11.2 mph | 12 | SSW (211°) | 99756 | 101908 | 25°C | 68.5% | 18.8°C | 3133ft (955m) | 12.74v | 31 |
| 824 | 14 Apr 21:34:50 | 9 | 12 mph | 15 | SW (215°) | 99758 | 101910 | 25°C | 68.3% | 18.8°C | 3152ft (961m) | 12.75v | 31 |
| 823 | 14 Apr 21:34:39 | 11 | 12.3 mph | 13 | SSW (205°) | 99759 | 101911 | 25°C | 68.3% | 18.8°C | 3152ft (961m) | 12.73v | 31 |
| 822 | 14 Apr 21:34:27 | 9 | 10.8 mph | 12 | SSW (207°) | 99759 | 101911 | 25°C | 68.3% | 18.8°C | 3152ft (961m) | 12.73v | 31 |
| 821 | 14 Apr 21:34:16 | 8 | 9.8 mph | 12 | SSW (206°) | 99757 | 101909 | 25°C | 68.3% | 18.8°C | 3152ft (961m) | 12.74v | 31 |
| 820 | 14 Apr 21:34:05 | 6 | 6.8 mph | 8 | SSW (200°) | 99760 | 101912 | 25°C | 68.5% | 18.8°C | 3133ft (955m) | 12.73v | 31 |
| 819 | 14 Apr 21:33:54 | 7 | 9.7 mph | 12 | SSW (213°) | 99759 | 101911 | 25°C | 68.5% | 18.8°C | 3133ft (955m) | 12.73v | 31 |
| 818 | 14 Apr 21:33:42 | 8 | 8.6 mph | 11 | SSW (198°) | 99757 | 101909 | 25°C | 68.5% | 18.8°C | 3133ft (955m) | 12.73v | 31 |
| 817 | 14 Apr 21:33:31 | 13 | 13.4 mph | 15 | SSW (202°) | 99758 | 101910 | 25°C | 68.4% | 18.8°C | 3142ft (958m) | 12.74v | 31 |
| 816 | 14 Apr 21:33:20 | 10 | 12.5 mph | 16 | SSW (208°) | 99759 | 101911 | 25°C | 68.5% | 18.8°C | 3133ft (955m) | 12.73v | 31 |
| 815 | 14 Apr 21:33:09 | 11 | 11.8 mph | 15 | SSW (202°) | 99756 | 101908 | 25°C | 68.5% | 18.8°C | 3133ft (955m) | 12.73v | 31 |
| 814 | 14 Apr 21:32:57 | 8 | 9 mph | 11 | SSW (195°) | 99759 | 101911 | 25°C | 68.6% | 18.8°C | 3123ft (952m) | 12.73v | 31 |
| 813 | 14 Apr 21:32:46 | 10 | 11.6 mph | 15 | SSW (192°) | 99761 | 101913 | 25°C | 68.5% | 18.8°C | 3133ft (955m) | 12.74v | 31 |
| 812 | 14 Apr 21:32:35 | 10 | 10.7 mph | 13 | SSW (204°) | 99757 | 101909 | 25°C | 68.5% | 18.8°C | 3133ft (955m) | 12.74v | 31 |
| 811 | 14 Apr 21:32:24 | 9 | 10.7 mph | 12 | SSW (213°) | 99760 | 101912 | 25°C | 68.5% | 18.8°C | 3133ft (955m) | 12.75v | 31 |
| 810 | 14 Apr 21:32:12 | 12 | 12.8 mph | 15 | SSW (201°) | 99753 | 101905 | 25°C | 68.6% | 18.8°C | 3123ft (952m) | 12.74v | 31 |
| 809 | 14 Apr 21:32:01 | 10 | 11.3 mph | 15 | SSW (201°) | 99750 | 101902 | 25°C | 68.5% | 18.8°C | 3133ft (955m) | 12.73v | 31 |
| 808 | 14 Apr 21:31:50 | 11 | 13.3 mph | 15 | SSW (200°) | 99757 | 101909 | 25°C | 68.5% | 18.8°C | 3133ft (955m) | 12.72v | 31 |
| 807 | 14 Apr 21:31:39 | 9 | 11.3 mph | 15 | SSW (207°) | 99755 | 101907 | 25°C | 68.4% | 18.8°C | 3142ft (958m) | 12.74v | 31 |
| 806 | 14 Apr 21:31:27 | 10 | 12.8 mph | 16 | SSW (195°) | 99754 | 101906 | 25°C | 68.6% | 18.8°C | 3123ft (952m) | 12.73v | 31 |
| 805 | 14 Apr 21:31:16 | 12 | 12.8 mph | 14 | S (185°) | 99755 | 101907 | 25°C | 68.5% | 18.8°C | 3133ft (955m) | 12.72v | 31 |
| 804 | 14 Apr 21:31:05 | 14 | 15.2 mph | 17 | SSW (193°) | 99759 | 101911 | 25°C | 68.4% | 18.8°C | 3142ft (958m) | 12.74v | 31 |
| 803 | 14 Apr 21:30:54 | 10 | 12.7 mph | 16 | SSW (202°) | 99746 | 101898 | 25°C | 68.3% | 18.8°C | 3152ft (961m) | 12.74v | 31 |
| 802 | 14 Apr 21:30:42 | 7 | 9.6 mph | 13 | SSW (203°) | 99752 | 101904 | 25°C | 68.4% | 18.8°C | 3142ft (958m) | 12.74v | 31 |
| 801 | 14 Apr 21:30:31 | 9 | 9.7 mph | 11 | SSW (203°) | 99759 | 101911 | 25°C | 68.4% | 18.8°C | 3142ft (958m) | 12.74v | 31 |
| 800 | 14 Apr 21:30:20 | 9 | 11.3 mph | 17 | SSW (196°) | 99762 | 101914 | 25°C | 68.4% | 18.8°C | 3142ft (958m) | 12.74v | 31 |
| 799 | 14 Apr 21:30:09 | 7 | 9.4 mph | 11 | SSW (203°) | 99760 | 101912 | 25°C | 68.4% | 18.8°C | 3142ft (958m) | 12.74v | 31 |
| 798 | 14 Apr 21:29:57 | 9 | 11.1 mph | 13 | SSW (201°) | 99761 | 101913 | 25°C | 68.5% | 18.8°C | 3133ft (955m) | 12.73v | 31 |
| 797 | 14 Apr 21:29:46 | 13 | 13.6 mph | 15 | SSW (197°) | 99754 | 101906 | 25°C | 68.6% | 18.8°C | 3123ft (952m) | 12.74v | 31 |
| 796 | 14 Apr 21:29:35 | 12 | 13.7 mph | 15 | SSW (202°) | 99760 | 101912 | 25°C | 68.6% | 18.8°C | 3123ft (952m) | 12.75v | 31 |
| 795 | 14 Apr 21:29:24 | 11 | 12.2 mph | 14 | SW (214°) | 99761 | 101913 | 25°C | 68.5% | 18.8°C | 3133ft (955m) | 12.75v | 31 |
| 794 | 14 Apr 21:29:12 | 13 | 15.1 mph | 18 | SSW (197°) | 99761 | 101913 | 25°C | 68.5% | 18.8°C | 3133ft (955m) | 12.74v | 31 |
| 793 | 14 Apr 21:29:01 | 10 | 13.2 mph | 16 | SSW (202°) | 99749 | 101901 | 25°C | 68.5% | 18.8°C | 3133ft (955m) | 12.74v | 31 |
| 792 | 14 Apr 21:28:50 | 10 | 11.5 mph | 15 | SSW (212°) | 99759 | 101911 | 24.9°C | 68.6% | 18.7°C | 3121ft (951m) | 12.74v | 31 |
| 791 | 14 Apr 21:28:39 | 12 | 13.3 mph | 15 | SSW (204°) | 99758 | 101910 | 24.9°C | 68.7% | 18.7°C | 3112ft (949m) | 12.75v | 31 |
| 790 | 14 Apr 21:28:27 | 13 | 14.5 mph | 17 | SSW (208°) | 99753 | 101905 | 25°C | 68.7% | 18.8°C | 3114ft (949m) | 12.74v | 31 |
| 789 | 14 Apr 21:28:16 | 10 | 11.4 mph | 13 | SSW (204°) | 99759 | 101911 | 25°C | 68.4% | 18.8°C | 3142ft (958m) | 12.73v | 31 |
| 788 | 14 Apr 21:28:05 | 10 | 10.5 mph | 13 | SSW (210°) | 99756 | 101908 | 25°C | 68.4% | 18.8°C | 3142ft (958m) | 12.74v | 31 |
| 787 | 14 Apr 21:27:54 | 10 | 12.1 mph | 15 | SSW (205°) | 99746 | 101898 | 25°C | 68.4% | 18.8°C | 3142ft (958m) | 12.76v | 31 |
| 786 | 14 Apr 21:27:42 | 9 | 12.4 mph | 16 | SSW (206°) | 99757 | 101909 | 25°C | 68.5% | 18.8°C | 3133ft (955m) | 12.73v | 31 |
| 785 | 14 Apr 21:27:31 | 10 | 11.9 mph | 14 | SSW (208°) | 99756 | 101908 | 25°C | 68.3% | 18.8°C | 3152ft (961m) | 12.75v | 31 |
| 784 | 14 Apr 21:27:20 | 8 | 11.1 mph | 14 | SSW (205°) | 99761 | 101913 | 25°C | 68.4% | 18.8°C | 3142ft (958m) | 12.74v | 31 |
| 783 | 14 Apr 21:27:09 | 11 | 11.8 mph | 13 | SSW (199°) | 99756 | 101908 | 25°C | 68.4% | 18.8°C | 3142ft (958m) | 12.74v | 31 |
| 782 | 14 Apr 21:26:57 | 7 | 7.7 mph | 8 | SSW (205°) | 99757 | 101909 | 25°C | 68.4% | 18.8°C | 3142ft (958m) | 12.73v | 31 |
| 781 | 14 Apr 21:26:46 | 9 | 10.2 mph | 14 | SSW (206°) | 99758 | 101910 | 25°C | 68.4% | 18.8°C | 3142ft (958m) | 12.74v | 31 |
| 780 | 14 Apr 21:26:35 | 13 | 13.4 mph | 15 | SSW (202°) | 99756 | 101908 | 25°C | 68.4% | 18.8°C | 3142ft (958m) | 12.73v | 31 |
| 779 | 14 Apr 21:26:24 | 11 | 12.7 mph | 14 | SSW (204°) | 99750 | 101902 | 25°C | 68.4% | 18.8°C | 3142ft (958m) | 12.73v | 31 |
| 778 | 14 Apr 21:26:12 | 13 | 13.9 mph | 16 | SSW (195°) | 99741 | 101892 | 25°C | 68.5% | 18.8°C | 3133ft (955m) | 12.74v | 31 |
| 777 | 14 Apr 21:26:01 | 8 | 10.4 mph | 16 | S (185°) | 99740 | 101891 | 25°C | 68.5% | 18.8°C | 3133ft (955m) | 12.74v | 31 |
| 776 | 14 Apr 21:25:50 | 11 | 12 mph | 13 | SSW (204°) | 99758 | 101910 | 25°C | 68.4% | 18.8°C | 3142ft (958m) | 12.74v | 31 |
| 775 | 14 Apr 21:25:39 | 10 | 10.5 mph | 12 | SSW (199°) | 99759 | 101911 | 25°C | 68.6% | 18.8°C | 3123ft (952m) | 12.75v | 31 |
| 774 | 14 Apr 21:25:27 | 10 | 11.2 mph | 12 | SSW (202°) | 99757 | 101909 | 25°C | 68.5% | 18.8°C | 3133ft (955m) | 12.75v | 31 |
| 773 | 14 Apr 21:25:16 | 9 | 10.7 mph | 13 | SSW (202°) | 99758 | 101910 | 25°C | 68.6% | 18.8°C | 3123ft (952m) | 12.73v | 31 |
| 772 | 14 Apr 21:25:05 | 9 | 10.2 mph | 13 | SSW (195°) | 99753 | 101905 | 24.9°C | 68.6% | 18.7°C | 3121ft (951m) | 12.74v | 31 |
| 771 | 14 Apr 21:24:54 | 12 | 12.9 mph | 14 | SSW (209°) | 99757 | 101909 | 25°C | 68.6% | 18.8°C | 3123ft (952m) | 12.73v | 31 |
| 770 | 14 Apr 21:24:42 | 7 | 9.4 mph | 13 | SSW (210°) | 99758 | 101910 | 25°C | 68.5% | 18.8°C | 3133ft (955m) | 12.75v | 31 |
| 769 | 14 Apr 21:24:31 | 10 | 12 mph | 14 | SSW (209°) | 99753 | 101905 | 25°C | 68.5% | 18.8°C | 3133ft (955m) | 12.75v | 31 |
| 768 | 14 Apr 21:24:20 | 9 | 11.5 mph | 14 | S (190°) | 99754 | 101906 | 25°C | 68.6% | 18.8°C | 3123ft (952m) | 12.75v | 31 |
| 767 | 14 Apr 21:24:09 | 15 | 15.3 mph | 16 | SSW (205°) | 99757 | 101909 | 24.9°C | 68.5% | 18.7°C | 3131ft (954m) | 12.75v | 31 |
| 766 | 14 Apr 21:23:57 | 14 | 15.7 mph | 17 | SSW (200°) | 99749 | 101901 | 25°C | 68.4% | 18.8°C | 3142ft (958m) | 12.74v | 31 |
| 765 | 14 Apr 21:23:46 | 10 | 11.6 mph | 15 | SSW (197°) | 99743 | 101894 | 25°C | 68.4% | 18.8°C | 3142ft (958m) | 12.73v | 31 |
| 764 | 14 Apr 21:23:35 | 10 | 12.9 mph | 18 | SSW (199°) | 99752 | 101904 | 25°C | 68.5% | 18.8°C | 3133ft (955m) | 12.74v | 31 |
| 763 | 14 Apr 21:23:24 | 12 | 14.1 mph | 19 | SSW (198°) | 99756 | 101908 | 25°C | 68.3% | 18.8°C | 3152ft (961m) | 12.73v | 31 |
| 762 | 14 Apr 21:23:12 | 13 | 13.8 mph | 17 | SSW (198°) | 99744 | 101895 | 25°C | 68.4% | 18.8°C | 3142ft (958m) | 12.75v | 31 |
| 761 | 14 Apr 21:23:01 | 9 | 10.9 mph | 13 | SSW (199°) | 99746 | 101898 | 25°C | 68.3% | 18.8°C | 3152ft (961m) | 12.73v | 31 |
| 760 | 14 Apr 21:22:50 | 8 | 9.8 mph | 12 | SSW (195°) | 99756 | 101908 | 25°C | 68.3% | 18.8°C | 3152ft (961m) | 12.74v | 31 |
| 759 | 14 Apr 21:22:39 | 11 | 11.2 mph | 12 | SSW (200°) | 99752 | 101904 | 25°C | 68.3% | 18.8°C | 3152ft (961m) | 12.75v | 31 |
| 758 | 14 Apr 21:22:27 | 8 | 9.9 mph | 12 | SSW (199°) | 99752 | 101904 | 25°C | 68.2% | 18.7°C | 3161ft (963m) | 12.74v | 31 |
| 757 | 14 Apr 21:22:16 | 9 | 10.9 mph | 15 | SSW (200°) | 99749 | 101901 | 25°C | 68.3% | 18.8°C | 3152ft (961m) | 12.72v | 31 |
| 756 | 14 Apr 21:22:05 | 12 | 13.9 mph | 16 | SSW (204°) | 99750 | 101902 | 25°C | 68.3% | 18.8°C | 3152ft (961m) | 12.74v | 31 |
| 755 | 14 Apr 21:21:54 | 10 | 12.2 mph | 16 | SSW (200°) | 99745 | 101897 | 25°C | 68.3% | 18.8°C | 3152ft (961m) | 12.72v | 31 |
| 754 | 14 Apr 21:21:42 | 9 | 10 mph | 11 | SSW (205°) | 99750 | 101902 | 25°C | 68.3% | 18.8°C | 3152ft (961m) | 12.74v | 31 |
| 753 | 14 Apr 21:21:31 | 11 | 12.9 mph | 15 | SSW (204°) | 99751 | 101903 | 25°C | 68.2% | 18.7°C | 3161ft (963m) | 12.74v | 31 |
| 752 | 14 Apr 21:21:20 | 7 | 9.1 mph | 11 | SW (218°) | 99750 | 101902 | 25°C | 68.4% | 18.8°C | 3142ft (958m) | 12.75v | 31 |
| 751 | 14 Apr 21:21:09 | 7 | 8.8 mph | 11 | SSW (208°) | 99747 | 101899 | 25°C | 68.5% | 18.8°C | 3133ft (955m) | 12.73v | 31 |
| 750 | 14 Apr 21:20:57 | 9 | 10 mph | 12 | SSW (207°) | 99750 | 101902 | 25°C | 68.4% | 18.8°C | 3142ft (958m) | 12.74v | 31 |
| 749 | 14 Apr 21:20:46 | 8 | 10.9 mph | 14 | SSW (210°) | 99749 | 101901 | 25°C | 68.4% | 18.8°C | 3142ft (958m) | 12.75v | 31 |
| 748 | 14 Apr 21:20:35 | 12 | 13.3 mph | 15 | SSW (193°) | 99747 | 101899 | 25°C | 68.3% | 18.8°C | 3152ft (961m) | 12.73v | 31 |
| 747 | 14 Apr 21:20:24 | 10 | 13 mph | 16 | SSW (195°) | 99751 | 101903 | 25°C | 68.5% | 18.8°C | 3133ft (955m) | 12.74v | 31 |
| 746 | 14 Apr 21:20:12 | 15 | 16.2 mph | 17 | SSW (200°) | 99745 | 101897 | 25°C | 68.4% | 18.8°C | 3142ft (958m) | 12.75v | 31 |
| 745 | 14 Apr 21:20:01 | 11 | 11.9 mph | 14 | SSW (200°) | 99743 | 101894 | 25°C | 68.2% | 18.7°C | 3161ft (963m) | 12.74v | 31 |
| 744 | 14 Apr 21:19:50 | 8 | 10.2 mph | 13 | SSW (196°) | 99737 | 101888 | 25°C | 68.3% | 18.8°C | 3152ft (961m) | 12.74v | 31 |
| 743 | 14 Apr 21:19:39 | 11 | 12 mph | 15 | SSW (205°) | 99737 | 101888 | 25°C | 68.4% | 18.8°C | 3142ft (958m) | 12.74v | 31 |
| 742 | 14 Apr 21:19:27 | 9 | 9.5 mph | 12 | SSW (212°) | 99743 | 101894 | 25°C | 68.4% | 18.8°C | 3142ft (958m) | 12.74v | 31 |
| 741 | 14 Apr 21:19:16 | 9 | 9.4 mph | 12 | SW (218°) | 99755 | 101907 | 25°C | 68.3% | 18.8°C | 3152ft (961m) | 12.74v | 31 |
| 740 | 14 Apr 21:19:05 | 9 | 10.6 mph | 13 | SSW (207°) | 99741 | 101892 | 25°C | 68.3% | 18.8°C | 3152ft (961m) | 12.73v | 31 |
| 739 | 14 Apr 21:18:54 | 10 | 11 mph | 12 | SSW (194°) | 99743 | 101894 | 25°C | 68.3% | 18.8°C | 3152ft (961m) | 12.72v | 31 |
| 738 | 14 Apr 21:18:42 | 9 | 10.1 mph | 12 | SW (216°) | 99737 | 101888 | 25°C | 68.4% | 18.8°C | 3142ft (958m) | 12.74v | 31 |
| 737 | 14 Apr 21:18:31 | 9 | 10.7 mph | 14 | SSW (205°) | 99741 | 101892 | 25°C | 68.3% | 18.8°C | 3152ft (961m) | 12.75v | 31 |
| 736 | 14 Apr 21:18:20 | 12 | 12.1 mph | 14 | SSW (194°) | 99743 | 101894 | 25°C | 68.3% | 18.8°C | 3152ft (961m) | 12.74v | 31 |
| 735 | 14 Apr 21:18:09 | 9 | 11.1 mph | 13 | SSW (212°) | 99742 | 101893 | 25°C | 68.3% | 18.8°C | 3152ft (961m) | 12.74v | 31 |
| 734 | 14 Apr 21:17:57 | 9 | 9.6 mph | 10 | SSW (202°) | 99744 | 101895 | 25°C | 68.4% | 18.8°C | 3142ft (958m) | 12.75v | 31 |
| 733 | 14 Apr 21:17:46 | 11 | 12.7 mph | 16 | SSW (205°) | 99740 | 101891 | 25°C | 68.4% | 18.8°C | 3142ft (958m) | 12.73v | 31 |
| 732 | 14 Apr 21:17:35 | 11 | 15.1 mph | 19 | S (187°) | 99738 | 101889 | 25°C | 68.3% | 18.8°C | 3152ft (961m) | 12.74v | 31 |
| 731 | 14 Apr 21:17:24 | 11 | 12.5 mph | 15 | SSW (192°) | 99740 | 101891 | 25°C | 68.4% | 18.8°C | 3142ft (958m) | 12.73v | 31 |
| 730 | 14 Apr 21:17:12 | 10 | 12.5 mph | 14 | SSW (200°) | 99743 | 101894 | 25°C | 68.4% | 18.8°C | 3142ft (958m) | 12.75v | 31 |
| 729 | 14 Apr 21:17:01 | 13 | 13.8 mph | 15 | SSW (209°) | 99732 | 101883 | 25°C | 68.3% | 18.8°C | 3152ft (961m) | 12.74v | 31 |
| 728 | 14 Apr 21:16:50 | 12 | 14.1 mph | 16 | SSW (195°) | 99737 | 101888 | 25°C | 68.3% | 18.8°C | 3152ft (961m) | 12.75v | 31 |
| 727 | 14 Apr 21:16:39 | 10 | 11.1 mph | 12 | SSW (207°) | 99737 | 101888 | 25.1°C | 68.2% | 18.8°C | 3163ft (964m) | 12.72v | 31 |
| 726 | 14 Apr 21:16:27 | 7 | 9.4 mph | 12 | SSW (207°) | 99739 | 101890 | 25.1°C | 68.4% | 18.9°C | 3144ft (958m) | 12.74v | 31 |
| 725 | 14 Apr 21:16:16 | 9 | 10.7 mph | 13 | SSW (201°) | 99739 | 101890 | 25°C | 68.2% | 18.7°C | 3161ft (963m) | 12.73v | 31 |
| 724 | 14 Apr 21:16:05 | 9 | 9.7 mph | 11 | SSW (208°) | 99740 | 101891 | 25°C | 68.2% | 18.7°C | 3161ft (963m) | 12.74v | 31 |
| 723 | 14 Apr 21:15:54 | 11 | 11.8 mph | 13 | SW (215°) | 99735 | 101886 | 25°C | 68.3% | 18.8°C | 3152ft (961m) | 12.73v | 31 |
| 722 | 14 Apr 21:15:42 | 8 | 9.8 mph | 13 | SSW (203°) | 99737 | 101888 | 25°C | 68.1% | 18.7°C | 3171ft (967m) | 12.73v | 31 |
| 721 | 14 Apr 21:15:31 | 8 | 9.4 mph | 13 | SSW (193°) | 99733 | 101884 | 25°C | 68.2% | 18.7°C | 3161ft (963m) | 12.74v | 31 |
| 720 | 14 Apr 21:15:20 | 8 | 9.3 mph | 11 | SSW (205°) | 99739 | 101890 | 25°C | 68.2% | 18.7°C | 3161ft (963m) | 12.75v | 31 |
| 719 | 14 Apr 21:15:09 | 8 | 10.1 mph | 14 | SSW (200°) | 99739 | 101890 | 25°C | 68.3% | 18.8°C | 3152ft (961m) | 12.74v | 31 |
| 718 | 14 Apr 21:14:57 | 8 | 11.4 mph | 14 | SSW (208°) | 99739 | 101890 | 25°C | 68.1% | 18.7°C | 3171ft (967m) | 12.74v | 31 |
| 717 | 14 Apr 21:14:46 | 10 | 11 mph | 12 | SSW (199°) | 99737 | 101888 | 25°C | 68.3% | 18.8°C | 3152ft (961m) | 12.74v | 31 |
| 716 | 14 Apr 21:14:35 | 10 | 12.9 mph | 16 | SSW (199°) | 99734 | 101885 | 25°C | 68.3% | 18.8°C | 3152ft (961m) | 12.73v | 31 |
| 715 | 14 Apr 21:14:24 | 10 | 11.5 mph | 13 | SSW (197°) | 99736 | 101887 | 25°C | 68.2% | 18.7°C | 3161ft (963m) | 12.73v | 31 |
| 714 | 14 Apr 21:14:12 | 10 | 12.7 mph | 17 | SSW (212°) | 99733 | 101884 | 25°C | 68.3% | 18.8°C | 3152ft (961m) | 12.72v | 31 |
| 713 | 14 Apr 21:14:01 | 12 | 13.2 mph | 15 | SSW (196°) | 99730 | 101881 | 25°C | 68.3% | 18.8°C | 3152ft (961m) | 12.75v | 31 |
| 712 | 14 Apr 21:13:50 | 10 | 10.1 mph | 12 | SSW (197°) | 99735 | 101886 | 25°C | 68.3% | 18.8°C | 3152ft (961m) | 12.74v | 31 |
| 711 | 14 Apr 21:13:39 | 13 | 14.8 mph | 16 | SSW (212°) | 99738 | 101889 | 25°C | 68.2% | 18.7°C | 3161ft (963m) | 12.74v | 31 |
| 710 | 14 Apr 21:13:27 | 9 | 9.3 mph | 10 | SW (214°) | 99740 | 101891 | 25°C | 68.2% | 18.7°C | 3161ft (963m) | 12.75v | 31 |
| 709 | 14 Apr 21:13:16 | 13 | 12.9 mph | 13 | SSW (213°) | 99741 | 101892 | 25°C | 68.2% | 18.7°C | 3161ft (963m) | 12.75v | 31 |
| 708 | 14 Apr 21:13:05 | 8 | 9.6 mph | 12 | SSW (208°) | 99736 | 101887 | 25°C | 68.2% | 18.7°C | 3161ft (963m) | 12.75v | 31 |
| 707 | 14 Apr 21:12:54 | 8 | 11.4 mph | 16 | S (189°) | 99737 | 101888 | 25°C | 68.2% | 18.7°C | 3161ft (963m) | 12.73v | 31 |
| 706 | 14 Apr 21:12:42 | 12 | 12.3 mph | 16 | SSW (196°) | 99731 | 101882 | 25°C | 68.4% | 18.8°C | 3142ft (958m) | 12.74v | 31 |
| 705 | 14 Apr 21:12:31 | 10 | 12.9 mph | 18 | SSW (196°) | 99739 | 101890 | 25°C | 68.5% | 18.8°C | 3133ft (955m) | 12.74v | 31 |
| 704 | 14 Apr 21:12:20 | 12 | 14.3 mph | 17 | SSW (193°) | 99723 | 101874 | 25°C | 68.5% | 18.8°C | 3133ft (955m) | 12.74v | 31 |
| 703 | 14 Apr 21:12:09 | 12 | 14.6 mph | 16 | SSW (202°) | 99734 | 101885 | 25°C | 68.5% | 18.8°C | 3133ft (955m) | 12.75v | 31 |
| 702 | 14 Apr 21:11:57 | 10 | 12.5 mph | 15 | SSW (203°) | 99734 | 101885 | 25°C | 68.3% | 18.8°C | 3152ft (961m) | 12.74v | 31 |
| 701 | 14 Apr 21:11:46 | 10 | 12.5 mph | 14 | SSW (207°) | 99735 | 101886 | 25°C | 68.4% | 18.8°C | 3142ft (958m) | 12.74v | 31 |
| 700 | 14 Apr 21:11:35 | 11 | 14.5 mph | 17 | SSW (197°) | 99731 | 101882 | 25°C | 68.5% | 18.8°C | 3133ft (955m) | 12.74v | 31 |
| 699 | 14 Apr 21:11:24 | 14 | 15.3 mph | 18 | SSW (196°) | 99733 | 101884 | 25°C | 68.4% | 18.8°C | 3142ft (958m) | 12.75v | 31 |
| 698 | 14 Apr 21:11:12 | 12 | 14.2 mph | 16 | SSW (199°) | 99727 | 101878 | 25°C | 68.4% | 18.8°C | 3142ft (958m) | 12.74v | 31 |
| 697 | 14 Apr 21:11:01 | 11 | 11.7 mph | 15 | SSW (205°) | 99738 | 101889 | 25°C | 68.3% | 18.8°C | 3152ft (961m) | 12.75v | 31 |
| 696 | 14 Apr 21:10:50 | 10 | 12.9 mph | 15 | SSW (194°) | 99729 | 101880 | 25°C | 68.4% | 18.8°C | 3142ft (958m) | 12.75v | 31 |
| 695 | 14 Apr 21:10:39 | 12 | 15.2 mph | 18 | SSW (207°) | 99741 | 101892 | 25°C | 68.3% | 18.8°C | 3152ft (961m) | 12.75v | 31 |
| 694 | 14 Apr 21:10:27 | 10 | 11.8 mph | 15 | SSW (207°) | 99735 | 101886 | 25°C | 68.3% | 18.8°C | 3152ft (961m) | 12.73v | 31 |
| 693 | 14 Apr 21:10:16 | 12 | 13.7 mph | 16 | SSW (199°) | 99732 | 101883 | 25°C | 68.3% | 18.8°C | 3152ft (961m) | 12.74v | 31 |
| 692 | 14 Apr 21:10:05 | 12 | 14.9 mph | 17 | SSW (192°) | 99733 | 101884 | 25°C | 68.3% | 18.8°C | 3152ft (961m) | 12.74v | 31 |
| 691 | 14 Apr 21:09:54 | 12 | 13.9 mph | 15 | S (189°) | 99743 | 101894 | 25°C | 68.3% | 18.8°C | 3152ft (961m) | 12.74v | 31 |
| 690 | 14 Apr 21:09:42 | 10 | 11.4 mph | 16 | SSW (198°) | 99739 | 101890 | 25°C | 68.3% | 18.8°C | 3152ft (961m) | 12.74v | 31 |
| 689 | 14 Apr 21:09:31 | 8 | 9 mph | 12 | SSW (202°) | 99740 | 101891 | 25°C | 68.3% | 18.8°C | 3152ft (961m) | 12.75v | 31 |
| 688 | 14 Apr 21:09:20 | 9 | 10.7 mph | 12 | SSW (197°) | 99739 | 101890 | 25°C | 68.2% | 18.7°C | 3161ft (963m) | 12.75v | 31 |
| 687 | 14 Apr 21:09:09 | 9 | 10.5 mph | 13 | SSW (195°) | 99743 | 101894 | 25.1°C | 68.2% | 18.8°C | 3163ft (964m) | 12.75v | 31 |
| 686 | 14 Apr 21:08:57 | 11 | 12.3 mph | 14 | SSW (195°) | 99732 | 101883 | 25°C | 68.3% | 18.8°C | 3152ft (961m) | 12.74v | 31 |
| 685 | 14 Apr 21:08:46 | 11 | 12.4 mph | 15 | SSW (211°) | 99735 | 101886 | 25°C | 68.2% | 18.7°C | 3161ft (963m) | 12.74v | 31 |
| 684 | 14 Apr 21:08:35 | 12 | 14.5 mph | 17 | SSW (206°) | 99741 | 101892 | 25°C | 68.1% | 18.7°C | 3171ft (967m) | 12.73v | 31 |
| 683 | 14 Apr 21:08:24 | 12 | 13.4 mph | 16 | SSW (193°) | 99735 | 101886 | 25°C | 68.3% | 18.8°C | 3152ft (961m) | 12.75v | 31 |
| 682 | 14 Apr 21:08:12 | 10 | 12.4 mph | 17 | SSW (206°) | 99745 | 101897 | 25°C | 68.2% | 18.7°C | 3161ft (963m) | 12.75v | 31 |
| 681 | 14 Apr 21:08:01 | 11 | 12.1 mph | 13 | SSW (196°) | 99743 | 101894 | 25°C | 68.3% | 18.8°C | 3152ft (961m) | 12.74v | 31 |
| 680 | 14 Apr 21:07:50 | 13 | 14.3 mph | 18 | SSW (204°) | 99737 | 101888 | 25.1°C | 68.2% | 18.8°C | 3163ft (964m) | 12.76v | 31 |
| 679 | 14 Apr 21:07:39 | 14 | 17.7 mph | 21 | SSW (196°) | 99746 | 101898 | 25.1°C | 68.1% | 18.8°C | 3173ft (967m) | 12.75v | 31 |
| 678 | 14 Apr 21:07:27 | 13 | 13.7 mph | 15 | SSW (199°) | 99736 | 101887 | 25.1°C | 68.3% | 18.8°C | 3154ft (961m) | 12.74v | 31 |
| 677 | 14 Apr 21:07:16 | 10 | 11.4 mph | 13 | SSW (197°) | 99738 | 101889 | 25.1°C | 68.3% | 18.8°C | 3154ft (961m) | 12.75v | 31 |
| 676 | 14 Apr 21:07:05 | 7 | 9.1 mph | 12 | SSW (199°) | 99744 | 101895 | 25.1°C | 68.2% | 18.8°C | 3163ft (964m) | 12.76v | 31 |
| 675 | 14 Apr 21:06:54 | 7 | 8 mph | 9 | SSW (207°) | 99743 | 101894 | 25.1°C | 68.2% | 18.8°C | 3163ft (964m) | 12.73v | 31 |
| 674 | 14 Apr 21:06:42 | 11 | 12.5 mph | 15 | SSW (212°) | 99744 | 101895 | 25.1°C | 68.1% | 18.8°C | 3173ft (967m) | 12.74v | 31 |
| 673 | 14 Apr 21:06:31 | 10 | 10.9 mph | 12 | SW (219°) | 99747 | 101899 | 25.1°C | 68.2% | 18.8°C | 3163ft (964m) | 12.74v | 31 |
| 672 | 14 Apr 21:06:20 | 10 | 11.2 mph | 13 | SSW (206°) | 99747 | 101899 | 25.1°C | 68.1% | 18.8°C | 3173ft (967m) | 12.76v | 31 |
| 671 | 14 Apr 21:06:09 | 10 | 11.3 mph | 12 | SSW (209°) | 99742 | 101893 | 25.1°C | 68.1% | 18.8°C | 3173ft (967m) | 12.75v | 31 |
| 670 | 14 Apr 21:05:57 | 12 | 12.3 mph | 14 | SSW (212°) | 99752 | 101904 | 25.1°C | 68.2% | 18.8°C | 3163ft (964m) | 12.73v | 31 |
| 669 | 14 Apr 21:05:46 | 12 | 12.4 mph | 14 | SSW (212°) | 99749 | 101901 | 25.1°C | 68.2% | 18.8°C | 3163ft (964m) | 12.76v | 31 |
| 668 | 14 Apr 21:05:35 | 12 | 14.8 mph | 17 | SSW (203°) | 99748 | 101900 | 25°C | 68.2% | 18.7°C | 3161ft (963m) | 12.74v | 31 |
| 667 | 14 Apr 21:05:24 | 14 | 14.4 mph | 17 | SSW (199°) | 99746 | 101898 | 25°C | 68.3% | 18.8°C | 3152ft (961m) | 12.75v | 31 |
| 666 | 14 Apr 21:05:12 | 12 | 14 mph | 17 | SSW (203°) | 99740 | 101891 | 25°C | 68.2% | 18.7°C | 3161ft (963m) | 12.74v | 31 |
| 665 | 14 Apr 21:05:01 | 12 | 13.2 mph | 17 | SSW (203°) | 99742 | 101893 | 25.1°C | 68.1% | 18.8°C | 3173ft (967m) | 12.74v | 31 |
| 664 | 14 Apr 21:04:50 | 10 | 12.5 mph | 14 | SW (214°) | 99744 | 101895 | 25.1°C | 68.1% | 18.8°C | 3173ft (967m) | 12.75v | 31 |
| 663 | 14 Apr 21:04:39 | 12 | 14 mph | 17 | SSW (207°) | 99752 | 101904 | 25.1°C | 68% | 18.8°C | 3183ft (970m) | 12.74v | 31 |
| 662 | 14 Apr 21:04:27 | 9 | 10.9 mph | 13 | SW (214°) | 99748 | 101900 | 25.1°C | 67.9% | 18.8°C | 3192ft (973m) | 12.74v | 31 |
| 661 | 14 Apr 21:04:16 | 9 | 11.1 mph | 13 | SSW (207°) | 99746 | 101898 | 25.1°C | 68.1% | 18.8°C | 3173ft (967m) | 12.76v | 31 |
| 660 | 14 Apr 21:04:05 | 10 | 12.3 mph | 15 | SSW (208°) | 99749 | 101901 | 25.1°C | 68% | 18.8°C | 3183ft (970m) | 12.74v | 31 |
| 659 | 14 Apr 21:03:54 | 7 | 8.6 mph | 12 | SSW (202°) | 99750 | 101902 | 25.1°C | 68% | 18.8°C | 3183ft (970m) | 12.73v | 31 |
| 658 | 14 Apr 21:03:42 | 8 | 9.1 mph | 10 | SSW (211°) | 99752 | 101904 | 25.1°C | 68% | 18.8°C | 3183ft (970m) | 12.74v | 31 |
| 657 | 14 Apr 21:03:31 | 12 | 14.9 mph | 20 | SSW (193°) | 99752 | 101904 | 25.1°C | 68.1% | 18.8°C | 3173ft (967m) | 12.74v | 31 |
| 656 | 14 Apr 21:03:20 | 10 | 13.9 mph | 18 | SSW (206°) | 99751 | 101903 | 25.1°C | 67.9% | 18.8°C | 3192ft (973m) | 12.75v | 31 |
| 655 | 14 Apr 21:03:09 | 9 | 10.3 mph | 13 | SSW (206°) | 99751 | 101903 | 25.1°C | 68% | 18.8°C | 3183ft (970m) | 12.76v | 31 |
| 654 | 14 Apr 21:02:57 | 10 | 11.3 mph | 14 | SSW (201°) | 99754 | 101906 | 25.1°C | 67.9% | 18.8°C | 3192ft (973m) | 12.74v | 31 |
| 653 | 14 Apr 21:02:46 | 9 | 12.6 mph | 16 | SSW (200°) | 99740 | 101891 | 25.1°C | 67.9% | 18.8°C | 3192ft (973m) | 12.75v | 31 |
| 652 | 14 Apr 21:02:35 | 12 | 13.7 mph | 15 | SSW (205°) | 99751 | 101903 | 25.1°C | 67.8% | 18.7°C | 3202ft (976m) | 12.76v | 31 |
| 651 | 14 Apr 21:02:24 | 10 | 11.1 mph | 12 | SSW (200°) | 99751 | 101903 | 25.1°C | 67.8% | 18.7°C | 3202ft (976m) | 12.73v | 31 |
| 650 | 14 Apr 21:02:12 | 10 | 12.9 mph | 16 | SSW (203°) | 99750 | 101902 | 25.1°C | 67.7% | 18.7°C | 3212ft (979m) | 12.75v | 31 |
| 649 | 14 Apr 21:02:01 | 7 | 8.8 mph | 12 | SSW (193°) | 99752 | 101904 | 25.1°C | 67.7% | 18.7°C | 3212ft (979m) | 12.75v | 31 |
| 648 | 14 Apr 21:01:50 | 8 | 9 mph | 11 | SSW (212°) | 99753 | 101905 | 25.1°C | 67.9% | 18.8°C | 3192ft (973m) | 12.75v | 31 |
| 647 | 14 Apr 21:01:39 | 11 | 12.3 mph | 14 | SSW (206°) | 99758 | 101910 | 25.1°C | 67.8% | 18.7°C | 3202ft (976m) | 12.75v | 31 |
| 646 | 14 Apr 21:01:27 | 13 | 12.8 mph | 14 | SSW (210°) | 99757 | 101909 | 25.1°C | 67.8% | 18.7°C | 3202ft (976m) | 12.76v | 31 |
| 645 | 14 Apr 21:01:16 | 10 | 12.8 mph | 15 | SSW (205°) | 99752 | 101904 | 25.1°C | 67.9% | 18.8°C | 3192ft (973m) | 12.74v | 31 |
| 644 | 14 Apr 21:01:05 | 8 | 9.9 mph | 13 | SSW (207°) | 99761 | 101913 | 25.1°C | 68% | 18.8°C | 3183ft (970m) | 12.75v | 31 |
| 643 | 14 Apr 21:00:54 | 10 | 12.8 mph | 15 | SSW (198°) | 99758 | 101910 | 25.1°C | 67.8% | 18.7°C | 3202ft (976m) | 12.76v | 31 |
| 642 | 14 Apr 21:00:42 | 9 | 10.2 mph | 13 | SSW (200°) | 99754 | 101906 | 25.1°C | 67.7% | 18.7°C | 3212ft (979m) | 12.74v | 31 |
| 641 | 14 Apr 21:00:31 | 8 | 10.1 mph | 12 | SSW (205°) | 99758 | 101910 | 25.2°C | 67.8% | 18.8°C | 3204ft (977m) | 12.75v | 31 |
| 640 | 14 Apr 21:00:20 | 12 | 13.7 mph | 16 | SSW (201°) | 99754 | 101906 | 25.1°C | 67.8% | 18.7°C | 3202ft (976m) | 12.75v | 31 |
| 639 | 14 Apr 21:00:09 | 9 | 11.3 mph | 13 | SSW (205°) | 99753 | 101905 | 25.2°C | 67.7% | 18.8°C | 3214ft (980m) | 12.76v | 31 |
| 638 | 14 Apr 20:59:57 | 11 | 13.1 mph | 15 | SSW (202°) | 99758 | 101910 | 25.2°C | 67.6% | 18.8°C | 3223ft (982m) | 12.74v | 31 |
| 637 | 14 Apr 20:59:46 | 7 | 9.4 mph | 13 | SSW (204°) | 99754 | 101906 | 25.2°C | 67.6% | 18.8°C | 3223ft (982m) | 12.75v | 31 |
| 636 | 14 Apr 20:59:35 | 7 | 8.3 mph | 9 | SSW (206°) | 99759 | 101911 | 25.2°C | 67.8% | 18.8°C | 3204ft (977m) | 12.74v | 31 |
| 635 | 14 Apr 20:59:24 | 10 | 11 mph | 13 | SSW (206°) | 99757 | 101909 | 25.2°C | 67.7% | 18.8°C | 3214ft (980m) | 12.75v | 31 |
| 634 | 14 Apr 20:59:12 | 8 | 9.9 mph | 12 | SSW (208°) | 99757 | 101909 | 25.2°C | 67.7% | 18.8°C | 3214ft (980m) | 12.74v | 31 |
| 633 | 14 Apr 20:59:01 | 6 | 9.2 mph | 11 | SSW (207°) | 99753 | 101905 | 25.1°C | 67.8% | 18.7°C | 3202ft (976m) | 12.74v | 31 |
| 632 | 14 Apr 20:58:50 | 8 | 9.3 mph | 11 | SW (221°) | 99751 | 101903 | 25.2°C | 67.6% | 18.8°C | 3223ft (982m) | 12.75v | 31 |
| 631 | 14 Apr 20:58:39 | 8 | 10.5 mph | 12 | SSW (208°) | 99759 | 101911 | 25.2°C | 67.5% | 18.8°C | 3233ft (985m) | 12.75v | 31 |
| 630 | 14 Apr 20:58:27 | 7 | 11.1 mph | 14 | SW (223°) | 99759 | 101911 | 25.2°C | 67.4% | 18.7°C | 3243ft (988m) | 12.75v | 31 |
| 629 | 14 Apr 20:58:16 | 8 | 10.3 mph | 14 | SW (219°) | 99757 | 101909 | 25.2°C | 67.5% | 18.8°C | 3233ft (985m) | 12.74v | 31 |
| 628 | 14 Apr 20:58:05 | 10 | 11.5 mph | 13 | SSW (205°) | 99761 | 101913 | 25.2°C | 67.5% | 18.8°C | 3233ft (985m) | 12.75v | 31 |
| 627 | 14 Apr 20:57:54 | 10 | 10.8 mph | 12 | SSW (203°) | 99757 | 101909 | 25.2°C | 67.4% | 18.7°C | 3243ft (988m) | 12.74v | 31 |
| 626 | 14 Apr 20:57:42 | 6 | 7.1 mph | 9 | SSW (205°) | 99758 | 101910 | 25.2°C | 67.7% | 18.8°C | 3214ft (980m) | 12.75v | 31 |
| 625 | 14 Apr 20:57:31 | 8 | 9.4 mph | 11 | SSW (203°) | 99758 | 101910 | 25.2°C | 67.6% | 18.8°C | 3223ft (982m) | 12.72v | 31 |
| 624 | 14 Apr 20:57:20 | 8 | 10.4 mph | 13 | SSW (193°) | 99756 | 101908 | 25.2°C | 67.6% | 18.8°C | 3223ft (982m) | 12.74v | 31 |
| 623 | 14 Apr 20:57:09 | 8 | 9.1 mph | 11 | SSW (201°) | 99757 | 101909 | 25.2°C | 67.6% | 18.8°C | 3223ft (982m) | 12.74v | 31 |
| 622 | 14 Apr 20:56:57 | 11 | 11.7 mph | 13 | SSW (212°) | 99755 | 101907 | 25.2°C | 67.5% | 18.8°C | 3233ft (985m) | 12.76v | 31 |
| 621 | 14 Apr 20:56:46 | 7 | 9.2 mph | 13 | SSW (210°) | 99753 | 101905 | 25.1°C | 67.6% | 18.7°C | 3221ft (982m) | 12.76v | 31 |
| 620 | 14 Apr 20:56:35 | 11 | 12.1 mph | 14 | SSW (213°) | 99755 | 101907 | 25.1°C | 67.8% | 18.7°C | 3202ft (976m) | 12.75v | 31 |
| 619 | 14 Apr 20:56:24 | 9 | 10.3 mph | 14 | SSW (199°) | 99760 | 101912 | 25.1°C | 67.7% | 18.7°C | 3212ft (979m) | 12.75v | 31 |
| 618 | 14 Apr 20:56:12 | 10 | 11.6 mph | 14 | SSW (212°) | 99754 | 101906 | 25.1°C | 67.7% | 18.7°C | 3212ft (979m) | 12.75v | 31 |
| 617 | 14 Apr 20:56:01 | 10 | 11.7 mph | 14 | SSW (200°) | 99745 | 101897 | 25.2°C | 67.7% | 18.8°C | 3214ft (980m) | 12.73v | 31 |
| 616 | 14 Apr 20:55:50 | 14 | 14.8 mph | 17 | SSW (208°) | 99754 | 101906 | 25.2°C | 67.7% | 18.8°C | 3214ft (980m) | 12.73v | 31 |
| 615 | 14 Apr 20:55:39 | 11 | 12.9 mph | 16 | SSW (201°) | 99758 | 101910 | 25.2°C | 67.4% | 18.7°C | 3243ft (988m) | 12.75v | 31 |
| 614 | 14 Apr 20:55:27 | 8 | 10.8 mph | 14 | S (187°) | 99762 | 101914 | 25.1°C | 67.6% | 18.7°C | 3221ft (982m) | 12.76v | 31 |
| 613 | 14 Apr 20:55:16 | 10 | 11 mph | 13 | SSW (201°) | 99758 | 101910 | 25.2°C | 67.5% | 18.8°C | 3233ft (985m) | 12.76v | 31 |
| 612 | 14 Apr 20:55:05 | 11 | 12.7 mph | 15 | SSW (209°) | 99757 | 101909 | 25.2°C | 67.6% | 18.8°C | 3223ft (982m) | 12.75v | 31 |
| 611 | 14 Apr 20:54:54 | 8 | 11 mph | 13 | S (189°) | 99752 | 101904 | 25.2°C | 67.3% | 18.7°C | 3253ft (992m) | 12.76v | 31 |
| 610 | 14 Apr 20:54:42 | 8 | 9.4 mph | 11 | SSW (202°) | 99756 | 101908 | 25.2°C | 67.4% | 18.7°C | 3243ft (988m) | 12.74v | 31 |
| 609 | 14 Apr 20:54:31 | 10 | 10.8 mph | 14 | S (187°) | 99754 | 101906 | 25.2°C | 67.4% | 18.7°C | 3243ft (988m) | 12.74v | 31 |
| 608 | 14 Apr 20:54:20 | 7 | 9.9 mph | 14 | SSW (211°) | 99756 | 101908 | 25.2°C | 67.5% | 18.8°C | 3233ft (985m) | 12.75v | 31 |
| 607 | 14 Apr 20:54:09 | 8 | 10.2 mph | 13 | SSW (199°) | 99752 | 101904 | 25.2°C | 67.6% | 18.8°C | 3223ft (982m) | 12.76v | 31 |
| 606 | 14 Apr 20:53:57 | 8 | 11.5 mph | 13 | SW (220°) | 99750 | 101902 | 25.2°C | 67.6% | 18.8°C | 3223ft (982m) | 12.75v | 31 |
| 605 | 14 Apr 20:53:46 | 13 | 15 mph | 18 | SSW (200°) | 99746 | 101898 | 25.2°C | 67.4% | 18.7°C | 3243ft (988m) | 12.75v | 31 |
| 604 | 14 Apr 20:53:35 | 7 | 8.4 mph | 12 | SSW (202°) | 99751 | 101903 | 25.2°C | 67.6% | 18.8°C | 3223ft (982m) | 12.75v | 31 |
| 603 | 14 Apr 20:53:24 | 5 | 7 mph | 8 | SSW (203°) | 99755 | 101907 | 25.2°C | 67.6% | 18.8°C | 3223ft (982m) | 12.76v | 31 |
| 602 | 14 Apr 20:53:12 | 7 | 8.5 mph | 10 | SSW (208°) | 99754 | 101906 | 25.2°C | 67.6% | 18.8°C | 3223ft (982m) | 12.75v | 31 |
| 601 | 14 Apr 20:53:01 | 9 | 10.3 mph | 13 | SSW (204°) | 99753 | 101905 | 25.2°C | 67.6% | 18.8°C | 3223ft (982m) | 12.76v | 31 |
| 600 | 14 Apr 20:52:50 | 9 | 10.2 mph | 12 | SSW (213°) | 99750 | 101902 | 25.2°C | 67.5% | 18.8°C | 3233ft (985m) | 12.73v | 31 |
| 599 | 14 Apr 20:52:39 | 12 | 12.8 mph | 14 | SSW (211°) | 99753 | 101905 | 25.2°C | 67.4% | 18.7°C | 3243ft (988m) | 12.74v | 31 |
| 598 | 14 Apr 20:52:27 | 7 | 9.5 mph | 12 | SW (219°) | 99753 | 101905 | 25.2°C | 67.5% | 18.8°C | 3233ft (985m) | 12.76v | 31 |
| 597 | 14 Apr 20:52:16 | 8 | 9.2 mph | 10 | SW (216°) | 99757 | 101909 | 25.2°C | 67.5% | 18.8°C | 3233ft (985m) | 12.76v | 31 |
| 596 | 14 Apr 20:52:05 | 8 | 9.2 mph | 11 | SSW (211°) | 99754 | 101906 | 25.2°C | 67.4% | 18.7°C | 3243ft (988m) | 12.75v | 31 |
| 595 | 14 Apr 20:51:54 | 8 | 10.6 mph | 13 | SSW (204°) | 99755 | 101907 | 25.2°C | 67.5% | 18.8°C | 3233ft (985m) | 12.74v | 31 |
| 594 | 14 Apr 20:51:42 | 7 | 9 mph | 13 | SW (222°) | 99756 | 101908 | 25.2°C | 67.5% | 18.8°C | 3233ft (985m) | 12.74v | 31 |
| 593 | 14 Apr 20:51:31 | 7 | 8.5 mph | 10 | SSW (205°) | 99753 | 101905 | 25.2°C | 67.6% | 18.8°C | 3223ft (982m) | 12.74v | 31 |
| 592 | 14 Apr 20:51:20 | 9 | 12.4 mph | 15 | S (186°) | 99753 | 101905 | 25.2°C | 67.6% | 18.8°C | 3223ft (982m) | 12.76v | 31 |
| 591 | 14 Apr 20:51:09 | 8 | 10.3 mph | 13 | SSW (203°) | 99754 | 101906 | 25.2°C | 67.5% | 18.8°C | 3233ft (985m) | 12.75v | 31 |
| 590 | 14 Apr 20:50:57 | 9 | 10.3 mph | 12 | SSW (202°) | 99755 | 101907 | 25.2°C | 67.5% | 18.8°C | 3233ft (985m) | 12.76v | 31 |
| 589 | 14 Apr 20:50:46 | 8 | 10 mph | 14 | SSW (201°) | 99749 | 101901 | 25.2°C | 67.7% | 18.8°C | 3214ft (980m) | 12.75v | 31 |
| 588 | 14 Apr 20:50:35 | 10 | 13.1 mph | 16 | SSW (197°) | 99756 | 101908 | 25.1°C | 67.8% | 18.7°C | 3202ft (976m) | 12.75v | 31 |
| 587 | 14 Apr 20:50:24 | 13 | 13.5 mph | 15 | SSW (196°) | 99759 | 101911 | 25.1°C | 67.7% | 18.7°C | 3212ft (979m) | 12.76v | 31 |
| 586 | 14 Apr 20:50:12 | 11 | 11.2 mph | 14 | SW (216°) | 99747 | 101899 | 25.1°C | 67.7% | 18.7°C | 3212ft (979m) | 12.74v | 31 |
| 585 | 14 Apr 20:50:01 | 14 | 15.7 mph | 18 | SSW (202°) | 99751 | 101903 | 25.2°C | 67.6% | 18.8°C | 3223ft (982m) | 12.75v | 31 |
| 584 | 14 Apr 20:49:50 | 12 | 13.4 mph | 15 | SSW (199°) | 99753 | 101905 | 25.2°C | 67.6% | 18.8°C | 3223ft (982m) | 12.74v | 31 |
| 583 | 14 Apr 20:49:39 | 9 | 12.8 mph | 16 | SSW (204°) | 99745 | 101897 | 25.1°C | 67.6% | 18.7°C | 3221ft (982m) | 12.76v | 31 |
| 582 | 14 Apr 20:49:27 | 8 | 9.5 mph | 12 | SSW (206°) | 99752 | 101904 | 25.2°C | 67.5% | 18.8°C | 3233ft (985m) | 12.75v | 31 |
| 581 | 14 Apr 20:49:16 | 10 | 12.4 mph | 16 | SSW (205°) | 99750 | 101902 | 25.2°C | 67.5% | 18.8°C | 3233ft (985m) | 12.76v | 31 |
| 580 | 14 Apr 20:49:05 | 12 | 11.4 mph | 14 | SW (218°) | 99744 | 101895 | 25.2°C | 67.4% | 18.7°C | 3243ft (988m) | 12.75v | 31 |
| 579 | 14 Apr 20:48:54 | 11 | 12.3 mph | 15 | SSW (207°) | 99750 | 101902 | 25.2°C | 67.5% | 18.8°C | 3233ft (985m) | 12.75v | 31 |
| 578 | 14 Apr 20:48:42 | 11 | 13 mph | 15 | SSW (202°) | 99752 | 101904 | 25.2°C | 67.5% | 18.8°C | 3233ft (985m) | 12.75v | 31 |
| 577 | 14 Apr 20:48:31 | 11 | 12.9 mph | 16 | SSW (197°) | 99758 | 101910 | 25.2°C | 67.5% | 18.8°C | 3233ft (985m) | 12.75v | 31 |
| 576 | 14 Apr 20:48:20 | 11 | 13.3 mph | 15 | SSW (207°) | 99753 | 101905 | 25.2°C | 67.3% | 18.7°C | 3253ft (992m) | 12.74v | 31 |
| 575 | 14 Apr 20:48:09 | 11 | 13.7 mph | 15 | SSW (206°) | 99756 | 101908 | 25.2°C | 67.3% | 18.7°C | 3253ft (992m) | 12.74v | 31 |
| 574 | 14 Apr 20:47:57 | 8 | 11.3 mph | 15 | SSW (202°) | 99749 | 101901 | 25.2°C | 67.3% | 18.7°C | 3253ft (992m) | 12.75v | 31 |
| 573 | 14 Apr 20:47:46 | 10 | 10.5 mph | 12 | SSW (201°) | 99756 | 101908 | 25.2°C | 67.2% | 18.7°C | 3262ft (994m) | 12.77v | 31 |
| 572 | 14 Apr 20:47:35 | 8 | 9.4 mph | 12 | SSW (212°) | 99756 | 101908 | 25.2°C | 67.4% | 18.7°C | 3243ft (988m) | 12.75v | 31 |
| 571 | 14 Apr 20:47:24 | 9 | 11.6 mph | 15 | SSW (200°) | 99752 | 101904 | 25.2°C | 67.4% | 18.7°C | 3243ft (988m) | 12.75v | 31 |
| 570 | 14 Apr 20:47:12 | 9 | 9.9 mph | 12 | SW (214°) | 99745 | 101897 | 25.2°C | 67.3% | 18.7°C | 3253ft (992m) | 12.76v | 31 |
| 569 | 14 Apr 20:47:01 | 10 | 11.7 mph | 13 | SSW (204°) | 99753 | 101905 | 25.2°C | 67.4% | 18.7°C | 3243ft (988m) | 12.76v | 31 |
| 568 | 14 Apr 20:46:50 | 10 | 11.5 mph | 13 | SSW (211°) | 99752 | 101904 | 25.2°C | 67.3% | 18.7°C | 3253ft (992m) | 12.74v | 31 |
| 567 | 14 Apr 20:46:39 | 10 | 11 mph | 13 | SW (215°) | 99748 | 101900 | 25.2°C | 67.4% | 18.7°C | 3243ft (988m) | 12.77v | 31 |
| 566 | 14 Apr 20:46:27 | 10 | 10.5 mph | 12 | SSW (213°) | 99751 | 101903 | 25.2°C | 67.2% | 18.7°C | 3262ft (994m) | 12.76v | 31 |
| 565 | 14 Apr 20:46:16 | 9 | 11.2 mph | 13 | SSW (208°) | 99751 | 101903 | 25.2°C | 67.2% | 18.7°C | 3262ft (994m) | 12.77v | 31 |
| 564 | 14 Apr 20:46:05 | 8 | 10.6 mph | 14 | SSW (198°) | 99754 | 101906 | 25.2°C | 67.3% | 18.7°C | 3253ft (992m) | 12.75v | 31 |
| 563 | 14 Apr 20:45:54 | 9 | 11.6 mph | 14 | S (190°) | 99743 | 101894 | 25.2°C | 67.5% | 18.8°C | 3233ft (985m) | 12.75v | 31 |
| 562 | 14 Apr 20:45:42 | 9 | 11.7 mph | 16 | SSW (207°) | 99754 | 101906 | 25.2°C | 67.4% | 18.7°C | 3243ft (988m) | 12.75v | 31 |
| 561 | 14 Apr 20:45:31 | 10 | 12.8 mph | 16 | SSW (202°) | 99755 | 101907 | 25.2°C | 67.6% | 18.8°C | 3223ft (982m) | 12.75v | 31 |
| 560 | 14 Apr 20:45:20 | 10 | 12.8 mph | 17 | SSW (207°) | 99748 | 101900 | 25.2°C | 67.4% | 18.7°C | 3243ft (988m) | 12.75v | 31 |
| 559 | 14 Apr 20:45:09 | 10 | 10.3 mph | 11 | SSW (210°) | 99753 | 101905 | 25.2°C | 67.3% | 18.7°C | 3253ft (992m) | 12.75v | 31 |
| 558 | 14 Apr 20:44:57 | 6 | 7.8 mph | 9 | SW (219°) | 99750 | 101902 | 25.2°C | 67.4% | 18.7°C | 3243ft (988m) | 12.75v | 31 |
| 557 | 14 Apr 20:44:46 | 8 | 10.9 mph | 14 | SSW (212°) | 99750 | 101902 | 25.2°C | 67.4% | 18.7°C | 3243ft (988m) | 12.76v | 31 |
| 556 | 14 Apr 20:44:35 | 10 | 11.7 mph | 14 | SSW (207°) | 99749 | 101901 | 25.2°C | 67.4% | 18.7°C | 3243ft (988m) | 12.75v | 31 |
| 555 | 14 Apr 20:44:24 | 8 | 12.6 mph | 16 | SSW (209°) | 99749 | 101901 | 25.2°C | 67.4% | 18.7°C | 3243ft (988m) | 12.76v | 31 |
| 554 | 14 Apr 20:44:12 | 8 | 12.6 mph | 14 | SW (216°) | 99744 | 101895 | 25.2°C | 67.3% | 18.7°C | 3253ft (992m) | 12.75v | 31 |
| 553 | 14 Apr 20:44:01 | 9 | 12.3 mph | 16 | SSW (213°) | 99756 | 101908 | 25.2°C | 67.3% | 18.7°C | 3253ft (992m) | 12.75v | 31 |
| 552 | 14 Apr 20:43:50 | 7 | 12.1 mph | 19 | SSW (202°) | 99746 | 101898 | 25.2°C | 67.1% | 18.7°C | 3272ft (997m) | 12.76v | 31 |
| 551 | 14 Apr 20:43:39 | 6 | 7.7 mph | 9 | SW (218°) | 99752 | 101904 | 25.2°C | 67.4% | 18.7°C | 3243ft (988m) | 12.75v | 31 |
| 550 | 14 Apr 20:43:27 | 8 | 10.5 mph | 13 | SSW (207°) | 99749 | 101901 | 25.2°C | 67.3% | 18.7°C | 3253ft (992m) | 12.74v | 31 |
| 549 | 14 Apr 20:43:16 | 11 | 12.6 mph | 15 | SSW (206°) | 99754 | 101906 | 25.2°C | 67.3% | 18.7°C | 3253ft (992m) | 12.74v | 31 |
| 548 | 14 Apr 20:43:05 | 11 | 12.4 mph | 15 | SSW (209°) | 99756 | 101908 | 25.2°C | 67.4% | 18.7°C | 3243ft (988m) | 12.76v | 31 |
| 547 | 14 Apr 20:42:54 | 8 | 10.7 mph | 15 | SSW (200°) | 99742 | 101893 | 25.2°C | 67.5% | 18.8°C | 3233ft (985m) | 12.76v | 31 |
| 546 | 14 Apr 20:42:42 | 10 | 10.7 mph | 13 | SSW (213°) | 99755 | 101907 | 25.2°C | 67.4% | 18.7°C | 3243ft (988m) | 12.76v | 31 |
| 545 | 14 Apr 20:42:31 | 8 | 9.7 mph | 12 | SSW (194°) | 99750 | 101902 | 25.2°C | 67.4% | 18.7°C | 3243ft (988m) | 12.76v | 31 |
| 544 | 14 Apr 20:42:20 | 12 | 13.7 mph | 16 | SSW (202°) | 99746 | 101898 | 25.1°C | 67.6% | 18.7°C | 3221ft (982m) | 12.75v | 31 |
| 543 | 14 Apr 20:42:09 | 13 | 16 mph | 18 | SSW (209°) | 99755 | 101907 | 25.1°C | 67.7% | 18.7°C | 3212ft (979m) | 12.74v | 31 |
| 542 | 14 Apr 20:41:57 | 11 | 12.3 mph | 15 | SSW (203°) | 99741 | 101892 | 25.2°C | 67.6% | 18.8°C | 3223ft (982m) | 12.75v | 31 |
| 541 | 14 Apr 20:41:46 | 11 | 12.8 mph | 15 | SSW (208°) | 99753 | 101905 | 25.2°C | 67.5% | 18.8°C | 3233ft (985m) | 12.75v | 31 |
| 540 | 14 Apr 20:41:35 | 10 | 10.7 mph | 12 | SSW (212°) | 99756 | 101908 | 25.2°C | 67.5% | 18.8°C | 3233ft (985m) | 12.76v | 31 |
| 539 | 14 Apr 20:41:24 | 10 | 11.1 mph | 13 | SSW (210°) | 99754 | 101906 | 25.2°C | 67.4% | 18.7°C | 3243ft (988m) | 12.77v | 31 |
| 538 | 14 Apr 20:41:12 | 8 | 10.2 mph | 14 | SSW (206°) | 99749 | 101901 | 25.2°C | 67.5% | 18.8°C | 3233ft (985m) | 12.76v | 31 |
| 537 | 14 Apr 20:41:01 | 9 | 11.9 mph | 17 | SSW (202°) | 99755 | 101907 | 25.2°C | 67.5% | 18.8°C | 3233ft (985m) | 12.76v | 31 |
| 536 | 14 Apr 20:40:50 | 9 | 10.9 mph | 13 | SSW (203°) | 99754 | 101906 | 25.2°C | 67.4% | 18.7°C | 3243ft (988m) | 12.76v | 31 |
| 535 | 14 Apr 20:40:39 | 12 | 12.2 mph | 13 | SSW (202°) | 99755 | 101907 | 25.2°C | 67.4% | 18.7°C | 3243ft (988m) | 12.75v | 31 |
| 534 | 14 Apr 20:40:27 | 10 | 12.1 mph | 14 | SSW (207°) | 99760 | 101912 | 25.2°C | 67.4% | 18.7°C | 3243ft (988m) | 12.75v | 31 |
| 533 | 14 Apr 20:40:16 | 9 | 11.5 mph | 14 | SSW (213°) | 99757 | 101909 | 25.2°C | 67.3% | 18.7°C | 3253ft (992m) | 12.76v | 31 |
| 532 | 14 Apr 20:40:05 | 9 | 10.4 mph | 12 | SSW (196°) | 99753 | 101905 | 25.2°C | 67.4% | 18.7°C | 3243ft (988m) | 12.75v | 31 |
| 531 | 14 Apr 20:39:54 | 10 | 13.7 mph | 17 | SSW (203°) | 99756 | 101908 | 25.2°C | 67.4% | 18.7°C | 3243ft (988m) | 12.76v | 31 |
| 530 | 14 Apr 20:39:42 | 11 | 12.4 mph | 14 | SSW (194°) | 99757 | 101909 | 25.2°C | 67.4% | 18.7°C | 3243ft (988m) | 12.76v | 31 |
| 529 | 14 Apr 20:39:31 | 8 | 10 mph | 12 | SSW (199°) | 99754 | 101906 | 25.2°C | 67.5% | 18.8°C | 3233ft (985m) | 12.75v | 31 |
| 528 | 14 Apr 20:39:20 | 13 | 14.5 mph | 17 | SSW (206°) | 99754 | 101906 | 25.2°C | 67.5% | 18.8°C | 3233ft (985m) | 12.76v | 31 |
| 527 | 14 Apr 20:39:09 | 10 | 11.9 mph | 15 | SSW (212°) | 99756 | 101908 | 25.2°C | 67.4% | 18.7°C | 3243ft (988m) | 12.75v | 31 |
| 526 | 14 Apr 20:38:57 | 12 | 13.1 mph | 15 | SSW (192°) | 99747 | 101899 | 25.1°C | 67.6% | 18.7°C | 3221ft (982m) | 12.76v | 31 |
| 525 | 14 Apr 20:38:46 | 13 | 14.3 mph | 16 | SSW (203°) | 99755 | 101907 | 25.1°C | 67.5% | 18.7°C | 3231ft (985m) | 12.76v | 31 |
| 524 | 14 Apr 20:38:35 | 12 | 12.2 mph | 13 | SSW (209°) | 99761 | 101913 | 25.1°C | 67.4% | 18.6°C | 3241ft (988m) | 12.75v | 31 |
| 523 | 14 Apr 20:38:24 | 9 | 10.9 mph | 13 | SSW (208°) | 99757 | 101909 | 25.2°C | 67.3% | 18.7°C | 3253ft (992m) | 12.76v | 31 |
| 522 | 14 Apr 20:38:12 | 7 | 8.8 mph | 13 | SSW (192°) | 99754 | 101906 | 25.1°C | 67.7% | 18.7°C | 3212ft (979m) | 12.74v | 31 |
| 521 | 14 Apr 20:38:01 | 12 | 12.8 mph | 15 | S (185°) | 99756 | 101908 | 25.1°C | 67.6% | 18.7°C | 3221ft (982m) | 12.76v | 31 |
| 520 | 14 Apr 20:37:50 | 11 | 12.7 mph | 15 | SSW (206°) | 99753 | 101905 | 25.1°C | 67.6% | 18.7°C | 3221ft (982m) | 12.76v | 31 |
| 519 | 14 Apr 20:37:39 | 9 | 11.8 mph | 15 | SSW (203°) | 99743 | 101894 | 25.1°C | 67.5% | 18.7°C | 3231ft (985m) | 12.75v | 31 |
| 518 | 14 Apr 20:37:27 | 11 | 13.1 mph | 15 | SSW (209°) | 99757 | 101909 | 25.1°C | 67.6% | 18.7°C | 3221ft (982m) | 12.75v | 31 |
| 517 | 14 Apr 20:37:16 | 9 | 9.3 mph | 10 | SSW (200°) | 99761 | 101913 | 25.1°C | 67.7% | 18.7°C | 3212ft (979m) | 12.76v | 31 |
| 516 | 14 Apr 20:37:05 | 8 | 11.5 mph | 14 | SSW (205°) | 99758 | 101910 | 25.1°C | 67.6% | 18.7°C | 3221ft (982m) | 12.77v | 31 |
| 515 | 14 Apr 20:36:54 | 12 | 14.5 mph | 16 | SSW (205°) | 99758 | 101910 | 25.1°C | 67.6% | 18.7°C | 3221ft (982m) | 12.78v | 31 |
| 514 | 14 Apr 20:36:42 | 8 | 10.8 mph | 16 | SSW (205°) | 99758 | 101910 | 25.2°C | 67.4% | 18.7°C | 3243ft (988m) | 12.75v | 31 |
| 513 | 14 Apr 20:36:31 | 8 | 10.8 mph | 14 | S (186°) | 99757 | 101909 | 25.1°C | 67.5% | 18.7°C | 3231ft (985m) | 12.77v | 31 |
| 512 | 14 Apr 20:36:20 | 8 | 9.7 mph | 13 | SSW (204°) | 99759 | 101911 | 25.2°C | 67.4% | 18.7°C | 3243ft (988m) | 12.75v | 31 |
| 511 | 14 Apr 20:36:09 | 10 | 11.6 mph | 14 | SSW (208°) | 99756 | 101908 | 25.2°C | 67.5% | 18.8°C | 3233ft (985m) | 12.74v | 31 |
| 510 | 14 Apr 20:35:57 | 10 | 11 mph | 14 | SSW (206°) | 99753 | 101905 | 25.1°C | 67.6% | 18.7°C | 3221ft (982m) | 12.75v | 31 |
| 509 | 14 Apr 20:35:46 | 12 | 12.8 mph | 15 | SSW (203°) | 99756 | 101908 | 25.2°C | 67.6% | 18.8°C | 3223ft (982m) | 12.77v | 31 |
| 508 | 14 Apr 20:35:35 | 12 | 15 mph | 18 | SSW (210°) | 99756 | 101908 | 25.1°C | 67.5% | 18.7°C | 3231ft (985m) | 12.76v | 31 |
| 507 | 14 Apr 20:35:24 | 17 | 17.4 mph | 18 | SSW (202°) | 99751 | 101903 | 25.2°C | 67.4% | 18.7°C | 3243ft (988m) | 12.76v | 31 |
| 506 | 14 Apr 20:35:12 | 11 | 13.1 mph | 17 | SSW (203°) | 99760 | 101912 | 25.2°C | 67.2% | 18.7°C | 3262ft (994m) | 12.75v | 31 |
| 505 | 14 Apr 20:35:01 | 12 | 14.7 mph | 16 | SSW (196°) | 99754 | 101906 | 25.2°C | 67.2% | 18.7°C | 3262ft (994m) | 12.77v | 31 |
| 504 | 14 Apr 20:34:50 | 8 | 13 mph | 19 | SSW (203°) | 99753 | 101905 | 25.2°C | 67.2% | 18.7°C | 3262ft (994m) | 12.75v | 31 |
| 503 | 14 Apr 20:34:39 | 10 | 14.4 mph | 18 | S (190°) | 99757 | 101909 | 25.2°C | 67.2% | 18.7°C | 3262ft (994m) | 12.75v | 31 |
| 502 | 14 Apr 20:34:27 | 9 | 10.7 mph | 13 | SSW (207°) | 99757 | 101909 | 25.2°C | 67% | 18.6°C | 3282ft (1000m) | 12.75v | 31 |
| 501 | 14 Apr 20:34:16 | 11 | 11.6 mph | 13 | SSW (197°) | 99756 | 101908 | 25.2°C | 67.1% | 18.7°C | 3272ft (997m) | 12.75v | 31 |
| 500 | 14 Apr 20:34:05 | 10 | 10.5 mph | 12 | S (189°) | 99759 | 101911 | 25.2°C | 67.1% | 18.7°C | 3272ft (997m) | 12.75v | 31 |
| 499 | 14 Apr 20:33:54 | 10 | 12.1 mph | 14 | SSW (204°) | 99759 | 101911 | 25.2°C | 67.1% | 18.7°C | 3272ft (997m) | 12.76v | 31 |
| 498 | 14 Apr 20:33:42 | 12 | 14.8 mph | 17 | SSW (198°) | 99759 | 101911 | 25.2°C | 67.2% | 18.7°C | 3262ft (994m) | 12.77v | 31 |
| 497 | 14 Apr 20:33:31 | 9 | 13 mph | 17 | S (191°) | 99760 | 101912 | 25.2°C | 67.1% | 18.7°C | 3272ft (997m) | 12.76v | 31 |
| 496 | 14 Apr 20:33:20 | 11 | 14.1 mph | 17 | SSW (193°) | 99753 | 101905 | 25.2°C | 67.1% | 18.7°C | 3272ft (997m) | 12.77v | 31 |
| 495 | 14 Apr 20:33:09 | 11 | 12.1 mph | 16 | SSW (194°) | 99743 | 101894 | 25.3°C | 67% | 18.7°C | 3284ft (1001m) | 12.74v | 31 |
| 494 | 14 Apr 20:32:57 | 7 | 7.9 mph | 10 | SSW (204°) | 99759 | 101911 | 25.3°C | 67% | 18.7°C | 3284ft (1001m) | 12.75v | 31 |
| 493 | 14 Apr 20:32:46 | 8 | 10.1 mph | 12 | SSW (198°) | 99754 | 101906 | 25.2°C | 67.2% | 18.7°C | 3262ft (994m) | 12.74v | 31 |
| 492 | 14 Apr 20:32:35 | 11 | 12 mph | 13 | SSW (196°) | 99752 | 101904 | 25.2°C | 67.1% | 18.7°C | 3272ft (997m) | 12.76v | 31 |
| 491 | 14 Apr 20:32:24 | 11 | 11.3 mph | 13 | SSW (196°) | 99754 | 101906 | 25.2°C | 67.1% | 18.7°C | 3272ft (997m) | 12.77v | 31 |
| 490 | 14 Apr 20:32:12 | 10 | 11.5 mph | 13 | SSW (206°) | 99755 | 101907 | 25.2°C | 67.1% | 18.7°C | 3272ft (997m) | 12.76v | 31 |
| 489 | 14 Apr 20:32:01 | 15 | 15.9 mph | 17 | SSW (197°) | 99753 | 101905 | 25.2°C | 67.3% | 18.7°C | 3253ft (992m) | 12.77v | 31 |
| 488 | 14 Apr 20:31:50 | 15 | 16.1 mph | 18 | SSW (192°) | 99744 | 101895 | 25.2°C | 67.3% | 18.7°C | 3253ft (992m) | 12.75v | 31 |
| 487 | 14 Apr 20:31:39 | 13 | 14.4 mph | 17 | SSW (202°) | 99745 | 101897 | 25.2°C | 67.1% | 18.7°C | 3272ft (997m) | 12.75v | 31 |
| 486 | 14 Apr 20:31:27 | 9 | 12.7 mph | 15 | SSW (203°) | 99754 | 101906 | 25.2°C | 67.1% | 18.7°C | 3272ft (997m) | 12.75v | 31 |
| 485 | 14 Apr 20:31:16 | 8 | 10.2 mph | 13 | SSW (210°) | 99754 | 101906 | 25.2°C | 67% | 18.6°C | 3282ft (1000m) | 12.76v | 31 |
| 484 | 14 Apr 20:31:05 | 12 | 13.1 mph | 15 | SSW (211°) | 99750 | 101902 | 25.2°C | 67.1% | 18.7°C | 3272ft (997m) | 12.76v | 31 |
| 483 | 14 Apr 20:30:54 | 9 | 11 mph | 14 | SSW (200°) | 99750 | 101902 | 25.3°C | 67% | 18.7°C | 3284ft (1001m) | 12.77v | 31 |
| 482 | 14 Apr 20:30:42 | 10 | 10.3 mph | 13 | SSW (210°) | 99755 | 101907 | 25.3°C | 66.8% | 18.7°C | 3303ft (1007m) | 12.77v | 31 |
| 481 | 14 Apr 20:30:31 | 7 | 7.6 mph | 11 | SSW (195°) | 99752 | 101904 | 25.3°C | 67% | 18.7°C | 3284ft (1001m) | 12.76v | 31 |
| 480 | 14 Apr 20:30:20 | 7 | 8.9 mph | 14 | SSW (198°) | 99755 | 101907 | 25.3°C | 67.1% | 18.8°C | 3274ft (998m) | 12.77v | 31 |
| 479 | 14 Apr 20:30:09 | 11 | 12.5 mph | 15 | SSW (198°) | 99739 | 101890 | 25.3°C | 66.9% | 18.7°C | 3294ft (1004m) | 12.76v | 31 |
| 478 | 14 Apr 20:29:57 | 12 | 12.7 mph | 14 | SSW (192°) | 99750 | 101902 | 25.3°C | 67% | 18.7°C | 3284ft (1001m) | 12.76v | 31 |
| 477 | 14 Apr 20:29:46 | 12 | 13.7 mph | 15 | SSW (200°) | 99754 | 101906 | 25.3°C | 66.8% | 18.7°C | 3303ft (1007m) | 12.75v | 31 |
| 476 | 14 Apr 20:29:35 | 12 | 12.5 mph | 14 | SSW (196°) | 99751 | 101903 | 25.3°C | 66.8% | 18.7°C | 3303ft (1007m) | 12.76v | 31 |
| 475 | 14 Apr 20:29:24 | 8 | 10 mph | 12 | SSW (204°) | 99744 | 101895 | 25.3°C | 66.9% | 18.7°C | 3294ft (1004m) | 12.76v | 31 |
| 474 | 14 Apr 20:29:12 | 9 | 10.1 mph | 12 | SSW (213°) | 99749 | 101901 | 25.3°C | 66.9% | 18.7°C | 3294ft (1004m) | 12.77v | 31 |
| 473 | 14 Apr 20:29:01 | 11 | 13.5 mph | 17 | SSW (208°) | 99751 | 101903 | 25.3°C | 67% | 18.7°C | 3284ft (1001m) | 12.77v | 31 |
| 472 | 14 Apr 20:28:50 | 10 | 11.7 mph | 14 | SSW (207°) | 99748 | 101900 | 25.3°C | 66.9% | 18.7°C | 3294ft (1004m) | 12.76v | 31 |
| 471 | 14 Apr 20:28:39 | 7 | 10.4 mph | 12 | SSW (207°) | 99752 | 101904 | 25.3°C | 66.8% | 18.7°C | 3303ft (1007m) | 12.75v | 31 |
| 470 | 14 Apr 20:28:27 | 10 | 13.6 mph | 16 | SSW (198°) | 99752 | 101904 | 25.3°C | 66.8% | 18.7°C | 3303ft (1007m) | 12.75v | 31 |
| 469 | 14 Apr 20:28:16 | 9 | 10.2 mph | 14 | SSW (193°) | 99746 | 101898 | 25.3°C | 66.8% | 18.7°C | 3303ft (1007m) | 12.75v | 31 |
| 468 | 14 Apr 20:28:05 | 9 | 10.2 mph | 13 | SW (217°) | 99751 | 101903 | 25.3°C | 66.7% | 18.7°C | 3313ft (1010m) | 12.74v | 31 |
| 467 | 14 Apr 20:27:54 | 9 | 12.2 mph | 18 | SW (216°) | 99749 | 101901 | 25.3°C | 66.7% | 18.7°C | 3313ft (1010m) | 12.76v | 31 |
| 466 | 14 Apr 20:27:42 | 10 | 13.2 mph | 15 | SSW (205°) | 99749 | 101901 | 25.3°C | 66.8% | 18.7°C | 3303ft (1007m) | 12.77v | 31 |
| 465 | 14 Apr 20:27:31 | 7 | 8.6 mph | 10 | SSW (199°) | 99747 | 101899 | 25.3°C | 66.8% | 18.7°C | 3303ft (1007m) | 12.75v | 31 |
| 464 | 14 Apr 20:27:20 | 9 | 12.9 mph | 17 | SSW (203°) | 99751 | 101903 | 25.3°C | 66.8% | 18.7°C | 3303ft (1007m) | 12.75v | 31 |
| 463 | 14 Apr 20:27:09 | 8 | 10.2 mph | 11 | SSW (195°) | 99749 | 101901 | 25.3°C | 66.9% | 18.7°C | 3294ft (1004m) | 12.75v | 31 |
| 462 | 14 Apr 20:26:57 | 11 | 13.3 mph | 16 | SSW (196°) | 99747 | 101899 | 25.3°C | 66.8% | 18.7°C | 3303ft (1007m) | 12.75v | 31 |
| 461 | 14 Apr 20:26:46 | 15 | 15.7 mph | 17 | SSW (195°) | 99737 | 101888 | 25.3°C | 66.9% | 18.7°C | 3294ft (1004m) | 12.75v | 31 |
| 460 | 14 Apr 20:26:35 | 9 | 11.9 mph | 15 | SSW (200°) | 99738 | 101889 | 25.3°C | 66.7% | 18.7°C | 3313ft (1010m) | 12.76v | 31 |
| 459 | 14 Apr 20:26:24 | 10 | 11.7 mph | 14 | SSW (204°) | 99746 | 101898 | 25.3°C | 66.9% | 18.7°C | 3294ft (1004m) | 12.76v | 31 |
| 458 | 14 Apr 20:26:12 | 12 | 12.4 mph | 15 | SSW (192°) | 99745 | 101897 | 25.3°C | 66.7% | 18.7°C | 3313ft (1010m) | 12.77v | 31 |
| 457 | 14 Apr 20:26:01 | 9 | 11.2 mph | 15 | S (189°) | 99743 | 101894 | 25.3°C | 66.7% | 18.7°C | 3313ft (1010m) | 12.77v | 31 |
| 456 | 14 Apr 20:25:50 | 10 | 11 mph | 13 | SSW (199°) | 99749 | 101901 | 25.3°C | 66.8% | 18.7°C | 3303ft (1007m) | 12.77v | 31 |
| 455 | 14 Apr 20:25:39 | 11 | 12.1 mph | 14 | SSW (197°) | 99750 | 101902 | 25.3°C | 66.8% | 18.7°C | 3303ft (1007m) | 12.77v | 31 |
| 454 | 14 Apr 20:25:27 | 11 | 13.6 mph | 15 | SSW (197°) | 99742 | 101893 | 25.3°C | 66.9% | 18.7°C | 3294ft (1004m) | 12.76v | 31 |
| 453 | 14 Apr 20:25:16 | 11 | 12.6 mph | 17 | SSW (203°) | 99742 | 101893 | 25.3°C | 66.9% | 18.7°C | 3294ft (1004m) | 12.76v | 31 |
| 452 | 14 Apr 20:25:05 | 11 | 13.6 mph | 17 | SSW (198°) | 99748 | 101900 | 25.3°C | 66.8% | 18.7°C | 3303ft (1007m) | 12.75v | 31 |
| 451 | 14 Apr 20:24:54 | 13 | 13.7 mph | 15 | SSW (196°) | 99747 | 101899 | 25.3°C | 66.7% | 18.7°C | 3313ft (1010m) | 12.75v | 31 |
| 450 | 14 Apr 20:24:42 | 12 | 13.7 mph | 19 | SSW (197°) | 99752 | 101904 | 25.3°C | 66.6% | 18.6°C | 3323ft (1013m) | 12.77v | 31 |
| 449 | 14 Apr 20:24:31 | 7 | 8.6 mph | 10 | SSW (204°) | 99746 | 101898 | 25.3°C | 66.6% | 18.6°C | 3323ft (1013m) | 12.76v | 31 |
| 448 | 14 Apr 20:24:20 | 7 | 8.6 mph | 12 | SSW (208°) | 99750 | 101902 | 25.3°C | 66.8% | 18.7°C | 3303ft (1007m) | 12.76v | 31 |
| 447 | 14 Apr 20:24:09 | 12 | 13.4 mph | 14 | SW (214°) | 99748 | 101900 | 25.3°C | 66.8% | 18.7°C | 3303ft (1007m) | 12.76v | 31 |
| 446 | 14 Apr 20:23:57 | 12 | 13.6 mph | 15 | SSW (205°) | 99746 | 101898 | 25.3°C | 66.7% | 18.7°C | 3313ft (1010m) | 12.76v | 31 |
| 445 | 14 Apr 20:23:46 | 11 | 12.8 mph | 14 | SSW (202°) | 99748 | 101900 | 25.3°C | 66.8% | 18.7°C | 3303ft (1007m) | 12.75v | 31 |
| 444 | 14 Apr 20:23:35 | 11 | 11.9 mph | 13 | SSW (210°) | 99747 | 101899 | 25.3°C | 66.7% | 18.7°C | 3313ft (1010m) | 12.76v | 31 |
| 443 | 14 Apr 20:23:24 | 11 | 12.3 mph | 14 | SSW (198°) | 99747 | 101899 | 25.3°C | 66.6% | 18.6°C | 3323ft (1013m) | 12.77v | 31 |
| 442 | 14 Apr 20:23:12 | 13 | 13.6 mph | 16 | SSW (203°) | 99747 | 101899 | 25.3°C | 66.6% | 18.6°C | 3323ft (1013m) | 12.77v | 31 |
| 441 | 14 Apr 20:23:01 | 11 | 12.9 mph | 15 | SSW (203°) | 99742 | 101893 | 25.3°C | 66.7% | 18.7°C | 3313ft (1010m) | 12.77v | 31 |
| 440 | 14 Apr 20:22:50 | 12 | 12.7 mph | 15 | SSW (201°) | 99741 | 101892 | 25.3°C | 66.5% | 18.6°C | 3333ft (1016m) | 12.76v | 31 |
| 439 | 14 Apr 20:22:39 | 13 | 14.3 mph | 17 | SSW (194°) | 99742 | 101893 | 25.3°C | 66.4% | 18.6°C | 3343ft (1019m) | 12.76v | 31 |
| 438 | 14 Apr 20:22:27 | 11 | 13.4 mph | 17 | SSW (194°) | 99736 | 101887 | 25.4°C | 66.4% | 18.7°C | 3345ft (1020m) | 12.75v | 31 |
| 437 | 14 Apr 20:22:16 | 12 | 14.5 mph | 18 | SSW (206°) | 99748 | 101900 | 25.4°C | 66.4% | 18.7°C | 3345ft (1020m) | 12.76v | 31 |
| 436 | 14 Apr 20:22:05 | 12 | 12.7 mph | 16 | SSW (195°) | 99740 | 101891 | 25.4°C | 66.3% | 18.7°C | 3355ft (1023m) | 12.74v | 31 |
| 435 | 14 Apr 20:21:54 | 12 | 14.9 mph | 18 | SSW (206°) | 99739 | 101890 | 25.4°C | 66.5% | 18.7°C | 3335ft (1017m) | 12.76v | 31 |
| 434 | 14 Apr 20:21:42 | 15 | 16.3 mph | 18 | SSW (200°) | 99728 | 101879 | 25.4°C | 66.1% | 18.6°C | 3375ft (1029m) | 12.76v | 31 |
| 433 | 14 Apr 20:21:31 | 9 | 12.4 mph | 15 | SSW (200°) | 99730 | 101881 | 25.4°C | 66% | 18.6°C | 3384ft (1031m) | 12.77v | 31 |
| 432 | 14 Apr 20:21:20 | 10 | 9.9 mph | 12 | S (190°) | 99741 | 101892 | 25.4°C | 66.2% | 18.6°C | 3365ft (1026m) | 12.77v | 31 |
| 431 | 14 Apr 20:21:09 | 9 | 9.5 mph | 11 | SSW (209°) | 99740 | 101891 | 25.4°C | 66% | 18.6°C | 3384ft (1031m) | 12.76v | 31 |
| 430 | 14 Apr 20:20:57 | 10 | 11.9 mph | 15 | SSW (207°) | 99746 | 101898 | 25.4°C | 66% | 18.6°C | 3384ft (1031m) | 12.76v | 31 |
| 429 | 14 Apr 20:20:46 | 11 | 12.6 mph | 14 | SSW (200°) | 99741 | 101892 | 25.4°C | 66% | 18.6°C | 3384ft (1031m) | 12.75v | 31 |
| 428 | 14 Apr 20:20:35 | 10 | 12.3 mph | 14 | SSW (195°) | 99744 | 101895 | 25.4°C | 65.9% | 18.6°C | 3394ft (1034m) | 12.77v | 31 |
| 427 | 14 Apr 20:20:24 | 12 | 12.8 mph | 14 | SSW (206°) | 99739 | 101890 | 25.4°C | 66.2% | 18.6°C | 3365ft (1026m) | 12.75v | 31 |
| 426 | 14 Apr 20:20:12 | 10 | 10.9 mph | 13 | SSW (208°) | 99739 | 101890 | 25.4°C | 66.1% | 18.6°C | 3375ft (1029m) | 12.77v | 31 |
| 425 | 14 Apr 20:20:01 | 11 | 12.5 mph | 16 | SSW (200°) | 99739 | 101890 | 25.4°C | 66% | 18.6°C | 3384ft (1031m) | 12.76v | 31 |
| 424 | 14 Apr 20:19:50 | 10 | 11.3 mph | 13 | SSW (205°) | 99743 | 101894 | 25.4°C | 66% | 18.6°C | 3384ft (1031m) | 12.76v | 31 |
| 423 | 14 Apr 20:19:39 | 10 | 11.7 mph | 14 | SSW (202°) | 99743 | 101894 | 25.4°C | 66% | 18.6°C | 3384ft (1031m) | 12.76v | 31 |
| 422 | 14 Apr 20:19:27 | 12 | 13.3 mph | 15 | SSW (203°) | 99734 | 101885 | 25.4°C | 66.2% | 18.6°C | 3365ft (1026m) | 12.76v | 31 |
| 421 | 14 Apr 20:19:16 | 11 | 13.3 mph | 17 | SSW (205°) | 99731 | 101882 | 25.4°C | 66.1% | 18.6°C | 3375ft (1029m) | 12.75v | 31 |
| 420 | 14 Apr 20:19:05 | 8 | 11.8 mph | 17 | S (187°) | 99749 | 101901 | 25.4°C | 66.1% | 18.6°C | 3375ft (1029m) | 12.75v | 31 |
| 419 | 14 Apr 20:18:54 | 8 | 10.2 mph | 13 | SSW (202°) | 99744 | 101895 | 25.4°C | 66.1% | 18.6°C | 3375ft (1029m) | 12.75v | 31 |
| 418 | 14 Apr 20:18:42 | 12 | 13 mph | 16 | SSW (198°) | 99740 | 101891 | 25.4°C | 65.9% | 18.6°C | 3394ft (1034m) | 12.78v | 31 |
| 417 | 14 Apr 20:18:31 | 9 | 10.4 mph | 12 | SSW (198°) | 99730 | 101881 | 25.4°C | 66% | 18.6°C | 3384ft (1031m) | 12.78v | 31 |
| 416 | 14 Apr 20:18:20 | 8 | 10.4 mph | 14 | SW (216°) | 99740 | 101891 | 25.4°C | 66% | 18.6°C | 3384ft (1031m) | 12.77v | 31 |
| 415 | 14 Apr 20:18:09 | 11 | 14.2 mph | 16 | SSW (203°) | 99735 | 101886 | 25.4°C | 65.9% | 18.6°C | 3394ft (1034m) | 12.76v | 31 |
| 414 | 14 Apr 20:17:57 | 11 | 11.3 mph | 13 | SSW (201°) | 99734 | 101885 | 25.4°C | 65.9% | 18.6°C | 3394ft (1034m) | 12.76v | 31 |
| 413 | 14 Apr 20:17:46 | 10 | 10.9 mph | 14 | S (188°) | 99741 | 101892 | 25.4°C | 66.1% | 18.6°C | 3375ft (1029m) | 12.76v | 31 |
| 412 | 14 Apr 20:17:35 | 11 | 13.1 mph | 16 | SSW (204°) | 99739 | 101890 | 25.4°C | 66.2% | 18.6°C | 3365ft (1026m) | 12.75v | 31 |
| 411 | 14 Apr 20:17:24 | 10 | 12.3 mph | 15 | SSW (200°) | 99731 | 101882 | 25.4°C | 66.2% | 18.6°C | 3365ft (1026m) | 12.75v | 31 |
| 410 | 14 Apr 20:17:12 | 8 | 11.1 mph | 15 | SW (219°) | 99738 | 101889 | 25.3°C | 66.2% | 18.5°C | 3363ft (1025m) | 12.77v | 31 |
| 409 | 14 Apr 20:17:01 | 8 | 10.7 mph | 15 | SSW (193°) | 99739 | 101890 | 25.3°C | 66.4% | 18.6°C | 3343ft (1019m) | 12.77v | 31 |
| 408 | 14 Apr 20:16:50 | 10 | 12.2 mph | 17 | SSW (201°) | 99734 | 101885 | 25.3°C | 66.3% | 18.6°C | 3353ft (1022m) | 12.77v | 31 |
| 407 | 14 Apr 20:16:39 | 12 | 14.9 mph | 17 | SSW (208°) | 99733 | 101884 | 25.3°C | 66.3% | 18.6°C | 3353ft (1022m) | 12.76v | 31 |
| 406 | 14 Apr 20:16:27 | 13 | 16 mph | 18 | SSW (196°) | 99741 | 101892 | 25.3°C | 66% | 18.5°C | 3382ft (1031m) | 12.78v | 31 |
| 405 | 14 Apr 20:16:16 | 11 | 14.1 mph | 16 | S (187°) | 99741 | 101892 | 25.4°C | 66.2% | 18.6°C | 3365ft (1026m) | 12.75v | 31 |
| 404 | 14 Apr 20:16:05 | 12 | 15.4 mph | 20 | SSW (208°) | 99734 | 101885 | 25.4°C | 66.1% | 18.6°C | 3375ft (1029m) | 12.77v | 31 |
| 403 | 14 Apr 20:15:54 | 9 | 11.3 mph | 15 | SSW (204°) | 99717 | 101868 | 25.4°C | 66.1% | 18.6°C | 3375ft (1029m) | 12.76v | 31 |
| 402 | 14 Apr 20:15:42 | 13 | 13.6 mph | 15 | S (190°) | 99731 | 101882 | 25.4°C | 65.9% | 18.6°C | 3394ft (1034m) | 12.76v | 31 |
| 401 | 14 Apr 20:15:31 | 11 | 13.4 mph | 16 | SSW (199°) | 99738 | 101889 | 25.4°C | 65.9% | 18.6°C | 3394ft (1034m) | 12.77v | 31 |
| 400 | 14 Apr 20:15:20 | 9 | 9.4 mph | 11 | SSW (198°) | 99732 | 101883 | 25.4°C | 66.1% | 18.6°C | 3375ft (1029m) | 12.76v | 31 |
| 399 | 14 Apr 20:15:09 | 13 | 15.1 mph | 17 | SSW (203°) | 99732 | 101883 | 25.4°C | 66.1% | 18.6°C | 3375ft (1029m) | 12.75v | 31 |
| 398 | 14 Apr 20:14:57 | 12 | 13.6 mph | 16 | SSW (210°) | 99728 | 101879 | 25.4°C | 66.1% | 18.6°C | 3375ft (1029m) | 12.76v | 31 |
| 397 | 14 Apr 20:14:46 | 15 | 16.1 mph | 18 | SSW (202°) | 99735 | 101886 | 25.4°C | 66.1% | 18.6°C | 3375ft (1029m) | 12.76v | 31 |
| 396 | 14 Apr 20:14:35 | 15 | 17.2 mph | 20 | SSW (199°) | 99729 | 101880 | 25.4°C | 66% | 18.6°C | 3384ft (1031m) | 12.76v | 31 |
| 395 | 14 Apr 20:14:24 | 13 | 13.5 mph | 16 | SSW (198°) | 99734 | 101885 | 25.4°C | 66% | 18.6°C | 3384ft (1031m) | 12.77v | 31 |
| 394 | 14 Apr 20:14:12 | 11 | 13.3 mph | 16 | SSW (204°) | 99731 | 101882 | 25.4°C | 66% | 18.6°C | 3384ft (1031m) | 12.76v | 31 |
| 393 | 14 Apr 20:14:01 | 14 | 15.6 mph | 18 | S (181°) | 99734 | 101885 | 25.4°C | 66% | 18.6°C | 3384ft (1031m) | 12.77v | 31 |
| 392 | 14 Apr 20:13:50 | 14 | 14.3 mph | 16 | S (189°) | 99730 | 101881 | 25.4°C | 66% | 18.6°C | 3384ft (1031m) | 12.78v | 31 |
| 391 | 14 Apr 20:13:39 | 10 | 13.3 mph | 17 | SSW (197°) | 99731 | 101882 | 25.4°C | 65.9% | 18.6°C | 3394ft (1034m) | 12.76v | 31 |
| 390 | 14 Apr 20:13:27 | 10 | 14.5 mph | 17 | SSW (198°) | 99724 | 101875 | 25.4°C | 65.9% | 18.6°C | 3394ft (1034m) | 12.76v | 31 |
| 389 | 14 Apr 20:13:16 | 12 | 13.3 mph | 16 | SSW (209°) | 99740 | 101891 | 25.4°C | 65.7% | 18.5°C | 3414ft (1041m) | 12.77v | 31 |
| 388 | 14 Apr 20:13:05 | 12 | 12.4 mph | 14 | SSW (194°) | 99742 | 101893 | 25.4°C | 65.8% | 18.5°C | 3404ft (1038m) | 12.75v | 31 |
| 387 | 14 Apr 20:12:54 | 10 | 12.5 mph | 17 | SSW (199°) | 99733 | 101884 | 25.4°C | 65.7% | 18.5°C | 3414ft (1041m) | 12.76v | 31 |
| 386 | 14 Apr 20:12:42 | 12 | 15.6 mph | 18 | SSW (199°) | 99723 | 101874 | 25.4°C | 65.8% | 18.5°C | 3404ft (1038m) | 12.75v | 31 |
| 385 | 14 Apr 20:12:31 | 12 | 14.1 mph | 17 | S (187°) | 99732 | 101883 | 25.4°C | 65.9% | 18.6°C | 3394ft (1034m) | 12.77v | 31 |
| 384 | 14 Apr 20:12:20 | 12 | 14.5 mph | 18 | SSW (197°) | 99735 | 101886 | 25.4°C | 65.9% | 18.6°C | 3394ft (1034m) | 12.77v | 31 |
| 383 | 14 Apr 20:12:09 | 12 | 14.4 mph | 18 | SSW (196°) | 99724 | 101875 | 25.4°C | 66% | 18.6°C | 3384ft (1031m) | 12.76v | 31 |
| 382 | 14 Apr 20:11:57 | 14 | 17.3 mph | 22 | SSW (203°) | 99741 | 101892 | 25.4°C | 66% | 18.6°C | 3384ft (1031m) | 12.77v | 31 |
| 381 | 14 Apr 20:11:46 | 10 | 15.4 mph | 22 | SSW (201°) | 99725 | 101876 | 25.4°C | 65.8% | 18.5°C | 3404ft (1038m) | 12.76v | 31 |
| 380 | 14 Apr 20:11:35 | 12 | 14.3 mph | 17 | SSW (195°) | 99741 | 101892 | 25.4°C | 65.9% | 18.6°C | 3394ft (1034m) | 12.77v | 31 |
| 379 | 14 Apr 20:11:24 | 13 | 15.2 mph | 18 | SSW (200°) | 99741 | 101892 | 25.4°C | 65.7% | 18.5°C | 3414ft (1041m) | 12.76v | 31 |
| 378 | 14 Apr 20:11:12 | 11 | 13.4 mph | 16 | SSW (199°) | 99718 | 101869 | 25.4°C | 65.7% | 18.5°C | 3414ft (1041m) | 12.77v | 31 |
| 377 | 14 Apr 20:11:01 | 15 | 17.7 mph | 21 | S (190°) | 99739 | 101890 | 25.4°C | 65.8% | 18.5°C | 3404ft (1038m) | 12.78v | 31 |
| 376 | 14 Apr 20:10:50 | 12 | 13.5 mph | 16 | S (188°) | 99737 | 101888 | 25.4°C | 65.5% | 18.5°C | 3434ft (1047m) | 12.78v | 31 |
| 375 | 14 Apr 20:10:39 | 9 | 11.9 mph | 15 | SSW (194°) | 99740 | 101891 | 25.4°C | 65.7% | 18.5°C | 3414ft (1041m) | 12.78v | 31 |
| 374 | 14 Apr 20:10:27 | 14 | 15.6 mph | 19 | SSW (194°) | 99731 | 101882 | 25.4°C | 65.7% | 18.5°C | 3414ft (1041m) | 12.76v | 31 |
| 373 | 14 Apr 20:10:16 | 14 | 15.1 mph | 18 | SSW (193°) | 99732 | 101883 | 25.4°C | 65.4% | 18.4°C | 3444ft (1050m) | 12.76v | 31 |
| 372 | 14 Apr 20:10:05 | 12 | 13.1 mph | 16 | SSW (206°) | 99734 | 101885 | 25.4°C | 65.4% | 18.4°C | 3444ft (1050m) | 12.76v | 31 |
| 371 | 14 Apr 20:09:54 | 11 | 12.8 mph | 14 | SSW (194°) | 99737 | 101888 | 25.4°C | 65.5% | 18.5°C | 3434ft (1047m) | 12.76v | 31 |
| 370 | 14 Apr 20:09:42 | 11 | 12.8 mph | 17 | SSW (200°) | 99730 | 101881 | 25.4°C | 65.4% | 18.4°C | 3444ft (1050m) | 12.76v | 31 |
| 369 | 14 Apr 20:09:31 | 8 | 10.8 mph | 14 | SSW (210°) | 99734 | 101885 | 25.4°C | 65.6% | 18.5°C | 3424ft (1044m) | 12.77v | 31 |
| 368 | 14 Apr 20:09:20 | 12 | 13.9 mph | 18 | S (187°) | 99725 | 101876 | 25.4°C | 65.6% | 18.5°C | 3424ft (1044m) | 12.77v | 31 |
| 367 | 14 Apr 20:09:09 | 11 | 12.2 mph | 14 | SSW (193°) | 99741 | 101892 | 25.4°C | 65.5% | 18.5°C | 3434ft (1047m) | 12.77v | 31 |
| 366 | 14 Apr 20:08:57 | 12 | 14.4 mph | 19 | S (190°) | 99743 | 101894 | 25.4°C | 65.5% | 18.5°C | 3434ft (1047m) | 12.76v | 31 |
| 365 | 14 Apr 20:08:46 | 11 | 14.2 mph | 16 | SSW (193°) | 99725 | 101876 | 25.4°C | 65.4% | 18.4°C | 3444ft (1050m) | 12.77v | 31 |
| 364 | 14 Apr 20:08:35 | 11 | 12.9 mph | 15 | SSW (208°) | 99739 | 101890 | 25.4°C | 65.3% | 18.4°C | 3454ft (1053m) | 12.77v | 31 |
| 363 | 14 Apr 20:08:24 | 12 | 12.8 mph | 14 | SSW (209°) | 99740 | 101891 | 25.5°C | 65.2% | 18.5°C | 3466ft (1056m) | 12.77v | 31 |
| 362 | 14 Apr 20:08:12 | 12 | 13 mph | 15 | SSW (198°) | 99739 | 101890 | 25.4°C | 65.3% | 18.4°C | 3454ft (1053m) | 12.77v | 31 |
| 361 | 14 Apr 20:08:01 | 9 | 10.2 mph | 12 | S (188°) | 99738 | 101889 | 25.4°C | 65.4% | 18.4°C | 3444ft (1050m) | 12.76v | 31 |
| 360 | 14 Apr 20:07:50 | 13 | 14.3 mph | 17 | SSW (202°) | 99736 | 101887 | 25.4°C | 65.4% | 18.4°C | 3444ft (1050m) | 12.77v | 31 |
| 359 | 14 Apr 20:07:39 | 13 | 14.5 mph | 17 | S (191°) | 99734 | 101885 | 25.4°C | 65.4% | 18.4°C | 3444ft (1050m) | 12.78v | 31 |
| 358 | 14 Apr 20:07:27 | 12 | 14.9 mph | 18 | SSW (202°) | 99730 | 101881 | 25.4°C | 65.4% | 18.4°C | 3444ft (1050m) | 12.76v | 31 |
| 357 | 14 Apr 20:07:16 | 9 | 13.1 mph | 17 | SSW (194°) | 99742 | 101893 | 25.4°C | 65.3% | 18.4°C | 3454ft (1053m) | 12.76v | 31 |
| 356 | 14 Apr 20:07:05 | 10 | 10.8 mph | 13 | SSW (209°) | 99734 | 101885 | 25.5°C | 65.3% | 18.5°C | 3456ft (1053m) | 12.77v | 31 |
| 355 | 14 Apr 20:06:54 | 13 | 14.5 mph | 19 | SSW (193°) | 99740 | 101891 | 25.4°C | 65.3% | 18.4°C | 3454ft (1053m) | 12.75v | 31 |
| 354 | 14 Apr 20:06:42 | 14 | 16.8 mph | 19 | SSW (196°) | 99736 | 101887 | 25.5°C | 65.2% | 18.5°C | 3466ft (1056m) | 12.76v | 31 |
| 353 | 14 Apr 20:06:31 | 12 | 17.4 mph | 22 | SSW (199°) | 99732 | 101883 | 25.5°C | 65.2% | 18.5°C | 3466ft (1056m) | 12.77v | 31 |
| 352 | 14 Apr 20:06:20 | 14 | 14 mph | 16 | SSW (203°) | 99737 | 101888 | 25.5°C | 65% | 18.4°C | 3487ft (1063m) | 12.76v | 31 |
| 351 | 14 Apr 20:06:09 | 14 | 15.3 mph | 16 | SSW (212°) | 99735 | 101886 | 25.5°C | 65% | 18.4°C | 3487ft (1063m) | 12.78v | 31 |
| 350 | 14 Apr 20:05:57 | 11 | 14.8 mph | 18 | SSW (194°) | 99729 | 101880 | 25.5°C | 64.9% | 18.4°C | 3497ft (1066m) | 12.77v | 31 |
| 349 | 14 Apr 20:05:46 | 12 | 13.9 mph | 16 | SSW (200°) | 99736 | 101887 | 25.5°C | 64.8% | 18.4°C | 3507ft (1069m) | 12.77v | 31 |
| 348 | 14 Apr 20:05:35 | 12 | 13.4 mph | 15 | SSW (198°) | 99738 | 101889 | 25.5°C | 64.9% | 18.4°C | 3497ft (1066m) | 12.76v | 31 |
| 347 | 14 Apr 20:05:24 | 14 | 15 mph | 16 | SSW (203°) | 99740 | 101891 | 25.5°C | 64.8% | 18.4°C | 3507ft (1069m) | 12.75v | 31 |
| 346 | 14 Apr 20:05:12 | 12 | 13.9 mph | 16 | SSW (197°) | 99746 | 101898 | 25.5°C | 64.7% | 18.4°C | 3517ft (1072m) | 12.76v | 31 |
| 345 | 14 Apr 20:05:01 | 8 | 11.4 mph | 14 | SSW (196°) | 99743 | 101894 | 25.5°C | 64.6% | 18.3°C | 3527ft (1075m) | 12.77v | 31 |
| 344 | 14 Apr 20:04:50 | 7 | 9.8 mph | 13 | SSW (204°) | 99744 | 101895 | 25.5°C | 64.6% | 18.3°C | 3527ft (1075m) | 12.77v | 31 |
| 343 | 14 Apr 20:04:39 | 12 | 14.2 mph | 16 | SSW (195°) | 99734 | 101885 | 25.5°C | 64.7% | 18.4°C | 3517ft (1072m) | 12.77v | 31 |
| 342 | 14 Apr 20:04:27 | 8 | 12.6 mph | 17 | SSW (194°) | 99736 | 101887 | 25.5°C | 64.6% | 18.3°C | 3527ft (1075m) | 12.76v | 31 |
| 341 | 14 Apr 20:04:16 | 11 | 11.6 mph | 14 | SSW (196°) | 99741 | 101892 | 25.5°C | 64.7% | 18.4°C | 3517ft (1072m) | 12.76v | 31 |
| 340 | 14 Apr 20:04:05 | 13 | 16 mph | 19 | SSW (193°) | 99735 | 101886 | 25.5°C | 64.5% | 18.3°C | 3537ft (1078m) | 12.76v | 31 |
| 339 | 14 Apr 20:03:54 | 9 | 11.6 mph | 17 | SSW (208°) | 99738 | 101889 | 25.5°C | 64.5% | 18.3°C | 3537ft (1078m) | 12.75v | 31 |
| 338 | 14 Apr 20:03:42 | 10 | 11.7 mph | 13 | SSW (205°) | 99737 | 101888 | 25.5°C | 64.5% | 18.3°C | 3537ft (1078m) | 12.76v | 31 |
| 337 | 14 Apr 20:03:31 | 14 | 14.2 mph | 15 | SSW (196°) | 99739 | 101890 | 25.5°C | 64.4% | 18.3°C | 3547ft (1081m) | 12.77v | 31 |
| 336 | 14 Apr 20:03:20 | 14 | 14.4 mph | 16 | SSW (207°) | 99735 | 101886 | 25.6°C | 64.3% | 18.4°C | 3560ft (1085m) | 12.78v | 31 |
| 335 | 14 Apr 20:03:09 | 12 | 14.8 mph | 19 | SSW (197°) | 99739 | 101890 | 25.6°C | 64.2% | 18.3°C | 3570ft (1088m) | 12.78v | 31 |
| 334 | 14 Apr 20:02:57 | 10 | 12 mph | 15 | SSW (212°) | 99723 | 101874 | 25.6°C | 64.2% | 18.3°C | 3570ft (1088m) | 12.77v | 31 |
| 333 | 14 Apr 20:02:46 | 9 | 9.2 mph | 10 | SSW (204°) | 99740 | 101891 | 25.6°C | 64% | 18.3°C | 3590ft (1094m) | 12.78v | 31 |
| 332 | 14 Apr 20:02:35 | 8 | 8.9 mph | 10 | SSW (199°) | 99739 | 101890 | 25.6°C | 64.3% | 18.4°C | 3560ft (1085m) | 12.77v | 31 |
| 331 | 14 Apr 20:02:24 | 7 | 9.5 mph | 12 | S (191°) | 99742 | 101893 | 25.6°C | 64.1% | 18.3°C | 3580ft (1091m) | 12.77v | 31 |
| 330 | 14 Apr 20:02:12 | 7 | 9 mph | 12 | SSW (207°) | 99744 | 101895 | 25.6°C | 64.3% | 18.4°C | 3560ft (1085m) | 12.76v | 31 |
| 329 | 14 Apr 20:02:01 | 12 | 13.2 mph | 14 | SSW (203°) | 99740 | 101891 | 25.6°C | 64.2% | 18.3°C | 3570ft (1088m) | 12.77v | 31 |
| 328 | 14 Apr 20:01:50 | 10 | 10.6 mph | 12 | SSW (201°) | 99740 | 101891 | 25.6°C | 64% | 18.3°C | 3590ft (1094m) | 12.76v | 31 |
| 327 | 14 Apr 20:01:39 | 9 | 11.6 mph | 15 | SSW (200°) | 99741 | 101892 | 25.6°C | 64.1% | 18.3°C | 3580ft (1091m) | 12.77v | 31 |
| 326 | 14 Apr 20:01:27 | 13 | 14.5 mph | 16 | SSW (200°) | 99733 | 101884 | 25.6°C | 64.1% | 18.3°C | 3580ft (1091m) | 12.77v | 31 |
| 325 | 14 Apr 20:01:16 | 10 | 14.5 mph | 20 | SSW (201°) | 99730 | 101881 | 25.6°C | 64.1% | 18.3°C | 3580ft (1091m) | 12.77v | 31 |
| 324 | 14 Apr 20:01:05 | 11 | 12.9 mph | 14 | S (190°) | 99738 | 101889 | 25.6°C | 63.9% | 18.3°C | 3600ft (1097m) | 12.77v | 31 |
| 323 | 14 Apr 20:00:54 | 11 | 12.4 mph | 14 | SSW (208°) | 99736 | 101887 | 25.6°C | 63.8% | 18.2°C | 3611ft (1101m) | 12.76v | 31 |
| 322 | 14 Apr 20:00:42 | 7 | 8.8 mph | 11 | SSW (196°) | 99739 | 101890 | 25.6°C | 64% | 18.3°C | 3590ft (1094m) | 12.77v | 31 |
| 321 | 14 Apr 20:00:31 | 8 | 9.9 mph | 11 | SSW (197°) | 99738 | 101889 | 25.6°C | 63.9% | 18.3°C | 3600ft (1097m) | 12.77v | 31 |
| 320 | 14 Apr 20:00:20 | 9 | 10.5 mph | 13 | SSW (207°) | 99745 | 101897 | 25.6°C | 63.9% | 18.3°C | 3600ft (1097m) | 12.76v | 31 |
| 319 | 14 Apr 20:00:09 | 8 | 10.1 mph | 14 | SSW (202°) | 99744 | 101895 | 25.6°C | 63.9% | 18.3°C | 3600ft (1097m) | 12.77v | 31 |
| 318 | 14 Apr 19:59:57 | 8 | 9.7 mph | 12 | SSW (211°) | 99743 | 101894 | 25.6°C | 64.1% | 18.3°C | 3580ft (1091m) | 12.77v | 31 |
| 317 | 14 Apr 19:59:46 | 7 | 10.3 mph | 14 | SSW (211°) | 99738 | 101889 | 25.5°C | 64.1% | 18.2°C | 3578ft (1091m) | 12.77v | 31 |
| 316 | 14 Apr 19:59:35 | 15 | 16.5 mph | 18 | SSW (193°) | 99727 | 101878 | 25.5°C | 64.1% | 18.2°C | 3578ft (1091m) | 12.77v | 31 |
| 315 | 14 Apr 19:59:24 | 9 | 13.3 mph | 16 | S (185°) | 99738 | 101889 | 25.6°C | 64.1% | 18.3°C | 3580ft (1091m) | 12.76v | 31 |
| 314 | 14 Apr 19:59:12 | 10 | 13.1 mph | 15 | SSW (208°) | 99745 | 101897 | 25.6°C | 64.1% | 18.3°C | 3580ft (1091m) | 12.77v | 31 |
| 313 | 14 Apr 19:59:01 | 11 | 13.3 mph | 16 | SSW (206°) | 99734 | 101885 | 25.6°C | 64% | 18.3°C | 3590ft (1094m) | 12.75v | 31 |
| 312 | 14 Apr 19:58:50 | 8 | 8.6 mph | 9 | SSW (207°) | 99744 | 101895 | 25.5°C | 64% | 18.2°C | 3588ft (1094m) | 12.77v | 31 |
| 311 | 14 Apr 19:58:39 | 11 | 13.5 mph | 17 | SSW (199°) | 99737 | 101888 | 25.5°C | 64% | 18.2°C | 3588ft (1094m) | 12.77v | 31 |
| 310 | 14 Apr 19:58:27 | 12 | 13.6 mph | 16 | SSW (196°) | 99733 | 101884 | 25.5°C | 64.1% | 18.2°C | 3578ft (1091m) | 12.77v | 31 |
| 309 | 14 Apr 19:58:16 | 12 | 13.3 mph | 14 | SSW (207°) | 99741 | 101892 | 25.5°C | 64.1% | 18.2°C | 3578ft (1091m) | 12.76v | 31 |
| 308 | 14 Apr 19:58:05 | 10 | 12.7 mph | 16 | SSW (199°) | 99739 | 101890 | 25.5°C | 64% | 18.2°C | 3588ft (1094m) | 12.76v | 31 |
| 307 | 14 Apr 19:57:54 | 15 | 15.2 mph | 16 | SSW (197°) | 99745 | 101897 | 25.6°C | 64% | 18.3°C | 3590ft (1094m) | 12.78v | 31 |
| 306 | 14 Apr 19:57:42 | 13 | 15.8 mph | 18 | SSW (201°) | 99729 | 101880 | 25.6°C | 63.9% | 18.3°C | 3600ft (1097m) | 12.76v | 31 |
| 305 | 14 Apr 19:57:31 | 9 | 11 mph | 14 | SSW (194°) | 99739 | 101890 | 25.6°C | 63.8% | 18.2°C | 3611ft (1101m) | 12.77v | 31 |
| 304 | 14 Apr 19:57:20 | 10 | 11.2 mph | 13 | SSW (201°) | 99739 | 101890 | 25.6°C | 63.8% | 18.2°C | 3611ft (1101m) | 12.76v | 31 |
| 303 | 14 Apr 19:57:09 | 13 | 13.9 mph | 15 | SSW (197°) | 99734 | 101885 | 25.6°C | 63.7% | 18.2°C | 3621ft (1104m) | 12.78v | 31 |
| 302 | 14 Apr 19:56:57 | 10 | 12.6 mph | 15 | SSW (212°) | 99741 | 101892 | 25.6°C | 63.6% | 18.2°C | 3631ft (1107m) | 12.78v | 31 |
| 301 | 14 Apr 19:56:46 | 10 | 10.8 mph | 13 | SSW (204°) | 99739 | 101890 | 25.6°C | 63.6% | 18.2°C | 3631ft (1107m) | 12.77v | 31 |
| 300 | 14 Apr 19:56:35 | 9 | 9.8 mph | 12 | SSW (208°) | 99739 | 101890 | 25.5°C | 63.9% | 18.2°C | 3598ft (1097m) | 12.77v | 31 |
| 299 | 14 Apr 19:56:24 | 10 | 13.8 mph | 16 | SSW (192°) | 99736 | 101887 | 25.5°C | 63.8% | 18.1°C | 3608ft (1100m) | 12.77v | 31 |
| 298 | 14 Apr 19:56:12 | 10 | 12.4 mph | 16 | SSW (205°) | 99734 | 101885 | 25.6°C | 63.8% | 18.2°C | 3611ft (1101m) | 12.76v | 31 |
| 297 | 14 Apr 19:56:01 | 16 | 16.5 mph | 17 | SSW (199°) | 99730 | 101881 | 25.6°C | 63.8% | 18.2°C | 3611ft (1101m) | 12.77v | 31 |
| 296 | 14 Apr 19:55:50 | 11 | 13.9 mph | 17 | SSW (195°) | 99721 | 101872 | 25.6°C | 63.6% | 18.2°C | 3631ft (1107m) | 12.77v | 31 |
| 295 | 14 Apr 19:55:39 | 13 | 14.7 mph | 18 | SSW (209°) | 99738 | 101889 | 25.5°C | 63.6% | 18.1°C | 3629ft (1106m) | 12.76v | 31 |
| 294 | 14 Apr 19:55:27 | 13 | 17.2 mph | 22 | S (189°) | 99732 | 101883 | 25.6°C | 63.6% | 18.2°C | 3631ft (1107m) | 12.76v | 31 |
| 293 | 14 Apr 19:55:16 | 14 | 17.2 mph | 21 | S (187°) | 99732 | 101883 | 25.5°C | 63.7% | 18.1°C | 3619ft (1103m) | 12.77v | 31 |
| 292 | 14 Apr 19:55:05 | 16 | 16.7 mph | 19 | S (188°) | 99729 | 101880 | 25.5°C | 63.7% | 18.1°C | 3619ft (1103m) | 12.77v | 31 |
| 291 | 14 Apr 19:54:54 | 12 | 14.6 mph | 18 | SSW (205°) | 99733 | 101884 | 25.5°C | 63.7% | 18.1°C | 3619ft (1103m) | 12.77v | 31 |
| 290 | 14 Apr 19:54:42 | 14 | 14.8 mph | 16 | S (177°) | 99730 | 101881 | 25.5°C | 63.6% | 18.1°C | 3629ft (1106m) | 12.77v | 31 |
| 289 | 14 Apr 19:54:31 | 11 | 14.5 mph | 17 | SSW (197°) | 99739 | 101890 | 25.5°C | 63.6% | 18.1°C | 3629ft (1106m) | 12.77v | 31 |
| 288 | 14 Apr 19:54:20 | 12 | 14.5 mph | 17 | S (191°) | 99738 | 101889 | 25.5°C | 63.6% | 18.1°C | 3629ft (1106m) | 12.77v | 31 |
| 287 | 14 Apr 19:54:09 | 13 | 13.4 mph | 15 | SSW (196°) | 99734 | 101885 | 25.5°C | 63.6% | 18.1°C | 3629ft (1106m) | 12.77v | 31 |
| 286 | 14 Apr 19:53:57 | 9 | 10.4 mph | 12 | SSW (210°) | 99741 | 101892 | 25.5°C | 63.5% | 18.1°C | 3639ft (1109m) | 12.77v | 31 |
| 285 | 14 Apr 19:53:46 | 9 | 12.2 mph | 14 | SSW (205°) | 99740 | 101891 | 25.6°C | 63.5% | 18.2°C | 3641ft (1110m) | 12.77v | 31 |
| 284 | 14 Apr 19:53:35 | 15 | 15.5 mph | 17 | S (182°) | 99737 | 101888 | 25.5°C | 63.5% | 18.1°C | 3639ft (1109m) | 12.77v | 31 |
| 283 | 14 Apr 19:53:24 | 10 | 13 mph | 17 | SSW (193°) | 99733 | 101884 | 25.6°C | 63.4% | 18.1°C | 3652ft (1113m) | 12.77v | 31 |
| 282 | 14 Apr 19:53:12 | 9 | 11.4 mph | 15 | SSW (202°) | 99731 | 101882 | 25.6°C | 63.3% | 18.1°C | 3662ft (1116m) | 12.77v | 31 |
| 281 | 14 Apr 19:53:01 | 11 | 11.9 mph | 15 | SSW (208°) | 99734 | 101885 | 25.6°C | 63.3% | 18.1°C | 3662ft (1116m) | 12.77v | 31 |
| 280 | 14 Apr 19:52:50 | 10 | 11.9 mph | 15 | SSW (203°) | 99732 | 101883 | 25.6°C | 63.3% | 18.1°C | 3662ft (1116m) | 12.77v | 31 |
| 279 | 14 Apr 19:52:39 | 12 | 13.8 mph | 17 | SSW (199°) | 99732 | 101883 | 25.6°C | 63.2% | 18.1°C | 3672ft (1119m) | 12.77v | 31 |
| 278 | 14 Apr 19:52:27 | 15 | 16.3 mph | 17 | SSW (204°) | 99724 | 101875 | 25.6°C | 63.2% | 18.1°C | 3672ft (1119m) | 12.79v | 31 |
| 277 | 14 Apr 19:52:16 | 9 | 10.7 mph | 14 | SW (215°) | 99730 | 101881 | 25.6°C | 63% | 18°C | 3693ft (1126m) | 12.78v | 31 |
| 276 | 14 Apr 19:52:05 | 9 | 9.1 mph | 11 | SSW (208°) | 99736 | 101887 | 25.6°C | 63% | 18°C | 3693ft (1126m) | 12.78v | 31 |
| 275 | 14 Apr 19:51:54 | 14 | 16.9 mph | 19 | S (191°) | 99730 | 101881 | 25.6°C | 63% | 18°C | 3693ft (1126m) | 12.77v | 31 |
| 274 | 14 Apr 19:51:42 | 14 | 15.5 mph | 18 | S (190°) | 99720 | 101871 | 25.6°C | 62.9% | 18°C | 3703ft (1129m) | 12.77v | 31 |
| 273 | 14 Apr 19:51:31 | 10 | 12.5 mph | 14 | S (190°) | 99722 | 101873 | 25.6°C | 62.8% | 18°C | 3714ft (1132m) | 12.78v | 31 |
| 272 | 14 Apr 19:51:20 | 10 | 11.6 mph | 14 | SSW (209°) | 99733 | 101884 | 25.6°C | 62.7% | 18°C | 3724ft (1135m) | 12.76v | 31 |
| 271 | 14 Apr 19:51:09 | 9 | 9.6 mph | 12 | SSW (203°) | 99735 | 101886 | 25.6°C | 62.8% | 18°C | 3714ft (1132m) | 12.78v | 31 |
| 270 | 14 Apr 19:50:57 | 10 | 11.7 mph | 15 | SSW (209°) | 99733 | 101884 | 25.6°C | 62.8% | 18°C | 3714ft (1132m) | 12.78v | 31 |
| 269 | 14 Apr 19:50:46 | 10 | 11.7 mph | 13 | SSW (199°) | 99736 | 101887 | 25.6°C | 62.8% | 18°C | 3714ft (1132m) | 12.78v | 31 |
| 268 | 14 Apr 19:50:35 | 8 | 10.7 mph | 14 | SSW (203°) | 99735 | 101886 | 25.6°C | 62.8% | 18°C | 3714ft (1132m) | 12.78v | 31 |
| 267 | 14 Apr 19:50:24 | 9 | 11.2 mph | 14 | SW (217°) | 99734 | 101885 | 25.6°C | 62.9% | 18°C | 3703ft (1129m) | 12.77v | 31 |
| 266 | 14 Apr 19:50:12 | 11 | 11.6 mph | 13 | SSW (206°) | 99730 | 101881 | 25.6°C | 62.8% | 18°C | 3714ft (1132m) | 12.77v | 31 |
| 265 | 14 Apr 19:50:01 | 10 | 12 mph | 13 | SW (214°) | 99728 | 101879 | 25.6°C | 63% | 18°C | 3693ft (1126m) | 12.77v | 31 |
| 264 | 14 Apr 19:49:50 | 11 | 11.4 mph | 14 | SSW (200°) | 99735 | 101886 | 25.5°C | 63% | 17.9°C | 3691ft (1125m) | 12.77v | 31 |
| 263 | 14 Apr 19:49:39 | 8 | 11.1 mph | 16 | SSW (199°) | 99728 | 101879 | 25.5°C | 63% | 17.9°C | 3691ft (1125m) | 12.77v | 31 |
| 262 | 14 Apr 19:49:27 | 10 | 10.4 mph | 12 | SSW (203°) | 99734 | 101885 | 25.5°C | 63.1% | 18°C | 3680ft (1122m) | 12.78v | 31 |
| 261 | 14 Apr 19:49:16 | 12 | 13.6 mph | 16 | SSW (210°) | 99733 | 101884 | 25.6°C | 63% | 18°C | 3693ft (1126m) | 12.78v | 31 |
| 260 | 14 Apr 19:49:05 | 10 | 12.8 mph | 15 | SSW (205°) | 99721 | 101872 | 25.6°C | 62.9% | 18°C | 3703ft (1129m) | 12.77v | 31 |
| 259 | 14 Apr 19:48:54 | 9 | 11.6 mph | 15 | SSW (210°) | 99731 | 101882 | 25.6°C | 62.8% | 18°C | 3714ft (1132m) | 12.78v | 31 |
| 258 | 14 Apr 19:48:42 | 13 | 13.6 mph | 14 | SSW (196°) | 99729 | 101880 | 25.6°C | 62.9% | 18°C | 3703ft (1129m) | 12.76v | 31 |
| 257 | 14 Apr 19:48:31 | 11 | 12 mph | 14 | SSW (205°) | 99732 | 101883 | 25.5°C | 62.9% | 17.9°C | 3701ft (1128m) | 12.77v | 31 |
| 256 | 14 Apr 19:48:20 | 14 | 16.1 mph | 18 | SSW (197°) | 99736 | 101887 | 25.6°C | 62.8% | 18°C | 3714ft (1132m) | 12.76v | 31 |
| 255 | 14 Apr 19:48:09 | 14 | 15.1 mph | 19 | SSW (193°) | 99726 | 101877 | 25.6°C | 62.6% | 17.9°C | 3735ft (1138m) | 12.77v | 31 |
| 254 | 14 Apr 19:47:57 | 17 | 18.1 mph | 20 | SSW (194°) | 99725 | 101876 | 25.6°C | 62.6% | 17.9°C | 3735ft (1138m) | 12.78v | 31 |
| 253 | 14 Apr 19:47:46 | 11 | 12.6 mph | 16 | SSW (194°) | 99739 | 101890 | 25.6°C | 62.5% | 17.9°C | 3745ft (1141m) | 12.78v | 31 |
| 252 | 14 Apr 19:47:35 | 14 | 15.2 mph | 18 | SSW (205°) | 99722 | 101873 | 25.6°C | 62.5% | 17.9°C | 3745ft (1141m) | 12.78v | 31 |
| 251 | 14 Apr 19:47:24 | 11 | 14.4 mph | 18 | SSW (203°) | 99731 | 101882 | 25.6°C | 62.4% | 17.9°C | 3755ft (1145m) | 12.78v | 31 |
| 250 | 14 Apr 19:47:12 | 9 | 10.4 mph | 14 | SSW (192°) | 99731 | 101882 | 25.6°C | 62.4% | 17.9°C | 3755ft (1145m) | 12.78v | 31 |
| 249 | 14 Apr 19:47:01 | 12 | 14.9 mph | 19 | SSW (193°) | 99726 | 101877 | 25.6°C | 62.4% | 17.9°C | 3755ft (1145m) | 12.76v | 31 |
| 248 | 14 Apr 19:46:50 | 10 | 12.1 mph | 14 | SSW (192°) | 99730 | 101881 | 25.6°C | 62.4% | 17.9°C | 3755ft (1145m) | 12.77v | 31 |
| 247 | 14 Apr 19:46:39 | 9 | 11 mph | 13 | SSW (201°) | 99725 | 101876 | 25.6°C | 62.5% | 17.9°C | 3745ft (1141m) | 12.76v | 31 |
| 246 | 14 Apr 19:46:27 | 12 | 14.4 mph | 18 | SSW (199°) | 99728 | 101879 | 25.6°C | 62.4% | 17.9°C | 3755ft (1145m) | 12.77v | 31 |
| 245 | 14 Apr 19:46:16 | 13 | 14.3 mph | 17 | SSW (199°) | 99728 | 101879 | 25.6°C | 62.2% | 17.8°C | 3776ft (1151m) | 12.78v | 31 |
| 244 | 14 Apr 19:46:05 | 12 | 13.3 mph | 16 | SSW (196°) | 99728 | 101879 | 25.6°C | 62.2% | 17.8°C | 3776ft (1151m) | 12.78v | 31 |
| 243 | 14 Apr 19:45:54 | 11 | 13.2 mph | 16 | SSW (199°) | 99718 | 101869 | 25.6°C | 62.1% | 17.8°C | 3787ft (1154m) | 12.77v | 31 |
| 242 | 14 Apr 19:45:42 | 10 | 11.9 mph | 15 | SSW (208°) | 99730 | 101881 | 25.6°C | 62.1% | 17.8°C | 3787ft (1154m) | 12.76v | 31 |
| 241 | 14 Apr 19:45:31 | 11 | 12.7 mph | 15 | SSW (202°) | 99728 | 101879 | 25.6°C | 62% | 17.8°C | 3797ft (1157m) | 12.77v | 31 |
| 240 | 14 Apr 19:45:20 | 9 | 10.9 mph | 14 | SSW (193°) | 99725 | 101876 | 25.6°C | 62% | 17.8°C | 3797ft (1157m) | 12.75v | 31 |
| 239 | 14 Apr 19:45:09 | 12 | 13.8 mph | 16 | SSW (198°) | 99725 | 101876 | 25.6°C | 62% | 17.8°C | 3797ft (1157m) | 12.77v | 31 |
| 238 | 14 Apr 19:44:57 | 13 | 16.8 mph | 20 | S (189°) | 99727 | 101878 | 25.6°C | 62% | 17.8°C | 3797ft (1157m) | 12.78v | 31 |
| 237 | 14 Apr 19:44:46 | 13 | 14.3 mph | 17 | S (190°) | 99722 | 101873 | 25.6°C | 61.9% | 17.8°C | 3808ft (1161m) | 12.79v | 31 |
| 236 | 14 Apr 19:44:35 | 9 | 12.4 mph | 17 | SSW (194°) | 99711 | 101862 | 25.6°C | 61.8% | 17.7°C | 3818ft (1164m) | 12.78v | 31 |
| 235 | 14 Apr 19:44:24 | 8 | 12.5 mph | 15 | SSW (204°) | 99722 | 101873 | 25.6°C | 62% | 17.8°C | 3797ft (1157m) | 12.77v | 31 |
| 234 | 14 Apr 19:44:12 | 9 | 11.1 mph | 14 | SSW (199°) | 99723 | 101874 | 25.6°C | 61.8% | 17.7°C | 3818ft (1164m) | 12.77v | 31 |
| 233 | 14 Apr 19:44:01 | 12 | 13.3 mph | 16 | SSW (199°) | 99710 | 101861 | 25.6°C | 61.9% | 17.8°C | 3808ft (1161m) | 12.77v | 31 |
| 232 | 14 Apr 19:43:50 | 10 | 12.6 mph | 16 | SSW (193°) | 99727 | 101878 | 25.6°C | 61.9% | 17.8°C | 3808ft (1161m) | 12.77v | 31 |
| 231 | 14 Apr 19:43:39 | 9 | 12.4 mph | 17 | SSW (204°) | 99713 | 101864 | 25.7°C | 61.4% | 17.7°C | 3863ft (1177m) | 12.78v | 31 |
| 230 | 14 Apr 19:43:27 | 8 | 9.8 mph | 12 | SSW (204°) | 99725 | 101876 | 25.7°C | 61.6% | 17.8°C | 3842ft (1171m) | 12.78v | 31 |
| 229 | 14 Apr 19:43:16 | 9 | 11.3 mph | 14 | SSW (206°) | 99724 | 101875 | 25.6°C | 61.6% | 17.7°C | 3839ft (1170m) | 12.79v | 31 |
| 228 | 14 Apr 19:43:05 | 8 | 10.1 mph | 13 | SSW (213°) | 99728 | 101879 | 25.7°C | 61.5% | 17.7°C | 3852ft (1174m) | 12.78v | 31 |
| 227 | 14 Apr 19:42:54 | 9 | 11.7 mph | 15 | SSW (200°) | 99718 | 101869 | 25.6°C | 61.5% | 17.6°C | 3850ft (1173m) | 12.78v | 31 |
| 226 | 14 Apr 19:42:42 | 8 | 10.9 mph | 13 | SSW (201°) | 99725 | 101876 | 25.6°C | 61.6% | 17.7°C | 3839ft (1170m) | 12.78v | 31 |
| 225 | 14 Apr 19:42:31 | 10 | 12.5 mph | 14 | S (190°) | 99727 | 101878 | 25.6°C | 61.4% | 17.6°C | 3861ft (1177m) | 12.77v | 31 |
| 224 | 14 Apr 19:42:20 | 12 | 12.7 mph | 16 | SSW (197°) | 99723 | 101874 | 25.6°C | 61.4% | 17.6°C | 3861ft (1177m) | 12.77v | 31 |
| 223 | 14 Apr 19:42:09 | 11 | 13.2 mph | 15 | S (183°) | 99725 | 101876 | 25.6°C | 61.5% | 17.6°C | 3850ft (1173m) | 12.77v | 31 |
| 222 | 14 Apr 19:41:57 | 9 | 11.8 mph | 14 | SSW (193°) | 99728 | 101879 | 25.6°C | 61.5% | 17.6°C | 3850ft (1173m) | 12.76v | 31 |
| 221 | 14 Apr 19:41:46 | 13 | 14.8 mph | 17 | SSW (195°) | 99714 | 101865 | 25.6°C | 61.6% | 17.7°C | 3839ft (1170m) | 12.79v | 31 |
| 220 | 14 Apr 19:41:35 | 14 | 14.6 mph | 16 | SSW (198°) | 99717 | 101868 | 25.6°C | 61.4% | 17.6°C | 3861ft (1177m) | 12.78v | 31 |
| 219 | 14 Apr 19:41:24 | 13 | 15 mph | 21 | S (188°) | 99707 | 101858 | 25.6°C | 61.3% | 17.6°C | 3871ft (1180m) | 12.78v | 31 |
| 218 | 14 Apr 19:41:12 | 12 | 16 mph | 21 | SSW (196°) | 99704 | 101855 | 25.7°C | 61.2% | 17.7°C | 3884ft (1184m) | 12.78v | 31 |
| 217 | 14 Apr 19:41:01 | 11 | 14.3 mph | 18 | SSW (200°) | 99720 | 101871 | 25.7°C | 61.2% | 17.7°C | 3884ft (1184m) | 12.78v | 31 |
| 216 | 14 Apr 19:40:50 | 11 | 11.8 mph | 13 | S (188°) | 99723 | 101874 | 25.7°C | 61% | 17.6°C | 3905ft (1190m) | 12.78v | 31 |
| 215 | 14 Apr 19:40:39 | 12 | 12.9 mph | 14 | SSW (193°) | 99718 | 101869 | 25.6°C | 61.1% | 17.5°C | 3892ft (1186m) | 12.76v | 31 |
| 214 | 14 Apr 19:40:27 | 13 | 13.7 mph | 16 | SSW (192°) | 99720 | 101871 | 25.7°C | 61% | 17.6°C | 3905ft (1190m) | 12.77v | 31 |
| 213 | 14 Apr 19:40:16 | 15 | 16.6 mph | 18 | SSW (202°) | 99722 | 101873 | 25.6°C | 61% | 17.5°C | 3903ft (1190m) | 12.78v | 31 |
| 212 | 14 Apr 19:40:05 | 9 | 10.4 mph | 13 | SSW (198°) | 99721 | 101872 | 25.6°C | 60.9% | 17.5°C | 3914ft (1193m) | 12.77v | 31 |
| 211 | 14 Apr 19:39:54 | 8 | 12.5 mph | 19 | SSW (194°) | 99718 | 101869 | 25.6°C | 61% | 17.5°C | 3903ft (1190m) | 12.78v | 31 |
| 210 | 14 Apr 19:39:42 | 9 | 10.2 mph | 15 | SSW (204°) | 99724 | 101875 | 25.7°C | 60.7% | 17.5°C | 3938ft (1200m) | 12.78v | 31 |
| 209 | 14 Apr 19:39:31 | 9 | 11.3 mph | 16 | SSW (200°) | 99719 | 101870 | 25.7°C | 60.7% | 17.5°C | 3938ft (1200m) | 12.78v | 31 |
| 208 | 14 Apr 19:39:20 | 12 | 12.2 mph | 13 | SSW (203°) | 99720 | 101871 | 25.7°C | 60.7% | 17.5°C | 3938ft (1200m) | 12.78v | 31 |
| 207 | 14 Apr 19:39:09 | 10 | 12.1 mph | 15 | SSW (202°) | 99720 | 101871 | 25.7°C | 60.5% | 17.5°C | 3959ft (1207m) | 12.77v | 31 |
| 206 | 14 Apr 19:38:57 | 9 | 9.6 mph | 11 | SSW (211°) | 99723 | 101874 | 25.7°C | 60.6% | 17.5°C | 3948ft (1203m) | 12.77v | 31 |
| 205 | 14 Apr 19:38:46 | 10 | 10.9 mph | 12 | SSW (201°) | 99722 | 101873 | 25.7°C | 60.6% | 17.5°C | 3948ft (1203m) | 12.78v | 31 |
| 204 | 14 Apr 19:38:35 | 11 | 12.1 mph | 13 | SSW (209°) | 99721 | 101872 | 25.7°C | 60.5% | 17.5°C | 3959ft (1207m) | 12.78v | 31 |
| 203 | 14 Apr 19:38:24 | 11 | 12.4 mph | 15 | SSW (212°) | 99721 | 101872 | 25.7°C | 60.4% | 17.5°C | 3970ft (1210m) | 12.79v | 31 |
| 202 | 14 Apr 19:38:12 | 11 | 12.6 mph | 15 | SSW (202°) | 99721 | 101872 | 25.7°C | 60.3% | 17.4°C | 3980ft (1213m) | 12.78v | 31 |
| 201 | 14 Apr 19:38:01 | 9 | 9.4 mph | 13 | SSW (202°) | 99721 | 101872 | 25.7°C | 60.3% | 17.4°C | 3980ft (1213m) | 12.78v | 31 |
| 200 | 14 Apr 19:37:50 | 10 | 11.6 mph | 13 | S (188°) | 99711 | 101862 | 25.7°C | 60.2% | 17.4°C | 3991ft (1216m) | 12.77v | 31 |
| 199 | 14 Apr 19:37:39 | 13 | 14.7 mph | 17 | SSW (198°) | 99716 | 101867 | 25.7°C | 60.3% | 17.4°C | 3980ft (1213m) | 12.77v | 31 |
| 198 | 14 Apr 19:37:27 | 9 | 10.8 mph | 15 | SSW (207°) | 99717 | 101868 | 25.7°C | 60.2% | 17.4°C | 3991ft (1216m) | 12.78v | 31 |
| 197 | 14 Apr 19:37:16 | 12 | 13.2 mph | 15 | SSW (205°) | 99723 | 101874 | 25.7°C | 60.2% | 17.4°C | 3991ft (1216m) | 12.77v | 31 |
| 196 | 14 Apr 19:37:05 | 13 | 13.5 mph | 15 | SSW (197°) | 99718 | 101869 | 25.7°C | 60.2% | 17.4°C | 3991ft (1216m) | 12.78v | 31 |
| 195 | 14 Apr 19:36:54 | 10 | 12.5 mph | 17 | SSW (194°) | 99706 | 101857 | 25.7°C | 60.2% | 17.4°C | 3991ft (1216m) | 12.78v | 31 |
| 194 | 14 Apr 19:36:42 | 8 | 9.2 mph | 11 | SSW (209°) | 99712 | 101863 | 25.7°C | 60.2% | 17.4°C | 3991ft (1216m) | 12.78v | 31 |
| 193 | 14 Apr 19:36:31 | 11 | 12 mph | 14 | SSW (204°) | 99712 | 101863 | 25.7°C | 60.2% | 17.4°C | 3991ft (1216m) | 12.78v | 31 |
| 192 | 14 Apr 19:36:20 | 10 | 10.9 mph | 12 | SSW (208°) | 99719 | 101870 | 25.7°C | 60% | 17.4°C | 4013ft (1223m) | 12.77v | 31 |
| 191 | 14 Apr 19:36:09 | 11 | 13.2 mph | 15 | SSW (199°) | 99710 | 101861 | 25.7°C | 60% | 17.4°C | 4013ft (1223m) | 12.78v | 31 |
| 190 | 14 Apr 19:35:57 | 11 | 12 mph | 14 | SSW (207°) | 99717 | 101868 | 25.7°C | 60.1% | 17.4°C | 4002ft (1220m) | 12.79v | 31 |
| 189 | 14 Apr 19:35:46 | 14 | 14 mph | 16 | S (191°) | 99718 | 101869 | 25.7°C | 60.1% | 17.4°C | 4002ft (1220m) | 12.78v | 31 |
| 188 | 14 Apr 19:35:35 | 11 | 14.5 mph | 18 | SSW (196°) | 99716 | 101867 | 25.7°C | 60% | 17.4°C | 4013ft (1223m) | 12.79v | 31 |
| 187 | 14 Apr 19:35:24 | 12 | 12.2 mph | 16 | SSW (200°) | 99721 | 101872 | 25.7°C | 59.9% | 17.3°C | 4024ft (1227m) | 12.79v | 31 |
| 186 | 14 Apr 19:35:12 | 13 | 14.4 mph | 16 | SSW (203°) | 99712 | 101863 | 25.7°C | 60% | 17.4°C | 4013ft (1223m) | 12.78v | 31 |
| 185 | 14 Apr 19:35:01 | 15 | 16.9 mph | 20 | SSW (193°) | 99714 | 101865 | 25.7°C | 60.1% | 17.4°C | 4002ft (1220m) | 12.79v | 31 |
| 184 | 14 Apr 19:34:50 | 14 | 14.9 mph | 17 | S (190°) | 99711 | 101862 | 25.7°C | 59.9% | 17.3°C | 4024ft (1227m) | 12.79v | 31 |
| 183 | 14 Apr 19:34:39 | 10 | 11.6 mph | 15 | SSW (204°) | 99713 | 101864 | 25.7°C | 59.8% | 17.3°C | 4034ft (1230m) | 12.77v | 31 |
| 182 | 14 Apr 19:34:27 | 11 | 12.6 mph | 15 | SSW (197°) | 99716 | 101867 | 25.7°C | 59.9% | 17.3°C | 4024ft (1227m) | 12.77v | 31 |
| 181 | 14 Apr 19:34:16 | 11 | 11.3 mph | 13 | SW (217°) | 99715 | 101866 | 25.7°C | 59.8% | 17.3°C | 4034ft (1230m) | 12.77v | 31 |
| 180 | 14 Apr 19:34:05 | 11 | 12.4 mph | 15 | SSW (198°) | 99712 | 101863 | 25.7°C | 59.8% | 17.3°C | 4034ft (1230m) | 12.78v | 31 |
| 179 | 14 Apr 19:33:54 | 10 | 11.3 mph | 13 | SSW (200°) | 99710 | 101861 | 25.7°C | 59.8% | 17.3°C | 4034ft (1230m) | 12.77v | 31 |
| 178 | 14 Apr 19:33:42 | 10 | 11.3 mph | 13 | SSW (197°) | 99714 | 101865 | 25.7°C | 59.7% | 17.3°C | 4045ft (1233m) | 12.79v | 31 |
| 177 | 14 Apr 19:33:31 | 12 | 13.5 mph | 18 | SSW (207°) | 99713 | 101864 | 25.7°C | 59.7% | 17.3°C | 4045ft (1233m) | 12.78v | 31 |
| 176 | 14 Apr 19:33:20 | 14 | 15.3 mph | 17 | SSW (194°) | 99712 | 101863 | 25.7°C | 59.7% | 17.3°C | 4045ft (1233m) | 12.77v | 31 |
| 175 | 14 Apr 19:33:09 | 12 | 13.4 mph | 16 | SSW (195°) | 99706 | 101857 | 25.7°C | 59.6% | 17.2°C | 4056ft (1236m) | 12.77v | 31 |
| 174 | 14 Apr 19:32:57 | 13 | 13.7 mph | 16 | SSW (193°) | 99718 | 101869 | 25.7°C | 59.7% | 17.3°C | 4045ft (1233m) | 12.78v | 31 |
| 173 | 14 Apr 19:32:46 | 15 | 16.9 mph | 19 | SSW (195°) | 99708 | 101859 | 25.7°C | 59.7% | 17.3°C | 4045ft (1233m) | 12.77v | 31 |
| 172 | 14 Apr 19:32:35 | 10 | 10.8 mph | 15 | SW (218°) | 99715 | 101866 | 25.7°C | 59.6% | 17.2°C | 4056ft (1236m) | 12.78v | 31 |
| 171 | 14 Apr 19:32:24 | 11 | 11.7 mph | 13 | SSW (197°) | 99711 | 101862 | 25.7°C | 59.7% | 17.3°C | 4045ft (1233m) | 12.78v | 31 |
| 170 | 14 Apr 19:32:12 | 10 | 12.8 mph | 15 | SSW (203°) | 99710 | 101861 | 25.7°C | 59.7% | 17.3°C | 4045ft (1233m) | 12.79v | 31 |
| 169 | 14 Apr 19:32:01 | 13 | 14.3 mph | 16 | S (191°) | 99704 | 101855 | 25.7°C | 59.7% | 17.3°C | 4045ft (1233m) | 12.79v | 31 |
| 168 | 14 Apr 19:31:50 | 16 | 17 mph | 18 | SSW (195°) | 99706 | 101857 | 25.7°C | 59.7% | 17.3°C | 4045ft (1233m) | 12.79v | 31 |
| 167 | 14 Apr 19:31:39 | 14 | 15.4 mph | 17 | SSW (203°) | 99699 | 101850 | 25.7°C | 59.6% | 17.2°C | 4056ft (1236m) | 12.77v | 31 |
| 166 | 14 Apr 19:31:27 | 11 | 12.6 mph | 18 | SSW (204°) | 99704 | 101855 | 25.7°C | 59.5% | 17.2°C | 4067ft (1240m) | 12.77v | 31 |
| 165 | 14 Apr 19:31:16 | 13 | 14 mph | 15 | S (190°) | 99708 | 101859 | 25.7°C | 59.5% | 17.2°C | 4067ft (1240m) | 12.77v | 31 |
| 164 | 14 Apr 19:31:05 | 9 | 10.9 mph | 14 | SSW (207°) | 99707 | 101858 | 25.7°C | 59.5% | 17.2°C | 4067ft (1240m) | 12.78v | 31 |
| 163 | 14 Apr 19:30:54 | 6 | 9.2 mph | 13 | SSW (209°) | 99711 | 101862 | 25.7°C | 59.5% | 17.2°C | 4067ft (1240m) | 12.8v | 31 |
| 162 | 14 Apr 19:30:42 | 11 | 12.5 mph | 16 | SSW (204°) | 99710 | 101861 | 25.7°C | 59.5% | 17.2°C | 4067ft (1240m) | 12.79v | 31 |
| 161 | 14 Apr 19:30:31 | 10 | 12.9 mph | 17 | S (188°) | 99710 | 101861 | 25.7°C | 59.4% | 17.2°C | 4078ft (1243m) | 12.79v | 31 |
| 160 | 14 Apr 19:30:20 | 8 | 8.9 mph | 12 | SSW (199°) | 99708 | 101859 | 25.7°C | 59.5% | 17.2°C | 4067ft (1240m) | 12.78v | 31 |
| 159 | 14 Apr 19:30:09 | 12 | 14.8 mph | 19 | SSW (203°) | 99703 | 101854 | 25.7°C | 59.5% | 17.2°C | 4067ft (1240m) | 12.77v | 31 |
| 158 | 14 Apr 19:29:57 | 11 | 13.5 mph | 15 | SSW (192°) | 99698 | 101849 | 25.7°C | 59.4% | 17.2°C | 4078ft (1243m) | 12.78v | 31 |
| 157 | 14 Apr 19:29:46 | 10 | 11.5 mph | 13 | SSW (202°) | 99710 | 101861 | 25.7°C | 59.5% | 17.2°C | 4067ft (1240m) | 12.78v | 31 |
| 156 | 14 Apr 19:29:35 | 13 | 14.3 mph | 16 | SSW (205°) | 99703 | 101854 | 25.7°C | 59.4% | 17.2°C | 4078ft (1243m) | 12.79v | 31 |
| 155 | 14 Apr 19:29:24 | 11 | 12.8 mph | 17 | SSW (194°) | 99701 | 101852 | 25.7°C | 59.3% | 17.2°C | 4089ft (1246m) | 12.79v | 31 |
| 154 | 14 Apr 19:29:12 | 13 | 15.4 mph | 18 | S (188°) | 99704 | 101855 | 25.7°C | 59.4% | 17.2°C | 4078ft (1243m) | 12.78v | 31 |
| 153 | 14 Apr 19:29:01 | 11 | 13.6 mph | 17 | SSW (193°) | 99696 | 101846 | 25.7°C | 59.3% | 17.2°C | 4089ft (1246m) | 12.78v | 31 |
| 152 | 14 Apr 19:28:50 | 14 | 14.6 mph | 17 | S (179°) | 99687 | 101837 | 25.7°C | 59.3% | 17.2°C | 4089ft (1246m) | 12.78v | 31 |
| 151 | 14 Apr 19:28:39 | 12 | 13.8 mph | 20 | SSW (202°) | 99697 | 101847 | 25.7°C | 59.3% | 17.2°C | 4089ft (1246m) | 12.77v | 31 |
| 150 | 14 Apr 19:28:27 | 16 | 18.2 mph | 20 | S (188°) | 99693 | 101843 | 25.7°C | 59.3% | 17.2°C | 4089ft (1246m) | 12.77v | 31 |
| 149 | 14 Apr 19:28:16 | 12 | 13.6 mph | 15 | SSW (202°) | 99692 | 101842 | 25.7°C | 59.2% | 17.1°C | 4100ft (1250m) | 12.78v | 31 |
| 148 | 14 Apr 19:28:05 | 16 | 18.3 mph | 22 | SSW (197°) | 99696 | 101846 | 25.8°C | 59.2% | 17.2°C | 4102ft (1250m) | 12.78v | 31 |
| 147 | 14 Apr 19:27:54 | 14 | 15.4 mph | 18 | SSW (195°) | 99695 | 101845 | 25.7°C | 59.2% | 17.1°C | 4100ft (1250m) | 12.78v | 31 |
| 146 | 14 Apr 19:27:42 | 14 | 15.6 mph | 18 | SSW (192°) | 99695 | 101845 | 25.8°C | 59.2% | 17.2°C | 4102ft (1250m) | 12.78v | 31 |
| 145 | 14 Apr 19:27:31 | 10 | 14.8 mph | 20 | SSW (196°) | 99702 | 101853 | 25.8°C | 59.1% | 17.2°C | 4113ft (1254m) | 12.78v | 31 |
| 144 | 14 Apr 19:27:20 | 12 | 13.9 mph | 17 | SSW (193°) | 99700 | 101851 | 25.8°C | 59.1% | 17.2°C | 4113ft (1254m) | 12.78v | 31 |
| 143 | 14 Apr 19:27:09 | 11 | 11.9 mph | 17 | SSW (211°) | 99697 | 101847 | 25.8°C | 59% | 17.2°C | 4124ft (1257m) | 12.76v | 31 |
| 142 | 14 Apr 19:26:57 | 9 | 10.7 mph | 14 | SSW (196°) | 99702 | 101853 | 25.8°C | 58.9% | 17.2°C | 4135ft (1260m) | 12.78v | 31 |
| 141 | 14 Apr 19:26:46 | 10 | 12.7 mph | 16 | SSW (202°) | 99700 | 101851 | 25.8°C | 59.1% | 17.2°C | 4113ft (1254m) | 12.77v | 31 |
| 140 | 14 Apr 19:26:35 | 10 | 13.2 mph | 18 | S (186°) | 99696 | 101846 | 25.8°C | 59.1% | 17.2°C | 4113ft (1254m) | 12.78v | 31 |
| 139 | 14 Apr 19:26:24 | 13 | 13.9 mph | 15 | S (189°) | 99698 | 101849 | 25.8°C | 59% | 17.2°C | 4124ft (1257m) | 12.8v | 31 |
| 138 | 14 Apr 19:26:12 | 15 | 16.4 mph | 21 | S (191°) | 99692 | 101842 | 25.8°C | 59% | 17.2°C | 4124ft (1257m) | 12.79v | 31 |
| 137 | 14 Apr 19:26:01 | 16 | 17.2 mph | 20 | S (180°) | 99697 | 101847 | 25.7°C | 59.1% | 17.1°C | 4111ft (1253m) | 12.78v | 31 |
| 136 | 14 Apr 19:25:50 | 13 | 15.6 mph | 18 | S (191°) | 99694 | 101844 | 25.8°C | 59.1% | 17.2°C | 4113ft (1254m) | 12.79v | 31 |
| 135 | 14 Apr 19:25:39 | 14 | 16 mph | 18 | S (185°) | 99690 | 101840 | 25.8°C | 59.1% | 17.2°C | 4113ft (1254m) | 12.78v | 31 |
| 134 | 14 Apr 19:25:27 | 17 | 17.5 mph | 21 | S (190°) | 99692 | 101842 | 25.8°C | 59.1% | 17.2°C | 4113ft (1254m) | 12.78v | 31 |
| 133 | 14 Apr 19:25:16 | 17 | 16.4 mph | 19 | SSW (211°) | 99696 | 101846 | 25.8°C | 59.1% | 17.2°C | 4113ft (1254m) | 12.78v | 31 |
| 132 | 14 Apr 19:25:05 | 11 | 13.8 mph | 16 | S (187°) | 99682 | 101832 | 25.8°C | 59.1% | 17.2°C | 4113ft (1254m) | 12.77v | 31 |
| 131 | 14 Apr 19:24:54 | 14 | 14.6 mph | 19 | SSW (197°) | 99695 | 101845 | 25.8°C | 59.1% | 17.2°C | 4113ft (1254m) | 12.78v | 31 |
| 130 | 14 Apr 19:24:42 | 15 | 16 mph | 19 | SSW (196°) | 99693 | 101843 | 25.8°C | 59% | 17.2°C | 4124ft (1257m) | 12.79v | 31 |
| 129 | 14 Apr 19:24:31 | 11 | 16.1 mph | 20 | SSW (198°) | 99687 | 101837 | 25.8°C | 59% | 17.2°C | 4124ft (1257m) | 12.78v | 31 |
| 128 | 14 Apr 19:24:20 | 8 | 10.5 mph | 13 | SSW (202°) | 99697 | 101847 | 25.8°C | 59% | 17.2°C | 4124ft (1257m) | 12.78v | 31 |
| 127 | 14 Apr 19:24:09 | 10 | 13.1 mph | 16 | SSW (194°) | 99699 | 101850 | 25.8°C | 59% | 17.2°C | 4124ft (1257m) | 12.78v | 31 |
| 126 | 14 Apr 19:23:57 | 15 | 16.7 mph | 18 | S (183°) | 99681 | 101831 | 25.8°C | 59.1% | 17.2°C | 4113ft (1254m) | 12.78v | 31 |
| 125 | 14 Apr 19:23:46 | 10 | 13 mph | 18 | SSW (195°) | 99683 | 101833 | 25.8°C | 59% | 17.2°C | 4124ft (1257m) | 12.78v | 31 |
| 124 | 14 Apr 19:23:35 | 11 | 13 mph | 18 | SSW (195°) | 99696 | 101846 | 25.8°C | 59% | 17.2°C | 4124ft (1257m) | 12.77v | 31 |
| 123 | 14 Apr 19:23:24 | 14 | 15.8 mph | 17 | S (187°) | 99698 | 101849 | 25.9°C | 58.8% | 17.2°C | 4149ft (1265m) | 12.78v | 31 |
| 122 | 14 Apr 19:23:12 | 13 | 14.7 mph | 17 | SSW (196°) | 99698 | 101849 | 25.9°C | 58.8% | 17.2°C | 4149ft (1265m) | 12.79v | 31 |
| 121 | 14 Apr 19:23:01 | 10 | 10.9 mph | 12 | S (186°) | 99694 | 101844 | 25.9°C | 58.9% | 17.2°C | 4138ft (1261m) | 12.8v | 31 |
| 120 | 14 Apr 19:22:50 | 13 | 15.2 mph | 18 | SSW (192°) | 99699 | 101850 | 25.9°C | 58.8% | 17.2°C | 4149ft (1265m) | 12.8v | 31 |
| 119 | 14 Apr 19:22:39 | 10 | 13.3 mph | 17 | SSW (200°) | 99694 | 101844 | 25.9°C | 58.6% | 17.2°C | 4171ft (1271m) | 12.78v | 31 |
| 118 | 14 Apr 19:22:27 | 14 | 14.8 mph | 16 | SSW (193°) | 99693 | 101843 | 25.9°C | 58.7% | 17.2°C | 4160ft (1268m) | 12.78v | 31 |
| 117 | 14 Apr 19:22:16 | 15 | 13.8 mph | 18 | SSW (199°) | 99689 | 101839 | 25.9°C | 58.8% | 17.2°C | 4149ft (1265m) | 12.77v | 31 |
| 116 | 14 Apr 19:22:05 | 11 | 14.7 mph | 18 | SSW (192°) | 99697 | 101847 | 25.9°C | 58.7% | 17.2°C | 4160ft (1268m) | 12.79v | 31 |
| 115 | 14 Apr 19:21:54 | 10 | 12.7 mph | 17 | S (191°) | 99696 | 101846 | 25.9°C | 58.7% | 17.2°C | 4160ft (1268m) | 12.78v | 31 |
| 114 | 14 Apr 19:21:42 | 8 | 10.7 mph | 13 | SSW (205°) | 99696 | 101846 | 25.9°C | 58.7% | 17.2°C | 4160ft (1268m) | 12.79v | 31 |
| 113 | 14 Apr 19:21:31 | 13 | 14.5 mph | 18 | SSW (201°) | 99687 | 101837 | 25.9°C | 58.7% | 17.2°C | 4160ft (1268m) | 12.78v | 31 |
| 112 | 14 Apr 19:21:20 | 13 | 14.4 mph | 17 | SSW (195°) | 99693 | 101843 | 25.9°C | 58.6% | 17.2°C | 4171ft (1271m) | 12.78v | 31 |
| 111 | 14 Apr 19:21:09 | 10 | 12.1 mph | 17 | SSW (193°) | 99693 | 101843 | 25.9°C | 58.5% | 17.1°C | 4182ft (1275m) | 12.79v | 31 |
| 110 | 14 Apr 19:20:57 | 11 | 13.1 mph | 16 | S (191°) | 99693 | 101843 | 25.9°C | 58.7% | 17.2°C | 4160ft (1268m) | 12.78v | 31 |
| 109 | 14 Apr 19:20:46 | 10 | 15.4 mph | 19 | S (182°) | 99689 | 101839 | 25.9°C | 58.6% | 17.2°C | 4171ft (1271m) | 12.79v | 31 |
| 108 | 14 Apr 19:20:35 | 11 | 14.3 mph | 18 | SSW (198°) | 99694 | 101844 | 26°C | 58.5% | 17.2°C | 4185ft (1276m) | 12.77v | 31 |
| 107 | 14 Apr 19:20:24 | 13 | 13.5 mph | 15 | S (178°) | 99691 | 101841 | 26°C | 58.5% | 17.2°C | 4185ft (1276m) | 12.78v | 31 |
| 106 | 14 Apr 19:20:12 | 15 | 16.1 mph | 20 | SSW (195°) | 99697 | 101847 | 26°C | 58.3% | 17.2°C | 4207ft (1282m) | 12.79v | 31 |
| 105 | 14 Apr 19:20:01 | 10 | 11.8 mph | 17 | SSW (194°) | 99687 | 101837 | 26°C | 58.3% | 17.2°C | 4207ft (1282m) | 12.79v | 31 |
| 104 | 14 Apr 19:19:50 | 8 | 12.8 mph | 18 | SSW (194°) | 99693 | 101843 | 26°C | 58.4% | 17.2°C | 4196ft (1279m) | 12.78v | 31 |
| 103 | 14 Apr 19:19:39 | 13 | 14.3 mph | 17 | S (186°) | 99696 | 101846 | 26°C | 58.3% | 17.2°C | 4207ft (1282m) | 12.79v | 31 |
| 102 | 14 Apr 19:19:27 | 12 | 13.8 mph | 17 | SSW (194°) | 99695 | 101845 | 26°C | 58.3% | 17.2°C | 4207ft (1282m) | 12.77v | 31 |
| 101 | 14 Apr 19:19:16 | 14 | 14.1 mph | 17 | S (174°) | 99691 | 101841 | 26°C | 58.4% | 17.2°C | 4196ft (1279m) | 12.77v | 31 |
| 100 | 14 Apr 19:19:05 | 14 | 16.7 mph | 20 | SSW (203°) | 99678 | 101828 | 26°C | 58.3% | 17.2°C | 4207ft (1282m) | 12.78v | 31 |
| 99 | 14 Apr 19:18:54 | 12 | 14.2 mph | 17 | S (184°) | 99682 | 101832 | 26°C | 58.3% | 17.2°C | 4207ft (1282m) | 12.78v | 31 |
| 98 | 14 Apr 19:18:42 | 15 | 15 mph | 16 | SSW (194°) | 99689 | 101839 | 26°C | 58.2% | 17.2°C | 4218ft (1286m) | 12.79v | 31 |
| 97 | 14 Apr 19:18:31 | 11 | 12.9 mph | 17 | S (187°) | 99697 | 101847 | 26°C | 58.2% | 17.2°C | 4218ft (1286m) | 12.79v | 31 |
| 96 | 14 Apr 19:18:20 | 8 | 9.7 mph | 12 | S (186°) | 99692 | 101842 | 26°C | 58.2% | 17.2°C | 4218ft (1286m) | 12.79v | 31 |
| 95 | 14 Apr 19:18:09 | 13 | 14.7 mph | 16 | S (187°) | 99690 | 101840 | 26°C | 58.3% | 17.2°C | 4207ft (1282m) | 12.78v | 31 |
| 94 | 14 Apr 19:17:57 | 13 | 14.6 mph | 16 | SSW (193°) | 99690 | 101840 | 26°C | 58.1% | 17.1°C | 4229ft (1289m) | 12.78v | 31 |
| 93 | 14 Apr 19:17:46 | 12 | 15.2 mph | 18 | S (190°) | 99688 | 101838 | 26.1°C | 58.2% | 17.2°C | 4221ft (1287m) | 12.78v | 31 |
| 92 | 14 Apr 19:17:35 | 8 | 10.2 mph | 14 | SSW (202°) | 99696 | 101846 | 26.1°C | 58.1% | 17.2°C | 4232ft (1290m) | 12.78v | 31 |
| 91 | 14 Apr 19:17:24 | 10 | 14.7 mph | 18 | S (187°) | 99692 | 101842 | 26.1°C | 57.9% | 17.2°C | 4254ft (1297m) | 12.8v | 31 |
| 90 | 14 Apr 19:17:12 | 11 | 12.6 mph | 14 | S (189°) | 99694 | 101844 | 26.1°C | 58% | 17.2°C | 4243ft (1293m) | 12.79v | 31 |
| 89 | 14 Apr 19:17:01 | 13 | 13.9 mph | 16 | S (189°) | 99693 | 101843 | 26.1°C | 57.9% | 17.2°C | 4254ft (1297m) | 12.79v | 31 |
| 88 | 14 Apr 19:16:50 | 11 | 12.7 mph | 16 | SSW (204°) | 99693 | 101843 | 26.1°C | 57.9% | 17.2°C | 4254ft (1297m) | 12.79v | 31 |
| 87 | 14 Apr 19:16:39 | 10 | 14 mph | 18 | S (185°) | 99694 | 101844 | 26.1°C | 57.8% | 17.1°C | 4266ft (1300m) | 12.79v | 31 |
| 86 | 14 Apr 19:16:27 | 12 | 15.1 mph | 18 | S (186°) | 99694 | 101844 | 26.1°C | 58% | 17.2°C | 4243ft (1293m) | 12.78v | 31 |
| 85 | 14 Apr 19:16:16 | 9 | 11.3 mph | 16 | SSW (193°) | 99692 | 101842 | 26.1°C | 57.9% | 17.2°C | 4254ft (1297m) | 12.78v | 31 |
| 84 | 14 Apr 19:16:05 | 10 | 11.6 mph | 13 | SSW (197°) | 99690 | 101840 | 26.1°C | 57.9% | 17.2°C | 4254ft (1297m) | 12.78v | 31 |
| 83 | 14 Apr 19:15:54 | 8 | 11.2 mph | 13 | SSW (192°) | 99685 | 101835 | 26.1°C | 57.9% | 17.2°C | 4254ft (1297m) | 12.78v | 31 |
| 82 | 14 Apr 19:15:42 | 13 | 14.1 mph | 16 | S (190°) | 99694 | 101844 | 26.1°C | 57.9% | 17.2°C | 4254ft (1297m) | 12.79v | 31 |
| 81 | 14 Apr 19:15:31 | 10 | 12.2 mph | 13 | S (182°) | 99691 | 101841 | 26.1°C | 57.8% | 17.1°C | 4266ft (1300m) | 12.8v | 31 |
| 80 | 14 Apr 19:15:20 | 8 | 10.2 mph | 14 | SSW (199°) | 99690 | 101840 | 26.1°C | 58% | 17.2°C | 4243ft (1293m) | 12.78v | 31 |
| 79 | 14 Apr 19:15:09 | 11 | 11.8 mph | 15 | SSW (205°) | 99695 | 101845 | 26.1°C | 57.9% | 17.2°C | 4254ft (1297m) | 12.77v | 31 |
| 78 | 14 Apr 19:14:57 | 12 | 13.9 mph | 18 | S (185°) | 99686 | 101836 | 26.1°C | 57.9% | 17.2°C | 4254ft (1297m) | 12.79v | 31 |
| 77 | 14 Apr 19:14:46 | 12 | 14.4 mph | 16 | S (179°) | 99687 | 101837 | 26.1°C | 57.8% | 17.1°C | 4266ft (1300m) | 12.79v | 31 |
| 76 | 14 Apr 19:14:35 | 11 | 13.5 mph | 20 | SSW (193°) | 99694 | 101844 | 26.1°C | 57.9% | 17.2°C | 4254ft (1297m) | 12.77v | 31 |
| 75 | 14 Apr 19:14:24 | 10 | 12.6 mph | 15 | SSW (196°) | 99695 | 101845 | 26.1°C | 57.8% | 17.1°C | 4266ft (1300m) | 12.78v | 31 |
| 74 | 14 Apr 19:14:12 | 10 | 10.8 mph | 14 | S (181°) | 99693 | 101843 | 26.1°C | 57.8% | 17.1°C | 4266ft (1300m) | 12.78v | 31 |
| 73 | 14 Apr 19:14:01 | 13 | 13.7 mph | 16 | SSW (203°) | 99694 | 101844 | 26.1°C | 57.7% | 17.1°C | 4277ft (1304m) | 12.8v | 31 |
| 72 | 14 Apr 19:13:50 | 8 | 10.3 mph | 14 | SSW (198°) | 99691 | 101841 | 26.1°C | 57.6% | 17.1°C | 4288ft (1307m) | 12.8v | 31 |
| 71 | 14 Apr 19:13:39 | 13 | 15.4 mph | 18 | S (183°) | 99692 | 101842 | 26.1°C | 57.6% | 17.1°C | 4288ft (1307m) | 12.79v | 31 |
| 70 | 14 Apr 19:13:27 | 10 | 12 mph | 16 | S (186°) | 99688 | 101838 | 26.1°C | 57.7% | 17.1°C | 4277ft (1304m) | 12.78v | 31 |
| 69 | 14 Apr 19:13:16 | 12 | 14 mph | 18 | S (183°) | 99689 | 101839 | 26.2°C | 57.5% | 17.1°C | 4302ft (1311m) | 12.78v | 31 |
| 68 | 14 Apr 19:13:05 | 10 | 12.5 mph | 16 | SSW (194°) | 99688 | 101838 | 26.2°C | 57.6% | 17.2°C | 4291ft (1308m) | 12.77v | 31 |
| 67 | 14 Apr 19:12:54 | 14 | 15.4 mph | 17 | S (181°) | 99684 | 101834 | 26.2°C | 57.5% | 17.1°C | 4302ft (1311m) | 12.78v | 31 |
| 66 | 14 Apr 19:12:42 | 10 | 10.5 mph | 14 | SSW (192°) | 99689 | 101839 | 26.2°C | 57.5% | 17.1°C | 4302ft (1311m) | 12.79v | 31 |
| 65 | 14 Apr 19:12:31 | 12 | 14.3 mph | 17 | S (184°) | 99689 | 101839 | 26.2°C | 57.5% | 17.1°C | 4302ft (1311m) | 12.79v | 31 |
| 64 | 14 Apr 19:12:19 | 11 | 12.3 mph | 15 | S (175°) | 99678 | 101828 | 26.1°C | 57.5% | 17.1°C | 4299ft (1310m) | 12.79v | 31 |
| 63 | 14 Apr 19:12:08 | 11 | 14.7 mph | 17 | S (184°) | 99681 | 101831 | 26.2°C | 57.4% | 17.1°C | 4313ft (1315m) | 12.79v | 31 |
| 62 | 14 Apr 19:11:57 | 10 | 13.2 mph | 16 | S (181°) | 99696 | 101846 | 26.2°C | 57.5% | 17.1°C | 4302ft (1311m) | 12.79v | 31 |
| 61 | 14 Apr 19:11:45 | 10 | 12.1 mph | 15 | S (188°) | 99692 | 101842 | 26.2°C | 57.5% | 17.1°C | 4302ft (1311m) | 12.79v | 31 |
| 60 | 14 Apr 19:11:34 | 11 | 12 mph | 16 | S (189°) | 99698 | 101849 | 26.2°C | 57.6% | 17.2°C | 4291ft (1308m) | 12.78v | 31 |
| 59 | 14 Apr 19:11:23 | 11 | 12.6 mph | 14 | S (178°) | 99692 | 101842 | 26.2°C | 57.6% | 17.2°C | 4291ft (1308m) | 12.79v | 31 |
| 58 | 14 Apr 19:11:12 | 10 | 10.9 mph | 12 | S (190°) | 99697 | 101847 | 26.2°C | 57.5% | 17.1°C | 4302ft (1311m) | 12.79v | 31 |
| 57 | 14 Apr 19:11:00 | 10 | 11.2 mph | 13 | S (184°) | 99693 | 101843 | 26.2°C | 57.6% | 17.2°C | 4291ft (1308m) | 12.8v | 31 |
| 56 | 14 Apr 19:10:49 | 10 | 11.6 mph | 14 | SSW (197°) | 99689 | 101839 | 26.2°C | 57.5% | 17.1°C | 4302ft (1311m) | 12.79v | 31 |
| 55 | 14 Apr 19:10:38 | 11 | 13.6 mph | 17 | S (183°) | 99677 | 101827 | 26.2°C | 57.4% | 17.1°C | 4313ft (1315m) | 12.79v | 31 |
| 54 | 14 Apr 19:10:27 | 11 | 13.1 mph | 17 | S (191°) | 99695 | 101845 | 26.2°C | 57.5% | 17.1°C | 4302ft (1311m) | 12.79v | 31 |
| 53 | 14 Apr 19:10:15 | 6 | 9.2 mph | 12 | SSW (200°) | 99693 | 101843 | 26.2°C | 57.4% | 17.1°C | 4313ft (1315m) | 12.79v | 31 |
| 52 | 14 Apr 19:10:04 | 10 | 10.5 mph | 12 | SSW (194°) | 99696 | 101846 | 26.2°C | 57.4% | 17.1°C | 4313ft (1315m) | 12.79v | 31 |
| 51 | 14 Apr 19:09:53 | 10 | 11.1 mph | 13 | SSW (200°) | 99692 | 101842 | 26.2°C | 57.3% | 17.1°C | 4325ft (1318m) | 12.78v | 31 |
| 50 | 14 Apr 19:09:42 | 12 | 13.6 mph | 16 | SSW (201°) | 99695 | 101845 | 26.2°C | 57.2% | 17.1°C | 4336ft (1322m) | 12.79v | 31 |
| 49 | 14 Apr 19:09:30 | 11 | 14.7 mph | 18 | S (182°) | 99685 | 101835 | 26.2°C | 57.3% | 17.1°C | 4325ft (1318m) | 12.81v | 31 |
| 48 | 14 Apr 19:09:20 | 11 | 14 mph | 18 | S (183°) | 99675 | 101825 | 26.2°C | 57.2% | 17.1°C | 4336ft (1322m) | 12.79v | 31 |
| 47 | 14 Apr 19:09:09 | 13 | 14.4 mph | 17 | S (186°) | 99693 | 101843 | 26.2°C | 57.3% | 17.1°C | 4325ft (1318m) | 12.79v | 31 |
| 46 | 14 Apr 19:08:57 | 10 | 10.7 mph | 12 | S (183°) | 99692 | 101842 | 26.2°C | 57% | 17°C | 4359ft (1329m) | 12.78v | 31 |
| 45 | 14 Apr 19:08:46 | 9 | 12.3 mph | 15 | S (180°) | 99688 | 101838 | 26.2°C | 57.1% | 17°C | 4347ft (1325m) | 12.79v | 31 |
| 44 | 14 Apr 19:08:35 | 12 | 13 mph | 15 | S (186°) | 99686 | 101836 | 26.2°C | 57% | 17°C | 4359ft (1329m) | 12.78v | 31 |
| 43 | 14 Apr 19:08:24 | 8 | 9 mph | 11 | SSW (198°) | 99695 | 101845 | 26.2°C | 57.1% | 17°C | 4347ft (1325m) | 12.77v | 31 |
| 42 | 14 Apr 19:08:12 | 7 | 8.4 mph | 10 | S (172°) | 99698 | 101849 | 26.2°C | 57.2% | 17.1°C | 4336ft (1322m) | 12.78v | 31 |
| 41 | 14 Apr 19:08:01 | 10 | 13.3 mph | 18 | S (185°) | 99695 | 101845 | 26.2°C | 57.2% | 17.1°C | 4336ft (1322m) | 12.79v | 31 |
| 40 | 14 Apr 19:07:50 | 8 | 10.9 mph | 14 | S (182°) | 99689 | 101839 | 26.2°C | 57.1% | 17°C | 4347ft (1325m) | 12.8v | 31 |
| 39 | 14 Apr 19:07:39 | 9 | 11.4 mph | 15 | SSW (207°) | 99692 | 101842 | 26.2°C | 57.1% | 17°C | 4347ft (1325m) | 12.8v | 31 |
| 38 | 14 Apr 19:07:27 | 7 | 9.3 mph | 13 | SSW (193°) | 99696 | 101846 | 26.2°C | 57% | 17°C | 4359ft (1329m) | 12.78v | 31 |
| 37 | 14 Apr 19:07:16 | 9 | 10.9 mph | 13 | S (182°) | 99690 | 101840 | 26.2°C | 57% | 17°C | 4359ft (1329m) | 12.79v | 31 |
| 36 | 14 Apr 19:07:05 | 7 | 8.9 mph | 11 | SSW (197°) | 99696 | 101846 | 26.2°C | 57% | 17°C | 4359ft (1329m) | 12.79v | 31 |
| 35 | 14 Apr 19:06:54 | 10 | 11.7 mph | 15 | SSW (200°) | 99693 | 101843 | 26.2°C | 56.9% | 17°C | 4370ft (1332m) | 12.78v | 31 |
| 34 | 14 Apr 19:06:42 | 7 | 7.9 mph | 11 | S (187°) | 99688 | 101838 | 26.2°C | 57% | 17°C | 4359ft (1329m) | 12.8v | 31 |
| 33 | 14 Apr 19:06:31 | 9 | 10.5 mph | 13 | SSW (205°) | 99695 | 101845 | 26.2°C | 57% | 17°C | 4359ft (1329m) | 12.78v | 31 |
| 32 | 14 Apr 19:06:20 | 11 | 12.6 mph | 15 | S (190°) | 99685 | 101835 | 26.2°C | 56.9% | 17°C | 4370ft (1332m) | 12.8v | 31 |
| 31 | 14 Apr 19:06:09 | 10 | 11.7 mph | 14 | SSW (198°) | 99692 | 101842 | 26.3°C | 56.7% | 17°C | 4396ft (1340m) | 12.79v | 31 |
| 30 | 14 Apr 19:05:57 | 9 | 11 mph | 13 | SSW (197°) | 99689 | 101839 | 26.3°C | 56.8% | 17°C | 4384ft (1336m) | 12.8v | 31 |
| 29 | 14 Apr 19:05:46 | 7 | 9.2 mph | 11 | S (186°) | 99690 | 101840 | 26.3°C | 56.9% | 17.1°C | 4373ft (1333m) | 12.79v | 31 |
| 28 | 14 Apr 19:05:35 | 11 | 12 mph | 13 | S (187°) | 99689 | 101839 | 26.2°C | 56.8% | 17°C | 4381ft (1335m) | 12.79v | 31 |
| 27 | 14 Apr 19:05:23 | 10 | 12.2 mph | 15 | SSW (199°) | 99688 | 101838 | 26.2°C | 56.8% | 17°C | 4381ft (1335m) | 12.79v | 31 |
| 26 | 14 Apr 19:05:12 | 10 | 11.6 mph | 14 | S (174°) | 99686 | 101836 | 26.3°C | 56.8% | 17°C | 4384ft (1336m) | 12.78v | 31 |
| 25 | 14 Apr 19:05:01 | 6 | 7.9 mph | 11 | SSW (196°) | 99691 | 101841 | 26.3°C | 56.6% | 17°C | 4407ft (1343m) | 12.8v | 31 |
| 24 | 14 Apr 19:04:50 | 10 | 10.9 mph | 13 | SSW (193°) | 99682 | 101832 | 26.3°C | 56.6% | 17°C | 4407ft (1343m) | 12.8v | 31 |
| 23 | 14 Apr 19:04:38 | 10 | 10.7 mph | 13 | SSW (192°) | 99680 | 101830 | 26.3°C | 56.7% | 17°C | 4396ft (1340m) | 12.79v | 31 |
| 22 | 14 Apr 19:04:27 | 10 | 11.8 mph | 15 | SSW (202°) | 99679 | 101829 | 26.2°C | 56.7% | 16.9°C | 4393ft (1339m) | 12.79v | 31 |
| 21 | 14 Apr 19:04:16 | 9 | 9.4 mph | 11 | SSW (198°) | 99687 | 101837 | 26.2°C | 56.7% | 16.9°C | 4393ft (1339m) | 12.79v | 31 |
| 20 | 14 Apr 19:04:05 | 10 | 10.7 mph | 14 | S (191°) | 99678 | 101828 | 26.2°C | 56.7% | 16.9°C | 4393ft (1339m) | 12.79v | 31 |
| 19 | 14 Apr 19:03:53 | 9 | 10.5 mph | 16 | S (191°) | 99679 | 101829 | 26.2°C | 56.8% | 17°C | 4381ft (1335m) | 12.79v | 31 |
| 18 | 14 Apr 19:03:42 | 9 | 9.9 mph | 11 | SSW (193°) | 99685 | 101835 | 26.2°C | 56.8% | 17°C | 4381ft (1335m) | 12.8v | 31 |
| 17 | 14 Apr 19:03:31 | 11 | 12.5 mph | 16 | SSW (194°) | 99674 | 101824 | 26.3°C | 56.6% | 17°C | 4407ft (1343m) | 12.78v | 31 |
| 16 | 14 Apr 19:03:20 | 7 | 8.3 mph | 12 | S (191°) | 99683 | 101833 | 26.3°C | 56.6% | 17°C | 4407ft (1343m) | 12.8v | 31 |
| 15 | 14 Apr 19:03:08 | 11 | 11.9 mph | 14 | S (185°) | 99680 | 101830 | 26.3°C | 56.5% | 17°C | 4418ft (1347m) | 12.8v | 31 |
| 14 | 14 Apr 19:02:57 | 13 | 13.7 mph | 15 | SSW (196°) | 99683 | 101833 | 26.3°C | 56.4% | 16.9°C | 4430ft (1350m) | 12.79v | 31 |
| 13 | 14 Apr 19:02:46 | 10 | 10.5 mph | 12 | SSW (197°) | 99674 | 101824 | 26.3°C | 56.6% | 17°C | 4407ft (1343m) | 12.8v | 31 |
| 12 | 14 Apr 19:02:35 | 7 | 9.4 mph | 11 | SSW (194°) | 99678 | 101828 | 26.3°C | 56.6% | 17°C | 4407ft (1343m) | 12.79v | 31 |
| 11 | 14 Apr 19:02:23 | 8 | 9 mph | 12 | S (177°) | 99687 | 101837 | 26.3°C | 56.5% | 17°C | 4418ft (1347m) | 12.78v | 31 |
| 10 | 14 Apr 19:02:12 | 10 | 12.6 mph | 16 | S (186°) | 99684 | 101834 | 26.3°C | 56.6% | 17°C | 4407ft (1343m) | 12.76v | 31 |
| 9 | 14 Apr 19:02:01 | 10 | 12.7 mph | 18 | S (185°) | 99682 | 101832 | 26.3°C | 56.5% | 17°C | 4418ft (1347m) | 12.78v | 31 |
| 8 | 14 Apr 19:01:50 | 7 | 8.1 mph | 10 | S (184°) | 99685 | 101835 | 26.3°C | 56.6% | 17°C | 4407ft (1343m) | 12.79v | 31 |
| 7 | 14 Apr 19:01:38 | 11 | 12.2 mph | 14 | S (183°) | 99679 | 101829 | 26.3°C | 56.5% | 17°C | 4418ft (1347m) | 12.79v | 31 |
| 6 | 14 Apr 19:01:27 | 10 | 11.1 mph | 12 | SSW (195°) | 99678 | 101828 | 26.2°C | 56.6% | 16.9°C | 4404ft (1342m) | 12.78v | 31 |
| 5 | 14 Apr 19:01:16 | 12 | 12.5 mph | 13 | S (187°) | 99676 | 101826 | 26.2°C | 56.6% | 16.9°C | 4404ft (1342m) | 12.78v | 31 |
| 4 | 14 Apr 19:01:05 | 9 | 10.2 mph | 12 | SSW (193°) | 99675 | 101825 | 26.2°C | 56.7% | 16.9°C | 4393ft (1339m) | 12.8v | 31 |
| 3 | 14 Apr 19:00:53 | 7 | 8.7 mph | 11 | SSW (200°) | 99673 | 101823 | 26.2°C | 56.5% | 16.9°C | 4416ft (1346m) | 12.78v | 31 |
| 2 | 14 Apr 19:00:42 | 10 | 10.4 mph | 11 | SSW (202°) | 99675 | 101825 | 26.2°C | 56.6% | 16.9°C | 4404ft (1342m) | 12.78v | 31 |
| 1 | 14 Apr 19:00:31 | 8 | 8.8 mph | 10 | SSW (199°) | 99678 | 101828 | 26.2°C | 56.7% | 16.9°C | 4393ft (1339m) | 12.77v | 31 |
| 7678 | 14 Apr 18:59:54 | 8 | 10.5 mph | 17 | SSW (209°) | 99669 | 101819 | 26.2°C | 56.7% | 16.9°C | 4393ft (1339m) | 12.78v | 31 |
| 7677 | 14 Apr 18:59:43 | 13 | 14.9 mph | 16 | SSW (194°) | 99670 | 101820 | 26.2°C | 56.6% | 16.9°C | 4404ft (1342m) | 12.79v | 31 |
| 7676 | 14 Apr 18:59:32 | 8 | 9.6 mph | 13 | SSW (195°) | 99669 | 101819 | 26.2°C | 56.6% | 16.9°C | 4404ft (1342m) | 12.79v | 31 |
| 7675 | 14 Apr 18:59:21 | 8 | 9 mph | 12 | SSW (212°) | 99677 | 101827 | 26.2°C | 56.5% | 16.9°C | 4416ft (1346m) | 12.78v | 31 |
| 7674 | 14 Apr 18:59:09 | 12 | 13.1 mph | 16 | SSW (210°) | 99677 | 101827 | 26.2°C | 56.6% | 16.9°C | 4404ft (1342m) | 12.78v | 31 |
| 7673 | 14 Apr 18:58:58 | 10 | 11.4 mph | 14 | SSW (207°) | 99667 | 101817 | 26.2°C | 56.5% | 16.9°C | 4416ft (1346m) | 12.79v | 31 |
| 7672 | 14 Apr 18:58:47 | 9 | 11 mph | 13 | SSW (208°) | 99677 | 101827 | 26.2°C | 56.4% | 16.8°C | 4427ft (1349m) | 12.78v | 31 |
| 7671 | 14 Apr 18:58:36 | 9 | 9.6 mph | 11 | SSW (211°) | 99678 | 101828 | 26.2°C | 56.4% | 16.8°C | 4427ft (1349m) | 12.79v | 31 |
| 7670 | 14 Apr 18:58:24 | 12 | 12.1 mph | 15 | SSW (197°) | 99677 | 101827 | 26.2°C | 56.5% | 16.9°C | 4416ft (1346m) | 12.79v | 31 |
| 7669 | 14 Apr 18:58:13 | 10 | 11.2 mph | 13 | SSW (196°) | 99674 | 101824 | 26.2°C | 56.5% | 16.9°C | 4416ft (1346m) | 12.79v | 31 |
| 7668 | 14 Apr 18:58:02 | 7 | 11.2 mph | 13 | SSW (202°) | 99676 | 101826 | 26.2°C | 56.5% | 16.9°C | 4416ft (1346m) | 12.8v | 31 |
| 7667 | 14 Apr 18:57:51 | 8 | 11.2 mph | 15 | SSW (199°) | 99672 | 101822 | 26.2°C | 56.5% | 16.9°C | 4416ft (1346m) | 12.79v | 31 |
| 7666 | 14 Apr 18:57:39 | 12 | 13.1 mph | 15 | SSW (207°) | 99663 | 101813 | 26.2°C | 56.5% | 16.9°C | 4416ft (1346m) | 12.79v | 31 |
| 7665 | 14 Apr 18:57:28 | 9 | 9.7 mph | 11 | SSW (203°) | 99674 | 101824 | 26.2°C | 56.6% | 16.9°C | 4404ft (1342m) | 12.78v | 31 |
| 7664 | 14 Apr 18:57:17 | 9 | 9.8 mph | 11 | SSW (211°) | 99673 | 101823 | 26.2°C | 56.5% | 16.9°C | 4416ft (1346m) | 12.79v | 31 |
| 7663 | 14 Apr 18:57:05 | 7 | 10.9 mph | 14 | S (184°) | 99672 | 101822 | 26.2°C | 56.5% | 16.9°C | 4416ft (1346m) | 12.8v | 31 |
| 7662 | 14 Apr 18:56:54 | 7 | 8.8 mph | 10 | SSW (202°) | 99672 | 101822 | 26.2°C | 56.5% | 16.9°C | 4416ft (1346m) | 12.79v | 31 |
| 7661 | 14 Apr 18:56:43 | 9 | 11.1 mph | 12 | SSW (194°) | 99666 | 101816 | 26.2°C | 56.5% | 16.9°C | 4416ft (1346m) | 12.8v | 31 |
| 7660 | 14 Apr 18:56:32 | 12 | 13.1 mph | 14 | SSW (192°) | 99671 | 101821 | 26.1°C | 56.6% | 16.8°C | 4401ft (1341m) | 12.8v | 31 |
| 7659 | 14 Apr 18:56:20 | 12 | 12.2 mph | 15 | SSW (192°) | 99671 | 101821 | 26.2°C | 56.6% | 16.9°C | 4404ft (1342m) | 12.79v | 31 |
| 7658 | 14 Apr 18:56:09 | 13 | 15.6 mph | 19 | SSW (195°) | 99673 | 101823 | 26.2°C | 56.5% | 16.9°C | 4416ft (1346m) | 12.78v | 31 |
| 7657 | 14 Apr 18:55:58 | 13 | 14.1 mph | 16 | S (190°) | 99667 | 101817 | 26.2°C | 56.5% | 16.9°C | 4416ft (1346m) | 12.78v | 31 |
| 7656 | 14 Apr 18:55:47 | 10 | 14.9 mph | 19 | S (182°) | 99660 | 101810 | 26.2°C | 56.5% | 16.9°C | 4416ft (1346m) | 12.79v | 31 |
| 7655 | 14 Apr 18:55:35 | 12 | 15.1 mph | 19 | SSW (199°) | 99667 | 101817 | 26.2°C | 56.4% | 16.8°C | 4427ft (1349m) | 12.8v | 31 |
| 7654 | 14 Apr 18:55:24 | 11 | 13.1 mph | 15 | SSW (196°) | 99659 | 101809 | 26.2°C | 56.4% | 16.8°C | 4427ft (1349m) | 12.8v | 31 |
| 7653 | 14 Apr 18:55:13 | 12 | 12.7 mph | 14 | SSW (195°) | 99667 | 101817 | 26.2°C | 56.4% | 16.8°C | 4427ft (1349m) | 12.79v | 31 |
| 7652 | 14 Apr 18:55:02 | 10 | 12 mph | 14 | SSW (200°) | 99659 | 101809 | 26.2°C | 56.3% | 16.8°C | 4438ft (1353m) | 12.8v | 31 |
| 7651 | 14 Apr 18:54:50 | 9 | 12.1 mph | 15 | SSW (200°) | 99661 | 101811 | 26.2°C | 56.4% | 16.8°C | 4427ft (1349m) | 12.8v | 31 |
| 7650 | 14 Apr 18:54:39 | 13 | 14.5 mph | 17 | SSW (194°) | 99659 | 101809 | 26.2°C | 56.4% | 16.8°C | 4427ft (1349m) | 12.8v | 31 |
| 7649 | 14 Apr 18:54:28 | 11 | 13.2 mph | 16 | SSW (204°) | 99662 | 101812 | 26.2°C | 56.3% | 16.8°C | 4438ft (1353m) | 12.79v | 31 |
| 7648 | 14 Apr 18:54:17 | 11 | 12.9 mph | 17 | SSW (207°) | 99663 | 101813 | 26.2°C | 56.3% | 16.8°C | 4438ft (1353m) | 12.79v | 31 |
| 7647 | 14 Apr 18:54:06 | 11 | 12.6 mph | 16 | SSW (192°) | 99659 | 101809 | 26.2°C | 56.3% | 16.8°C | 4438ft (1353m) | 12.79v | 31 |
| 7646 | 14 Apr 18:53:54 | 9 | 10.4 mph | 13 | SSW (204°) | 99665 | 101815 | 26.2°C | 56.4% | 16.8°C | 4427ft (1349m) | 12.8v | 31 |
| 7645 | 14 Apr 18:53:43 | 8 | 8.6 mph | 11 | SSW (208°) | 99659 | 101809 | 26.2°C | 56.4% | 16.8°C | 4427ft (1349m) | 12.79v | 31 |
| 7644 | 14 Apr 18:53:32 | 11 | 13.4 mph | 17 | SSW (201°) | 99655 | 101805 | 26.2°C | 56.3% | 16.8°C | 4438ft (1353m) | 12.79v | 31 |
| 7643 | 14 Apr 18:53:21 | 12 | 13.3 mph | 18 | S (188°) | 99663 | 101813 | 26.2°C | 56.3% | 16.8°C | 4438ft (1353m) | 12.79v | 31 |
| 7642 | 14 Apr 18:53:09 | 14 | 14.7 mph | 17 | SSW (194°) | 99656 | 101806 | 26.2°C | 56.3% | 16.8°C | 4438ft (1353m) | 12.78v | 31 |
| 7641 | 14 Apr 18:52:58 | 11 | 12.8 mph | 18 | SSW (196°) | 99661 | 101811 | 26.2°C | 56.3% | 16.8°C | 4438ft (1353m) | 12.79v | 31 |
| 7640 | 14 Apr 18:52:47 | 14 | 16.1 mph | 18 | S (190°) | 99652 | 101802 | 26.2°C | 56.3% | 16.8°C | 4438ft (1353m) | 12.81v | 31 |
| 7639 | 14 Apr 18:52:36 | 13 | 14.4 mph | 17 | SSW (193°) | 99655 | 101805 | 26.2°C | 56.3% | 16.8°C | 4438ft (1353m) | 12.79v | 31 |
| 7638 | 14 Apr 18:52:24 | 14 | 16.6 mph | 19 | SSW (199°) | 99647 | 101796 | 26.2°C | 56.4% | 16.8°C | 4427ft (1349m) | 12.81v | 31 |
| 7637 | 14 Apr 18:52:13 | 12 | 14.3 mph | 16 | S (183°) | 99644 | 101793 | 26.2°C | 56.4% | 16.8°C | 4427ft (1349m) | 12.79v | 31 |
| 7636 | 14 Apr 18:52:02 | 13 | 15.9 mph | 20 | SSW (197°) | 99659 | 101809 | 26.2°C | 56.4% | 16.8°C | 4427ft (1349m) | 12.8v | 31 |
| 7635 | 14 Apr 18:51:51 | 11 | 16.6 mph | 21 | SSW (195°) | 99657 | 101807 | 26.2°C | 56.4% | 16.8°C | 4427ft (1349m) | 12.79v | 31 |
| 7634 | 14 Apr 18:51:39 | 13 | 14.7 mph | 18 | S (189°) | 99653 | 101803 | 26.2°C | 56.5% | 16.9°C | 4416ft (1346m) | 12.79v | 31 |
| 7633 | 14 Apr 18:51:28 | 10 | 10.9 mph | 13 | SSW (197°) | 99656 | 101806 | 26.3°C | 56.6% | 17°C | 4407ft (1343m) | 12.78v | 31 |
| 7632 | 14 Apr 18:51:17 | 12 | 13.5 mph | 16 | SSW (210°) | 99659 | 101809 | 26.3°C | 56.5% | 17°C | 4418ft (1347m) | 12.79v | 31 |
| 7631 | 14 Apr 18:51:06 | 10 | 10.3 mph | 12 | SSW (196°) | 99656 | 101806 | 26.2°C | 56.6% | 16.9°C | 4404ft (1342m) | 12.79v | 31 |
| 7630 | 14 Apr 18:50:54 | 12 | 12.9 mph | 17 | SSW (192°) | 99654 | 101804 | 26.2°C | 56.6% | 16.9°C | 4404ft (1342m) | 12.79v | 31 |
| 7629 | 14 Apr 18:50:43 | 9 | 10.5 mph | 13 | SSW (205°) | 99658 | 101808 | 26.2°C | 56.6% | 16.9°C | 4404ft (1342m) | 12.8v | 31 |
| 7628 | 14 Apr 18:50:32 | 10 | 10.6 mph | 13 | SSW (207°) | 99655 | 101805 | 26.2°C | 56.5% | 16.9°C | 4416ft (1346m) | 12.79v | 31 |
| 7627 | 14 Apr 18:50:21 | 12 | 11.7 mph | 15 | SSW (207°) | 99647 | 101796 | 26.2°C | 56.4% | 16.8°C | 4427ft (1349m) | 12.79v | 31 |
| 7626 | 14 Apr 18:50:09 | 13 | 12.7 mph | 15 | SSW (201°) | 99652 | 101802 | 26.2°C | 56.5% | 16.9°C | 4416ft (1346m) | 12.79v | 31 |
| 7625 | 14 Apr 18:49:58 | 14 | 15.2 mph | 18 | S (191°) | 99656 | 101806 | 26.2°C | 56.4% | 16.8°C | 4427ft (1349m) | 12.79v | 31 |
| 7624 | 14 Apr 18:49:47 | 11 | 13.7 mph | 16 | S (191°) | 99659 | 101809 | 26.2°C | 56.5% | 16.9°C | 4416ft (1346m) | 12.79v | 31 |
| 7623 | 14 Apr 18:49:36 | 11 | 13 mph | 16 | S (188°) | 99652 | 101802 | 26.2°C | 56.3% | 16.8°C | 4438ft (1353m) | 12.81v | 31 |
| 7622 | 14 Apr 18:49:24 | 13 | 15.3 mph | 18 | SSW (194°) | 99654 | 101804 | 26.2°C | 56.4% | 16.8°C | 4427ft (1349m) | 12.82v | 31 |
| 7621 | 14 Apr 18:49:13 | 11 | 12.5 mph | 15 | S (189°) | 99651 | 101800 | 26.3°C | 56.4% | 16.9°C | 4430ft (1350m) | 12.8v | 31 |
| 7620 | 14 Apr 18:49:02 | 11 | 11.7 mph | 13 | SSW (202°) | 99654 | 101804 | 26.3°C | 56.3% | 16.9°C | 4441ft (1354m) | 12.8v | 31 |
| 7619 | 14 Apr 18:48:51 | 14 | 15.3 mph | 17 | S (189°) | 99650 | 101799 | 26.3°C | 56.4% | 16.9°C | 4430ft (1350m) | 12.79v | 31 |
| 7618 | 14 Apr 18:48:39 | 12 | 13.5 mph | 20 | SSW (195°) | 99646 | 101795 | 26.3°C | 56.4% | 16.9°C | 4430ft (1350m) | 12.79v | 31 |
| 7617 | 14 Apr 18:48:28 | 12 | 16.6 mph | 20 | SSW (199°) | 99651 | 101800 | 26.3°C | 56.4% | 16.9°C | 4430ft (1350m) | 12.79v | 31 |
| 7616 | 14 Apr 18:48:17 | 8 | 9.9 mph | 13 | SSW (208°) | 99649 | 101798 | 26.3°C | 56.5% | 17°C | 4418ft (1347m) | 12.78v | 31 |
| 7615 | 14 Apr 18:48:06 | 12 | 12.1 mph | 15 | SSW (200°) | 99653 | 101803 | 26.3°C | 56.5% | 17°C | 4418ft (1347m) | 12.78v | 31 |
| 7614 | 14 Apr 18:47:54 | 10 | 11.3 mph | 14 | S (191°) | 99642 | 101791 | 26.3°C | 56.4% | 16.9°C | 4430ft (1350m) | 12.79v | 31 |
| 7613 | 14 Apr 18:47:43 | 12 | 13.5 mph | 15 | SSW (204°) | 99653 | 101803 | 26.3°C | 56.5% | 17°C | 4418ft (1347m) | 12.79v | 31 |
| 7612 | 14 Apr 18:47:32 | 10 | 11.6 mph | 14 | SSW (196°) | 99646 | 101795 | 26.3°C | 56.5% | 17°C | 4418ft (1347m) | 12.79v | 31 |
| 7611 | 14 Apr 18:47:21 | 11 | 12.7 mph | 15 | S (191°) | 99649 | 101798 | 26.3°C | 56.5% | 17°C | 4418ft (1347m) | 12.79v | 31 |
| 7610 | 14 Apr 18:47:09 | 13 | 15 mph | 18 | SSW (213°) | 99635 | 101784 | 26.3°C | 56.5% | 17°C | 4418ft (1347m) | 12.8v | 31 |
| 7609 | 14 Apr 18:46:58 | 10 | 11.7 mph | 14 | SSW (203°) | 99645 | 101794 | 26.2°C | 56.4% | 16.8°C | 4427ft (1349m) | 12.79v | 31 |
| 7608 | 14 Apr 18:46:47 | 15 | 17.3 mph | 20 | SSW (193°) | 99646 | 101795 | 26.2°C | 56.6% | 16.9°C | 4404ft (1342m) | 12.78v | 31 |
| 7607 | 14 Apr 18:46:36 | 10 | 14 mph | 18 | SSW (197°) | 99634 | 101783 | 26.2°C | 56.5% | 16.9°C | 4416ft (1346m) | 12.79v | 31 |
| 7606 | 14 Apr 18:46:24 | 15 | 16 mph | 18 | SSW (195°) | 99636 | 101785 | 26.2°C | 56.6% | 16.9°C | 4404ft (1342m) | 12.8v | 31 |
| 7605 | 14 Apr 18:46:13 | 14 | 16.9 mph | 21 | S (191°) | 99645 | 101794 | 26.2°C | 56.5% | 16.9°C | 4416ft (1346m) | 12.81v | 31 |
| 7604 | 14 Apr 18:46:02 | 17 | 19.4 mph | 23 | SSW (192°) | 99640 | 101789 | 26.2°C | 56.5% | 16.9°C | 4416ft (1346m) | 12.79v | 31 |
| 7603 | 14 Apr 18:45:51 | 13 | 16.6 mph | 20 | S (185°) | 99628 | 101777 | 26.2°C | 56.6% | 16.9°C | 4404ft (1342m) | 12.79v | 31 |
| 7602 | 14 Apr 18:45:39 | 11 | 14.6 mph | 19 | SSW (193°) | 99631 | 101780 | 26.3°C | 56.6% | 17°C | 4407ft (1343m) | 12.8v | 31 |
| 7601 | 14 Apr 18:45:28 | 11 | 12.2 mph | 14 | SSW (202°) | 99645 | 101794 | 26.3°C | 56.5% | 17°C | 4418ft (1347m) | 12.8v | 31 |
| 7600 | 14 Apr 18:45:17 | 11 | 11.8 mph | 13 | SSW (209°) | 99640 | 101789 | 26.3°C | 56.5% | 17°C | 4418ft (1347m) | 12.79v | 31 |
| 7599 | 14 Apr 18:45:06 | 13 | 12.9 mph | 14 | SSW (199°) | 99639 | 101788 | 26.3°C | 56.5% | 17°C | 4418ft (1347m) | 12.81v | 31 |
| 7598 | 14 Apr 18:44:54 | 14 | 15.2 mph | 16 | S (190°) | 99640 | 101789 | 26.3°C | 56.5% | 17°C | 4418ft (1347m) | 12.81v | 31 |
| 7597 | 14 Apr 18:44:43 | 14 | 15.8 mph | 18 | SSW (195°) | 99637 | 101786 | 26.3°C | 56.5% | 17°C | 4418ft (1347m) | 12.8v | 31 |
| 7596 | 14 Apr 18:44:32 | 9 | 11.4 mph | 13 | SSW (196°) | 99643 | 101792 | 26.3°C | 56.6% | 17°C | 4407ft (1343m) | 12.8v | 31 |
| 7595 | 14 Apr 18:44:21 | 10 | 11.5 mph | 14 | SSW (193°) | 99643 | 101792 | 26.3°C | 56.6% | 17°C | 4407ft (1343m) | 12.79v | 31 |
| 7594 | 14 Apr 18:44:09 | 12 | 12.7 mph | 16 | S (190°) | 99646 | 101795 | 26.3°C | 56.5% | 17°C | 4418ft (1347m) | 12.8v | 31 |
| 7593 | 14 Apr 18:43:58 | 13 | 14.3 mph | 19 | SSW (200°) | 99635 | 101784 | 26.3°C | 56.5% | 17°C | 4418ft (1347m) | 12.79v | 31 |
| 7592 | 14 Apr 18:43:47 | 14 | 15.1 mph | 18 | S (188°) | 99638 | 101787 | 26.3°C | 56.6% | 17°C | 4407ft (1343m) | 12.79v | 31 |
| 7591 | 14 Apr 18:43:36 | 13 | 15.5 mph | 19 | S (189°) | 99641 | 101790 | 26.3°C | 56.5% | 17°C | 4418ft (1347m) | 12.8v | 31 |
| 7590 | 14 Apr 18:43:24 | 13 | 15.9 mph | 22 | S (188°) | 99646 | 101795 | 26.3°C | 56.6% | 17°C | 4407ft (1343m) | 12.8v | 31 |
| 7589 | 14 Apr 18:43:13 | 10 | 12.4 mph | 17 | SSW (202°) | 99643 | 101792 | 26.3°C | 56.6% | 17°C | 4407ft (1343m) | 12.8v | 31 |
| 7588 | 14 Apr 18:43:02 | 13 | 14.5 mph | 16 | SSW (199°) | 99645 | 101794 | 26.3°C | 56.6% | 17°C | 4407ft (1343m) | 12.8v | 31 |
| 7587 | 14 Apr 18:42:51 | 10 | 11.2 mph | 15 | SSW (208°) | 99643 | 101792 | 26.3°C | 56.7% | 17°C | 4396ft (1340m) | 12.79v | 31 |
| 7586 | 14 Apr 18:42:39 | 12 | 13.3 mph | 17 | SSW (207°) | 99645 | 101794 | 26.3°C | 56.6% | 17°C | 4407ft (1343m) | 12.8v | 31 |
| 7585 | 14 Apr 18:42:28 | 12 | 14.7 mph | 17 | SSW (196°) | 99633 | 101782 | 26.3°C | 56.7% | 17°C | 4396ft (1340m) | 12.78v | 31 |
| 7584 | 14 Apr 18:42:17 | 14 | 15.4 mph | 18 | S (178°) | 99637 | 101786 | 26.3°C | 56.7% | 17°C | 4396ft (1340m) | 12.79v | 31 |
| 7583 | 14 Apr 18:42:06 | 16 | 16.7 mph | 19 | S (190°) | 99638 | 101787 | 26.3°C | 56.7% | 17°C | 4396ft (1340m) | 12.8v | 31 |
| 7582 | 14 Apr 18:41:54 | 10 | 14.1 mph | 20 | S (191°) | 99640 | 101789 | 26.4°C | 56.7% | 17.1°C | 4398ft (1341m) | 12.8v | 31 |
| 7581 | 14 Apr 18:41:43 | 12 | 12.9 mph | 17 | SSW (194°) | 99639 | 101788 | 26.4°C | 56.6% | 17.1°C | 4410ft (1344m) | 12.81v | 31 |
| 7580 | 14 Apr 18:41:32 | 11 | 12.9 mph | 16 | SSW (197°) | 99642 | 101791 | 26.4°C | 56.7% | 17.1°C | 4398ft (1341m) | 12.81v | 31 |
| 7579 | 14 Apr 18:41:21 | 12 | 15.6 mph | 19 | SSW (200°) | 99643 | 101792 | 26.4°C | 56.6% | 17.1°C | 4410ft (1344m) | 12.79v | 31 |
| 7578 | 14 Apr 18:41:09 | 12 | 13.3 mph | 15 | S (191°) | 99638 | 101787 | 26.4°C | 56.7% | 17.1°C | 4398ft (1341m) | 12.79v | 31 |
| 7577 | 14 Apr 18:40:58 | 12 | 13.5 mph | 15 | SSW (202°) | 99636 | 101785 | 26.4°C | 56.6% | 17.1°C | 4410ft (1344m) | 12.79v | 31 |
| 7576 | 14 Apr 18:40:47 | 10 | 11.7 mph | 14 | SW (217°) | 99642 | 101791 | 26.4°C | 56.7% | 17.1°C | 4398ft (1341m) | 12.78v | 31 |
| 7575 | 14 Apr 18:40:36 | 11 | 12 mph | 15 | SSW (201°) | 99641 | 101790 | 26.4°C | 56.7% | 17.1°C | 4398ft (1341m) | 12.8v | 31 |
| 7574 | 14 Apr 18:40:24 | 13 | 13.9 mph | 16 | SSW (196°) | 99641 | 101790 | 26.4°C | 56.6% | 17.1°C | 4410ft (1344m) | 12.79v | 31 |
| 7573 | 14 Apr 18:40:13 | 12 | 14.7 mph | 17 | SSW (195°) | 99636 | 101785 | 26.4°C | 56.5% | 17.1°C | 4421ft (1348m) | 12.8v | 31 |
| 7572 | 14 Apr 18:40:02 | 8 | 9 mph | 11 | SSW (194°) | 99642 | 101791 | 26.4°C | 56.5% | 17.1°C | 4421ft (1348m) | 12.81v | 31 |
| 7571 | 14 Apr 18:39:51 | 10 | 11.5 mph | 14 | SSW (198°) | 99645 | 101794 | 26.4°C | 56.5% | 17.1°C | 4421ft (1348m) | 12.81v | 31 |
| 7570 | 14 Apr 18:39:39 | 12 | 12.9 mph | 14 | S (186°) | 99634 | 101783 | 26.4°C | 56.5% | 17.1°C | 4421ft (1348m) | 12.8v | 31 |
| 7569 | 14 Apr 18:39:28 | 13 | 14.7 mph | 16 | SSW (199°) | 99636 | 101785 | 26.4°C | 56.6% | 17.1°C | 4410ft (1344m) | 12.8v | 31 |
| 7568 | 14 Apr 18:39:17 | 10 | 12.5 mph | 15 | SSW (200°) | 99645 | 101794 | 26.4°C | 56.5% | 17.1°C | 4421ft (1348m) | 12.79v | 31 |
| 7567 | 14 Apr 18:39:06 | 10 | 11.8 mph | 14 | SSW (199°) | 99636 | 101785 | 26.4°C | 56.5% | 17.1°C | 4421ft (1348m) | 12.79v | 31 |
| 7566 | 14 Apr 18:38:54 | 13 | 15.2 mph | 19 | SSW (195°) | 99634 | 101783 | 26.4°C | 56.6% | 17.1°C | 4410ft (1344m) | 12.79v | 31 |
| 7565 | 14 Apr 18:38:43 | 9 | 14.7 mph | 18 | SSW (194°) | 99631 | 101780 | 26.4°C | 56.6% | 17.1°C | 4410ft (1344m) | 12.82v | 31 |
| 7564 | 14 Apr 18:38:32 | 8 | 10.7 mph | 13 | SSW (201°) | 99643 | 101792 | 26.4°C | 56.7% | 17.1°C | 4398ft (1341m) | 12.8v | 31 |
| 7563 | 14 Apr 18:38:21 | 8 | 11.9 mph | 16 | SSW (196°) | 99635 | 101784 | 26.3°C | 56.5% | 17°C | 4418ft (1347m) | 12.79v | 31 |
| 7562 | 14 Apr 18:38:09 | 9 | 12.2 mph | 15 | S (186°) | 99638 | 101787 | 26.3°C | 56.5% | 17°C | 4418ft (1347m) | 12.79v | 31 |
| 7561 | 14 Apr 18:37:58 | 13 | 15 mph | 19 | SSW (203°) | 99626 | 101775 | 26.3°C | 56.5% | 17°C | 4418ft (1347m) | 12.8v | 31 |
| 7560 | 14 Apr 18:37:47 | 11 | 13 mph | 17 | SSW (202°) | 99625 | 101774 | 26.3°C | 56.6% | 17°C | 4407ft (1343m) | 12.8v | 31 |
| 7559 | 14 Apr 18:37:36 | 14 | 15.7 mph | 18 | SSW (195°) | 99637 | 101786 | 26.3°C | 56.5% | 17°C | 4418ft (1347m) | 12.79v | 31 |
| 7558 | 14 Apr 18:37:24 | 12 | 13.2 mph | 14 | SSW (193°) | 99635 | 101784 | 26.3°C | 56.5% | 17°C | 4418ft (1347m) | 12.8v | 31 |
| 7557 | 14 Apr 18:37:13 | 13 | 14.2 mph | 15 | SSW (201°) | 99630 | 101779 | 26.3°C | 56.4% | 16.9°C | 4430ft (1350m) | 12.81v | 31 |
| 7556 | 14 Apr 18:37:02 | 14 | 16.7 mph | 19 | SSW (197°) | 99639 | 101788 | 26.3°C | 56.5% | 17°C | 4418ft (1347m) | 12.81v | 31 |
| 7555 | 14 Apr 18:36:51 | 8 | 12.7 mph | 18 | SSW (196°) | 99638 | 101787 | 26.3°C | 56.5% | 17°C | 4418ft (1347m) | 12.8v | 31 |
| 7554 | 14 Apr 18:36:39 | 9 | 14 mph | 19 | SW (214°) | 99642 | 101791 | 26.4°C | 56.5% | 17.1°C | 4421ft (1348m) | 12.8v | 31 |
| 7553 | 14 Apr 18:36:28 | 9 | 13.2 mph | 16 | SSW (206°) | 99625 | 101774 | 26.3°C | 56.5% | 17°C | 4418ft (1347m) | 12.79v | 31 |
| 7552 | 14 Apr 18:36:17 | 14 | 15.9 mph | 18 | SSW (193°) | 99624 | 101773 | 26.3°C | 56.6% | 17°C | 4407ft (1343m) | 12.79v | 31 |
| 7551 | 14 Apr 18:36:06 | 12 | 13.7 mph | 16 | SSW (207°) | 99635 | 101784 | 26.3°C | 56.7% | 17°C | 4396ft (1340m) | 12.79v | 31 |
| 7550 | 14 Apr 18:35:54 | 10 | 13.4 mph | 18 | SSW (198°) | 99631 | 101780 | 26.3°C | 56.8% | 17°C | 4384ft (1336m) | 12.8v | 31 |
| 7549 | 14 Apr 18:35:43 | 11 | 12.7 mph | 15 | SSW (197°) | 99632 | 101781 | 26.3°C | 56.7% | 17°C | 4396ft (1340m) | 12.81v | 31 |
| 7548 | 14 Apr 18:35:32 | 11 | 13.6 mph | 18 | SSW (203°) | 99639 | 101788 | 26.4°C | 56.7% | 17.1°C | 4398ft (1341m) | 12.8v | 31 |
| 7547 | 14 Apr 18:35:21 | 14 | 17.3 mph | 19 | SSW (203°) | 99628 | 101777 | 26.4°C | 56.7% | 17.1°C | 4398ft (1341m) | 12.8v | 31 |
| 7546 | 14 Apr 18:35:09 | 10 | 11 mph | 14 | SSW (197°) | 99630 | 101779 | 26.3°C | 56.7% | 17°C | 4396ft (1340m) | 12.8v | 31 |
| 7545 | 14 Apr 18:34:58 | 17 | 18.4 mph | 21 | S (189°) | 99633 | 101782 | 26.3°C | 56.8% | 17°C | 4384ft (1336m) | 12.81v | 31 |
| 7544 | 14 Apr 18:34:47 | 10 | 12.4 mph | 14 | SSW (201°) | 99625 | 101774 | 26.3°C | 56.8% | 17°C | 4384ft (1336m) | 12.79v | 31 |
| 7543 | 14 Apr 18:34:36 | 16 | 17.9 mph | 22 | SSW (200°) | 99624 | 101773 | 26.3°C | 56.7% | 17°C | 4396ft (1340m) | 12.79v | 31 |
| 7542 | 14 Apr 18:34:24 | 14 | 15.6 mph | 18 | SSW (202°) | 99631 | 101780 | 26.4°C | 56.6% | 17.1°C | 4410ft (1344m) | 12.8v | 31 |
| 7541 | 14 Apr 18:34:13 | 11 | 14.2 mph | 19 | SSW (193°) | 99632 | 101781 | 26.4°C | 56.7% | 17.1°C | 4398ft (1341m) | 12.8v | 31 |
| 7540 | 14 Apr 18:34:02 | 15 | 16.3 mph | 20 | SSW (201°) | 99629 | 101778 | 26.4°C | 56.8% | 17.1°C | 4387ft (1337m) | 12.81v | 31 |
| 7539 | 14 Apr 18:33:51 | 10 | 11.4 mph | 14 | SSW (197°) | 99634 | 101783 | 26.4°C | 56.8% | 17.1°C | 4387ft (1337m) | 12.79v | 31 |
| 7538 | 14 Apr 18:33:39 | 10 | 11.7 mph | 14 | SSW (211°) | 99634 | 101783 | 26.4°C | 56.8% | 17.1°C | 4387ft (1337m) | 12.79v | 31 |
| 7537 | 14 Apr 18:33:28 | 11 | 12.6 mph | 15 | S (190°) | 99626 | 101775 | 26.3°C | 56.9% | 17.1°C | 4373ft (1333m) | 12.8v | 31 |
| 7536 | 14 Apr 18:33:17 | 9 | 11.2 mph | 16 | SSW (203°) | 99631 | 101780 | 26.3°C | 56.9% | 17.1°C | 4373ft (1333m) | 12.8v | 31 |
| 7535 | 14 Apr 18:33:06 | 9 | 12 mph | 15 | S (190°) | 99630 | 101779 | 26.3°C | 57% | 17.1°C | 4361ft (1329m) | 12.8v | 31 |
| 7534 | 14 Apr 18:32:54 | 14 | 15.9 mph | 21 | S (180°) | 99625 | 101774 | 26.3°C | 57% | 17.1°C | 4361ft (1329m) | 12.79v | 31 |
| 7533 | 14 Apr 18:32:43 | 14 | 15.5 mph | 18 | SSW (197°) | 99619 | 101768 | 26.3°C | 57% | 17.1°C | 4361ft (1329m) | 12.8v | 31 |
| 7532 | 14 Apr 18:32:32 | 16 | 17.5 mph | 20 | SSW (204°) | 99622 | 101771 | 26.3°C | 57% | 17.1°C | 4361ft (1329m) | 12.8v | 31 |
| 7531 | 14 Apr 18:32:21 | 13 | 16.5 mph | 21 | SSW (203°) | 99614 | 101763 | 26.3°C | 57.3% | 17.2°C | 4327ft (1319m) | 12.8v | 31 |
| 7530 | 14 Apr 18:32:09 | 14 | 16.5 mph | 21 | S (183°) | 99612 | 101761 | 26.3°C | 57.5% | 17.2°C | 4305ft (1312m) | 12.8v | 31 |
| 7529 | 14 Apr 18:31:58 | 10 | 12.3 mph | 15 | SSW (195°) | 99622 | 101771 | 26.3°C | 57.5% | 17.2°C | 4305ft (1312m) | 12.8v | 31 |
| 7528 | 14 Apr 18:31:47 | 11 | 13.7 mph | 18 | SSW (201°) | 99631 | 101780 | 26.3°C | 57.4% | 17.2°C | 4316ft (1316m) | 12.79v | 31 |
| 7527 | 14 Apr 18:31:36 | 14 | 16.7 mph | 19 | SSW (200°) | 99630 | 101779 | 26.4°C | 57.6% | 17.4°C | 4296ft (1309m) | 12.79v | 31 |
| 7526 | 14 Apr 18:31:24 | 12 | 12.1 mph | 14 | S (189°) | 99626 | 101775 | 26.4°C | 57.5% | 17.3°C | 4308ft (1313m) | 12.79v | 31 |
| 7525 | 14 Apr 18:31:13 | 12 | 13.5 mph | 17 | SSW (202°) | 99626 | 101775 | 26.4°C | 57.7% | 17.4°C | 4285ft (1306m) | 12.79v | 31 |
| 7524 | 14 Apr 18:31:02 | 11 | 13.5 mph | 15 | SSW (197°) | 99619 | 101768 | 26.4°C | 57.7% | 17.4°C | 4285ft (1306m) | 12.81v | 31 |
| 7523 | 14 Apr 18:30:51 | 10 | 10.2 mph | 11 | SSW (209°) | 99619 | 101768 | 26.4°C | 57.8% | 17.4°C | 4274ft (1303m) | 12.8v | 31 |
| 7522 | 14 Apr 18:30:39 | 13 | 14 mph | 15 | SSW (212°) | 99624 | 101773 | 26.4°C | 57.7% | 17.4°C | 4285ft (1306m) | 12.79v | 31 |
| 7521 | 14 Apr 18:30:28 | 16 | 17.6 mph | 20 | SSW (198°) | 99620 | 101769 | 26.3°C | 57.7% | 17.3°C | 4282ft (1305m) | 12.8v | 31 |
| 7520 | 14 Apr 18:30:17 | 14 | 16.2 mph | 19 | S (191°) | 99623 | 101772 | 26.4°C | 57.7% | 17.4°C | 4285ft (1306m) | 12.79v | 31 |
| 7519 | 14 Apr 18:30:06 | 12 | 13.9 mph | 19 | SSW (192°) | 99620 | 101769 | 26.4°C | 57.7% | 17.4°C | 4285ft (1306m) | 12.8v | 31 |
| 7518 | 14 Apr 18:29:54 | 10 | 13.4 mph | 16 | S (188°) | 99620 | 101769 | 26.4°C | 57.7% | 17.4°C | 4285ft (1306m) | 12.8v | 31 |
| 7517 | 14 Apr 18:29:43 | 10 | 13 mph | 17 | SSW (192°) | 99626 | 101775 | 26.3°C | 57.8% | 17.3°C | 4271ft (1302m) | 12.79v | 31 |
| 7516 | 14 Apr 18:29:32 | 11 | 12.5 mph | 15 | S (191°) | 99622 | 101771 | 26.4°C | 57.8% | 17.4°C | 4274ft (1303m) | 12.81v | 31 |
| 7515 | 14 Apr 18:29:21 | 10 | 10.5 mph | 13 | SSW (211°) | 99618 | 101767 | 26.4°C | 57.8% | 17.4°C | 4274ft (1303m) | 12.8v | 31 |
| 7514 | 14 Apr 18:29:09 | 13 | 15 mph | 18 | SSW (197°) | 99616 | 101765 | 26.3°C | 57.8% | 17.3°C | 4271ft (1302m) | 12.81v | 31 |
| 7513 | 14 Apr 18:28:58 | 14 | 15.5 mph | 18 | S (175°) | 99614 | 101763 | 26.3°C | 57.9% | 17.3°C | 4260ft (1298m) | 12.81v | 31 |
| 7512 | 14 Apr 18:28:47 | 10 | 10.9 mph | 14 | SSW (205°) | 99619 | 101768 | 26.3°C | 57.9% | 17.3°C | 4260ft (1298m) | 12.8v | 31 |
| 7511 | 14 Apr 18:28:36 | 12 | 15 mph | 17 | SSW (192°) | 99615 | 101764 | 26.3°C | 58% | 17.4°C | 4249ft (1295m) | 12.8v | 31 |
| 7510 | 14 Apr 18:28:24 | 13 | 14.6 mph | 16 | S (191°) | 99623 | 101772 | 26.3°C | 57.9% | 17.3°C | 4260ft (1298m) | 12.78v | 31 |
| 7509 | 14 Apr 18:28:13 | 12 | 14 mph | 17 | SSW (196°) | 99615 | 101764 | 26.3°C | 57.8% | 17.3°C | 4271ft (1302m) | 12.81v | 31 |
| 7508 | 14 Apr 18:28:02 | 12 | 13.8 mph | 17 | S (188°) | 99615 | 101764 | 26.4°C | 57.7% | 17.4°C | 4285ft (1306m) | 12.81v | 31 |
| 7507 | 14 Apr 18:27:51 | 11 | 13.9 mph | 19 | SSW (197°) | 99613 | 101762 | 26.4°C | 57.8% | 17.4°C | 4274ft (1303m) | 12.8v | 31 |
| 7506 | 14 Apr 18:27:39 | 13 | 14.5 mph | 16 | S (187°) | 99610 | 101759 | 26.3°C | 57.7% | 17.3°C | 4282ft (1305m) | 12.8v | 31 |
| 7505 | 14 Apr 18:27:28 | 10 | 14.7 mph | 18 | SSW (198°) | 99609 | 101758 | 26.3°C | 57.9% | 17.3°C | 4260ft (1298m) | 12.81v | 31 |
| 7504 | 14 Apr 18:27:17 | 12 | 15 mph | 18 | SSW (204°) | 99617 | 101766 | 26.3°C | 57.9% | 17.3°C | 4260ft (1298m) | 12.81v | 31 |
| 7503 | 14 Apr 18:27:06 | 16 | 18.5 mph | 21 | S (185°) | 99601 | 101749 | 26.3°C | 58% | 17.4°C | 4249ft (1295m) | 12.79v | 31 |
| 7502 | 14 Apr 18:26:54 | 12 | 14.6 mph | 17 | SSW (198°) | 99605 | 101753 | 26.3°C | 58% | 17.4°C | 4249ft (1295m) | 12.8v | 31 |
| 7501 | 14 Apr 18:26:43 | 13 | 16.1 mph | 23 | SSW (198°) | 99606 | 101755 | 26.3°C | 58.1% | 17.4°C | 4237ft (1291m) | 12.81v | 31 |
| 7500 | 14 Apr 18:26:32 | 13 | 15.2 mph | 18 | S (185°) | 99609 | 101758 | 26.4°C | 58.1% | 17.5°C | 4240ft (1292m) | 12.8v | 31 |
| 7499 | 14 Apr 18:26:21 | 12 | 15.5 mph | 19 | SSW (195°) | 99611 | 101760 | 26.3°C | 58.2% | 17.4°C | 4226ft (1288m) | 12.81v | 31 |
| 7498 | 14 Apr 18:26:09 | 11 | 13.8 mph | 16 | SSW (199°) | 99617 | 101766 | 26.4°C | 58.2% | 17.5°C | 4229ft (1289m) | 12.8v | 31 |
| 7497 | 14 Apr 18:25:58 | 13 | 14 mph | 15 | SSW (204°) | 99602 | 101750 | 26.3°C | 58.3% | 17.5°C | 4215ft (1285m) | 12.8v | 31 |
| 7496 | 14 Apr 18:25:47 | 12 | 14.5 mph | 17 | SSW (199°) | 99613 | 101762 | 26.3°C | 58.2% | 17.4°C | 4226ft (1288m) | 12.81v | 31 |
| 7495 | 14 Apr 18:25:36 | 11 | 14.4 mph | 19 | SSW (197°) | 99613 | 101762 | 26.3°C | 58.2% | 17.4°C | 4226ft (1288m) | 12.8v | 31 |
| 7494 | 14 Apr 18:25:24 | 11 | 13.2 mph | 17 | SSW (194°) | 99609 | 101758 | 26.3°C | 58.3% | 17.5°C | 4215ft (1285m) | 12.8v | 31 |
| 7493 | 14 Apr 18:25:13 | 15 | 16.6 mph | 21 | SSW (204°) | 99603 | 101751 | 26.3°C | 58.3% | 17.5°C | 4215ft (1285m) | 12.8v | 31 |
| 7492 | 14 Apr 18:25:02 | 13 | 18.3 mph | 21 | SSW (194°) | 99603 | 101751 | 26.3°C | 58.3% | 17.5°C | 4215ft (1285m) | 12.81v | 31 |
| 7491 | 14 Apr 18:24:51 | 10 | 12.2 mph | 16 | SSW (202°) | 99606 | 101755 | 26.3°C | 58.3% | 17.5°C | 4215ft (1285m) | 12.81v | 31 |
| 7490 | 14 Apr 18:24:39 | 13 | 14.2 mph | 15 | SSW (203°) | 99607 | 101756 | 26.3°C | 58.3% | 17.5°C | 4215ft (1285m) | 12.79v | 31 |
| 7489 | 14 Apr 18:24:28 | 17 | 17.9 mph | 19 | SSW (197°) | 99601 | 101749 | 26.3°C | 58.2% | 17.4°C | 4226ft (1288m) | 12.8v | 31 |
| 7488 | 14 Apr 18:24:17 | 15 | 17.4 mph | 19 | SSW (195°) | 99607 | 101756 | 26.3°C | 58.1% | 17.4°C | 4237ft (1291m) | 12.8v | 31 |
| 7487 | 14 Apr 18:24:06 | 10 | 13 mph | 19 | SSW (194°) | 99614 | 101763 | 26.3°C | 58.1% | 17.4°C | 4237ft (1291m) | 12.8v | 31 |
| 7486 | 14 Apr 18:23:54 | 14 | 13.2 mph | 18 | SSW (196°) | 99607 | 101756 | 26.3°C | 58.1% | 17.4°C | 4237ft (1291m) | 12.81v | 31 |
| 7485 | 14 Apr 18:23:43 | 11 | 13.3 mph | 20 | S (188°) | 99610 | 101759 | 26.3°C | 58.2% | 17.4°C | 4226ft (1288m) | 12.79v | 31 |
| 7484 | 14 Apr 18:23:32 | 12 | 16.4 mph | 23 | SSW (208°) | 99599 | 101747 | 26.3°C | 58.3% | 17.5°C | 4215ft (1285m) | 12.8v | 31 |
| 7483 | 14 Apr 18:23:21 | 12 | 14.3 mph | 18 | S (190°) | 99601 | 101749 | 26.3°C | 58.5% | 17.5°C | 4193ft (1278m) | 12.81v | 31 |
| 7482 | 14 Apr 18:23:09 | 13 | 15.7 mph | 19 | S (185°) | 99603 | 101751 | 26.3°C | 58.4% | 17.5°C | 4204ft (1281m) | 12.81v | 31 |
| 7481 | 14 Apr 18:22:58 | 11 | 12.8 mph | 15 | S (190°) | 99599 | 101747 | 26.3°C | 58.5% | 17.5°C | 4193ft (1278m) | 12.8v | 31 |
| 7480 | 14 Apr 18:22:47 | 12 | 13.9 mph | 16 | SSW (200°) | 99601 | 101749 | 26.3°C | 58.6% | 17.5°C | 4182ft (1275m) | 12.8v | 31 |
| 7479 | 14 Apr 18:22:36 | 9 | 12.7 mph | 15 | S (187°) | 99600 | 101748 | 26.3°C | 58.6% | 17.5°C | 4182ft (1275m) | 12.8v | 31 |
| 7478 | 14 Apr 18:22:24 | 15 | 17.2 mph | 20 | SSW (201°) | 99606 | 101755 | 26.3°C | 58.4% | 17.5°C | 4204ft (1281m) | 12.8v | 31 |
| 7477 | 14 Apr 18:22:13 | 15 | 17.4 mph | 20 | S (189°) | 99595 | 101743 | 26.3°C | 58.4% | 17.5°C | 4204ft (1281m) | 12.81v | 31 |
| 7476 | 14 Apr 18:22:02 | 11 | 14.9 mph | 20 | SSW (192°) | 99596 | 101744 | 26.3°C | 58.5% | 17.5°C | 4193ft (1278m) | 12.78v | 31 |
| 7475 | 14 Apr 18:21:51 | 12 | 15.4 mph | 21 | SSW (197°) | 99589 | 101737 | 26.3°C | 58.6% | 17.5°C | 4182ft (1275m) | 12.81v | 31 |
| 7474 | 14 Apr 18:21:39 | 12 | 17 mph | 23 | S (182°) | 99579 | 101727 | 26.3°C | 58.9% | 17.6°C | 4149ft (1265m) | 12.8v | 31 |
| 7473 | 14 Apr 18:21:28 | 12 | 12.8 mph | 15 | SSW (208°) | 99608 | 101757 | 26.3°C | 59.2% | 17.7°C | 4116ft (1255m) | 12.8v | 31 |
| 7472 | 14 Apr 18:21:17 | 10 | 13.6 mph | 18 | SSW (200°) | 99597 | 101745 | 26.3°C | 59.3% | 17.7°C | 4105ft (1251m) | 12.8v | 31 |
| 7471 | 14 Apr 18:21:06 | 12 | 14.1 mph | 18 | SSW (200°) | 99603 | 101751 | 26.3°C | 59.3% | 17.7°C | 4105ft (1251m) | 12.8v | 31 |
| 7470 | 14 Apr 18:20:54 | 16 | 18.3 mph | 20 | S (190°) | 99594 | 101742 | 26.3°C | 59.2% | 17.7°C | 4116ft (1255m) | 12.79v | 31 |
| 7469 | 14 Apr 18:20:43 | 15 | 16.3 mph | 19 | SSW (200°) | 99602 | 101750 | 26.3°C | 59.2% | 17.7°C | 4116ft (1255m) | 12.79v | 31 |
| 7468 | 14 Apr 18:20:32 | 14 | 14.7 mph | 18 | SSW (194°) | 99589 | 101737 | 26.3°C | 59.3% | 17.7°C | 4105ft (1251m) | 12.8v | 31 |
| 7467 | 14 Apr 18:20:21 | 12 | 14.4 mph | 16 | SSW (193°) | 99603 | 101751 | 26.3°C | 59.4% | 17.8°C | 4094ft (1248m) | 12.81v | 31 |
| 7466 | 14 Apr 18:20:09 | 10 | 12.7 mph | 16 | SSW (192°) | 99593 | 101741 | 26.3°C | 59.3% | 17.7°C | 4105ft (1251m) | 12.8v | 31 |
| 7465 | 14 Apr 18:19:58 | 12 | 13 mph | 14 | SSW (206°) | 99600 | 101748 | 26.3°C | 59.4% | 17.8°C | 4094ft (1248m) | 12.79v | 31 |
| 7464 | 14 Apr 18:19:47 | 12 | 14 mph | 18 | S (190°) | 99599 | 101747 | 26.3°C | 59.3% | 17.7°C | 4105ft (1251m) | 12.8v | 31 |
| 7463 | 14 Apr 18:19:36 | 12 | 13.9 mph | 16 | S (187°) | 99599 | 101747 | 26.3°C | 59.2% | 17.7°C | 4116ft (1255m) | 12.8v | 31 |
| 7462 | 14 Apr 18:19:24 | 11 | 14.7 mph | 20 | SSW (194°) | 99600 | 101748 | 26.4°C | 59.2% | 17.8°C | 4118ft (1255m) | 12.78v | 31 |
| 7461 | 14 Apr 18:19:13 | 12 | 14.1 mph | 16 | SSW (196°) | 99596 | 101744 | 26.3°C | 59.1% | 17.7°C | 4127ft (1258m) | 12.79v | 31 |
| 7460 | 14 Apr 18:19:02 | 10 | 12.4 mph | 16 | SSW (198°) | 99585 | 101733 | 26.3°C | 59.1% | 17.7°C | 4127ft (1258m) | 12.8v | 31 |
| 7459 | 14 Apr 18:18:51 | 11 | 12.8 mph | 15 | SSW (202°) | 99597 | 101745 | 26.3°C | 59.2% | 17.7°C | 4116ft (1255m) | 12.81v | 31 |
| 7458 | 14 Apr 18:18:39 | 8 | 12.6 mph | 17 | SSW (205°) | 99599 | 101747 | 26.3°C | 59.2% | 17.7°C | 4116ft (1255m) | 12.8v | 31 |
| 7457 | 14 Apr 18:18:28 | 11 | 11.5 mph | 16 | SSW (209°) | 99596 | 101744 | 26.3°C | 59.2% | 17.7°C | 4116ft (1255m) | 12.81v | 31 |
| 7456 | 14 Apr 18:18:17 | 11 | 13.4 mph | 16 | SSW (205°) | 99599 | 101747 | 26.3°C | 59.2% | 17.7°C | 4116ft (1255m) | 12.8v | 31 |
| 7455 | 14 Apr 18:18:06 | 10 | 13.4 mph | 17 | SSW (199°) | 99590 | 101738 | 26.3°C | 59.1% | 17.7°C | 4127ft (1258m) | 12.81v | 31 |
| 7454 | 14 Apr 18:17:54 | 9 | 11.6 mph | 16 | SSW (204°) | 99592 | 101740 | 26.3°C | 59.2% | 17.7°C | 4116ft (1255m) | 12.79v | 31 |
| 7453 | 14 Apr 18:17:43 | 10 | 15.2 mph | 20 | SSW (197°) | 99593 | 101741 | 26.3°C | 59.2% | 17.7°C | 4116ft (1255m) | 12.79v | 31 |
| 7452 | 14 Apr 18:17:32 | 10 | 12.2 mph | 15 | SSW (193°) | 99594 | 101742 | 26.3°C | 59.3% | 17.7°C | 4105ft (1251m) | 12.8v | 31 |
| 7451 | 14 Apr 18:17:21 | 10 | 14.1 mph | 17 | SSW (205°) | 99597 | 101745 | 26.3°C | 59.2% | 17.7°C | 4116ft (1255m) | 12.8v | 31 |
| 7450 | 14 Apr 18:17:09 | 17 | 19.4 mph | 23 | SSW (207°) | 99583 | 101731 | 26.3°C | 59.1% | 17.7°C | 4127ft (1258m) | 12.81v | 31 |
| 7449 | 14 Apr 18:16:58 | 11 | 12.8 mph | 15 | SSW (202°) | 99592 | 101740 | 26.3°C | 59.1% | 17.7°C | 4127ft (1258m) | 12.8v | 31 |
| 7448 | 14 Apr 18:16:47 | 10 | 12.3 mph | 15 | SW (218°) | 99591 | 101739 | 26.3°C | 59.1% | 17.7°C | 4127ft (1258m) | 12.82v | 31 |
| 7447 | 14 Apr 18:16:36 | 11 | 14.9 mph | 20 | SSW (204°) | 99589 | 101737 | 26.3°C | 59.1% | 17.7°C | 4127ft (1258m) | 12.8v | 31 |
| 7446 | 14 Apr 18:16:24 | 14 | 17.3 mph | 21 | SSW (197°) | 99589 | 101737 | 26.3°C | 59% | 17.6°C | 4138ft (1261m) | 12.8v | 31 |
| 7445 | 14 Apr 18:16:13 | 14 | 15.8 mph | 18 | SSW (194°) | 99581 | 101729 | 26.3°C | 59% | 17.6°C | 4138ft (1261m) | 12.79v | 31 |
| 7444 | 14 Apr 18:16:02 | 14 | 15.3 mph | 18 | SSW (198°) | 99583 | 101731 | 26.3°C | 59% | 17.6°C | 4138ft (1261m) | 12.78v | 31 |
| 7443 | 14 Apr 18:15:51 | 13 | 15.4 mph | 17 | SSW (212°) | 99592 | 101740 | 26.3°C | 59% | 17.6°C | 4138ft (1261m) | 12.8v | 31 |
| 7442 | 14 Apr 18:15:39 | 14 | 16.4 mph | 19 | SSW (201°) | 99584 | 101732 | 26.3°C | 58.9% | 17.6°C | 4149ft (1265m) | 12.82v | 31 |
| 7441 | 14 Apr 18:15:28 | 11 | 14.6 mph | 18 | S (191°) | 99582 | 101730 | 26.3°C | 59.1% | 17.7°C | 4127ft (1258m) | 12.82v | 31 |
| 7440 | 14 Apr 18:15:17 | 10 | 12.4 mph | 15 | SSW (199°) | 99591 | 101739 | 26.3°C | 59.4% | 17.8°C | 4094ft (1248m) | 12.79v | 31 |
| 7439 | 14 Apr 18:15:06 | 12 | 14 mph | 18 | SSW (202°) | 99585 | 101733 | 26.2°C | 59.5% | 17.7°C | 4080ft (1244m) | 12.81v | 31 |
| 7438 | 14 Apr 18:14:54 | 13 | 16.5 mph | 21 | SSW (199°) | 99585 | 101733 | 26.2°C | 59.5% | 17.7°C | 4080ft (1244m) | 12.8v | 31 |
| 7437 | 14 Apr 18:14:43 | 12 | 12.2 mph | 14 | S (187°) | 99594 | 101742 | 26.3°C | 59.6% | 17.8°C | 4072ft (1241m) | 12.79v | 31 |
| 7436 | 14 Apr 18:14:32 | 11 | 14.2 mph | 18 | SSW (194°) | 99587 | 101735 | 26.3°C | 59.5% | 17.8°C | 4083ft (1244m) | 12.81v | 31 |
| 7435 | 14 Apr 18:14:21 | 12 | 14.6 mph | 19 | S (189°) | 99589 | 101737 | 26.3°C | 59.3% | 17.7°C | 4105ft (1251m) | 12.8v | 31 |
| 7434 | 14 Apr 18:14:09 | 15 | 16.8 mph | 19 | SSW (200°) | 99590 | 101738 | 26.3°C | 59.4% | 17.8°C | 4094ft (1248m) | 12.8v | 31 |
| 7433 | 14 Apr 18:13:58 | 8 | 12.5 mph | 20 | SSW (198°) | 99593 | 101741 | 26.3°C | 59.4% | 17.8°C | 4094ft (1248m) | 12.8v | 31 |
| 7432 | 14 Apr 18:13:47 | 11 | 13.3 mph | 17 | SSW (208°) | 99589 | 101737 | 26.3°C | 59.6% | 17.8°C | 4072ft (1241m) | 12.81v | 31 |
| 7431 | 14 Apr 18:13:36 | 13 | 13.5 mph | 15 | S (191°) | 99578 | 101726 | 26.3°C | 59.8% | 17.9°C | 4050ft (1234m) | 12.8v | 31 |
| 7430 | 14 Apr 18:13:24 | 11 | 12.6 mph | 15 | SSW (199°) | 99582 | 101730 | 26.3°C | 59.8% | 17.9°C | 4050ft (1234m) | 12.82v | 31 |
| 7429 | 14 Apr 18:13:13 | 13 | 14.2 mph | 18 | S (185°) | 99584 | 101732 | 26.3°C | 59.8% | 17.9°C | 4050ft (1234m) | 12.8v | 31 |
| 7428 | 14 Apr 18:13:02 | 15 | 18.1 mph | 22 | S (186°) | 99572 | 101720 | 26.3°C | 59.9% | 17.9°C | 4039ft (1231m) | 12.79v | 31 |
| 7427 | 14 Apr 18:12:51 | 12 | 12.4 mph | 14 | SW (215°) | 99580 | 101728 | 26.3°C | 60% | 17.9°C | 4028ft (1228m) | 12.8v | 31 |
| 7426 | 14 Apr 18:12:39 | 10 | 11.3 mph | 13 | SSW (198°) | 99583 | 101731 | 26.3°C | 59.8% | 17.9°C | 4050ft (1234m) | 12.81v | 31 |
| 7425 | 14 Apr 18:12:28 | 10 | 11.1 mph | 15 | SSW (203°) | 99583 | 101731 | 26.3°C | 59.8% | 17.9°C | 4050ft (1234m) | 12.81v | 31 |
| 7424 | 14 Apr 18:12:17 | 12 | 14.4 mph | 17 | S (183°) | 99580 | 101728 | 26.3°C | 59.8% | 17.9°C | 4050ft (1234m) | 12.8v | 31 |
| 7423 | 14 Apr 18:12:06 | 9 | 11.4 mph | 15 | SSW (193°) | 99587 | 101735 | 26.3°C | 59.8% | 17.9°C | 4050ft (1234m) | 12.8v | 31 |
| 7422 | 14 Apr 18:11:54 | 9 | 13.1 mph | 16 | SSW (195°) | 99584 | 101732 | 26.3°C | 59.8% | 17.9°C | 4050ft (1234m) | 12.8v | 31 |
| 7421 | 14 Apr 18:11:43 | 9 | 9.5 mph | 10 | S (190°) | 99582 | 101730 | 26.3°C | 59.9% | 17.9°C | 4039ft (1231m) | 12.79v | 31 |
| 7420 | 14 Apr 18:11:32 | 10 | 11.4 mph | 13 | SSW (207°) | 99587 | 101735 | 26.3°C | 60% | 17.9°C | 4028ft (1228m) | 12.79v | 31 |
| 7419 | 14 Apr 18:11:21 | 12 | 12.5 mph | 16 | SSW (205°) | 99582 | 101730 | 26.3°C | 60% | 17.9°C | 4028ft (1228m) | 12.8v | 31 |
| 7418 | 14 Apr 18:11:09 | 10 | 10.3 mph | 11 | SSW (202°) | 99582 | 101730 | 26.3°C | 60.1% | 17.9°C | 4017ft (1224m) | 12.8v | 31 |
| 7417 | 14 Apr 18:10:58 | 10 | 11.2 mph | 14 | SSW (210°) | 99584 | 101732 | 26.3°C | 59.9% | 17.9°C | 4039ft (1231m) | 12.81v | 31 |
| 7416 | 14 Apr 18:10:47 | 14 | 15.8 mph | 18 | S (189°) | 99587 | 101735 | 26.3°C | 60% | 17.9°C | 4028ft (1228m) | 12.79v | 31 |
| 7415 | 14 Apr 18:10:36 | 14 | 16.4 mph | 20 | S (191°) | 99581 | 101729 | 26.3°C | 59.8% | 17.9°C | 4050ft (1234m) | 12.81v | 31 |
| 7414 | 14 Apr 18:10:24 | 11 | 16.5 mph | 21 | SSW (197°) | 99579 | 101727 | 26.3°C | 59.9% | 17.9°C | 4039ft (1231m) | 12.8v | 31 |
| 7413 | 14 Apr 18:10:13 | 10 | 10.8 mph | 12 | S (190°) | 99585 | 101733 | 26.3°C | 59.8% | 17.9°C | 4050ft (1234m) | 12.79v | 31 |
| 7412 | 14 Apr 18:10:02 | 11 | 14.9 mph | 18 | S (189°) | 99578 | 101726 | 26.3°C | 59.8% | 17.9°C | 4050ft (1234m) | 12.8v | 31 |
| 7411 | 14 Apr 18:09:51 | 11 | 12.8 mph | 17 | SSW (194°) | 99586 | 101734 | 26.3°C | 59.8% | 17.9°C | 4050ft (1234m) | 12.81v | 31 |
| 7410 | 14 Apr 18:09:39 | 13 | 15.8 mph | 19 | S (186°) | 99582 | 101730 | 26.3°C | 59.8% | 17.9°C | 4050ft (1234m) | 12.8v | 31 |
| 7409 | 14 Apr 18:09:28 | 15 | 17.3 mph | 19 | S (190°) | 99581 | 101729 | 26.4°C | 59.7% | 17.9°C | 4063ft (1238m) | 12.81v | 31 |
| 7408 | 14 Apr 18:09:17 | 11 | 13.2 mph | 17 | SSW (196°) | 99582 | 101730 | 26.4°C | 59.7% | 17.9°C | 4063ft (1238m) | 12.8v | 31 |
| 7407 | 14 Apr 18:09:06 | 8 | 10.5 mph | 16 | S (188°) | 99586 | 101734 | 26.4°C | 59.8% | 18°C | 4053ft (1235m) | 12.8v | 31 |
| 7406 | 14 Apr 18:08:54 | 11 | 11.9 mph | 15 | SSW (202°) | 99578 | 101726 | 26.4°C | 59.7% | 17.9°C | 4063ft (1238m) | 12.8v | 31 |
| 7405 | 14 Apr 18:08:43 | 13 | 14.5 mph | 17 | S (186°) | 99583 | 101731 | 26.3°C | 59.7% | 17.8°C | 4061ft (1238m) | 12.79v | 31 |
| 7404 | 14 Apr 18:08:32 | 13 | 14.1 mph | 16 | SSW (200°) | 99586 | 101734 | 26.4°C | 59.7% | 17.9°C | 4063ft (1238m) | 12.79v | 31 |
| 7403 | 14 Apr 18:08:21 | 15 | 17.8 mph | 20 | SSW (196°) | 99579 | 101727 | 26.4°C | 59.7% | 17.9°C | 4063ft (1238m) | 12.79v | 31 |
| 7402 | 14 Apr 18:08:09 | 14 | 14.9 mph | 16 | SSW (193°) | 99574 | 101722 | 26.4°C | 59.6% | 17.9°C | 4074ft (1242m) | 12.8v | 31 |
| 7401 | 14 Apr 18:07:58 | 13 | 17.8 mph | 21 | S (191°) | 99581 | 101729 | 26.4°C | 59.4% | 17.8°C | 4096ft (1248m) | 12.8v | 31 |
| 7400 | 14 Apr 18:07:47 | 15 | 15.2 mph | 17 | S (191°) | 99579 | 101727 | 26.4°C | 59.4% | 17.8°C | 4096ft (1248m) | 12.8v | 31 |
| 7399 | 14 Apr 18:07:36 | 14 | 17.2 mph | 21 | SSW (192°) | 99584 | 101732 | 26.4°C | 59.4% | 17.8°C | 4096ft (1248m) | 12.78v | 31 |
| 7398 | 14 Apr 18:07:24 | 13 | 16.4 mph | 22 | S (185°) | 99580 | 101728 | 26.4°C | 59.4% | 17.8°C | 4096ft (1248m) | 12.8v | 31 |
| 7397 | 14 Apr 18:07:13 | 14 | 16.1 mph | 20 | SSW (205°) | 99585 | 101733 | 26.4°C | 59.3% | 17.8°C | 4107ft (1252m) | 12.8v | 31 |
| 7396 | 14 Apr 18:07:02 | 14 | 15.6 mph | 19 | S (190°) | 99584 | 101732 | 26.4°C | 59.5% | 17.9°C | 4085ft (1245m) | 12.77v | 31 |
| 7395 | 14 Apr 18:06:51 | 15 | 16.7 mph | 20 | S (190°) | 99560 | 101708 | 26.5°C | 59.4% | 17.9°C | 4099ft (1249m) | 12.79v | 31 |
| 7394 | 14 Apr 18:06:39 | 13 | 14.7 mph | 21 | S (187°) | 99576 | 101724 | 26.5°C | 59.4% | 17.9°C | 4099ft (1249m) | 12.8v | 31 |
| 7393 | 14 Apr 18:06:28 | 12 | 12.9 mph | 16 | SSW (196°) | 99586 | 101734 | 26.5°C | 59.3% | 17.9°C | 4110ft (1253m) | 12.81v | 31 |
| 7392 | 14 Apr 18:06:17 | 15 | 15.7 mph | 17 | SSW (193°) | 99580 | 101728 | 26.5°C | 59.1% | 17.9°C | 4132ft (1259m) | 12.81v | 31 |
| 7391 | 14 Apr 18:06:06 | 10 | 11.4 mph | 14 | SSW (204°) | 99583 | 101731 | 26.6°C | 59.2% | 18°C | 4124ft (1257m) | 12.8v | 31 |
| 7390 | 14 Apr 18:05:54 | 15 | 15 mph | 18 | SSW (200°) | 99573 | 101721 | 26.6°C | 59.2% | 18°C | 4124ft (1257m) | 12.8v | 31 |
| 7389 | 14 Apr 18:05:43 | 9 | 12 mph | 15 | S (188°) | 99585 | 101733 | 26.6°C | 58.9% | 17.9°C | 4157ft (1267m) | 12.79v | 31 |
| 7388 | 14 Apr 18:05:32 | 7 | 8.3 mph | 10 | S (188°) | 99586 | 101734 | 26.6°C | 59% | 17.9°C | 4146ft (1264m) | 12.79v | 31 |
| 7387 | 14 Apr 18:05:21 | 11 | 12.6 mph | 16 | SSW (197°) | 99585 | 101733 | 26.6°C | 58.9% | 17.9°C | 4157ft (1267m) | 12.79v | 31 |
| 7386 | 14 Apr 18:05:09 | 16 | 16.5 mph | 18 | S (188°) | 99574 | 101722 | 26.6°C | 58.8% | 17.9°C | 4168ft (1270m) | 12.8v | 31 |
| 7385 | 14 Apr 18:04:58 | 10 | 14.6 mph | 20 | S (191°) | 99583 | 101731 | 26.6°C | 58.8% | 17.9°C | 4168ft (1270m) | 12.8v | 31 |
| 7384 | 14 Apr 18:04:47 | 12 | 13.3 mph | 15 | S (189°) | 99589 | 101737 | 26.6°C | 58.8% | 17.9°C | 4168ft (1270m) | 12.8v | 31 |
| 7383 | 14 Apr 18:04:36 | 10 | 13.2 mph | 18 | S (191°) | 99580 | 101728 | 26.6°C | 58.8% | 17.9°C | 4168ft (1270m) | 12.79v | 31 |
| 7382 | 14 Apr 18:04:24 | 15 | 13 mph | 17 | SSW (207°) | 99574 | 101722 | 26.6°C | 58.8% | 17.9°C | 4168ft (1270m) | 12.8v | 31 |
| 7381 | 14 Apr 18:04:13 | 10 | 14.1 mph | 20 | S (185°) | 99577 | 101725 | 26.7°C | 58.5% | 17.9°C | 4204ft (1281m) | 12.8v | 31 |
| 7380 | 14 Apr 18:04:02 | 13 | 13.7 mph | 18 | SSW (196°) | 99580 | 101728 | 26.7°C | 58.7% | 17.9°C | 4181ft (1274m) | 12.78v | 31 |
| 7379 | 14 Apr 18:03:51 | 9 | 10.8 mph | 15 | SSW (210°) | 99584 | 101732 | 26.7°C | 58.6% | 17.9°C | 4193ft (1278m) | 12.8v | 31 |
| 7378 | 14 Apr 18:03:39 | 10 | 11 mph | 13 | SSW (192°) | 99584 | 101732 | 26.7°C | 58.6% | 17.9°C | 4193ft (1278m) | 12.78v | 31 |
| 7377 | 14 Apr 18:03:28 | 10 | 12.4 mph | 18 | S (184°) | 99589 | 101737 | 26.7°C | 58.6% | 17.9°C | 4193ft (1278m) | 12.8v | 31 |
| 7376 | 14 Apr 18:03:17 | 8 | 12.6 mph | 17 | SSW (197°) | 99581 | 101729 | 26.7°C | 58.3% | 17.8°C | 4226ft (1288m) | 12.8v | 31 |
| 7375 | 14 Apr 18:03:06 | 11 | 12.6 mph | 17 | S (184°) | 99582 | 101730 | 26.7°C | 58.4% | 17.9°C | 4215ft (1285m) | 12.79v | 31 |
| 7374 | 14 Apr 18:02:54 | 11 | 12.4 mph | 14 | SSW (197°) | 99586 | 101734 | 26.8°C | 58.3% | 17.9°C | 4229ft (1289m) | 12.79v | 31 |
| 7373 | 14 Apr 18:02:43 | 11 | 12 mph | 14 | S (184°) | 99578 | 101726 | 26.8°C | 58.3% | 17.9°C | 4229ft (1289m) | 12.8v | 31 |
| 7372 | 14 Apr 18:02:32 | 12 | 14.4 mph | 19 | SSW (193°) | 99583 | 101731 | 26.8°C | 58.2% | 17.9°C | 4240ft (1292m) | 12.79v | 31 |
| 7371 | 14 Apr 18:02:21 | 9 | 10.4 mph | 16 | SSW (197°) | 99585 | 101733 | 26.8°C | 58.3% | 17.9°C | 4229ft (1289m) | 12.78v | 31 |
| 7370 | 14 Apr 18:02:09 | 12 | 12.8 mph | 14 | S (185°) | 99580 | 101728 | 26.8°C | 58.2% | 17.9°C | 4240ft (1292m) | 12.79v | 31 |
| 7369 | 14 Apr 18:01:58 | 14 | 15.7 mph | 18 | S (189°) | 99588 | 101736 | 26.8°C | 58.1% | 17.9°C | 4251ft (1296m) | 12.79v | 31 |
| 7368 | 14 Apr 18:01:47 | 10 | 11.4 mph | 14 | S (179°) | 99589 | 101737 | 26.8°C | 58.1% | 17.9°C | 4251ft (1296m) | 12.8v | 31 |
| 7367 | 14 Apr 18:01:36 | 12 | 12.5 mph | 14 | SSW (194°) | 99587 | 101735 | 26.8°C | 57.9% | 17.8°C | 4274ft (1303m) | 12.79v | 31 |
| 7366 | 14 Apr 18:01:24 | 8 | 10.8 mph | 13 | SSW (194°) | 99586 | 101734 | 26.8°C | 58% | 17.8°C | 4262ft (1299m) | 12.79v | 31 |
| 7365 | 14 Apr 18:01:13 | 9 | 12.7 mph | 16 | SSW (212°) | 99588 | 101736 | 26.8°C | 58% | 17.8°C | 4262ft (1299m) | 12.79v | 31 |
| 7364 | 14 Apr 18:01:02 | 14 | 16.6 mph | 19 | SSW (196°) | 99582 | 101730 | 26.8°C | 57.9% | 17.8°C | 4274ft (1303m) | 12.79v | 31 |
| 7363 | 14 Apr 18:00:51 | 13 | 14.9 mph | 18 | S (186°) | 99587 | 101735 | 26.8°C | 58% | 17.8°C | 4262ft (1299m) | 12.79v | 31 |
| 7362 | 14 Apr 18:00:39 | 11 | 13.3 mph | 16 | SSW (194°) | 99591 | 101739 | 26.8°C | 57.9% | 17.8°C | 4274ft (1303m) | 12.79v | 31 |
| 7361 | 14 Apr 18:00:28 | 16 | 18.1 mph | 20 | SSW (195°) | 99590 | 101738 | 26.9°C | 57.8% | 17.9°C | 4288ft (1307m) | 12.8v | 31 |
| 7360 | 14 Apr 18:00:17 | 14 | 16.4 mph | 21 | S (189°) | 99583 | 101731 | 26.9°C | 57.7% | 17.9°C | 4299ft (1310m) | 12.8v | 31 |
| 7359 | 14 Apr 18:00:06 | 13 | 14.8 mph | 18 | S (188°) | 99582 | 101730 | 26.9°C | 57.6% | 17.8°C | 4310ft (1314m) | 12.81v | 31 |
| 7358 | 14 Apr 17:59:54 | 16 | 17.4 mph | 20 | S (184°) | 99586 | 101734 | 26.9°C | 57.5% | 17.8°C | 4321ft (1317m) | 12.79v | 31 |
| 7357 | 14 Apr 17:59:43 | 10 | 13.3 mph | 17 | S (186°) | 99575 | 101723 | 26.9°C | 57.6% | 17.8°C | 4310ft (1314m) | 12.8v | 31 |
| 7356 | 14 Apr 17:59:32 | 12 | 14 mph | 19 | SSW (196°) | 99579 | 101727 | 26.9°C | 57.6% | 17.8°C | 4310ft (1314m) | 12.8v | 31 |
| 7355 | 14 Apr 17:59:21 | 14 | 17.6 mph | 20 | SSW (199°) | 99580 | 101728 | 27°C | 57.5% | 17.9°C | 4324ft (1318m) | 12.79v | 31 |
| 7354 | 14 Apr 17:59:09 | 16 | 18.1 mph | 21 | SSW (193°) | 99578 | 101726 | 27°C | 57.6% | 17.9°C | 4313ft (1315m) | 12.79v | 31 |
| 7353 | 14 Apr 17:58:58 | 12 | 12.5 mph | 14 | S (189°) | 99573 | 101721 | 27°C | 57.6% | 17.9°C | 4313ft (1315m) | 12.79v | 31 |
| 7352 | 14 Apr 17:58:47 | 12 | 14.1 mph | 18 | SSW (193°) | 99582 | 101730 | 27°C | 57.6% | 17.9°C | 4313ft (1315m) | 12.8v | 31 |
| 7351 | 14 Apr 17:58:36 | 10 | 12.4 mph | 19 | S (189°) | 99580 | 101728 | 27°C | 57.7% | 17.9°C | 4302ft (1311m) | 12.8v | 31 |
| 7350 | 14 Apr 17:58:24 | 10 | 11.6 mph | 15 | S (190°) | 99579 | 101727 | 27°C | 57.7% | 17.9°C | 4302ft (1311m) | 12.79v | 31 |
| 7349 | 14 Apr 17:58:13 | 10 | 13 mph | 16 | S (188°) | 99586 | 101734 | 27°C | 57.7% | 17.9°C | 4302ft (1311m) | 12.8v | 31 |
| 7348 | 14 Apr 17:58:02 | 11 | 11.8 mph | 14 | SSW (202°) | 99582 | 101730 | 27°C | 57.7% | 17.9°C | 4302ft (1311m) | 12.79v | 31 |
| 7347 | 14 Apr 17:57:51 | 9 | 10.8 mph | 12 | S (190°) | 99582 | 101730 | 27°C | 57.9% | 18°C | 4279ft (1304m) | 12.8v | 31 |
| 7346 | 14 Apr 17:57:39 | 11 | 12.5 mph | 14 | S (182°) | 99586 | 101734 | 27°C | 57.8% | 18°C | 4290ft (1308m) | 12.78v | 31 |
| 7345 | 14 Apr 17:57:28 | 8 | 11 mph | 15 | SSW (195°) | 99585 | 101733 | 27°C | 57.8% | 18°C | 4290ft (1308m) | 12.8v | 31 |
| 7344 | 14 Apr 17:57:17 | 7 | 7.5 mph | 10 | S (185°) | 99586 | 101734 | 27°C | 57.9% | 18°C | 4279ft (1304m) | 12.79v | 31 |
| 7343 | 14 Apr 17:57:06 | 8 | 9.3 mph | 12 | SSW (196°) | 99587 | 101735 | 27°C | 57.8% | 18°C | 4290ft (1308m) | 12.81v | 31 |
| 7342 | 14 Apr 17:56:54 | 10 | 11.5 mph | 13 | S (183°) | 99583 | 101731 | 27°C | 57.7% | 17.9°C | 4302ft (1311m) | 12.8v | 31 |
| 7341 | 14 Apr 17:56:43 | 7 | 8.5 mph | 11 | S (188°) | 99581 | 101729 | 27°C | 57.8% | 18°C | 4290ft (1308m) | 12.8v | 31 |
| 7340 | 14 Apr 17:56:32 | 9 | 10.6 mph | 13 | SSW (194°) | 99589 | 101737 | 27°C | 57.6% | 17.9°C | 4313ft (1315m) | 12.8v | 31 |
| 7339 | 14 Apr 17:56:21 | 13 | 16 mph | 19 | S (189°) | 99584 | 101732 | 27°C | 57.6% | 17.9°C | 4313ft (1315m) | 12.78v | 31 |
| 7338 | 14 Apr 17:56:09 | 12 | 13.9 mph | 16 | S (189°) | 99574 | 101722 | 27.1°C | 57.6% | 18°C | 4316ft (1316m) | 12.8v | 31 |
| 7337 | 14 Apr 17:55:58 | 11 | 12.3 mph | 14 | SSW (197°) | 99580 | 101728 | 27.1°C | 57.6% | 18°C | 4316ft (1316m) | 12.79v | 31 |
| 7336 | 14 Apr 17:55:47 | 11 | 11 mph | 14 | SSW (195°) | 99588 | 101736 | 27.1°C | 57.7% | 18°C | 4304ft (1312m) | 12.8v | 31 |
| 7335 | 14 Apr 17:55:36 | 10 | 12 mph | 14 | SSW (197°) | 99585 | 101733 | 27.1°C | 57.4% | 18°C | 4338ft (1322m) | 12.81v | 31 |
| 7334 | 14 Apr 17:55:24 | 10 | 12.5 mph | 14 | SSW (196°) | 99580 | 101728 | 27.1°C | 57.5% | 18°C | 4327ft (1319m) | 12.81v | 31 |
| 7333 | 14 Apr 17:55:13 | 14 | 14.4 mph | 16 | S (188°) | 99578 | 101726 | 27°C | 57.5% | 17.9°C | 4324ft (1318m) | 12.8v | 31 |
| 7332 | 14 Apr 17:55:02 | 11 | 15.5 mph | 18 | SSW (193°) | 99582 | 101730 | 27°C | 57.5% | 17.9°C | 4324ft (1318m) | 12.81v | 31 |
| 7331 | 14 Apr 17:54:51 | 10 | 13.6 mph | 18 | SSW (203°) | 99585 | 101733 | 27.1°C | 57.5% | 18°C | 4327ft (1319m) | 12.8v | 31 |
| 7330 | 14 Apr 17:54:39 | 12 | 13.6 mph | 15 | SSW (195°) | 99569 | 101717 | 27.1°C | 57.6% | 18°C | 4316ft (1316m) | 12.8v | 31 |
| 7329 | 14 Apr 17:54:28 | 13 | 14.9 mph | 17 | S (190°) | 99581 | 101729 | 27.1°C | 57.5% | 18°C | 4327ft (1319m) | 12.81v | 31 |
| 7328 | 14 Apr 17:54:17 | 16 | 16.8 mph | 19 | SSW (195°) | 99582 | 101730 | 27.1°C | 57.5% | 18°C | 4327ft (1319m) | 12.81v | 31 |
| 7327 | 14 Apr 17:54:06 | 9 | 12.6 mph | 16 | S (191°) | 99586 | 101734 | 27.1°C | 57.5% | 18°C | 4327ft (1319m) | 12.81v | 31 |
| 7326 | 14 Apr 17:53:54 | 11 | 11.6 mph | 15 | SSW (194°) | 99575 | 101723 | 27.1°C | 57.5% | 18°C | 4327ft (1319m) | 12.81v | 31 |
| 7325 | 14 Apr 17:53:43 | 13 | 14.9 mph | 18 | S (191°) | 99576 | 101724 | 27.1°C | 57.4% | 18°C | 4338ft (1322m) | 12.8v | 31 |
| 7324 | 14 Apr 17:53:32 | 11 | 13.6 mph | 17 | SSW (192°) | 99564 | 101712 | 27.1°C | 57.3% | 17.9°C | 4350ft (1326m) | 12.79v | 31 |
| 7323 | 14 Apr 17:53:21 | 13 | 14.6 mph | 19 | S (181°) | 99588 | 101736 | 27.1°C | 57.4% | 18°C | 4338ft (1322m) | 12.8v | 31 |
| 7322 | 14 Apr 17:53:09 | 10 | 12.8 mph | 18 | SSW (192°) | 99571 | 101719 | 27.1°C | 57.5% | 18°C | 4327ft (1319m) | 12.79v | 31 |
| 7321 | 14 Apr 17:52:58 | 12 | 13.2 mph | 16 | S (189°) | 99575 | 101723 | 27.1°C | 57.5% | 18°C | 4327ft (1319m) | 12.8v | 31 |
| 7320 | 14 Apr 17:52:47 | 11 | 12.5 mph | 15 | S (185°) | 99588 | 101736 | 27.1°C | 57.2% | 17.9°C | 4361ft (1329m) | 12.8v | 31 |
| 7319 | 14 Apr 17:52:36 | 14 | 16.4 mph | 18 | S (182°) | 99579 | 101727 | 27.1°C | 57.3% | 17.9°C | 4350ft (1326m) | 12.81v | 31 |
| 7318 | 14 Apr 17:52:24 | 10 | 12.7 mph | 15 | S (190°) | 99570 | 101718 | 27.2°C | 57.3% | 18°C | 4353ft (1327m) | 12.81v | 31 |
| 7317 | 14 Apr 17:52:13 | 8 | 10.5 mph | 13 | S (189°) | 99581 | 101729 | 27.2°C | 57.3% | 18°C | 4353ft (1327m) | 12.82v | 31 |
| 7316 | 14 Apr 17:52:02 | 13 | 14.6 mph | 18 | SSW (205°) | 99580 | 101728 | 27.1°C | 57.2% | 17.9°C | 4361ft (1329m) | 12.8v | 31 |
| 7315 | 14 Apr 17:51:51 | 14 | 15.8 mph | 19 | S (191°) | 99574 | 101722 | 27.2°C | 57.1% | 18°C | 4375ft (1334m) | 12.8v | 31 |
| 7314 | 14 Apr 17:51:39 | 15 | 14.1 mph | 18 | SSW (197°) | 99575 | 101723 | 27.2°C | 57.1% | 18°C | 4375ft (1334m) | 12.8v | 31 |
| 7313 | 14 Apr 17:51:28 | 12 | 13.2 mph | 16 | S (182°) | 99578 | 101726 | 27.2°C | 57.1% | 18°C | 4375ft (1334m) | 12.81v | 31 |
| 7312 | 14 Apr 17:51:17 | 10 | 10.4 mph | 13 | S (191°) | 99579 | 101727 | 27.2°C | 57.3% | 18°C | 4353ft (1327m) | 12.8v | 31 |
| 7311 | 14 Apr 17:51:06 | 7 | 9 mph | 12 | S (188°) | 99581 | 101729 | 27.2°C | 57.3% | 18°C | 4353ft (1327m) | 12.82v | 31 |
| 7310 | 14 Apr 17:50:54 | 9 | 9.3 mph | 11 | SSW (192°) | 99577 | 101725 | 27.2°C | 57.2% | 18°C | 4364ft (1330m) | 12.82v | 31 |
| 7309 | 14 Apr 17:50:43 | 12 | 12.6 mph | 14 | SSW (194°) | 99574 | 101722 | 27.2°C | 57.1% | 18°C | 4375ft (1334m) | 12.81v | 31 |
| 7308 | 14 Apr 17:50:32 | 10 | 10.9 mph | 13 | S (188°) | 99572 | 101720 | 27.2°C | 57.1% | 18°C | 4375ft (1334m) | 12.81v | 31 |
| 7307 | 14 Apr 17:50:21 | 9 | 10 mph | 13 | S (190°) | 99579 | 101727 | 27.2°C | 57% | 17.9°C | 4387ft (1337m) | 12.81v | 31 |
| 7306 | 14 Apr 17:50:09 | 10 | 10.7 mph | 12 | S (190°) | 99575 | 101723 | 27.2°C | 57.1% | 18°C | 4375ft (1334m) | 12.8v | 31 |
| 7305 | 14 Apr 17:49:58 | 8 | 9.5 mph | 12 | SSW (198°) | 99572 | 101720 | 27.2°C | 57.1% | 18°C | 4375ft (1334m) | 12.8v | 31 |
| 7304 | 14 Apr 17:49:47 | 11 | 11.9 mph | 13 | SSW (196°) | 99577 | 101725 | 27.2°C | 57.1% | 18°C | 4375ft (1334m) | 12.8v | 31 |
| 7303 | 14 Apr 17:49:36 | 10 | 12.6 mph | 15 | SSW (203°) | 99581 | 101729 | 27.2°C | 57% | 17.9°C | 4387ft (1337m) | 12.82v | 31 |
| 7302 | 14 Apr 17:49:24 | 11 | 12.4 mph | 14 | S (188°) | 99574 | 101722 | 27.2°C | 57% | 17.9°C | 4387ft (1337m) | 12.82v | 31 |
| 7301 | 14 Apr 17:49:13 | 8 | 9.4 mph | 13 | S (190°) | 99575 | 101723 | 27.3°C | 56.7% | 17.9°C | 4424ft (1348m) | 12.82v | 31 |
| 7300 | 14 Apr 17:49:02 | 8 | 10.3 mph | 13 | S (188°) | 99576 | 101724 | 27.3°C | 57% | 18°C | 4390ft (1338m) | 12.82v | 31 |
| 7299 | 14 Apr 17:48:51 | 10 | 13.1 mph | 16 | S (181°) | 99579 | 101727 | 27.3°C | 56.9% | 18°C | 4401ft (1341m) | 12.82v | 31 |
| 7298 | 14 Apr 17:48:39 | 10 | 12.8 mph | 15 | S (184°) | 99569 | 101717 | 27.3°C | 56.9% | 18°C | 4401ft (1341m) | 12.8v | 31 |
| 7297 | 14 Apr 17:48:28 | 9 | 10 mph | 13 | SSW (194°) | 99577 | 101725 | 27.3°C | 56.9% | 18°C | 4401ft (1341m) | 12.79v | 31 |
| 7296 | 14 Apr 17:48:17 | 8 | 9.5 mph | 12 | S (189°) | 99565 | 101713 | 27.3°C | 56.9% | 18°C | 4401ft (1341m) | 12.81v | 31 |
| 7295 | 14 Apr 17:48:06 | 7 | 8.8 mph | 11 | SSW (207°) | 99572 | 101720 | 27.3°C | 57% | 18°C | 4390ft (1338m) | 12.82v | 31 |
| 7294 | 14 Apr 17:47:54 | 7 | 9.9 mph | 13 | SSW (197°) | 99572 | 101720 | 27.3°C | 56.9% | 18°C | 4401ft (1341m) | 12.82v | 31 |
| 7293 | 14 Apr 17:47:43 | 12 | 12.4 mph | 14 | SSW (200°) | 99572 | 101720 | 27.3°C | 56.9% | 18°C | 4401ft (1341m) | 12.82v | 31 |
| 7292 | 14 Apr 17:47:32 | 12 | 13.1 mph | 15 | SSW (194°) | 99569 | 101717 | 27.3°C | 57% | 18°C | 4390ft (1338m) | 12.8v | 31 |
| 7291 | 14 Apr 17:47:21 | 11 | 11.9 mph | 15 | SSW (200°) | 99569 | 101717 | 27.3°C | 56.9% | 18°C | 4401ft (1341m) | 12.84v | 31 |
| 7290 | 14 Apr 17:47:09 | 10 | 11.3 mph | 14 | SSW (193°) | 99577 | 101725 | 27.3°C | 57% | 18°C | 4390ft (1338m) | 12.81v | 31 |
| 7289 | 14 Apr 17:46:58 | 13 | 13.9 mph | 16 | S (184°) | 99571 | 101719 | 27.3°C | 56.8% | 18°C | 4412ft (1345m) | 12.81v | 31 |
| 7288 | 14 Apr 17:46:47 | 10 | 12.8 mph | 16 | S (184°) | 99570 | 101718 | 27.3°C | 56.9% | 18°C | 4401ft (1341m) | 12.82v | 31 |
| 7287 | 14 Apr 17:46:36 | 11 | 11.1 mph | 12 | S (188°) | 99566 | 101714 | 27.3°C | 56.9% | 18°C | 4401ft (1341m) | 12.82v | 31 |
| 7286 | 14 Apr 17:46:24 | 11 | 11.2 mph | 12 | SSW (195°) | 99571 | 101719 | 27.3°C | 56.9% | 18°C | 4401ft (1341m) | 12.83v | 31 |
| 7285 | 14 Apr 17:46:13 | 11 | 11.3 mph | 12 | S (191°) | 99568 | 101716 | 27.3°C | 57% | 18°C | 4390ft (1338m) | 12.83v | 31 |
| 7284 | 14 Apr 17:46:02 | 8 | 9.5 mph | 13 | SSW (192°) | 99575 | 101723 | 27.3°C | 57% | 18°C | 4390ft (1338m) | 12.82v | 31 |
| 7283 | 14 Apr 17:45:51 | 9 | 11.7 mph | 15 | SSW (196°) | 99567 | 101715 | 27.3°C | 56.9% | 18°C | 4401ft (1341m) | 12.82v | 31 |
| 7282 | 14 Apr 17:45:39 | 12 | 12.4 mph | 13 | SSW (193°) | 99570 | 101718 | 27.3°C | 57.1% | 18.1°C | 4378ft (1334m) | 12.82v | 31 |
| 7281 | 14 Apr 17:45:28 | 12 | 13.3 mph | 16 | SSW (206°) | 99568 | 101716 | 27.3°C | 56.9% | 18°C | 4401ft (1341m) | 12.82v | 31 |
| 7280 | 14 Apr 17:45:17 | 8 | 10.6 mph | 13 | SSW (194°) | 99567 | 101715 | 27.3°C | 57% | 18°C | 4390ft (1338m) | 12.81v | 31 |
| 7279 | 14 Apr 17:45:06 | 10 | 12 mph | 14 | S (184°) | 99568 | 101716 | 27.3°C | 57% | 18°C | 4390ft (1338m) | 12.84v | 31 |
| 7278 | 14 Apr 17:44:54 | 8 | 10.3 mph | 16 | SSW (199°) | 99569 | 101717 | 27.3°C | 57.1% | 18.1°C | 4378ft (1334m) | 12.85v | 31 |
| 7277 | 14 Apr 17:44:43 | 10 | 13 mph | 15 | S (188°) | 99568 | 101716 | 27.3°C | 57% | 18°C | 4390ft (1338m) | 12.84v | 31 |
| 7276 | 14 Apr 17:44:32 | 12 | 12.7 mph | 15 | S (191°) | 99564 | 101712 | 27.3°C | 56.9% | 18°C | 4401ft (1341m) | 12.83v | 31 |
| 7275 | 14 Apr 17:44:21 | 14 | 15.7 mph | 17 | S (183°) | 99563 | 101711 | 27.3°C | 56.8% | 18°C | 4412ft (1345m) | 12.82v | 31 |
| 7274 | 14 Apr 17:44:09 | 11 | 12.8 mph | 15 | S (191°) | 99559 | 101707 | 27.3°C | 56.7% | 17.9°C | 4424ft (1348m) | 12.83v | 31 |
| 7273 | 14 Apr 17:43:58 | 9 | 11.6 mph | 15 | S (190°) | 99569 | 101717 | 27.3°C | 56.8% | 18°C | 4412ft (1345m) | 12.81v | 31 |
| 7272 | 14 Apr 17:43:47 | 9 | 11 mph | 13 | SSW (204°) | 99562 | 101710 | 27.3°C | 56.9% | 18°C | 4401ft (1341m) | 12.83v | 31 |
| 7271 | 14 Apr 17:43:36 | 10 | 10.7 mph | 14 | S (187°) | 99571 | 101719 | 27.3°C | 56.9% | 18°C | 4401ft (1341m) | 12.82v | 31 |
| 7270 | 14 Apr 17:43:24 | 11 | 11.9 mph | 14 | SSW (192°) | 99566 | 101714 | 27.3°C | 56.8% | 18°C | 4412ft (1345m) | 12.84v | 31 |
| 7269 | 14 Apr 17:43:13 | 9 | 9.5 mph | 11 | S (181°) | 99566 | 101714 | 27.3°C | 56.8% | 18°C | 4412ft (1345m) | 12.84v | 31 |
| 7268 | 14 Apr 17:43:02 | 6 | 9.2 mph | 14 | S (181°) | 99567 | 101715 | 27.3°C | 57% | 18°C | 4390ft (1338m) | 12.84v | 31 |
| 7267 | 14 Apr 17:42:51 | 11 | 13.2 mph | 17 | SSW (196°) | 99558 | 101705 | 27.3°C | 57% | 18°C | 4390ft (1338m) | 12.83v | 31 |
| 7266 | 14 Apr 17:42:39 | 11 | 14.4 mph | 16 | S (187°) | 99561 | 101709 | 27.3°C | 56.9% | 18°C | 4401ft (1341m) | 12.82v | 31 |
| 7265 | 14 Apr 17:42:28 | 10 | 12.6 mph | 16 | S (191°) | 99559 | 101707 | 27.3°C | 57% | 18°C | 4390ft (1338m) | 12.83v | 31 |
| 7264 | 14 Apr 17:42:17 | 11 | 12.4 mph | 15 | SSW (192°) | 99564 | 101712 | 27.3°C | 56.8% | 18°C | 4412ft (1345m) | 12.83v | 31 |
| 7263 | 14 Apr 17:42:06 | 10 | 10.7 mph | 13 | S (189°) | 99562 | 101710 | 27.3°C | 56.8% | 18°C | 4412ft (1345m) | 12.83v | 31 |
| 7262 | 14 Apr 17:41:54 | 13 | 14.4 mph | 16 | SSW (201°) | 99566 | 101714 | 27.4°C | 56.8% | 18.1°C | 4415ft (1346m) | 12.84v | 31 |
| 7261 | 14 Apr 17:41:43 | 9 | 12.7 mph | 15 | SSW (210°) | 99565 | 101713 | 27.4°C | 56.8% | 18.1°C | 4415ft (1346m) | 12.84v | 31 |
| 7260 | 14 Apr 17:41:32 | 16 | 16.4 mph | 17 | S (191°) | 99566 | 101714 | 27.4°C | 56.8% | 18.1°C | 4415ft (1346m) | 12.83v | 31 |
| 7259 | 14 Apr 17:41:21 | 9 | 13 mph | 18 | SSW (196°) | 99561 | 101709 | 27.4°C | 56.7% | 18°C | 4427ft (1349m) | 12.84v | 31 |
| 7258 | 14 Apr 17:41:09 | 12 | 14.1 mph | 16 | S (186°) | 99557 | 101704 | 27.4°C | 56.6% | 18°C | 4438ft (1353m) | 12.84v | 31 |
| 7257 | 14 Apr 17:40:58 | 13 | 14.5 mph | 16 | S (177°) | 99555 | 101702 | 27.4°C | 56.6% | 18°C | 4438ft (1353m) | 12.83v | 31 |
| 7256 | 14 Apr 17:40:47 | 10 | 10.5 mph | 16 | SSW (192°) | 99570 | 101718 | 27.4°C | 56.9% | 18.1°C | 4404ft (1342m) | 12.83v | 31 |
| 7255 | 14 Apr 17:40:36 | 11 | 12.5 mph | 16 | S (173°) | 99546 | 101693 | 27.4°C | 57% | 18.1°C | 4392ft (1339m) | 12.83v | 31 |
| 7254 | 14 Apr 17:40:24 | 9 | 12.6 mph | 16 | SSW (201°) | 99562 | 101710 | 27.4°C | 56.8% | 18.1°C | 4415ft (1346m) | 12.83v | 31 |
| 7253 | 14 Apr 17:40:13 | 8 | 12.3 mph | 15 | SSW (199°) | 99564 | 101712 | 27.5°C | 56.8% | 18.2°C | 4418ft (1347m) | 12.85v | 31 |
| 7252 | 14 Apr 17:40:02 | 6 | 11.2 mph | 17 | SSW (198°) | 99564 | 101712 | 27.5°C | 56.7% | 18.1°C | 4430ft (1350m) | 12.85v | 31 |
| 7251 | 14 Apr 17:39:51 | 6 | 7 mph | 9 | SSW (205°) | 99567 | 101715 | 27.4°C | 56.8% | 18.1°C | 4415ft (1346m) | 12.83v | 31 |
| 7250 | 14 Apr 17:39:39 | 8 | 8.8 mph | 11 | S (190°) | 99563 | 101711 | 27.4°C | 56.9% | 18.1°C | 4404ft (1342m) | 12.85v | 31 |
| 7249 | 14 Apr 17:39:28 | 12 | 13.8 mph | 17 | S (186°) | 99559 | 101707 | 27.4°C | 56.7% | 18°C | 4427ft (1349m) | 12.83v | 31 |
| 7248 | 14 Apr 17:39:17 | 8 | 9.2 mph | 11 | S (184°) | 99558 | 101705 | 27.4°C | 56.8% | 18.1°C | 4415ft (1346m) | 12.84v | 31 |
| 7247 | 14 Apr 17:39:06 | 10 | 13.6 mph | 16 | S (184°) | 99560 | 101708 | 27.4°C | 56.7% | 18°C | 4427ft (1349m) | 12.86v | 31 |
| 7246 | 14 Apr 17:38:54 | 14 | 14.8 mph | 18 | SSW (199°) | 99556 | 101703 | 27.4°C | 56.8% | 18.1°C | 4415ft (1346m) | 12.84v | 31 |
| 7245 | 14 Apr 17:38:43 | 13 | 14.5 mph | 15 | SSW (200°) | 99555 | 101702 | 27.5°C | 56.6% | 18.1°C | 4441ft (1354m) | 12.86v | 31 |
| 7244 | 14 Apr 17:38:32 | 11 | 13.4 mph | 17 | SSW (195°) | 99558 | 101705 | 27.5°C | 56.6% | 18.1°C | 4441ft (1354m) | 12.85v | 31 |
| 7243 | 14 Apr 17:38:21 | 11 | 12.7 mph | 15 | SSW (198°) | 99562 | 101710 | 27.5°C | 56.6% | 18.1°C | 4441ft (1354m) | 12.85v | 31 |
| 7242 | 14 Apr 17:38:09 | 13 | 13.1 mph | 15 | SSW (205°) | 99560 | 101708 | 27.5°C | 56.6% | 18.1°C | 4441ft (1354m) | 12.84v | 31 |
| 7241 | 14 Apr 17:37:58 | 9 | 11.1 mph | 15 | SSW (200°) | 99563 | 101711 | 27.5°C | 56.5% | 18.1°C | 4453ft (1357m) | 12.86v | 31 |
| 7240 | 14 Apr 17:37:47 | 9 | 11.2 mph | 14 | SSW (199°) | 99561 | 101709 | 27.5°C | 56.5% | 18.1°C | 4453ft (1357m) | 12.84v | 31 |
| 7239 | 14 Apr 17:37:36 | 8 | 10.4 mph | 14 | SSW (194°) | 99556 | 101703 | 27.5°C | 56.6% | 18.1°C | 4441ft (1354m) | 12.84v | 31 |
| 7238 | 14 Apr 17:37:24 | 11 | 11.7 mph | 13 | SSW (200°) | 99559 | 101707 | 27.5°C | 56.6% | 18.1°C | 4441ft (1354m) | 12.85v | 31 |
| 7237 | 14 Apr 17:37:13 | 12 | 12.4 mph | 13 | SSW (196°) | 99561 | 101709 | 27.5°C | 56.5% | 18.1°C | 4453ft (1357m) | 12.87v | 31 |
| 7236 | 14 Apr 17:37:02 | 12 | 12.3 mph | 15 | SSW (197°) | 99560 | 101708 | 27.5°C | 56.5% | 18.1°C | 4453ft (1357m) | 12.86v | 31 |
| 7235 | 14 Apr 17:36:51 | 12 | 13.5 mph | 16 | SSW (203°) | 99554 | 101701 | 27.5°C | 56.5% | 18.1°C | 4453ft (1357m) | 12.85v | 31 |
| 7234 | 14 Apr 17:36:39 | 13 | 15.2 mph | 17 | S (185°) | 99559 | 101707 | 27.6°C | 56.6% | 18.2°C | 4444ft (1355m) | 12.85v | 31 |
| 7233 | 14 Apr 17:36:28 | 9 | 10.1 mph | 12 | SSW (192°) | 99553 | 101700 | 27.6°C | 56.3% | 18.1°C | 4479ft (1365m) | 12.86v | 31 |
| 7232 | 14 Apr 17:36:17 | 9 | 10.3 mph | 12 | S (183°) | 99561 | 101709 | 27.5°C | 56.4% | 18.1°C | 4464ft (1361m) | 12.85v | 31 |
| 7231 | 14 Apr 17:36:06 | 12 | 12.5 mph | 14 | S (191°) | 99558 | 101705 | 27.6°C | 56.3% | 18.1°C | 4479ft (1365m) | 12.86v | 31 |
| 7230 | 14 Apr 17:35:54 | 10 | 12.7 mph | 17 | SSW (194°) | 99559 | 101707 | 27.6°C | 56.4% | 18.1°C | 4467ft (1362m) | 12.86v | 31 |
| 7229 | 14 Apr 17:35:43 | 13 | 14.1 mph | 16 | S (182°) | 99558 | 101705 | 27.6°C | 56.5% | 18.2°C | 4456ft (1358m) | 12.87v | 31 |
| 7228 | 14 Apr 17:35:32 | 12 | 13.3 mph | 16 | SSW (192°) | 99554 | 101701 | 27.6°C | 56.3% | 18.1°C | 4479ft (1365m) | 12.87v | 31 |
| 7227 | 14 Apr 17:35:21 | 9 | 10.5 mph | 12 | SSW (194°) | 99552 | 101699 | 27.6°C | 56.3% | 18.1°C | 4479ft (1365m) | 12.87v | 31 |
| 7226 | 14 Apr 17:35:09 | 10 | 10.8 mph | 12 | SSW (194°) | 99559 | 101707 | 27.6°C | 56.3% | 18.1°C | 4479ft (1365m) | 12.88v | 31 |
| 7225 | 14 Apr 17:34:58 | 11 | 12.5 mph | 15 | SSW (201°) | 99556 | 101703 | 27.6°C | 56.3% | 18.1°C | 4479ft (1365m) | 12.86v | 31 |
| 7224 | 14 Apr 17:34:47 | 10 | 11.9 mph | 13 | SSW (193°) | 99554 | 101701 | 27.6°C | 56.3% | 18.1°C | 4479ft (1365m) | 12.86v | 31 |
| 7223 | 14 Apr 17:34:36 | 9 | 9.1 mph | 12 | SSW (200°) | 99558 | 101705 | 27.6°C | 56.3% | 18.1°C | 4479ft (1365m) | 12.85v | 31 |
| 7222 | 14 Apr 17:34:24 | 10 | 13.5 mph | 16 | S (189°) | 99555 | 101702 | 27.6°C | 56.2% | 18.1°C | 4490ft (1369m) | 12.89v | 31 |
| 7221 | 14 Apr 17:34:13 | 10 | 14.3 mph | 17 | SSW (194°) | 99545 | 101692 | 27.6°C | 56.2% | 18.1°C | 4490ft (1369m) | 12.87v | 31 |
| 7220 | 14 Apr 17:34:02 | 10 | 11 mph | 12 | SSW (198°) | 99558 | 101705 | 27.6°C | 56.1% | 18.1°C | 4502ft (1372m) | 12.87v | 31 |
| 7219 | 14 Apr 17:33:51 | 8 | 9.7 mph | 12 | S (178°) | 99555 | 101702 | 27.6°C | 56.1% | 18.1°C | 4502ft (1372m) | 12.86v | 31 |
| 7218 | 14 Apr 17:33:39 | 10 | 12.5 mph | 18 | S (186°) | 99553 | 101700 | 27.6°C | 56% | 18°C | 4514ft (1376m) | 12.88v | 31 |
| 7217 | 14 Apr 17:33:28 | 11 | 12.6 mph | 15 | SSW (192°) | 99548 | 101695 | 27.6°C | 56.1% | 18.1°C | 4502ft (1372m) | 12.88v | 31 |
| 7216 | 14 Apr 17:33:17 | 8 | 9.5 mph | 11 | S (191°) | 99551 | 101698 | 27.6°C | 55.9% | 18°C | 4525ft (1379m) | 12.87v | 31 |
| 7215 | 14 Apr 17:33:05 | 8 | 9.6 mph | 11 | SSW (197°) | 99556 | 101703 | 27.6°C | 56% | 18°C | 4514ft (1376m) | 12.86v | 31 |
| 7214 | 14 Apr 17:32:54 | 10 | 11.8 mph | 14 | SSW (202°) | 99558 | 101705 | 27.6°C | 56% | 18°C | 4514ft (1376m) | 12.88v | 31 |
| 7213 | 14 Apr 17:32:43 | 10 | 11.4 mph | 18 | SSW (208°) | 99555 | 101702 | 27.6°C | 55.9% | 18°C | 4525ft (1379m) | 12.89v | 31 |
| 7212 | 14 Apr 17:32:32 | 10 | 12.2 mph | 14 | SSW (196°) | 99554 | 101701 | 27.6°C | 56.1% | 18.1°C | 4502ft (1372m) | 12.88v | 31 |
| 7211 | 14 Apr 17:32:20 | 14 | 15.6 mph | 17 | SSW (195°) | 99552 | 101699 | 27.6°C | 56.1% | 18.1°C | 4502ft (1372m) | 12.88v | 31 |
| 7210 | 14 Apr 17:32:09 | 17 | 19.1 mph | 22 | SSW (192°) | 99557 | 101704 | 27.6°C | 56% | 18°C | 4514ft (1376m) | 12.88v | 31 |
| 7209 | 14 Apr 17:31:58 | 9 | 9.4 mph | 13 | S (189°) | 99558 | 101705 | 27.6°C | 55.9% | 18°C | 4525ft (1379m) | 12.9v | 31 |
| 7208 | 14 Apr 17:31:47 | 11 | 13.2 mph | 16 | SSW (195°) | 99548 | 101695 | 27.6°C | 55.6% | 17.9°C | 4560ft (1390m) | 12.88v | 31 |
| 7207 | 14 Apr 17:31:35 | 10 | 12 mph | 15 | S (185°) | 99558 | 101705 | 27.6°C | 56% | 18°C | 4514ft (1376m) | 12.87v | 31 |
| 7206 | 14 Apr 17:31:24 | 13 | 15.7 mph | 19 | S (186°) | 99554 | 101701 | 27.6°C | 56% | 18°C | 4514ft (1376m) | 12.88v | 31 |
| 7205 | 14 Apr 17:31:13 | 11 | 13.7 mph | 16 | S (172°) | 99553 | 101700 | 27.6°C | 55.9% | 18°C | 4525ft (1379m) | 12.9v | 31 |
| 7204 | 14 Apr 17:31:02 | 10 | 10.7 mph | 13 | S (188°) | 99549 | 101696 | 27.6°C | 55.8% | 18°C | 4537ft (1383m) | 12.9v | 31 |
| 7203 | 14 Apr 17:30:50 | 13 | 13.4 mph | 14 | S (190°) | 99554 | 101701 | 27.6°C | 55.9% | 18°C | 4525ft (1379m) | 12.9v | 31 |
| 7202 | 14 Apr 17:30:39 | 12 | 12.5 mph | 15 | S (183°) | 99552 | 101699 | 27.6°C | 56% | 18°C | 4514ft (1376m) | 12.9v | 31 |
| 7201 | 14 Apr 17:30:28 | 12 | 14 mph | 16 | S (190°) | 99549 | 101696 | 27.6°C | 56% | 18°C | 4514ft (1376m) | 12.9v | 31 |
| 7200 | 14 Apr 17:30:17 | 9 | 12.9 mph | 17 | SSW (196°) | 99540 | 101687 | 27.7°C | 56% | 18.1°C | 4517ft (1377m) | 12.9v | 31 |
| 7199 | 14 Apr 17:30:06 | 11 | 13.1 mph | 15 | SSW (197°) | 99547 | 101694 | 27.7°C | 55.8% | 18.1°C | 4540ft (1384m) | 12.9v | 31 |
| 7198 | 14 Apr 17:29:54 | 15 | 15.3 mph | 17 | S (189°) | 99543 | 101690 | 27.7°C | 55.7% | 18°C | 4552ft (1387m) | 12.88v | 31 |
| 7197 | 14 Apr 17:29:43 | 12 | 14.6 mph | 17 | S (182°) | 99548 | 101695 | 27.7°C | 55.8% | 18.1°C | 4540ft (1384m) | 12.91v | 31 |
| 7196 | 14 Apr 17:29:32 | 12 | 13.1 mph | 15 | S (186°) | 99532 | 101679 | 27.7°C | 55.8% | 18.1°C | 4540ft (1384m) | 12.92v | 31 |
| 7195 | 14 Apr 17:29:21 | 10 | 11.3 mph | 13 | S (180°) | 99547 | 101694 | 27.7°C | 55.9% | 18.1°C | 4528ft (1380m) | 12.91v | 31 |
| 7194 | 14 Apr 17:29:09 | 10 | 12.3 mph | 16 | S (176°) | 99543 | 101690 | 27.7°C | 56.1% | 18.2°C | 4505ft (1373m) | 12.91v | 31 |
| 7193 | 14 Apr 17:28:58 | 8 | 11.8 mph | 16 | S (186°) | 99555 | 101702 | 27.7°C | 55.8% | 18.1°C | 4540ft (1384m) | 12.91v | 31 |
| 7192 | 14 Apr 17:28:47 | 6 | 7.9 mph | 12 | SSW (210°) | 99547 | 101694 | 27.7°C | 55.9% | 18.1°C | 4528ft (1380m) | 12.92v | 31 |
| 7191 | 14 Apr 17:28:36 | 8 | 9.5 mph | 13 | SSW (192°) | 99554 | 101701 | 27.7°C | 56.1% | 18.2°C | 4505ft (1373m) | 12.91v | 31 |
| 7190 | 14 Apr 17:28:24 | 14 | 15.3 mph | 17 | SSW (192°) | 99545 | 101692 | 27.7°C | 56.1% | 18.2°C | 4505ft (1373m) | 12.93v | 31 |
| 7189 | 14 Apr 17:28:13 | 16 | 17 mph | 19 | SSW (195°) | 99546 | 101693 | 27.7°C | 56.1% | 18.2°C | 4505ft (1373m) | 12.92v | 31 |
| 7188 | 14 Apr 17:28:02 | 10 | 14.1 mph | 18 | S (187°) | 99533 | 101680 | 27.8°C | 55.7% | 18.1°C | 4555ft (1388m) | 12.94v | 31 |
| 7187 | 14 Apr 17:27:51 | 8 | 11.1 mph | 14 | S (180°) | 99549 | 101696 | 27.8°C | 55.8% | 18.2°C | 4543ft (1385m) | 12.93v | 31 |
| 7186 | 14 Apr 17:27:39 | 9 | 10.7 mph | 13 | SSW (199°) | 99547 | 101694 | 27.8°C | 55.8% | 18.2°C | 4543ft (1385m) | 12.94v | 31 |
| 7185 | 14 Apr 17:27:28 | 13 | 16.8 mph | 19 | S (186°) | 99552 | 101699 | 27.8°C | 55.9% | 18.2°C | 4531ft (1381m) | 12.95v | 31 |
| 7184 | 14 Apr 17:27:17 | 12 | 13.4 mph | 15 | SSW (192°) | 99544 | 101691 | 27.8°C | 55.8% | 18.2°C | 4543ft (1385m) | 12.94v | 31 |
| 7183 | 14 Apr 17:27:06 | 9 | 11.5 mph | 13 | S (189°) | 99546 | 101693 | 27.8°C | 55.8% | 18.2°C | 4543ft (1385m) | 12.95v | 31 |
| 7182 | 14 Apr 17:26:54 | 14 | 15.7 mph | 18 | S (191°) | 99544 | 101691 | 27.8°C | 55.9% | 18.2°C | 4531ft (1381m) | 12.94v | 31 |
| 7181 | 14 Apr 17:26:43 | 13 | 14.2 mph | 17 | SSW (193°) | 99543 | 101690 | 27.8°C | 55.6% | 18.1°C | 4566ft (1392m) | 12.96v | 31 |
| 7180 | 14 Apr 17:26:32 | 12 | 13.9 mph | 17 | SSW (198°) | 99542 | 101689 | 27.8°C | 55.6% | 18.1°C | 4566ft (1392m) | 12.96v | 31 |
| 7179 | 14 Apr 17:26:21 | 7 | 8.9 mph | 12 | SSW (194°) | 99550 | 101697 | 27.9°C | 55.4% | 18.1°C | 4593ft (1400m) | 12.99v | 31 |
| 7178 | 14 Apr 17:26:09 | 9 | 11.3 mph | 13 | SSW (196°) | 99550 | 101697 | 27.8°C | 55.3% | 18°C | 4602ft (1403m) | 12.97v | 31 |
| 7177 | 14 Apr 17:25:58 | 12 | 13 mph | 14 | SSW (193°) | 99544 | 101691 | 27.9°C | 55.2% | 18.1°C | 4616ft (1407m) | 12.98v | 31 |
| 7176 | 14 Apr 17:25:47 | 8 | 9.5 mph | 12 | SSW (197°) | 99555 | 101702 | 27.9°C | 55.4% | 18.1°C | 4593ft (1400m) | 13v | 31 |
| 7175 | 14 Apr 17:25:36 | 8 | 10.6 mph | 13 | S (182°) | 99552 | 101699 | 27.8°C | 55.5% | 18.1°C | 4578ft (1395m) | 13v | 31 |
| 7174 | 14 Apr 17:25:24 | 10 | 11.5 mph | 13 | S (188°) | 99553 | 101700 | 27.8°C | 55.3% | 18°C | 4602ft (1403m) | 13.01v | 31 |
| 7173 | 14 Apr 17:25:13 | 10 | 10.9 mph | 13 | S (189°) | 99548 | 101695 | 27.9°C | 55.3% | 18.1°C | 4604ft (1403m) | 13.03v | 31 |
| 7172 | 14 Apr 17:25:02 | 11 | 13 mph | 16 | S (184°) | 99538 | 101685 | 27.9°C | 55.3% | 18.1°C | 4604ft (1403m) | 13.03v | 31 |
| 7171 | 14 Apr 17:24:51 | 10 | 12.4 mph | 15 | S (185°) | 99545 | 101692 | 27.8°C | 55.2% | 18°C | 4613ft (1406m) | 13.07v | 31 |
| 7170 | 14 Apr 17:24:39 | 11 | 15.3 mph | 19 | SSW (192°) | 99532 | 101679 | 27.9°C | 55.1% | 18.1°C | 4628ft (1411m) | 13.1v | 31 |
| 7169 | 14 Apr 17:24:28 | 5 | 10.5 mph | 15 | S (191°) | 99542 | 101689 | 27.9°C | 55% | 18°C | 4640ft (1414m) | 13.1v | 31 |
| 7168 | 14 Apr 17:24:17 | 6 | 11.2 mph | 14 | SSW (195°) | 99545 | 101692 | 27.9°C | 55% | 18°C | 4640ft (1414m) | 13.13v | 31 |
| 7167 | 14 Apr 17:24:06 | 5 | 8.2 mph | 12 | S (184°) | 99537 | 101684 | 27.9°C | 55% | 18°C | 4640ft (1414m) | 13.16v | 31 |
| 7166 | 14 Apr 17:23:54 | 9 | 11.4 mph | 15 | S (187°) | 99545 | 101692 | 27.9°C | 54.9% | 18°C | 4652ft (1418m) | 13.18v | 31 |
| 7165 | 14 Apr 17:23:43 | 8 | 10.5 mph | 13 | SSW (194°) | 99540 | 101687 | 27.9°C | 54.8% | 18°C | 4664ft (1422m) | 13.21v | 31 |
| 7164 | 14 Apr 17:23:32 | 9 | 10.6 mph | 13 | SSW (193°) | 99548 | 101695 | 27.9°C | 54.5% | 17.9°C | 4700ft (1433m) | 13.23v | 31 |
| 7163 | 14 Apr 17:23:21 | 9 | 10.7 mph | 14 | S (183°) | 99538 | 101685 | 27.9°C | 54.5% | 17.9°C | 4700ft (1433m) | 13.25v | 31 |
| 7162 | 14 Apr 17:23:09 | 9 | 9.1 mph | 10 | SSW (203°) | 99545 | 101692 | 27.9°C | 54.4% | 17.8°C | 4711ft (1436m) | 13.25v | 31 |
| 7161 | 14 Apr 17:22:58 | 10 | 10.4 mph | 12 | S (189°) | 99541 | 101688 | 27.9°C | 54.4% | 17.8°C | 4711ft (1436m) | 13.28v | 31 |
| 7160 | 14 Apr 17:22:47 | 8 | 9.7 mph | 12 | SSW (193°) | 99546 | 101693 | 28°C | 54.3% | 17.9°C | 4727ft (1441m) | 13.33v | 31 |
| 7159 | 14 Apr 17:22:36 | 13 | 14.1 mph | 15 | S (190°) | 99534 | 101681 | 27.9°C | 54.3% | 17.8°C | 4723ft (1440m) | 13.31v | 31 |
| 7158 | 14 Apr 17:22:24 | 11 | 12.7 mph | 14 | S (185°) | 99538 | 101685 | 27.9°C | 54.2% | 17.8°C | 4735ft (1443m) | 13.34v | 31 |
| 7157 | 14 Apr 17:22:13 | 8 | 9.8 mph | 14 | S (187°) | 99547 | 101694 | 28°C | 54.1% | 17.9°C | 4751ft (1448m) | 13.36v | 31 |
| 7156 | 14 Apr 17:22:02 | 9 | 10.6 mph | 12 | S (183°) | 99541 | 101688 | 28°C | 54.2% | 17.9°C | 4739ft (1444m) | 13.39v | 31 |
| 7155 | 14 Apr 17:21:51 | 7 | 9.7 mph | 13 | S (181°) | 99533 | 101680 | 28°C | 54.1% | 17.9°C | 4751ft (1448m) | 13.42v | 31 |
| 7154 | 14 Apr 17:21:39 | 8 | 10.3 mph | 13 | SSW (196°) | 99545 | 101692 | 28°C | 54.1% | 17.9°C | 4751ft (1448m) | 13.41v | 31 |
| 7153 | 14 Apr 17:21:28 | 6 | 7.8 mph | 12 | S (191°) | 99547 | 101694 | 28°C | 54.2% | 17.9°C | 4739ft (1444m) | 13.42v | 31 |
| 7152 | 14 Apr 17:21:17 | 8 | 11.3 mph | 16 | SSW (195°) | 99542 | 101689 | 27.9°C | 54.2% | 17.8°C | 4735ft (1443m) | 13.41v | 31 |
| 7151 | 14 Apr 17:21:06 | 11 | 12.4 mph | 14 | SSW (200°) | 99541 | 101688 | 28°C | 54% | 17.8°C | 4763ft (1452m) | 13.45v | 31 |
| 7150 | 14 Apr 17:20:54 | 9 | 11.2 mph | 15 | SSW (200°) | 99537 | 101684 | 28°C | 53.8% | 17.8°C | 4787ft (1459m) | 13.46v | 31 |
| 7149 | 14 Apr 17:20:43 | 14 | 14.5 mph | 17 | SSW (203°) | 99540 | 101687 | 28°C | 53.7% | 17.7°C | 4799ft (1463m) | 13.46v | 31 |
| 7148 | 14 Apr 17:20:32 | 9 | 10.3 mph | 11 | S (190°) | 99540 | 101687 | 28.1°C | 53.6% | 17.8°C | 4814ft (1467m) | 13.47v | 31 |
| 7147 | 14 Apr 17:20:21 | 6 | 8.5 mph | 12 | SSW (196°) | 99544 | 101691 | 28.1°C | 53.7% | 17.8°C | 4802ft (1464m) | 13.48v | 31 |
| 7146 | 14 Apr 17:20:09 | 8 | 11.9 mph | 14 | SSW (199°) | 99536 | 101683 | 28.1°C | 53.5% | 17.8°C | 4826ft (1471m) | 13.5v | 31 |
| 7145 | 14 Apr 17:19:58 | 7 | 7.7 mph | 9 | S (190°) | 99545 | 101692 | 28.1°C | 53.6% | 17.8°C | 4814ft (1467m) | 13.5v | 31 |
| 7144 | 14 Apr 17:19:47 | 8 | 10.2 mph | 12 | S (191°) | 99544 | 101691 | 28.1°C | 53.3% | 17.7°C | 4851ft (1479m) | 13.5v | 31 |
| 7143 | 14 Apr 17:19:36 | 6 | 7.9 mph | 10 | SSW (201°) | 99539 | 101686 | 28.1°C | 53.5% | 17.8°C | 4826ft (1471m) | 13.5v | 31 |
| 7142 | 14 Apr 17:19:24 | 11 | 12.3 mph | 14 | S (189°) | 99535 | 101682 | 28°C | 53.4% | 17.6°C | 4835ft (1474m) | 13.48v | 31 |
| 7141 | 14 Apr 17:19:13 | 9 | 10.9 mph | 13 | S (189°) | 99539 | 101686 | 28.1°C | 53.3% | 17.7°C | 4851ft (1479m) | 13.49v | 31 |
| 7140 | 14 Apr 17:19:02 | 11 | 11.5 mph | 13 | SSW (194°) | 99543 | 101690 | 28.1°C | 53.3% | 17.7°C | 4851ft (1479m) | 13.49v | 31 |
| 7139 | 14 Apr 17:18:51 | 9 | 10.5 mph | 13 | SSW (196°) | 99538 | 101685 | 28.1°C | 53.2% | 17.7°C | 4863ft (1482m) | 13.49v | 31 |
| 7138 | 14 Apr 17:18:39 | 8 | 9.5 mph | 10 | SSW (193°) | 99540 | 101687 | 28.1°C | 53.1% | 17.6°C | 4875ft (1486m) | 13.5v | 31 |
| 7137 | 14 Apr 17:18:28 | 10 | 11.7 mph | 14 | SSW (198°) | 99541 | 101688 | 28.1°C | 53.1% | 17.6°C | 4875ft (1486m) | 13.47v | 31 |
| 7136 | 14 Apr 17:18:17 | 7 | 10.3 mph | 12 | S (190°) | 99538 | 101685 | 28.1°C | 53.1% | 17.6°C | 4875ft (1486m) | 13.5v | 31 |
| 7135 | 14 Apr 17:18:06 | 11 | 12.3 mph | 14 | S (180°) | 99536 | 101683 | 28.1°C | 53.2% | 17.7°C | 4863ft (1482m) | 13.5v | 31 |
| 7134 | 14 Apr 17:17:54 | 7 | 8.7 mph | 10 | S (180°) | 99538 | 101685 | 28.1°C | 52.8% | 17.6°C | 4912ft (1497m) | 13.48v | 31 |
| 7133 | 14 Apr 17:17:43 | 8 | 10.6 mph | 14 | SSW (198°) | 99540 | 101687 | 28.1°C | 52.8% | 17.6°C | 4912ft (1497m) | 13.5v | 31 |
| 7132 | 14 Apr 17:17:32 | 12 | 12.5 mph | 14 | SSW (195°) | 99540 | 101687 | 28.1°C | 52.8% | 17.6°C | 4912ft (1497m) | 13.51v | 31 |
| 7131 | 14 Apr 17:17:21 | 8 | 11.4 mph | 14 | S (190°) | 99541 | 101688 | 28.1°C | 52.5% | 17.5°C | 4949ft (1508m) | 13.53v | 31 |
| 7130 | 14 Apr 17:17:09 | 11 | 12.8 mph | 17 | SSW (201°) | 99534 | 101681 | 28.1°C | 52.6% | 17.5°C | 4937ft (1505m) | 13.52v | 31 |
| 7129 | 14 Apr 17:16:58 | 9 | 9.8 mph | 15 | S (173°) | 99538 | 101685 | 28.1°C | 52.5% | 17.5°C | 4949ft (1508m) | 13.5v | 31 |
| 7128 | 14 Apr 17:16:47 | 10 | 12.7 mph | 15 | S (183°) | 99537 | 101684 | 28.1°C | 52.5% | 17.5°C | 4949ft (1508m) | 13.48v | 31 |
| 7127 | 14 Apr 17:16:36 | 8 | 10.1 mph | 14 | SSW (192°) | 99530 | 101677 | 28.2°C | 52.5% | 17.6°C | 4952ft (1509m) | 13.48v | 31 |
| 7126 | 14 Apr 17:16:24 | 9 | 10.8 mph | 14 | SSW (194°) | 99538 | 101685 | 28.1°C | 52.3% | 17.4°C | 4974ft (1516m) | 13.48v | 31 |
| 7125 | 14 Apr 17:16:13 | 8 | 8.9 mph | 10 | S (188°) | 99535 | 101682 | 28.1°C | 52.4% | 17.4°C | 4961ft (1512m) | 13.5v | 31 |
| 7124 | 14 Apr 17:16:02 | 9 | 10.3 mph | 13 | SSW (196°) | 99539 | 101686 | 28.2°C | 52.3% | 17.5°C | 4977ft (1517m) | 13.49v | 31 |
| 7123 | 14 Apr 17:15:51 | 8 | 9.1 mph | 10 | S (191°) | 99536 | 101683 | 28.2°C | 52.3% | 17.5°C | 4977ft (1517m) | 13.49v | 31 |
| 7122 | 14 Apr 17:15:39 | 7 | 8.3 mph | 9 | SSW (206°) | 99537 | 101684 | 28.2°C | 52.4% | 17.5°C | 4965ft (1513m) | 13.48v | 31 |
| 7121 | 14 Apr 17:15:28 | 8 | 8.9 mph | 10 | SSW (197°) | 99542 | 101689 | 28.2°C | 52.2% | 17.5°C | 4989ft (1521m) | 13.51v | 31 |
| 7120 | 14 Apr 17:15:17 | 9 | 11.1 mph | 13 | S (188°) | 99535 | 101682 | 28.2°C | 52.2% | 17.5°C | 4989ft (1521m) | 13.51v | 31 |
| 7119 | 14 Apr 17:15:06 | 10 | 10.3 mph | 12 | SSW (205°) | 99531 | 101678 | 28.2°C | 52.1% | 17.4°C | 5002ft (1525m) | 13.5v | 31 |
| 7118 | 14 Apr 17:14:54 | 8 | 9.9 mph | 11 | SSW (202°) | 99540 | 101687 | 28.2°C | 52.2% | 17.5°C | 4989ft (1521m) | 13.51v | 31 |
| 7117 | 14 Apr 17:14:43 | 9 | 9.7 mph | 11 | S (182°) | 99536 | 101683 | 28.2°C | 52% | 17.4°C | 5014ft (1528m) | 13.51v | 31 |
| 7116 | 14 Apr 17:14:32 | 9 | 11.5 mph | 15 | S (171°) | 99538 | 101685 | 28.2°C | 52.1% | 17.4°C | 5002ft (1525m) | 13.49v | 31 |
| 7115 | 14 Apr 17:14:21 | 10 | 11.2 mph | 16 | S (174°) | 99526 | 101673 | 28.2°C | 52.1% | 17.4°C | 5002ft (1525m) | 13.49v | 31 |
| 7114 | 14 Apr 17:14:09 | 13 | 14.7 mph | 17 | S (184°) | 99541 | 101688 | 28.2°C | 51.9% | 17.4°C | 5027ft (1532m) | 13.49v | 31 |
| 7113 | 14 Apr 17:13:58 | 10 | 13.7 mph | 18 | S (182°) | 99512 | 101658 | 28.2°C | 52.1% | 17.4°C | 5002ft (1525m) | 13.5v | 31 |
| 7112 | 14 Apr 17:13:47 | 10 | 11.6 mph | 16 | SSW (196°) | 99538 | 101685 | 28.2°C | 52.1% | 17.4°C | 5002ft (1525m) | 13.49v | 31 |
| 7111 | 14 Apr 17:13:36 | 9 | 11.9 mph | 17 | S (191°) | 99531 | 101678 | 28.2°C | 51.9% | 17.4°C | 5027ft (1532m) | 13.48v | 31 |
| 7110 | 14 Apr 17:13:24 | 8 | 10 mph | 13 | S (188°) | 99535 | 101682 | 28.2°C | 51.9% | 17.4°C | 5027ft (1532m) | 13.47v | 31 |
| 7109 | 14 Apr 17:13:13 | 6 | 7 mph | 10 | SSW (199°) | 99536 | 101683 | 28.2°C | 52% | 17.4°C | 5014ft (1528m) | 13.51v | 31 |
| 7108 | 14 Apr 17:13:02 | 9 | 9.9 mph | 12 | S (181°) | 99538 | 101685 | 28.2°C | 52% | 17.4°C | 5014ft (1528m) | 13.49v | 31 |
| 7107 | 14 Apr 17:12:51 | 10 | 11 mph | 14 | SSW (193°) | 99536 | 101683 | 28.2°C | 51.7% | 17.3°C | 5052ft (1540m) | 13.48v | 31 |
| 7106 | 14 Apr 17:12:39 | 10 | 10.9 mph | 14 | S (180°) | 99535 | 101682 | 28.2°C | 51.9% | 17.4°C | 5027ft (1532m) | 13.49v | 31 |
| 7105 | 14 Apr 17:12:28 | 7 | 11 mph | 14 | S (190°) | 99534 | 101681 | 28.2°C | 51.7% | 17.3°C | 5052ft (1540m) | 13.5v | 31 |
| 7104 | 14 Apr 17:12:17 | 9 | 9.6 mph | 12 | S (187°) | 99531 | 101678 | 28.2°C | 51.8% | 17.3°C | 5039ft (1536m) | 13.5v | 31 |
| 7103 | 14 Apr 17:12:06 | 8 | 9.2 mph | 11 | S (186°) | 99534 | 101681 | 28.2°C | 51.8% | 17.3°C | 5039ft (1536m) | 13.53v | 31 |
| 7102 | 14 Apr 17:11:54 | 9 | 9.8 mph | 12 | S (189°) | 99536 | 101683 | 28.2°C | 51.7% | 17.3°C | 5052ft (1540m) | 13.53v | 31 |
| 7101 | 14 Apr 17:11:43 | 9 | 10 mph | 11 | S (189°) | 99539 | 101686 | 28.2°C | 51.6% | 17.3°C | 5064ft (1544m) | 13.54v | 31 |
| 7100 | 14 Apr 17:11:32 | 11 | 11.8 mph | 13 | S (186°) | 99534 | 101681 | 28.2°C | 51.5% | 17.3°C | 5077ft (1547m) | 13.54v | 31 |
| 7099 | 14 Apr 17:11:21 | 8 | 8.4 mph | 10 | SSW (196°) | 99532 | 101679 | 28.2°C | 51.5% | 17.3°C | 5077ft (1547m) | 13.51v | 31 |
| 7098 | 14 Apr 17:11:09 | 9 | 12.3 mph | 15 | S (183°) | 99533 | 101680 | 28.2°C | 51.5% | 17.3°C | 5077ft (1547m) | 13.49v | 31 |
| 7097 | 14 Apr 17:10:58 | 8 | 10.4 mph | 13 | S (190°) | 99535 | 101682 | 28.2°C | 51.5% | 17.3°C | 5077ft (1547m) | 13.48v | 31 |
| 7096 | 14 Apr 17:10:47 | 11 | 12 mph | 14 | SSW (198°) | 99533 | 101680 | 28.2°C | 51.5% | 17.3°C | 5077ft (1547m) | 13.51v | 31 |
| 7095 | 14 Apr 17:10:36 | 11 | 11.7 mph | 13 | S (188°) | 99522 | 101669 | 28.2°C | 51.6% | 17.3°C | 5064ft (1544m) | 13.56v | 31 |
| 7094 | 14 Apr 17:10:24 | 13 | 13 mph | 15 | S (190°) | 99528 | 101675 | 28.3°C | 51.4% | 17.3°C | 5093ft (1552m) | 13.54v | 31 |
| 7093 | 14 Apr 17:10:13 | 10 | 10.9 mph | 13 | SSW (192°) | 99534 | 101681 | 28.3°C | 51.4% | 17.3°C | 5093ft (1552m) | 13.45v | 31 |
| 7092 | 14 Apr 17:10:02 | 10 | 11.2 mph | 13 | SSW (207°) | 99532 | 101679 | 28.3°C | 51.3% | 17.3°C | 5106ft (1556m) | 13.48v | 31 |
| 7091 | 14 Apr 17:09:51 | 9 | 8.9 mph | 10 | SSW (198°) | 99532 | 101679 | 28.3°C | 51.3% | 17.3°C | 5106ft (1556m) | 13.56v | 31 |
| 7090 | 14 Apr 17:09:39 | 9 | 10.3 mph | 13 | S (189°) | 99531 | 101678 | 28.3°C | 51.3% | 17.3°C | 5106ft (1556m) | 13.53v | 31 |
| 7089 | 14 Apr 17:09:28 | 7 | 9 mph | 12 | S (178°) | 99526 | 101673 | 28.3°C | 51.3% | 17.3°C | 5106ft (1556m) | 13.49v | 31 |
| 7088 | 14 Apr 17:09:17 | 7 | 8.6 mph | 12 | SSW (196°) | 99529 | 101676 | 28.3°C | 51.3% | 17.3°C | 5106ft (1556m) | 13.49v | 31 |
| 7087 | 14 Apr 17:09:06 | 7 | 7.6 mph | 9 | SSW (194°) | 99531 | 101678 | 28.3°C | 51.3% | 17.3°C | 5106ft (1556m) | 13.54v | 31 |
| 7086 | 14 Apr 17:08:54 | 8 | 8.9 mph | 12 | S (189°) | 99531 | 101678 | 28.3°C | 51.1% | 17.2°C | 5131ft (1564m) | 13.48v | 31 |
| 7085 | 14 Apr 17:08:43 | 9 | 10.8 mph | 13 | S (190°) | 99531 | 101678 | 28.3°C | 50.9% | 17.2°C | 5156ft (1572m) | 13.49v | 31 |
| 7084 | 14 Apr 17:08:32 | 9 | 10.6 mph | 12 | S (191°) | 99529 | 101676 | 28.3°C | 51.1% | 17.2°C | 5131ft (1564m) | 13.49v | 31 |
| 7083 | 14 Apr 17:08:21 | 6 | 9 mph | 11 | S (190°) | 99532 | 101679 | 28.3°C | 51.1% | 17.2°C | 5131ft (1564m) | 13.51v | 31 |
| 7082 | 14 Apr 17:08:09 | 6 | 7.1 mph | 10 | SSW (194°) | 99532 | 101679 | 28.3°C | 51.1% | 17.2°C | 5131ft (1564m) | 13.52v | 31 |
| 7081 | 14 Apr 17:07:58 | 10 | 11.4 mph | 14 | S (184°) | 99522 | 101669 | 28.3°C | 51% | 17.2°C | 5144ft (1568m) | 13.53v | 31 |
| 7080 | 14 Apr 17:07:47 | 10 | 12.2 mph | 16 | S (182°) | 99530 | 101677 | 28.3°C | 51.1% | 17.2°C | 5131ft (1564m) | 13.54v | 31 |
| 7079 | 14 Apr 17:07:36 | 7 | 8 mph | 9 | S (186°) | 99535 | 101682 | 28.3°C | 51% | 17.2°C | 5144ft (1568m) | 13.53v | 31 |
| 7078 | 14 Apr 17:07:24 | 9 | 10.1 mph | 12 | S (179°) | 99531 | 101678 | 28.4°C | 50.9% | 17.3°C | 5160ft (1573m) | 13.53v | 31 |
| 7077 | 14 Apr 17:07:13 | 9 | 10.3 mph | 12 | S (173°) | 99532 | 101679 | 28.3°C | 51.2% | 17.3°C | 5118ft (1560m) | 13.51v | 31 |
| 7076 | 14 Apr 17:07:02 | 11 | 10.7 mph | 12 | SSW (199°) | 99531 | 101678 | 28.3°C | 51.1% | 17.2°C | 5131ft (1564m) | 13.5v | 31 |
| 7075 | 14 Apr 17:06:50 | 12 | 12.2 mph | 13 | S (173°) | 99527 | 101674 | 28.3°C | 51.1% | 17.2°C | 5131ft (1564m) | 13.5v | 31 |
| 7074 | 14 Apr 17:06:39 | 11 | 14.2 mph | 16 | S (190°) | 99522 | 101669 | 28.3°C | 51.2% | 17.3°C | 5118ft (1560m) | 13.48v | 31 |
| 7073 | 14 Apr 17:06:28 | 10 | 12.1 mph | 13 | S (182°) | 99528 | 101675 | 28.4°C | 50.9% | 17.3°C | 5160ft (1573m) | 13.48v | 31 |
| 7072 | 14 Apr 17:06:17 | 9 | 11.7 mph | 15 | S (188°) | 99527 | 101674 | 28.4°C | 51.1% | 17.3°C | 5134ft (1565m) | 13.51v | 31 |
| 7071 | 14 Apr 17:06:06 | 10 | 13 mph | 17 | S (188°) | 99521 | 101668 | 28.4°C | 50.8% | 17.2°C | 5172ft (1576m) | 13.48v | 31 |
| 7070 | 14 Apr 17:05:54 | 13 | 15.2 mph | 17 | SSW (200°) | 99525 | 101672 | 28.4°C | 50.8% | 17.2°C | 5172ft (1576m) | 13.5v | 31 |
| 7069 | 14 Apr 17:05:43 | 10 | 12.8 mph | 18 | S (185°) | 99533 | 101680 | 28.4°C | 51% | 17.3°C | 5147ft (1569m) | 13.51v | 31 |
| 7068 | 14 Apr 17:05:32 | 11 | 12.5 mph | 15 | SSW (194°) | 99527 | 101674 | 28.4°C | 51% | 17.3°C | 5147ft (1569m) | 13.52v | 31 |
| 7067 | 14 Apr 17:05:21 | 9 | 10.7 mph | 12 | SSW (196°) | 99529 | 101676 | 28.4°C | 51% | 17.3°C | 5147ft (1569m) | 13.5v | 31 |
| 7066 | 14 Apr 17:05:09 | 12 | 13.2 mph | 14 | S (184°) | 99529 | 101676 | 28.4°C | 51% | 17.3°C | 5147ft (1569m) | 13.49v | 31 |
| 7065 | 14 Apr 17:04:58 | 7 | 8 mph | 10 | SSW (199°) | 99532 | 101679 | 28.4°C | 51% | 17.3°C | 5147ft (1569m) | 13.5v | 31 |
| 7064 | 14 Apr 17:04:47 | 7 | 9.6 mph | 12 | SSW (204°) | 99527 | 101674 | 28.4°C | 51.1% | 17.3°C | 5134ft (1565m) | 13.5v | 31 |
| 7063 | 14 Apr 17:04:36 | 10 | 10.8 mph | 12 | S (189°) | 99527 | 101674 | 28.4°C | 50.9% | 17.3°C | 5160ft (1573m) | 13.51v | 31 |
| 7062 | 14 Apr 17:04:24 | 10 | 11 mph | 12 | S (185°) | 99527 | 101674 | 28.4°C | 51% | 17.3°C | 5147ft (1569m) | 13.49v | 31 |
| 7061 | 14 Apr 17:04:13 | 8 | 10.9 mph | 13 | S (174°) | 99529 | 101676 | 28.4°C | 51.2% | 17.3°C | 5122ft (1561m) | 13.48v | 31 |
| 7060 | 14 Apr 17:04:02 | 9 | 10.4 mph | 13 | S (182°) | 99528 | 101675 | 28.4°C | 50.9% | 17.3°C | 5160ft (1573m) | 13.48v | 31 |
| 7059 | 14 Apr 17:03:51 | 8 | 9.7 mph | 11 | SSW (196°) | 99525 | 101672 | 28.4°C | 51% | 17.3°C | 5147ft (1569m) | 13.48v | 31 |
| 7058 | 14 Apr 17:03:39 | 8 | 10.4 mph | 13 | S (189°) | 99528 | 101675 | 28.4°C | 51.1% | 17.3°C | 5134ft (1565m) | 13.48v | 31 |
| 7057 | 14 Apr 17:03:28 | 10 | 11.2 mph | 14 | SSW (193°) | 99526 | 101673 | 28.4°C | 51.1% | 17.3°C | 5134ft (1565m) | 13.5v | 31 |
| 7056 | 14 Apr 17:03:16 | 8 | 8.9 mph | 10 | SSW (197°) | 99529 | 101676 | 28.5°C | 51.4% | 17.5°C | 5100ft (1554m) | 13.49v | 31 |
| 7055 | 14 Apr 17:03:05 | 7 | 9.7 mph | 12 | S (178°) | 99523 | 101670 | 28.5°C | 51.1% | 17.4°C | 5138ft (1566m) | 13.49v | 31 |
| 7054 | 14 Apr 17:02:54 | 6 | 7.3 mph | 9 | SSW (196°) | 99525 | 101672 | 28.5°C | 51.1% | 17.4°C | 5138ft (1566m) | 13.5v | 31 |
| 7053 | 14 Apr 17:02:43 | 7 | 7.5 mph | 9 | SSW (193°) | 99524 | 101671 | 28.5°C | 51.4% | 17.5°C | 5100ft (1554m) | 13.51v | 31 |
| 7052 | 14 Apr 17:02:31 | 8 | 9.3 mph | 11 | S (175°) | 99522 | 101669 | 28.5°C | 51.3% | 17.5°C | 5112ft (1558m) | 13.46v | 31 |
| 7051 | 14 Apr 17:02:20 | 10 | 11 mph | 13 | S (191°) | 99520 | 101667 | 28.5°C | 51.3% | 17.5°C | 5112ft (1558m) | 13.49v | 31 |
| 7050 | 14 Apr 17:02:09 | 6 | 7 mph | 11 | S (184°) | 99521 | 101668 | 28.5°C | 51.4% | 17.5°C | 5100ft (1554m) | 13.48v | 31 |
| 7049 | 14 Apr 17:01:58 | 7 | 7.5 mph | 9 | S (182°) | 99521 | 101668 | 28.5°C | 51.4% | 17.5°C | 5100ft (1554m) | 13.5v | 31 |
| 7048 | 14 Apr 17:01:46 | 9 | 10.3 mph | 13 | SSW (205°) | 99525 | 101672 | 28.5°C | 51.1% | 17.4°C | 5138ft (1566m) | 13.49v | 31 |
| 7047 | 14 Apr 17:01:35 | 10 | 11.4 mph | 13 | SSW (194°) | 99517 | 101664 | 28.5°C | 51% | 17.4°C | 5150ft (1570m) | 13.49v | 31 |
| 7046 | 14 Apr 17:01:24 | 11 | 13 mph | 16 | S (186°) | 99522 | 101669 | 28.5°C | 51% | 17.4°C | 5150ft (1570m) | 13.48v | 31 |
| 7045 | 14 Apr 17:01:13 | 9 | 10.7 mph | 14 | S (189°) | 99518 | 101665 | 28.5°C | 51% | 17.4°C | 5150ft (1570m) | 13.48v | 31 |
| 7044 | 14 Apr 17:01:01 | 8 | 9.2 mph | 11 | SSW (194°) | 99522 | 101669 | 28.5°C | 51% | 17.4°C | 5150ft (1570m) | 13.5v | 31 |
| 7043 | 14 Apr 17:00:50 | 9 | 9.3 mph | 10 | SSW (193°) | 99523 | 101670 | 28.5°C | 51% | 17.4°C | 5150ft (1570m) | 13.49v | 31 |
| 7042 | 14 Apr 17:00:39 | 9 | 10.4 mph | 13 | S (189°) | 99520 | 101667 | 28.5°C | 51% | 17.4°C | 5150ft (1570m) | 13.47v | 31 |
| 7041 | 14 Apr 17:00:28 | 8 | 10.9 mph | 13 | S (178°) | 99514 | 101661 | 28.5°C | 50.9% | 17.3°C | 5163ft (1574m) | 13.47v | 31 |
| 7040 | 14 Apr 17:00:17 | 10 | 11.7 mph | 14 | S (185°) | 99514 | 101661 | 28.5°C | 50.9% | 17.3°C | 5163ft (1574m) | 13.5v | 31 |
| 7039 | 14 Apr 17:00:06 | 6 | 7.5 mph | 10 | S (183°) | 99521 | 101668 | 28.5°C | 51% | 17.4°C | 5150ft (1570m) | 13.48v | 31 |
| 7038 | 14 Apr 16:59:54 | 8 | 8.7 mph | 10 | S (191°) | 99517 | 101664 | 28.5°C | 50.9% | 17.3°C | 5163ft (1574m) | 13.46v | 31 |
| 7037 | 14 Apr 16:59:43 | 7 | 7.9 mph | 11 | S (189°) | 99519 | 101666 | 28.5°C | 51% | 17.4°C | 5150ft (1570m) | 13.45v | 31 |
| 7036 | 14 Apr 16:59:32 | 9 | 9.4 mph | 10 | SSW (201°) | 99519 | 101666 | 28.5°C | 50.8% | 17.3°C | 5176ft (1578m) | 13.44v | 31 |
| 7035 | 14 Apr 16:59:21 | 9 | 12.3 mph | 16 | S (187°) | 99511 | 101657 | 28.5°C | 50.8% | 17.3°C | 5176ft (1578m) | 13.43v | 31 |
| 7034 | 14 Apr 16:59:09 | 9 | 10.2 mph | 13 | SSW (200°) | 99518 | 101665 | 28.5°C | 50.9% | 17.3°C | 5163ft (1574m) | 13.45v | 31 |
| 7033 | 14 Apr 16:58:58 | 10 | 10.3 mph | 11 | SSW (204°) | 99518 | 101665 | 28.6°C | 50.7% | 17.4°C | 5192ft (1583m) | 13.44v | 31 |
| 7032 | 14 Apr 16:58:47 | 9 | 10.5 mph | 12 | SSW (192°) | 99513 | 101660 | 28.5°C | 50.7% | 17.3°C | 5189ft (1582m) | 13.46v | 31 |
| 7031 | 14 Apr 16:58:36 | 10 | 10.7 mph | 13 | S (186°) | 99511 | 101657 | 28.6°C | 50.8% | 17.4°C | 5179ft (1579m) | 13.46v | 31 |
| 7030 | 14 Apr 16:58:24 | 10 | 11.3 mph | 13 | S (186°) | 99517 | 101664 | 28.6°C | 50.9% | 17.4°C | 5166ft (1575m) | 13.46v | 31 |
| 7029 | 14 Apr 16:58:13 | 10 | 10.8 mph | 12 | S (183°) | 99510 | 101656 | 28.6°C | 50.8% | 17.4°C | 5179ft (1579m) | 13.44v | 31 |
| 7028 | 14 Apr 16:58:02 | 12 | 12.3 mph | 13 | SSW (196°) | 99510 | 101656 | 28.6°C | 50.7% | 17.4°C | 5192ft (1583m) | 13.46v | 31 |
| 7027 | 14 Apr 16:57:51 | 10 | 11.2 mph | 13 | SSW (194°) | 99510 | 101656 | 28.6°C | 50.7% | 17.4°C | 5192ft (1583m) | 13.5v | 31 |
| 7026 | 14 Apr 16:57:39 | 6 | 6.9 mph | 8 | S (190°) | 99515 | 101662 | 28.6°C | 50.7% | 17.4°C | 5192ft (1583m) | 13.47v | 31 |
| 7025 | 14 Apr 16:57:28 | 8 | 9.5 mph | 12 | S (185°) | 99512 | 101658 | 28.6°C | 50.7% | 17.4°C | 5192ft (1583m) | 13.43v | 31 |
| 7024 | 14 Apr 16:57:17 | 9 | 11.8 mph | 16 | S (177°) | 99514 | 101661 | 28.6°C | 50.7% | 17.4°C | 5192ft (1583m) | 13.47v | 31 |
| 7023 | 14 Apr 16:57:06 | 9 | 9.8 mph | 12 | S (185°) | 99512 | 101658 | 28.6°C | 50.7% | 17.4°C | 5192ft (1583m) | 13.5v | 31 |
| 7022 | 14 Apr 16:56:54 | 8 | 10.1 mph | 12 | S (190°) | 99512 | 101658 | 28.6°C | 50.6% | 17.3°C | 5205ft (1586m) | 13.5v | 31 |
| 7021 | 14 Apr 16:56:43 | 9 | 10.1 mph | 11 | SSW (194°) | 99512 | 101658 | 28.6°C | 50.5% | 17.3°C | 5218ft (1590m) | 13.46v | 31 |
| 7020 | 14 Apr 16:56:32 | 8 | 9.6 mph | 11 | S (172°) | 99506 | 101652 | 28.6°C | 50.5% | 17.3°C | 5218ft (1590m) | 13.46v | 31 |
| 7019 | 14 Apr 16:56:21 | 8 | 9 mph | 11 | S (188°) | 99509 | 101655 | 28.6°C | 50.4% | 17.3°C | 5230ft (1594m) | 13.5v | 31 |
| 7018 | 14 Apr 16:56:09 | 9 | 11.3 mph | 13 | SSW (194°) | 99511 | 101657 | 28.6°C | 50.4% | 17.3°C | 5230ft (1594m) | 13.44v | 31 |
| 7017 | 14 Apr 16:55:58 | 9 | 9.8 mph | 13 | S (185°) | 99507 | 101653 | 28.6°C | 50.2% | 17.2°C | 5256ft (1602m) | 13.44v | 31 |
| 7016 | 14 Apr 16:55:47 | 11 | 12 mph | 14 | SSW (198°) | 99511 | 101657 | 28.6°C | 50.3% | 17.3°C | 5243ft (1598m) | 13.52v | 31 |
| 7015 | 14 Apr 16:55:36 | 10 | 10.9 mph | 14 | S (188°) | 99504 | 101650 | 28.7°C | 50.1% | 17.3°C | 5273ft (1607m) | 13.48v | 31 |
| 7014 | 14 Apr 16:55:24 | 10 | 11.9 mph | 14 | S (186°) | 99507 | 101653 | 28.7°C | 50.3% | 17.3°C | 5247ft (1599m) | 13.44v | 31 |
| 7013 | 14 Apr 16:55:13 | 8 | 10 mph | 12 | S (184°) | 99511 | 101657 | 28.7°C | 50.2% | 17.3°C | 5260ft (1603m) | 13.51v | 31 |
| 7012 | 14 Apr 16:55:02 | 6 | 8 mph | 13 | S (184°) | 99506 | 101652 | 28.7°C | 50.2% | 17.3°C | 5260ft (1603m) | 13.48v | 31 |
| 7011 | 14 Apr 16:54:51 | 8 | 8.2 mph | 10 | S (191°) | 99508 | 101654 | 28.7°C | 50.2% | 17.3°C | 5260ft (1603m) | 13.43v | 31 |
| 7010 | 14 Apr 16:54:39 | 9 | 9.7 mph | 11 | SSW (198°) | 99511 | 101657 | 28.7°C | 49.9% | 17.2°C | 5299ft (1615m) | 13.51v | 31 |
| 7009 | 14 Apr 16:54:28 | 7 | 7.1 mph | 8 | S (187°) | 99508 | 101654 | 28.7°C | 50.2% | 17.3°C | 5260ft (1603m) | 13.45v | 31 |
| 7008 | 14 Apr 16:54:17 | 7 | 8.8 mph | 10 | SSW (196°) | 99510 | 101656 | 28.7°C | 50.1% | 17.3°C | 5273ft (1607m) | 13.45v | 31 |
| 7007 | 14 Apr 16:54:06 | 8 | 9.4 mph | 11 | SSW (196°) | 99507 | 101653 | 28.7°C | 49.9% | 17.2°C | 5299ft (1615m) | 13.47v | 31 |
| 7006 | 14 Apr 16:53:54 | 10 | 10.7 mph | 12 | S (179°) | 99500 | 101646 | 28.7°C | 50% | 17.2°C | 5286ft (1611m) | 13.5v | 31 |
| 7005 | 14 Apr 16:53:43 | 8 | 8.9 mph | 10 | SSW (193°) | 99505 | 101651 | 28.7°C | 49.8% | 17.2°C | 5312ft (1619m) | 13.49v | 31 |
| 7004 | 14 Apr 16:53:32 | 8 | 9.3 mph | 10 | S (186°) | 99506 | 101652 | 28.7°C | 49.9% | 17.2°C | 5299ft (1615m) | 13.48v | 31 |
| 7003 | 14 Apr 16:53:21 | 5 | 6 mph | 8 | S (178°) | 99508 | 101654 | 28.7°C | 49.9% | 17.2°C | 5299ft (1615m) | 13.45v | 31 |
| 7002 | 14 Apr 16:53:09 | 7 | 8.8 mph | 10 | S (188°) | 99505 | 101651 | 28.7°C | 49.9% | 17.2°C | 5299ft (1615m) | 13.44v | 31 |
| 7001 | 14 Apr 16:52:58 | 9 | 8.8 mph | 10 | SSW (203°) | 99497 | 101643 | 28.7°C | 49.9% | 17.2°C | 5299ft (1615m) | 13.45v | 31 |
| 7000 | 14 Apr 16:52:47 | 11 | 11.1 mph | 13 | SSW (196°) | 99499 | 101645 | 28.7°C | 49.8% | 17.2°C | 5312ft (1619m) | 13.45v | 31 |
| 6999 | 14 Apr 16:52:36 | 8 | 11.1 mph | 13 | S (188°) | 99501 | 101647 | 28.7°C | 49.8% | 17.2°C | 5312ft (1619m) | 13.48v | 31 |
| 6998 | 14 Apr 16:52:24 | 7 | 9 mph | 12 | S (186°) | 99494 | 101640 | 28.7°C | 49.8% | 17.2°C | 5312ft (1619m) | 13.45v | 31 |
| 6997 | 14 Apr 16:52:13 | 8 | 8.8 mph | 10 | S (185°) | 99504 | 101650 | 28.7°C | 50% | 17.2°C | 5286ft (1611m) | 13.47v | 31 |
| 6996 | 14 Apr 16:52:02 | 7 | 7.7 mph | 10 | SSW (199°) | 99507 | 101653 | 28.7°C | 49.9% | 17.2°C | 5299ft (1615m) | 13.49v | 31 |
| 6995 | 14 Apr 16:51:51 | 7 | 8.9 mph | 11 | SSW (198°) | 99504 | 101650 | 28.7°C | 49.7% | 17.2°C | 5325ft (1623m) | 13.49v | 31 |
| 6994 | 14 Apr 16:51:39 | 9 | 11.6 mph | 15 | SSW (192°) | 99504 | 101650 | 28.7°C | 49.7% | 17.2°C | 5325ft (1623m) | 13.5v | 31 |
| 6993 | 14 Apr 16:51:28 | 8 | 9.3 mph | 11 | S (191°) | 99508 | 101654 | 28.7°C | 49.8% | 17.2°C | 5312ft (1619m) | 13.46v | 31 |
| 6992 | 14 Apr 16:51:17 | 8 | 8.4 mph | 9 | SSW (193°) | 99502 | 101648 | 28.7°C | 49.8% | 17.2°C | 5312ft (1619m) | 13.46v | 31 |
| 6991 | 14 Apr 16:51:06 | 7 | 8.5 mph | 10 | S (185°) | 99505 | 101651 | 28.7°C | 49.7% | 17.2°C | 5325ft (1623m) | 13.45v | 31 |
| 6990 | 14 Apr 16:50:54 | 11 | 11.6 mph | 14 | SSW (199°) | 99501 | 101647 | 28.7°C | 49.6% | 17.1°C | 5338ft (1627m) | 13.46v | 31 |
| 6989 | 14 Apr 16:50:43 | 10 | 11.7 mph | 14 | SSW (194°) | 99502 | 101648 | 28.7°C | 49.5% | 17.1°C | 5351ft (1631m) | 13.46v | 31 |
| 6988 | 14 Apr 16:50:32 | 12 | 13 mph | 15 | SSW (207°) | 99506 | 101652 | 28.8°C | 49.5% | 17.2°C | 5354ft (1632m) | 13.48v | 31 |
| 6987 | 14 Apr 16:50:21 | 9 | 12.2 mph | 16 | S (180°) | 99499 | 101645 | 28.8°C | 49.6% | 17.2°C | 5341ft (1628m) | 13.5v | 31 |
| 6986 | 14 Apr 16:50:09 | 8 | 10.3 mph | 14 | S (190°) | 99499 | 101645 | 28.8°C | 49.6% | 17.2°C | 5341ft (1628m) | 13.48v | 31 |
| 6985 | 14 Apr 16:49:58 | 9 | 10.6 mph | 13 | S (182°) | 99502 | 101648 | 28.8°C | 49.6% | 17.2°C | 5341ft (1628m) | 13.5v | 31 |
| 6984 | 14 Apr 16:49:47 | 12 | 12.5 mph | 13 | SSW (195°) | 99502 | 101648 | 28.8°C | 49.4% | 17.1°C | 5367ft (1636m) | 13.46v | 31 |
| 6983 | 14 Apr 16:49:36 | 11 | 13.1 mph | 16 | SSE (168°) | 99501 | 101647 | 28.8°C | 49.5% | 17.2°C | 5354ft (1632m) | 13.46v | 31 |
| 6982 | 14 Apr 16:49:24 | 9 | 10.3 mph | 12 | SSW (193°) | 99508 | 101654 | 28.8°C | 49.5% | 17.2°C | 5354ft (1632m) | 13.45v | 31 |
| 6981 | 14 Apr 16:49:13 | 7 | 8 mph | 10 | SSW (195°) | 99499 | 101645 | 28.8°C | 49.6% | 17.2°C | 5341ft (1628m) | 13.46v | 31 |
| 6980 | 14 Apr 16:49:02 | 8 | 8.7 mph | 10 | S (190°) | 99502 | 101648 | 28.8°C | 49.3% | 17.1°C | 5380ft (1640m) | 13.45v | 31 |
| 6979 | 14 Apr 16:48:51 | 8 | 12.5 mph | 17 | S (187°) | 99499 | 101645 | 28.8°C | 49.3% | 17.1°C | 5380ft (1640m) | 13.46v | 31 |
| 6978 | 14 Apr 16:48:39 | 10 | 12.1 mph | 15 | S (186°) | 99493 | 101639 | 28.8°C | 49.4% | 17.1°C | 5367ft (1636m) | 13.46v | 31 |
| 6977 | 14 Apr 16:48:28 | 11 | 12.8 mph | 14 | S (187°) | 99501 | 101647 | 28.8°C | 49.4% | 17.1°C | 5367ft (1636m) | 13.44v | 31 |
| 6976 | 14 Apr 16:48:17 | 11 | 11.6 mph | 12 | SSW (193°) | 99494 | 101640 | 28.8°C | 49.3% | 17.1°C | 5380ft (1640m) | 13.47v | 31 |
| 6975 | 14 Apr 16:48:06 | 8 | 10.6 mph | 13 | S (177°) | 99504 | 101650 | 28.9°C | 49.2% | 17.2°C | 5397ft (1645m) | 13.47v | 31 |
| 6974 | 14 Apr 16:47:54 | 8 | 8 mph | 9 | SSW (194°) | 99505 | 101651 | 28.9°C | 49.2% | 17.2°C | 5397ft (1645m) | 13.5v | 31 |
| 6973 | 14 Apr 16:47:43 | 9 | 11.3 mph | 15 | S (181°) | 99500 | 101646 | 28.9°C | 49% | 17.1°C | 5423ft (1653m) | 13.49v | 31 |
| 6972 | 14 Apr 16:47:32 | 10 | 11.1 mph | 13 | S (190°) | 99507 | 101653 | 28.9°C | 49.1% | 17.1°C | 5410ft (1649m) | 13.49v | 31 |
| 6971 | 14 Apr 16:47:21 | 9 | 9.2 mph | 12 | S (191°) | 99502 | 101648 | 28.9°C | 49% | 17.1°C | 5423ft (1653m) | 13.49v | 31 |
| 6970 | 14 Apr 16:47:09 | 7 | 10.2 mph | 14 | S (190°) | 99504 | 101650 | 28.9°C | 49% | 17.1°C | 5423ft (1653m) | 13.48v | 31 |
| 6969 | 14 Apr 16:46:58 | 9 | 10 mph | 12 | SSW (192°) | 99503 | 101649 | 28.9°C | 49% | 17.1°C | 5423ft (1653m) | 13.45v | 31 |
| 6968 | 14 Apr 16:46:47 | 9 | 10.2 mph | 13 | S (189°) | 99503 | 101649 | 28.9°C | 49% | 17.1°C | 5423ft (1653m) | 13.44v | 31 |
| 6967 | 14 Apr 16:46:36 | 7 | 8.3 mph | 10 | SSW (198°) | 99503 | 101649 | 28.9°C | 48.8% | 17°C | 5450ft (1661m) | 13.45v | 31 |
| 6966 | 14 Apr 16:46:24 | 7 | 9.9 mph | 12 | S (182°) | 99503 | 101649 | 28.9°C | 48.6% | 17°C | 5476ft (1669m) | 13.47v | 31 |
| 6965 | 14 Apr 16:46:13 | 7 | 9.3 mph | 14 | S (182°) | 99506 | 101652 | 28.9°C | 48.7% | 17°C | 5463ft (1665m) | 13.45v | 31 |
| 6964 | 14 Apr 16:46:02 | 10 | 11.1 mph | 15 | S (182°) | 99499 | 101645 | 28.9°C | 48.6% | 17°C | 5476ft (1669m) | 13.45v | 31 |
| 6963 | 14 Apr 16:45:51 | 9 | 10.2 mph | 12 | SSW (199°) | 99508 | 101654 | 28.9°C | 48.4% | 16.9°C | 5503ft (1677m) | 13.46v | 31 |
| 6962 | 14 Apr 16:45:39 | 7 | 8.1 mph | 10 | S (174°) | 99504 | 101650 | 28.9°C | 48.3% | 16.9°C | 5517ft (1682m) | 13.45v | 31 |
| 6961 | 14 Apr 16:45:28 | 9 | 9.4 mph | 13 | S (171°) | 99506 | 101652 | 28.9°C | 48.4% | 16.9°C | 5503ft (1677m) | 13.46v | 31 |
| 6960 | 14 Apr 16:45:17 | 8 | 9.9 mph | 13 | S (183°) | 99503 | 101649 | 28.9°C | 48.6% | 17°C | 5476ft (1669m) | 13.43v | 31 |
| 6959 | 14 Apr 16:45:05 | 9 | 10.1 mph | 12 | S (189°) | 99506 | 101652 | 28.9°C | 48.4% | 16.9°C | 5503ft (1677m) | 13.45v | 31 |
| 6958 | 14 Apr 16:44:54 | 11 | 12.2 mph | 14 | S (191°) | 99503 | 101649 | 28.9°C | 48.4% | 16.9°C | 5503ft (1677m) | 13.46v | 31 |
| 6957 | 14 Apr 16:44:43 | 10 | 12.3 mph | 15 | S (185°) | 99504 | 101650 | 29°C | 48.6% | 17.1°C | 5480ft (1670m) | 13.46v | 31 |
| 6956 | 14 Apr 16:44:32 | 7 | 9.6 mph | 12 | S (188°) | 99507 | 101653 | 28.9°C | 48.5% | 16.9°C | 5490ft (1673m) | 13.47v | 31 |
| 6955 | 14 Apr 16:44:20 | 10 | 13.3 mph | 17 | S (176°) | 99492 | 101638 | 28.9°C | 48.4% | 16.9°C | 5503ft (1677m) | 13.48v | 31 |
| 6954 | 14 Apr 16:44:09 | 10 | 11.9 mph | 13 | S (184°) | 99498 | 101644 | 29°C | 48.5% | 17°C | 5493ft (1674m) | 13.45v | 31 |
| 6953 | 14 Apr 16:43:58 | 8 | 9.6 mph | 12 | S (184°) | 99504 | 101650 | 29°C | 48.6% | 17.1°C | 5480ft (1670m) | 13.46v | 31 |
| 6952 | 14 Apr 16:43:47 | 10 | 10.6 mph | 13 | S (188°) | 99506 | 101652 | 29°C | 48.5% | 17°C | 5493ft (1674m) | 13.43v | 31 |
| 6951 | 14 Apr 16:43:35 | 8 | 8.1 mph | 9 | S (183°) | 99506 | 101652 | 29°C | 48.7% | 17.1°C | 5467ft (1666m) | 13.45v | 31 |
| 6950 | 14 Apr 16:43:24 | 7 | 8.6 mph | 10 | S (180°) | 99508 | 101654 | 29°C | 48.7% | 17.1°C | 5467ft (1666m) | 13.46v | 31 |
| 6949 | 14 Apr 16:43:13 | 8 | 8.5 mph | 12 | S (190°) | 99505 | 101651 | 29°C | 48.7% | 17.1°C | 5467ft (1666m) | 13.47v | 31 |
| 6948 | 14 Apr 16:43:02 | 8 | 9.2 mph | 10 | S (187°) | 99504 | 101650 | 29°C | 48.3% | 17°C | 5520ft (1682m) | 13.44v | 31 |
| 6947 | 14 Apr 16:42:50 | 7 | 7.9 mph | 10 | SSW (192°) | 99505 | 101651 | 29°C | 48.5% | 17°C | 5493ft (1674m) | 13.47v | 31 |
| 6946 | 14 Apr 16:42:39 | 8 | 9.3 mph | 11 | SSW (201°) | 99503 | 101649 | 29°C | 48.4% | 17°C | 5507ft (1679m) | 13.47v | 31 |
| 6945 | 14 Apr 16:42:28 | 9 | 9.1 mph | 11 | SSW (197°) | 99503 | 101649 | 29°C | 48.5% | 17°C | 5493ft (1674m) | 13.46v | 31 |
| 6944 | 14 Apr 16:42:17 | 7 | 8.1 mph | 10 | SSW (195°) | 99500 | 101646 | 29°C | 48.4% | 17°C | 5507ft (1679m) | 13.46v | 31 |
| 6943 | 14 Apr 16:42:06 | 6 | 7.9 mph | 12 | S (190°) | 99502 | 101648 | 29°C | 48.3% | 17°C | 5520ft (1682m) | 13.45v | 31 |
| 6942 | 14 Apr 16:41:54 | 9 | 11.4 mph | 14 | S (186°) | 99503 | 101649 | 29°C | 48.1% | 16.9°C | 5547ft (1691m) | 13.46v | 31 |
| 6941 | 14 Apr 16:41:43 | 8 | 9.4 mph | 14 | S (183°) | 99504 | 101650 | 29.1°C | 48.3% | 17.1°C | 5524ft (1684m) | 13.45v | 31 |
| 6940 | 14 Apr 16:41:32 | 8 | 9 mph | 11 | SSW (201°) | 99506 | 101652 | 29.1°C | 48.2% | 17°C | 5537ft (1688m) | 13.44v | 31 |
| 6939 | 14 Apr 16:41:21 | 11 | 12.8 mph | 14 | S (179°) | 99504 | 101650 | 29°C | 48.2% | 16.9°C | 5534ft (1687m) | 13.44v | 31 |
| 6938 | 14 Apr 16:41:09 | 12 | 12.4 mph | 15 | S (177°) | 99503 | 101649 | 29.1°C | 48.2% | 17°C | 5537ft (1688m) | 13.43v | 31 |
| 6937 | 14 Apr 16:40:58 | 12 | 13.3 mph | 15 | S (174°) | 99499 | 101645 | 29°C | 48.2% | 16.9°C | 5534ft (1687m) | 13.45v | 31 |
| 6936 | 14 Apr 16:40:47 | 8 | 11.1 mph | 13 | S (181°) | 99502 | 101648 | 29.1°C | 48.3% | 17.1°C | 5524ft (1684m) | 13.43v | 31 |
| 6935 | 14 Apr 16:40:36 | 9 | 9.9 mph | 13 | S (181°) | 99505 | 101651 | 29.1°C | 48.3% | 17.1°C | 5524ft (1684m) | 13.45v | 31 |
| 6934 | 14 Apr 16:40:24 | 8 | 9.2 mph | 12 | SSW (193°) | 99504 | 101650 | 29.1°C | 48.2% | 17°C | 5537ft (1688m) | 13.47v | 31 |
| 6933 | 14 Apr 16:40:13 | 11 | 12.7 mph | 14 | S (184°) | 99504 | 101650 | 29.1°C | 48% | 17°C | 5564ft (1696m) | 13.49v | 31 |
| 6932 | 14 Apr 16:40:02 | 9 | 11 mph | 12 | SSW (195°) | 99506 | 101652 | 29.1°C | 48.1% | 17°C | 5551ft (1692m) | 13.49v | 31 |
| 6931 | 14 Apr 16:39:51 | 9 | 10.6 mph | 12 | S (191°) | 99503 | 101649 | 29.1°C | 48.1% | 17°C | 5551ft (1692m) | 13.49v | 31 |
| 6930 | 14 Apr 16:39:39 | 12 | 13.7 mph | 15 | S (190°) | 99500 | 101646 | 29.1°C | 48% | 17°C | 5564ft (1696m) | 13.48v | 31 |
| 6929 | 14 Apr 16:39:28 | 12 | 14.1 mph | 16 | S (187°) | 99502 | 101648 | 29.1°C | 48% | 17°C | 5564ft (1696m) | 13.45v | 31 |
| 6928 | 14 Apr 16:39:17 | 13 | 15.3 mph | 18 | S (176°) | 99501 | 101647 | 29.1°C | 48.1% | 17°C | 5551ft (1692m) | 13.46v | 31 |
| 6927 | 14 Apr 16:39:06 | 9 | 13.3 mph | 15 | SSW (195°) | 99497 | 101643 | 29.2°C | 48% | 17.1°C | 5568ft (1697m) | 13.44v | 31 |
| 6926 | 14 Apr 16:38:54 | 6 | 7.4 mph | 9 | S (182°) | 99506 | 101652 | 29.2°C | 48.2% | 17.1°C | 5541ft (1689m) | 13.5v | 31 |
| 6925 | 14 Apr 16:38:43 | 9 | 11.1 mph | 14 | SSW (195°) | 99508 | 101654 | 29.2°C | 47.9% | 17°C | 5581ft (1701m) | 13.46v | 31 |
| 6924 | 14 Apr 16:38:32 | 9 | 10.5 mph | 12 | S (182°) | 99507 | 101653 | 29.2°C | 48.2% | 17.1°C | 5541ft (1689m) | 13.43v | 31 |
| 6923 | 14 Apr 16:38:21 | 7 | 7.2 mph | 8 | SSW (200°) | 99507 | 101653 | 29.2°C | 48.3% | 17.2°C | 5527ft (1685m) | 13.49v | 31 |
| 6922 | 14 Apr 16:38:09 | 10 | 12.9 mph | 17 | SSW (192°) | 99506 | 101652 | 29.2°C | 48% | 17.1°C | 5568ft (1697m) | 13.45v | 31 |
| 6921 | 14 Apr 16:37:58 | 9 | 12.3 mph | 15 | S (184°) | 99491 | 101637 | 29.2°C | 48.1% | 17.1°C | 5554ft (1693m) | 13.43v | 31 |
| 6920 | 14 Apr 16:37:47 | 10 | 11.4 mph | 14 | SSE (164°) | 99504 | 101650 | 29.2°C | 48.1% | 17.1°C | 5554ft (1693m) | 13.5v | 31 |
| 6919 | 14 Apr 16:37:36 | 12 | 13.5 mph | 15 | SSE (167°) | 99502 | 101648 | 29.2°C | 48% | 17.1°C | 5568ft (1697m) | 13.47v | 31 |
| 6918 | 14 Apr 16:37:24 | 9 | 10.9 mph | 15 | SSW (192°) | 99499 | 101645 | 29.3°C | 48% | 17.2°C | 5571ft (1698m) | 13.42v | 31 |
| 6917 | 14 Apr 16:37:13 | 9 | 11.2 mph | 12 | SSW (192°) | 99506 | 101652 | 29.3°C | 47.9% | 17.1°C | 5585ft (1702m) | 13.51v | 31 |
| 6916 | 14 Apr 16:37:02 | 11 | 12.5 mph | 14 | S (189°) | 99504 | 101650 | 29.3°C | 47.9% | 17.1°C | 5585ft (1702m) | 13.47v | 31 |
| 6915 | 14 Apr 16:36:51 | 9 | 10.2 mph | 12 | S (178°) | 99509 | 101655 | 29.3°C | 47.9% | 17.1°C | 5585ft (1702m) | 13.44v | 31 |
| 6914 | 14 Apr 16:36:39 | 11 | 12.2 mph | 14 | S (182°) | 99503 | 101649 | 29.3°C | 47.8% | 17.1°C | 5598ft (1706m) | 13.46v | 31 |
| 6913 | 14 Apr 16:36:28 | 10 | 11.6 mph | 14 | S (189°) | 99505 | 101651 | 29.3°C | 47.8% | 17.1°C | 5598ft (1706m) | 13.44v | 31 |
| 6912 | 14 Apr 16:36:17 | 9 | 9.9 mph | 13 | S (182°) | 99503 | 101649 | 29.3°C | 47.9% | 17.1°C | 5585ft (1702m) | 13.47v | 31 |
| 6911 | 14 Apr 16:36:06 | 8 | 9.6 mph | 11 | S (188°) | 99505 | 101651 | 29.3°C | 47.9% | 17.1°C | 5585ft (1702m) | 13.45v | 31 |
| 6910 | 14 Apr 16:35:54 | 7 | 9.5 mph | 12 | S (184°) | 99509 | 101655 | 29.4°C | 47.8% | 17.2°C | 5602ft (1707m) | 13.44v | 31 |
| 6909 | 14 Apr 16:35:43 | 7 | 8.3 mph | 11 | S (188°) | 99509 | 101655 | 29.4°C | 47.8% | 17.2°C | 5602ft (1707m) | 13.44v | 31 |
| 6908 | 14 Apr 16:35:32 | 6 | 6.9 mph | 8 | SSW (192°) | 99508 | 101654 | 29.3°C | 47.7% | 17.1°C | 5612ft (1711m) | 13.46v | 31 |
| 6907 | 14 Apr 16:35:21 | 6 | 8.1 mph | 10 | S (182°) | 99506 | 101652 | 29.4°C | 47.6% | 17.1°C | 5629ft (1716m) | 13.46v | 31 |
| 6906 | 14 Apr 16:35:09 | 9 | 9.3 mph | 11 | SSW (200°) | 99506 | 101652 | 29.4°C | 47.4% | 17°C | 5657ft (1724m) | 13.45v | 31 |
| 6905 | 14 Apr 16:34:58 | 11 | 13.7 mph | 15 | S (182°) | 99505 | 101651 | 29.4°C | 47.4% | 17°C | 5657ft (1724m) | 13.45v | 31 |
| 6904 | 14 Apr 16:34:47 | 10 | 10.8 mph | 12 | SSW (199°) | 99500 | 101646 | 29.4°C | 47.4% | 17°C | 5657ft (1724m) | 13.47v | 31 |
| 6903 | 14 Apr 16:34:36 | 9 | 10.5 mph | 14 | S (177°) | 99501 | 101647 | 29.4°C | 47.3% | 17°C | 5670ft (1728m) | 13.47v | 31 |
| 6902 | 14 Apr 16:34:24 | 10 | 11.8 mph | 13 | SSW (202°) | 99504 | 101650 | 29.4°C | 47.2% | 17°C | 5684ft (1732m) | 13.47v | 31 |
| 6901 | 14 Apr 16:34:13 | 9 | 10.2 mph | 12 | S (184°) | 99499 | 101645 | 29.5°C | 47.3% | 17.1°C | 5674ft (1729m) | 13.5v | 31 |
| 6900 | 14 Apr 16:34:02 | 9 | 9.2 mph | 11 | SSW (194°) | 99501 | 101647 | 29.5°C | 47.1% | 17°C | 5701ft (1738m) | 13.48v | 31 |
| 6899 | 14 Apr 16:33:51 | 10 | 12 mph | 14 | S (189°) | 99499 | 101645 | 29.5°C | 47.1% | 17°C | 5701ft (1738m) | 13.45v | 31 |
| 6898 | 14 Apr 16:33:39 | 10 | 11.6 mph | 14 | S (189°) | 99500 | 101646 | 29.5°C | 47% | 17°C | 5715ft (1742m) | 13.44v | 31 |
| 6897 | 14 Apr 16:33:28 | 5 | 8.5 mph | 11 | S (190°) | 99494 | 101640 | 29.5°C | 47% | 17°C | 5715ft (1742m) | 13.44v | 31 |
| 6896 | 14 Apr 16:33:17 | 5 | 8.6 mph | 13 | SSW (193°) | 99496 | 101642 | 29.5°C | 46.8% | 16.9°C | 5743ft (1750m) | 13.46v | 31 |
| 6895 | 14 Apr 16:33:06 | 7 | 7.9 mph | 9 | S (180°) | 99501 | 101647 | 29.5°C | 46.9% | 17°C | 5729ft (1746m) | 13.49v | 31 |
| 6894 | 14 Apr 16:32:54 | 9 | 9.9 mph | 12 | S (191°) | 99497 | 101643 | 29.5°C | 46.7% | 16.9°C | 5756ft (1754m) | 13.51v | 31 |
| 6893 | 14 Apr 16:32:43 | 9 | 10.5 mph | 13 | S (185°) | 99498 | 101644 | 29.5°C | 46.8% | 16.9°C | 5743ft (1750m) | 13.5v | 31 |
| 6892 | 14 Apr 16:32:32 | 10 | 10.3 mph | 13 | S (181°) | 99499 | 101645 | 29.5°C | 46.7% | 16.9°C | 5756ft (1754m) | 13.45v | 31 |
| 6891 | 14 Apr 16:32:21 | 10 | 11.2 mph | 13 | S (182°) | 99500 | 101646 | 29.5°C | 46.7% | 16.9°C | 5756ft (1754m) | 13.46v | 31 |
| 6890 | 14 Apr 16:32:09 | 10 | 13.4 mph | 16 | S (183°) | 99500 | 101646 | 29.5°C | 46.5% | 16.8°C | 5784ft (1763m) | 13.5v | 31 |
| 6889 | 14 Apr 16:31:58 | 10 | 12.4 mph | 14 | S (171°) | 99499 | 101645 | 29.5°C | 46.5% | 16.8°C | 5784ft (1763m) | 13.47v | 31 |
| 6888 | 14 Apr 16:31:47 | 7 | 10.1 mph | 13 | S (183°) | 99495 | 101641 | 29.5°C | 46.5% | 16.8°C | 5784ft (1763m) | 13.41v | 31 |
| 6887 | 14 Apr 16:31:36 | 7 | 10.5 mph | 14 | S (183°) | 99496 | 101642 | 29.6°C | 46.5% | 16.9°C | 5788ft (1764m) | 13.47v | 31 |
| 6886 | 14 Apr 16:31:24 | 9 | 10.5 mph | 13 | S (184°) | 99496 | 101642 | 29.6°C | 46.4% | 16.9°C | 5802ft (1768m) | 13.44v | 31 |
| 6885 | 14 Apr 16:31:13 | 7 | 8.3 mph | 10 | SSW (198°) | 99501 | 101647 | 29.6°C | 46.5% | 16.9°C | 5788ft (1764m) | 13.44v | 31 |
| 6884 | 14 Apr 16:31:02 | 6 | 8.6 mph | 12 | S (180°) | 99497 | 101643 | 29.6°C | 46.4% | 16.9°C | 5802ft (1768m) | 13.46v | 31 |
| 6883 | 14 Apr 16:30:51 | 10 | 11.6 mph | 13 | S (183°) | 99491 | 101637 | 29.6°C | 46.2% | 16.8°C | 5830ft (1777m) | 13.42v | 31 |
| 6882 | 14 Apr 16:30:39 | 9 | 11 mph | 14 | S (176°) | 99496 | 101642 | 29.6°C | 46.2% | 16.8°C | 5830ft (1777m) | 13.44v | 31 |
| 6881 | 14 Apr 16:30:28 | 11 | 10.9 mph | 15 | S (182°) | 99499 | 101645 | 29.6°C | 46.4% | 16.9°C | 5802ft (1768m) | 13.44v | 31 |
| 6880 | 14 Apr 16:30:17 | 7 | 8 mph | 11 | SSW (197°) | 99496 | 101642 | 29.6°C | 46.5% | 16.9°C | 5788ft (1764m) | 13.45v | 31 |
| 6879 | 14 Apr 16:30:06 | 6 | 10 mph | 15 | S (185°) | 99498 | 101644 | 29.7°C | 46.4% | 17°C | 5806ft (1770m) | 13.41v | 31 |
| 6878 | 14 Apr 16:29:54 | 11 | 12.9 mph | 16 | S (187°) | 99496 | 101642 | 29.7°C | 46.3% | 16.9°C | 5820ft (1774m) | 13.41v | 31 |
| 6877 | 14 Apr 16:29:43 | 6 | 8.9 mph | 12 | S (184°) | 99498 | 101644 | 29.7°C | 46.3% | 16.9°C | 5820ft (1774m) | 13.4v | 31 |
| 6876 | 14 Apr 16:29:32 | 9 | 11 mph | 13 | SSW (193°) | 99490 | 101636 | 29.7°C | 46.1% | 16.9°C | 5848ft (1782m) | 13.42v | 31 |
| 6875 | 14 Apr 16:29:21 | 11 | 12.3 mph | 16 | S (184°) | 99494 | 101640 | 29.7°C | 46.1% | 16.9°C | 5848ft (1782m) | 13.42v | 31 |
| 6874 | 14 Apr 16:29:09 | 8 | 11.5 mph | 14 | S (182°) | 99486 | 101632 | 29.7°C | 46.2% | 16.9°C | 5834ft (1778m) | 13.4v | 31 |
| 6873 | 14 Apr 16:28:58 | 11 | 11.4 mph | 12 | SSW (193°) | 99493 | 101639 | 29.7°C | 46.2% | 16.9°C | 5834ft (1778m) | 13.42v | 31 |
| 6872 | 14 Apr 16:28:47 | 9 | 10.2 mph | 13 | S (186°) | 99498 | 101644 | 29.8°C | 46.4% | 17.1°C | 5810ft (1771m) | 13.42v | 31 |
| 6871 | 14 Apr 16:28:36 | 8 | 9 mph | 11 | SSW (194°) | 99489 | 101635 | 29.8°C | 46.2% | 17°C | 5838ft (1779m) | 13.42v | 31 |
| 6870 | 14 Apr 16:28:24 | 8 | 8.6 mph | 11 | S (177°) | 99496 | 101642 | 29.7°C | 46.2% | 16.9°C | 5834ft (1778m) | 13.42v | 31 |
| 6869 | 14 Apr 16:28:13 | 11 | 11.9 mph | 13 | S (181°) | 99495 | 101641 | 29.8°C | 46.1% | 17°C | 5852ft (1784m) | 13.39v | 31 |
| 6868 | 14 Apr 16:28:02 | 8 | 10.5 mph | 13 | S (188°) | 99497 | 101643 | 29.8°C | 46.1% | 17°C | 5852ft (1784m) | 13.42v | 31 |
| 6867 | 14 Apr 16:27:51 | 8 | 8.7 mph | 11 | SSW (198°) | 99497 | 101643 | 29.8°C | 45.9% | 16.9°C | 5880ft (1792m) | 13.43v | 31 |
| 6866 | 14 Apr 16:27:39 | 7 | 8.9 mph | 11 | SSW (196°) | 99489 | 101635 | 29.8°C | 45.9% | 16.9°C | 5880ft (1792m) | 13.45v | 31 |
| 6865 | 14 Apr 16:27:28 | 12 | 13.3 mph | 15 | S (176°) | 99493 | 101639 | 29.8°C | 45.9% | 16.9°C | 5880ft (1792m) | 13.4v | 31 |
| 6864 | 14 Apr 16:27:17 | 11 | 12.8 mph | 16 | S (191°) | 99489 | 101635 | 29.8°C | 45.8% | 16.9°C | 5894ft (1796m) | 13.45v | 31 |
| 6863 | 14 Apr 16:27:06 | 11 | 11.9 mph | 15 | S (186°) | 99494 | 101640 | 29.8°C | 45.7% | 16.8°C | 5908ft (1801m) | 13.39v | 31 |
| 6862 | 14 Apr 16:26:54 | 7 | 9.7 mph | 13 | S (171°) | 99489 | 101635 | 29.8°C | 45.8% | 16.9°C | 5894ft (1796m) | 13.45v | 31 |
| 6861 | 14 Apr 16:26:43 | 8 | 8.9 mph | 10 | S (178°) | 99492 | 101638 | 29.8°C | 45.8% | 16.9°C | 5894ft (1796m) | 13.4v | 31 |
| 6860 | 14 Apr 16:26:32 | 7 | 7.9 mph | 10 | SSW (208°) | 99495 | 101641 | 29.8°C | 45.7% | 16.8°C | 5908ft (1801m) | 13.42v | 31 |
| 6859 | 14 Apr 16:26:21 | 6 | 7.5 mph | 9 | S (178°) | 99488 | 101634 | 29.8°C | 45.6% | 16.8°C | 5922ft (1805m) | 13.43v | 31 |
| 6858 | 14 Apr 16:26:09 | 7 | 8.6 mph | 10 | S (184°) | 99495 | 101641 | 29.8°C | 45.6% | 16.8°C | 5922ft (1805m) | 13.42v | 31 |
| 6857 | 14 Apr 16:25:58 | 13 | 13.7 mph | 16 | S (178°) | 99486 | 101632 | 29.8°C | 45.5% | 16.8°C | 5936ft (1809m) | 13.4v | 31 |
| 6856 | 14 Apr 16:25:47 | 10 | 11.2 mph | 14 | S (174°) | 99496 | 101642 | 29.8°C | 45.5% | 16.8°C | 5936ft (1809m) | 13.46v | 31 |
| 6855 | 14 Apr 16:25:36 | 5 | 10 mph | 17 | S (176°) | 99486 | 101632 | 29.8°C | 45.5% | 16.8°C | 5936ft (1809m) | 13.41v | 31 |
| 6854 | 14 Apr 16:25:24 | 6 | 7.3 mph | 9 | S (186°) | 99493 | 101639 | 29.8°C | 45.5% | 16.8°C | 5936ft (1809m) | 13.37v | 31 |
| 6853 | 14 Apr 16:25:13 | 6 | 7.6 mph | 10 | S (169°) | 99494 | 101640 | 29.8°C | 45.3% | 16.7°C | 5965ft (1818m) | 13.39v | 31 |
| 6852 | 14 Apr 16:25:02 | 7 | 9.6 mph | 13 | S (187°) | 99494 | 101640 | 29.8°C | 45% | 16.6°C | 6008ft (1831m) | 13.44v | 31 |
| 6851 | 14 Apr 16:24:51 | 5 | 8.2 mph | 10 | S (177°) | 99494 | 101640 | 29.8°C | 45.1% | 16.6°C | 5993ft (1827m) | 13.44v | 31 |
| 6850 | 14 Apr 16:24:39 | 8 | 10.3 mph | 13 | SSW (192°) | 99493 | 101639 | 29.9°C | 44.9% | 16.6°C | 6026ft (1837m) | 13.4v | 31 |
| 6849 | 14 Apr 16:24:28 | 11 | 11.9 mph | 14 | SSW (195°) | 99485 | 101631 | 29.9°C | 44.7% | 16.6°C | 6055ft (1846m) | 13.38v | 31 |
| 6848 | 14 Apr 16:24:17 | 9 | 10.6 mph | 14 | SSW (199°) | 99493 | 101639 | 29.9°C | 44.7% | 16.6°C | 6055ft (1846m) | 13.45v | 31 |
| 6847 | 14 Apr 16:24:06 | 7 | 10.4 mph | 12 | SSW (192°) | 99486 | 101632 | 29.9°C | 44.8% | 16.6°C | 6040ft (1841m) | 13.37v | 31 |
| 6846 | 14 Apr 16:23:54 | 6 | 7.6 mph | 9 | S (190°) | 99490 | 101636 | 29.9°C | 44.8% | 16.6°C | 6040ft (1841m) | 13.39v | 31 |
| 6845 | 14 Apr 16:23:43 | 7 | 9.5 mph | 14 | S (183°) | 99494 | 101640 | 29.9°C | 44.6% | 16.5°C | 6069ft (1850m) | 13.4v | 31 |
| 6844 | 14 Apr 16:23:32 | 10 | 11.2 mph | 15 | S (182°) | 99481 | 101627 | 29.9°C | 44.5% | 16.5°C | 6084ft (1854m) | 13.43v | 31 |
| 6843 | 14 Apr 16:23:21 | 9 | 11 mph | 14 | SSW (195°) | 99495 | 101641 | 29.9°C | 44.4% | 16.5°C | 6098ft (1859m) | 13.45v | 31 |
| 6842 | 14 Apr 16:23:09 | 11 | 12.7 mph | 16 | S (185°) | 99483 | 101629 | 29.9°C | 44.4% | 16.5°C | 6098ft (1859m) | 13.43v | 31 |
| 6841 | 14 Apr 16:22:58 | 9 | 10.9 mph | 14 | S (179°) | 99476 | 101622 | 29.9°C | 44.3% | 16.4°C | 6113ft (1863m) | 13.42v | 31 |
| 6840 | 14 Apr 16:22:47 | 12 | 14 mph | 16 | S (188°) | 99491 | 101637 | 30°C | 44.3% | 16.5°C | 6117ft (1864m) | 13.39v | 31 |
| 6839 | 14 Apr 16:22:36 | 10 | 11.1 mph | 14 | S (177°) | 99486 | 101632 | 30°C | 44.4% | 16.6°C | 6102ft (1860m) | 13.45v | 31 |
| 6838 | 14 Apr 16:22:24 | 12 | 14.7 mph | 16 | S (179°) | 99481 | 101627 | 30°C | 44.4% | 16.6°C | 6102ft (1860m) | 13.39v | 31 |
| 6837 | 14 Apr 16:22:13 | 9 | 10.8 mph | 14 | S (185°) | 99481 | 101627 | 30°C | 44.4% | 16.6°C | 6102ft (1860m) | 13.43v | 31 |
| 6836 | 14 Apr 16:22:02 | 10 | 12.3 mph | 17 | S (182°) | 99489 | 101635 | 30°C | 44.3% | 16.5°C | 6117ft (1864m) | 13.39v | 31 |
| 6835 | 14 Apr 16:21:51 | 12 | 14 mph | 17 | S (190°) | 99488 | 101634 | 30°C | 44.2% | 16.5°C | 6131ft (1869m) | 13.45v | 31 |
| 6834 | 14 Apr 16:21:39 | 14 | 15.3 mph | 17 | S (189°) | 99486 | 101632 | 30°C | 44.1% | 16.4°C | 6146ft (1873m) | 13.41v | 31 |
| 6833 | 14 Apr 16:21:28 | 7 | 11.1 mph | 17 | SSW (196°) | 99484 | 101630 | 30°C | 44.1% | 16.4°C | 6146ft (1873m) | 13.41v | 31 |
| 6832 | 14 Apr 16:21:17 | 8 | 9.7 mph | 12 | SSW (192°) | 99491 | 101637 | 30°C | 44.1% | 16.4°C | 6146ft (1873m) | 13.46v | 31 |
| 6831 | 14 Apr 16:21:06 | 12 | 15.2 mph | 19 | S (183°) | 99481 | 101627 | 30°C | 44.2% | 16.5°C | 6131ft (1869m) | 13.41v | 31 |
| 6830 | 14 Apr 16:20:54 | 11 | 14.3 mph | 17 | S (174°) | 99471 | 101617 | 30°C | 44.1% | 16.4°C | 6146ft (1873m) | 13.38v | 31 |
| 6829 | 14 Apr 16:20:43 | 9 | 10.7 mph | 12 | S (182°) | 99495 | 101641 | 30°C | 44.2% | 16.5°C | 6131ft (1869m) | 13.4v | 31 |
| 6828 | 14 Apr 16:20:32 | 10 | 11.7 mph | 13 | SSW (198°) | 99491 | 101637 | 30°C | 44.2% | 16.5°C | 6131ft (1869m) | 13.46v | 31 |
| 6827 | 14 Apr 16:20:21 | 8 | 9.9 mph | 13 | S (183°) | 99493 | 101639 | 30.1°C | 44.3% | 16.6°C | 6121ft (1866m) | 13.44v | 31 |
| 6826 | 14 Apr 16:20:09 | 7 | 8.8 mph | 12 | SSW (194°) | 99484 | 101630 | 30.1°C | 44.4% | 16.6°C | 6106ft (1861m) | 13.39v | 31 |
| 6825 | 14 Apr 16:19:58 | 7 | 7.6 mph | 9 | SSW (200°) | 99491 | 101637 | 30.1°C | 44.1% | 16.5°C | 6150ft (1875m) | 13.43v | 31 |
| 6824 | 14 Apr 16:19:47 | 6 | 8.2 mph | 10 | S (190°) | 99492 | 101638 | 30.1°C | 44.1% | 16.5°C | 6150ft (1875m) | 13.38v | 31 |
| 6823 | 14 Apr 16:19:36 | 9 | 11.1 mph | 12 | S (190°) | 99490 | 101636 | 30.1°C | 44% | 16.5°C | 6164ft (1879m) | 13.42v | 31 |
| 6822 | 14 Apr 16:19:24 | 8 | 12.5 mph | 15 | S (191°) | 99480 | 101626 | 30.1°C | 43.9% | 16.5°C | 6179ft (1883m) | 13.37v | 31 |
| 6821 | 14 Apr 16:19:13 | 10 | 12 mph | 13 | S (174°) | 99484 | 101630 | 30.1°C | 44.1% | 16.5°C | 6150ft (1875m) | 13.4v | 31 |
| 6820 | 14 Apr 16:19:02 | 7 | 8.1 mph | 10 | S (186°) | 99489 | 101635 | 30.1°C | 44% | 16.5°C | 6164ft (1879m) | 13.4v | 31 |
| 6819 | 14 Apr 16:18:51 | 8 | 10.4 mph | 14 | SSW (201°) | 99486 | 101632 | 30.1°C | 43.9% | 16.5°C | 6179ft (1883m) | 13.38v | 31 |
| 6818 | 14 Apr 16:18:39 | 5 | 7.3 mph | 9 | S (191°) | 99489 | 101635 | 30.1°C | 43.9% | 16.5°C | 6179ft (1883m) | 13.4v | 31 |
| 6817 | 14 Apr 16:18:28 | 9 | 10.6 mph | 12 | SSW (201°) | 99485 | 101631 | 30.1°C | 43.8% | 16.4°C | 6194ft (1888m) | 13.42v | 31 |
| 6816 | 14 Apr 16:18:17 | 7 | 8.4 mph | 11 | S (186°) | 99486 | 101632 | 30.1°C | 43.9% | 16.5°C | 6179ft (1883m) | 13.41v | 31 |
| 6815 | 14 Apr 16:18:06 | 12 | 13.2 mph | 14 | SSW (193°) | 99491 | 101637 | 30.1°C | 43.7% | 16.4°C | 6209ft (1893m) | 13.36v | 31 |
| 6814 | 14 Apr 16:17:54 | 6 | 9.4 mph | 17 | S (182°) | 99474 | 101620 | 30.2°C | 43.8% | 16.5°C | 6198ft (1889m) | 13.39v | 31 |
| 6813 | 14 Apr 16:17:43 | 8 | 8.9 mph | 11 | S (189°) | 99489 | 101635 | 30.2°C | 43.8% | 16.5°C | 6198ft (1889m) | 13.39v | 31 |
| 6812 | 14 Apr 16:17:32 | 10 | 10.5 mph | 12 | S (187°) | 99485 | 101631 | 30.2°C | 43.7% | 16.5°C | 6213ft (1894m) | 13.39v | 31 |
| 6811 | 14 Apr 16:17:21 | 7 | 8.7 mph | 11 | S (186°) | 99486 | 101632 | 30.2°C | 43.7% | 16.5°C | 6213ft (1894m) | 13.4v | 31 |
| 6810 | 14 Apr 16:17:09 | 7 | 8.6 mph | 13 | SSW (195°) | 99490 | 101636 | 30.2°C | 43.6% | 16.5°C | 6227ft (1898m) | 13.42v | 31 |
| 6809 | 14 Apr 16:16:58 | 7 | 8.8 mph | 10 | S (182°) | 99485 | 101631 | 30.2°C | 43.5% | 16.4°C | 6242ft (1903m) | 13.4v | 31 |
| 6808 | 14 Apr 16:16:47 | 9 | 10.5 mph | 12 | S (183°) | 99486 | 101632 | 30.2°C | 43.5% | 16.4°C | 6242ft (1903m) | 13.41v | 31 |
| 6807 | 14 Apr 16:16:36 | 10 | 10.8 mph | 13 | S (179°) | 99490 | 101636 | 30.2°C | 43.7% | 16.5°C | 6213ft (1894m) | 13.41v | 31 |
| 6806 | 14 Apr 16:16:24 | 10 | 12 mph | 17 | S (179°) | 99477 | 101623 | 30.2°C | 43.6% | 16.5°C | 6227ft (1898m) | 13.38v | 31 |
| 6805 | 14 Apr 16:16:13 | 7 | 10.7 mph | 15 | SSW (195°) | 99485 | 101631 | 30.2°C | 43.6% | 16.5°C | 6227ft (1898m) | 13.39v | 31 |
| 6804 | 14 Apr 16:16:02 | 5 | 8.1 mph | 11 | SSW (199°) | 99484 | 101630 | 30.2°C | 43.8% | 16.5°C | 6198ft (1889m) | 13.38v | 31 |
| 6803 | 14 Apr 16:15:51 | 6 | 8.5 mph | 11 | S (178°) | 99487 | 101633 | 30.3°C | 43.5% | 16.5°C | 6246ft (1904m) | 13.4v | 31 |
| 6802 | 14 Apr 16:15:39 | 8 | 10.9 mph | 14 | SSW (197°) | 99488 | 101634 | 30.3°C | 43.3% | 16.4°C | 6276ft (1913m) | 13.39v | 31 |
| 6801 | 14 Apr 16:15:28 | 9 | 12.2 mph | 14 | SSW (193°) | 99487 | 101633 | 30.3°C | 43.1% | 16.4°C | 6306ft (1922m) | 13.38v | 31 |
| 6800 | 14 Apr 16:15:17 | 6 | 9.7 mph | 16 | S (186°) | 99487 | 101633 | 30.3°C | 43.1% | 16.4°C | 6306ft (1922m) | 13.39v | 31 |
| 6799 | 14 Apr 16:15:06 | 10 | 12.5 mph | 15 | S (182°) | 99473 | 101619 | 30.3°C | 43% | 16.3°C | 6321ft (1927m) | 13.38v | 31 |
| 6798 | 14 Apr 16:14:54 | 8 | 11.5 mph | 14 | S (182°) | 99484 | 101630 | 30.3°C | 43% | 16.3°C | 6321ft (1927m) | 13.41v | 31 |
| 6797 | 14 Apr 16:14:43 | 12 | 13.7 mph | 17 | S (179°) | 99475 | 101621 | 30.3°C | 43.1% | 16.4°C | 6306ft (1922m) | 13.36v | 31 |
| 6796 | 14 Apr 16:14:32 | 14 | 14.9 mph | 16 | S (173°) | 99490 | 101636 | 30.3°C | 43.2% | 16.4°C | 6291ft (1917m) | 13.39v | 31 |
| 6795 | 14 Apr 16:14:21 | 7 | 8.1 mph | 10 | S (188°) | 99484 | 101630 | 30.4°C | 43.3% | 16.5°C | 6280ft (1914m) | 13.33v | 31 |
| 6794 | 14 Apr 16:14:09 | 8 | 8.7 mph | 11 | S (183°) | 99486 | 101632 | 30.3°C | 43.2% | 16.4°C | 6291ft (1917m) | 13.41v | 31 |
| 6793 | 14 Apr 16:13:58 | 6 | 7.1 mph | 9 | S (185°) | 99487 | 101633 | 30.4°C | 43.3% | 16.5°C | 6280ft (1914m) | 13.34v | 31 |
| 6792 | 14 Apr 16:13:47 | 10 | 10.7 mph | 12 | S (188°) | 99484 | 101630 | 30.4°C | 43.1% | 16.4°C | 6310ft (1923m) | 13.4v | 31 |
| 6791 | 14 Apr 16:13:36 | 10 | 11.1 mph | 12 | S (180°) | 99483 | 101629 | 30.4°C | 43.2% | 16.5°C | 6295ft (1919m) | 13.36v | 31 |
| 6790 | 14 Apr 16:13:24 | 9 | 14.3 mph | 17 | S (183°) | 99485 | 101631 | 30.4°C | 43.3% | 16.5°C | 6280ft (1914m) | 13.32v | 31 |
| 6789 | 14 Apr 16:13:13 | 7 | 9.4 mph | 13 | S (188°) | 99477 | 101623 | 30.4°C | 43.5% | 16.6°C | 6250ft (1905m) | 13.39v | 31 |
| 6788 | 14 Apr 16:13:02 | 10 | 12.4 mph | 18 | SSW (207°) | 99486 | 101632 | 30.4°C | 43.4% | 16.6°C | 6265ft (1910m) | 13.33v | 31 |
| 6787 | 14 Apr 16:12:51 | 9 | 10.7 mph | 13 | SSW (198°) | 99487 | 101633 | 30.5°C | 43.4% | 16.6°C | 6269ft (1911m) | 13.42v | 31 |
| 6786 | 14 Apr 16:12:39 | 9 | 10.1 mph | 13 | S (187°) | 99481 | 101627 | 30.4°C | 43.2% | 16.5°C | 6295ft (1919m) | 13.33v | 31 |
| 6785 | 14 Apr 16:12:28 | 5 | 5.7 mph | 8 | SSW (207°) | 99484 | 101630 | 30.5°C | 43.1% | 16.5°C | 6314ft (1925m) | 13.39v | 31 |
| 6784 | 14 Apr 16:12:17 | 8 | 9.6 mph | 12 | S (187°) | 99482 | 101628 | 30.5°C | 42.9% | 16.5°C | 6344ft (1934m) | 13.35v | 31 |
| 6783 | 14 Apr 16:12:06 | 12 | 14.3 mph | 17 | S (189°) | 99486 | 101632 | 30.5°C | 43.3% | 16.6°C | 6284ft (1915m) | 13.4v | 31 |
| 6782 | 14 Apr 16:11:54 | 6 | 8.6 mph | 13 | S (171°) | 99471 | 101617 | 30.5°C | 43.4% | 16.6°C | 6269ft (1911m) | 13.34v | 31 |
| 6781 | 14 Apr 16:11:43 | 8 | 11.6 mph | 16 | S (187°) | 99483 | 101629 | 30.5°C | 43.3% | 16.6°C | 6284ft (1915m) | 13.34v | 31 |
| 6780 | 14 Apr 16:11:32 | 10 | 11 mph | 13 | S (174°) | 99478 | 101624 | 30.5°C | 43.6% | 16.7°C | 6240ft (1902m) | 13.36v | 31 |
| 6779 | 14 Apr 16:11:21 | 14 | 15.1 mph | 17 | S (188°) | 99473 | 101619 | 30.6°C | 43.8% | 16.9°C | 6214ft (1894m) | 13.37v | 31 |
| 6778 | 14 Apr 16:11:09 | 12 | 16.1 mph | 19 | S (175°) | 99466 | 101611 | 30.6°C | 43.9% | 16.9°C | 6199ft (1889m) | 13.4v | 31 |
| 6777 | 14 Apr 16:10:58 | 11 | 12.2 mph | 15 | SSW (198°) | 99474 | 101620 | 30.6°C | 44% | 17°C | 6185ft (1885m) | 13.39v | 31 |
| 6776 | 14 Apr 16:10:47 | 13 | 13.9 mph | 15 | S (183°) | 99470 | 101616 | 30.6°C | 43.9% | 16.9°C | 6199ft (1889m) | 13.37v | 31 |
| 6775 | 14 Apr 16:10:36 | 10 | 15 mph | 19 | S (182°) | 99468 | 101614 | 30.7°C | 44.1% | 17.1°C | 6174ft (1882m) | 13.34v | 31 |
| 6774 | 14 Apr 16:10:24 | 8 | 9.2 mph | 11 | SSW (204°) | 99481 | 101627 | 30.7°C | 44.3% | 17.2°C | 6145ft (1873m) | 13.37v | 31 |
| 6773 | 14 Apr 16:10:13 | 7 | 8.3 mph | 11 | SSW (192°) | 99480 | 101626 | 30.7°C | 44.2% | 17.1°C | 6159ft (1877m) | 13.36v | 31 |
| 6772 | 14 Apr 16:10:02 | 6 | 8.5 mph | 11 | SSW (206°) | 99478 | 101624 | 30.7°C | 44.3% | 17.2°C | 6145ft (1873m) | 13.34v | 31 |
| 6771 | 14 Apr 16:09:51 | 5 | 5.3 mph | 7 | SSW (195°) | 99475 | 101621 | 30.7°C | 44.1% | 17.1°C | 6174ft (1882m) | 13.38v | 31 |
| 6770 | 14 Apr 16:09:39 | 8 | 10.7 mph | 14 | S (180°) | 99483 | 101629 | 30.7°C | 43.9% | 17°C | 6204ft (1891m) | 13.38v | 31 |
| 6769 | 14 Apr 16:09:28 | 9 | 11 mph | 14 | S (183°) | 99474 | 101620 | 30.7°C | 44.1% | 17.1°C | 6174ft (1882m) | 13.42v | 31 |
| 6768 | 14 Apr 16:09:17 | 10 | 11.7 mph | 14 | SSW (192°) | 99484 | 101630 | 30.8°C | 43.9% | 17.1°C | 6208ft (1892m) | 13.37v | 31 |
| 6767 | 14 Apr 16:09:06 | 9 | 12.2 mph | 14 | S (179°) | 99479 | 101625 | 30.8°C | 43.9% | 17.1°C | 6208ft (1892m) | 13.34v | 31 |
| 6766 | 14 Apr 16:08:54 | 9 | 10.8 mph | 16 | S (186°) | 99476 | 101622 | 30.8°C | 43.8% | 17.1°C | 6222ft (1896m) | 13.37v | 31 |
| 6765 | 14 Apr 16:08:43 | 9 | 13.3 mph | 17 | S (190°) | 99466 | 101611 | 30.8°C | 43.8% | 17.1°C | 6222ft (1896m) | 13.33v | 31 |
| 6764 | 14 Apr 16:08:32 | 10 | 11.6 mph | 15 | S (189°) | 99479 | 101625 | 30.8°C | 43.6% | 17°C | 6252ft (1906m) | 13.34v | 31 |
| 6763 | 14 Apr 16:08:21 | 7 | 7.6 mph | 9 | S (183°) | 99476 | 101622 | 30.9°C | 43.8% | 17.2°C | 6227ft (1898m) | 13.3v | 31 |
| 6762 | 14 Apr 16:08:09 | 8 | 8.6 mph | 10 | SSW (197°) | 99478 | 101624 | 30.9°C | 43.7% | 17.1°C | 6241ft (1902m) | 13.37v | 31 |
| 6761 | 14 Apr 16:07:58 | 8 | 10.8 mph | 14 | SSW (193°) | 99475 | 101621 | 30.8°C | 43.6% | 17°C | 6252ft (1906m) | 13.3v | 31 |
| 6760 | 14 Apr 16:07:47 | 7 | 8 mph | 10 | SSW (204°) | 99479 | 101625 | 30.9°C | 43.6% | 17.1°C | 6256ft (1907m) | 13.34v | 31 |
| 6759 | 14 Apr 16:07:36 | 6 | 9 mph | 11 | SSW (195°) | 99478 | 101624 | 30.9°C | 43.3% | 17°C | 6301ft (1921m) | 13.3v | 31 |
| 6758 | 14 Apr 16:07:24 | 11 | 10.8 mph | 12 | SSW (207°) | 99481 | 101627 | 30.9°C | 43.3% | 17°C | 6301ft (1921m) | 13.35v | 31 |
| 6757 | 14 Apr 16:07:13 | 10 | 10.3 mph | 12 | SSW (194°) | 99474 | 101620 | 30.9°C | 43.2% | 16.9°C | 6316ft (1925m) | 13.32v | 31 |
| 6756 | 14 Apr 16:07:02 | 12 | 13.5 mph | 15 | SSW (192°) | 99476 | 101622 | 30.9°C | 43% | 16.9°C | 6346ft (1934m) | 13.3v | 31 |
| 6755 | 14 Apr 16:06:51 | 10 | 12.2 mph | 15 | S (178°) | 99477 | 101623 | 30.9°C | 42.9% | 16.8°C | 6361ft (1939m) | 13.32v | 31 |
| 6754 | 14 Apr 16:06:39 | 13 | 16.5 mph | 20 | SSW (192°) | 99474 | 101620 | 31°C | 42.9% | 16.9°C | 6365ft (1940m) | 13.34v | 31 |
| 6753 | 14 Apr 16:06:28 | 9 | 13.6 mph | 16 | S (184°) | 99482 | 101628 | 31°C | 43% | 17°C | 6350ft (1935m) | 13.34v | 31 |
| 6752 | 14 Apr 16:06:17 | 16 | 16.2 mph | 19 | SSW (199°) | 99473 | 101619 | 31°C | 42.6% | 16.8°C | 6410ft (1954m) | 13.32v | 31 |
| 6751 | 14 Apr 16:06:06 | 10 | 13.2 mph | 16 | SSW (199°) | 99462 | 101607 | 31.1°C | 42.7% | 16.9°C | 6399ft (1950m) | 13.3v | 31 |
| 6750 | 14 Apr 16:05:54 | 12 | 14 mph | 16 | S (191°) | 99483 | 101629 | 31.1°C | 42.7% | 16.9°C | 6399ft (1950m) | 13.32v | 31 |
| 6749 | 14 Apr 16:05:43 | 12 | 14.2 mph | 16 | S (188°) | 99482 | 101628 | 31.1°C | 42.7% | 16.9°C | 6399ft (1950m) | 13.31v | 31 |
| 6748 | 14 Apr 16:05:32 | 10 | 13.1 mph | 16 | S (176°) | 99475 | 101621 | 31.1°C | 42.6% | 16.9°C | 6415ft (1955m) | 13.33v | 31 |
| 6747 | 14 Apr 16:05:21 | 11 | 13.8 mph | 18 | S (182°) | 99474 | 101620 | 31.2°C | 42.6% | 17°C | 6419ft (1957m) | 13.3v | 31 |
| 6746 | 14 Apr 16:05:09 | 5 | 8.3 mph | 12 | SSW (195°) | 99484 | 101630 | 31.2°C | 42.6% | 17°C | 6419ft (1957m) | 13.33v | 31 |
| 6745 | 14 Apr 16:04:58 | 9 | 10.3 mph | 14 | S (190°) | 99482 | 101628 | 31.2°C | 42.3% | 16.9°C | 6465ft (1971m) | 13.35v | 31 |
| 6744 | 14 Apr 16:04:47 | 8 | 9.9 mph | 14 | SSW (199°) | 99468 | 101614 | 31.2°C | 42.2% | 16.8°C | 6480ft (1975m) | 13.3v | 31 |
| 6743 | 14 Apr 16:04:36 | 9 | 11.3 mph | 14 | S (180°) | 99481 | 101627 | 31.2°C | 42.1% | 16.8°C | 6495ft (1980m) | 13.35v | 31 |
| 6742 | 14 Apr 16:04:24 | 13 | 14.9 mph | 17 | S (182°) | 99480 | 101626 | 31.3°C | 42% | 16.8°C | 6515ft (1986m) | 13.3v | 31 |
| 6741 | 14 Apr 16:04:13 | 7 | 9.7 mph | 13 | S (171°) | 99484 | 101630 | 31.3°C | 42.3% | 17°C | 6469ft (1972m) | 13.31v | 31 |
| 6740 | 14 Apr 16:04:02 | 11 | 11.9 mph | 13 | S (180°) | 99479 | 101625 | 31.3°C | 42.3% | 17°C | 6469ft (1972m) | 13.34v | 31 |
| 6739 | 14 Apr 16:03:51 | 10 | 12.4 mph | 16 | S (178°) | 99488 | 101634 | 31.3°C | 42.2% | 16.9°C | 6484ft (1976m) | 13.33v | 31 |
| 6738 | 14 Apr 16:03:39 | 8 | 9.5 mph | 12 | SSW (201°) | 99484 | 101630 | 31.3°C | 42.1% | 16.9°C | 6499ft (1981m) | 13.32v | 31 |
| 6737 | 14 Apr 16:03:28 | 13 | 15.1 mph | 17 | S (182°) | 99486 | 101632 | 31.4°C | 41.9% | 16.9°C | 6535ft (1992m) | 13.29v | 31 |
| 6736 | 14 Apr 16:03:17 | 16 | 16.8 mph | 20 | S (173°) | 99469 | 101615 | 31.4°C | 42% | 16.9°C | 6519ft (1987m) | 13.36v | 31 |
| 6735 | 14 Apr 16:03:06 | 10 | 11.7 mph | 18 | S (169°) | 99473 | 101619 | 31.4°C | 42.1% | 17°C | 6504ft (1982m) | 13.29v | 31 |
| 6734 | 14 Apr 16:02:54 | 11 | 12.2 mph | 14 | SSW (204°) | 99478 | 101624 | 31.4°C | 42.1% | 17°C | 6504ft (1982m) | 13.35v | 31 |
| 6733 | 14 Apr 16:02:43 | 9 | 11.4 mph | 16 | S (186°) | 99478 | 101624 | 31.5°C | 42.1% | 17.1°C | 6508ft (1984m) | 13.33v | 31 |
| 6732 | 14 Apr 16:02:32 | 11 | 11.7 mph | 14 | S (187°) | 99477 | 101623 | 31.5°C | 41.9% | 17°C | 6539ft (1993m) | 13.29v | 31 |
| 6731 | 14 Apr 16:02:21 | 14 | 14.6 mph | 16 | S (182°) | 99469 | 101615 | 31.5°C | 41.9% | 17°C | 6539ft (1993m) | 13.29v | 31 |
| 6730 | 14 Apr 16:02:09 | 9 | 12.6 mph | 15 | S (181°) | 99479 | 101625 | 31.6°C | 41.9% | 17.1°C | 6543ft (1994m) | 13.3v | 31 |
| 6729 | 14 Apr 16:01:58 | 7 | 8.9 mph | 12 | SSW (192°) | 99481 | 101627 | 31.6°C | 41.6% | 17°C | 6590ft (2009m) | 13.3v | 31 |
| 6728 | 14 Apr 16:01:47 | 8 | 13.1 mph | 17 | S (179°) | 99483 | 101629 | 31.6°C | 41.5% | 16.9°C | 6605ft (2013m) | 13.32v | 31 |
| 6727 | 14 Apr 16:01:36 | 7 | 10.5 mph | 15 | S (186°) | 99493 | 101639 | 31.6°C | 41.6% | 17°C | 6590ft (2009m) | 13.29v | 31 |
| 6726 | 14 Apr 16:01:24 | 8 | 11.8 mph | 15 | S (181°) | 99487 | 101633 | 31.6°C | 41.4% | 16.9°C | 6621ft (2018m) | 13.35v | 31 |
| 6725 | 14 Apr 16:01:13 | 10 | 11.7 mph | 14 | S (182°) | 99481 | 101627 | 31.7°C | 41.5% | 17°C | 6610ft (2015m) | 13.3v | 31 |
| 6724 | 14 Apr 16:01:02 | 11 | 14.2 mph | 18 | S (181°) | 99468 | 101614 | 31.7°C | 41.5% | 17°C | 6610ft (2015m) | 13.27v | 31 |
| 6723 | 14 Apr 16:00:51 | 6 | 7 mph | 10 | SSW (192°) | 99488 | 101634 | 31.7°C | 41.6% | 17.1°C | 6594ft (2010m) | 13.3v | 31 |
| 6722 | 14 Apr 16:00:39 | 7 | 8.1 mph | 9 | S (177°) | 99489 | 101635 | 31.7°C | 41.6% | 17.1°C | 6594ft (2010m) | 13.32v | 31 |
| 6721 | 14 Apr 16:00:28 | 7 | 8.4 mph | 10 | S (191°) | 99484 | 101630 | 31.6°C | 41.3% | 16.9°C | 6636ft (2023m) | 13.36v | 31 |
| 6720 | 14 Apr 16:00:17 | 6 | 6.5 mph | 7 | S (185°) | 99482 | 101628 | 31.7°C | 41.3% | 16.9°C | 6641ft (2024m) | 13.3v | 31 |
| 6719 | 14 Apr 16:00:06 | 9 | 11 mph | 13 | S (174°) | 99486 | 101632 | 31.7°C | 41.1% | 16.9°C | 6672ft (2034m) | 13.36v | 31 |
| 6718 | 14 Apr 15:59:54 | 10 | 13.4 mph | 17 | S (184°) | 99483 | 101629 | 31.7°C | 41% | 16.8°C | 6688ft (2039m) | 13.29v | 31 |
| 6717 | 14 Apr 15:59:43 | 10 | 14.3 mph | 19 | S (189°) | 99488 | 101634 | 31.7°C | 41% | 16.8°C | 6688ft (2039m) | 13.33v | 31 |
| 6716 | 14 Apr 15:59:32 | 10 | 11 mph | 13 | S (177°) | 99472 | 101618 | 31.7°C | 41% | 16.8°C | 6688ft (2039m) | 13.3v | 31 |
| 6715 | 14 Apr 15:59:21 | 11 | 12.9 mph | 17 | S (177°) | 99474 | 101620 | 31.7°C | 41% | 16.8°C | 6688ft (2039m) | 13.32v | 31 |
| 6714 | 14 Apr 15:59:09 | 11 | 11.6 mph | 14 | S (186°) | 99480 | 101626 | 31.7°C | 41.1% | 16.9°C | 6672ft (2034m) | 13.33v | 31 |
| 6713 | 14 Apr 15:58:58 | 8 | 11.5 mph | 15 | SSE (168°) | 99482 | 101628 | 31.7°C | 41% | 16.8°C | 6688ft (2039m) | 13.33v | 31 |
| 6712 | 14 Apr 15:58:47 | 7 | 10.3 mph | 13 | S (191°) | 99484 | 101630 | 31.7°C | 41.2% | 16.9°C | 6656ft (2029m) | 13.31v | 31 |
| 6711 | 14 Apr 15:58:36 | 6 | 9.4 mph | 13 | S (182°) | 99492 | 101638 | 31.7°C | 41.1% | 16.9°C | 6672ft (2034m) | 13.32v | 31 |
| 6710 | 14 Apr 15:58:24 | 8 | 10.3 mph | 13 | S (189°) | 99485 | 101631 | 31.7°C | 41.2% | 16.9°C | 6656ft (2029m) | 13.33v | 31 |
| 6709 | 14 Apr 15:58:13 | 11 | 11.3 mph | 12 | SSW (192°) | 99488 | 101634 | 31.7°C | 41.2% | 16.9°C | 6656ft (2029m) | 13.33v | 31 |
| 6708 | 14 Apr 15:58:02 | 8 | 9.3 mph | 12 | S (180°) | 99484 | 101630 | 31.7°C | 41.2% | 16.9°C | 6656ft (2029m) | 13.33v | 31 |
| 6707 | 14 Apr 15:57:51 | 9 | 10.5 mph | 12 | SSW (199°) | 99487 | 101633 | 31.7°C | 41.2% | 16.9°C | 6656ft (2029m) | 13.31v | 31 |
| 6706 | 14 Apr 15:57:39 | 6 | 7.6 mph | 9 | SSW (193°) | 99488 | 101634 | 31.7°C | 41.2% | 16.9°C | 6656ft (2029m) | 13.29v | 31 |
| 6705 | 14 Apr 15:57:28 | 7 | 8.4 mph | 11 | S (176°) | 99487 | 101633 | 31.8°C | 41.1% | 17°C | 6677ft (2035m) | 13.32v | 31 |
| 6704 | 14 Apr 15:57:17 | 9 | 11.7 mph | 17 | SSW (203°) | 99488 | 101634 | 31.8°C | 40.9% | 16.9°C | 6708ft (2045m) | 13.32v | 31 |
| 6703 | 14 Apr 15:57:06 | 12 | 16.3 mph | 21 | S (183°) | 99476 | 101622 | 31.8°C | 41% | 16.9°C | 6692ft (2040m) | 13.31v | 31 |
| 6702 | 14 Apr 15:56:54 | 11 | 12.8 mph | 16 | S (174°) | 99484 | 101630 | 31.8°C | 40.9% | 16.9°C | 6708ft (2045m) | 13.31v | 31 |
| 6701 | 14 Apr 15:56:43 | 12 | 13.7 mph | 15 | S (176°) | 99478 | 101624 | 31.8°C | 40.9% | 16.9°C | 6708ft (2045m) | 13.31v | 31 |
| 6700 | 14 Apr 15:56:32 | 11 | 14.2 mph | 18 | S (183°) | 99482 | 101628 | 31.8°C | 41.1% | 17°C | 6677ft (2035m) | 13.31v | 31 |
| 6699 | 14 Apr 15:56:21 | 12 | 12.2 mph | 15 | SSW (195°) | 99485 | 101631 | 31.8°C | 41.1% | 17°C | 6677ft (2035m) | 13.28v | 31 |
| 6698 | 14 Apr 15:56:09 | 12 | 13.6 mph | 16 | S (175°) | 99474 | 101620 | 31.9°C | 41% | 17°C | 6697ft (2041m) | 13.3v | 31 |
| 6697 | 14 Apr 15:55:58 | 11 | 11.5 mph | 13 | S (186°) | 99488 | 101634 | 31.9°C | 41% | 17°C | 6697ft (2041m) | 13.32v | 31 |
| 6696 | 14 Apr 15:55:47 | 11 | 13.1 mph | 16 | S (182°) | 99491 | 101637 | 31.9°C | 41% | 17°C | 6697ft (2041m) | 13.3v | 31 |
| 6695 | 14 Apr 15:55:36 | 9 | 9.7 mph | 11 | SSW (192°) | 99491 | 101637 | 31.9°C | 41% | 17°C | 6697ft (2041m) | 13.33v | 31 |
| 6694 | 14 Apr 15:55:24 | 8 | 9.1 mph | 10 | SSW (197°) | 99491 | 101637 | 31.9°C | 40.8% | 16.9°C | 6728ft (2051m) | 13.28v | 31 |
| 6693 | 14 Apr 15:55:13 | 12 | 14.2 mph | 16 | S (170°) | 99485 | 101631 | 31.9°C | 40.7% | 16.9°C | 6744ft (2056m) | 13.34v | 31 |
| 6692 | 14 Apr 15:55:02 | 11 | 11.5 mph | 13 | S (173°) | 99481 | 101627 | 31.9°C | 40.8% | 16.9°C | 6728ft (2051m) | 13.28v | 31 |
| 6691 | 14 Apr 15:54:51 | 9 | 12.2 mph | 16 | S (177°) | 99488 | 101634 | 31.9°C | 40.8% | 16.9°C | 6728ft (2051m) | 13.34v | 31 |
| 6690 | 14 Apr 15:54:39 | 9 | 10.1 mph | 11 | S (183°) | 99483 | 101629 | 31.9°C | 40.8% | 16.9°C | 6728ft (2051m) | 13.3v | 31 |
| 6689 | 14 Apr 15:54:28 | 12 | 13.4 mph | 16 | S (175°) | 99486 | 101632 | 31.8°C | 40.9% | 16.9°C | 6708ft (2045m) | 13.29v | 31 |
| 6688 | 14 Apr 15:54:17 | 9 | 10.3 mph | 13 | SSW (194°) | 99481 | 101627 | 31.9°C | 41.1% | 17°C | 6681ft (2036m) | 13.33v | 31 |
| 6687 | 14 Apr 15:54:06 | 8 | 9.3 mph | 13 | SSW (200°) | 99487 | 101633 | 31.8°C | 40.7% | 16.8°C | 6740ft (2054m) | 13.31v | 31 |
| 6686 | 14 Apr 15:53:54 | 7 | 7.8 mph | 12 | SSW (195°) | 99481 | 101627 | 31.8°C | 40.7% | 16.8°C | 6740ft (2054m) | 13.33v | 31 |
| 6685 | 14 Apr 15:53:43 | 7 | 7.6 mph | 8 | SSW (192°) | 99488 | 101634 | 31.8°C | 40.5% | 16.7°C | 6772ft (2064m) | 13.29v | 31 |
| 6684 | 14 Apr 15:53:32 | 11 | 12.7 mph | 15 | S (176°) | 99484 | 101630 | 31.8°C | 40.4% | 16.7°C | 6788ft (2069m) | 13.33v | 31 |
| 6683 | 14 Apr 15:53:21 | 11 | 13.5 mph | 17 | S (180°) | 99483 | 101629 | 31.8°C | 40.4% | 16.7°C | 6788ft (2069m) | 13.28v | 31 |
| 6682 | 14 Apr 15:53:09 | 10 | 12.1 mph | 17 | S (175°) | 99486 | 101632 | 31.7°C | 40.4% | 16.6°C | 6783ft (2067m) | 13.3v | 31 |
| 6681 | 14 Apr 15:52:58 | 13 | 14.7 mph | 17 | S (182°) | 99466 | 101611 | 31.7°C | 40.4% | 16.6°C | 6783ft (2067m) | 13.32v | 31 |
| 6680 | 14 Apr 15:52:47 | 18 | 19.7 mph | 22 | S (178°) | 99475 | 101621 | 31.7°C | 40.3% | 16.6°C | 6799ft (2072m) | 13.3v | 31 |
| 6679 | 14 Apr 15:52:36 | 15 | 17 mph | 21 | S (187°) | 99482 | 101628 | 31.7°C | 40.4% | 16.6°C | 6783ft (2067m) | 13.29v | 31 |
| 6678 | 14 Apr 15:52:24 | 11 | 14.7 mph | 19 | S (183°) | 99475 | 101621 | 31.7°C | 40.3% | 16.6°C | 6799ft (2072m) | 13.31v | 31 |
| 6677 | 14 Apr 15:52:13 | 13 | 15.1 mph | 19 | SSW (194°) | 99483 | 101629 | 31.8°C | 40.4% | 16.7°C | 6788ft (2069m) | 13.33v | 31 |
| 6676 | 14 Apr 15:52:02 | 12 | 13.9 mph | 16 | S (188°) | 99475 | 101621 | 31.8°C | 40.4% | 16.7°C | 6788ft (2069m) | 13.29v | 31 |
| 6675 | 14 Apr 15:51:51 | 11 | 12.1 mph | 14 | S (180°) | 99472 | 101618 | 31.8°C | 40.5% | 16.7°C | 6772ft (2064m) | 13.34v | 31 |
| 6674 | 14 Apr 15:51:39 | 8 | 13.5 mph | 19 | S (190°) | 99484 | 101630 | 31.8°C | 40.5% | 16.7°C | 6772ft (2064m) | 13.31v | 31 |
| 6673 | 14 Apr 15:51:28 | 8 | 12.1 mph | 16 | S (176°) | 99485 | 101631 | 31.8°C | 40.4% | 16.7°C | 6788ft (2069m) | 13.31v | 31 |
| 6672 | 14 Apr 15:51:17 | 11 | 12.9 mph | 15 | S (190°) | 99470 | 101616 | 31.8°C | 40.4% | 16.7°C | 6788ft (2069m) | 13.32v | 31 |
| 6671 | 14 Apr 15:51:06 | 13 | 13.2 mph | 14 | S (185°) | 99478 | 101624 | 31.8°C | 40.3% | 16.6°C | 6804ft (2074m) | 13.3v | 31 |
| 6670 | 14 Apr 15:50:54 | 9 | 12 mph | 15 | S (188°) | 99472 | 101618 | 31.8°C | 40.4% | 16.7°C | 6788ft (2069m) | 13.35v | 31 |
| 6669 | 14 Apr 15:50:43 | 8 | 10.3 mph | 14 | S (189°) | 99481 | 101627 | 31.8°C | 40.4% | 16.7°C | 6788ft (2069m) | 13.31v | 31 |
| 6668 | 14 Apr 15:50:32 | 10 | 13.2 mph | 16 | S (176°) | 99469 | 101615 | 31.8°C | 40.4% | 16.7°C | 6788ft (2069m) | 13.32v | 31 |
| 6667 | 14 Apr 15:50:21 | 10 | 13.3 mph | 17 | S (191°) | 99471 | 101617 | 31.8°C | 40.5% | 16.7°C | 6772ft (2064m) | 13.29v | 31 |
| 6666 | 14 Apr 15:50:09 | 8 | 12.1 mph | 16 | S (178°) | 99467 | 101613 | 31.8°C | 40.6% | 16.8°C | 6756ft (2059m) | 13.33v | 31 |
| 6665 | 14 Apr 15:49:58 | 9 | 12.4 mph | 16 | S (179°) | 99484 | 101630 | 31.8°C | 40.6% | 16.8°C | 6756ft (2059m) | 13.27v | 31 |
| 6664 | 14 Apr 15:49:47 | 13 | 14.4 mph | 17 | SSW (194°) | 99477 | 101623 | 31.8°C | 40.6% | 16.8°C | 6756ft (2059m) | 13.33v | 31 |
| 6663 | 14 Apr 15:49:36 | 9 | 12.3 mph | 15 | SSW (194°) | 99472 | 101618 | 31.8°C | 40.6% | 16.8°C | 6756ft (2059m) | 13.33v | 31 |
| 6662 | 14 Apr 15:49:24 | 11 | 10.1 mph | 14 | S (184°) | 99466 | 101611 | 31.8°C | 40.6% | 16.8°C | 6756ft (2059m) | 13.35v | 31 |
| 6661 | 14 Apr 15:49:13 | 8 | 11.8 mph | 14 | S (183°) | 99467 | 101613 | 31.8°C | 40.5% | 16.7°C | 6772ft (2064m) | 13.34v | 31 |
| 6660 | 14 Apr 15:49:02 | 10 | 11 mph | 12 | S (185°) | 99481 | 101627 | 31.9°C | 40.4% | 16.8°C | 6792ft (2070m) | 13.33v | 31 |
| 6659 | 14 Apr 15:48:51 | 8 | 8.7 mph | 11 | S (187°) | 99478 | 101624 | 31.8°C | 40.5% | 16.7°C | 6772ft (2064m) | 13.33v | 31 |
| 6658 | 14 Apr 15:48:39 | 8 | 9.5 mph | 11 | S (179°) | 99480 | 101626 | 31.8°C | 40.5% | 16.7°C | 6772ft (2064m) | 13.34v | 31 |
| 6657 | 14 Apr 15:48:28 | 11 | 11.3 mph | 12 | S (187°) | 99479 | 101625 | 31.8°C | 40.3% | 16.6°C | 6804ft (2074m) | 13.27v | 31 |
| 6656 | 14 Apr 15:48:17 | 9 | 10.9 mph | 13 | S (190°) | 99478 | 101624 | 31.8°C | 40.3% | 16.6°C | 6804ft (2074m) | 13.32v | 31 |
| 6655 | 14 Apr 15:48:06 | 11 | 13.4 mph | 15 | S (181°) | 99480 | 101626 | 31.9°C | 40.4% | 16.8°C | 6792ft (2070m) | 13.31v | 31 |
| 6654 | 14 Apr 15:47:54 | 8 | 10.5 mph | 13 | S (182°) | 99473 | 101619 | 31.9°C | 40.3% | 16.7°C | 6808ft (2075m) | 13.32v | 31 |
| 6653 | 14 Apr 15:47:43 | 12 | 12.2 mph | 15 | S (183°) | 99474 | 101620 | 31.9°C | 40.2% | 16.7°C | 6824ft (2080m) | 13.32v | 31 |
| 6652 | 14 Apr 15:47:32 | 13 | 15.9 mph | 19 | S (181°) | 99472 | 101618 | 31.9°C | 40.1% | 16.7°C | 6840ft (2085m) | 13.29v | 31 |
| 6651 | 14 Apr 15:47:21 | 9 | 11.5 mph | 16 | S (175°) | 99478 | 101624 | 31.9°C | 40.2% | 16.7°C | 6824ft (2080m) | 13.32v | 31 |
| 6650 | 14 Apr 15:47:09 | 8 | 9.2 mph | 14 | SSE (168°) | 99476 | 101622 | 31.9°C | 40.2% | 16.7°C | 6824ft (2080m) | 13.31v | 31 |
| 6649 | 14 Apr 15:46:58 | 7 | 9.2 mph | 13 | S (185°) | 99476 | 101622 | 31.9°C | 40.2% | 16.7°C | 6824ft (2080m) | 13.29v | 31 |
| 6648 | 14 Apr 15:46:47 | 8 | 9.1 mph | 13 | S (187°) | 99477 | 101623 | 31.9°C | 40.2% | 16.7°C | 6824ft (2080m) | 13.32v | 31 |
| 6647 | 14 Apr 15:46:36 | 12 | 12.9 mph | 14 | S (169°) | 99471 | 101617 | 31.9°C | 40% | 16.6°C | 6856ft (2090m) | 13.34v | 31 |
| 6646 | 14 Apr 15:46:24 | 11 | 14.6 mph | 18 | S (183°) | 99467 | 101613 | 31.9°C | 40.1% | 16.7°C | 6840ft (2085m) | 13.28v | 31 |
| 6645 | 14 Apr 15:46:13 | 13 | 13.7 mph | 15 | S (184°) | 99475 | 101621 | 31.9°C | 40% | 16.6°C | 6856ft (2090m) | 13.34v | 31 |
| 6644 | 14 Apr 15:46:02 | 11 | 13.4 mph | 19 | S (188°) | 99470 | 101616 | 32°C | 40% | 16.7°C | 6861ft (2091m) | 13.31v | 31 |
| 6643 | 14 Apr 15:45:51 | 9 | 10.4 mph | 14 | SSE (168°) | 99478 | 101624 | 32°C | 40.2% | 16.8°C | 6829ft (2081m) | 13.32v | 31 |
| 6642 | 14 Apr 15:45:39 | 7 | 8.5 mph | 13 | S (180°) | 99468 | 101614 | 32°C | 40.2% | 16.8°C | 6829ft (2081m) | 13.3v | 31 |
| 6641 | 14 Apr 15:45:28 | 6 | 8.3 mph | 12 | SSE (160°) | 99478 | 101624 | 32°C | 40% | 16.7°C | 6861ft (2091m) | 13.31v | 31 |
| 6640 | 14 Apr 15:45:17 | 8 | 10.3 mph | 14 | SSW (199°) | 99478 | 101624 | 32°C | 40% | 16.7°C | 6861ft (2091m) | 13.34v | 31 |
| 6639 | 14 Apr 15:45:06 | 6 | 9.6 mph | 13 | S (181°) | 99477 | 101623 | 32°C | 40.1% | 16.7°C | 6845ft (2086m) | 13.3v | 31 |
| 6638 | 14 Apr 15:44:54 | 9 | 12.9 mph | 16 | S (178°) | 99473 | 101619 | 32°C | 40% | 16.7°C | 6861ft (2091m) | 13.36v | 31 |
| 6637 | 14 Apr 15:44:43 | 7 | 8 mph | 11 | S (186°) | 99477 | 101623 | 32°C | 39.9% | 16.7°C | 6877ft (2096m) | 13.31v | 31 |
| 6636 | 14 Apr 15:44:32 | 10 | 12.1 mph | 14 | S (186°) | 99474 | 101620 | 32°C | 39.9% | 16.7°C | 6877ft (2096m) | 13.3v | 31 |
| 6635 | 14 Apr 15:44:21 | 9 | 9.4 mph | 10 | S (186°) | 99472 | 101618 | 32°C | 39.9% | 16.7°C | 6877ft (2096m) | 13.34v | 31 |
| 6634 | 14 Apr 15:44:09 | 9 | 10.9 mph | 13 | S (182°) | 99474 | 101620 | 32°C | 39.8% | 16.6°C | 6893ft (2101m) | 13.27v | 31 |
| 6633 | 14 Apr 15:43:58 | 8 | 9 mph | 11 | S (188°) | 99472 | 101618 | 32°C | 39.8% | 16.6°C | 6893ft (2101m) | 13.33v | 31 |
| 6632 | 14 Apr 15:43:47 | 8 | 10.3 mph | 14 | S (185°) | 99474 | 101620 | 32°C | 39.7% | 16.6°C | 6909ft (2106m) | 13.32v | 31 |
| 6631 | 14 Apr 15:43:36 | 10 | 10.7 mph | 12 | SSW (201°) | 99477 | 101623 | 32°C | 39.7% | 16.6°C | 6909ft (2106m) | 13.35v | 31 |
| 6630 | 14 Apr 15:43:24 | 8 | 10.5 mph | 14 | S (184°) | 99473 | 101619 | 32°C | 39.5% | 16.5°C | 6942ft (2116m) | 13.3v | 31 |
| 6629 | 14 Apr 15:43:13 | 9 | 11.5 mph | 16 | S (177°) | 99479 | 101625 | 32°C | 39.4% | 16.5°C | 6958ft (2121m) | 13.36v | 31 |
| 6628 | 14 Apr 15:43:02 | 11 | 13.7 mph | 16 | S (178°) | 99462 | 101607 | 32°C | 39.4% | 16.5°C | 6958ft (2121m) | 13.31v | 31 |
| 6627 | 14 Apr 15:42:51 | 8 | 10.1 mph | 14 | S (182°) | 99476 | 101622 | 32°C | 39.3% | 16.4°C | 6975ft (2126m) | 13.32v | 31 |
| 6626 | 14 Apr 15:42:39 | 8 | 9.5 mph | 12 | SSW (196°) | 99472 | 101618 | 32°C | 39.4% | 16.5°C | 6958ft (2121m) | 13.32v | 31 |
| 6625 | 14 Apr 15:42:28 | 6 | 8.8 mph | 12 | S (185°) | 99471 | 101617 | 32°C | 39.4% | 16.5°C | 6958ft (2121m) | 13.34v | 31 |
| 6624 | 14 Apr 15:42:17 | 7 | 10.3 mph | 13 | SSW (194°) | 99480 | 101626 | 32°C | 39.2% | 16.4°C | 6991ft (2131m) | 13.31v | 31 |
| 6623 | 14 Apr 15:42:05 | 11 | 12.9 mph | 16 | S (184°) | 99479 | 101625 | 32°C | 39.3% | 16.4°C | 6975ft (2126m) | 13.35v | 31 |
| 6622 | 14 Apr 15:41:54 | 10 | 12.1 mph | 15 | SSW (210°) | 99475 | 101621 | 32°C | 39.3% | 16.4°C | 6975ft (2126m) | 13.3v | 31 |
| 6621 | 14 Apr 15:41:43 | 7 | 8.5 mph | 11 | S (184°) | 99475 | 101621 | 32°C | 39.5% | 16.5°C | 6942ft (2116m) | 13.33v | 31 |
| 6620 | 14 Apr 15:41:32 | 8 | 10.1 mph | 13 | SSW (193°) | 99478 | 101624 | 31.9°C | 39.4% | 16.4°C | 6954ft (2120m) | 13.33v | 31 |
| 6619 | 14 Apr 15:41:20 | 5 | 7.4 mph | 10 | SSW (194°) | 99480 | 101626 | 31.9°C | 39.2% | 16.3°C | 6986ft (2129m) | 13.29v | 31 |
| 6618 | 14 Apr 15:41:09 | 9 | 9.9 mph | 13 | S (177°) | 99476 | 101622 | 31.9°C | 39.1% | 16.3°C | 7003ft (2135m) | 13.32v | 31 |
| 6617 | 14 Apr 15:40:58 | 13 | 14.9 mph | 16 | S (172°) | 99477 | 101623 | 31.9°C | 39.2% | 16.3°C | 6986ft (2129m) | 13.38v | 31 |
| 6616 | 14 Apr 15:40:47 | 12 | 13.9 mph | 18 | S (180°) | 99463 | 101608 | 31.9°C | 39.5% | 16.4°C | 6937ft (2114m) | 13.32v | 31 |
| 6615 | 14 Apr 15:40:35 | 10 | 11 mph | 13 | S (180°) | 99476 | 101622 | 31.9°C | 39.6% | 16.5°C | 6921ft (2110m) | 13.36v | 31 |
| 6614 | 14 Apr 15:40:24 | 11 | 12.1 mph | 15 | S (184°) | 99477 | 101623 | 31.8°C | 39.5% | 16.3°C | 6933ft (2113m) | 13.3v | 31 |
| 6613 | 14 Apr 15:40:13 | 9 | 11.6 mph | 13 | SSW (193°) | 99475 | 101621 | 31.8°C | 39.6% | 16.4°C | 6916ft (2108m) | 13.34v | 31 |
| 6612 | 14 Apr 15:40:02 | 7 | 9.7 mph | 13 | SSE (161°) | 99474 | 101620 | 31.8°C | 39.4% | 16.3°C | 6949ft (2118m) | 13.34v | 31 |
| 6611 | 14 Apr 15:39:50 | 12 | 12.8 mph | 14 | S (177°) | 99473 | 101619 | 31.8°C | 39.4% | 16.3°C | 6949ft (2118m) | 13.34v | 31 |
| 6610 | 14 Apr 15:39:39 | 15 | 16.2 mph | 17 | S (182°) | 99464 | 101609 | 31.8°C | 39.4% | 16.3°C | 6949ft (2118m) | 13.31v | 31 |
| 6609 | 14 Apr 15:39:28 | 9 | 12.7 mph | 16 | S (189°) | 99474 | 101620 | 31.8°C | 39.6% | 16.4°C | 6916ft (2108m) | 13.33v | 31 |
| 6608 | 14 Apr 15:39:17 | 10 | 12 mph | 15 | S (172°) | 99474 | 101620 | 31.8°C | 39.5% | 16.3°C | 6933ft (2113m) | 13.28v | 31 |
| 6607 | 14 Apr 15:39:06 | 9 | 11.6 mph | 13 | S (190°) | 99470 | 101616 | 31.8°C | 39.7% | 16.4°C | 6900ft (2103m) | 13.34v | 31 |
| 6606 | 14 Apr 15:38:54 | 5 | 6 mph | 10 | SSW (200°) | 99480 | 101626 | 31.8°C | 39.6% | 16.4°C | 6916ft (2108m) | 13.35v | 31 |
| 6605 | 14 Apr 15:38:43 | 12 | 13.5 mph | 16 | S (190°) | 99478 | 101624 | 31.8°C | 39.6% | 16.4°C | 6916ft (2108m) | 13.33v | 31 |
| 6604 | 14 Apr 15:38:32 | 9 | 9.8 mph | 12 | SSW (201°) | 99477 | 101623 | 31.8°C | 39.7% | 16.4°C | 6900ft (2103m) | 13.36v | 31 |
| 6603 | 14 Apr 15:38:21 | 8 | 9.7 mph | 12 | SSW (193°) | 99475 | 101621 | 31.8°C | 39.7% | 16.4°C | 6900ft (2103m) | 13.35v | 31 |
| 6602 | 14 Apr 15:38:09 | 9 | 9 mph | 10 | S (189°) | 99475 | 101621 | 31.8°C | 39.6% | 16.4°C | 6916ft (2108m) | 13.34v | 31 |
| 6601 | 14 Apr 15:37:58 | 8 | 8.6 mph | 12 | S (182°) | 99470 | 101616 | 31.8°C | 39.5% | 16.3°C | 6933ft (2113m) | 13.32v | 31 |
| 6600 | 14 Apr 15:37:47 | 7 | 10.5 mph | 13 | SSW (193°) | 99479 | 101625 | 31.7°C | 39.3% | 16.2°C | 6961ft (2122m) | 13.33v | 31 |
| 6599 | 14 Apr 15:37:36 | 8 | 11.2 mph | 15 | S (179°) | 99477 | 101623 | 31.8°C | 39.4% | 16.3°C | 6949ft (2118m) | 13.32v | 31 |
| 6598 | 14 Apr 15:37:24 | 6 | 9.9 mph | 15 | S (188°) | 99475 | 101621 | 31.8°C | 39.5% | 16.3°C | 6933ft (2113m) | 13.36v | 31 |
| 6597 | 14 Apr 15:37:13 | 7 | 9.3 mph | 11 | S (189°) | 99475 | 101621 | 31.8°C | 39.6% | 16.4°C | 6916ft (2108m) | 13.34v | 31 |
| 6596 | 14 Apr 15:37:02 | 6 | 7.7 mph | 10 | SSE (163°) | 99474 | 101620 | 31.7°C | 39.7% | 16.3°C | 6896ft (2102m) | 13.34v | 31 |
| 6595 | 14 Apr 15:36:51 | 6 | 7.1 mph | 9 | S (188°) | 99481 | 101627 | 31.7°C | 39.6% | 16.3°C | 6912ft (2107m) | 13.35v | 31 |
| 6594 | 14 Apr 15:36:39 | 6 | 9 mph | 11 | SSW (200°) | 99474 | 101620 | 31.8°C | 39.6% | 16.4°C | 6916ft (2108m) | 13.36v | 31 |
| 6593 | 14 Apr 15:36:28 | 9 | 12 mph | 16 | S (179°) | 99480 | 101626 | 31.8°C | 39.6% | 16.4°C | 6916ft (2108m) | 13.33v | 31 |
| 6592 | 14 Apr 15:36:17 | 10 | 10.1 mph | 11 | S (184°) | 99480 | 101626 | 31.8°C | 39.7% | 16.4°C | 6900ft (2103m) | 13.35v | 31 |
| 6591 | 14 Apr 15:36:06 | 8 | 8.6 mph | 10 | S (190°) | 99481 | 101627 | 31.8°C | 39.6% | 16.4°C | 6916ft (2108m) | 13.34v | 31 |
| 6590 | 14 Apr 15:35:54 | 10 | 13.7 mph | 19 | SSW (196°) | 99474 | 101620 | 31.8°C | 39.4% | 16.3°C | 6949ft (2118m) | 13.34v | 31 |
| 6589 | 14 Apr 15:35:43 | 7 | 11.1 mph | 16 | S (184°) | 99467 | 101613 | 31.8°C | 39.6% | 16.4°C | 6916ft (2108m) | 13.35v | 31 |
| 6588 | 14 Apr 15:35:32 | 9 | 11.4 mph | 13 | SSW (194°) | 99479 | 101625 | 31.8°C | 39.5% | 16.3°C | 6933ft (2113m) | 13.35v | 31 |
| 6587 | 14 Apr 15:35:21 | 14 | 14.6 mph | 16 | S (182°) | 99474 | 101620 | 31.8°C | 39.4% | 16.3°C | 6949ft (2118m) | 13.33v | 31 |
| 6586 | 14 Apr 15:35:09 | 11 | 13.2 mph | 18 | S (169°) | 99464 | 101609 | 31.8°C | 39.6% | 16.4°C | 6916ft (2108m) | 13.37v | 31 |
| 6585 | 14 Apr 15:34:58 | 9 | 11.4 mph | 15 | S (188°) | 99476 | 101622 | 31.8°C | 39.5% | 16.3°C | 6933ft (2113m) | 13.33v | 31 |
| 6584 | 14 Apr 15:34:47 | 11 | 13.3 mph | 17 | S (184°) | 99479 | 101625 | 31.8°C | 39.5% | 16.3°C | 6933ft (2113m) | 13.34v | 31 |
| 6583 | 14 Apr 15:34:36 | 9 | 10.3 mph | 13 | S (181°) | 99467 | 101613 | 31.8°C | 39.5% | 16.3°C | 6933ft (2113m) | 13.34v | 31 |
| 6582 | 14 Apr 15:34:24 | 8 | 9.4 mph | 12 | S (187°) | 99477 | 101623 | 31.8°C | 39.5% | 16.3°C | 6933ft (2113m) | 13.34v | 31 |
| 6581 | 14 Apr 15:34:13 | 9 | 10.3 mph | 13 | S (189°) | 99476 | 101622 | 31.8°C | 39.4% | 16.3°C | 6949ft (2118m) | 13.38v | 31 |
| 6580 | 14 Apr 15:34:02 | 6 | 8.8 mph | 15 | S (189°) | 99476 | 101622 | 31.8°C | 39.3% | 16.3°C | 6965ft (2123m) | 13.33v | 31 |
| 6579 | 14 Apr 15:33:51 | 10 | 12.9 mph | 16 | S (188°) | 99474 | 101620 | 31.8°C | 39.2% | 16.2°C | 6982ft (2128m) | 13.36v | 31 |
| 6578 | 14 Apr 15:33:39 | 10 | 10.1 mph | 13 | S (188°) | 99476 | 101622 | 31.8°C | 39.3% | 16.3°C | 6965ft (2123m) | 13.39v | 31 |
| 6577 | 14 Apr 15:33:28 | 12 | 13.3 mph | 17 | S (186°) | 99477 | 101623 | 31.8°C | 39.1% | 16.2°C | 6998ft (2133m) | 13.36v | 31 |
| 6576 | 14 Apr 15:33:17 | 10 | 11.5 mph | 13 | SSW (209°) | 99483 | 101629 | 31.8°C | 39% | 16.1°C | 7015ft (2138m) | 13.34v | 31 |
| 6575 | 14 Apr 15:33:06 | 12 | 13.3 mph | 18 | S (188°) | 99479 | 101625 | 31.8°C | 39% | 16.1°C | 7015ft (2138m) | 13.38v | 31 |
| 6574 | 14 Apr 15:32:54 | 13 | 15.2 mph | 19 | S (181°) | 99472 | 101618 | 31.8°C | 39% | 16.1°C | 7015ft (2138m) | 13.36v | 31 |
| 6573 | 14 Apr 15:32:43 | 12 | 14.2 mph | 17 | SSW (193°) | 99468 | 101614 | 31.8°C | 39.3% | 16.3°C | 6965ft (2123m) | 13.36v | 31 |
| 6572 | 14 Apr 15:32:32 | 11 | 11.5 mph | 12 | S (191°) | 99475 | 101621 | 31.8°C | 39.2% | 16.2°C | 6982ft (2128m) | 13.35v | 31 |
| 6571 | 14 Apr 15:32:21 | 7 | 9.3 mph | 15 | S (189°) | 99473 | 101619 | 31.8°C | 39.3% | 16.3°C | 6965ft (2123m) | 13.35v | 31 |
| 6570 | 14 Apr 15:32:09 | 9 | 11.1 mph | 13 | SSW (200°) | 99474 | 101620 | 31.8°C | 39.2% | 16.2°C | 6982ft (2128m) | 13.37v | 31 |
| 6569 | 14 Apr 15:31:58 | 12 | 15.8 mph | 18 | SSW (195°) | 99477 | 101623 | 31.8°C | 39.2% | 16.2°C | 6982ft (2128m) | 13.4v | 31 |
| 6568 | 14 Apr 15:31:47 | 14 | 15.1 mph | 17 | SSW (192°) | 99472 | 101618 | 31.8°C | 39.3% | 16.3°C | 6965ft (2123m) | 13.37v | 31 |
| 6567 | 14 Apr 15:31:36 | 6 | 9.5 mph | 15 | S (178°) | 99476 | 101622 | 31.8°C | 39.4% | 16.3°C | 6949ft (2118m) | 13.32v | 31 |
| 6566 | 14 Apr 15:31:24 | 9 | 8.6 mph | 12 | SSW (193°) | 99476 | 101622 | 31.8°C | 39.4% | 16.3°C | 6949ft (2118m) | 13.38v | 31 |
| 6565 | 14 Apr 15:31:13 | 9 | 12.1 mph | 16 | S (188°) | 99476 | 101622 | 31.7°C | 39.5% | 16.2°C | 6928ft (2112m) | 13.38v | 31 |
| 6564 | 14 Apr 15:31:02 | 6 | 8 mph | 12 | S (189°) | 99482 | 101628 | 31.7°C | 39.5% | 16.2°C | 6928ft (2112m) | 13.38v | 31 |
| 6563 | 14 Apr 15:30:51 | 6 | 6.3 mph | 7 | S (190°) | 99479 | 101625 | 31.7°C | 39.4% | 16.2°C | 6944ft (2117m) | 13.36v | 31 |
| 6562 | 14 Apr 15:30:39 | 9 | 9.9 mph | 11 | S (185°) | 99483 | 101629 | 31.7°C | 39.3% | 16.2°C | 6961ft (2122m) | 13.37v | 31 |
| 6561 | 14 Apr 15:30:28 | 9 | 10.1 mph | 12 | S (185°) | 99482 | 101628 | 31.7°C | 39.2% | 16.1°C | 6977ft (2127m) | 13.38v | 31 |
| 6560 | 14 Apr 15:30:17 | 7 | 8.1 mph | 11 | SSW (194°) | 99483 | 101629 | 31.7°C | 39.1% | 16.1°C | 6994ft (2132m) | 13.33v | 31 |
| 6559 | 14 Apr 15:30:06 | 6 | 7.2 mph | 9 | S (185°) | 99474 | 101620 | 31.7°C | 38.9% | 16°C | 7027ft (2142m) | 13.38v | 31 |
| 6558 | 14 Apr 15:29:54 | 8 | 8.2 mph | 11 | S (191°) | 99475 | 101621 | 31.7°C | 38.8% | 16°C | 7043ft (2147m) | 13.37v | 31 |
| 6557 | 14 Apr 15:29:43 | 9 | 11.8 mph | 16 | S (187°) | 99480 | 101626 | 31.7°C | 38.7% | 15.9°C | 7060ft (2152m) | 13.36v | 31 |
| 6556 | 14 Apr 15:29:32 | 10 | 13.4 mph | 17 | SSW (194°) | 99479 | 101625 | 31.7°C | 38.6% | 15.9°C | 7076ft (2157m) | 13.37v | 31 |
| 6555 | 14 Apr 15:29:21 | 11 | 12.6 mph | 14 | S (189°) | 99475 | 101621 | 31.7°C | 38.7% | 15.9°C | 7060ft (2152m) | 13.37v | 31 |
| 6554 | 14 Apr 15:29:09 | 8 | 10.8 mph | 14 | S (184°) | 99477 | 101623 | 31.7°C | 38.7% | 15.9°C | 7060ft (2152m) | 13.35v | 31 |
| 6553 | 14 Apr 15:28:58 | 11 | 11.7 mph | 15 | SSW (193°) | 99476 | 101622 | 31.7°C | 38.9% | 16°C | 7027ft (2142m) | 13.38v | 31 |
| 6552 | 14 Apr 15:28:47 | 10 | 12.9 mph | 15 | S (186°) | 99472 | 101618 | 31.7°C | 39% | 16°C | 7010ft (2137m) | 13.39v | 31 |
| 6551 | 14 Apr 15:28:36 | 7 | 9.4 mph | 14 | S (180°) | 99481 | 101627 | 31.8°C | 39.1% | 16.2°C | 6998ft (2133m) | 13.36v | 31 |
| 6550 | 14 Apr 15:28:24 | 6 | 8.5 mph | 17 | S (188°) | 99479 | 101625 | 31.7°C | 39.1% | 16.1°C | 6994ft (2132m) | 13.36v | 31 |
| 6549 | 14 Apr 15:28:13 | 7 | 7.2 mph | 8 | SSW (213°) | 99485 | 101631 | 31.7°C | 38.7% | 15.9°C | 7060ft (2152m) | 13.33v | 31 |
| 6548 | 14 Apr 15:28:02 | 11 | 11.9 mph | 14 | S (188°) | 99479 | 101625 | 31.7°C | 38.5% | 15.8°C | 7093ft (2162m) | 13.41v | 31 |
| 6547 | 14 Apr 15:27:51 | 12 | 13.3 mph | 15 | SSW (201°) | 99487 | 101633 | 31.7°C | 39.1% | 16.1°C | 6994ft (2132m) | 13.36v | 31 |
| 6546 | 14 Apr 15:27:39 | 12 | 12 mph | 15 | S (189°) | 99480 | 101626 | 31.8°C | 39.3% | 16.3°C | 6965ft (2123m) | 13.4v | 31 |
| 6545 | 14 Apr 15:27:28 | 10 | 11.4 mph | 13 | S (179°) | 99479 | 101625 | 31.7°C | 39.7% | 16.3°C | 6896ft (2102m) | 13.39v | 31 |
| 6544 | 14 Apr 15:27:17 | 11 | 12 mph | 16 | S (187°) | 99477 | 101623 | 31.7°C | 39.8% | 16.4°C | 6879ft (2097m) | 13.36v | 31 |
| 6543 | 14 Apr 15:27:06 | 9 | 9.8 mph | 12 | SSW (200°) | 99476 | 101622 | 31.7°C | 40% | 16.4°C | 6847ft (2087m) | 13.33v | 31 |
| 6542 | 14 Apr 15:26:54 | 6 | 6.6 mph | 10 | S (186°) | 99480 | 101626 | 31.7°C | 40% | 16.4°C | 6847ft (2087m) | 13.37v | 31 |
| 6541 | 14 Apr 15:26:43 | 5 | 5.9 mph | 7 | SSW (208°) | 99481 | 101627 | 31.7°C | 39.8% | 16.4°C | 6879ft (2097m) | 13.37v | 31 |
| 6540 | 14 Apr 15:26:32 | 8 | 8.9 mph | 11 | S (190°) | 99482 | 101628 | 31.7°C | 39.6% | 16.3°C | 6912ft (2107m) | 13.36v | 31 |
| 6539 | 14 Apr 15:26:21 | 10 | 11.2 mph | 13 | S (180°) | 99479 | 101625 | 31.7°C | 39.3% | 16.2°C | 6961ft (2122m) | 13.42v | 31 |
| 6538 | 14 Apr 15:26:09 | 13 | 13.9 mph | 15 | S (186°) | 99478 | 101624 | 31.7°C | 39.3% | 16.2°C | 6961ft (2122m) | 13.34v | 31 |
| 6537 | 14 Apr 15:25:58 | 9 | 11 mph | 15 | S (180°) | 99477 | 101623 | 31.7°C | 39.5% | 16.2°C | 6928ft (2112m) | 13.4v | 31 |
| 6536 | 14 Apr 15:25:47 | 8 | 9.5 mph | 11 | SSW (195°) | 99489 | 101635 | 31.7°C | 39.5% | 16.2°C | 6928ft (2112m) | 13.33v | 31 |
| 6535 | 14 Apr 15:25:36 | 9 | 10.7 mph | 13 | S (190°) | 99486 | 101632 | 31.7°C | 39.5% | 16.2°C | 6928ft (2112m) | 13.36v | 31 |
| 6534 | 14 Apr 15:25:24 | 12 | 12.3 mph | 14 | S (175°) | 99485 | 101631 | 31.7°C | 39.4% | 16.2°C | 6944ft (2117m) | 13.37v | 31 |
| 6533 | 14 Apr 15:25:13 | 9 | 10 mph | 13 | S (176°) | 99484 | 101630 | 31.7°C | 39.3% | 16.2°C | 6961ft (2122m) | 13.35v | 31 |
| 6532 | 14 Apr 15:25:02 | 6 | 7.9 mph | 12 | S (184°) | 99489 | 101635 | 31.7°C | 39.4% | 16.2°C | 6944ft (2117m) | 13.4v | 31 |
| 6531 | 14 Apr 15:24:51 | 6 | 6.8 mph | 8 | SSW (200°) | 99486 | 101632 | 31.7°C | 39.3% | 16.2°C | 6961ft (2122m) | 13.37v | 31 |
| 6530 | 14 Apr 15:24:39 | 6 | 8.6 mph | 13 | S (181°) | 99484 | 101630 | 31.7°C | 39.1% | 16.1°C | 6994ft (2132m) | 13.37v | 31 |
| 6529 | 14 Apr 15:24:28 | 7 | 8.8 mph | 13 | S (183°) | 99486 | 101632 | 31.7°C | 39.1% | 16.1°C | 6994ft (2132m) | 13.38v | 31 |
| 6528 | 14 Apr 15:24:17 | 11 | 12.4 mph | 14 | S (184°) | 99479 | 101625 | 31.7°C | 39.1% | 16.1°C | 6994ft (2132m) | 13.39v | 31 |
| 6527 | 14 Apr 15:24:06 | 8 | 10.5 mph | 14 | S (190°) | 99489 | 101635 | 31.7°C | 39.1% | 16.1°C | 6994ft (2132m) | 13.37v | 31 |
| 6526 | 14 Apr 15:23:54 | 7 | 8.5 mph | 11 | S (176°) | 99486 | 101632 | 31.7°C | 39.2% | 16.1°C | 6977ft (2127m) | 13.34v | 31 |
| 6525 | 14 Apr 15:23:43 | 7 | 8.7 mph | 11 | S (188°) | 99485 | 101631 | 31.7°C | 39.2% | 16.1°C | 6977ft (2127m) | 13.38v | 31 |
| 6524 | 14 Apr 15:23:32 | 10 | 10.8 mph | 12 | S (186°) | 99486 | 101632 | 31.7°C | 39.1% | 16.1°C | 6994ft (2132m) | 13.36v | 31 |
| 6523 | 14 Apr 15:23:21 | 9 | 9.4 mph | 11 | SSW (195°) | 99479 | 101625 | 31.7°C | 39.2% | 16.1°C | 6977ft (2127m) | 13.39v | 31 |
| 6522 | 14 Apr 15:23:09 | 11 | 13.5 mph | 16 | S (189°) | 99483 | 101629 | 31.7°C | 39.1% | 16.1°C | 6994ft (2132m) | 13.36v | 31 |
| 6521 | 14 Apr 15:22:58 | 10 | 10.4 mph | 13 | S (179°) | 99489 | 101635 | 31.7°C | 39.2% | 16.1°C | 6977ft (2127m) | 13.37v | 31 |
| 6520 | 14 Apr 15:22:47 | 10 | 12.2 mph | 16 | S (179°) | 99485 | 101631 | 31.7°C | 39.3% | 16.2°C | 6961ft (2122m) | 13.4v | 31 |
| 6519 | 14 Apr 15:22:36 | 10 | 11.7 mph | 13 | SSW (201°) | 99490 | 101636 | 31.7°C | 39.2% | 16.1°C | 6977ft (2127m) | 13.35v | 31 |
| 6518 | 14 Apr 15:22:24 | 7 | 10.7 mph | 14 | S (181°) | 99484 | 101630 | 31.7°C | 39% | 16°C | 7010ft (2137m) | 13.35v | 31 |
| 6517 | 14 Apr 15:22:13 | 8 | 9.1 mph | 11 | S (178°) | 99490 | 101636 | 31.7°C | 38.9% | 16°C | 7027ft (2142m) | 13.4v | 31 |
| 6516 | 14 Apr 15:22:02 | 12 | 13.4 mph | 15 | S (183°) | 99485 | 101631 | 31.8°C | 38.7% | 16°C | 7064ft (2153m) | 13.36v | 31 |
| 6515 | 14 Apr 15:21:51 | 9 | 11.7 mph | 15 | S (186°) | 99488 | 101634 | 31.8°C | 38.8% | 16°C | 7048ft (2148m) | 13.4v | 31 |
| 6514 | 14 Apr 15:21:39 | 12 | 14.7 mph | 18 | S (184°) | 99483 | 101629 | 31.7°C | 38.7% | 15.9°C | 7060ft (2152m) | 13.33v | 31 |
| 6513 | 14 Apr 15:21:28 | 10 | 14.3 mph | 16 | S (187°) | 99469 | 101615 | 31.8°C | 38.9% | 16.1°C | 7031ft (2143m) | 13.38v | 31 |
| 6512 | 14 Apr 15:21:17 | 8 | 8.9 mph | 11 | S (185°) | 99481 | 101627 | 31.8°C | 39% | 16.1°C | 7015ft (2138m) | 13.36v | 31 |
| 6511 | 14 Apr 15:21:06 | 7 | 8 mph | 11 | S (188°) | 99488 | 101634 | 31.8°C | 39% | 16.1°C | 7015ft (2138m) | 13.41v | 31 |
| 6510 | 14 Apr 15:20:54 | 6 | 8.1 mph | 10 | SSE (167°) | 99487 | 101633 | 31.8°C | 39.1% | 16.2°C | 6998ft (2133m) | 13.34v | 31 |
| 6509 | 14 Apr 15:20:43 | 9 | 10.8 mph | 13 | S (173°) | 99485 | 101631 | 31.8°C | 38.9% | 16.1°C | 7031ft (2143m) | 13.39v | 31 |
| 6508 | 14 Apr 15:20:32 | 10 | 11.9 mph | 14 | S (187°) | 99484 | 101630 | 31.8°C | 38.8% | 16°C | 7048ft (2148m) | 13.34v | 31 |
| 6507 | 14 Apr 15:20:21 | 10 | 10.1 mph | 11 | S (177°) | 99485 | 101631 | 31.8°C | 38.8% | 16°C | 7048ft (2148m) | 13.39v | 31 |
| 6506 | 14 Apr 15:20:09 | 12 | 13.4 mph | 15 | S (175°) | 99480 | 101626 | 31.8°C | 38.7% | 16°C | 7064ft (2153m) | 13.38v | 31 |
| 6505 | 14 Apr 15:19:58 | 6 | 10.4 mph | 15 | SSE (162°) | 99479 | 101625 | 31.8°C | 38.7% | 16°C | 7064ft (2153m) | 13.37v | 31 |
| 6504 | 14 Apr 15:19:47 | 8 | 10.8 mph | 14 | S (190°) | 99479 | 101625 | 31.8°C | 38.7% | 16°C | 7064ft (2153m) | 13.35v | 31 |
| 6503 | 14 Apr 15:19:36 | 10 | 11.6 mph | 14 | S (183°) | 99488 | 101634 | 31.8°C | 38.7% | 16°C | 7064ft (2153m) | 13.38v | 31 |
| 6502 | 14 Apr 15:19:24 | 8 | 9.3 mph | 11 | SSW (193°) | 99485 | 101631 | 31.8°C | 38.7% | 16°C | 7064ft (2153m) | 13.36v | 31 |
| 6501 | 14 Apr 15:19:13 | 8 | 9.1 mph | 10 | S (190°) | 99490 | 101636 | 31.8°C | 38.6% | 16°C | 7081ft (2158m) | 13.39v | 31 |
| 6500 | 14 Apr 15:19:02 | 10 | 10.7 mph | 11 | S (187°) | 99487 | 101633 | 31.8°C | 38.8% | 16°C | 7048ft (2148m) | 13.39v | 31 |
| 6499 | 14 Apr 15:18:51 | 8 | 10.7 mph | 13 | S (174°) | 99488 | 101634 | 31.8°C | 38.8% | 16°C | 7048ft (2148m) | 13.38v | 31 |
| 6498 | 14 Apr 15:18:39 | 7 | 7.8 mph | 9 | SSW (199°) | 99489 | 101635 | 31.8°C | 38.9% | 16.1°C | 7031ft (2143m) | 13.35v | 31 |
| 6497 | 14 Apr 15:18:28 | 6 | 7.1 mph | 9 | SSW (193°) | 99487 | 101633 | 31.8°C | 38.8% | 16°C | 7048ft (2148m) | 13.39v | 31 |
| 6496 | 14 Apr 15:18:17 | 8 | 8.7 mph | 11 | SSW (199°) | 99484 | 101630 | 31.8°C | 38.8% | 16°C | 7048ft (2148m) | 13.36v | 31 |
| 6495 | 14 Apr 15:18:06 | 8 | 9 mph | 11 | S (191°) | 99491 | 101637 | 31.8°C | 38.9% | 16.1°C | 7031ft (2143m) | 13.38v | 31 |
| 6494 | 14 Apr 15:17:54 | 7 | 8.3 mph | 11 | S (186°) | 99482 | 101628 | 31.8°C | 38.9% | 16.1°C | 7031ft (2143m) | 13.32v | 31 |
| 6493 | 14 Apr 15:17:43 | 9 | 10.8 mph | 14 | S (178°) | 99490 | 101636 | 31.8°C | 38.7% | 16°C | 7064ft (2153m) | 13.38v | 31 |
| 6492 | 14 Apr 15:17:32 | 7 | 7.5 mph | 9 | SSW (200°) | 99488 | 101634 | 31.8°C | 39% | 16.1°C | 7015ft (2138m) | 13.39v | 31 |
| 6491 | 14 Apr 15:17:21 | 9 | 9.8 mph | 14 | SSW (200°) | 99491 | 101637 | 31.8°C | 38.8% | 16°C | 7048ft (2148m) | 13.35v | 31 |
| 6490 | 14 Apr 15:17:09 | 6 | 7 mph | 10 | SSW (194°) | 99484 | 101630 | 31.8°C | 39% | 16.1°C | 7015ft (2138m) | 13.37v | 31 |
| 6489 | 14 Apr 15:16:58 | 5 | 7.1 mph | 9 | S (188°) | 99488 | 101634 | 31.8°C | 38.8% | 16°C | 7048ft (2148m) | 13.36v | 31 |
| 6488 | 14 Apr 15:16:47 | 8 | 9.5 mph | 12 | SSW (196°) | 99486 | 101632 | 31.8°C | 38.9% | 16.1°C | 7031ft (2143m) | 13.39v | 31 |
| 6487 | 14 Apr 15:16:36 | 10 | 11.2 mph | 13 | SSW (205°) | 99485 | 101631 | 31.8°C | 39% | 16.1°C | 7015ft (2138m) | 13.37v | 31 |
| 6486 | 14 Apr 15:16:24 | 7 | 8 mph | 10 | SSW (196°) | 99479 | 101625 | 31.8°C | 39% | 16.1°C | 7015ft (2138m) | 13.34v | 31 |
| 6485 | 14 Apr 15:16:13 | 8 | 9 mph | 11 | SSW (193°) | 99480 | 101626 | 31.8°C | 38.9% | 16.1°C | 7031ft (2143m) | 13.35v | 31 |
| 6484 | 14 Apr 15:16:02 | 9 | 11.1 mph | 13 | SSW (202°) | 99487 | 101633 | 31.8°C | 39% | 16.1°C | 7015ft (2138m) | 13.36v | 31 |
| 6483 | 14 Apr 15:15:51 | 8 | 11.1 mph | 15 | S (183°) | 99489 | 101635 | 31.8°C | 39.2% | 16.2°C | 6982ft (2128m) | 13.36v | 31 |
| 6482 | 14 Apr 15:15:39 | 7 | 7.8 mph | 9 | SSW (210°) | 99493 | 101639 | 31.8°C | 39.3% | 16.3°C | 6965ft (2123m) | 13.35v | 31 |
| 6481 | 14 Apr 15:15:28 | 5 | 6.7 mph | 9 | S (191°) | 99487 | 101633 | 31.8°C | 39.2% | 16.2°C | 6982ft (2128m) | 13.36v | 31 |
| 6480 | 14 Apr 15:15:18 | 7 | 8.2 mph | 9 | SSW (192°) | 99492 | 101638 | 31.8°C | 39.3% | 16.3°C | 6965ft (2123m) | 13.34v | 31 |
| 6479 | 14 Apr 15:15:06 | 7 | 7.3 mph | 9 | SSW (196°) | 99485 | 101631 | 31.8°C | 39.3% | 16.3°C | 6965ft (2123m) | 13.37v | 31 |
| 6478 | 14 Apr 15:14:55 | 6 | 7.8 mph | 10 | SSW (196°) | 99491 | 101637 | 31.8°C | 39.3% | 16.3°C | 6965ft (2123m) | 13.33v | 31 |
| 6477 | 14 Apr 15:14:44 | 6 | 7.4 mph | 9 | S (179°) | 99490 | 101636 | 31.8°C | 39.3% | 16.3°C | 6965ft (2123m) | 13.32v | 31 |
| 6476 | 14 Apr 15:14:33 | 5 | 8.6 mph | 12 | S (178°) | 99488 | 101634 | 31.8°C | 39.2% | 16.2°C | 6982ft (2128m) | 13.32v | 31 |
| 6475 | 14 Apr 15:14:21 | 9 | 10.2 mph | 12 | S (179°) | 99492 | 101638 | 31.8°C | 39% | 16.1°C | 7015ft (2138m) | 13.35v | 31 |
| 6474 | 14 Apr 15:14:10 | 10 | 11.5 mph | 13 | S (185°) | 99482 | 101628 | 31.8°C | 39% | 16.1°C | 7015ft (2138m) | 13.35v | 31 |
| 6473 | 14 Apr 15:13:59 | 7 | 8.4 mph | 11 | S (176°) | 99481 | 101627 | 31.8°C | 39% | 16.1°C | 7015ft (2138m) | 13.34v | 31 |
| 6472 | 14 Apr 15:13:48 | 8 | 9.4 mph | 11 | S (190°) | 99487 | 101633 | 31.8°C | 39% | 16.1°C | 7015ft (2138m) | 13.36v | 31 |
| 6471 | 14 Apr 15:13:36 | 7 | 9 mph | 12 | S (178°) | 99484 | 101630 | 31.8°C | 39% | 16.1°C | 7015ft (2138m) | 13.33v | 31 |
| 6470 | 14 Apr 15:13:25 | 7 | 8.7 mph | 11 | S (190°) | 99487 | 101633 | 31.8°C | 39% | 16.1°C | 7015ft (2138m) | 13.33v | 31 |
| 6469 | 14 Apr 15:13:14 | 9 | 10.8 mph | 14 | S (190°) | 99480 | 101626 | 31.8°C | 39% | 16.1°C | 7015ft (2138m) | 13.32v | 31 |
| 6468 | 14 Apr 15:13:03 | 9 | 11.1 mph | 14 | SSW (198°) | 99488 | 101634 | 31.8°C | 38.9% | 16.1°C | 7031ft (2143m) | 13.29v | 31 |
| 6467 | 14 Apr 15:12:51 | 8 | 9.6 mph | 13 | SSW (196°) | 99487 | 101633 | 31.8°C | 38.9% | 16.1°C | 7031ft (2143m) | 13.35v | 31 |
| 6466 | 14 Apr 15:12:40 | 8 | 10.4 mph | 12 | S (182°) | 99493 | 101639 | 31.8°C | 39% | 16.1°C | 7015ft (2138m) | 13.31v | 31 |
| 6465 | 14 Apr 15:12:29 | 6 | 9.5 mph | 14 | S (181°) | 99475 | 101621 | 31.9°C | 39.1% | 16.3°C | 7003ft (2135m) | 13.33v | 31 |
| 6464 | 14 Apr 15:12:17 | 9 | 11.6 mph | 14 | S (180°) | 99491 | 101637 | 31.9°C | 38.8% | 16.1°C | 7052ft (2149m) | 13.31v | 31 |
| 6463 | 14 Apr 15:12:06 | 9 | 12.4 mph | 17 | S (181°) | 99481 | 101627 | 31.9°C | 38.8% | 16.1°C | 7052ft (2149m) | 13.31v | 31 |
| 6462 | 14 Apr 15:11:54 | 10 | 11.6 mph | 13 | SSW (193°) | 99487 | 101633 | 31.9°C | 38.7% | 16.1°C | 7069ft (2155m) | 13.29v | 31 |
| 6461 | 14 Apr 15:11:43 | 12 | 12.5 mph | 13 | SSW (196°) | 99483 | 101629 | 31.9°C | 38.7% | 16.1°C | 7069ft (2155m) | 13.32v | 31 |
| 6460 | 14 Apr 15:11:32 | 8 | 8.6 mph | 10 | S (188°) | 99482 | 101628 | 31.9°C | 38.7% | 16.1°C | 7069ft (2155m) | 13.33v | 31 |
| 6459 | 14 Apr 15:11:21 | 11 | 11.1 mph | 12 | SSW (196°) | 99483 | 101629 | 31.9°C | 38.7% | 16.1°C | 7069ft (2155m) | 13.34v | 31 |
| 6458 | 14 Apr 15:11:09 | 6 | 7.6 mph | 9 | S (185°) | 99490 | 101636 | 31.9°C | 38.7% | 16.1°C | 7069ft (2155m) | 13.33v | 31 |
| 6457 | 14 Apr 15:10:58 | 7 | 8.4 mph | 11 | S (179°) | 99488 | 101634 | 31.9°C | 38.4% | 16°C | 7119ft (2170m) | 13.33v | 31 |
| 6456 | 14 Apr 15:10:47 | 6 | 7.6 mph | 12 | SSW (200°) | 99489 | 101635 | 31.9°C | 38.5% | 16°C | 7102ft (2165m) | 13.33v | 31 |
| 6455 | 14 Apr 15:10:36 | 5 | 7.7 mph | 10 | S (174°) | 99488 | 101634 | 31.9°C | 38.2% | 15.9°C | 7152ft (2180m) | 13.36v | 31 |
| 6454 | 14 Apr 15:10:24 | 10 | 11.6 mph | 14 | SSW (194°) | 99485 | 101631 | 31.9°C | 38.2% | 15.9°C | 7152ft (2180m) | 13.32v | 31 |
| 6453 | 14 Apr 15:10:13 | 11 | 13 mph | 15 | S (182°) | 99483 | 101629 | 31.9°C | 38.1% | 15.9°C | 7169ft (2185m) | 13.33v | 31 |
| 6452 | 14 Apr 15:10:02 | 11 | 12 mph | 14 | S (187°) | 99481 | 101627 | 32°C | 38.1% | 15.9°C | 7174ft (2187m) | 13.32v | 31 |
| 6451 | 14 Apr 15:09:51 | 7 | 8.7 mph | 12 | SSW (197°) | 99489 | 101635 | 32°C | 38.2% | 16°C | 7157ft (2181m) | 13.33v | 31 |
| 6450 | 14 Apr 15:09:39 | 7 | 7.8 mph | 10 | S (180°) | 99487 | 101633 | 31.9°C | 38.1% | 15.9°C | 7169ft (2185m) | 13.32v | 31 |
| 6449 | 14 Apr 15:09:28 | 8 | 8.3 mph | 9 | SSW (199°) | 99489 | 101635 | 32°C | 38% | 15.9°C | 7191ft (2192m) | 13.33v | 31 |
| 6448 | 14 Apr 15:09:17 | 8 | 9.8 mph | 12 | S (190°) | 99485 | 101631 | 32°C | 38% | 15.9°C | 7191ft (2192m) | 13.32v | 31 |
| 6447 | 14 Apr 15:09:06 | 6 | 8 mph | 9 | S (176°) | 99483 | 101629 | 32°C | 38% | 15.9°C | 7191ft (2192m) | 13.3v | 31 |
| 6446 | 14 Apr 15:08:54 | 5 | 6.4 mph | 9 | S (185°) | 99489 | 101635 | 32°C | 37.8% | 15.8°C | 7225ft (2202m) | 13.32v | 31 |
| 6445 | 14 Apr 15:08:43 | 5 | 5.7 mph | 7 | S (189°) | 99487 | 101633 | 32°C | 37.7% | 15.8°C | 7242ft (2207m) | 13.32v | 31 |
| 6444 | 14 Apr 15:08:32 | 7 | 8.6 mph | 11 | S (189°) | 99488 | 101634 | 32°C | 37.5% | 15.7°C | 7276ft (2218m) | 13.29v | 31 |
| 6443 | 14 Apr 15:08:21 | 8 | 10.1 mph | 12 | SSW (192°) | 99483 | 101629 | 32°C | 37.4% | 15.7°C | 7293ft (2223m) | 13.33v | 31 |
| 6442 | 14 Apr 15:08:09 | 11 | 13.8 mph | 15 | S (181°) | 99486 | 101632 | 32°C | 37.4% | 15.7°C | 7293ft (2223m) | 13.33v | 31 |
| 6441 | 14 Apr 15:07:58 | 10 | 10.8 mph | 13 | S (189°) | 99478 | 101624 | 32°C | 37.5% | 15.7°C | 7276ft (2218m) | 13.33v | 31 |
| 6440 | 14 Apr 15:07:47 | 9 | 12.1 mph | 16 | S (185°) | 99487 | 101633 | 32.1°C | 37.5% | 15.8°C | 7281ft (2219m) | 13.31v | 31 |
| 6439 | 14 Apr 15:07:36 | 7 | 7.4 mph | 10 | S (178°) | 99490 | 101636 | 32.1°C | 37.4% | 15.7°C | 7298ft (2224m) | 13.33v | 31 |
| 6438 | 14 Apr 15:07:24 | 8 | 9.8 mph | 12 | S (189°) | 99486 | 101632 | 32.1°C | 37.4% | 15.7°C | 7298ft (2224m) | 13.33v | 31 |
| 6437 | 14 Apr 15:07:13 | 10 | 13.2 mph | 16 | S (179°) | 99478 | 101624 | 32.1°C | 37.5% | 15.8°C | 7281ft (2219m) | 13.3v | 31 |
| 6436 | 14 Apr 15:07:02 | 9 | 9.7 mph | 12 | S (186°) | 99491 | 101637 | 32.1°C | 37.6% | 15.8°C | 7263ft (2214m) | 13.32v | 31 |
| 6435 | 14 Apr 15:06:51 | 10 | 11.1 mph | 12 | S (187°) | 99479 | 101625 | 32.1°C | 37.8% | 15.9°C | 7229ft (2203m) | 13.3v | 31 |
| 6434 | 14 Apr 15:06:39 | 9 | 11.6 mph | 14 | S (173°) | 99487 | 101633 | 32.1°C | 37.8% | 15.9°C | 7229ft (2203m) | 13.32v | 31 |
| 6433 | 14 Apr 15:06:28 | 5 | 7.5 mph | 12 | S (190°) | 99492 | 101638 | 32.2°C | 38% | 16.1°C | 7200ft (2195m) | 13.33v | 31 |
| 6432 | 14 Apr 15:06:17 | 4 | 7.3 mph | 12 | S (191°) | 99490 | 101636 | 32.1°C | 37.7% | 15.9°C | 7246ft (2209m) | 13.36v | 31 |
| 6431 | 14 Apr 15:06:06 | 10 | 11.6 mph | 15 | S (189°) | 99483 | 101629 | 32.2°C | 37.8% | 16°C | 7234ft (2205m) | 13.3v | 31 |
| 6430 | 14 Apr 15:05:54 | 7 | 8.6 mph | 10 | SSW (192°) | 99489 | 101635 | 32.2°C | 37.9% | 16°C | 7217ft (2200m) | 13.31v | 31 |
| 6429 | 14 Apr 15:05:43 | 7 | 7.9 mph | 10 | S (187°) | 99488 | 101634 | 32.2°C | 38.1% | 16.1°C | 7183ft (2189m) | 13.29v | 31 |
| 6428 | 14 Apr 15:05:32 | 8 | 11 mph | 13 | S (186°) | 99487 | 101633 | 32.2°C | 38.2% | 16.2°C | 7167ft (2185m) | 13.31v | 31 |
| 6427 | 14 Apr 15:05:21 | 9 | 9.4 mph | 10 | SSW (204°) | 99491 | 101637 | 32.2°C | 38.2% | 16.2°C | 7167ft (2185m) | 13.3v | 31 |
| 6426 | 14 Apr 15:05:09 | 7 | 7.6 mph | 8 | SSW (199°) | 99492 | 101638 | 32.2°C | 38.1% | 16.1°C | 7183ft (2189m) | 13.29v | 31 |
| 6425 | 14 Apr 15:04:58 | 7 | 9.2 mph | 11 | S (189°) | 99489 | 101635 | 32.2°C | 38% | 16.1°C | 7200ft (2195m) | 13.31v | 31 |
| 6424 | 14 Apr 15:04:47 | 10 | 10.7 mph | 12 | S (181°) | 99484 | 101630 | 32.2°C | 37.7% | 16°C | 7251ft (2210m) | 13.31v | 31 |
| 6423 | 14 Apr 15:04:36 | 8 | 9.6 mph | 12 | S (173°) | 99491 | 101637 | 32.2°C | 37.5% | 15.9°C | 7285ft (2220m) | 13.32v | 31 |
| 6422 | 14 Apr 15:04:24 | 11 | 11.9 mph | 13 | S (180°) | 99491 | 101637 | 32.2°C | 37.5% | 15.9°C | 7285ft (2220m) | 13.31v | 31 |
| 6421 | 14 Apr 15:04:13 | 10 | 11.3 mph | 13 | S (182°) | 99488 | 101634 | 32.2°C | 37.4% | 15.8°C | 7302ft (2226m) | 13.3v | 31 |
| 6420 | 14 Apr 15:04:02 | 10 | 10.7 mph | 12 | SSW (196°) | 99494 | 101640 | 32.3°C | 37.6% | 16°C | 7273ft (2217m) | 13.31v | 31 |
| 6419 | 14 Apr 15:03:51 | 9 | 10.2 mph | 12 | SSW (209°) | 99489 | 101635 | 32.3°C | 37.7% | 16°C | 7256ft (2212m) | 13.28v | 31 |
| 6418 | 14 Apr 15:03:39 | 10 | 10.6 mph | 12 | S (182°) | 99489 | 101635 | 32.3°C | 37.9% | 16.1°C | 7222ft (2201m) | 13.35v | 31 |
| 6417 | 14 Apr 15:03:28 | 9 | 10 mph | 11 | SSW (198°) | 99485 | 101631 | 32.3°C | 37.8% | 16.1°C | 7239ft (2206m) | 13.29v | 31 |
| 6416 | 14 Apr 15:03:17 | 8 | 9.4 mph | 11 | SSW (192°) | 99490 | 101636 | 32.3°C | 37.6% | 16°C | 7273ft (2217m) | 13.33v | 31 |
| 6415 | 14 Apr 15:03:06 | 5 | 6.2 mph | 8 | S (190°) | 99491 | 101637 | 32.3°C | 37.5% | 16°C | 7290ft (2222m) | 13.29v | 31 |
| 6414 | 14 Apr 15:02:54 | 8 | 8.5 mph | 9 | S (170°) | 99494 | 101640 | 32.3°C | 37.3% | 15.9°C | 7324ft (2232m) | 13.33v | 31 |
| 6413 | 14 Apr 15:02:43 | 7 | 10.3 mph | 12 | S (174°) | 99491 | 101637 | 32.3°C | 37.1% | 15.8°C | 7359ft (2243m) | 13.29v | 31 |
| 6412 | 14 Apr 15:02:32 | 9 | 11.1 mph | 14 | S (191°) | 99499 | 101645 | 32.4°C | 37.1% | 15.9°C | 7364ft (2245m) | 13.33v | 31 |
| 6411 | 14 Apr 15:02:21 | 12 | 12.9 mph | 15 | S (179°) | 99498 | 101644 | 32.4°C | 37% | 15.8°C | 7381ft (2250m) | 13.29v | 31 |
| 6410 | 14 Apr 15:02:09 | 10 | 13.5 mph | 16 | SSW (192°) | 99489 | 101635 | 32.4°C | 37.1% | 15.9°C | 7364ft (2245m) | 13.33v | 31 |
| 6409 | 14 Apr 15:01:58 | 12 | 14.8 mph | 18 | S (174°) | 99488 | 101634 | 32.4°C | 37.2% | 15.9°C | 7347ft (2239m) | 13.33v | 31 |
| 6408 | 14 Apr 15:01:47 | 10 | 11.4 mph | 16 | S (182°) | 99502 | 101648 | 32.4°C | 37.4% | 16°C | 7312ft (2229m) | 13.3v | 31 |
| 6407 | 14 Apr 15:01:36 | 8 | 8 mph | 10 | S (179°) | 99491 | 101637 | 32.4°C | 37.5% | 16°C | 7295ft (2224m) | 13.35v | 31 |
| 6406 | 14 Apr 15:01:24 | 8 | 9.9 mph | 13 | SSW (194°) | 99499 | 101645 | 32.5°C | 37.5% | 16.1°C | 7300ft (2225m) | 13.34v | 31 |
| 6405 | 14 Apr 15:01:13 | 9 | 11.4 mph | 14 | SSW (193°) | 99490 | 101636 | 32.5°C | 37.6% | 16.2°C | 7283ft (2220m) | 13.28v | 31 |
| 6404 | 14 Apr 15:01:02 | 6 | 6.6 mph | 8 | SSW (194°) | 99495 | 101641 | 32.5°C | 37.6% | 16.2°C | 7283ft (2220m) | 13.32v | 31 |
| 6403 | 14 Apr 15:00:51 | 7 | 9.6 mph | 14 | SSW (192°) | 99491 | 101637 | 32.5°C | 37.5% | 16.1°C | 7300ft (2225m) | 13.32v | 31 |
| 6402 | 14 Apr 15:00:39 | 7 | 9.3 mph | 12 | S (191°) | 99490 | 101636 | 32.5°C | 37.6% | 16.2°C | 7283ft (2220m) | 13.32v | 31 |
| 6401 | 14 Apr 15:00:28 | 12 | 12.9 mph | 14 | SSW (198°) | 99490 | 101636 | 32.5°C | 37.5% | 16.1°C | 7300ft (2225m) | 13.3v | 31 |
| 6400 | 14 Apr 15:00:17 | 9 | 11.8 mph | 16 | S (182°) | 99495 | 101641 | 32.5°C | 37.6% | 16.2°C | 7283ft (2220m) | 13.32v | 31 |
| 6399 | 14 Apr 15:00:06 | 6 | 8.8 mph | 12 | S (187°) | 99497 | 101643 | 32.5°C | 37.4% | 16.1°C | 7317ft (2230m) | 13.33v | 31 |
| 6398 | 14 Apr 14:59:54 | 9 | 9.8 mph | 13 | S (187°) | 99497 | 101643 | 32.5°C | 37.3% | 16.1°C | 7334ft (2235m) | 13.3v | 31 |
| 6397 | 14 Apr 14:59:43 | 10 | 12.5 mph | 15 | S (174°) | 99494 | 101640 | 32.5°C | 37.1% | 16°C | 7369ft (2246m) | 13.35v | 31 |
| 6396 | 14 Apr 14:59:32 | 10 | 10.5 mph | 13 | S (181°) | 99497 | 101643 | 32.5°C | 37% | 15.9°C | 7386ft (2251m) | 13.3v | 31 |
| 6395 | 14 Apr 14:59:21 | 11 | 12.6 mph | 15 | S (188°) | 99488 | 101634 | 32.6°C | 37.2% | 16.1°C | 7356ft (2242m) | 13.31v | 31 |
| 6394 | 14 Apr 14:59:09 | 11 | 11.6 mph | 13 | S (177°) | 99495 | 101641 | 32.6°C | 37.4% | 16.2°C | 7322ft (2232m) | 13.33v | 31 |
| 6393 | 14 Apr 14:58:58 | 9 | 10.1 mph | 12 | S (174°) | 99492 | 101638 | 32.6°C | 37.1% | 16.1°C | 7374ft (2248m) | 13.32v | 31 |
| 6392 | 14 Apr 14:58:47 | 9 | 11.1 mph | 13 | S (174°) | 99497 | 101643 | 32.6°C | 37% | 16°C | 7391ft (2253m) | 13.35v | 31 |
| 6391 | 14 Apr 14:58:36 | 8 | 11.9 mph | 16 | S (187°) | 99495 | 101641 | 32.6°C | 37% | 16°C | 7391ft (2253m) | 13.32v | 31 |
| 6390 | 14 Apr 14:58:24 | 6 | 10.1 mph | 14 | SSW (196°) | 99497 | 101643 | 32.6°C | 37% | 16°C | 7391ft (2253m) | 13.33v | 31 |
| 6389 | 14 Apr 14:58:13 | 6 | 7.9 mph | 10 | S (176°) | 99503 | 101649 | 32.6°C | 37.1% | 16.1°C | 7374ft (2248m) | 13.29v | 31 |
| 6388 | 14 Apr 14:58:02 | 8 | 8.7 mph | 10 | S (173°) | 99507 | 101653 | 32.6°C | 37% | 16°C | 7391ft (2253m) | 13.32v | 31 |
| 6387 | 14 Apr 14:57:51 | 10 | 10 mph | 11 | SSW (192°) | 99503 | 101649 | 32.6°C | 36.8% | 15.9°C | 7426ft (2263m) | 13.3v | 31 |
| 6386 | 14 Apr 14:57:39 | 10 | 10.9 mph | 12 | SSE (162°) | 99496 | 101642 | 32.6°C | 36.8% | 15.9°C | 7426ft (2263m) | 13.33v | 31 |
| 6385 | 14 Apr 14:57:28 | 8 | 9.3 mph | 12 | SSW (194°) | 99501 | 101647 | 32.6°C | 36.7% | 15.9°C | 7443ft (2269m) | 13.31v | 31 |
| 6384 | 14 Apr 14:57:17 | 9 | 9.2 mph | 11 | SSW (197°) | 99501 | 101647 | 32.6°C | 36.5% | 15.8°C | 7478ft (2279m) | 13.3v | 31 |
| 6383 | 14 Apr 14:57:06 | 11 | 12.1 mph | 14 | S (183°) | 99502 | 101648 | 32.7°C | 36.3% | 15.8°C | 7518ft (2291m) | 13.32v | 31 |
| 6382 | 14 Apr 14:56:54 | 11 | 11.7 mph | 14 | S (178°) | 99497 | 101643 | 32.7°C | 36.3% | 15.8°C | 7518ft (2291m) | 13.29v | 31 |
| 6381 | 14 Apr 14:56:43 | 10 | 10.2 mph | 12 | S (175°) | 99501 | 101647 | 32.7°C | 36.3% | 15.8°C | 7518ft (2291m) | 13.33v | 31 |
| 6380 | 14 Apr 14:56:32 | 11 | 12.2 mph | 13 | S (184°) | 99504 | 101650 | 32.7°C | 36.2% | 15.8°C | 7536ft (2297m) | 13.3v | 31 |
| 6379 | 14 Apr 14:56:21 | 8 | 10.5 mph | 14 | S (170°) | 99499 | 101645 | 32.8°C | 36.3% | 15.9°C | 7523ft (2293m) | 13.29v | 31 |
| 6378 | 14 Apr 14:56:09 | 8 | 11.1 mph | 15 | S (187°) | 99498 | 101644 | 32.8°C | 36.2% | 15.8°C | 7541ft (2298m) | 13.31v | 31 |
| 6377 | 14 Apr 14:55:58 | 10 | 13.6 mph | 19 | S (188°) | 99502 | 101648 | 32.8°C | 36% | 15.8°C | 7576ft (2309m) | 13.35v | 31 |
| 6376 | 14 Apr 14:55:47 | 10 | 13.2 mph | 17 | S (175°) | 99491 | 101637 | 32.8°C | 36.2% | 15.8°C | 7541ft (2298m) | 13.36v | 31 |
| 6375 | 14 Apr 14:55:36 | 13 | 14.5 mph | 16 | S (171°) | 99499 | 101645 | 32.8°C | 36.2% | 15.8°C | 7541ft (2298m) | 13.31v | 31 |
| 6374 | 14 Apr 14:55:24 | 9 | 9.3 mph | 10 | S (179°) | 99501 | 101647 | 32.8°C | 36.2% | 15.8°C | 7541ft (2298m) | 13.29v | 31 |
| 6373 | 14 Apr 14:55:13 | 10 | 11.1 mph | 14 | S (180°) | 99503 | 101649 | 32.9°C | 36.3% | 16°C | 7528ft (2295m) | 13.31v | 31 |
| 6372 | 14 Apr 14:55:02 | 11 | 12.9 mph | 15 | S (171°) | 99499 | 101645 | 32.9°C | 36.6% | 16.1°C | 7475ft (2278m) | 13.36v | 31 |
| 6371 | 14 Apr 14:54:51 | 5 | 8.5 mph | 11 | SSE (166°) | 99503 | 101649 | 32.9°C | 36.4% | 16°C | 7511ft (2289m) | 13.3v | 31 |
| 6370 | 14 Apr 14:54:39 | 4 | 7.8 mph | 11 | S (175°) | 99500 | 101646 | 32.9°C | 36.3% | 16°C | 7528ft (2295m) | 13.29v | 31 |
| 6369 | 14 Apr 14:54:28 | 7 | 9 mph | 11 | S (184°) | 99504 | 101650 | 32.9°C | 36.4% | 16°C | 7511ft (2289m) | 13.34v | 31 |
| 6368 | 14 Apr 14:54:17 | 8 | 9.7 mph | 11 | S (181°) | 99502 | 101648 | 32.9°C | 36.2% | 15.9°C | 7546ft (2300m) | 13.31v | 31 |
| 6367 | 14 Apr 14:54:06 | 5 | 8.4 mph | 13 | S (183°) | 99501 | 101647 | 32.9°C | 36.1% | 15.9°C | 7564ft (2306m) | 13.3v | 31 |
| 6366 | 14 Apr 14:53:54 | 7 | 7.7 mph | 10 | S (185°) | 99509 | 101655 | 33°C | 35.9% | 15.9°C | 7604ft (2318m) | 13.32v | 31 |
| 6365 | 14 Apr 14:53:43 | 8 | 10.8 mph | 13 | S (186°) | 99505 | 101651 | 33°C | 36.1% | 16°C | 7569ft (2307m) | 13.35v | 31 |
| 6364 | 14 Apr 14:53:32 | 8 | 10.4 mph | 14 | S (184°) | 99506 | 101652 | 33°C | 36% | 15.9°C | 7587ft (2313m) | 13.32v | 31 |
| 6363 | 14 Apr 14:53:21 | 9 | 11 mph | 14 | SSE (160°) | 99502 | 101648 | 33°C | 35.9% | 15.9°C | 7604ft (2318m) | 13.29v | 31 |
| 6362 | 14 Apr 14:53:09 | 14 | 15.6 mph | 19 | S (171°) | 99500 | 101646 | 33°C | 36.1% | 16°C | 7569ft (2307m) | 13.32v | 31 |
| 6361 | 14 Apr 14:52:58 | 11 | 12.6 mph | 16 | S (180°) | 99508 | 101654 | 33°C | 36.1% | 16°C | 7569ft (2307m) | 13.28v | 31 |
| 6360 | 14 Apr 14:52:47 | 10 | 11.9 mph | 13 | S (180°) | 99505 | 101651 | 33°C | 35.9% | 15.9°C | 7604ft (2318m) | 13.33v | 31 |
| 6359 | 14 Apr 14:52:36 | 8 | 10.2 mph | 13 | SSE (165°) | 99499 | 101645 | 33.1°C | 35.8% | 15.9°C | 7627ft (2325m) | 13.3v | 31 |
| 6358 | 14 Apr 14:52:24 | 7 | 10.1 mph | 13 | S (191°) | 99507 | 101653 | 33.1°C | 35.9% | 16°C | 7609ft (2319m) | 13.31v | 31 |
| 6357 | 14 Apr 14:52:13 | 8 | 10.4 mph | 12 | S (180°) | 99508 | 101654 | 33.1°C | 36% | 16°C | 7592ft (2314m) | 13.3v | 31 |
| 6356 | 14 Apr 14:52:02 | 7 | 8.7 mph | 11 | S (189°) | 99505 | 101651 | 33.1°C | 36% | 16°C | 7592ft (2314m) | 13.32v | 31 |
| 6355 | 14 Apr 14:51:51 | 4 | 6.6 mph | 10 | SSE (163°) | 99509 | 101655 | 33.1°C | 35.9% | 16°C | 7609ft (2319m) | 13.36v | 31 |
| 6354 | 14 Apr 14:51:39 | 8 | 11.3 mph | 14 | S (186°) | 99512 | 101658 | 33.1°C | 36.1% | 16.1°C | 7574ft (2309m) | 13.31v | 31 |
| 6353 | 14 Apr 14:51:28 | 11 | 12.3 mph | 14 | S (175°) | 99511 | 101657 | 33.1°C | 36.2% | 16.1°C | 7556ft (2303m) | 13.29v | 31 |
| 6352 | 14 Apr 14:51:17 | 6 | 7 mph | 10 | S (188°) | 99507 | 101653 | 33.1°C | 36% | 16°C | 7592ft (2314m) | 13.31v | 31 |
| 6351 | 14 Apr 14:51:06 | 9 | 9.7 mph | 12 | S (170°) | 99501 | 101647 | 33.1°C | 36.2% | 16.1°C | 7556ft (2303m) | 13.31v | 31 |
| 6350 | 14 Apr 14:50:54 | 9 | 10.6 mph | 13 | S (171°) | 99508 | 101654 | 33.1°C | 36% | 16°C | 7592ft (2314m) | 13.31v | 31 |
| 6349 | 14 Apr 14:50:43 | 6 | 7.7 mph | 11 | S (169°) | 99492 | 101638 | 33.1°C | 36.2% | 16.1°C | 7556ft (2303m) | 13.35v | 31 |
| 6348 | 14 Apr 14:50:32 | 7 | 9.7 mph | 14 | S (180°) | 99512 | 101658 | 33.1°C | 36% | 16°C | 7592ft (2314m) | 13.32v | 31 |
| 6347 | 14 Apr 14:50:21 | 11 | 12.7 mph | 15 | S (177°) | 99485 | 101631 | 33.1°C | 36.4% | 16.2°C | 7521ft (2292m) | 13.28v | 31 |
| 6346 | 14 Apr 14:50:09 | 10 | 9.9 mph | 11 | S (183°) | 99503 | 101649 | 33.1°C | 36.4% | 16.2°C | 7521ft (2292m) | 13.28v | 31 |
| 6345 | 14 Apr 14:49:58 | 8 | 8.5 mph | 10 | S (189°) | 99505 | 101651 | 33.1°C | 36.5% | 16.2°C | 7503ft (2287m) | 13.33v | 31 |
| 6344 | 14 Apr 14:49:47 | 8 | 9.9 mph | 13 | S (187°) | 99508 | 101654 | 33.1°C | 36.4% | 16.2°C | 7521ft (2292m) | 13.29v | 31 |
| 6343 | 14 Apr 14:49:36 | 11 | 11.9 mph | 13 | SSW (194°) | 99504 | 101650 | 33.1°C | 36.4% | 16.2°C | 7521ft (2292m) | 13.35v | 31 |
| 6342 | 14 Apr 14:49:24 | 6 | 7.6 mph | 11 | SSW (197°) | 99508 | 101654 | 33.1°C | 36.3% | 16.2°C | 7538ft (2298m) | 13.3v | 31 |
| 6341 | 14 Apr 14:49:13 | 7 | 9.8 mph | 12 | S (173°) | 99496 | 101642 | 33.1°C | 36.1% | 16.1°C | 7574ft (2309m) | 13.32v | 31 |
| 6340 | 14 Apr 14:49:02 | 6 | 8.3 mph | 11 | SSW (198°) | 99503 | 101649 | 33.2°C | 36.4% | 16.3°C | 7526ft (2294m) | 13.29v | 31 |
| 6339 | 14 Apr 14:48:51 | 5 | 5.9 mph | 9 | SSE (168°) | 99506 | 101652 | 33.2°C | 36.3% | 16.2°C | 7543ft (2299m) | 13.32v | 31 |
| 6338 | 14 Apr 14:48:39 | 6 | 6.4 mph | 9 | S (186°) | 99508 | 101654 | 33.1°C | 36.2% | 16.1°C | 7556ft (2303m) | 13.28v | 31 |
| 6337 | 14 Apr 14:48:28 | 9 | 11 mph | 14 | S (189°) | 99508 | 101654 | 33.1°C | 36.3% | 16.2°C | 7538ft (2298m) | 13.32v | 31 |
| 6336 | 14 Apr 14:48:17 | 10 | 10 mph | 11 | SSW (192°) | 99505 | 101651 | 33.1°C | 36.3% | 16.2°C | 7538ft (2298m) | 13.28v | 31 |
| 6335 | 14 Apr 14:48:06 | 8 | 8.7 mph | 10 | S (175°) | 99505 | 101651 | 33.1°C | 36.2% | 16.1°C | 7556ft (2303m) | 13.33v | 31 |
| 6334 | 14 Apr 14:47:54 | 9 | 11.3 mph | 15 | S (178°) | 99505 | 101651 | 33.1°C | 36.1% | 16.1°C | 7574ft (2309m) | 13.29v | 31 |
| 6333 | 14 Apr 14:47:43 | 7 | 10.1 mph | 13 | S (185°) | 99500 | 101646 | 33.1°C | 36.2% | 16.1°C | 7556ft (2303m) | 13.34v | 31 |
| 6332 | 14 Apr 14:47:32 | 8 | 10.2 mph | 13 | S (185°) | 99508 | 101654 | 33.2°C | 36.2% | 16.2°C | 7561ft (2305m) | 13.29v | 31 |
| 6331 | 14 Apr 14:47:21 | 10 | 10.5 mph | 13 | S (186°) | 99505 | 101651 | 33.2°C | 36.2% | 16.2°C | 7561ft (2305m) | 13.32v | 31 |
| 6330 | 14 Apr 14:47:09 | 7 | 8.7 mph | 10 | SSW (193°) | 99508 | 101654 | 33.2°C | 36.4% | 16.3°C | 7526ft (2294m) | 13.27v | 31 |
| 6329 | 14 Apr 14:46:58 | 5 | 5.8 mph | 7 | SSE (167°) | 99510 | 101656 | 33.1°C | 36.4% | 16.2°C | 7521ft (2292m) | 13.33v | 31 |
| 6328 | 14 Apr 14:46:47 | 4 | 6.1 mph | 9 | S (174°) | 99510 | 101656 | 33.2°C | 36.4% | 16.3°C | 7526ft (2294m) | 13.35v | 31 |
| 6327 | 14 Apr 14:46:36 | 4 | 4.9 mph | 8 | S (179°) | 99509 | 101655 | 33.1°C | 36.2% | 16.1°C | 7556ft (2303m) | 13.35v | 31 |
| 6326 | 14 Apr 14:46:24 | 7 | 6.9 mph | 11 | SSE (155°) | 99511 | 101657 | 33.1°C | 36% | 16°C | 7592ft (2314m) | 13.31v | 31 |
| 6325 | 14 Apr 14:46:13 | 7 | 9.7 mph | 13 | S (175°) | 99512 | 101658 | 33.1°C | 36.1% | 16.1°C | 7574ft (2309m) | 13.31v | 31 |
| 6324 | 14 Apr 14:46:02 | 8 | 10.6 mph | 13 | S (186°) | 99511 | 101657 | 33.1°C | 36.2% | 16.1°C | 7556ft (2303m) | 13.31v | 31 |
| 6323 | 14 Apr 14:45:51 | 8 | 9.1 mph | 11 | SSE (162°) | 99503 | 101649 | 33.1°C | 36.3% | 16.2°C | 7538ft (2298m) | 13.29v | 31 |
| 6322 | 14 Apr 14:45:39 | 8 | 9 mph | 11 | S (178°) | 99510 | 101656 | 33.1°C | 36.3% | 16.2°C | 7538ft (2298m) | 13.33v | 31 |
| 6321 | 14 Apr 14:45:28 | 6 | 8 mph | 10 | S (182°) | 99509 | 101655 | 33.1°C | 36.2% | 16.1°C | 7556ft (2303m) | 13.3v | 31 |
| 6320 | 14 Apr 14:45:17 | 7 | 7.5 mph | 9 | S (189°) | 99513 | 101660 | 33.1°C | 35.9% | 16°C | 7609ft (2319m) | 13.31v | 31 |
| 6319 | 14 Apr 14:45:06 | 10 | 12.3 mph | 16 | SSE (155°) | 99508 | 101654 | 33.1°C | 35.8% | 15.9°C | 7627ft (2325m) | 13.33v | 31 |
| 6318 | 14 Apr 14:44:54 | 12 | 13.4 mph | 15 | S (180°) | 99500 | 101646 | 33.1°C | 35.9% | 16°C | 7609ft (2319m) | 13.34v | 31 |
| 6317 | 14 Apr 14:44:43 | 10 | 11.4 mph | 14 | S (176°) | 99511 | 101657 | 33.1°C | 35.9% | 16°C | 7609ft (2319m) | 13.3v | 31 |
| 6316 | 14 Apr 14:44:32 | 8 | 8.6 mph | 11 | S (185°) | 99502 | 101648 | 33.1°C | 35.8% | 15.9°C | 7627ft (2325m) | 13.3v | 31 |
| 6315 | 14 Apr 14:44:21 | 7 | 9 mph | 10 | S (178°) | 99512 | 101658 | 33.1°C | 35.8% | 15.9°C | 7627ft (2325m) | 13.33v | 31 |
| 6314 | 14 Apr 14:44:09 | 9 | 9.6 mph | 10 | S (181°) | 99511 | 101657 | 33.1°C | 35.6% | 15.8°C | 7663ft (2336m) | 13.28v | 31 |
| 6313 | 14 Apr 14:43:58 | 7 | 9 mph | 12 | S (181°) | 99509 | 101655 | 33.1°C | 35.5% | 15.8°C | 7681ft (2341m) | 13.31v | 31 |
| 6312 | 14 Apr 14:43:47 | 7 | 11.4 mph | 14 | S (185°) | 99507 | 101653 | 33.1°C | 35.4% | 15.8°C | 7699ft (2347m) | 13.35v | 31 |
| 6311 | 14 Apr 14:43:36 | 5 | 8.4 mph | 14 | S (185°) | 99508 | 101654 | 33.1°C | 35.7% | 15.9°C | 7645ft (2330m) | 13.3v | 31 |
| 6310 | 14 Apr 14:43:24 | 6 | 8.1 mph | 12 | S (182°) | 99514 | 101661 | 33.1°C | 35.6% | 15.8°C | 7663ft (2336m) | 13.29v | 31 |
| 6309 | 14 Apr 14:43:13 | 11 | 11.7 mph | 13 | S (171°) | 99511 | 101657 | 33.1°C | 35.5% | 15.8°C | 7681ft (2341m) | 13.33v | 31 |
| 6308 | 14 Apr 14:43:02 | 8 | 10.1 mph | 13 | S (178°) | 99510 | 101656 | 33.1°C | 35.7% | 15.9°C | 7645ft (2330m) | 13.33v | 31 |
| 6307 | 14 Apr 14:42:51 | 6 | 7.5 mph | 9 | S (179°) | 99508 | 101654 | 33.1°C | 35.5% | 15.8°C | 7681ft (2341m) | 13.34v | 31 |
| 6306 | 14 Apr 14:42:39 | 7 | 8.6 mph | 11 | S (176°) | 99510 | 101656 | 33.1°C | 35.4% | 15.8°C | 7699ft (2347m) | 13.29v | 31 |
| 6305 | 14 Apr 14:42:28 | 9 | 10.9 mph | 13 | S (174°) | 99510 | 101656 | 33.1°C | 35.5% | 15.8°C | 7681ft (2341m) | 13.32v | 31 |
| 6304 | 14 Apr 14:42:17 | 9 | 11.6 mph | 13 | S (180°) | 99511 | 101657 | 33°C | 35.3% | 15.6°C | 7712ft (2351m) | 13.3v | 31 |
| 6303 | 14 Apr 14:42:06 | 12 | 13 mph | 14 | S (182°) | 99507 | 101653 | 33.1°C | 35.4% | 15.8°C | 7699ft (2347m) | 13.3v | 31 |
| 6302 | 14 Apr 14:41:54 | 9 | 9.6 mph | 12 | S (179°) | 99510 | 101656 | 33.1°C | 35.6% | 15.8°C | 7663ft (2336m) | 13.36v | 31 |
| 6301 | 14 Apr 14:41:43 | 12 | 13.7 mph | 15 | S (176°) | 99509 | 101655 | 33.1°C | 35.9% | 16°C | 7609ft (2319m) | 13.34v | 31 |
| 6300 | 14 Apr 14:41:32 | 5 | 8.3 mph | 12 | S (179°) | 99510 | 101656 | 33.1°C | 36.4% | 16.2°C | 7521ft (2292m) | 13.3v | 31 |
| 6299 | 14 Apr 14:41:21 | 4 | 5.3 mph | 6 | SSE (165°) | 99515 | 101662 | 33°C | 36.3% | 16.1°C | 7533ft (2296m) | 13.34v | 31 |
| 6298 | 14 Apr 14:41:09 | 5 | 7 mph | 10 | S (185°) | 99516 | 101663 | 33°C | 36.2% | 16°C | 7551ft (2302m) | 13.3v | 31 |
| 6297 | 14 Apr 14:40:58 | 6 | 6.8 mph | 10 | S (190°) | 99509 | 101655 | 33°C | 36.3% | 16.1°C | 7533ft (2296m) | 13.31v | 31 |
| 6296 | 14 Apr 14:40:47 | 5 | 6.2 mph | 8 | S (180°) | 99518 | 101665 | 33°C | 36.3% | 16.1°C | 7533ft (2296m) | 13.28v | 31 |
| 6295 | 14 Apr 14:40:36 | 7 | 8.1 mph | 10 | S (182°) | 99518 | 101665 | 33°C | 36.4% | 16.1°C | 7516ft (2291m) | 13.33v | 31 |
| 6294 | 14 Apr 14:40:24 | 8 | 10.2 mph | 13 | S (173°) | 99517 | 101664 | 33°C | 36.3% | 16.1°C | 7533ft (2296m) | 13.31v | 31 |
| 6293 | 14 Apr 14:40:13 | 10 | 11.3 mph | 13 | S (176°) | 99512 | 101658 | 32.9°C | 36.2% | 15.9°C | 7546ft (2300m) | 13.32v | 31 |
| 6292 | 14 Apr 14:40:02 | 11 | 12 mph | 14 | SSE (167°) | 99503 | 101649 | 33°C | 36.4% | 16.1°C | 7516ft (2291m) | 13.3v | 31 |
| 6291 | 14 Apr 14:39:51 | 5 | 7 mph | 11 | SSE (166°) | 99515 | 101662 | 33°C | 36.4% | 16.1°C | 7516ft (2291m) | 13.34v | 31 |
| 6290 | 14 Apr 14:39:39 | 8 | 9.1 mph | 10 | SSW (193°) | 99516 | 101663 | 33°C | 36.5% | 16.2°C | 7498ft (2285m) | 13.35v | 31 |
| 6289 | 14 Apr 14:39:28 | 7 | 9.3 mph | 12 | S (187°) | 99517 | 101664 | 33°C | 36.3% | 16.1°C | 7533ft (2296m) | 13.28v | 31 |
| 6288 | 14 Apr 14:39:17 | 8 | 9.5 mph | 12 | SSW (199°) | 99514 | 101661 | 33°C | 36.3% | 16.1°C | 7533ft (2296m) | 13.31v | 31 |
| 6287 | 14 Apr 14:39:06 | 10 | 11.9 mph | 14 | S (174°) | 99494 | 101640 | 33°C | 36.1% | 16°C | 7569ft (2307m) | 13.35v | 31 |
| 6286 | 14 Apr 14:38:54 | 6 | 8.5 mph | 12 | S (176°) | 99510 | 101656 | 33°C | 36.3% | 16.1°C | 7533ft (2296m) | 13.29v | 31 |
| 6285 | 14 Apr 14:38:43 | 6 | 8.2 mph | 12 | S (172°) | 99517 | 101664 | 33°C | 36.1% | 16°C | 7569ft (2307m) | 13.32v | 31 |
| 6284 | 14 Apr 14:38:32 | 7 | 10.6 mph | 13 | SSE (166°) | 99515 | 101662 | 33°C | 36.1% | 16°C | 7569ft (2307m) | 13.28v | 31 |
| 6283 | 14 Apr 14:38:21 | 8 | 7.7 mph | 10 | SSE (164°) | 99519 | 101666 | 33°C | 36.1% | 16°C | 7569ft (2307m) | 13.31v | 31 |
| 6282 | 14 Apr 14:38:09 | 6 | 7.5 mph | 10 | S (181°) | 99516 | 101663 | 33°C | 36.1% | 16°C | 7569ft (2307m) | 13.35v | 31 |
| 6281 | 14 Apr 14:37:58 | 7 | 7.4 mph | 9 | SSE (168°) | 99518 | 101665 | 33°C | 35.9% | 15.9°C | 7604ft (2318m) | 13.31v | 31 |
| 6280 | 14 Apr 14:37:47 | 10 | 11.8 mph | 14 | S (179°) | 99519 | 101666 | 33°C | 35.8% | 15.8°C | 7622ft (2323m) | 13.27v | 31 |
| 6279 | 14 Apr 14:37:36 | 12 | 13.2 mph | 15 | S (174°) | 99513 | 101660 | 33.1°C | 35.6% | 15.8°C | 7663ft (2336m) | 13.33v | 31 |
| 6278 | 14 Apr 14:37:24 | 9 | 9.4 mph | 12 | S (183°) | 99514 | 101661 | 33.1°C | 35.8% | 15.9°C | 7627ft (2325m) | 13.29v | 31 |
| 6277 | 14 Apr 14:37:13 | 9 | 10.8 mph | 14 | SSW (201°) | 99517 | 101664 | 33.1°C | 36% | 16°C | 7592ft (2314m) | 13.33v | 31 |
| 6276 | 14 Apr 14:37:02 | 7 | 9.7 mph | 14 | S (183°) | 99519 | 101666 | 33.2°C | 36% | 16.1°C | 7597ft (2316m) | 13.3v | 31 |
| 6275 | 14 Apr 14:36:51 | 10 | 10.4 mph | 12 | S (190°) | 99519 | 101666 | 33.2°C | 35.9% | 16.1°C | 7614ft (2321m) | 13.32v | 31 |
| 6274 | 14 Apr 14:36:39 | 8 | 9.5 mph | 11 | S (184°) | 99518 | 101665 | 33.2°C | 36% | 16.1°C | 7597ft (2316m) | 13.33v | 31 |
| 6273 | 14 Apr 14:36:28 | 10 | 12 mph | 15 | SSW (192°) | 99522 | 101669 | 33.2°C | 35.9% | 16.1°C | 7614ft (2321m) | 13.34v | 31 |
| 6272 | 14 Apr 14:36:17 | 8 | 10.8 mph | 14 | S (179°) | 99514 | 101661 | 33.2°C | 36.1% | 16.2°C | 7579ft (2310m) | 13.29v | 31 |
| 6271 | 14 Apr 14:36:06 | 8 | 9.6 mph | 12 | S (182°) | 99527 | 101674 | 33.2°C | 36.2% | 16.2°C | 7561ft (2305m) | 13.31v | 31 |
| 6270 | 14 Apr 14:35:54 | 8 | 8.9 mph | 10 | SSW (200°) | 99514 | 101661 | 33.3°C | 35.9% | 16.2°C | 7619ft (2322m) | 13.29v | 31 |
| 6269 | 14 Apr 14:35:43 | 8 | 10.1 mph | 12 | S (189°) | 99518 | 101665 | 33.3°C | 36.1% | 16.2°C | 7584ft (2312m) | 13.33v | 31 |
| 6268 | 14 Apr 14:35:32 | 7 | 8.4 mph | 11 | S (179°) | 99517 | 101664 | 33.3°C | 36.1% | 16.2°C | 7584ft (2312m) | 13.3v | 31 |
| 6267 | 14 Apr 14:35:21 | 9 | 10.1 mph | 13 | S (182°) | 99524 | 101671 | 33.3°C | 35.9% | 16.2°C | 7619ft (2322m) | 13.34v | 31 |
| 6266 | 14 Apr 14:35:09 | 12 | 13 mph | 15 | SSE (165°) | 99522 | 101669 | 33.3°C | 35.9% | 16.2°C | 7619ft (2322m) | 13.29v | 31 |
| 6265 | 14 Apr 14:34:58 | 10 | 10.8 mph | 12 | S (172°) | 99520 | 101667 | 33.3°C | 35.8% | 16.1°C | 7637ft (2328m) | 13.32v | 31 |
| 6264 | 14 Apr 14:34:47 | 10 | 10.6 mph | 12 | S (183°) | 99521 | 101668 | 33.4°C | 35.6% | 16.1°C | 7678ft (2340m) | 13.27v | 31 |
| 6263 | 14 Apr 14:34:36 | 12 | 13 mph | 15 | SSE (167°) | 99511 | 101657 | 33.4°C | 35.5% | 16.1°C | 7696ft (2346m) | 13.32v | 31 |
| 6262 | 14 Apr 14:34:24 | 10 | 12.1 mph | 15 | S (169°) | 99521 | 101668 | 33.4°C | 35.4% | 16°C | 7715ft (2352m) | 13.32v | 31 |
| 6261 | 14 Apr 14:34:13 | 10 | 10.8 mph | 14 | S (179°) | 99511 | 101657 | 33.4°C | 35.7% | 16.2°C | 7660ft (2335m) | 13.29v | 31 |
| 6260 | 14 Apr 14:34:02 | 8 | 9.3 mph | 13 | S (179°) | 99520 | 101667 | 33.4°C | 35.6% | 16.1°C | 7678ft (2340m) | 13.34v | 31 |
| 6259 | 14 Apr 14:33:51 | 9 | 9 mph | 10 | SSE (164°) | 99514 | 101661 | 33.4°C | 35.6% | 16.1°C | 7678ft (2340m) | 13.28v | 31 |
| 6258 | 14 Apr 14:33:39 | 8 | 7.9 mph | 9 | S (181°) | 99517 | 101664 | 33.4°C | 35.5% | 16.1°C | 7696ft (2346m) | 13.33v | 31 |
| 6257 | 14 Apr 14:33:28 | 10 | 10 mph | 13 | S (179°) | 99520 | 101667 | 33.4°C | 35.4% | 16°C | 7715ft (2352m) | 13.29v | 31 |
| 6256 | 14 Apr 14:33:17 | 10 | 10.7 mph | 12 | S (184°) | 99519 | 101666 | 33.4°C | 35.2% | 15.9°C | 7751ft (2363m) | 13.3v | 31 |
| 6255 | 14 Apr 14:33:06 | 10 | 10.1 mph | 12 | SSW (192°) | 99523 | 101670 | 33.5°C | 35.4% | 16.1°C | 7720ft (2353m) | 13.31v | 31 |
| 6254 | 14 Apr 14:32:54 | 6 | 9.1 mph | 12 | S (181°) | 99523 | 101670 | 33.5°C | 35.4% | 16.1°C | 7720ft (2353m) | 13.31v | 31 |
| 6253 | 14 Apr 14:32:43 | 10 | 10 mph | 11 | S (181°) | 99518 | 101665 | 33.5°C | 35.6% | 16.2°C | 7683ft (2342m) | 13.36v | 31 |
| 6252 | 14 Apr 14:32:32 | 7 | 8 mph | 9 | S (170°) | 99522 | 101669 | 33.5°C | 35.4% | 16.1°C | 7720ft (2353m) | 13.35v | 31 |
| 6251 | 14 Apr 14:32:21 | 8 | 9 mph | 11 | S (187°) | 99520 | 101667 | 33.5°C | 35.2% | 16°C | 7756ft (2364m) | 13.3v | 31 |
| 6250 | 14 Apr 14:32:09 | 9 | 10.2 mph | 12 | SSW (193°) | 99519 | 101666 | 33.5°C | 35.1% | 16°C | 7774ft (2370m) | 13.31v | 31 |
| 6249 | 14 Apr 14:31:58 | 8 | 9.9 mph | 11 | S (185°) | 99518 | 101665 | 33.5°C | 35.1% | 16°C | 7774ft (2370m) | 13.34v | 31 |
| 6248 | 14 Apr 14:31:47 | 5 | 7.1 mph | 10 | SSE (168°) | 99518 | 101665 | 33.6°C | 35% | 16°C | 7798ft (2377m) | 13.32v | 31 |
| 6247 | 14 Apr 14:31:36 | 7 | 9.2 mph | 11 | S (176°) | 99515 | 101662 | 33.6°C | 34.8% | 15.9°C | 7835ft (2388m) | 13.32v | 31 |
| 6246 | 14 Apr 14:31:24 | 10 | 11 mph | 13 | S (173°) | 99520 | 101667 | 33.6°C | 34.8% | 15.9°C | 7835ft (2388m) | 13.28v | 31 |
| 6245 | 14 Apr 14:31:13 | 8 | 10.7 mph | 13 | S (180°) | 99513 | 101660 | 33.6°C | 34.9% | 16°C | 7816ft (2382m) | 13.34v | 31 |
| 6244 | 14 Apr 14:31:02 | 9 | 10 mph | 13 | SSE (167°) | 99518 | 101665 | 33.6°C | 35% | 16°C | 7798ft (2377m) | 13.29v | 31 |
| 6243 | 14 Apr 14:30:51 | 8 | 7.8 mph | 9 | S (185°) | 99516 | 101663 | 33.6°C | 35% | 16°C | 7798ft (2377m) | 13.35v | 31 |
| 6242 | 14 Apr 14:30:39 | 11 | 12 mph | 15 | S (178°) | 99522 | 101669 | 33.6°C | 35% | 16°C | 7798ft (2377m) | 13.28v | 31 |
| 6241 | 14 Apr 14:30:28 | 6 | 7.6 mph | 10 | S (188°) | 99519 | 101666 | 33.6°C | 35.2% | 16.1°C | 7761ft (2366m) | 13.32v | 31 |
| 6240 | 14 Apr 14:30:17 | 7 | 7.5 mph | 9 | SSE (166°) | 99516 | 101663 | 33.6°C | 35.3% | 16.2°C | 7743ft (2360m) | 13.31v | 31 |
| 6239 | 14 Apr 14:30:06 | 9 | 10 mph | 11 | S (185°) | 99525 | 101672 | 33.6°C | 35.2% | 16.1°C | 7761ft (2366m) | 13.29v | 31 |
| 6238 | 14 Apr 14:29:54 | 9 | 11 mph | 13 | S (186°) | 99521 | 101668 | 33.6°C | 35.1% | 16.1°C | 7779ft (2371m) | 13.31v | 31 |
| 6237 | 14 Apr 14:29:43 | 11 | 12.1 mph | 14 | S (177°) | 99515 | 101662 | 33.6°C | 34.9% | 16°C | 7816ft (2382m) | 13.32v | 31 |
| 6236 | 14 Apr 14:29:32 | 8 | 11.4 mph | 14 | S (181°) | 99517 | 101664 | 33.7°C | 35.4% | 16.3°C | 7730ft (2356m) | 13.29v | 31 |
| 6235 | 14 Apr 14:29:21 | 9 | 9.8 mph | 12 | S (187°) | 99519 | 101666 | 33.7°C | 35.4% | 16.3°C | 7730ft (2356m) | 13.33v | 31 |
| 6234 | 14 Apr 14:29:09 | 9 | 8.5 mph | 10 | S (177°) | 99520 | 101667 | 33.6°C | 35.5% | 16.2°C | 7707ft (2349m) | 13.28v | 31 |
| 6233 | 14 Apr 14:28:58 | 10 | 11.5 mph | 14 | SSE (161°) | 99520 | 101667 | 33.6°C | 35.4% | 16.2°C | 7725ft (2355m) | 13.33v | 31 |
| 6232 | 14 Apr 14:28:47 | 8 | 9.9 mph | 13 | S (176°) | 99522 | 101669 | 33.7°C | 35.3% | 16.2°C | 7748ft (2362m) | 13.29v | 31 |
| 6231 | 14 Apr 14:28:36 | 10 | 11.2 mph | 13 | S (186°) | 99516 | 101663 | 33.7°C | 35.2% | 16.2°C | 7766ft (2367m) | 13.35v | 31 |
| 6230 | 14 Apr 14:28:24 | 8 | 9.2 mph | 11 | S (181°) | 99517 | 101664 | 33.7°C | 35.3% | 16.2°C | 7748ft (2362m) | 13.3v | 31 |
| 6229 | 14 Apr 14:28:13 | 7 | 7.7 mph | 8 | S (182°) | 99522 | 101669 | 33.6°C | 35.4% | 16.2°C | 7725ft (2355m) | 13.34v | 31 |
| 6228 | 14 Apr 14:28:02 | 7 | 8.7 mph | 10 | S (181°) | 99521 | 101668 | 33.6°C | 35.4% | 16.2°C | 7725ft (2355m) | 13.28v | 31 |
| 6227 | 14 Apr 14:27:51 | 6 | 7.5 mph | 10 | S (174°) | 99524 | 101671 | 33.6°C | 35.6% | 16.3°C | 7689ft (2344m) | 13.33v | 31 |
| 6226 | 14 Apr 14:27:39 | 7 | 7.4 mph | 9 | S (181°) | 99520 | 101667 | 33.6°C | 35.5% | 16.2°C | 7707ft (2349m) | 13.35v | 31 |
| 6225 | 14 Apr 14:27:28 | 5 | 6.1 mph | 7 | SSW (200°) | 99524 | 101671 | 33.6°C | 35.1% | 16.1°C | 7779ft (2371m) | 13.3v | 31 |
| 6224 | 14 Apr 14:27:17 | 10 | 12.4 mph | 14 | S (181°) | 99521 | 101668 | 33.6°C | 35.1% | 16.1°C | 7779ft (2371m) | 13.28v | 31 |
| 6223 | 14 Apr 14:27:06 | 7 | 9.9 mph | 14 | S (176°) | 99511 | 101657 | 33.6°C | 35.3% | 16.2°C | 7743ft (2360m) | 13.28v | 31 |
| 6222 | 14 Apr 14:26:54 | 9 | 9.2 mph | 11 | S (184°) | 99520 | 101667 | 33.6°C | 35.3% | 16.2°C | 7743ft (2360m) | 13.33v | 31 |
| 6221 | 14 Apr 14:26:43 | 9 | 10.3 mph | 12 | S (181°) | 99521 | 101668 | 33.6°C | 35% | 16°C | 7798ft (2377m) | 13.31v | 31 |
| 6220 | 14 Apr 14:26:32 | 11 | 14.1 mph | 17 | S (185°) | 99521 | 101668 | 33.6°C | 34.9% | 16°C | 7816ft (2382m) | 13.31v | 31 |
| 6219 | 14 Apr 14:26:21 | 13 | 14.9 mph | 16 | SSW (192°) | 99512 | 101658 | 33.7°C | 35.1% | 16.2°C | 7785ft (2373m) | 13.32v | 31 |
| 6218 | 14 Apr 14:26:09 | 10 | 11.1 mph | 13 | S (189°) | 99519 | 101666 | 33.7°C | 35.3% | 16.2°C | 7748ft (2362m) | 13.29v | 31 |
| 6217 | 14 Apr 14:25:58 | 10 | 12.5 mph | 15 | S (186°) | 99515 | 101662 | 33.7°C | 35.5% | 16.3°C | 7712ft (2351m) | 13.3v | 31 |
| 6216 | 14 Apr 14:25:47 | 7 | 9.2 mph | 11 | S (174°) | 99515 | 101662 | 33.7°C | 35.4% | 16.3°C | 7730ft (2356m) | 13.32v | 31 |
| 6215 | 14 Apr 14:25:36 | 12 | 13.8 mph | 18 | SSW (206°) | 99519 | 101666 | 33.7°C | 35.4% | 16.3°C | 7730ft (2356m) | 13.29v | 31 |
| 6214 | 14 Apr 14:25:24 | 10 | 11.8 mph | 14 | S (185°) | 99515 | 101662 | 33.7°C | 35.5% | 16.3°C | 7712ft (2351m) | 13.3v | 31 |
| 6213 | 14 Apr 14:25:13 | 9 | 11.1 mph | 13 | S (184°) | 99514 | 101661 | 33.8°C | 35.8% | 16.5°C | 7663ft (2336m) | 13.28v | 31 |
| 6212 | 14 Apr 14:25:02 | 8 | 9.8 mph | 12 | S (191°) | 99528 | 101675 | 33.8°C | 36% | 16.6°C | 7627ft (2325m) | 13.3v | 31 |
| 6211 | 14 Apr 14:24:51 | 6 | 6.7 mph | 9 | SSE (166°) | 99520 | 101667 | 33.8°C | 35.8% | 16.5°C | 7663ft (2336m) | 13.29v | 31 |
| 6210 | 14 Apr 14:24:39 | 7 | 8.2 mph | 10 | SSW (211°) | 99522 | 101669 | 33.8°C | 35.9% | 16.6°C | 7645ft (2330m) | 13.3v | 31 |
| 6209 | 14 Apr 14:24:28 | 5 | 6.3 mph | 8 | S (184°) | 99523 | 101670 | 33.8°C | 36% | 16.6°C | 7627ft (2325m) | 13.3v | 31 |
| 6208 | 14 Apr 14:24:17 | 5 | 8.7 mph | 12 | S (184°) | 99526 | 101673 | 33.8°C | 36.1% | 16.7°C | 7609ft (2319m) | 13.29v | 31 |
| 6207 | 14 Apr 14:24:06 | 8 | 11.4 mph | 14 | SSW (192°) | 99517 | 101664 | 33.8°C | 36% | 16.6°C | 7627ft (2325m) | 13.29v | 31 |
| 6206 | 14 Apr 14:23:54 | 8 | 10.4 mph | 13 | SSW (202°) | 99526 | 101673 | 33.8°C | 36% | 16.6°C | 7627ft (2325m) | 13.3v | 31 |
| 6205 | 14 Apr 14:23:43 | 5 | 7 mph | 10 | SSW (195°) | 99513 | 101660 | 33.8°C | 36.1% | 16.7°C | 7609ft (2319m) | 13.27v | 31 |
| 6204 | 14 Apr 14:23:32 | 8 | 8.6 mph | 9 | S (187°) | 99523 | 101670 | 33.8°C | 36% | 16.6°C | 7627ft (2325m) | 13.29v | 31 |
| 6203 | 14 Apr 14:23:21 | 7 | 8.5 mph | 11 | SSW (198°) | 99525 | 101672 | 33.8°C | 36.3% | 16.8°C | 7573ft (2308m) | 13.29v | 31 |
| 6202 | 14 Apr 14:23:09 | 5 | 6.1 mph | 8 | SSW (208°) | 99528 | 101675 | 33.8°C | 36.2% | 16.7°C | 7591ft (2314m) | 13.29v | 31 |
| 6201 | 14 Apr 14:22:58 | 8 | 8.4 mph | 10 | SSW (197°) | 99526 | 101673 | 33.8°C | 35.9% | 16.6°C | 7645ft (2330m) | 13.29v | 31 |
| 6200 | 14 Apr 14:22:47 | 8 | 9.1 mph | 10 | S (180°) | 99527 | 101674 | 33.8°C | 35.6% | 16.5°C | 7699ft (2347m) | 13.3v | 31 |
| 6199 | 14 Apr 14:22:36 | 8 | 9.9 mph | 11 | S (187°) | 99523 | 101670 | 33.8°C | 35.6% | 16.5°C | 7699ft (2347m) | 13.27v | 31 |
| 6198 | 14 Apr 14:22:24 | 7 | 9.5 mph | 11 | S (177°) | 99522 | 101669 | 33.8°C | 35.9% | 16.6°C | 7645ft (2330m) | 13.28v | 31 |
| 6197 | 14 Apr 14:22:13 | 6 | 7.5 mph | 9 | S (185°) | 99527 | 101674 | 33.8°C | 36% | 16.6°C | 7627ft (2325m) | 13.27v | 31 |
| 6196 | 14 Apr 14:22:02 | 6 | 6.3 mph | 7 | S (174°) | 99531 | 101678 | 33.8°C | 36% | 16.6°C | 7627ft (2325m) | 13.29v | 31 |
| 6195 | 14 Apr 14:21:51 | 7 | 7.1 mph | 8 | S (178°) | 99529 | 101676 | 33.8°C | 35.8% | 16.5°C | 7663ft (2336m) | 13.31v | 31 |
| 6194 | 14 Apr 14:21:39 | 5 | 5.7 mph | 7 | SSW (195°) | 99531 | 101678 | 33.8°C | 35.5% | 16.4°C | 7717ft (2352m) | 13.28v | 31 |
| 6193 | 14 Apr 14:21:28 | 6 | 7 mph | 9 | S (171°) | 99527 | 101674 | 33.8°C | 35.3% | 16.3°C | 7753ft (2363m) | 13.29v | 31 |
| 6192 | 14 Apr 14:21:17 | 5 | 7.8 mph | 10 | S (172°) | 99532 | 101679 | 33.8°C | 35.1% | 16.2°C | 7790ft (2374m) | 13.27v | 31 |
| 6191 | 14 Apr 14:21:06 | 7 | 8.7 mph | 11 | S (169°) | 99530 | 101677 | 33.8°C | 35.1% | 16.2°C | 7790ft (2374m) | 13.25v | 31 |
| 6190 | 14 Apr 14:20:54 | 9 | 9.1 mph | 11 | SSW (193°) | 99519 | 101666 | 33.8°C | 34.8% | 16.1°C | 7845ft (2391m) | 13.29v | 31 |
| 6189 | 14 Apr 14:20:43 | 8 | 8.3 mph | 11 | S (190°) | 99528 | 101675 | 33.8°C | 34.8% | 16.1°C | 7845ft (2391m) | 13.27v | 31 |
| 6188 | 14 Apr 14:20:32 | 8 | 9.9 mph | 13 | S (184°) | 99526 | 101673 | 33.9°C | 34.7% | 16.1°C | 7869ft (2398m) | 13.29v | 31 |
| 6187 | 14 Apr 14:20:21 | 9 | 11.6 mph | 15 | S (181°) | 99521 | 101668 | 33.9°C | 34.9% | 16.2°C | 7832ft (2387m) | 13.26v | 31 |
| 6186 | 14 Apr 14:20:09 | 9 | 9.8 mph | 12 | S (191°) | 99527 | 101674 | 33.9°C | 34.9% | 16.2°C | 7832ft (2387m) | 13.28v | 31 |
| 6185 | 14 Apr 14:19:58 | 7 | 8.7 mph | 11 | S (184°) | 99521 | 101668 | 33.9°C | 35% | 16.3°C | 7813ft (2381m) | 13.29v | 31 |
| 6184 | 14 Apr 14:19:47 | 11 | 13.5 mph | 16 | S (177°) | 99525 | 101672 | 34°C | 34.9% | 16.3°C | 7837ft (2389m) | 13.27v | 31 |
| 6183 | 14 Apr 14:19:36 | 9 | 12 mph | 18 | S (172°) | 99517 | 101664 | 34°C | 35.3% | 16.5°C | 7763ft (2366m) | 13.28v | 31 |
| 6182 | 14 Apr 14:19:24 | 8 | 9.9 mph | 12 | SSW (206°) | 99527 | 101674 | 34°C | 35.4% | 16.5°C | 7745ft (2361m) | 13.23v | 31 |
| 6181 | 14 Apr 14:19:13 | 10 | 11.2 mph | 13 | S (190°) | 99526 | 101673 | 34°C | 35.1% | 16.4°C | 7800ft (2377m) | 13.28v | 31 |
| 6180 | 14 Apr 14:19:02 | 9 | 12.8 mph | 16 | SSW (197°) | 99528 | 101675 | 34.1°C | 35.1% | 16.5°C | 7805ft (2379m) | 13.25v | 31 |
| 6179 | 14 Apr 14:18:51 | 8 | 10.2 mph | 12 | SSW (196°) | 99527 | 101674 | 34.1°C | 35.4% | 16.6°C | 7750ft (2362m) | 13.24v | 31 |
| 6178 | 14 Apr 14:18:39 | 5 | 7.6 mph | 10 | S (186°) | 99525 | 101672 | 34.2°C | 35.5% | 16.8°C | 7737ft (2358m) | 13.28v | 31 |
| 6177 | 14 Apr 14:18:28 | 8 | 10.3 mph | 15 | S (184°) | 99523 | 101670 | 34.2°C | 35.4% | 16.7°C | 7755ft (2364m) | 13.27v | 31 |
| 6176 | 14 Apr 14:18:17 | 11 | 11.7 mph | 13 | S (189°) | 99512 | 101658 | 34.2°C | 35.4% | 16.7°C | 7755ft (2364m) | 13.31v | 31 |
| 6175 | 14 Apr 14:18:06 | 10 | 12.5 mph | 15 | SSE (159°) | 99516 | 101663 | 34.2°C | 35.3% | 16.7°C | 7774ft (2370m) | 13.22v | 31 |
| 6174 | 14 Apr 14:17:54 | 11 | 11.6 mph | 13 | S (173°) | 99518 | 101665 | 34.3°C | 35.4% | 16.8°C | 7761ft (2366m) | 13.28v | 31 |
| 6173 | 14 Apr 14:17:43 | 11 | 12 mph | 15 | S (170°) | 99530 | 101677 | 34.3°C | 35.4% | 16.8°C | 7761ft (2366m) | 13.29v | 31 |
| 6172 | 14 Apr 14:17:32 | 7 | 9.6 mph | 12 | S (169°) | 99514 | 101661 | 34.3°C | 35.7% | 16.9°C | 7706ft (2349m) | 13.25v | 31 |
| 6171 | 14 Apr 14:17:21 | 7 | 7.7 mph | 10 | S (174°) | 99527 | 101674 | 34.3°C | 35.9% | 17°C | 7670ft (2338m) | 13.28v | 31 |
| 6170 | 14 Apr 14:17:09 | 8 | 9.8 mph | 12 | S (179°) | 99528 | 101675 | 34.3°C | 35.9% | 17°C | 7670ft (2338m) | 13.29v | 31 |
| 6169 | 14 Apr 14:16:58 | 8 | 9.1 mph | 13 | S (183°) | 99529 | 101676 | 34.3°C | 35.9% | 17°C | 7670ft (2338m) | 13.23v | 31 |
| 6168 | 14 Apr 14:16:47 | 8 | 9.7 mph | 14 | S (177°) | 99519 | 101666 | 34.4°C | 36% | 17.2°C | 7657ft (2334m) | 13.25v | 31 |
| 6167 | 14 Apr 14:16:36 | 7 | 7.3 mph | 11 | SSW (207°) | 99525 | 101672 | 34.4°C | 36% | 17.2°C | 7657ft (2334m) | 13.26v | 31 |
| 6166 | 14 Apr 14:16:24 | 8 | 9.1 mph | 11 | S (182°) | 99530 | 101677 | 34.4°C | 35.6% | 17°C | 7729ft (2356m) | 13.23v | 31 |
| 6165 | 14 Apr 14:16:13 | 9 | 11.5 mph | 14 | S (177°) | 99525 | 101672 | 34.4°C | 35.6% | 17°C | 7729ft (2356m) | 13.28v | 31 |
| 6164 | 14 Apr 14:16:02 | 8 | 10.6 mph | 14 | SSE (166°) | 99528 | 101675 | 34.4°C | 35.9% | 17.1°C | 7675ft (2339m) | 13.25v | 31 |
| 6163 | 14 Apr 14:15:51 | 5 | 5.5 mph | 8 | S (186°) | 99531 | 101678 | 34.4°C | 36.2% | 17.3°C | 7621ft (2323m) | 13.32v | 31 |
| 6162 | 14 Apr 14:15:39 | 8 | 9.9 mph | 13 | S (171°) | 99528 | 101675 | 34.4°C | 36% | 17.2°C | 7657ft (2334m) | 13.28v | 31 |
| 6161 | 14 Apr 14:15:28 | 8 | 10.7 mph | 13 | S (174°) | 99515 | 101662 | 34.4°C | 36.3% | 17.3°C | 7603ft (2317m) | 13.28v | 31 |
| 6160 | 14 Apr 14:15:17 | 6 | 6.8 mph | 9 | SSW (197°) | 99531 | 101678 | 34.5°C | 36.4% | 17.4°C | 7590ft (2313m) | 13.31v | 31 |
| 6159 | 14 Apr 14:15:06 | 7 | 7.5 mph | 9 | SSE (166°) | 99533 | 101680 | 34.4°C | 36.4% | 17.3°C | 7585ft (2312m) | 13.24v | 31 |
| 6158 | 14 Apr 14:14:54 | 10 | 9.8 mph | 10 | SSE (168°) | 99523 | 101670 | 34.4°C | 36.2% | 17.3°C | 7621ft (2323m) | 13.23v | 31 |
| 6157 | 14 Apr 14:14:43 | 6 | 8.6 mph | 11 | S (174°) | 99530 | 101677 | 34.4°C | 36.3% | 17.3°C | 7603ft (2317m) | 13.26v | 31 |
| 6156 | 14 Apr 14:14:32 | 5 | 6.5 mph | 9 | S (174°) | 99530 | 101677 | 34.4°C | 36.2% | 17.3°C | 7621ft (2323m) | 13.26v | 31 |
| 6155 | 14 Apr 14:14:21 | 5 | 5.7 mph | 7 | SSE (166°) | 99529 | 101676 | 34.4°C | 36.3% | 17.3°C | 7603ft (2317m) | 13.3v | 31 |
| 6154 | 14 Apr 14:14:09 | 4 | 5.6 mph | 7 | S (181°) | 99532 | 101679 | 34.4°C | 36.1% | 17.2°C | 7639ft (2328m) | 13.24v | 31 |
| 6153 | 14 Apr 14:13:58 | 6 | 8 mph | 11 | S (170°) | 99532 | 101679 | 34.4°C | 36.2% | 17.3°C | 7621ft (2323m) | 13.29v | 31 |
| 6152 | 14 Apr 14:13:47 | 6 | 8.9 mph | 12 | SSE (168°) | 99532 | 101679 | 34.4°C | 36.1% | 17.2°C | 7639ft (2328m) | 13.26v | 31 |
| 6151 | 14 Apr 14:13:36 | 10 | 10.7 mph | 13 | SSE (166°) | 99524 | 101671 | 34.4°C | 36% | 17.2°C | 7657ft (2334m) | 13.31v | 31 |
| 6150 | 14 Apr 14:13:24 | 11 | 12.1 mph | 15 | SSE (163°) | 99530 | 101677 | 34.4°C | 36% | 17.2°C | 7657ft (2334m) | 13.24v | 31 |
| 6149 | 14 Apr 14:13:13 | 11 | 12.1 mph | 14 | S (171°) | 99510 | 101656 | 34.5°C | 36% | 17.3°C | 7662ft (2335m) | 13.27v | 31 |
| 6148 | 14 Apr 14:13:02 | 7 | 8.7 mph | 11 | SSE (164°) | 99520 | 101667 | 34.5°C | 36.7% | 17.6°C | 7537ft (2297m) | 13.27v | 31 |
| 6147 | 14 Apr 14:12:51 | 9 | 9.6 mph | 12 | S (184°) | 99528 | 101675 | 34.4°C | 36.6% | 17.4°C | 7550ft (2301m) | 13.23v | 31 |
| 6146 | 14 Apr 14:12:39 | 8 | 9.2 mph | 10 | S (171°) | 99522 | 101669 | 34.4°C | 36.5% | 17.4°C | 7567ft (2306m) | 13.3v | 31 |
| 6145 | 14 Apr 14:12:28 | 6 | 6.3 mph | 7 | S (179°) | 99529 | 101676 | 34.5°C | 36.5% | 17.5°C | 7572ft (2308m) | 13.23v | 31 |
| 6144 | 14 Apr 14:12:18 | 7 | 8.7 mph | 10 | S (183°) | 99526 | 101673 | 34.5°C | 36.4% | 17.4°C | 7590ft (2313m) | 13.24v | 31 |
| 6143 | 14 Apr 14:12:07 | 7 | 8.8 mph | 10 | S (179°) | 99527 | 101674 | 34.5°C | 36.4% | 17.4°C | 7590ft (2313m) | 13.25v | 31 |
| 6142 | 14 Apr 14:11:55 | 8 | 10.1 mph | 12 | S (186°) | 99527 | 101674 | 34.4°C | 36.4% | 17.3°C | 7585ft (2312m) | 13.28v | 31 |
| 6141 | 14 Apr 14:11:44 | 10 | 10.7 mph | 13 | S (175°) | 99521 | 101668 | 34.5°C | 36.5% | 17.5°C | 7572ft (2308m) | 13.25v | 31 |
| 6140 | 14 Apr 14:11:33 | 7 | 8.4 mph | 10 | SSE (166°) | 99529 | 101676 | 34.5°C | 36.9% | 17.6°C | 7502ft (2287m) | 13.24v | 31 |
| 6139 | 14 Apr 14:11:22 | 5 | 8.7 mph | 13 | SSW (192°) | 99529 | 101676 | 34.5°C | 36.6% | 17.5°C | 7555ft (2303m) | 13.26v | 31 |
| 6138 | 14 Apr 14:11:10 | 9 | 11.3 mph | 14 | SSW (194°) | 99526 | 101673 | 34.5°C | 36.9% | 17.6°C | 7502ft (2287m) | 13.33v | 31 |
| 6137 | 14 Apr 14:10:59 | 8 | 9.2 mph | 11 | S (172°) | 99532 | 101679 | 34.5°C | 36.8% | 17.6°C | 7519ft (2292m) | 13.26v | 31 |
| 6136 | 14 Apr 14:10:48 | 9 | 9.1 mph | 11 | S (177°) | 99529 | 101676 | 34.5°C | 36.7% | 17.6°C | 7537ft (2297m) | 13.25v | 31 |
| 6135 | 14 Apr 14:10:37 | 10 | 11.3 mph | 14 | S (184°) | 99523 | 101670 | 34.5°C | 36.7% | 17.6°C | 7537ft (2297m) | 13.28v | 31 |
| 6134 | 14 Apr 14:10:25 | 4 | 6.7 mph | 8 | SSW (201°) | 99529 | 101676 | 34.5°C | 36.8% | 17.6°C | 7519ft (2292m) | 13.28v | 31 |
| 6133 | 14 Apr 14:10:14 | 6 | 7.3 mph | 9 | S (186°) | 99529 | 101676 | 34.5°C | 36.9% | 17.6°C | 7502ft (2287m) | 13.24v | 31 |
| 6132 | 14 Apr 14:10:03 | 8 | 9.5 mph | 12 | S (171°) | 99528 | 101675 | 34.5°C | 36.9% | 17.6°C | 7502ft (2287m) | 13.24v | 31 |
| 6131 | 14 Apr 14:09:52 | 9 | 12 mph | 16 | S (185°) | 99525 | 101672 | 34.5°C | 37% | 17.7°C | 7484ft (2281m) | 13.28v | 31 |
| 6130 | 14 Apr 14:09:40 | 9 | 11.6 mph | 16 | S (190°) | 99512 | 101658 | 34.5°C | 37.2% | 17.8°C | 7449ft (2270m) | 13.29v | 31 |
| 6129 | 14 Apr 14:09:29 | 6 | 8.7 mph | 10 | S (179°) | 99527 | 101674 | 34.5°C | 37.3% | 17.8°C | 7431ft (2265m) | 13.27v | 31 |
| 6128 | 14 Apr 14:09:17 | 4 | 5 mph | 6 | S (178°) | 99530 | 101677 | 34.5°C | 37.7% | 18°C | 7362ft (2244m) | 13.28v | 31 |
| 6127 | 14 Apr 14:09:06 | 5 | 5.8 mph | 7 | S (186°) | 99532 | 101679 | 34.5°C | 37.7% | 18°C | 7362ft (2244m) | 13.25v | 31 |
| 6126 | 14 Apr 14:08:54 | 6 | 7.6 mph | 9 | S (185°) | 99528 | 101675 | 34.4°C | 37.7% | 17.9°C | 7357ft (2242m) | 13.25v | 31 |
| 6125 | 14 Apr 14:08:43 | 5 | 6.1 mph | 7 | S (185°) | 99524 | 101671 | 34.4°C | 37.8% | 17.9°C | 7340ft (2237m) | 13.3v | 31 |
| 6124 | 14 Apr 14:08:32 | 6 | 7.6 mph | 10 | S (176°) | 99528 | 101675 | 34.4°C | 37.7% | 17.9°C | 7357ft (2242m) | 13.24v | 31 |
| 6123 | 14 Apr 14:08:21 | 8 | 8.8 mph | 10 | S (173°) | 99523 | 101670 | 34.4°C | 37.9% | 18°C | 7323ft (2232m) | 13.27v | 31 |
| 6122 | 14 Apr 14:08:09 | 4 | 6.4 mph | 9 | S (174°) | 99528 | 101675 | 34.4°C | 38% | 18°C | 7305ft (2227m) | 13.28v | 31 |
| 6121 | 14 Apr 14:07:58 | 4 | 5.5 mph | 8 | S (177°) | 99532 | 101679 | 34.4°C | 37.7% | 17.9°C | 7357ft (2242m) | 13.24v | 31 |
| 6120 | 14 Apr 14:07:47 | 5 | 5.9 mph | 7 | SSE (160°) | 99532 | 101679 | 34.4°C | 37.6% | 17.9°C | 7374ft (2248m) | 13.31v | 31 |
| 6119 | 14 Apr 14:07:36 | 4 | 4.5 mph | 6 | S (169°) | 99533 | 101680 | 34.3°C | 37.5% | 17.7°C | 7387ft (2252m) | 13.28v | 31 |
| 6118 | 14 Apr 14:07:24 | 4 | 5.5 mph | 7 | S (177°) | 99533 | 101680 | 34.3°C | 37.5% | 17.7°C | 7387ft (2252m) | 13.26v | 31 |
| 6117 | 14 Apr 14:07:13 | 5 | 5.7 mph | 6 | SSE (164°) | 99532 | 101679 | 34.3°C | 37.5% | 17.7°C | 7387ft (2252m) | 13.26v | 31 |
| 6116 | 14 Apr 14:07:02 | 7 | 7.3 mph | 8 | SSE (163°) | 99531 | 101678 | 34.3°C | 37.5% | 17.7°C | 7387ft (2252m) | 13.23v | 31 |
| 6115 | 14 Apr 14:06:51 | 9 | 9.2 mph | 10 | SSE (166°) | 99533 | 101680 | 34.3°C | 37.6% | 17.8°C | 7370ft (2246m) | 13.29v | 31 |
| 6114 | 14 Apr 14:06:39 | 8 | 8.4 mph | 9 | SSE (165°) | 99528 | 101675 | 34.2°C | 37.6% | 17.7°C | 7365ft (2245m) | 13.27v | 31 |
| 6113 | 14 Apr 14:06:28 | 8 | 10.2 mph | 12 | SSE (158°) | 99531 | 101678 | 34.2°C | 37.6% | 17.7°C | 7365ft (2245m) | 13.24v | 31 |
| 6112 | 14 Apr 14:06:18 | 7 | 8 mph | 11 | S (179°) | 99528 | 101675 | 34.2°C | 37.5% | 17.6°C | 7382ft (2250m) | 13.27v | 31 |
| 6111 | 14 Apr 14:06:06 | 8 | 8.6 mph | 10 | S (189°) | 99528 | 101675 | 34.2°C | 37.2% | 17.5°C | 7434ft (2266m) | 13.28v | 31 |
| 6110 | 14 Apr 14:05:55 | 6 | 7.1 mph | 8 | S (188°) | 99531 | 101678 | 34.2°C | 37.7% | 17.7°C | 7347ft (2239m) | 13.29v | 31 |
| 6109 | 14 Apr 14:05:44 | 9 | 10.1 mph | 12 | S (182°) | 99534 | 101681 | 34.2°C | 37.5% | 17.6°C | 7382ft (2250m) | 13.28v | 31 |
| 6108 | 14 Apr 14:05:33 | 8 | 9 mph | 10 | S (172°) | 99525 | 101672 | 34.2°C | 37.5% | 17.6°C | 7382ft (2250m) | 13.24v | 31 |
| 6107 | 14 Apr 14:05:21 | 7 | 8.3 mph | 10 | SSW (201°) | 99529 | 101676 | 34.2°C | 37.6% | 17.7°C | 7365ft (2245m) | 13.32v | 31 |
| 6106 | 14 Apr 14:05:10 | 6 | 8.2 mph | 11 | S (190°) | 99530 | 101677 | 34.2°C | 37.6% | 17.7°C | 7365ft (2245m) | 13.25v | 31 |
| 6105 | 14 Apr 14:04:59 | 7 | 8.4 mph | 10 | S (176°) | 99522 | 101669 | 34.2°C | 37.6% | 17.7°C | 7365ft (2245m) | 13.29v | 31 |
| 6104 | 14 Apr 14:04:48 | 8 | 9.2 mph | 11 | S (171°) | 99528 | 101675 | 34.1°C | 37.4% | 17.5°C | 7395ft (2254m) | 13.28v | 31 |
| 6103 | 14 Apr 14:04:36 | 11 | 12 mph | 13 | S (170°) | 99522 | 101669 | 34.1°C | 37.3% | 17.5°C | 7412ft (2259m) | 13.25v | 31 |
| 6102 | 14 Apr 14:04:25 | 8 | 10 mph | 12 | S (177°) | 99522 | 101669 | 34.1°C | 37.7% | 17.6°C | 7343ft (2238m) | 13.29v | 31 |
| 6101 | 14 Apr 14:04:14 | 5 | 6.6 mph | 10 | S (184°) | 99520 | 101667 | 34.1°C | 38.1% | 17.8°C | 7274ft (2217m) | 13.28v | 31 |
| 6100 | 14 Apr 14:04:03 | 4 | 5.2 mph | 6 | S (174°) | 99527 | 101674 | 34.1°C | 37.7% | 17.6°C | 7343ft (2238m) | 13.26v | 31 |
| 6099 | 14 Apr 14:03:51 | 5 | 5.3 mph | 7 | S (181°) | 99531 | 101678 | 34.1°C | 37.8% | 17.7°C | 7325ft (2233m) | 13.28v | 31 |
| 6098 | 14 Apr 14:03:40 | 5 | 5.9 mph | 8 | S (182°) | 99532 | 101679 | 34.1°C | 37.6% | 17.6°C | 7360ft (2243m) | 13.29v | 31 |
| 6097 | 14 Apr 14:03:29 | 9 | 9 mph | 10 | S (173°) | 99525 | 101672 | 34°C | 37.6% | 17.5°C | 7355ft (2242m) | 13.3v | 31 |
| 6096 | 14 Apr 14:03:17 | 7 | 8.1 mph | 10 | S (169°) | 99523 | 101670 | 34°C | 37.6% | 17.5°C | 7355ft (2242m) | 13.25v | 31 |
| 6095 | 14 Apr 14:03:06 | 7 | 9.4 mph | 12 | S (172°) | 99529 | 101676 | 34°C | 37.7% | 17.5°C | 7338ft (2237m) | 13.25v | 31 |
| 6094 | 14 Apr 14:02:54 | 10 | 11 mph | 12 | S (185°) | 99525 | 101672 | 34°C | 37.9% | 17.6°C | 7303ft (2226m) | 13.25v | 31 |
| 6093 | 14 Apr 14:02:43 | 7 | 9.1 mph | 12 | S (180°) | 99526 | 101673 | 34°C | 37.9% | 17.6°C | 7303ft (2226m) | 13.29v | 31 |
| 6092 | 14 Apr 14:02:32 | 9 | 11.7 mph | 14 | S (181°) | 99526 | 101673 | 34.1°C | 37.8% | 17.7°C | 7325ft (2233m) | 13.29v | 31 |
| 6091 | 14 Apr 14:02:21 | 11 | 12.1 mph | 15 | S (180°) | 99522 | 101669 | 34.1°C | 38% | 17.8°C | 7291ft (2222m) | 13.27v | 31 |
| 6090 | 14 Apr 14:02:09 | 8 | 8.2 mph | 10 | S (179°) | 99526 | 101673 | 34°C | 38.1% | 17.7°C | 7269ft (2216m) | 13.29v | 31 |
| 6089 | 14 Apr 14:01:58 | 9 | 9.8 mph | 11 | S (178°) | 99522 | 101669 | 34.1°C | 38.1% | 17.8°C | 7274ft (2217m) | 13.28v | 31 |
| 6088 | 14 Apr 14:01:47 | 5 | 7.1 mph | 12 | S (183°) | 99517 | 101664 | 34°C | 38.3% | 17.8°C | 7235ft (2205m) | 13.29v | 31 |
| 6087 | 14 Apr 14:01:36 | 6 | 7.4 mph | 9 | S (181°) | 99527 | 101674 | 34°C | 38.3% | 17.8°C | 7235ft (2205m) | 13.27v | 31 |
| 6086 | 14 Apr 14:01:24 | 5 | 5.9 mph | 7 | SSW (194°) | 99530 | 101677 | 34°C | 38.4% | 17.8°C | 7218ft (2200m) | 13.29v | 31 |
| 6085 | 14 Apr 14:01:13 | 5 | 5.5 mph | 7 | S (179°) | 99530 | 101677 | 34°C | 38.2% | 17.8°C | 7252ft (2210m) | 13.28v | 31 |
| 6084 | 14 Apr 14:01:02 | 9 | 9.9 mph | 11 | S (169°) | 99527 | 101674 | 34°C | 38.2% | 17.8°C | 7252ft (2210m) | 13.25v | 31 |
| 6083 | 14 Apr 14:00:51 | 7 | 9.1 mph | 11 | S (180°) | 99524 | 101671 | 34°C | 38.2% | 17.8°C | 7252ft (2210m) | 13.28v | 31 |
| 6082 | 14 Apr 14:00:39 | 10 | 10.4 mph | 12 | S (175°) | 99524 | 101671 | 34°C | 38.3% | 17.8°C | 7235ft (2205m) | 13.28v | 31 |
| 6081 | 14 Apr 14:00:28 | 6 | 6.7 mph | 8 | S (180°) | 99524 | 101671 | 34°C | 38.3% | 17.8°C | 7235ft (2205m) | 13.3v | 31 |
| 6080 | 14 Apr 14:00:17 | 6 | 8.8 mph | 11 | SSE (160°) | 99524 | 101671 | 34°C | 38.3% | 17.8°C | 7235ft (2205m) | 13.28v | 31 |
| 6079 | 14 Apr 14:00:06 | 8 | 9.9 mph | 12 | S (187°) | 99531 | 101678 | 34°C | 38.2% | 17.8°C | 7252ft (2210m) | 13.3v | 31 |
| 6078 | 14 Apr 13:59:54 | 8 | 9.9 mph | 12 | S (173°) | 99528 | 101675 | 34°C | 38.1% | 17.7°C | 7269ft (2216m) | 13.29v | 31 |
| 6077 | 14 Apr 13:59:43 | 7 | 9.4 mph | 11 | SSE (168°) | 99527 | 101674 | 34°C | 38.1% | 17.7°C | 7269ft (2216m) | 13.27v | 31 |
| 6076 | 14 Apr 13:59:32 | 11 | 12.3 mph | 13 | S (177°) | 99523 | 101670 | 34°C | 38.2% | 17.8°C | 7252ft (2210m) | 13.25v | 31 |
| 6075 | 14 Apr 13:59:21 | 5 | 6.7 mph | 12 | S (172°) | 99526 | 101673 | 34°C | 38.3% | 17.8°C | 7235ft (2205m) | 13.27v | 31 |
| 6074 | 14 Apr 13:59:09 | 6 | 7.4 mph | 9 | S (188°) | 99533 | 101680 | 33.9°C | 38% | 17.6°C | 7281ft (2219m) | 13.27v | 31 |
| 6073 | 14 Apr 13:58:58 | 8 | 10.3 mph | 12 | S (185°) | 99533 | 101680 | 34°C | 37.9% | 17.6°C | 7303ft (2226m) | 13.29v | 31 |
| 6072 | 14 Apr 13:58:47 | 6 | 7.5 mph | 10 | SSW (202°) | 99527 | 101674 | 34°C | 37.9% | 17.6°C | 7303ft (2226m) | 13.27v | 31 |
| 6071 | 14 Apr 13:58:36 | 8 | 8.2 mph | 10 | S (186°) | 99531 | 101678 | 34°C | 37.9% | 17.6°C | 7303ft (2226m) | 13.3v | 31 |
| 6070 | 14 Apr 13:58:24 | 10 | 10.4 mph | 11 | S (184°) | 99528 | 101675 | 34°C | 38.2% | 17.8°C | 7252ft (2210m) | 13.29v | 31 |
| 6069 | 14 Apr 13:58:13 | 9 | 10.2 mph | 12 | S (179°) | 99531 | 101678 | 34°C | 38% | 17.7°C | 7286ft (2221m) | 13.26v | 31 |
| 6068 | 14 Apr 13:58:02 | 6 | 8.6 mph | 13 | S (188°) | 99528 | 101675 | 34°C | 37.9% | 17.6°C | 7303ft (2226m) | 13.25v | 31 |
| 6067 | 14 Apr 13:57:51 | 9 | 9.4 mph | 12 | S (180°) | 99527 | 101674 | 34.1°C | 38.1% | 17.8°C | 7274ft (2217m) | 13.3v | 31 |
| 6066 | 14 Apr 13:57:39 | 5 | 5.9 mph | 8 | SSW (193°) | 99532 | 101679 | 34.1°C | 38.1% | 17.8°C | 7274ft (2217m) | 13.25v | 31 |
| 6065 | 14 Apr 13:57:28 | 8 | 9 mph | 10 | S (176°) | 99532 | 101679 | 34.1°C | 37.9% | 17.7°C | 7308ft (2227m) | 13.29v | 31 |
| 6064 | 14 Apr 13:57:17 | 8 | 9.8 mph | 11 | S (181°) | 99528 | 101675 | 34.1°C | 38.2% | 17.8°C | 7257ft (2212m) | 13.3v | 31 |
| 6063 | 14 Apr 13:57:06 | 8 | 10 mph | 12 | SSW (194°) | 99534 | 101681 | 34.1°C | 38.3% | 17.9°C | 7240ft (2207m) | 13.27v | 31 |
| 6062 | 14 Apr 13:56:54 | 9 | 9.8 mph | 11 | S (183°) | 99531 | 101678 | 34.1°C | 38.3% | 17.9°C | 7240ft (2207m) | 13.26v | 31 |
| 6061 | 14 Apr 13:56:43 | 7 | 8.6 mph | 11 | S (188°) | 99532 | 101679 | 34.1°C | 38.1% | 17.8°C | 7274ft (2217m) | 13.29v | 31 |
| 6060 | 14 Apr 13:56:32 | 8 | 9.3 mph | 13 | S (173°) | 99532 | 101679 | 34.1°C | 37.9% | 17.7°C | 7308ft (2227m) | 13.24v | 31 |
| 6059 | 14 Apr 13:56:21 | 11 | 12 mph | 14 | S (191°) | 99534 | 101681 | 34.1°C | 37.8% | 17.7°C | 7325ft (2233m) | 13.27v | 31 |
| 6058 | 14 Apr 13:56:09 | 7 | 8.9 mph | 11 | S (182°) | 99534 | 101681 | 34.2°C | 37.8% | 17.8°C | 7330ft (2234m) | 13.25v | 31 |
| 6057 | 14 Apr 13:55:58 | 7 | 9.4 mph | 13 | S (188°) | 99535 | 101682 | 34.2°C | 37.7% | 17.7°C | 7347ft (2239m) | 13.29v | 31 |
| 6056 | 14 Apr 13:55:47 | 8 | 8.9 mph | 11 | S (187°) | 99535 | 101682 | 34.2°C | 37.6% | 17.7°C | 7365ft (2245m) | 13.26v | 31 |
| 6055 | 14 Apr 13:55:36 | 8 | 9.8 mph | 12 | SSW (194°) | 99533 | 101680 | 34.2°C | 37.7% | 17.7°C | 7347ft (2239m) | 13.27v | 31 |
| 6054 | 14 Apr 13:55:24 | 6 | 7.4 mph | 10 | S (189°) | 99536 | 101683 | 34.2°C | 37.7% | 17.7°C | 7347ft (2239m) | 13.28v | 31 |
| 6053 | 14 Apr 13:55:13 | 9 | 9.7 mph | 11 | S (173°) | 99530 | 101677 | 34.2°C | 37.5% | 17.6°C | 7382ft (2250m) | 13.25v | 31 |
| 6052 | 14 Apr 13:55:02 | 9 | 12 mph | 14 | S (182°) | 99532 | 101679 | 34.2°C | 37.5% | 17.6°C | 7382ft (2250m) | 13.27v | 31 |
| 6051 | 14 Apr 13:54:51 | 8 | 9.1 mph | 10 | S (190°) | 99543 | 101690 | 34.2°C | 37.9% | 17.8°C | 7313ft (2229m) | 13.3v | 31 |
| 6050 | 14 Apr 13:54:39 | 7 | 9.1 mph | 11 | S (169°) | 99539 | 101686 | 34.3°C | 37.8% | 17.8°C | 7335ft (2236m) | 13.25v | 31 |
| 6049 | 14 Apr 13:54:28 | 8 | 11 mph | 14 | S (176°) | 99534 | 101681 | 34.3°C | 37.8% | 17.8°C | 7335ft (2236m) | 13.28v | 31 |
| 6048 | 14 Apr 13:54:18 | 7 | 8.7 mph | 11 | S (179°) | 99539 | 101686 | 34.3°C | 37.7% | 17.8°C | 7352ft (2241m) | 13.27v | 31 |
| 6047 | 14 Apr 13:54:06 | 7 | 8.3 mph | 10 | S (174°) | 99537 | 101684 | 34.3°C | 37.5% | 17.7°C | 7387ft (2252m) | 13.27v | 31 |
| 6046 | 14 Apr 13:53:55 | 7 | 7.9 mph | 10 | S (184°) | 99534 | 101681 | 34.3°C | 37.2% | 17.6°C | 7439ft (2267m) | 13.28v | 31 |
| 6045 | 14 Apr 13:53:44 | 8 | 9.4 mph | 12 | S (186°) | 99533 | 101680 | 34.3°C | 37.4% | 17.7°C | 7404ft (2257m) | 13.25v | 31 |
| 6044 | 14 Apr 13:53:33 | 7 | 8.2 mph | 10 | S (174°) | 99533 | 101680 | 34.3°C | 37.3% | 17.6°C | 7422ft (2262m) | 13.31v | 31 |
| 6043 | 14 Apr 13:53:21 | 8 | 8.4 mph | 10 | S (172°) | 99535 | 101682 | 34.3°C | 37.1% | 17.6°C | 7457ft (2273m) | 13.27v | 31 |
| 6042 | 14 Apr 13:53:10 | 7 | 7.5 mph | 9 | S (181°) | 99536 | 101683 | 34.3°C | 37.2% | 17.6°C | 7439ft (2267m) | 13.26v | 31 |
| 6041 | 14 Apr 13:52:59 | 7 | 7.8 mph | 9 | SSW (192°) | 99536 | 101683 | 34.3°C | 37.2% | 17.6°C | 7439ft (2267m) | 13.23v | 31 |
| 6040 | 14 Apr 13:52:48 | 8 | 10.1 mph | 12 | SSE (166°) | 99535 | 101682 | 34.3°C | 37.1% | 17.6°C | 7457ft (2273m) | 13.26v | 31 |
| 6039 | 14 Apr 13:52:36 | 5 | 6.5 mph | 9 | SSW (193°) | 99537 | 101684 | 34.4°C | 36.9% | 17.6°C | 7497ft (2285m) | 13.28v | 31 |
| 6038 | 14 Apr 13:52:25 | 6 | 7.3 mph | 9 | SSE (168°) | 99539 | 101686 | 34.4°C | 37.1% | 17.6°C | 7462ft (2274m) | 13.25v | 31 |
| 6037 | 14 Apr 13:52:14 | 8 | 8.5 mph | 10 | S (185°) | 99540 | 101687 | 34.4°C | 36.9% | 17.6°C | 7497ft (2285m) | 13.27v | 31 |
| 6036 | 14 Apr 13:52:03 | 9 | 9.4 mph | 10 | SSE (165°) | 99540 | 101687 | 34.4°C | 36.9% | 17.6°C | 7497ft (2285m) | 13.28v | 31 |
| 6035 | 14 Apr 13:51:51 | 10 | 11.2 mph | 13 | S (172°) | 99541 | 101688 | 34.4°C | 36.8% | 17.5°C | 7514ft (2290m) | 13.28v | 31 |
| 6034 | 14 Apr 13:51:40 | 8 | 9.7 mph | 11 | S (177°) | 99535 | 101682 | 34.4°C | 37.2% | 17.7°C | 7444ft (2269m) | 13.25v | 31 |
| 6033 | 14 Apr 13:51:29 | 6 | 8.1 mph | 11 | S (183°) | 99538 | 101685 | 34.4°C | 37.3% | 17.7°C | 7427ft (2264m) | 13.29v | 31 |
| 6032 | 14 Apr 13:51:17 | 9 | 10.5 mph | 12 | S (178°) | 99537 | 101684 | 34.4°C | 37.5% | 17.8°C | 7392ft (2253m) | 13.27v | 31 |
| 6031 | 14 Apr 13:51:06 | 9 | 11.5 mph | 14 | S (188°) | 99536 | 101683 | 34.4°C | 37.6% | 17.9°C | 7374ft (2248m) | 13.24v | 31 |
| 6030 | 14 Apr 13:50:54 | 9 | 9.2 mph | 11 | SSE (159°) | 99540 | 101687 | 34.5°C | 37.7% | 18°C | 7362ft (2244m) | 13.26v | 31 |
| 6029 | 14 Apr 13:50:43 | 6 | 6.7 mph | 8 | S (178°) | 99541 | 101688 | 34.5°C | 37.9% | 18.1°C | 7327ft (2233m) | 13.3v | 31 |
| 6028 | 14 Apr 13:50:32 | 3 | 3.8 mph | 6 | SSE (148°) | 99541 | 101688 | 34.5°C | 37.9% | 18.1°C | 7327ft (2233m) | 13.25v | 31 |
| 6027 | 14 Apr 13:50:21 | 6 | 7.7 mph | 10 | SSE (164°) | 99540 | 101687 | 34.5°C | 37.9% | 18.1°C | 7327ft (2233m) | 13.26v | 31 |
| 6026 | 14 Apr 13:50:09 | 9 | 10.2 mph | 11 | SSE (164°) | 99539 | 101686 | 34.5°C | 37.9% | 18.1°C | 7327ft (2233m) | 13.29v | 31 |
| 6025 | 14 Apr 13:49:58 | 6 | 7 mph | 8 | SSE (155°) | 99539 | 101686 | 34.5°C | 38.1% | 18.2°C | 7293ft (2223m) | 13.25v | 31 |
| 6024 | 14 Apr 13:49:47 | 6 | 6 mph | 9 | S (180°) | 99539 | 101686 | 34.5°C | 37.9% | 18.1°C | 7327ft (2233m) | 13.25v | 31 |
| 6023 | 14 Apr 13:49:36 | 5 | 7.3 mph | 12 | SE (146°) | 99535 | 101682 | 34.5°C | 38% | 18.1°C | 7310ft (2228m) | 13.26v | 31 |
| 6022 | 14 Apr 13:49:24 | 7 | 7.6 mph | 9 | S (183°) | 99545 | 101692 | 34.5°C | 37.9% | 18.1°C | 7327ft (2233m) | 13.27v | 31 |
| 6021 | 14 Apr 13:49:13 | 8 | 8.5 mph | 10 | S (182°) | 99540 | 101687 | 34.5°C | 37.9% | 18.1°C | 7327ft (2233m) | 13.26v | 31 |
| 6020 | 14 Apr 13:49:02 | 8 | 8.5 mph | 9 | SSE (162°) | 99535 | 101682 | 34.5°C | 38% | 18.1°C | 7310ft (2228m) | 13.25v | 31 |
| 6019 | 14 Apr 13:48:51 | 5 | 7.4 mph | 10 | S (176°) | 99542 | 101689 | 34.5°C | 37.8% | 18°C | 7345ft (2239m) | 13.27v | 31 |
| 6018 | 14 Apr 13:48:39 | 6 | 7.5 mph | 9 | SSE (150°) | 99545 | 101692 | 34.6°C | 37.7% | 18.1°C | 7367ft (2245m) | 13.25v | 31 |
| 6017 | 14 Apr 13:48:28 | 4 | 6.2 mph | 9 | SSE (163°) | 99542 | 101689 | 34.6°C | 37.6% | 18°C | 7384ft (2251m) | 13.26v | 31 |
| 6016 | 14 Apr 13:48:17 | 6 | 7.8 mph | 10 | S (178°) | 99545 | 101692 | 34.6°C | 37.5% | 18°C | 7401ft (2256m) | 13.26v | 31 |
| 6015 | 14 Apr 13:48:06 | 7 | 7.7 mph | 9 | SSE (156°) | 99543 | 101690 | 34.6°C | 37.3% | 17.9°C | 7436ft (2266m) | 13.25v | 31 |
| 6014 | 14 Apr 13:47:54 | 10 | 11 mph | 13 | S (171°) | 99540 | 101687 | 34.6°C | 37.2% | 17.9°C | 7454ft (2272m) | 13.24v | 31 |
| 6013 | 14 Apr 13:47:43 | 6 | 7.2 mph | 9 | S (185°) | 99545 | 101692 | 34.6°C | 37.4% | 17.9°C | 7419ft (2261m) | 13.27v | 31 |
| 6012 | 14 Apr 13:47:32 | 8 | 10.1 mph | 12 | S (177°) | 99541 | 101688 | 34.7°C | 37.6% | 18.1°C | 7389ft (2252m) | 13.23v | 31 |
| 6011 | 14 Apr 13:47:21 | 6 | 8.1 mph | 10 | S (184°) | 99542 | 101689 | 34.7°C | 37.6% | 18.1°C | 7389ft (2252m) | 13.25v | 31 |
| 6010 | 14 Apr 13:47:09 | 5 | 5.7 mph | 6 | S (180°) | 99542 | 101689 | 34.7°C | 37.5% | 18.1°C | 7406ft (2257m) | 13.28v | 31 |
| 6009 | 14 Apr 13:46:58 | 8 | 9.2 mph | 11 | SSE (165°) | 99539 | 101686 | 34.7°C | 37.6% | 18.1°C | 7389ft (2252m) | 13.23v | 31 |
| 6008 | 14 Apr 13:46:47 | 5 | 7.2 mph | 12 | SSE (165°) | 99541 | 101688 | 34.7°C | 37.7% | 18.2°C | 7372ft (2247m) | 13.24v | 31 |
| 6007 | 14 Apr 13:46:36 | 4 | 4.4 mph | 5 | SSE (152°) | 99549 | 101696 | 34.7°C | 37.6% | 18.1°C | 7389ft (2252m) | 13.26v | 31 |
| 6006 | 14 Apr 13:46:24 | 6 | 6 mph | 7 | SSE (160°) | 99547 | 101694 | 34.7°C | 37.6% | 18.1°C | 7389ft (2252m) | 13.25v | 31 |
| 6005 | 14 Apr 13:46:13 | 5 | 6.1 mph | 9 | SSE (157°) | 99550 | 101697 | 34.7°C | 37.5% | 18.1°C | 7406ft (2257m) | 13.26v | 31 |
| 6004 | 14 Apr 13:46:02 | 5 | 6.9 mph | 11 | SSE (167°) | 99547 | 101694 | 34.7°C | 37.3% | 18°C | 7441ft (2268m) | 13.27v | 31 |
| 6003 | 14 Apr 13:45:51 | 8 | 9.9 mph | 13 | S (173°) | 99548 | 101695 | 34.7°C | 37.5% | 18.1°C | 7406ft (2257m) | 13.25v | 31 |
| 6002 | 14 Apr 13:45:39 | 7 | 7 mph | 8 | S (176°) | 99549 | 101696 | 34.8°C | 37.5% | 18.2°C | 7411ft (2259m) | 13.24v | 31 |
| 6001 | 14 Apr 13:45:28 | 5 | 6.3 mph | 9 | S (170°) | 99544 | 101691 | 34.8°C | 37.5% | 18.2°C | 7411ft (2259m) | 13.22v | 31 |
| 6000 | 14 Apr 13:45:17 | 5 | 7.9 mph | 10 | S (183°) | 99551 | 101698 | 34.8°C | 37.4% | 18.1°C | 7429ft (2264m) | 13.24v | 31 |
| 5999 | 14 Apr 13:45:06 | 6 | 6.6 mph | 9 | SSE (167°) | 99546 | 101693 | 34.8°C | 37.4% | 18.1°C | 7429ft (2264m) | 13.3v | 31 |
| 5998 | 14 Apr 13:44:54 | 6 | 7.6 mph | 10 | S (184°) | 99548 | 101695 | 34.8°C | 37.3% | 18.1°C | 7446ft (2270m) | 13.25v | 31 |
| 5997 | 14 Apr 13:44:43 | 9 | 10.1 mph | 11 | SSE (167°) | 99545 | 101692 | 34.8°C | 37.3% | 18.1°C | 7446ft (2270m) | 13.27v | 31 |
| 5996 | 14 Apr 13:44:32 | 10 | 11.1 mph | 13 | S (182°) | 99547 | 101694 | 34.8°C | 37.2% | 18°C | 7464ft (2275m) | 13.25v | 31 |
| 5995 | 14 Apr 13:44:21 | 11 | 11.7 mph | 13 | SSE (161°) | 99532 | 101679 | 34.9°C | 37% | 18°C | 7504ft (2287m) | 13.3v | 31 |
| 5994 | 14 Apr 13:44:09 | 5 | 10.8 mph | 17 | SSE (164°) | 99543 | 101690 | 34.9°C | 37% | 18°C | 7504ft (2287m) | 13.26v | 31 |
| 5993 | 14 Apr 13:43:58 | 7 | 7 mph | 8 | S (178°) | 99550 | 101697 | 34.8°C | 36.9% | 17.9°C | 7516ft (2291m) | 13.24v | 31 |
| 5992 | 14 Apr 13:43:47 | 5 | 5 mph | 7 | S (191°) | 99550 | 101697 | 34.9°C | 36.8% | 18°C | 7539ft (2298m) | 13.31v | 31 |
| 5991 | 14 Apr 13:43:36 | 4 | 4.1 mph | 5 | SSW (195°) | 99547 | 101694 | 34.9°C | 36.6% | 17.9°C | 7575ft (2309m) | 13.27v | 31 |
| 5990 | 14 Apr 13:43:24 | 5 | 5.9 mph | 8 | SSE (167°) | 99546 | 101693 | 34.9°C | 36.3% | 17.7°C | 7628ft (2325m) | 13.28v | 31 |
| 5989 | 14 Apr 13:43:13 | 8 | 10.1 mph | 12 | SSW (198°) | 99545 | 101692 | 34.9°C | 36% | 17.6°C | 7682ft (2341m) | 13.28v | 31 |
| 5988 | 14 Apr 13:43:02 | 10 | 12.3 mph | 15 | SSW (206°) | 99538 | 101685 | 34.9°C | 36% | 17.6°C | 7682ft (2341m) | 13.23v | 31 |
| 5987 | 14 Apr 13:42:51 | 11 | 12.1 mph | 14 | SSW (211°) | 99540 | 101687 | 35°C | 36.6% | 18°C | 7579ft (2310m) | 13.3v | 31 |
| 5986 | 14 Apr 13:42:39 | 10 | 11.4 mph | 13 | S (190°) | 99543 | 101690 | 35°C | 36.8% | 18°C | 7544ft (2299m) | 13.24v | 31 |
| 5985 | 14 Apr 13:42:28 | 12 | 13.6 mph | 15 | S (191°) | 99541 | 101688 | 35°C | 37.1% | 18.2°C | 7491ft (2283m) | 13.26v | 31 |
| 5984 | 14 Apr 13:42:17 | 10 | 13.4 mph | 15 | SSW (193°) | 99534 | 101681 | 35°C | 37.4% | 18.3°C | 7438ft (2267m) | 13.27v | 31 |
| 5983 | 14 Apr 13:42:06 | 9 | 10.7 mph | 12 | SSW (200°) | 99540 | 101687 | 35°C | 37.4% | 18.3°C | 7438ft (2267m) | 13.25v | 31 |
| 5982 | 14 Apr 13:41:54 | 7 | 10.1 mph | 15 | S (184°) | 99541 | 101688 | 35.1°C | 37.4% | 18.4°C | 7443ft (2269m) | 13.28v | 31 |
| 5981 | 14 Apr 13:41:43 | 6 | 8.6 mph | 12 | S (188°) | 99541 | 101688 | 35.1°C | 37.5% | 18.4°C | 7426ft (2263m) | 13.32v | 31 |
| 5980 | 14 Apr 13:41:32 | 5 | 5.5 mph | 7 | SSW (193°) | 99546 | 101693 | 35°C | 37.6% | 18.4°C | 7403ft (2256m) | 13.27v | 31 |
| 5979 | 14 Apr 13:41:21 | 5 | 6.9 mph | 8 | S (175°) | 99546 | 101693 | 35°C | 37.4% | 18.3°C | 7438ft (2267m) | 13.23v | 31 |
| 5978 | 14 Apr 13:41:09 | 5 | 6.2 mph | 10 | S (183°) | 99546 | 101693 | 35°C | 37.5% | 18.3°C | 7421ft (2262m) | 13.28v | 31 |
| 5977 | 14 Apr 13:40:58 | 9 | 10 mph | 13 | S (179°) | 99545 | 101692 | 35°C | 37.5% | 18.3°C | 7421ft (2262m) | 13.27v | 31 |
| 5976 | 14 Apr 13:40:47 | 8 | 8.5 mph | 9 | SSE (166°) | 99547 | 101694 | 35°C | 37.5% | 18.3°C | 7421ft (2262m) | 13.29v | 31 |
| 5975 | 14 Apr 13:40:36 | 7 | 8.1 mph | 10 | S (175°) | 99544 | 101691 | 34.9°C | 37.7% | 18.3°C | 7381ft (2250m) | 13.29v | 31 |
| 5974 | 14 Apr 13:40:24 | 7 | 7.8 mph | 9 | S (181°) | 99548 | 101695 | 34.9°C | 37.7% | 18.3°C | 7381ft (2250m) | 13.34v | 31 |
| 5973 | 14 Apr 13:40:13 | 10 | 10.1 mph | 12 | SSE (153°) | 99541 | 101688 | 34.9°C | 37.7% | 18.3°C | 7381ft (2250m) | 13.29v | 31 |
| 5972 | 14 Apr 13:40:02 | 7 | 10.2 mph | 11 | SSE (167°) | 99541 | 101688 | 34.8°C | 37.8% | 18.3°C | 7359ft (2243m) | 13.29v | 31 |
| 5971 | 14 Apr 13:39:51 | 3 | 3.5 mph | 5 | S (181°) | 99548 | 101695 | 34.8°C | 37.9% | 18.3°C | 7342ft (2238m) | 13.33v | 31 |
| 5970 | 14 Apr 13:39:39 | 4 | 4.7 mph | 6 | S (172°) | 99547 | 101694 | 34.8°C | 37.7% | 18.2°C | 7376ft (2248m) | 13.3v | 31 |
| 5969 | 14 Apr 13:39:28 | 6 | 6.9 mph | 8 | S (183°) | 99548 | 101695 | 34.7°C | 37.7% | 18.2°C | 7372ft (2247m) | 13.38v | 31 |
| 5968 | 14 Apr 13:39:18 | 9 | 9.6 mph | 10 | SSE (168°) | 99545 | 101692 | 34.7°C | 37.5% | 18.1°C | 7406ft (2257m) | 13.29v | 31 |
| 5967 | 14 Apr 13:39:07 | 10 | 12 mph | 15 | SSE (162°) | 99541 | 101688 | 34.7°C | 37.6% | 18.1°C | 7389ft (2252m) | 13.32v | 31 |
| 5966 | 14 Apr 13:38:55 | 9 | 9.9 mph | 12 | S (176°) | 99536 | 101683 | 34.6°C | 37.8% | 18.1°C | 7349ft (2240m) | 13.32v | 31 |
| 5965 | 14 Apr 13:38:44 | 7 | 8 mph | 10 | S (182°) | 99549 | 101696 | 34.6°C | 37.6% | 18°C | 7384ft (2251m) | 13.33v | 31 |
| 5964 | 14 Apr 13:38:33 | 7 | 7.5 mph | 9 | SSW (201°) | 99547 | 101694 | 34.6°C | 37.5% | 18°C | 7401ft (2256m) | 13.31v | 31 |
| 5963 | 14 Apr 13:38:22 | 6 | 7.5 mph | 9 | S (183°) | 99547 | 101694 | 34.5°C | 37.3% | 17.8°C | 7431ft (2265m) | 13.33v | 31 |
| 5962 | 14 Apr 13:38:10 | 9 | 10.3 mph | 11 | S (172°) | 99540 | 101687 | 34.5°C | 37.2% | 17.8°C | 7449ft (2270m) | 13.33v | 31 |
| 5961 | 14 Apr 13:37:59 | 9 | 11.6 mph | 13 | S (185°) | 99546 | 101693 | 34.4°C | 37.1% | 17.6°C | 7462ft (2274m) | 13.31v | 31 |
| 5960 | 14 Apr 13:37:48 | 6 | 6.9 mph | 8 | S (172°) | 99545 | 101692 | 34.4°C | 37% | 17.6°C | 7479ft (2280m) | 13.4v | 31 |
| 5959 | 14 Apr 13:37:37 | 6 | 6.6 mph | 8 | S (178°) | 99550 | 101697 | 34.3°C | 37% | 17.5°C | 7474ft (2278m) | 13.29v | 31 |
| 5958 | 14 Apr 13:37:25 | 5 | 7.3 mph | 9 | S (176°) | 99546 | 101693 | 34.3°C | 37.2% | 17.6°C | 7439ft (2267m) | 13.33v | 31 |
| 5957 | 14 Apr 13:37:14 | 5 | 5.5 mph | 7 | S (185°) | 99546 | 101693 | 34.2°C | 37% | 17.4°C | 7469ft (2277m) | 13.33v | 31 |
| 5956 | 14 Apr 13:37:03 | 8 | 9 mph | 10 | SSE (165°) | 99541 | 101688 | 34.2°C | 37.1% | 17.5°C | 7452ft (2271m) | 13.29v | 31 |
| 5955 | 14 Apr 13:36:52 | 8 | 10 mph | 14 | SSE (165°) | 99543 | 101690 | 34.1°C | 37.3% | 17.5°C | 7412ft (2259m) | 13.33v | 31 |
| 5954 | 14 Apr 13:36:40 | 7 | 9.7 mph | 13 | S (182°) | 99533 | 101680 | 34.1°C | 37.7% | 17.6°C | 7343ft (2238m) | 13.31v | 31 |
| 5953 | 14 Apr 13:36:29 | 6 | 7.1 mph | 9 | S (178°) | 99545 | 101692 | 34°C | 37.4% | 17.4°C | 7390ft (2252m) | 13.28v | 31 |
| 5952 | 14 Apr 13:36:18 | 11 | 12.4 mph | 14 | S (184°) | 99544 | 101691 | 34°C | 37.3% | 17.4°C | 7407ft (2258m) | 13.29v | 31 |
| 5951 | 14 Apr 13:36:07 | 14 | 14.8 mph | 16 | S (174°) | 99538 | 101685 | 34°C | 37.5% | 17.5°C | 7372ft (2247m) | 13.37v | 31 |
| 5950 | 14 Apr 13:35:55 | 9 | 11.7 mph | 15 | S (190°) | 99548 | 101695 | 33.9°C | 37.7% | 17.5°C | 7333ft (2235m) | 13.32v | 31 |
| 5949 | 14 Apr 13:35:44 | 7 | 9.2 mph | 14 | S (190°) | 99541 | 101688 | 33.9°C | 37.9% | 17.5°C | 7299ft (2225m) | 13.33v | 31 |
| 5948 | 14 Apr 13:35:33 | 8 | 9.6 mph | 12 | S (187°) | 99540 | 101687 | 33.8°C | 37.7% | 17.4°C | 7328ft (2234m) | 13.32v | 31 |
| 5947 | 14 Apr 13:35:22 | 8 | 9.7 mph | 12 | S (178°) | 99540 | 101687 | 33.8°C | 37.7% | 17.4°C | 7328ft (2234m) | 13.29v | 31 |
| 5946 | 14 Apr 13:35:10 | 10 | 10.2 mph | 11 | S (183°) | 99545 | 101692 | 33.7°C | 37.7% | 17.3°C | 7323ft (2232m) | 13.31v | 31 |
| 5945 | 14 Apr 13:34:59 | 8 | 8.5 mph | 9 | S (191°) | 99543 | 101690 | 33.7°C | 37.7% | 17.3°C | 7323ft (2232m) | 13.32v | 31 |
| 5944 | 14 Apr 13:34:48 | 8 | 10.3 mph | 12 | S (176°) | 99537 | 101684 | 33.7°C | 37.8% | 17.3°C | 7306ft (2227m) | 13.35v | 31 |
| 5943 | 14 Apr 13:34:37 | 8 | 8.5 mph | 10 | S (187°) | 99543 | 101690 | 33.6°C | 37.7% | 17.2°C | 7319ft (2231m) | 13.32v | 31 |
| 5942 | 14 Apr 13:34:25 | 6 | 8.1 mph | 11 | S (183°) | 99547 | 101694 | 33.6°C | 37.7% | 17.2°C | 7319ft (2231m) | 13.33v | 31 |
| 5941 | 14 Apr 13:34:14 | 11 | 11.8 mph | 14 | S (185°) | 99539 | 101686 | 33.6°C | 37.8% | 17.2°C | 7301ft (2225m) | 13.32v | 31 |
| 5940 | 14 Apr 13:34:03 | 10 | 11.5 mph | 13 | S (190°) | 99544 | 101691 | 33.6°C | 37.9% | 17.3°C | 7284ft (2220m) | 13.29v | 31 |
| 5939 | 14 Apr 13:33:52 | 11 | 11.8 mph | 15 | S (185°) | 99543 | 101690 | 33.5°C | 37.9% | 17.2°C | 7279ft (2219m) | 13.32v | 31 |
| 5938 | 14 Apr 13:33:40 | 9 | 11.4 mph | 13 | S (184°) | 99540 | 101687 | 33.5°C | 38% | 17.2°C | 7262ft (2213m) | 13.3v | 31 |
| 5937 | 14 Apr 13:33:29 | 5 | 10.2 mph | 14 | S (176°) | 99550 | 101697 | 33.5°C | 38.1% | 17.3°C | 7245ft (2208m) | 13.32v | 31 |
| 5936 | 14 Apr 13:33:17 | 4 | 5.7 mph | 10 | S (173°) | 99548 | 101695 | 33.4°C | 38% | 17.1°C | 7258ft (2212m) | 13.37v | 31 |
| 5935 | 14 Apr 13:33:06 | 6 | 6.6 mph | 8 | S (175°) | 99540 | 101687 | 33.4°C | 38% | 17.1°C | 7258ft (2212m) | 13.31v | 31 |
| 5934 | 14 Apr 13:32:54 | 6 | 8.1 mph | 10 | S (172°) | 99541 | 101688 | 33.3°C | 37.9% | 17°C | 7270ft (2216m) | 13.31v | 31 |
| 5933 | 14 Apr 13:32:43 | 5 | 6 mph | 9 | S (171°) | 99545 | 101692 | 33.3°C | 37.6% | 16.9°C | 7321ft (2231m) | 13.34v | 31 |
| 5932 | 14 Apr 13:32:32 | 8 | 8.5 mph | 10 | S (173°) | 99542 | 101689 | 33.3°C | 37.4% | 16.8°C | 7356ft (2242m) | 13.32v | 31 |
| 5931 | 14 Apr 13:32:21 | 8 | 8.4 mph | 9 | S (181°) | 99539 | 101686 | 33.3°C | 37.5% | 16.8°C | 7338ft (2237m) | 13.33v | 31 |
| 5930 | 14 Apr 13:32:09 | 6 | 7.1 mph | 9 | S (188°) | 99544 | 101691 | 33.2°C | 37.3% | 16.7°C | 7368ft (2246m) | 13.32v | 31 |
| 5929 | 14 Apr 13:31:58 | 9 | 9.6 mph | 11 | S (189°) | 99538 | 101685 | 33.2°C | 37.2% | 16.6°C | 7385ft (2251m) | 13.28v | 31 |
| 5928 | 14 Apr 13:31:47 | 7 | 8.2 mph | 9 | S (185°) | 99535 | 101682 | 33.2°C | 37% | 16.5°C | 7420ft (2262m) | 13.31v | 31 |
| 5927 | 14 Apr 13:31:36 | 8 | 10.6 mph | 13 | S (173°) | 99540 | 101687 | 33.2°C | 36.7% | 16.4°C | 7473ft (2278m) | 13.37v | 31 |
| 5926 | 14 Apr 13:31:24 | 9 | 10.8 mph | 13 | SSW (195°) | 99536 | 101683 | 33.2°C | 36.5% | 16.3°C | 7508ft (2288m) | 13.29v | 31 |
| 5925 | 14 Apr 13:31:13 | 10 | 11 mph | 12 | S (186°) | 99535 | 101682 | 33.2°C | 36.2% | 16.2°C | 7561ft (2305m) | 13.32v | 31 |
| 5924 | 14 Apr 13:31:02 | 11 | 13.5 mph | 16 | SSW (199°) | 99531 | 101678 | 33.2°C | 35.8% | 16°C | 7632ft (2326m) | 13.34v | 31 |
| 5923 | 14 Apr 13:30:51 | 10 | 11.3 mph | 13 | SSW (200°) | 99533 | 101680 | 33.2°C | 35.9% | 16.1°C | 7614ft (2321m) | 13.33v | 31 |
| 5922 | 14 Apr 13:30:39 | 10 | 11.6 mph | 13 | SSW (198°) | 99536 | 101683 | 33.2°C | 35.9% | 16.1°C | 7614ft (2321m) | 13.33v | 31 |
| 5921 | 14 Apr 13:30:28 | 12 | 13.2 mph | 14 | SSW (196°) | 99536 | 101683 | 33.2°C | 35.6% | 15.9°C | 7668ft (2337m) | 13.32v | 31 |
| 5920 | 14 Apr 13:30:18 | 12 | 12.4 mph | 15 | S (189°) | 99538 | 101685 | 33.3°C | 35.5% | 16°C | 7691ft (2344m) | 13.36v | 31 |
| 5919 | 14 Apr 13:30:07 | 8 | 11.3 mph | 14 | SSW (194°) | 99531 | 101678 | 33.3°C | 35.6% | 16°C | 7673ft (2339m) | 13.3v | 31 |
| 5918 | 14 Apr 13:29:55 | 10 | 12.9 mph | 15 | SSW (193°) | 99531 | 101678 | 33.3°C | 36.3% | 16.3°C | 7548ft (2301m) | 13.33v | 31 |
| 5917 | 14 Apr 13:29:44 | 11 | 11.8 mph | 14 | S (185°) | 99532 | 101679 | 33.3°C | 36.6% | 16.5°C | 7495ft (2284m) | 13.32v | 31 |
| 5916 | 14 Apr 13:29:33 | 7 | 9.2 mph | 12 | S (186°) | 99535 | 101682 | 33.3°C | 36.8% | 16.5°C | 7460ft (2274m) | 13.31v | 31 |
| 5915 | 14 Apr 13:29:22 | 12 | 13.3 mph | 15 | S (185°) | 99534 | 101681 | 33.3°C | 36.9% | 16.6°C | 7443ft (2269m) | 13.33v | 31 |
| 5914 | 14 Apr 13:29:10 | 9 | 9.9 mph | 12 | S (174°) | 99524 | 101671 | 33.3°C | 37.3% | 16.8°C | 7373ft (2247m) | 13.32v | 31 |
| 5913 | 14 Apr 13:28:59 | 6 | 8.6 mph | 12 | SSW (193°) | 99537 | 101684 | 33.3°C | 37.2% | 16.7°C | 7390ft (2252m) | 13.33v | 31 |
| 5912 | 14 Apr 13:28:48 | 9 | 9.5 mph | 12 | S (184°) | 99537 | 101684 | 33.3°C | 37.6% | 16.9°C | 7321ft (2231m) | 13.3v | 31 |
| 5911 | 14 Apr 13:28:37 | 4 | 5.7 mph | 8 | SSW (207°) | 99542 | 101689 | 33.3°C | 37.8% | 17°C | 7287ft (2221m) | 13.27v | 31 |
| 5910 | 14 Apr 13:28:25 | 6 | 9 mph | 13 | SSW (207°) | 99540 | 101687 | 33.3°C | 37.7% | 16.9°C | 7304ft (2226m) | 13.31v | 31 |
| 5909 | 14 Apr 13:28:14 | 8 | 9.1 mph | 12 | SW (215°) | 99537 | 101684 | 33.3°C | 37.7% | 16.9°C | 7304ft (2226m) | 13.31v | 31 |
| 5908 | 14 Apr 13:28:03 | 7 | 7.3 mph | 9 | SW (214°) | 99542 | 101689 | 33.3°C | 37.6% | 16.9°C | 7321ft (2231m) | 13.32v | 31 |
| 5907 | 14 Apr 13:27:52 | 9 | 11.6 mph | 15 | SSW (208°) | 99540 | 101687 | 33.3°C | 37.2% | 16.7°C | 7390ft (2252m) | 13.34v | 31 |
| 5906 | 14 Apr 13:27:40 | 8 | 10.5 mph | 14 | SSW (205°) | 99540 | 101687 | 33.3°C | 37.8% | 17°C | 7287ft (2221m) | 13.32v | 31 |
| 5905 | 14 Apr 13:27:29 | 9 | 10.5 mph | 12 | SSW (199°) | 99536 | 101683 | 33.3°C | 37.8% | 17°C | 7287ft (2221m) | 13.29v | 31 |
| 5904 | 14 Apr 13:27:18 | 10 | 9.3 mph | 12 | SSW (206°) | 99539 | 101686 | 33.3°C | 37.8% | 17°C | 7287ft (2221m) | 13.32v | 31 |
| 5903 | 14 Apr 13:27:07 | 5 | 7.5 mph | 9 | SSW (195°) | 99536 | 101683 | 33.3°C | 37.7% | 16.9°C | 7304ft (2226m) | 13.31v | 31 |
| 5902 | 14 Apr 13:26:55 | 7 | 8.9 mph | 12 | SSW (195°) | 99541 | 101688 | 33.3°C | 37.5% | 16.8°C | 7338ft (2237m) | 13.31v | 31 |
| 5901 | 14 Apr 13:26:44 | 11 | 12.8 mph | 15 | SSW (197°) | 99537 | 101684 | 33.3°C | 37.4% | 16.8°C | 7356ft (2242m) | 13.3v | 31 |
| 5900 | 14 Apr 13:26:33 | 12 | 13.4 mph | 15 | SSW (203°) | 99536 | 101683 | 33.3°C | 37.6% | 16.9°C | 7321ft (2231m) | 13.33v | 31 |
| 5899 | 14 Apr 13:26:22 | 11 | 13.2 mph | 16 | SSW (203°) | 99536 | 101683 | 33.3°C | 37.8% | 17°C | 7287ft (2221m) | 13.32v | 31 |
| 5898 | 14 Apr 13:26:10 | 9 | 11.6 mph | 14 | SSW (208°) | 99538 | 101685 | 33.3°C | 37.9% | 17°C | 7270ft (2216m) | 13.32v | 31 |
| 5897 | 14 Apr 13:25:59 | 5 | 9.1 mph | 13 | SSW (204°) | 99532 | 101679 | 33.2°C | 38% | 17°C | 7248ft (2209m) | 13.32v | 31 |
| 5896 | 14 Apr 13:25:48 | 5 | 6.6 mph | 8 | SSW (204°) | 99540 | 101687 | 33.2°C | 38.1% | 17°C | 7231ft (2204m) | 13.3v | 31 |
| 5895 | 14 Apr 13:25:37 | 3 | 3.6 mph | 4 | S (190°) | 99543 | 101690 | 33.2°C | 37.9% | 16.9°C | 7265ft (2214m) | 13.31v | 31 |
| 5894 | 14 Apr 13:25:25 | 3 | 4.3 mph | 7 | SSW (203°) | 99542 | 101689 | 33.2°C | 37.9% | 16.9°C | 7265ft (2214m) | 13.3v | 31 |
| 5893 | 14 Apr 13:25:14 | 6 | 6 mph | 7 | SSE (167°) | 99543 | 101690 | 33.1°C | 37.7% | 16.7°C | 7294ft (2223m) | 13.31v | 31 |
| 5892 | 14 Apr 13:25:03 | 9 | 10 mph | 12 | S (178°) | 99549 | 101696 | 33.1°C | 37.5% | 16.7°C | 7329ft (2234m) | 13.34v | 31 |
| 5891 | 14 Apr 13:24:52 | 11 | 11.3 mph | 13 | SSW (197°) | 99545 | 101692 | 33.1°C | 37.1% | 16.5°C | 7398ft (2255m) | 13.33v | 31 |
| 5890 | 14 Apr 13:24:40 | 11 | 11.8 mph | 13 | S (183°) | 99542 | 101689 | 33.1°C | 36.8% | 16.4°C | 7450ft (2271m) | 13.3v | 31 |
| 5889 | 14 Apr 13:24:29 | 12 | 12.5 mph | 14 | SSW (193°) | 99539 | 101686 | 33.1°C | 36.5% | 16.2°C | 7503ft (2287m) | 13.31v | 31 |
| 5888 | 14 Apr 13:24:18 | 11 | 12 mph | 13 | S (184°) | 99536 | 101683 | 33.1°C | 36.4% | 16.2°C | 7521ft (2292m) | 13.33v | 31 |
| 5887 | 14 Apr 13:24:07 | 9 | 10.8 mph | 13 | S (176°) | 99538 | 101685 | 33.1°C | 35.8% | 15.9°C | 7627ft (2325m) | 13.3v | 31 |
| 5886 | 14 Apr 13:23:55 | 6 | 6.7 mph | 9 | SSW (202°) | 99545 | 101692 | 33.1°C | 35.5% | 15.8°C | 7681ft (2341m) | 13.32v | 31 |
| 5885 | 14 Apr 13:23:44 | 9 | 10.5 mph | 14 | SW (215°) | 99545 | 101692 | 33.1°C | 35.2% | 15.7°C | 7736ft (2358m) | 13.32v | 31 |
| 5884 | 14 Apr 13:23:33 | 10 | 13.2 mph | 16 | SSW (213°) | 99541 | 101688 | 33.1°C | 35.5% | 15.8°C | 7681ft (2341m) | 13.31v | 31 |
| 5883 | 14 Apr 13:23:22 | 10 | 12.3 mph | 15 | SSW (210°) | 99543 | 101690 | 33.1°C | 35.4% | 15.8°C | 7699ft (2347m) | 13.34v | 31 |
| 5882 | 14 Apr 13:23:10 | 8 | 10.6 mph | 12 | SW (215°) | 99540 | 101687 | 33.1°C | 35.5% | 15.8°C | 7681ft (2341m) | 13.32v | 31 |
| 5881 | 14 Apr 13:22:59 | 7 | 7.3 mph | 10 | SSW (192°) | 99539 | 101686 | 33.1°C | 35.8% | 15.9°C | 7627ft (2325m) | 13.34v | 31 |
| 5880 | 14 Apr 13:22:48 | 7 | 10.1 mph | 14 | SW (214°) | 99537 | 101684 | 33.1°C | 35.9% | 16°C | 7609ft (2319m) | 13.33v | 31 |
| 5879 | 14 Apr 13:22:37 | 8 | 9.6 mph | 12 | SSW (206°) | 99541 | 101688 | 33.1°C | 35.9% | 16°C | 7609ft (2319m) | 13.3v | 31 |
| 5878 | 14 Apr 13:22:25 | 9 | 10.3 mph | 12 | SW (222°) | 99544 | 101691 | 33.1°C | 35.7% | 15.9°C | 7645ft (2330m) | 13.33v | 31 |
| 5877 | 14 Apr 13:22:14 | 9 | 10.2 mph | 11 | SW (219°) | 99541 | 101688 | 33.1°C | 35.8% | 15.9°C | 7627ft (2325m) | 13.29v | 31 |
| 5876 | 14 Apr 13:22:03 | 4 | 7.5 mph | 11 | WSW (254°) | 99535 | 101682 | 33.1°C | 36% | 16°C | 7592ft (2314m) | 13.35v | 31 |
| 5875 | 14 Apr 13:21:52 | 4 | 6 mph | 9 | SW (235°) | 99545 | 101692 | 33.1°C | 36.2% | 16.1°C | 7556ft (2303m) | 13.35v | 31 |
| 5874 | 14 Apr 13:21:40 | 4 | 5.4 mph | 9 | SW (221°) | 99544 | 101691 | 33.1°C | 35.7% | 15.9°C | 7645ft (2330m) | 13.3v | 31 |
| 5873 | 14 Apr 13:21:29 | 11 | 12.1 mph | 15 | WSW (241°) | 99545 | 101692 | 33.1°C | 35.7% | 15.9°C | 7645ft (2330m) | 13.29v | 31 |
| 5872 | 14 Apr 13:21:18 | 5 | 6.7 mph | 10 | SSW (210°) | 99553 | 101700 | 33°C | 35.8% | 15.8°C | 7622ft (2323m) | 13.31v | 31 |
| 5871 | 14 Apr 13:21:07 | 7 | 7.3 mph | 12 | SW (232°) | 99544 | 101691 | 33°C | 35.4% | 15.7°C | 7694ft (2345m) | 13.32v | 31 |
| 5870 | 14 Apr 13:20:55 | 7 | 7.8 mph | 10 | SSW (211°) | 99548 | 101695 | 33°C | 35.6% | 15.8°C | 7658ft (2334m) | 13.27v | 31 |
| 5869 | 14 Apr 13:20:44 | 5 | 8.7 mph | 13 | SSW (212°) | 99544 | 101691 | 33°C | 35.8% | 15.8°C | 7622ft (2323m) | 13.33v | 31 |
| 5868 | 14 Apr 13:20:33 | 7 | 8.1 mph | 11 | SSW (192°) | 99554 | 101701 | 33°C | 35.8% | 15.8°C | 7622ft (2323m) | 13.34v | 31 |
| 5867 | 14 Apr 13:20:22 | 6 | 7.2 mph | 9 | SSW (204°) | 99550 | 101697 | 33°C | 35.8% | 15.8°C | 7622ft (2323m) | 13.31v | 31 |
| 5866 | 14 Apr 13:20:10 | 5 | 6.9 mph | 9 | SSW (199°) | 99552 | 101699 | 32.9°C | 35.5% | 15.6°C | 7671ft (2338m) | 13.33v | 31 |
| 5865 | 14 Apr 13:19:59 | 8 | 10.4 mph | 15 | SSW (197°) | 99550 | 101697 | 32.9°C | 35.2% | 15.5°C | 7725ft (2355m) | 13.33v | 31 |
| 5864 | 14 Apr 13:19:48 | 6 | 7.2 mph | 9 | SSW (204°) | 99550 | 101697 | 32.9°C | 35.1% | 15.5°C | 7744ft (2360m) | 13.32v | 31 |
| 5863 | 14 Apr 13:19:37 | 7 | 8.6 mph | 12 | SSW (204°) | 99549 | 101696 | 32.9°C | 34.6% | 15.2°C | 7835ft (2388m) | 13.29v | 31 |
| 5862 | 14 Apr 13:19:25 | 11 | 11.9 mph | 14 | SSW (195°) | 99548 | 101695 | 32.9°C | 34.5% | 15.2°C | 7854ft (2394m) | 13.31v | 31 |
| 5861 | 14 Apr 13:19:14 | 9 | 14.3 mph | 18 | SSW (193°) | 99547 | 101694 | 32.9°C | 35% | 15.4°C | 7762ft (2366m) | 13.32v | 31 |
| 5860 | 14 Apr 13:19:03 | 9 | 10 mph | 12 | SSW (193°) | 99550 | 101697 | 32.9°C | 34.9% | 15.4°C | 7780ft (2371m) | 13.35v | 31 |
| 5859 | 14 Apr 13:18:52 | 8 | 10 mph | 14 | SSW (205°) | 99548 | 101695 | 32.9°C | 35.1% | 15.5°C | 7744ft (2360m) | 13.3v | 31 |
| 5858 | 14 Apr 13:18:40 | 9 | 8.7 mph | 9 | SSW (210°) | 99546 | 101693 | 32.9°C | 35% | 15.4°C | 7762ft (2366m) | 13.3v | 31 |
| 5857 | 14 Apr 13:18:29 | 11 | 12.9 mph | 17 | SSW (202°) | 99545 | 101692 | 32.9°C | 34.9% | 15.4°C | 7780ft (2371m) | 13.3v | 31 |
| 5856 | 14 Apr 13:18:18 | 13 | 13.3 mph | 15 | SSW (206°) | 99551 | 101698 | 32.9°C | 35% | 15.4°C | 7762ft (2366m) | 13.31v | 31 |
| 5855 | 14 Apr 13:18:07 | 9 | 12.8 mph | 17 | SSW (210°) | 99544 | 101691 | 32.9°C | 35% | 15.4°C | 7762ft (2366m) | 13.31v | 31 |
| 5854 | 14 Apr 13:17:55 | 11 | 11.2 mph | 12 | SSW (209°) | 99548 | 101695 | 33°C | 34.9% | 15.5°C | 7785ft (2373m) | 13.31v | 31 |
| 5853 | 14 Apr 13:17:44 | 10 | 11.1 mph | 14 | SW (223°) | 99552 | 101699 | 33°C | 34.8% | 15.4°C | 7804ft (2379m) | 13.3v | 31 |
| 5852 | 14 Apr 13:17:33 | 13 | 14.5 mph | 16 | SSW (197°) | 99554 | 101701 | 33°C | 35.2% | 15.6°C | 7731ft (2356m) | 13.31v | 31 |
| 5851 | 14 Apr 13:17:22 | 8 | 10.8 mph | 15 | SSW (206°) | 99550 | 101697 | 33°C | 35.3% | 15.6°C | 7712ft (2351m) | 13.33v | 31 |
| 5850 | 14 Apr 13:17:10 | 8 | 9.9 mph | 12 | SSW (201°) | 99553 | 101700 | 33°C | 35.7% | 15.8°C | 7640ft (2329m) | 13.29v | 31 |
| 5849 | 14 Apr 13:16:59 | 7 | 9.6 mph | 13 | SSW (192°) | 99555 | 101702 | 33°C | 36% | 15.9°C | 7587ft (2313m) | 13.32v | 31 |
| 5848 | 14 Apr 13:16:48 | 10 | 11.1 mph | 12 | SSW (213°) | 99547 | 101694 | 33°C | 35.8% | 15.8°C | 7622ft (2323m) | 13.33v | 31 |
| 5847 | 14 Apr 13:16:37 | 15 | 16.4 mph | 19 | SSW (210°) | 99550 | 101697 | 33°C | 35.6% | 15.8°C | 7658ft (2334m) | 13.31v | 31 |
| 5846 | 14 Apr 13:16:25 | 11 | 12.4 mph | 17 | SSW (204°) | 99537 | 101684 | 33.1°C | 35.9% | 16°C | 7609ft (2319m) | 13.27v | 31 |
| 5845 | 14 Apr 13:16:14 | 10 | 14.3 mph | 18 | SW (217°) | 99554 | 101701 | 33.1°C | 35.9% | 16°C | 7609ft (2319m) | 13.33v | 31 |
| 5844 | 14 Apr 13:16:03 | 12 | 13.9 mph | 16 | SW (219°) | 99550 | 101697 | 33°C | 35.8% | 15.8°C | 7622ft (2323m) | 13.29v | 31 |
| 5843 | 14 Apr 13:15:52 | 11 | 12 mph | 16 | SW (217°) | 99554 | 101701 | 33.1°C | 35.8% | 15.9°C | 7627ft (2325m) | 13.37v | 31 |
| 5842 | 14 Apr 13:15:40 | 8 | 10.4 mph | 12 | SW (214°) | 99541 | 101688 | 33.1°C | 35.8% | 15.9°C | 7627ft (2325m) | 13.32v | 31 |
| 5841 | 14 Apr 13:15:29 | 9 | 11.3 mph | 14 | SSW (199°) | 99550 | 101697 | 33.1°C | 35.7% | 15.9°C | 7645ft (2330m) | 13.31v | 31 |
| 5840 | 14 Apr 13:15:17 | 6 | 12.6 mph | 16 | SSW (192°) | 99550 | 101697 | 33.1°C | 36% | 16°C | 7592ft (2314m) | 13.28v | 31 |
| 5839 | 14 Apr 13:15:06 | 7 | 9.4 mph | 12 | SSW (200°) | 99548 | 101695 | 33.1°C | 36.2% | 16.1°C | 7556ft (2303m) | 13.3v | 31 |
| 5838 | 14 Apr 13:14:55 | 9 | 10.8 mph | 14 | SSW (210°) | 99550 | 101697 | 33.1°C | 36.1% | 16.1°C | 7574ft (2309m) | 13.27v | 31 |
| 5837 | 14 Apr 13:14:44 | 8 | 10.7 mph | 14 | SSW (193°) | 99541 | 101688 | 33.1°C | 36% | 16°C | 7592ft (2314m) | 13.32v | 31 |
| 5836 | 14 Apr 13:14:32 | 7 | 11.1 mph | 16 | SSW (209°) | 99552 | 101699 | 33.1°C | 36.3% | 16.2°C | 7538ft (2298m) | 13.35v | 31 |
| 5835 | 14 Apr 13:14:21 | 4 | 5.3 mph | 9 | SSW (210°) | 99551 | 101698 | 33°C | 36.3% | 16.1°C | 7533ft (2296m) | 13.3v | 31 |
| 5834 | 14 Apr 13:14:10 | 4 | 5.8 mph | 11 | SSW (206°) | 99558 | 101705 | 33°C | 36.1% | 16°C | 7569ft (2307m) | 13.34v | 31 |
| 5833 | 14 Apr 13:13:59 | 5 | 7.8 mph | 12 | SSW (211°) | 99549 | 101696 | 33°C | 36.3% | 16.1°C | 7533ft (2296m) | 13.31v | 31 |
| 5832 | 14 Apr 13:13:47 | 6 | 6.2 mph | 9 | SSW (202°) | 99557 | 101704 | 33°C | 35.9% | 15.9°C | 7604ft (2318m) | 13.31v | 31 |
| 5831 | 14 Apr 13:13:36 | 8 | 9.7 mph | 12 | SSW (210°) | 99549 | 101696 | 33°C | 35.8% | 15.8°C | 7622ft (2323m) | 13.34v | 31 |
| 5830 | 14 Apr 13:13:25 | 8 | 9.1 mph | 11 | SSW (212°) | 99554 | 101701 | 33°C | 35.5% | 15.7°C | 7676ft (2340m) | 13.31v | 31 |
| 5829 | 14 Apr 13:13:14 | 6 | 9.1 mph | 12 | SSW (212°) | 99553 | 101700 | 33°C | 35.5% | 15.7°C | 7676ft (2340m) | 13.28v | 31 |
| 5828 | 14 Apr 13:13:02 | 9 | 10.8 mph | 13 | SW (217°) | 99549 | 101696 | 33°C | 35.3% | 15.6°C | 7712ft (2351m) | 13.29v | 31 |
| 5827 | 14 Apr 13:12:51 | 9 | 9.9 mph | 12 | SSW (208°) | 99554 | 101701 | 33°C | 35.7% | 15.8°C | 7640ft (2329m) | 13.3v | 31 |
| 5826 | 14 Apr 13:12:40 | 9 | 10.4 mph | 13 | SSW (213°) | 99539 | 101686 | 33°C | 35.6% | 15.8°C | 7658ft (2334m) | 13.33v | 31 |
| 5825 | 14 Apr 13:12:29 | 8 | 11.3 mph | 15 | SSW (212°) | 99549 | 101696 | 33°C | 35.6% | 15.8°C | 7658ft (2334m) | 13.33v | 31 |
| 5824 | 14 Apr 13:12:18 | 10 | 11.4 mph | 17 | SSW (206°) | 99553 | 101700 | 33°C | 35.5% | 15.7°C | 7676ft (2340m) | 13.28v | 31 |
| 5823 | 14 Apr 13:12:07 | 13 | 13.5 mph | 16 | SSW (203°) | 99545 | 101692 | 33°C | 36% | 15.9°C | 7587ft (2313m) | 13.37v | 31 |
| 5822 | 14 Apr 13:11:55 | 11 | 11 mph | 16 | SSW (192°) | 99543 | 101690 | 33.1°C | 36.4% | 16.2°C | 7521ft (2292m) | 13.29v | 31 |
| 5821 | 14 Apr 13:11:44 | 11 | 12.1 mph | 15 | SSW (193°) | 99543 | 101690 | 33°C | 36.7% | 16.2°C | 7463ft (2275m) | 13.31v | 31 |
| 5820 | 14 Apr 13:11:33 | 8 | 10.2 mph | 12 | S (189°) | 99542 | 101689 | 33.1°C | 36.9% | 16.4°C | 7433ft (2266m) | 13.3v | 31 |
| 5819 | 14 Apr 13:11:22 | 9 | 11.4 mph | 14 | SSW (199°) | 99551 | 101698 | 33.1°C | 36.8% | 16.4°C | 7450ft (2271m) | 13.28v | 31 |
| 5818 | 14 Apr 13:11:10 | 12 | 13.8 mph | 17 | SSW (208°) | 99552 | 101699 | 33.1°C | 37% | 16.5°C | 7415ft (2260m) | 13.33v | 31 |
| 5817 | 14 Apr 13:10:59 | 9 | 11.4 mph | 15 | SSW (205°) | 99545 | 101692 | 33.1°C | 36.9% | 16.4°C | 7433ft (2266m) | 13.28v | 31 |
| 5816 | 14 Apr 13:10:48 | 9 | 10.3 mph | 13 | SSW (203°) | 99558 | 101705 | 33.1°C | 37% | 16.5°C | 7415ft (2260m) | 13.31v | 31 |
| 5815 | 14 Apr 13:10:37 | 8 | 11 mph | 15 | SSW (200°) | 99552 | 101699 | 33.1°C | 37% | 16.5°C | 7415ft (2260m) | 13.32v | 31 |
| 5814 | 14 Apr 13:10:25 | 7 | 9.5 mph | 12 | S (190°) | 99553 | 101700 | 33.1°C | 37% | 16.5°C | 7415ft (2260m) | 13.3v | 31 |
| 5813 | 14 Apr 13:10:14 | 8 | 10.9 mph | 14 | SSW (206°) | 99556 | 101703 | 33.1°C | 36.7% | 16.3°C | 7468ft (2276m) | 13.33v | 31 |
| 5812 | 14 Apr 13:10:03 | 10 | 9.7 mph | 11 | S (183°) | 99551 | 101698 | 33.1°C | 36.7% | 16.3°C | 7468ft (2276m) | 13.32v | 31 |
| 5811 | 14 Apr 13:09:52 | 7 | 10.2 mph | 13 | S (187°) | 99547 | 101694 | 33.1°C | 36.7% | 16.3°C | 7468ft (2276m) | 13.32v | 31 |
| 5810 | 14 Apr 13:09:40 | 10 | 12.3 mph | 14 | SSW (193°) | 99550 | 101697 | 33.1°C | 36.8% | 16.4°C | 7450ft (2271m) | 13.36v | 31 |
| 5809 | 14 Apr 13:09:29 | 8 | 9.5 mph | 13 | S (189°) | 99553 | 101700 | 33.1°C | 36.6% | 16.3°C | 7485ft (2281m) | 13.32v | 31 |
| 5808 | 14 Apr 13:09:18 | 9 | 13.6 mph | 16 | SSW (193°) | 99549 | 101696 | 33.2°C | 36.7% | 16.4°C | 7473ft (2278m) | 13.28v | 31 |
| 5807 | 14 Apr 13:09:07 | 7 | 11.6 mph | 16 | S (191°) | 99562 | 101710 | 33.2°C | 36.5% | 16.3°C | 7508ft (2288m) | 13.32v | 31 |
| 5806 | 14 Apr 13:08:55 | 6 | 8.8 mph | 11 | SSW (192°) | 99555 | 101702 | 33.2°C | 36.4% | 16.3°C | 7526ft (2294m) | 13.3v | 31 |
| 5805 | 14 Apr 13:08:44 | 8 | 10.8 mph | 14 | SSW (197°) | 99560 | 101708 | 33.2°C | 36% | 16.1°C | 7597ft (2316m) | 13.28v | 31 |
| 5804 | 14 Apr 13:08:33 | 8 | 11.5 mph | 14 | SSW (201°) | 99560 | 101708 | 33.2°C | 35.7% | 16°C | 7650ft (2332m) | 13.34v | 31 |
| 5803 | 14 Apr 13:08:22 | 9 | 11.1 mph | 13 | SSW (194°) | 99560 | 101708 | 33.2°C | 35.8% | 16°C | 7632ft (2326m) | 13.33v | 31 |
| 5802 | 14 Apr 13:08:10 | 10 | 10.7 mph | 12 | SSW (204°) | 99557 | 101704 | 33.2°C | 35.8% | 16°C | 7632ft (2326m) | 13.34v | 31 |
| 5801 | 14 Apr 13:07:59 | 7 | 9.3 mph | 12 | SSW (192°) | 99558 | 101705 | 33.2°C | 35.6% | 15.9°C | 7668ft (2337m) | 13.33v | 31 |
| 5800 | 14 Apr 13:07:48 | 9 | 9.6 mph | 12 | SSW (204°) | 99553 | 101700 | 33.2°C | 35.4% | 15.8°C | 7704ft (2348m) | 13.32v | 31 |
| 5799 | 14 Apr 13:07:37 | 8 | 9.3 mph | 11 | SSW (207°) | 99556 | 101703 | 33.2°C | 35.3% | 15.8°C | 7723ft (2354m) | 13.33v | 31 |
| 5798 | 14 Apr 13:07:25 | 9 | 12.9 mph | 16 | SSW (200°) | 99554 | 101701 | 33.3°C | 35.3% | 15.9°C | 7728ft (2355m) | 13.31v | 31 |
| 5797 | 14 Apr 13:07:14 | 10 | 11.6 mph | 13 | S (180°) | 99548 | 101695 | 33.3°C | 35.9% | 16.2°C | 7619ft (2322m) | 13.28v | 31 |
| 5796 | 14 Apr 13:07:03 | 8 | 11.7 mph | 15 | S (190°) | 99556 | 101703 | 33.3°C | 36% | 16.2°C | 7602ft (2317m) | 13.31v | 31 |
| 5795 | 14 Apr 13:06:52 | 10 | 13.5 mph | 16 | S (189°) | 99561 | 101709 | 33.3°C | 36.3% | 16.3°C | 7548ft (2301m) | 13.3v | 31 |
| 5794 | 14 Apr 13:06:40 | 12 | 14.8 mph | 17 | SSW (204°) | 99553 | 101700 | 33.3°C | 36.6% | 16.5°C | 7495ft (2284m) | 13.33v | 31 |
| 5793 | 14 Apr 13:06:29 | 11 | 13 mph | 16 | S (185°) | 99556 | 101703 | 33.3°C | 37% | 16.6°C | 7425ft (2263m) | 13.35v | 31 |
| 5792 | 14 Apr 13:06:18 | 9 | 11.6 mph | 14 | SSW (198°) | 99559 | 101707 | 33.3°C | 37.1% | 16.7°C | 7408ft (2258m) | 13.3v | 31 |
| 5791 | 14 Apr 13:06:07 | 8 | 9.5 mph | 13 | SSW (212°) | 99558 | 101705 | 33.3°C | 38.1% | 17.1°C | 7236ft (2206m) | 13.33v | 31 |
| 5790 | 14 Apr 13:05:55 | 5 | 8.4 mph | 11 | SW (214°) | 99555 | 101702 | 33.4°C | 38.2% | 17.2°C | 7224ft (2202m) | 13.29v | 31 |
| 5789 | 14 Apr 13:05:44 | 7 | 8.6 mph | 13 | SSW (194°) | 99562 | 101710 | 33.4°C | 38.2% | 17.2°C | 7224ft (2202m) | 13.31v | 31 |
| 5788 | 14 Apr 13:05:33 | 7 | 8.4 mph | 10 | SSW (203°) | 99560 | 101708 | 33.3°C | 38.1% | 17.1°C | 7236ft (2206m) | 13.29v | 31 |
| 5787 | 14 Apr 13:05:22 | 5 | 6.8 mph | 11 | SSW (210°) | 99562 | 101710 | 33.3°C | 38.5% | 17.3°C | 7168ft (2185m) | 13.32v | 31 |
| 5786 | 14 Apr 13:05:10 | 7 | 6.9 mph | 8 | SSW (196°) | 99564 | 101712 | 33.3°C | 38% | 17°C | 7253ft (2211m) | 13.31v | 31 |
| 5785 | 14 Apr 13:04:59 | 8 | 9.5 mph | 11 | S (184°) | 99561 | 101709 | 33.3°C | 37.8% | 17°C | 7287ft (2221m) | 13.29v | 31 |
| 5784 | 14 Apr 13:04:48 | 10 | 10.8 mph | 12 | SSW (201°) | 99569 | 101717 | 33.3°C | 37.8% | 17°C | 7287ft (2221m) | 13.33v | 31 |
| 5783 | 14 Apr 13:04:37 | 14 | 14.7 mph | 16 | S (189°) | 99562 | 101710 | 33.3°C | 37.8% | 17°C | 7287ft (2221m) | 13.35v | 31 |
| 5782 | 14 Apr 13:04:25 | 8 | 8.4 mph | 9 | SSW (202°) | 99569 | 101717 | 33.3°C | 38% | 17°C | 7253ft (2211m) | 13.29v | 31 |
| 5781 | 14 Apr 13:04:14 | 8 | 9.1 mph | 12 | SSW (197°) | 99565 | 101713 | 33.3°C | 38.1% | 17.1°C | 7236ft (2206m) | 13.28v | 31 |
| 5780 | 14 Apr 13:04:03 | 7 | 8.1 mph | 10 | SSW (193°) | 99567 | 101715 | 33.3°C | 38.3% | 17.2°C | 7202ft (2195m) | 13.3v | 31 |
| 5779 | 14 Apr 13:03:52 | 11 | 12.2 mph | 13 | SSW (208°) | 99566 | 101714 | 33.3°C | 38.2% | 17.1°C | 7219ft (2200m) | 13.32v | 31 |
| 5778 | 14 Apr 13:03:40 | 7 | 7.8 mph | 9 | SSW (208°) | 99567 | 101715 | 33.3°C | 38.4% | 17.2°C | 7185ft (2190m) | 13.32v | 31 |
| 5777 | 14 Apr 13:03:29 | 8 | 8.4 mph | 9 | SSW (199°) | 99571 | 101719 | 33.3°C | 38.2% | 17.1°C | 7219ft (2200m) | 13.34v | 31 |
| 5776 | 14 Apr 13:03:18 | 5 | 7.5 mph | 9 | S (190°) | 99570 | 101718 | 33.3°C | 38.1% | 17.1°C | 7236ft (2206m) | 13.33v | 31 |
| 5775 | 14 Apr 13:03:07 | 8 | 9.8 mph | 12 | SSW (202°) | 99570 | 101718 | 33.3°C | 37.8% | 17°C | 7287ft (2221m) | 13.34v | 31 |
| 5774 | 14 Apr 13:02:55 | 11 | 12.9 mph | 15 | SSW (202°) | 99565 | 101713 | 33.3°C | 37.7% | 16.9°C | 7304ft (2226m) | 13.34v | 31 |
| 5773 | 14 Apr 13:02:44 | 5 | 6.6 mph | 11 | SSW (193°) | 99570 | 101718 | 33.3°C | 37.8% | 17°C | 7287ft (2221m) | 13.32v | 31 |
| 5772 | 14 Apr 13:02:33 | 5 | 6 mph | 7 | SSW (199°) | 99574 | 101722 | 33.2°C | 37.6% | 16.8°C | 7316ft (2230m) | 13.33v | 31 |
| 5771 | 14 Apr 13:02:22 | 8 | 8.5 mph | 10 | SSW (194°) | 99578 | 101726 | 33.2°C | 37.5% | 16.8°C | 7334ft (2235m) | 13.33v | 31 |
| 5770 | 14 Apr 13:02:10 | 9 | 10.1 mph | 12 | S (186°) | 99573 | 101721 | 33.2°C | 37.4% | 16.7°C | 7351ft (2241m) | 13.34v | 31 |
| 5769 | 14 Apr 13:01:59 | 8 | 9.7 mph | 13 | SSW (192°) | 99577 | 101725 | 33.2°C | 37.7% | 16.8°C | 7299ft (2225m) | 13.34v | 31 |
| 5768 | 14 Apr 13:01:48 | 10 | 11.8 mph | 14 | SSW (196°) | 99563 | 101711 | 33.2°C | 38% | 17°C | 7248ft (2209m) | 13.34v | 31 |
| 5767 | 14 Apr 13:01:37 | 7 | 8.2 mph | 12 | SSW (199°) | 99577 | 101725 | 33.2°C | 37.9% | 16.9°C | 7265ft (2214m) | 13.34v | 31 |
| 5766 | 14 Apr 13:01:25 | 10 | 10.9 mph | 13 | S (190°) | 99567 | 101715 | 33.2°C | 37.8% | 16.9°C | 7282ft (2220m) | 13.33v | 31 |
| 5765 | 14 Apr 13:01:14 | 7 | 8.3 mph | 10 | S (189°) | 99568 | 101716 | 33.2°C | 37.7% | 16.8°C | 7299ft (2225m) | 13.38v | 31 |
| 5764 | 14 Apr 13:01:03 | 9 | 10.3 mph | 12 | SSW (193°) | 99575 | 101723 | 33.2°C | 37.6% | 16.8°C | 7316ft (2230m) | 13.34v | 31 |
| 5763 | 14 Apr 13:00:52 | 11 | 12.7 mph | 14 | S (188°) | 99567 | 101715 | 33.1°C | 37.5% | 16.7°C | 7329ft (2234m) | 13.32v | 31 |
| 5762 | 14 Apr 13:00:40 | 10 | 10.7 mph | 12 | SSW (201°) | 99570 | 101718 | 33.1°C | 37.4% | 16.6°C | 7346ft (2239m) | 13.33v | 31 |
| 5761 | 14 Apr 13:00:29 | 9 | 12.8 mph | 16 | SSW (201°) | 99568 | 101716 | 33.1°C | 37.2% | 16.5°C | 7381ft (2250m) | 13.35v | 31 |
| 5760 | 14 Apr 13:00:18 | 11 | 12.5 mph | 14 | S (176°) | 99565 | 101713 | 33.1°C | 37% | 16.5°C | 7415ft (2260m) | 13.35v | 31 |
| 5759 | 14 Apr 13:00:07 | 7 | 11.3 mph | 16 | SSW (193°) | 99571 | 101719 | 33.1°C | 36.7% | 16.3°C | 7468ft (2276m) | 13.33v | 31 |
| 5758 | 14 Apr 12:59:55 | 8 | 10.4 mph | 14 | SSW (207°) | 99567 | 101715 | 33.1°C | 36.4% | 16.2°C | 7521ft (2292m) | 13.35v | 31 |
| 5757 | 14 Apr 12:59:44 | 13 | 14.4 mph | 16 | SSW (209°) | 99567 | 101715 | 33.1°C | 36.6% | 16.3°C | 7485ft (2281m) | 13.34v | 31 |
| 5756 | 14 Apr 12:59:33 | 8 | 9.7 mph | 14 | S (170°) | 99560 | 101708 | 33.1°C | 36.4% | 16.2°C | 7521ft (2292m) | 13.34v | 31 |
| 5755 | 14 Apr 12:59:22 | 7 | 9.4 mph | 11 | SW (217°) | 99578 | 101726 | 33.1°C | 36% | 16°C | 7592ft (2314m) | 13.33v | 31 |
| 5754 | 14 Apr 12:59:10 | 8 | 9.3 mph | 11 | SSW (192°) | 99571 | 101719 | 33.1°C | 36% | 16°C | 7592ft (2314m) | 13.33v | 31 |
| 5753 | 14 Apr 12:58:59 | 8 | 9.3 mph | 12 | SSW (192°) | 99576 | 101724 | 33.1°C | 35.8% | 15.9°C | 7627ft (2325m) | 13.34v | 31 |
| 5752 | 14 Apr 12:58:48 | 8 | 9.4 mph | 12 | SW (218°) | 99575 | 101723 | 33.1°C | 36.1% | 16.1°C | 7574ft (2309m) | 13.33v | 31 |
| 5751 | 14 Apr 12:58:37 | 9 | 10.9 mph | 13 | SW (215°) | 99577 | 101725 | 33.1°C | 35.6% | 15.8°C | 7663ft (2336m) | 13.35v | 31 |
| 5750 | 14 Apr 12:58:25 | 10 | 10.2 mph | 12 | SSW (200°) | 99574 | 101722 | 33.1°C | 35.9% | 16°C | 7609ft (2319m) | 13.34v | 31 |
| 5749 | 14 Apr 12:58:14 | 10 | 11.4 mph | 14 | S (188°) | 99575 | 101723 | 33.1°C | 35.8% | 15.9°C | 7627ft (2325m) | 13.33v | 31 |
| 5748 | 14 Apr 12:58:03 | 10 | 14.6 mph | 19 | SSW (194°) | 99572 | 101720 | 33.1°C | 35.6% | 15.8°C | 7663ft (2336m) | 13.33v | 31 |
| 5747 | 14 Apr 12:57:52 | 10 | 11.7 mph | 17 | SSW (211°) | 99563 | 101711 | 33.1°C | 35.1% | 15.6°C | 7754ft (2363m) | 13.32v | 31 |
| 5746 | 14 Apr 12:57:40 | 11 | 12.3 mph | 15 | WSW (241°) | 99570 | 101718 | 33.1°C | 35.2% | 15.7°C | 7736ft (2358m) | 13.34v | 31 |
| 5745 | 14 Apr 12:57:29 | 9 | 12.1 mph | 14 | SW (216°) | 99564 | 101712 | 33.1°C | 35.6% | 15.8°C | 7663ft (2336m) | 13.35v | 31 |
| 5744 | 14 Apr 12:57:18 | 10 | 10.9 mph | 14 | SSW (208°) | 99569 | 101717 | 33.1°C | 36.4% | 16.2°C | 7521ft (2292m) | 13.38v | 31 |
| 5743 | 14 Apr 12:57:07 | 7 | 8.1 mph | 11 | SW (222°) | 99570 | 101718 | 33.2°C | 36.3% | 16.2°C | 7543ft (2299m) | 13.35v | 31 |
| 5742 | 14 Apr 12:56:55 | 7 | 8.8 mph | 14 | SSW (206°) | 99572 | 101720 | 33.2°C | 36.3% | 16.2°C | 7543ft (2299m) | 13.34v | 31 |
| 5741 | 14 Apr 12:56:44 | 10 | 11.8 mph | 15 | SSW (197°) | 99561 | 101709 | 33.2°C | 36.2% | 16.2°C | 7561ft (2305m) | 13.36v | 31 |
| 5740 | 14 Apr 12:56:33 | 8 | 12.5 mph | 19 | S (191°) | 99561 | 101709 | 33.2°C | 36.5% | 16.3°C | 7508ft (2288m) | 13.37v | 31 |
| 5739 | 14 Apr 12:56:22 | 8 | 12.2 mph | 16 | SSW (208°) | 99567 | 101715 | 33.3°C | 36.4% | 16.4°C | 7530ft (2295m) | 13.34v | 31 |
| 5738 | 14 Apr 12:56:10 | 8 | 9.8 mph | 13 | SSW (206°) | 99570 | 101718 | 33.3°C | 36.6% | 16.5°C | 7495ft (2284m) | 13.39v | 31 |
| 5737 | 14 Apr 12:55:59 | 9 | 10 mph | 12 | SSW (192°) | 99570 | 101718 | 33.3°C | 36.5% | 16.4°C | 7513ft (2290m) | 13.4v | 31 |
| 5736 | 14 Apr 12:55:48 | 10 | 12 mph | 16 | S (183°) | 99568 | 101716 | 33.3°C | 36.4% | 16.4°C | 7530ft (2295m) | 13.38v | 31 |
| 5735 | 14 Apr 12:55:37 | 11 | 12.2 mph | 15 | SSW (192°) | 99560 | 101708 | 33.3°C | 35.9% | 16.2°C | 7619ft (2322m) | 13.33v | 31 |
| 5734 | 14 Apr 12:55:25 | 8 | 12 mph | 15 | S (182°) | 99568 | 101716 | 33.3°C | 36.1% | 16.2°C | 7584ft (2312m) | 13.35v | 31 |
| 5733 | 14 Apr 12:55:14 | 11 | 12.4 mph | 15 | S (178°) | 99571 | 101719 | 33.3°C | 36.4% | 16.4°C | 7530ft (2295m) | 13.37v | 31 |
| 5732 | 14 Apr 12:55:03 | 11 | 12.7 mph | 15 | SSW (204°) | 99570 | 101718 | 33.3°C | 37.4% | 16.8°C | 7356ft (2242m) | 13.34v | 31 |
| 5731 | 14 Apr 12:54:52 | 11 | 12.4 mph | 15 | S (188°) | 99570 | 101718 | 33.3°C | 37.3% | 16.8°C | 7373ft (2247m) | 13.36v | 31 |
| 5730 | 14 Apr 12:54:40 | 14 | 15.6 mph | 19 | SSW (201°) | 99553 | 101700 | 33.4°C | 38.1% | 17.2°C | 7241ft (2207m) | 13.42v | 31 |
| 5729 | 14 Apr 12:54:29 | 10 | 11.7 mph | 15 | SSW (210°) | 99572 | 101720 | 33.4°C | 38.3% | 17.3°C | 7207ft (2197m) | 13.34v | 31 |
| 5728 | 14 Apr 12:54:18 | 4 | 6.6 mph | 12 | SSW (213°) | 99573 | 101721 | 33.4°C | 38.5% | 17.3°C | 7173ft (2186m) | 13.37v | 31 |
| 5727 | 14 Apr 12:54:07 | 6 | 9.7 mph | 18 | SSW (210°) | 99572 | 101720 | 33.4°C | 38.6% | 17.4°C | 7156ft (2181m) | 13.4v | 31 |
| 5726 | 14 Apr 12:53:55 | 9 | 8.8 mph | 10 | SSW (213°) | 99561 | 101709 | 33.4°C | 38.6% | 17.4°C | 7156ft (2181m) | 13.43v | 31 |
| 5725 | 14 Apr 12:53:44 | 8 | 8.7 mph | 10 | SW (215°) | 99575 | 101723 | 33.4°C | 38.5% | 17.3°C | 7173ft (2186m) | 13.36v | 31 |
| 5724 | 14 Apr 12:53:33 | 5 | 8.8 mph | 12 | S (177°) | 99569 | 101717 | 33.4°C | 38.4% | 17.3°C | 7190ft (2192m) | 13.34v | 31 |
| 5723 | 14 Apr 12:53:22 | 5 | 7.6 mph | 12 | S (183°) | 99576 | 101724 | 33.4°C | 38.4% | 17.3°C | 7190ft (2192m) | 13.37v | 31 |
| 5722 | 14 Apr 12:53:10 | 7 | 8.7 mph | 11 | SSW (192°) | 99576 | 101724 | 33.4°C | 38.2% | 17.2°C | 7224ft (2202m) | 13.37v | 31 |
| 5721 | 14 Apr 12:52:59 | 7 | 7.7 mph | 9 | SSW (205°) | 99575 | 101723 | 33.4°C | 38% | 17.1°C | 7258ft (2212m) | 13.37v | 31 |
| 5720 | 14 Apr 12:52:48 | 12 | 12.5 mph | 14 | S (180°) | 99576 | 101724 | 33.4°C | 37.9% | 17.1°C | 7275ft (2217m) | 13.37v | 31 |
| 5719 | 14 Apr 12:52:37 | 10 | 10.5 mph | 13 | S (183°) | 99576 | 101724 | 33.4°C | 37.8% | 17.1°C | 7292ft (2223m) | 13.34v | 31 |
| 5718 | 14 Apr 12:52:25 | 8 | 10.3 mph | 12 | SSW (199°) | 99579 | 101727 | 33.3°C | 37.9% | 17°C | 7270ft (2216m) | 13.41v | 31 |
| 5717 | 14 Apr 12:52:14 | 5 | 6.2 mph | 8 | SSW (195°) | 99579 | 101727 | 33.3°C | 37.9% | 17°C | 7270ft (2216m) | 13.33v | 31 |
| 5716 | 14 Apr 12:52:03 | 9 | 11.4 mph | 14 | S (177°) | 99581 | 101729 | 33.3°C | 37.9% | 17°C | 7270ft (2216m) | 13.37v | 31 |
| 5715 | 14 Apr 12:51:52 | 8 | 10.6 mph | 14 | S (185°) | 99585 | 101733 | 33.3°C | 38.2% | 17.1°C | 7219ft (2200m) | 13.37v | 31 |
| 5714 | 14 Apr 12:51:40 | 7 | 7.7 mph | 9 | SSW (201°) | 99584 | 101732 | 33.3°C | 37.9% | 17°C | 7270ft (2216m) | 13.38v | 31 |
| 5713 | 14 Apr 12:51:29 | 8 | 10.4 mph | 15 | SSW (200°) | 99583 | 101731 | 33.2°C | 37.6% | 16.8°C | 7316ft (2230m) | 13.35v | 31 |
| 5712 | 14 Apr 12:51:18 | 9 | 9.8 mph | 12 | SSW (196°) | 99585 | 101733 | 33.2°C | 37.2% | 16.6°C | 7385ft (2251m) | 13.35v | 31 |
| 5711 | 14 Apr 12:51:07 | 11 | 12.5 mph | 14 | SSW (194°) | 99575 | 101723 | 33.2°C | 37.5% | 16.8°C | 7334ft (2235m) | 13.38v | 31 |
| 5710 | 14 Apr 12:50:55 | 9 | 10.4 mph | 12 | SSW (200°) | 99584 | 101732 | 33.2°C | 37.5% | 16.8°C | 7334ft (2235m) | 13.36v | 31 |
| 5709 | 14 Apr 12:50:44 | 9 | 9.5 mph | 11 | SSW (212°) | 99582 | 101730 | 33.2°C | 37.7% | 16.8°C | 7299ft (2225m) | 13.38v | 31 |
| 5708 | 14 Apr 12:50:33 | 7 | 8.8 mph | 10 | SSW (210°) | 99587 | 101735 | 33.2°C | 37.7% | 16.8°C | 7299ft (2225m) | 13.34v | 31 |
| 5707 | 14 Apr 12:50:22 | 9 | 9.9 mph | 12 | SSW (210°) | 99581 | 101729 | 33.1°C | 37.9% | 16.8°C | 7260ft (2213m) | 13.35v | 31 |
| 5706 | 14 Apr 12:50:10 | 8 | 9.1 mph | 11 | S (189°) | 99579 | 101727 | 33.1°C | 37.9% | 16.8°C | 7260ft (2213m) | 13.35v | 31 |
| 5705 | 14 Apr 12:49:59 | 6 | 8.5 mph | 12 | SSW (208°) | 99582 | 101730 | 33.1°C | 37.6% | 16.7°C | 7312ft (2229m) | 13.37v | 31 |
| 5704 | 14 Apr 12:49:48 | 5 | 7 mph | 11 | SSW (213°) | 99573 | 101721 | 33°C | 38.4% | 16.9°C | 7171ft (2186m) | 13.37v | 31 |
| 5703 | 14 Apr 12:49:37 | 6 | 9.3 mph | 14 | SSW (209°) | 99586 | 101734 | 33°C | 38.2% | 16.9°C | 7205ft (2196m) | 13.38v | 31 |
| 5702 | 14 Apr 12:49:25 | 9 | 11.6 mph | 16 | S (188°) | 99585 | 101733 | 33°C | 38.7% | 17.1°C | 7120ft (2170m) | 13.39v | 31 |
| 5701 | 14 Apr 12:49:14 | 8 | 10.8 mph | 16 | SSW (206°) | 99591 | 101739 | 33°C | 39.9% | 17.6°C | 6922ft (2110m) | 13.46v | 31 |
| 5700 | 14 Apr 12:49:03 | 7 | 8.5 mph | 13 | S (182°) | 99588 | 101736 | 32.9°C | 39.9% | 17.5°C | 6918ft (2109m) | 13.35v | 31 |
| 5699 | 14 Apr 12:48:52 | 8 | 9.1 mph | 11 | S (186°) | 99578 | 101726 | 32.9°C | 39.7% | 17.4°C | 6950ft (2118m) | 13.36v | 31 |
| 5698 | 14 Apr 12:48:40 | 9 | 9.5 mph | 11 | S (182°) | 99588 | 101736 | 32.9°C | 39.7% | 17.4°C | 6950ft (2118m) | 13.34v | 31 |
| 5697 | 14 Apr 12:48:29 | 7 | 9.1 mph | 11 | SSW (197°) | 99588 | 101736 | 32.9°C | 39.5% | 17.3°C | 6983ft (2128m) | 13.48v | 31 |
| 5696 | 14 Apr 12:48:18 | 13 | 13.6 mph | 15 | S (190°) | 99585 | 101733 | 32.9°C | 39.9% | 17.5°C | 6918ft (2109m) | 13.36v | 31 |
| 5695 | 14 Apr 12:48:07 | 13 | 14.3 mph | 17 | S (184°) | 99581 | 101729 | 32.9°C | 39.9% | 17.5°C | 6918ft (2109m) | 13.4v | 31 |
| 5694 | 14 Apr 12:47:55 | 10 | 11.7 mph | 13 | SSW (196°) | 99583 | 101731 | 32.8°C | 40.2% | 17.5°C | 6865ft (2092m) | 13.33v | 31 |
| 5693 | 14 Apr 12:47:44 | 9 | 10 mph | 11 | SSW (199°) | 99586 | 101734 | 32.8°C | 40.2% | 17.5°C | 6865ft (2092m) | 13.38v | 31 |
| 5692 | 14 Apr 12:47:33 | 7 | 9.2 mph | 11 | S (190°) | 99582 | 101730 | 32.8°C | 40.1% | 17.5°C | 6881ft (2097m) | 13.42v | 31 |
| 5691 | 14 Apr 12:47:22 | 7 | 8.2 mph | 10 | S (189°) | 99590 | 101738 | 32.8°C | 39.9% | 17.4°C | 6913ft (2107m) | 13.38v | 31 |
| 5690 | 14 Apr 12:47:10 | 8 | 7.8 mph | 9 | SSW (192°) | 99588 | 101736 | 32.8°C | 39.7% | 17.3°C | 6946ft (2117m) | 13.33v | 31 |
| 5689 | 14 Apr 12:46:59 | 5 | 6.3 mph | 8 | S (183°) | 99591 | 101739 | 32.8°C | 39.5% | 17.2°C | 6979ft (2127m) | 13.37v | 31 |
| 5688 | 14 Apr 12:46:48 | 10 | 11.1 mph | 12 | SSW (192°) | 99591 | 101739 | 32.8°C | 39.2% | 17.1°C | 7028ft (2142m) | 13.36v | 31 |
| 5687 | 14 Apr 12:46:37 | 9 | 10.3 mph | 13 | SSW (199°) | 99602 | 101750 | 32.7°C | 39.3% | 17°C | 7007ft (2136m) | 13.38v | 31 |
| 5686 | 14 Apr 12:46:25 | 7 | 9.5 mph | 13 | S (188°) | 99590 | 101738 | 32.7°C | 39.1% | 17°C | 7040ft (2146m) | 13.44v | 31 |
| 5685 | 14 Apr 12:46:14 | 7 | 9.8 mph | 12 | SSW (209°) | 99594 | 101742 | 32.7°C | 38.9% | 16.9°C | 7073ft (2156m) | 13.38v | 31 |
| 5684 | 14 Apr 12:46:03 | 10 | 11.2 mph | 13 | S (190°) | 99589 | 101737 | 32.7°C | 39% | 16.9°C | 7056ft (2151m) | 13.39v | 31 |
| 5683 | 14 Apr 12:45:52 | 11 | 13.8 mph | 16 | S (189°) | 99595 | 101743 | 32.7°C | 39.5% | 17.1°C | 6974ft (2126m) | 13.39v | 31 |
| 5682 | 14 Apr 12:45:40 | 11 | 11.9 mph | 14 | SSW (199°) | 99599 | 101747 | 32.7°C | 39.6% | 17.2°C | 6958ft (2121m) | 13.39v | 31 |
| 5681 | 14 Apr 12:45:29 | 12 | 15.2 mph | 17 | SW (220°) | 99601 | 101749 | 32.7°C | 39.4% | 17.1°C | 6990ft (2131m) | 13.39v | 31 |
| 5680 | 14 Apr 12:45:18 | 13 | 13.4 mph | 15 | SSW (200°) | 99591 | 101739 | 32.7°C | 40.1% | 17.4°C | 6876ft (2096m) | 13.37v | 31 |
| 5679 | 14 Apr 12:45:07 | 8 | 11.8 mph | 15 | SW (215°) | 99596 | 101744 | 32.7°C | 40.5% | 17.5°C | 6812ft (2076m) | 13.39v | 31 |
| 5678 | 14 Apr 12:44:55 | 9 | 11 mph | 14 | SSW (206°) | 99587 | 101735 | 32.7°C | 40.4% | 17.5°C | 6828ft (2081m) | 13.41v | 31 |
| 5677 | 14 Apr 12:44:44 | 8 | 10.6 mph | 13 | SSW (195°) | 99592 | 101740 | 32.6°C | 40.5% | 17.4°C | 6807ft (2075m) | 13.4v | 31 |
| 5676 | 14 Apr 12:44:33 | 10 | 12.1 mph | 14 | SSW (193°) | 99592 | 101740 | 32.6°C | 40.8% | 17.6°C | 6759ft (2060m) | 13.5v | 31 |
| 5675 | 14 Apr 12:44:22 | 7 | 8.9 mph | 13 | SSW (196°) | 99593 | 101741 | 32.6°C | 41.6% | 17.9°C | 6633ft (2022m) | 13.4v | 31 |
| 5674 | 14 Apr 12:44:10 | 9 | 10.1 mph | 12 | SSW (206°) | 99589 | 101737 | 32.5°C | 41.5% | 17.7°C | 6644ft (2025m) | 13.39v | 31 |
| 5673 | 14 Apr 12:43:59 | 7 | 8.8 mph | 11 | SSW (198°) | 99592 | 101740 | 32.5°C | 41.5% | 17.7°C | 6644ft (2025m) | 13.39v | 31 |
| 5672 | 14 Apr 12:43:48 | 6 | 9.1 mph | 11 | SSW (195°) | 99591 | 101739 | 32.5°C | 41.5% | 17.7°C | 6644ft (2025m) | 13.37v | 31 |
| 5671 | 14 Apr 12:43:37 | 7 | 9.1 mph | 11 | SSW (196°) | 99601 | 101749 | 32.4°C | 41.9% | 17.8°C | 6578ft (2005m) | 13.38v | 31 |
| 5670 | 14 Apr 12:43:25 | 6 | 7.8 mph | 10 | SSW (194°) | 99600 | 101748 | 32.4°C | 41.9% | 17.8°C | 6578ft (2005m) | 13.38v | 31 |
| 5669 | 14 Apr 12:43:14 | 8 | 9 mph | 11 | SSW (210°) | 99600 | 101748 | 32.4°C | 41.5% | 17.6°C | 6640ft (2024m) | 13.39v | 31 |
| 5668 | 14 Apr 12:43:03 | 9 | 10.4 mph | 12 | SSW (201°) | 99600 | 101748 | 32.4°C | 41.4% | 17.6°C | 6656ft (2029m) | 13.38v | 31 |
| 5667 | 14 Apr 12:42:52 | 7 | 6.9 mph | 8 | SSW (210°) | 99599 | 101747 | 32.3°C | 41.5% | 17.6°C | 6636ft (2023m) | 13.38v | 31 |
| 5666 | 14 Apr 12:42:40 | 6 | 6.4 mph | 8 | SSW (205°) | 99607 | 101756 | 32.3°C | 41.3% | 17.5°C | 6667ft (2032m) | 13.38v | 31 |
| 5665 | 14 Apr 12:42:29 | 7 | 12.4 mph | 16 | SSW (197°) | 99605 | 101753 | 32.2°C | 41.1% | 17.3°C | 6694ft (2040m) | 13.44v | 31 |
| 5664 | 14 Apr 12:42:18 | 7 | 10.6 mph | 15 | SSW (205°) | 99598 | 101746 | 32.2°C | 41.6% | 17.5°C | 6616ft (2017m) | 13.38v | 31 |
| 5663 | 14 Apr 12:42:07 | 6 | 7.1 mph | 9 | SSW (204°) | 99610 | 101759 | 32.2°C | 41.7% | 17.5°C | 6600ft (2012m) | 13.39v | 31 |
| 5662 | 14 Apr 12:41:55 | 5 | 9.3 mph | 12 | SSW (194°) | 99610 | 101759 | 32.2°C | 41.8% | 17.6°C | 6585ft (2007m) | 13.45v | 31 |
| 5661 | 14 Apr 12:41:44 | 5 | 7.4 mph | 11 | SW (215°) | 99610 | 101759 | 32.2°C | 41.3% | 17.4°C | 6663ft (2031m) | 13.38v | 31 |
| 5660 | 14 Apr 12:41:33 | 7 | 8.7 mph | 11 | SSW (202°) | 99608 | 101757 | 32.1°C | 40.9% | 17.1°C | 6721ft (2049m) | 13.38v | 31 |
| 5659 | 14 Apr 12:41:22 | 12 | 13.4 mph | 15 | SSW (205°) | 99603 | 101751 | 32.1°C | 41% | 17.2°C | 6706ft (2044m) | 13.39v | 31 |
| 5658 | 14 Apr 12:41:10 | 7 | 8.9 mph | 11 | SSW (213°) | 99612 | 101761 | 32.1°C | 40.9% | 17.1°C | 6721ft (2049m) | 13.38v | 31 |
| 5657 | 14 Apr 12:40:59 | 11 | 12.9 mph | 16 | SW (217°) | 99609 | 101758 | 32.1°C | 40.6% | 17°C | 6769ft (2063m) | 13.37v | 31 |
| 5656 | 14 Apr 12:40:48 | 10 | 12.8 mph | 17 | SSW (206°) | 99603 | 101751 | 32.1°C | 40.7% | 17.1°C | 6753ft (2058m) | 13.39v | 31 |
| 5655 | 14 Apr 12:40:37 | 9 | 10.4 mph | 13 | SW (221°) | 99607 | 101756 | 32.1°C | 41.1% | 17.2°C | 6690ft (2039m) | 13.38v | 31 |
| 5654 | 14 Apr 12:40:25 | 9 | 10.1 mph | 13 | SW (217°) | 99608 | 101757 | 32.1°C | 41.5% | 17.4°C | 6627ft (2020m) | 13.41v | 31 |
| 5653 | 14 Apr 12:40:14 | 6 | 9.6 mph | 14 | S (191°) | 99606 | 101755 | 32°C | 41.8% | 17.4°C | 6576ft (2004m) | 13.37v | 31 |
| 5652 | 14 Apr 12:40:03 | 9 | 11.3 mph | 14 | SSW (202°) | 99608 | 101757 | 32°C | 41.5% | 17.3°C | 6623ft (2019m) | 13.38v | 31 |
| 5651 | 14 Apr 12:39:52 | 12 | 13.3 mph | 16 | SSW (201°) | 99609 | 101758 | 32°C | 41.5% | 17.3°C | 6623ft (2019m) | 13.39v | 31 |
| 5650 | 14 Apr 12:39:40 | 11 | 12.9 mph | 16 | SSW (192°) | 99607 | 101756 | 32°C | 41.9% | 17.4°C | 6560ft (1999m) | 13.38v | 31 |
| 5649 | 14 Apr 12:39:29 | 10 | 12.6 mph | 15 | SSW (199°) | 99614 | 101763 | 32°C | 42.1% | 17.5°C | 6529ft (1990m) | 13.38v | 31 |
| 5648 | 14 Apr 12:39:18 | 8 | 10.5 mph | 16 | S (191°) | 99601 | 101749 | 32°C | 42.7% | 17.7°C | 6437ft (1962m) | 13.38v | 31 |
| 5647 | 14 Apr 12:39:07 | 11 | 10.8 mph | 12 | S (185°) | 99615 | 101764 | 32°C | 43.1% | 17.9°C | 6377ft (1944m) | 13.38v | 31 |
| 5646 | 14 Apr 12:38:55 | 7 | 10.8 mph | 15 | SSW (202°) | 99617 | 101766 | 32°C | 43.4% | 18°C | 6332ft (1930m) | 13.43v | 31 |
| 5645 | 14 Apr 12:38:44 | 5 | 5.9 mph | 7 | SSW (195°) | 99621 | 101770 | 31.9°C | 43.6% | 18°C | 6297ft (1919m) | 13.39v | 31 |
| 5644 | 14 Apr 12:38:33 | 7 | 7.2 mph | 8 | S (188°) | 99615 | 101764 | 31.9°C | 43.3% | 17.9°C | 6342ft (1933m) | 13.39v | 31 |
| 5643 | 14 Apr 12:38:22 | 5 | 5.7 mph | 9 | SSW (211°) | 99621 | 101770 | 31.9°C | 43.1% | 17.8°C | 6373ft (1942m) | 13.4v | 31 |
| 5642 | 14 Apr 12:38:10 | 8 | 9.5 mph | 11 | S (191°) | 99622 | 101771 | 31.9°C | 43.1% | 17.8°C | 6373ft (1942m) | 13.38v | 31 |
| 5641 | 14 Apr 12:37:59 | 6 | 7.5 mph | 9 | SSW (205°) | 99622 | 101771 | 31.8°C | 43.3% | 17.8°C | 6338ft (1932m) | 13.42v | 31 |
| 5640 | 14 Apr 12:37:48 | 5 | 6.1 mph | 9 | SSW (195°) | 99621 | 101770 | 31.8°C | 43.2% | 17.7°C | 6353ft (1936m) | 13.38v | 31 |
| 5639 | 14 Apr 12:37:37 | 9 | 10.8 mph | 14 | S (186°) | 99621 | 101770 | 31.8°C | 42.8% | 17.6°C | 6414ft (1955m) | 13.4v | 31 |
| 5638 | 14 Apr 12:37:25 | 6 | 7.1 mph | 9 | S (177°) | 99624 | 101773 | 31.8°C | 42.7% | 17.6°C | 6429ft (1960m) | 13.39v | 31 |
| 5637 | 14 Apr 12:37:14 | 8 | 10.2 mph | 13 | S (180°) | 99620 | 101769 | 31.8°C | 42.5% | 17.5°C | 6459ft (1969m) | 13.43v | 31 |
| 5636 | 14 Apr 12:37:03 | 9 | 11.1 mph | 13 | S (186°) | 99619 | 101768 | 31.8°C | 42.5% | 17.5°C | 6459ft (1969m) | 13.4v | 31 |
| 5635 | 14 Apr 12:36:52 | 13 | 14.3 mph | 15 | SSW (198°) | 99619 | 101768 | 31.8°C | 42.2% | 17.4°C | 6505ft (1983m) | 13.37v | 31 |
| 5634 | 14 Apr 12:36:40 | 12 | 13.5 mph | 16 | S (191°) | 99620 | 101769 | 31.8°C | 42.3% | 17.4°C | 6490ft (1978m) | 13.4v | 31 |
| 5633 | 14 Apr 12:36:29 | 12 | 12.9 mph | 14 | S (191°) | 99624 | 101773 | 31.8°C | 42.3% | 17.4°C | 6490ft (1978m) | 13.37v | 31 |
| 5632 | 14 Apr 12:36:18 | 14 | 14.3 mph | 16 | SSW (195°) | 99620 | 101769 | 31.8°C | 42.2% | 17.4°C | 6505ft (1983m) | 13.38v | 31 |
| 5631 | 14 Apr 12:36:07 | 10 | 12.8 mph | 16 | SSW (199°) | 99624 | 101773 | 31.8°C | 42.3% | 17.4°C | 6490ft (1978m) | 13.39v | 31 |
| 5630 | 14 Apr 12:35:55 | 6 | 7.3 mph | 9 | SSW (192°) | 99627 | 101776 | 31.8°C | 42.4% | 17.4°C | 6475ft (1974m) | 13.39v | 31 |
| 5629 | 14 Apr 12:35:44 | 10 | 11.3 mph | 13 | S (177°) | 99627 | 101776 | 31.8°C | 42.2% | 17.4°C | 6505ft (1983m) | 13.39v | 31 |
| 5628 | 14 Apr 12:35:33 | 8 | 10.8 mph | 14 | SSW (192°) | 99627 | 101776 | 31.8°C | 42.1% | 17.3°C | 6521ft (1988m) | 13.38v | 31 |
| 5627 | 14 Apr 12:35:22 | 6 | 7.2 mph | 11 | S (175°) | 99623 | 101772 | 31.8°C | 42.2% | 17.4°C | 6505ft (1983m) | 13.38v | 31 |
| 5626 | 14 Apr 12:35:10 | 7 | 8.9 mph | 13 | S (182°) | 99627 | 101776 | 31.8°C | 41.9% | 17.3°C | 6552ft (1997m) | 13.4v | 31 |
| 5625 | 14 Apr 12:34:59 | 10 | 10.6 mph | 13 | S (177°) | 99626 | 101775 | 31.8°C | 41.9% | 17.3°C | 6552ft (1997m) | 13.38v | 31 |
| 5624 | 14 Apr 12:34:48 | 9 | 11.1 mph | 17 | S (183°) | 99625 | 101774 | 31.8°C | 41.7% | 17.2°C | 6583ft (2006m) | 13.39v | 31 |
| 5623 | 14 Apr 12:34:37 | 12 | 14.1 mph | 20 | S (171°) | 99621 | 101770 | 31.8°C | 41.4% | 17.1°C | 6630ft (2021m) | 13.39v | 31 |
| 5622 | 14 Apr 12:34:25 | 10 | 10.4 mph | 12 | SSW (205°) | 99629 | 101778 | 31.9°C | 41.1% | 17°C | 6681ft (2036m) | 13.41v | 31 |
| 5621 | 14 Apr 12:34:14 | 8 | 8.8 mph | 11 | SSW (201°) | 99622 | 101771 | 31.9°C | 41% | 17°C | 6697ft (2041m) | 13.39v | 31 |
| 5620 | 14 Apr 12:34:03 | 11 | 13.8 mph | 16 | S (187°) | 99626 | 101775 | 31.8°C | 41.1% | 17°C | 6677ft (2035m) | 13.39v | 31 |
| 5619 | 14 Apr 12:33:52 | 8 | 11.6 mph | 15 | S (182°) | 99627 | 101776 | 31.8°C | 41% | 16.9°C | 6692ft (2040m) | 13.39v | 31 |
| 5618 | 14 Apr 12:33:40 | 8 | 10 mph | 14 | SSW (194°) | 99628 | 101777 | 31.8°C | 41.1% | 17°C | 6677ft (2035m) | 13.39v | 31 |
| 5617 | 14 Apr 12:33:29 | 9 | 9.5 mph | 10 | S (176°) | 99628 | 101777 | 31.8°C | 41.1% | 17°C | 6677ft (2035m) | 13.41v | 31 |
| 5616 | 14 Apr 12:33:18 | 6 | 8.3 mph | 12 | S (191°) | 99627 | 101776 | 31.8°C | 40.9% | 16.9°C | 6708ft (2045m) | 13.38v | 31 |
| 5615 | 14 Apr 12:33:07 | 8 | 10.7 mph | 15 | SSW (200°) | 99630 | 101779 | 31.8°C | 40.8% | 16.8°C | 6724ft (2049m) | 13.38v | 31 |
| 5614 | 14 Apr 12:32:55 | 10 | 11 mph | 13 | S (184°) | 99631 | 101780 | 31.8°C | 40.7% | 16.8°C | 6740ft (2054m) | 13.39v | 31 |
| 5613 | 14 Apr 12:32:44 | 7 | 9.3 mph | 12 | S (191°) | 99634 | 101783 | 31.8°C | 40.8% | 16.8°C | 6724ft (2049m) | 13.39v | 31 |
| 5612 | 14 Apr 12:32:33 | 8 | 9.5 mph | 11 | SSW (212°) | 99630 | 101779 | 31.8°C | 40.7% | 16.8°C | 6740ft (2054m) | 13.39v | 31 |
| 5611 | 14 Apr 12:32:22 | 8 | 8.6 mph | 11 | S (191°) | 99621 | 101770 | 31.8°C | 40.8% | 16.8°C | 6724ft (2049m) | 13.42v | 31 |
| 5610 | 14 Apr 12:32:10 | 5 | 6.6 mph | 11 | SSW (197°) | 99637 | 101786 | 31.8°C | 40.6% | 16.8°C | 6756ft (2059m) | 13.39v | 31 |
| 5609 | 14 Apr 12:31:59 | 9 | 10.8 mph | 13 | SW (222°) | 99625 | 101774 | 31.8°C | 40.6% | 16.8°C | 6756ft (2059m) | 13.43v | 31 |
| 5608 | 14 Apr 12:31:48 | 7 | 9.6 mph | 13 | SSW (210°) | 99632 | 101781 | 31.8°C | 40.7% | 16.8°C | 6740ft (2054m) | 13.37v | 31 |
| 5607 | 14 Apr 12:31:37 | 8 | 8.5 mph | 11 | SSW (212°) | 99630 | 101779 | 31.8°C | 40.5% | 16.7°C | 6772ft (2064m) | 13.39v | 31 |
| 5606 | 14 Apr 12:31:25 | 8 | 8.8 mph | 10 | SW (215°) | 99634 | 101783 | 31.8°C | 40.6% | 16.8°C | 6756ft (2059m) | 13.39v | 31 |
| 5605 | 14 Apr 12:31:14 | 5 | 8.6 mph | 14 | SSW (212°) | 99634 | 101783 | 31.8°C | 41.3% | 17°C | 6645ft (2025m) | 13.39v | 31 |
| 5604 | 14 Apr 12:31:03 | 4 | 4.9 mph | 6 | SSW (205°) | 99639 | 101788 | 31.8°C | 41.9% | 17.3°C | 6552ft (1997m) | 13.42v | 31 |
| 5603 | 14 Apr 12:30:52 | 6 | 6.5 mph | 9 | SW (214°) | 99634 | 101783 | 31.8°C | 41.7% | 17.2°C | 6583ft (2006m) | 13.39v | 31 |
| 5602 | 14 Apr 12:30:40 | 6 | 8.7 mph | 10 | SW (228°) | 99631 | 101780 | 31.8°C | 41.8% | 17.2°C | 6567ft (2002m) | 13.39v | 31 |
| 5601 | 14 Apr 12:30:29 | 7 | 7.8 mph | 10 | S (191°) | 99635 | 101784 | 31.8°C | 42% | 17.3°C | 6536ft (1992m) | 13.39v | 31 |
| 5600 | 14 Apr 12:30:18 | 8 | 8.8 mph | 12 | SSW (202°) | 99635 | 101784 | 31.8°C | 41.9% | 17.3°C | 6552ft (1997m) | 13.38v | 31 |
| 5599 | 14 Apr 12:30:07 | 12 | 12.9 mph | 15 | SW (221°) | 99629 | 101778 | 31.8°C | 41.8% | 17.2°C | 6567ft (2002m) | 13.37v | 31 |
| 5598 | 14 Apr 12:29:55 | 5 | 7.6 mph | 12 | SSW (192°) | 99630 | 101779 | 31.9°C | 42.3% | 17.5°C | 6494ft (1979m) | 13.38v | 31 |
| 5597 | 14 Apr 12:29:44 | 7 | 7.8 mph | 10 | SSW (207°) | 99636 | 101785 | 31.9°C | 42.2% | 17.5°C | 6510ft (1984m) | 13.39v | 31 |
| 5596 | 14 Apr 12:29:33 | 8 | 9.7 mph | 14 | SSW (200°) | 99640 | 101789 | 31.9°C | 42% | 17.4°C | 6541ft (1994m) | 13.4v | 31 |
| 5595 | 14 Apr 12:29:22 | 10 | 11.4 mph | 13 | SSW (201°) | 99638 | 101787 | 31.9°C | 42% | 17.4°C | 6541ft (1994m) | 13.37v | 31 |
| 5594 | 14 Apr 12:29:10 | 10 | 11.3 mph | 13 | SSW (192°) | 99632 | 101781 | 31.9°C | 42% | 17.4°C | 6541ft (1994m) | 13.39v | 31 |
| 5593 | 14 Apr 12:28:59 | 9 | 10.2 mph | 13 | SSW (192°) | 99633 | 101782 | 31.8°C | 41.9% | 17.3°C | 6552ft (1997m) | 13.38v | 31 |
| 5592 | 14 Apr 12:28:48 | 9 | 9.8 mph | 12 | SSW (194°) | 99638 | 101787 | 31.9°C | 41.5% | 17.2°C | 6618ft (2017m) | 13.39v | 31 |
| 5591 | 14 Apr 12:28:37 | 7 | 8.4 mph | 10 | SSW (195°) | 99636 | 101785 | 31.9°C | 41.5% | 17.2°C | 6618ft (2017m) | 13.36v | 31 |
| 5590 | 14 Apr 12:28:25 | 8 | 9.6 mph | 12 | SSW (192°) | 99636 | 101785 | 31.9°C | 41.4% | 17.2°C | 6634ft (2022m) | 13.38v | 31 |
| 5589 | 14 Apr 12:28:14 | 9 | 10.7 mph | 13 | S (189°) | 99634 | 101783 | 31.9°C | 41% | 17°C | 6697ft (2041m) | 13.41v | 31 |
| 5588 | 14 Apr 12:28:03 | 9 | 11.4 mph | 15 | S (187°) | 99641 | 101790 | 31.9°C | 40.7% | 16.9°C | 6744ft (2056m) | 13.39v | 31 |
| 5587 | 14 Apr 12:27:52 | 12 | 15.2 mph | 17 | SSW (195°) | 99633 | 101782 | 31.9°C | 40.3% | 16.7°C | 6808ft (2075m) | 13.43v | 31 |
| 5586 | 14 Apr 12:27:40 | 9 | 9.8 mph | 12 | SSW (195°) | 99641 | 101790 | 31.9°C | 40.1% | 16.7°C | 6840ft (2085m) | 13.38v | 31 |
| 5585 | 14 Apr 12:27:29 | 11 | 12.6 mph | 15 | S (190°) | 99638 | 101787 | 32°C | 40.2% | 16.8°C | 6829ft (2081m) | 13.37v | 31 |
| 5584 | 14 Apr 12:27:18 | 11 | 12.5 mph | 16 | SSW (195°) | 99639 | 101788 | 32°C | 40.1% | 16.7°C | 6845ft (2086m) | 13.33v | 31 |
| 5583 | 14 Apr 12:27:07 | 9 | 13 mph | 15 | SSW (199°) | 99642 | 101791 | 32°C | 40.7% | 17°C | 6749ft (2057m) | 13.42v | 31 |
| 5582 | 14 Apr 12:26:55 | 9 | 10.2 mph | 11 | SSW (201°) | 99642 | 101791 | 32°C | 40.6% | 16.9°C | 6765ft (2062m) | 13.35v | 31 |
| 5581 | 14 Apr 12:26:44 | 10 | 10.3 mph | 11 | SSW (204°) | 99643 | 101792 | 32.1°C | 40.3% | 16.9°C | 6817ft (2078m) | 13.37v | 31 |
| 5580 | 14 Apr 12:26:33 | 10 | 11.3 mph | 14 | SSW (210°) | 99638 | 101787 | 32.1°C | 40.2% | 16.9°C | 6833ft (2083m) | 13.4v | 31 |
| 5579 | 14 Apr 12:26:22 | 15 | 15.9 mph | 18 | S (189°) | 99642 | 101791 | 32.1°C | 40.9% | 17.1°C | 6721ft (2049m) | 13.38v | 31 |
| 5578 | 14 Apr 12:26:10 | 9 | 11.6 mph | 16 | S (191°) | 99635 | 101784 | 32.1°C | 41% | 17.2°C | 6706ft (2044m) | 13.35v | 31 |
| 5577 | 14 Apr 12:25:59 | 8 | 8.4 mph | 9 | SSW (206°) | 99649 | 101798 | 32.1°C | 41.1% | 17.2°C | 6690ft (2039m) | 13.38v | 31 |
| 5576 | 14 Apr 12:25:48 | 7 | 7.8 mph | 9 | SSW (196°) | 99645 | 101794 | 32.1°C | 40.9% | 17.1°C | 6721ft (2049m) | 13.34v | 31 |
| 5575 | 14 Apr 12:25:37 | 9 | 10.5 mph | 14 | SSW (207°) | 99645 | 101794 | 32.1°C | 40.5% | 17°C | 6785ft (2068m) | 13.37v | 31 |
| 5574 | 14 Apr 12:25:25 | 12 | 11.7 mph | 13 | SSW (206°) | 99643 | 101792 | 32.1°C | 40.5% | 17°C | 6785ft (2068m) | 13.39v | 31 |
| 5573 | 14 Apr 12:25:14 | 7 | 9.1 mph | 11 | SSW (203°) | 99647 | 101796 | 32.2°C | 40.4% | 17°C | 6805ft (2074m) | 13.39v | 31 |
| 5572 | 14 Apr 12:25:03 | 7 | 8.4 mph | 12 | SSW (197°) | 99648 | 101797 | 32.2°C | 40.5% | 17.1°C | 6789ft (2069m) | 13.39v | 31 |
| 5571 | 14 Apr 12:24:52 | 9 | 10.1 mph | 13 | S (171°) | 99642 | 101791 | 32.2°C | 40.2% | 17°C | 6838ft (2084m) | 13.35v | 31 |
| 5570 | 14 Apr 12:24:40 | 11 | 13.8 mph | 17 | S (184°) | 99639 | 101788 | 32.2°C | 40.1% | 16.9°C | 6854ft (2089m) | 13.41v | 31 |
| 5569 | 14 Apr 12:24:29 | 13 | 14.6 mph | 16 | S (183°) | 99649 | 101798 | 32.3°C | 39.9% | 16.9°C | 6891ft (2100m) | 13.37v | 31 |
| 5568 | 14 Apr 12:24:18 | 12 | 13.5 mph | 15 | S (191°) | 99640 | 101789 | 32.3°C | 40.2% | 17.1°C | 6842ft (2085m) | 13.37v | 31 |
| 5567 | 14 Apr 12:24:07 | 9 | 10.4 mph | 12 | S (170°) | 99651 | 101800 | 32.3°C | 40.4% | 17.1°C | 6810ft (2076m) | 13.41v | 31 |
| 5566 | 14 Apr 12:23:55 | 11 | 12 mph | 13 | S (186°) | 99653 | 101803 | 32.3°C | 40.4% | 17.1°C | 6810ft (2076m) | 13.39v | 31 |
| 5565 | 14 Apr 12:23:44 | 7 | 8.6 mph | 12 | S (179°) | 99649 | 101798 | 32.4°C | 40.2% | 17.1°C | 6847ft (2087m) | 13.38v | 31 |
| 5564 | 14 Apr 12:23:33 | 6 | 7.7 mph | 10 | S (180°) | 99650 | 101799 | 32.4°C | 39.8% | 17°C | 6911ft (2106m) | 13.39v | 31 |
| 5563 | 14 Apr 12:23:22 | 9 | 12.4 mph | 16 | S (187°) | 99650 | 101799 | 32.4°C | 39.9% | 17°C | 6895ft (2102m) | 13.35v | 31 |
| 5562 | 14 Apr 12:23:10 | 7 | 8.6 mph | 11 | S (188°) | 99656 | 101806 | 32.5°C | 40% | 17.2°C | 6883ft (2098m) | 13.37v | 31 |
| 5561 | 14 Apr 12:22:59 | 10 | 11.4 mph | 13 | S (190°) | 99649 | 101798 | 32.5°C | 39.6% | 17°C | 6948ft (2118m) | 13.4v | 31 |
| 5560 | 14 Apr 12:22:48 | 8 | 10.3 mph | 13 | S (179°) | 99655 | 101805 | 32.5°C | 39.7% | 17°C | 6932ft (2113m) | 13.37v | 31 |
| 5559 | 14 Apr 12:22:37 | 12 | 12.7 mph | 14 | S (176°) | 99647 | 101796 | 32.5°C | 39.6% | 17°C | 6948ft (2118m) | 13.37v | 31 |
| 5558 | 14 Apr 12:22:25 | 11 | 11.7 mph | 14 | S (189°) | 99650 | 101799 | 32.6°C | 39.6% | 17.1°C | 6953ft (2119m) | 13.37v | 31 |
| 5557 | 14 Apr 12:22:14 | 9 | 10.1 mph | 11 | S (188°) | 99660 | 101810 | 32.6°C | 39.8% | 17.2°C | 6920ft (2109m) | 13.33v | 31 |
| 5556 | 14 Apr 12:22:03 | 11 | 13.5 mph | 16 | S (187°) | 99658 | 101808 | 32.6°C | 39.7% | 17.1°C | 6937ft (2114m) | 13.39v | 31 |
| 5555 | 14 Apr 12:21:52 | 7 | 10.1 mph | 12 | S (183°) | 99649 | 101798 | 32.6°C | 39.8% | 17.2°C | 6920ft (2109m) | 13.33v | 31 |
| 5554 | 14 Apr 12:21:40 | 8 | 11.7 mph | 14 | S (189°) | 99655 | 101805 | 32.7°C | 39.6% | 17.2°C | 6958ft (2121m) | 13.39v | 31 |
| 5553 | 14 Apr 12:21:29 | 9 | 11.7 mph | 16 | S (185°) | 99649 | 101798 | 32.7°C | 39.6% | 17.2°C | 6958ft (2121m) | 13.34v | 31 |
| 5552 | 14 Apr 12:21:18 | 8 | 9.8 mph | 13 | S (190°) | 99652 | 101802 | 32.8°C | 39.6% | 17.3°C | 6962ft (2122m) | 13.39v | 31 |
| 5551 | 14 Apr 12:21:07 | 8 | 8.9 mph | 11 | SSW (193°) | 99647 | 101796 | 32.8°C | 39.5% | 17.2°C | 6979ft (2127m) | 13.34v | 31 |
| 5550 | 14 Apr 12:20:55 | 11 | 13.7 mph | 16 | SSW (203°) | 99654 | 101804 | 32.8°C | 39.1% | 17.1°C | 7045ft (2147m) | 13.41v | 31 |
| 5549 | 14 Apr 12:20:44 | 10 | 12.4 mph | 18 | SSW (195°) | 99641 | 101790 | 32.9°C | 39.1% | 17.1°C | 7049ft (2149m) | 13.36v | 31 |
| 5548 | 14 Apr 12:20:33 | 10 | 9.8 mph | 16 | SW (220°) | 99639 | 101788 | 32.9°C | 38.9% | 17.1°C | 7082ft (2159m) | 13.34v | 31 |
| 5547 | 14 Apr 12:20:22 | 10 | 12.7 mph | 16 | SSW (201°) | 99653 | 101803 | 33°C | 38.9% | 17.2°C | 7087ft (2160m) | 13.33v | 31 |
| 5546 | 14 Apr 12:20:10 | 9 | 12.2 mph | 15 | SSW (204°) | 99650 | 101799 | 33°C | 38.7% | 17.1°C | 7120ft (2170m) | 13.36v | 31 |
| 5545 | 14 Apr 12:19:59 | 15 | 17.5 mph | 21 | SSW (211°) | 99642 | 101791 | 33°C | 38.9% | 17.2°C | 7087ft (2160m) | 13.36v | 31 |
| 5544 | 14 Apr 12:19:48 | 13 | 14.9 mph | 18 | S (186°) | 99649 | 101798 | 33.1°C | 39.3% | 17.4°C | 7025ft (2141m) | 13.36v | 31 |
| 5543 | 14 Apr 12:19:37 | 10 | 13 mph | 18 | SSW (196°) | 99630 | 101779 | 33.1°C | 39.5% | 17.5°C | 6992ft (2131m) | 13.4v | 31 |
| 5542 | 14 Apr 12:19:25 | 9 | 13.7 mph | 17 | S (190°) | 99647 | 101796 | 33.1°C | 39.3% | 17.4°C | 7025ft (2141m) | 13.32v | 31 |
| 5541 | 14 Apr 12:19:14 | 12 | 13.3 mph | 18 | S (190°) | 99649 | 101798 | 33.1°C | 39.5% | 17.5°C | 6992ft (2131m) | 13.35v | 31 |
| 5540 | 14 Apr 12:19:03 | 6 | 8.3 mph | 11 | SSE (164°) | 99647 | 101796 | 33.1°C | 39.6% | 17.5°C | 6976ft (2126m) | 13.35v | 31 |
| 5539 | 14 Apr 12:18:52 | 5 | 6.9 mph | 12 | S (188°) | 99655 | 101805 | 33.1°C | 39.9% | 17.6°C | 6927ft (2111m) | 13.38v | 31 |
| 5538 | 14 Apr 12:18:40 | 5 | 7.1 mph | 11 | SSW (199°) | 99656 | 101806 | 33.1°C | 39.9% | 17.6°C | 6927ft (2111m) | 13.33v | 31 |
| 5537 | 14 Apr 12:18:29 | 4 | 4 mph | 8 | SSW (202°) | 99660 | 101810 | 33.1°C | 39.6% | 17.5°C | 6976ft (2126m) | 13.41v | 31 |
| 5536 | 14 Apr 12:18:18 | 9 | 10.7 mph | 13 | SSW (208°) | 99653 | 101803 | 33.2°C | 39.6% | 17.6°C | 6981ft (2128m) | 13.38v | 31 |
| 5535 | 14 Apr 12:18:07 | 10 | 10.7 mph | 13 | SSW (195°) | 99656 | 101806 | 33.1°C | 39.7% | 17.6°C | 6960ft (2121m) | 13.33v | 31 |
| 5534 | 14 Apr 12:17:55 | 8 | 8.7 mph | 10 | SW (217°) | 99663 | 101813 | 33.1°C | 40.1% | 17.7°C | 6894ft (2101m) | 13.38v | 31 |
| 5533 | 14 Apr 12:17:44 | 9 | 10.9 mph | 12 | SSW (193°) | 99654 | 101804 | 33.1°C | 40.3% | 17.8°C | 6862ft (2092m) | 13.32v | 31 |
| 5532 | 14 Apr 12:17:33 | 7 | 9 mph | 11 | S (178°) | 99658 | 101808 | 33.1°C | 40.3% | 17.8°C | 6862ft (2092m) | 13.36v | 31 |
| 5531 | 14 Apr 12:17:22 | 7 | 7.5 mph | 10 | SSW (204°) | 99661 | 101811 | 33.1°C | 40.1% | 17.7°C | 6894ft (2101m) | 13.37v | 31 |
| 5530 | 14 Apr 12:17:10 | 9 | 9.2 mph | 11 | S (189°) | 99660 | 101810 | 33°C | 40.2% | 17.7°C | 6874ft (2095m) | 13.37v | 31 |
| 5529 | 14 Apr 12:16:59 | 6 | 7.3 mph | 10 | SSW (201°) | 99653 | 101803 | 33°C | 40.5% | 17.8°C | 6825ft (2080m) | 13.43v | 31 |
| 5528 | 14 Apr 12:16:48 | 5 | 6.3 mph | 9 | S (187°) | 99661 | 101811 | 33°C | 40.6% | 17.8°C | 6809ft (2075m) | 13.37v | 31 |
| 5527 | 14 Apr 12:16:37 | 7 | 7.5 mph | 10 | S (179°) | 99660 | 101810 | 33°C | 40.5% | 17.8°C | 6825ft (2080m) | 13.35v | 31 |
| 5526 | 14 Apr 12:16:25 | 7 | 7.7 mph | 9 | SSW (205°) | 99664 | 101814 | 32.9°C | 40.4% | 17.7°C | 6837ft (2084m) | 13.36v | 31 |
| 5525 | 14 Apr 12:16:14 | 9 | 10.6 mph | 13 | S (189°) | 99659 | 101809 | 32.9°C | 40.4% | 17.7°C | 6837ft (2084m) | 13.34v | 31 |
| 5524 | 14 Apr 12:16:03 | 8 | 8.5 mph | 9 | SSE (168°) | 99659 | 101809 | 32.9°C | 40.3% | 17.6°C | 6853ft (2089m) | 13.37v | 31 |
| 5523 | 14 Apr 12:15:52 | 9 | 10.5 mph | 13 | SSW (202°) | 99659 | 101809 | 32.9°C | 39.9% | 17.5°C | 6918ft (2109m) | 13.35v | 31 |
| 5522 | 14 Apr 12:15:40 | 10 | 13.4 mph | 17 | S (188°) | 99663 | 101813 | 32.9°C | 39.7% | 17.4°C | 6950ft (2118m) | 13.36v | 31 |
| 5521 | 14 Apr 12:15:29 | 11 | 12.8 mph | 15 | SSW (192°) | 99644 | 101793 | 32.9°C | 40% | 17.5°C | 6902ft (2104m) | 13.48v | 31 |
| 5520 | 14 Apr 12:15:18 | 11 | 12.3 mph | 14 | SSW (198°) | 99661 | 101811 | 32.9°C | 39.9% | 17.5°C | 6918ft (2109m) | 13.33v | 31 |
| 5519 | 14 Apr 12:15:07 | 11 | 13.1 mph | 18 | S (174°) | 99653 | 101803 | 32.9°C | 40.1% | 17.5°C | 6885ft (2099m) | 13.37v | 31 |
| 5518 | 14 Apr 12:14:55 | 9 | 9.9 mph | 11 | S (177°) | 99663 | 101813 | 32.8°C | 40.4% | 17.6°C | 6832ft (2082m) | 13.34v | 31 |
| 5517 | 14 Apr 12:14:44 | 7 | 9.2 mph | 12 | SSW (193°) | 99663 | 101813 | 32.8°C | 40.6% | 17.7°C | 6800ft (2073m) | 13.38v | 31 |
| 5516 | 14 Apr 12:14:33 | 9 | 9.5 mph | 10 | SSW (193°) | 99664 | 101814 | 32.8°C | 40.5% | 17.6°C | 6816ft (2078m) | 13.37v | 31 |
| 5515 | 14 Apr 12:14:22 | 5 | 6.7 mph | 8 | S (188°) | 99665 | 101815 | 32.8°C | 40.4% | 17.6°C | 6832ft (2082m) | 13.41v | 31 |
| 5514 | 14 Apr 12:14:10 | 6 | 7.5 mph | 9 | S (173°) | 99668 | 101818 | 32.8°C | 40% | 17.4°C | 6897ft (2102m) | 13.38v | 31 |
| 5513 | 14 Apr 12:13:59 | 7 | 9.6 mph | 11 | SSW (197°) | 99668 | 101818 | 32.9°C | 39.8% | 17.4°C | 6934ft (2113m) | 13.35v | 31 |
| 5512 | 14 Apr 12:13:48 | 6 | 7.1 mph | 9 | SSW (201°) | 99671 | 101821 | 32.9°C | 39.7% | 17.4°C | 6950ft (2118m) | 13.41v | 31 |
| 5511 | 14 Apr 12:13:37 | 9 | 10.3 mph | 12 | SSW (202°) | 99666 | 101816 | 32.9°C | 39.7% | 17.4°C | 6950ft (2118m) | 13.33v | 31 |
| 5510 | 14 Apr 12:13:25 | 11 | 12.1 mph | 15 | SSW (199°) | 99666 | 101816 | 32.8°C | 39.6% | 17.3°C | 6962ft (2122m) | 13.38v | 31 |
| 5509 | 14 Apr 12:13:14 | 7 | 8.7 mph | 12 | SSW (205°) | 99664 | 101814 | 32.8°C | 40% | 17.4°C | 6897ft (2102m) | 13.37v | 31 |
| 5508 | 14 Apr 12:13:03 | 12 | 13.1 mph | 16 | S (181°) | 99666 | 101816 | 32.9°C | 39.8% | 17.4°C | 6934ft (2113m) | 13.35v | 31 |
| 5507 | 14 Apr 12:12:52 | 10 | 11.3 mph | 13 | SSW (197°) | 99666 | 101816 | 32.9°C | 39.8% | 17.4°C | 6934ft (2113m) | 13.38v | 31 |
| 5506 | 14 Apr 12:12:40 | 8 | 9.3 mph | 11 | SSW (196°) | 99670 | 101820 | 32.9°C | 39.7% | 17.4°C | 6950ft (2118m) | 13.4v | 31 |
| 5505 | 14 Apr 12:12:29 | 9 | 10.3 mph | 12 | SSW (201°) | 99671 | 101821 | 32.9°C | 39.4% | 17.3°C | 7000ft (2134m) | 13.37v | 31 |
| 5504 | 14 Apr 12:12:18 | 8 | 10.9 mph | 14 | SSW (207°) | 99672 | 101822 | 32.8°C | 39.3% | 17.1°C | 7012ft (2137m) | 13.35v | 31 |
| 5503 | 14 Apr 12:12:06 | 7 | 9.4 mph | 12 | SSW (202°) | 99672 | 101822 | 32.8°C | 39.5% | 17.2°C | 6979ft (2127m) | 13.37v | 31 |
| 5502 | 14 Apr 12:11:55 | 8 | 9.3 mph | 12 | SSW (203°) | 99673 | 101823 | 32.8°C | 39.5% | 17.2°C | 6979ft (2127m) | 13.37v | 31 |
| 5501 | 14 Apr 12:11:44 | 12 | 12.5 mph | 14 | SSW (199°) | 99673 | 101823 | 32.8°C | 39.2% | 17.1°C | 7028ft (2142m) | 13.37v | 31 |
| 5500 | 14 Apr 12:11:32 | 12 | 13.6 mph | 17 | S (187°) | 99679 | 101829 | 32.9°C | 39.2% | 17.2°C | 7033ft (2144m) | 13.33v | 31 |
| 5499 | 14 Apr 12:11:21 | 13 | 13.9 mph | 16 | SSW (202°) | 99674 | 101824 | 32.9°C | 39.6% | 17.3°C | 6967ft (2124m) | 13.39v | 31 |
| 5498 | 14 Apr 12:11:10 | 10 | 12.1 mph | 14 | SSW (209°) | 99681 | 101831 | 32.9°C | 39.7% | 17.4°C | 6950ft (2118m) | 13.36v | 31 |
| 5497 | 14 Apr 12:10:59 | 12 | 13.4 mph | 17 | SSW (196°) | 99670 | 101820 | 32.9°C | 40.2% | 17.6°C | 6869ft (2094m) | 13.37v | 31 |
| 5496 | 14 Apr 12:10:47 | 8 | 10.4 mph | 14 | SSW (203°) | 99674 | 101824 | 32.9°C | 40.3% | 17.6°C | 6853ft (2089m) | 13.37v | 31 |
| 5495 | 14 Apr 12:10:36 | 6 | 8.8 mph | 11 | SSW (196°) | 99671 | 101821 | 32.9°C | 40.1% | 17.5°C | 6885ft (2099m) | 13.34v | 31 |
| 5494 | 14 Apr 12:10:25 | 12 | 13.5 mph | 16 | SSW (202°) | 99670 | 101820 | 32.9°C | 39.9% | 17.5°C | 6918ft (2109m) | 13.36v | 31 |
| 5493 | 14 Apr 12:10:14 | 10 | 12.9 mph | 19 | SSW (207°) | 99667 | 101817 | 32.9°C | 40.3% | 17.6°C | 6853ft (2089m) | 13.38v | 31 |
| 5492 | 14 Apr 12:10:02 | 11 | 13.2 mph | 16 | SSW (194°) | 99671 | 101821 | 32.9°C | 40.2% | 17.6°C | 6869ft (2094m) | 13.32v | 31 |
| 5491 | 14 Apr 12:09:51 | 8 | 11.1 mph | 14 | SSW (204°) | 99672 | 101822 | 32.8°C | 40.1% | 17.5°C | 6881ft (2097m) | 13.36v | 31 |
| 5490 | 14 Apr 12:09:40 | 7 | 8.8 mph | 11 | S (191°) | 99674 | 101824 | 32.8°C | 40.1% | 17.5°C | 6881ft (2097m) | 13.39v | 31 |
| 5489 | 14 Apr 12:09:29 | 10 | 12.6 mph | 17 | SSW (195°) | 99677 | 101827 | 32.8°C | 40.1% | 17.5°C | 6881ft (2097m) | 13.37v | 31 |
| 5488 | 14 Apr 12:09:18 | 8 | 9.5 mph | 11 | SSW (202°) | 99680 | 101830 | 32.9°C | 39.9% | 17.5°C | 6918ft (2109m) | 13.35v | 31 |
| 5487 | 14 Apr 12:09:07 | 8 | 9.6 mph | 12 | S (189°) | 99681 | 101831 | 32.9°C | 39.7% | 17.4°C | 6950ft (2118m) | 13.37v | 31 |
| 5486 | 14 Apr 12:08:55 | 11 | 14.9 mph | 19 | S (190°) | 99683 | 101833 | 32.9°C | 39.8% | 17.4°C | 6934ft (2113m) | 13.36v | 31 |
| 5485 | 14 Apr 12:08:44 | 10 | 12.6 mph | 17 | S (184°) | 99675 | 101825 | 32.9°C | 39.8% | 17.4°C | 6934ft (2113m) | 13.35v | 31 |
| 5484 | 14 Apr 12:08:33 | 8 | 10.5 mph | 13 | SSW (200°) | 99683 | 101833 | 32.9°C | 39.6% | 17.3°C | 6967ft (2124m) | 13.37v | 31 |
| 5483 | 14 Apr 12:08:22 | 9 | 11 mph | 13 | S (189°) | 99681 | 101831 | 32.9°C | 39.4% | 17.3°C | 7000ft (2134m) | 13.37v | 31 |
| 5482 | 14 Apr 12:08:10 | 9 | 9.9 mph | 12 | SSW (204°) | 99681 | 101831 | 33°C | 39.4% | 17.4°C | 7004ft (2135m) | 13.35v | 31 |
| 5481 | 14 Apr 12:07:59 | 13 | 15.1 mph | 18 | S (190°) | 99675 | 101825 | 33°C | 39.3% | 17.3°C | 7021ft (2140m) | 13.35v | 31 |
| 5480 | 14 Apr 12:07:48 | 8 | 9.4 mph | 12 | SSW (193°) | 99683 | 101833 | 33°C | 39.5% | 17.4°C | 6988ft (2130m) | 13.37v | 31 |
| 5479 | 14 Apr 12:07:37 | 6 | 8 mph | 11 | S (177°) | 99680 | 101830 | 33°C | 39.4% | 17.4°C | 7004ft (2135m) | 13.35v | 31 |
| 5478 | 14 Apr 12:07:25 | 7 | 8.6 mph | 10 | SSW (202°) | 99689 | 101839 | 33°C | 39.2% | 17.3°C | 7037ft (2145m) | 13.39v | 31 |
| 5477 | 14 Apr 12:07:14 | 10 | 12.2 mph | 14 | SSW (202°) | 99678 | 101828 | 33°C | 39.1% | 17.2°C | 7054ft (2150m) | 13.36v | 31 |
| 5476 | 14 Apr 12:07:03 | 8 | 12.4 mph | 15 | S (176°) | 99681 | 101831 | 33°C | 39.3% | 17.3°C | 7021ft (2140m) | 13.37v | 31 |
| 5475 | 14 Apr 12:06:52 | 7 | 9.6 mph | 13 | SSW (199°) | 99689 | 101839 | 33°C | 39.2% | 17.3°C | 7037ft (2145m) | 13.37v | 31 |
| 5474 | 14 Apr 12:06:40 | 10 | 11.4 mph | 14 | S (186°) | 99681 | 101831 | 33.1°C | 39% | 17.3°C | 7075ft (2156m) | 13.35v | 31 |
| 5473 | 14 Apr 12:06:29 | 11 | 11.9 mph | 14 | S (177°) | 99682 | 101832 | 33.1°C | 39.1% | 17.3°C | 7058ft (2151m) | 13.37v | 31 |
| 5472 | 14 Apr 12:06:18 | 11 | 13 mph | 15 | S (182°) | 99675 | 101825 | 33.1°C | 39% | 17.3°C | 7075ft (2156m) | 13.39v | 31 |
| 5471 | 14 Apr 12:06:07 | 10 | 11.3 mph | 13 | SSE (164°) | 99680 | 101830 | 33.1°C | 39.1% | 17.3°C | 7058ft (2151m) | 13.37v | 31 |
| 5470 | 14 Apr 12:05:55 | 10 | 11.4 mph | 14 | S (173°) | 99687 | 101837 | 33.2°C | 39% | 17.4°C | 7080ft (2158m) | 13.33v | 31 |
| 5469 | 14 Apr 12:05:44 | 7 | 8 mph | 10 | S (185°) | 99684 | 101834 | 33.2°C | 39% | 17.4°C | 7080ft (2158m) | 13.36v | 31 |
| 5468 | 14 Apr 12:05:33 | 9 | 10.4 mph | 13 | S (184°) | 99685 | 101835 | 33.2°C | 38.6% | 17.2°C | 7147ft (2178m) | 13.38v | 31 |
| 5467 | 14 Apr 12:05:22 | 9 | 10.6 mph | 13 | SSW (194°) | 99678 | 101828 | 33.2°C | 38.4% | 17.1°C | 7180ft (2188m) | 13.38v | 31 |
| 5466 | 14 Apr 12:05:10 | 12 | 12.7 mph | 15 | S (190°) | 99681 | 101831 | 33.3°C | 38.4% | 17.2°C | 7185ft (2190m) | 13.33v | 31 |
| 5465 | 14 Apr 12:04:59 | 7 | 10.3 mph | 13 | S (172°) | 99690 | 101840 | 33.3°C | 38.7% | 17.3°C | 7135ft (2175m) | 13.38v | 31 |
| 5464 | 14 Apr 12:04:48 | 13 | 14.5 mph | 16 | S (183°) | 99687 | 101837 | 33.3°C | 38.8% | 17.4°C | 7118ft (2170m) | 13.33v | 31 |
| 5463 | 14 Apr 12:04:37 | 8 | 10.6 mph | 13 | S (185°) | 99685 | 101835 | 33.3°C | 38.9% | 17.4°C | 7101ft (2164m) | 13.38v | 31 |
| 5462 | 14 Apr 12:04:25 | 7 | 7.6 mph | 10 | SSW (193°) | 99694 | 101844 | 33.3°C | 38.9% | 17.4°C | 7101ft (2164m) | 13.34v | 31 |
| 5461 | 14 Apr 12:04:14 | 10 | 10.6 mph | 12 | S (174°) | 99690 | 101840 | 33.3°C | 38.8% | 17.4°C | 7118ft (2170m) | 13.36v | 31 |
| 5460 | 14 Apr 12:04:03 | 7 | 10.1 mph | 14 | S (170°) | 99690 | 101840 | 33.4°C | 39% | 17.5°C | 7089ft (2161m) | 13.35v | 31 |
| 5459 | 14 Apr 12:03:52 | 6 | 7 mph | 9 | SSW (211°) | 99693 | 101843 | 33.4°C | 38.8% | 17.5°C | 7122ft (2171m) | 13.35v | 31 |
| 5458 | 14 Apr 12:03:40 | 5 | 6.1 mph | 9 | S (187°) | 99690 | 101840 | 33.4°C | 38.6% | 17.4°C | 7156ft (2181m) | 13.35v | 31 |
| 5457 | 14 Apr 12:03:29 | 5 | 7 mph | 11 | S (189°) | 99693 | 101843 | 33.4°C | 38.4% | 17.3°C | 7190ft (2192m) | 13.35v | 31 |
| 5456 | 14 Apr 12:03:18 | 8 | 9.9 mph | 13 | SSW (195°) | 99682 | 101832 | 33.5°C | 38% | 17.2°C | 7262ft (2213m) | 13.34v | 31 |
| 5455 | 14 Apr 12:03:07 | 10 | 10.2 mph | 12 | SSW (197°) | 99684 | 101834 | 33.5°C | 38.1% | 17.3°C | 7245ft (2208m) | 13.33v | 31 |
| 5454 | 14 Apr 12:02:55 | 7 | 8 mph | 10 | SSW (210°) | 99689 | 101839 | 33.5°C | 38% | 17.2°C | 7262ft (2213m) | 13.33v | 31 |
| 5453 | 14 Apr 12:02:44 | 10 | 9.8 mph | 11 | SSW (200°) | 99685 | 101835 | 33.5°C | 37.9% | 17.2°C | 7279ft (2219m) | 13.32v | 31 |
| 5452 | 14 Apr 12:02:33 | 8 | 8.4 mph | 10 | SSW (194°) | 99687 | 101837 | 33.5°C | 38% | 17.2°C | 7262ft (2213m) | 13.32v | 31 |
| 5451 | 14 Apr 12:02:22 | 8 | 8.5 mph | 11 | S (183°) | 99692 | 101842 | 33.6°C | 37.8% | 17.2°C | 7301ft (2225m) | 13.32v | 31 |
| 5450 | 14 Apr 12:02:10 | 10 | 11.1 mph | 13 | S (174°) | 99686 | 101836 | 33.6°C | 38.2% | 17.4°C | 7233ft (2205m) | 13.35v | 31 |
| 5449 | 14 Apr 12:01:59 | 9 | 10.4 mph | 13 | S (172°) | 99687 | 101837 | 33.6°C | 37.9% | 17.3°C | 7284ft (2220m) | 13.34v | 31 |
| 5448 | 14 Apr 12:01:48 | 6 | 6.8 mph | 9 | S (180°) | 99697 | 101847 | 33.6°C | 37.8% | 17.2°C | 7301ft (2225m) | 13.32v | 31 |
| 5447 | 14 Apr 12:01:37 | 10 | 11.3 mph | 14 | S (187°) | 99696 | 101846 | 33.7°C | 37.5% | 17.2°C | 7358ft (2243m) | 13.34v | 31 |
| 5446 | 14 Apr 12:01:25 | 9 | 10.6 mph | 13 | S (189°) | 99689 | 101839 | 33.7°C | 37.6% | 17.2°C | 7341ft (2238m) | 13.33v | 31 |
| 5445 | 14 Apr 12:01:14 | 7 | 9 mph | 13 | SSW (192°) | 99686 | 101836 | 33.7°C | 37.6% | 17.2°C | 7341ft (2238m) | 13.34v | 31 |
| 5444 | 14 Apr 12:01:03 | 7 | 9.8 mph | 15 | S (180°) | 99680 | 101830 | 33.7°C | 37.6% | 17.2°C | 7341ft (2238m) | 13.32v | 31 |
| 5443 | 14 Apr 12:00:52 | 7 | 9.5 mph | 13 | SSW (194°) | 99687 | 101837 | 33.7°C | 37.6% | 17.2°C | 7341ft (2238m) | 13.33v | 31 |
| 5442 | 14 Apr 12:00:40 | 7 | 7.3 mph | 10 | S (183°) | 99695 | 101845 | 33.8°C | 37.6% | 17.3°C | 7345ft (2239m) | 13.32v | 31 |
| 5441 | 14 Apr 12:00:29 | 7 | 7.6 mph | 10 | S (174°) | 99693 | 101843 | 33.8°C | 37.4% | 17.2°C | 7380ft (2249m) | 13.35v | 31 |
| 5440 | 14 Apr 12:00:18 | 10 | 12 mph | 15 | SSW (192°) | 99700 | 101851 | 33.8°C | 37.2% | 17.2°C | 7415ft (2260m) | 13.33v | 31 |
| 5439 | 14 Apr 12:00:07 | 12 | 15.2 mph | 18 | S (175°) | 99701 | 101852 | 33.8°C | 37.3% | 17.2°C | 7397ft (2255m) | 13.33v | 31 |
| 5438 | 14 Apr 11:59:55 | 10 | 12.9 mph | 15 | S (184°) | 99690 | 101840 | 33.8°C | 37.6% | 17.3°C | 7345ft (2239m) | 13.35v | 31 |
| 5437 | 14 Apr 11:59:44 | 7 | 8.5 mph | 11 | S (172°) | 99689 | 101839 | 33.9°C | 37.4% | 17.3°C | 7385ft (2251m) | 13.34v | 31 |
| 5436 | 14 Apr 11:59:33 | 11 | 13.8 mph | 16 | SSE (168°) | 99692 | 101842 | 33.9°C | 37.3% | 17.3°C | 7402ft (2256m) | 13.34v | 31 |
| 5435 | 14 Apr 11:59:22 | 12 | 15.6 mph | 21 | SSE (166°) | 99692 | 101842 | 33.9°C | 37.3% | 17.3°C | 7402ft (2256m) | 13.33v | 31 |
| 5434 | 14 Apr 11:59:10 | 11 | 13 mph | 18 | S (188°) | 99688 | 101838 | 34°C | 37.6% | 17.5°C | 7355ft (2242m) | 13.34v | 31 |
| 5433 | 14 Apr 11:58:59 | 10 | 11.5 mph | 14 | S (190°) | 99681 | 101831 | 34°C | 37.6% | 17.5°C | 7355ft (2242m) | 13.34v | 31 |
| 5432 | 14 Apr 11:58:48 | 13 | 13.8 mph | 15 | S (188°) | 99699 | 101850 | 34°C | 37.8% | 17.6°C | 7321ft (2231m) | 13.34v | 31 |
| 5431 | 14 Apr 11:58:37 | 5 | 8.5 mph | 13 | S (171°) | 99701 | 101852 | 34°C | 37.8% | 17.6°C | 7321ft (2231m) | 13.32v | 31 |
| 5430 | 14 Apr 11:58:25 | 7 | 10 mph | 16 | S (169°) | 99698 | 101849 | 34°C | 37.9% | 17.6°C | 7303ft (2226m) | 13.38v | 31 |
| 5429 | 14 Apr 11:58:14 | 6 | 7.9 mph | 12 | S (174°) | 99692 | 101842 | 34°C | 38.3% | 17.8°C | 7235ft (2205m) | 13.34v | 31 |
| 5428 | 14 Apr 11:58:03 | 4 | 5.6 mph | 9 | S (188°) | 99704 | 101855 | 33.9°C | 38.4% | 17.7°C | 7213ft (2199m) | 13.32v | 31 |
| 5427 | 14 Apr 11:57:52 | 4 | 5.3 mph | 6 | SSW (204°) | 99704 | 101855 | 33.9°C | 38.1% | 17.6°C | 7264ft (2214m) | 13.33v | 31 |
| 5426 | 14 Apr 11:57:40 | 4 | 5.6 mph | 8 | SSW (193°) | 99698 | 101849 | 33.9°C | 37.8% | 17.5°C | 7316ft (2230m) | 13.33v | 31 |
| 5425 | 14 Apr 11:57:29 | 7 | 8.6 mph | 11 | SSW (199°) | 99699 | 101850 | 33.9°C | 37.6% | 17.4°C | 7350ft (2240m) | 13.33v | 31 |
| 5424 | 14 Apr 11:57:18 | 9 | 9.3 mph | 11 | S (188°) | 99696 | 101846 | 33.9°C | 37.7% | 17.5°C | 7333ft (2235m) | 13.34v | 31 |
| 5423 | 14 Apr 11:57:07 | 5 | 6.3 mph | 9 | S (189°) | 99702 | 101853 | 33.9°C | 37.7% | 17.5°C | 7333ft (2235m) | 13.35v | 31 |
| 5422 | 14 Apr 11:56:55 | 8 | 8.9 mph | 11 | S (187°) | 99701 | 101852 | 33.9°C | 37.6% | 17.4°C | 7350ft (2240m) | 13.33v | 31 |
| 5421 | 14 Apr 11:56:44 | 7 | 7.3 mph | 9 | S (175°) | 99704 | 101855 | 33.9°C | 37.2% | 17.2°C | 7420ft (2262m) | 13.33v | 31 |
| 5420 | 14 Apr 11:56:33 | 11 | 12.1 mph | 14 | SSW (193°) | 99693 | 101843 | 34°C | 36.9% | 17.2°C | 7477ft (2279m) | 13.33v | 31 |
| 5419 | 14 Apr 11:56:22 | 8 | 11.7 mph | 14 | SSW (201°) | 99697 | 101847 | 34°C | 37% | 17.2°C | 7459ft (2274m) | 13.34v | 31 |
| 5418 | 14 Apr 11:56:10 | 10 | 11.8 mph | 14 | SSW (201°) | 99696 | 101846 | 34°C | 37.1% | 17.3°C | 7442ft (2268m) | 13.32v | 31 |
| 5417 | 14 Apr 11:55:59 | 10 | 11.5 mph | 13 | S (191°) | 99698 | 101849 | 34°C | 37.3% | 17.4°C | 7407ft (2258m) | 13.33v | 31 |
| 5416 | 14 Apr 11:55:48 | 13 | 13.6 mph | 15 | S (187°) | 99695 | 101845 | 34°C | 37.2% | 17.3°C | 7424ft (2263m) | 13.33v | 31 |
| 5415 | 14 Apr 11:55:37 | 7 | 8.6 mph | 11 | S (186°) | 99687 | 101837 | 34°C | 37.3% | 17.4°C | 7407ft (2258m) | 13.34v | 31 |
| 5414 | 14 Apr 11:55:25 | 8 | 9.4 mph | 12 | S (175°) | 99697 | 101847 | 34°C | 37% | 17.2°C | 7459ft (2274m) | 13.42v | 31 |
| 5413 | 14 Apr 11:55:14 | 12 | 13.6 mph | 15 | S (191°) | 99702 | 101853 | 34°C | 36.8% | 17.2°C | 7495ft (2284m) | 13.34v | 31 |
| 5412 | 14 Apr 11:55:03 | 14 | 15.1 mph | 17 | S (189°) | 99695 | 101845 | 34°C | 36.6% | 17.1°C | 7530ft (2295m) | 13.32v | 31 |
| 5411 | 14 Apr 11:54:52 | 13 | 14.4 mph | 16 | SSW (194°) | 99691 | 101841 | 34.1°C | 36.5% | 17.1°C | 7553ft (2302m) | 13.33v | 31 |
| 5410 | 14 Apr 11:54:40 | 15 | 15.8 mph | 17 | S (185°) | 99692 | 101842 | 34.1°C | 36.4% | 17.1°C | 7570ft (2307m) | 13.4v | 31 |
| 5409 | 14 Apr 11:54:29 | 14 | 14.8 mph | 16 | SSW (201°) | 99698 | 101849 | 34.1°C | 36.5% | 17.1°C | 7553ft (2302m) | 13.35v | 31 |
| 5408 | 14 Apr 11:54:18 | 11 | 13.3 mph | 15 | S (187°) | 99694 | 101844 | 34.1°C | 36.6% | 17.2°C | 7535ft (2297m) | 13.35v | 31 |
| 5407 | 14 Apr 11:54:07 | 10 | 10.8 mph | 13 | SSW (197°) | 99695 | 101845 | 34.1°C | 36.8% | 17.2°C | 7499ft (2286m) | 13.34v | 31 |
| 5406 | 14 Apr 11:53:55 | 10 | 12.4 mph | 16 | S (187°) | 99693 | 101843 | 34.1°C | 36.9% | 17.3°C | 7482ft (2281m) | 13.34v | 31 |
| 5405 | 14 Apr 11:53:44 | 13 | 14.8 mph | 18 | S (183°) | 99686 | 101836 | 34.1°C | 37.1% | 17.4°C | 7447ft (2270m) | 13.33v | 31 |
| 5404 | 14 Apr 11:53:33 | 13 | 14 mph | 15 | S (176°) | 99691 | 101841 | 34.1°C | 37.2% | 17.4°C | 7429ft (2264m) | 13.33v | 31 |
| 5403 | 14 Apr 11:53:22 | 7 | 12.8 mph | 17 | S (179°) | 99698 | 101849 | 34.1°C | 37.3% | 17.5°C | 7412ft (2259m) | 13.33v | 31 |
| 5402 | 14 Apr 11:53:10 | 5 | 7.7 mph | 11 | SSE (168°) | 99695 | 101845 | 34.1°C | 37.2% | 17.4°C | 7429ft (2264m) | 13.41v | 31 |
| 5401 | 14 Apr 11:52:59 | 6 | 8.8 mph | 11 | S (181°) | 99699 | 101850 | 34.1°C | 36.7% | 17.2°C | 7517ft (2291m) | 13.33v | 31 |
| 5400 | 14 Apr 11:52:48 | 10 | 10.8 mph | 12 | S (184°) | 99699 | 101850 | 34.1°C | 36.7% | 17.2°C | 7517ft (2291m) | 13.34v | 31 |
| 5399 | 14 Apr 11:52:37 | 11 | 14.5 mph | 17 | S (187°) | 99696 | 101846 | 34.1°C | 36.5% | 17.1°C | 7553ft (2302m) | 13.33v | 31 |
| 5398 | 14 Apr 11:52:25 | 10 | 14.2 mph | 18 | S (191°) | 99694 | 101844 | 34.1°C | 36.8% | 17.2°C | 7499ft (2286m) | 13.34v | 31 |
| 5397 | 14 Apr 11:52:14 | 8 | 8.9 mph | 11 | S (185°) | 99704 | 101855 | 34.1°C | 36.9% | 17.3°C | 7482ft (2281m) | 13.33v | 31 |
| 5396 | 14 Apr 11:52:03 | 9 | 10.1 mph | 12 | S (174°) | 99702 | 101853 | 34.1°C | 36.6% | 17.2°C | 7535ft (2297m) | 13.33v | 31 |
| 5395 | 14 Apr 11:51:52 | 10 | 13.7 mph | 19 | S (176°) | 99701 | 101852 | 34.2°C | 36.4% | 17.2°C | 7575ft (2309m) | 13.33v | 31 |
| 5394 | 14 Apr 11:51:40 | 15 | 17.3 mph | 21 | S (189°) | 99694 | 101844 | 34.2°C | 36.6% | 17.2°C | 7540ft (2298m) | 13.34v | 31 |
| 5393 | 14 Apr 11:51:29 | 12 | 14.2 mph | 17 | S (185°) | 99686 | 101836 | 34.2°C | 36.8% | 17.3°C | 7504ft (2287m) | 13.33v | 31 |
| 5392 | 14 Apr 11:51:18 | 6 | 10.6 mph | 16 | S (186°) | 99700 | 101851 | 34.3°C | 36.9% | 17.5°C | 7492ft (2284m) | 13.34v | 31 |
| 5391 | 14 Apr 11:51:07 | 10 | 15 mph | 19 | SSW (203°) | 99701 | 101852 | 34.3°C | 36.6% | 17.3°C | 7545ft (2300m) | 13.44v | 31 |
| 5390 | 14 Apr 11:50:55 | 12 | 14.1 mph | 16 | S (181°) | 99701 | 101852 | 34.3°C | 36.7% | 17.4°C | 7527ft (2294m) | 13.34v | 31 |
| 5389 | 14 Apr 11:50:44 | 7 | 7.9 mph | 11 | S (191°) | 99704 | 101855 | 34.3°C | 37% | 17.5°C | 7474ft (2278m) | 13.34v | 31 |
| 5388 | 14 Apr 11:50:33 | 7 | 8.7 mph | 10 | S (187°) | 99702 | 101853 | 34.3°C | 36.7% | 17.4°C | 7527ft (2294m) | 13.34v | 31 |
| 5387 | 14 Apr 11:50:22 | 10 | 10.8 mph | 13 | SSE (166°) | 99705 | 101856 | 34.3°C | 36.7% | 17.4°C | 7527ft (2294m) | 13.32v | 31 |
| 5386 | 14 Apr 11:50:10 | 13 | 14.5 mph | 17 | S (178°) | 99708 | 101859 | 34.3°C | 36.8% | 17.4°C | 7509ft (2289m) | 13.33v | 31 |
| 5385 | 14 Apr 11:49:59 | 10 | 11.2 mph | 14 | S (170°) | 99693 | 101843 | 34.3°C | 36.9% | 17.5°C | 7492ft (2284m) | 13.34v | 31 |
| 5384 | 14 Apr 11:49:48 | 9 | 13 mph | 15 | S (178°) | 99698 | 101849 | 34.3°C | 36.6% | 17.3°C | 7545ft (2300m) | 13.34v | 31 |
| 5383 | 14 Apr 11:49:37 | 9 | 10.2 mph | 12 | S (172°) | 99707 | 101858 | 34.4°C | 36.3% | 17.3°C | 7603ft (2317m) | 13.33v | 31 |
| 5382 | 14 Apr 11:49:25 | 7 | 9.6 mph | 12 | S (185°) | 99703 | 101854 | 34.3°C | 36.3% | 17.2°C | 7598ft (2316m) | 13.33v | 31 |
| 5381 | 14 Apr 11:49:14 | 8 | 10.4 mph | 14 | S (187°) | 99705 | 101856 | 34.4°C | 36% | 17.2°C | 7657ft (2334m) | 13.32v | 31 |
| 5380 | 14 Apr 11:49:03 | 15 | 17.1 mph | 19 | S (189°) | 99700 | 101851 | 34.4°C | 36.2% | 17.3°C | 7621ft (2323m) | 13.33v | 31 |
| 5379 | 14 Apr 11:48:52 | 10 | 11.6 mph | 15 | S (183°) | 99707 | 101858 | 34.3°C | 36.4% | 17.3°C | 7580ft (2310m) | 13.32v | 31 |
| 5378 | 14 Apr 11:48:40 | 12 | 13 mph | 15 | S (177°) | 99699 | 101850 | 34.4°C | 36.2% | 17.3°C | 7621ft (2323m) | 13.32v | 31 |
| 5377 | 14 Apr 11:48:29 | 9 | 10.7 mph | 12 | S (184°) | 99711 | 101862 | 34.4°C | 35.9% | 17.1°C | 7675ft (2339m) | 13.33v | 31 |
| 5376 | 14 Apr 11:48:18 | 12 | 13.1 mph | 14 | S (187°) | 99711 | 101862 | 34.4°C | 36% | 17.2°C | 7657ft (2334m) | 13.42v | 31 |
| 5375 | 14 Apr 11:48:07 | 10 | 11.3 mph | 14 | SSE (168°) | 99705 | 101856 | 34.5°C | 36.3% | 17.4°C | 7608ft (2319m) | 13.34v | 31 |
| 5374 | 14 Apr 11:47:55 | 12 | 13.5 mph | 15 | S (181°) | 99707 | 101858 | 34.5°C | 36.4% | 17.4°C | 7590ft (2313m) | 13.33v | 31 |
| 5373 | 14 Apr 11:47:44 | 12 | 14.4 mph | 17 | S (181°) | 99701 | 101852 | 34.5°C | 36.7% | 17.6°C | 7537ft (2297m) | 13.34v | 31 |
| 5372 | 14 Apr 11:47:33 | 13 | 14.4 mph | 17 | S (182°) | 99698 | 101849 | 34.5°C | 36.7% | 17.6°C | 7537ft (2297m) | 13.35v | 31 |
| 5371 | 14 Apr 11:47:22 | 12 | 14.7 mph | 17 | S (177°) | 99708 | 101859 | 34.6°C | 36.7% | 17.6°C | 7542ft (2299m) | 13.32v | 31 |
| 5370 | 14 Apr 11:47:10 | 8 | 8.7 mph | 10 | SSW (193°) | 99709 | 101860 | 34.6°C | 37% | 17.8°C | 7489ft (2283m) | 13.33v | 31 |
| 5369 | 14 Apr 11:46:59 | 8 | 9.7 mph | 12 | SSW (192°) | 99714 | 101865 | 34.5°C | 36.8% | 17.6°C | 7519ft (2292m) | 13.34v | 31 |
| 5368 | 14 Apr 11:46:48 | 9 | 9.7 mph | 11 | S (182°) | 99714 | 101865 | 34.5°C | 36.8% | 17.6°C | 7519ft (2292m) | 13.34v | 31 |
| 5367 | 14 Apr 11:46:37 | 11 | 13.2 mph | 15 | S (185°) | 99709 | 101860 | 34.5°C | 37% | 17.7°C | 7484ft (2281m) | 13.35v | 31 |
| 5366 | 14 Apr 11:46:25 | 7 | 8.4 mph | 10 | S (175°) | 99712 | 101863 | 34.6°C | 37.3% | 17.9°C | 7436ft (2266m) | 13.34v | 31 |
| 5365 | 14 Apr 11:46:14 | 8 | 8.5 mph | 10 | S (183°) | 99717 | 101868 | 34.5°C | 37% | 17.7°C | 7484ft (2281m) | 13.33v | 31 |
| 5364 | 14 Apr 11:46:03 | 8 | 9 mph | 12 | S (175°) | 99721 | 101872 | 34.6°C | 37.2% | 17.9°C | 7454ft (2272m) | 13.32v | 31 |
| 5363 | 14 Apr 11:45:52 | 10 | 9.7 mph | 11 | S (186°) | 99721 | 101872 | 34.6°C | 37.1% | 17.8°C | 7471ft (2277m) | 13.33v | 31 |
| 5362 | 14 Apr 11:45:40 | 7 | 7.8 mph | 12 | S (179°) | 99713 | 101864 | 34.6°C | 36.8% | 17.7°C | 7524ft (2293m) | 13.34v | 31 |
| 5361 | 14 Apr 11:45:29 | 7 | 7.9 mph | 9 | SSW (201°) | 99716 | 101867 | 34.6°C | 36.7% | 17.6°C | 7542ft (2299m) | 13.31v | 31 |
| 5360 | 14 Apr 11:45:18 | 6 | 6.9 mph | 11 | S (191°) | 99717 | 101868 | 34.6°C | 36.5% | 17.6°C | 7577ft (2309m) | 13.39v | 31 |
| 5359 | 14 Apr 11:45:07 | 7 | 9.3 mph | 12 | SW (217°) | 99717 | 101868 | 34.6°C | 36.5% | 17.6°C | 7577ft (2309m) | 13.35v | 31 |
| 5358 | 14 Apr 11:44:55 | 7 | 8.3 mph | 10 | SSW (213°) | 99720 | 101871 | 34.6°C | 36.6% | 17.6°C | 7560ft (2304m) | 13.33v | 31 |
| 5357 | 14 Apr 11:44:44 | 11 | 12 mph | 13 | SSW (206°) | 99711 | 101862 | 34.6°C | 36.4% | 17.5°C | 7595ft (2315m) | 13.34v | 31 |
| 5356 | 14 Apr 11:44:33 | 8 | 9.8 mph | 13 | SSW (203°) | 99716 | 101867 | 34.6°C | 37.1% | 17.8°C | 7471ft (2277m) | 13.33v | 31 |
| 5355 | 14 Apr 11:44:22 | 5 | 7.3 mph | 10 | SW (219°) | 99712 | 101863 | 34.6°C | 37.1% | 17.8°C | 7471ft (2277m) | 13.32v | 31 |
| 5354 | 14 Apr 11:44:10 | 6 | 6.9 mph | 8 | SSW (213°) | 99713 | 101864 | 34.6°C | 36.8% | 17.7°C | 7524ft (2293m) | 13.33v | 31 |
| 5353 | 14 Apr 11:43:59 | 7 | 9 mph | 10 | SW (227°) | 99716 | 101867 | 34.6°C | 36.5% | 17.6°C | 7577ft (2309m) | 13.35v | 31 |
| 5352 | 14 Apr 11:43:48 | 11 | 12.1 mph | 13 | SSW (210°) | 99717 | 101868 | 34.6°C | 36.4% | 17.5°C | 7595ft (2315m) | 13.36v | 31 |
| 5351 | 14 Apr 11:43:37 | 10 | 10.8 mph | 13 | S (182°) | 99716 | 101867 | 34.6°C | 36.4% | 17.5°C | 7595ft (2315m) | 13.36v | 31 |
| 5350 | 14 Apr 11:43:25 | 5 | 9 mph | 14 | S (189°) | 99717 | 101868 | 34.6°C | 36.5% | 17.6°C | 7577ft (2309m) | 13.37v | 31 |
| 5349 | 14 Apr 11:43:14 | 8 | 10.4 mph | 14 | S (187°) | 99719 | 101870 | 34.6°C | 36.3% | 17.5°C | 7613ft (2320m) | 13.38v | 31 |
| 5348 | 14 Apr 11:43:03 | 9 | 10.7 mph | 13 | SSW (204°) | 99724 | 101875 | 34.6°C | 36.7% | 17.6°C | 7542ft (2299m) | 13.43v | 31 |
| 5347 | 14 Apr 11:42:52 | 8 | 9.6 mph | 13 | SSW (208°) | 99722 | 101873 | 34.7°C | 36.4% | 17.6°C | 7600ft (2316m) | 13.36v | 31 |
| 5346 | 14 Apr 11:42:40 | 9 | 10 mph | 12 | SSW (195°) | 99722 | 101873 | 34.6°C | 36.4% | 17.5°C | 7595ft (2315m) | 13.35v | 31 |
| 5345 | 14 Apr 11:42:29 | 9 | 12.5 mph | 16 | SSW (195°) | 99719 | 101870 | 34.7°C | 36.2% | 17.5°C | 7636ft (2327m) | 13.35v | 31 |
| 5344 | 14 Apr 11:42:18 | 8 | 8.1 mph | 9 | S (178°) | 99719 | 101870 | 34.7°C | 36.3% | 17.6°C | 7618ft (2322m) | 13.36v | 31 |
| 5343 | 14 Apr 11:42:07 | 9 | 12.6 mph | 16 | SSE (167°) | 99715 | 101866 | 34.7°C | 36.1% | 17.5°C | 7654ft (2333m) | 13.37v | 31 |
| 5342 | 14 Apr 11:41:55 | 12 | 15.8 mph | 19 | S (182°) | 99704 | 101855 | 34.8°C | 36.1% | 17.6°C | 7659ft (2334m) | 13.33v | 31 |
| 5341 | 14 Apr 11:41:44 | 13 | 16.1 mph | 20 | S (177°) | 99718 | 101869 | 34.8°C | 36.1% | 17.6°C | 7659ft (2334m) | 13.38v | 31 |
| 5340 | 14 Apr 11:41:33 | 11 | 13.4 mph | 19 | S (189°) | 99722 | 101873 | 34.8°C | 36.2% | 17.6°C | 7641ft (2329m) | 13.37v | 31 |
| 5339 | 14 Apr 11:41:22 | 7 | 8.4 mph | 11 | S (190°) | 99725 | 101876 | 34.8°C | 36.7% | 17.8°C | 7552ft (2302m) | 13.47v | 31 |
| 5338 | 14 Apr 11:41:10 | 6 | 8 mph | 11 | S (180°) | 99719 | 101870 | 34.9°C | 36.7% | 17.9°C | 7557ft (2303m) | 13.33v | 31 |
| 5337 | 14 Apr 11:40:59 | 11 | 12.3 mph | 14 | S (177°) | 99722 | 101873 | 34.9°C | 36.4% | 17.8°C | 7610ft (2320m) | 13.34v | 31 |
| 5336 | 14 Apr 11:40:48 | 9 | 10.7 mph | 13 | S (179°) | 99710 | 101861 | 34.9°C | 36.5% | 17.8°C | 7592ft (2314m) | 13.35v | 31 |
| 5335 | 14 Apr 11:40:37 | 8 | 10.9 mph | 14 | S (175°) | 99718 | 101869 | 34.9°C | 36.5% | 17.8°C | 7592ft (2314m) | 13.38v | 31 |
| 5334 | 14 Apr 11:40:25 | 11 | 11.2 mph | 14 | S (173°) | 99719 | 101870 | 34.9°C | 36.6% | 17.9°C | 7575ft (2309m) | 13.35v | 31 |
| 5333 | 14 Apr 11:40:14 | 9 | 9.2 mph | 10 | S (175°) | 99722 | 101873 | 34.9°C | 36.9% | 18°C | 7521ft (2292m) | 13.44v | 31 |